<?xml version="1.0" encoding="UTF-8" standalone="no" ?>
<gpx xmlns="http://www.topografix.com/GPX/1/1" xmlns:xsi="http://www.w3.org/2001/XMLSchema-instance" xsi:schemaLocation="http://www.topografix.com/GPX/1/1 http://www.topografix.com/GPX/1/1/gpx.xsd" version="1.1" creator="VisuGPX - https://www.visugpx.com">
  <metadata>
    <name>Tour des Puys</name>
    <desc><![CDATA[Tour des Puys]]></desc>
  </metadata>
  <trk>
    <name><![CDATA[Tour des Puys]]></name>
    <trkseg>
      <trkpt lat="45.77093" lon="2.98628">
        <ele>834</ele>
        <time>2014-08-22T08:15:35Z</time>
      </trkpt>
      <trkpt lat="45.77094" lon="2.98629">
        <ele>833</ele>
        <time>2014-08-22T08:15:37Z</time>
      </trkpt>
      <trkpt lat="45.77098" lon="2.98628">
        <ele>833</ele>
        <time>2014-08-22T08:15:39Z</time>
      </trkpt>
      <trkpt lat="45.77103" lon="2.98626">
        <ele>834</ele>
        <time>2014-08-22T08:15:41Z</time>
      </trkpt>
      <trkpt lat="45.77109" lon="2.98623">
        <ele>834</ele>
        <time>2014-08-22T08:15:43Z</time>
      </trkpt>
      <trkpt lat="45.77114" lon="2.98611">
        <ele>834</ele>
        <time>2014-08-22T08:15:46Z</time>
      </trkpt>
      <trkpt lat="45.77115" lon="2.98602">
        <ele>834</ele>
        <time>2014-08-22T08:15:48Z</time>
      </trkpt>
      <trkpt lat="45.77117" lon="2.98595">
        <ele>834</ele>
        <time>2014-08-22T08:15:50Z</time>
      </trkpt>
      <trkpt lat="45.7712" lon="2.98585">
        <ele>835</ele>
        <time>2014-08-22T08:15:53Z</time>
      </trkpt>
      <trkpt lat="45.77121" lon="2.98579">
        <ele>835</ele>
        <time>2014-08-22T08:15:55Z</time>
      </trkpt>
      <trkpt lat="45.77123" lon="2.98569">
        <ele>836</ele>
        <time>2014-08-22T08:15:58Z</time>
      </trkpt>
      <trkpt lat="45.77123" lon="2.98565">
        <ele>836</ele>
        <time>2014-08-22T08:16:01Z</time>
      </trkpt>
      <trkpt lat="45.77122" lon="2.9856">
        <ele>836</ele>
        <time>2014-08-22T08:16:03Z</time>
      </trkpt>
      <trkpt lat="45.77124" lon="2.98557">
        <ele>836</ele>
        <time>2014-08-22T08:16:05Z</time>
      </trkpt>
      <trkpt lat="45.7713" lon="2.9855">
        <ele>836</ele>
        <time>2014-08-22T08:16:08Z</time>
      </trkpt>
      <trkpt lat="45.77136" lon="2.98543">
        <ele>837</ele>
        <time>2014-08-22T08:16:10Z</time>
      </trkpt>
      <trkpt lat="45.77148" lon="2.9853">
        <ele>836</ele>
        <time>2014-08-22T08:16:13Z</time>
      </trkpt>
      <trkpt lat="45.77157" lon="2.9852">
        <ele>837</ele>
        <time>2014-08-22T08:16:15Z</time>
      </trkpt>
      <trkpt lat="45.77167" lon="2.9851">
        <ele>837</ele>
        <time>2014-08-22T08:16:17Z</time>
      </trkpt>
      <trkpt lat="45.77174" lon="2.98489">
        <ele>838</ele>
        <time>2014-08-22T08:16:20Z</time>
      </trkpt>
      <trkpt lat="45.77169" lon="2.98467">
        <ele>839</ele>
        <time>2014-08-22T08:16:23Z</time>
      </trkpt>
      <trkpt lat="45.77164" lon="2.98456">
        <ele>840</ele>
        <time>2014-08-22T08:16:25Z</time>
      </trkpt>
      <trkpt lat="45.77156" lon="2.98445">
        <ele>840</ele>
        <time>2014-08-22T08:16:28Z</time>
      </trkpt>
      <trkpt lat="45.77149" lon="2.98441">
        <ele>841</ele>
        <time>2014-08-22T08:16:30Z</time>
      </trkpt>
      <trkpt lat="45.77139" lon="2.98435">
        <ele>842</ele>
        <time>2014-08-22T08:16:33Z</time>
      </trkpt>
      <trkpt lat="45.77129" lon="2.98428">
        <ele>843</ele>
        <time>2014-08-22T08:16:36Z</time>
      </trkpt>
      <trkpt lat="45.77118" lon="2.98419">
        <ele>844</ele>
        <time>2014-08-22T08:16:39Z</time>
      </trkpt>
      <trkpt lat="45.77107" lon="2.98412">
        <ele>845</ele>
        <time>2014-08-22T08:16:42Z</time>
      </trkpt>
      <trkpt lat="45.77096" lon="2.98405">
        <ele>846</ele>
        <time>2014-08-22T08:16:45Z</time>
      </trkpt>
      <trkpt lat="45.77085" lon="2.98401">
        <ele>847</ele>
        <time>2014-08-22T08:16:48Z</time>
      </trkpt>
      <trkpt lat="45.77073" lon="2.984">
        <ele>848</ele>
        <time>2014-08-22T08:16:51Z</time>
      </trkpt>
      <trkpt lat="45.77061" lon="2.98402">
        <ele>848</ele>
        <time>2014-08-22T08:16:54Z</time>
      </trkpt>
      <trkpt lat="45.7705" lon="2.98404">
        <ele>848</ele>
        <time>2014-08-22T08:16:57Z</time>
      </trkpt>
      <trkpt lat="45.77038" lon="2.98405">
        <ele>848</ele>
        <time>2014-08-22T08:17:00Z</time>
      </trkpt>
      <trkpt lat="45.77027" lon="2.98406">
        <ele>849</ele>
        <time>2014-08-22T08:17:03Z</time>
      </trkpt>
      <trkpt lat="45.77016" lon="2.98406">
        <ele>849</ele>
        <time>2014-08-22T08:17:06Z</time>
      </trkpt>
      <trkpt lat="45.77009" lon="2.98406">
        <ele>849</ele>
        <time>2014-08-22T08:17:08Z</time>
      </trkpt>
      <trkpt lat="45.77002" lon="2.98404">
        <ele>849</ele>
        <time>2014-08-22T08:17:10Z</time>
      </trkpt>
      <trkpt lat="45.76996" lon="2.98395">
        <ele>849</ele>
        <time>2014-08-22T08:17:13Z</time>
      </trkpt>
      <trkpt lat="45.76996" lon="2.98388">
        <ele>849</ele>
        <time>2014-08-22T08:17:15Z</time>
      </trkpt>
      <trkpt lat="45.76997" lon="2.98379">
        <ele>849</ele>
        <time>2014-08-22T08:17:18Z</time>
      </trkpt>
      <trkpt lat="45.76998" lon="2.98367">
        <ele>849</ele>
        <time>2014-08-22T08:17:21Z</time>
      </trkpt>
      <trkpt lat="45.77" lon="2.98358">
        <ele>850</ele>
        <time>2014-08-22T08:17:23Z</time>
      </trkpt>
      <trkpt lat="45.77003" lon="2.98342">
        <ele>850</ele>
        <time>2014-08-22T08:17:26Z</time>
      </trkpt>
      <trkpt lat="45.77004" lon="2.98331">
        <ele>851</ele>
        <time>2014-08-22T08:17:28Z</time>
      </trkpt>
      <trkpt lat="45.77007" lon="2.98318">
        <ele>852</ele>
        <time>2014-08-22T08:17:31Z</time>
      </trkpt>
      <trkpt lat="45.77009" lon="2.98304">
        <ele>853</ele>
        <time>2014-08-22T08:17:34Z</time>
      </trkpt>
      <trkpt lat="45.7701" lon="2.9829">
        <ele>854</ele>
        <time>2014-08-22T08:17:37Z</time>
      </trkpt>
      <trkpt lat="45.77013" lon="2.98275">
        <ele>854</ele>
        <time>2014-08-22T08:17:40Z</time>
      </trkpt>
      <trkpt lat="45.77014" lon="2.9826">
        <ele>855</ele>
        <time>2014-08-22T08:17:43Z</time>
      </trkpt>
      <trkpt lat="45.77014" lon="2.98245">
        <ele>856</ele>
        <time>2014-08-22T08:17:46Z</time>
      </trkpt>
      <trkpt lat="45.77013" lon="2.98234">
        <ele>856</ele>
        <time>2014-08-22T08:17:48Z</time>
      </trkpt>
      <trkpt lat="45.77013" lon="2.98223">
        <ele>857</ele>
        <time>2014-08-22T08:17:50Z</time>
      </trkpt>
      <trkpt lat="45.77013" lon="2.98206">
        <ele>857</ele>
        <time>2014-08-22T08:17:53Z</time>
      </trkpt>
      <trkpt lat="45.77013" lon="2.98195">
        <ele>858</ele>
        <time>2014-08-22T08:17:55Z</time>
      </trkpt>
      <trkpt lat="45.77013" lon="2.98178">
        <ele>859</ele>
        <time>2014-08-22T08:17:58Z</time>
      </trkpt>
      <trkpt lat="45.77012" lon="2.98164">
        <ele>860</ele>
        <time>2014-08-22T08:18:01Z</time>
      </trkpt>
      <trkpt lat="45.77012" lon="2.9815">
        <ele>860</ele>
        <time>2014-08-22T08:18:04Z</time>
      </trkpt>
      <trkpt lat="45.77013" lon="2.98134">
        <ele>861</ele>
        <time>2014-08-22T08:18:07Z</time>
      </trkpt>
      <trkpt lat="45.77014" lon="2.98119">
        <ele>862</ele>
        <time>2014-08-22T08:18:10Z</time>
      </trkpt>
      <trkpt lat="45.77016" lon="2.98103">
        <ele>862</ele>
        <time>2014-08-22T08:18:13Z</time>
      </trkpt>
      <trkpt lat="45.77018" lon="2.98088">
        <ele>864</ele>
        <time>2014-08-22T08:18:15Z</time>
      </trkpt>
      <trkpt lat="45.7702" lon="2.98078">
        <ele>864</ele>
        <time>2014-08-22T08:18:18Z</time>
      </trkpt>
      <trkpt lat="45.77023" lon="2.98062">
        <ele>865</ele>
        <time>2014-08-22T08:18:21Z</time>
      </trkpt>
      <trkpt lat="45.77026" lon="2.98047">
        <ele>865</ele>
        <time>2014-08-22T08:18:24Z</time>
      </trkpt>
      <trkpt lat="45.77029" lon="2.98033">
        <ele>867</ele>
        <time>2014-08-22T08:18:27Z</time>
      </trkpt>
      <trkpt lat="45.77031" lon="2.9802">
        <ele>868</ele>
        <time>2014-08-22T08:18:29Z</time>
      </trkpt>
      <trkpt lat="45.77031" lon="2.98012">
        <ele>869</ele>
        <time>2014-08-22T08:18:32Z</time>
      </trkpt>
      <trkpt lat="45.7703" lon="2.98">
        <ele>869</ele>
        <time>2014-08-22T08:18:35Z</time>
      </trkpt>
      <trkpt lat="45.77023" lon="2.97994">
        <ele>870</ele>
        <time>2014-08-22T08:18:38Z</time>
      </trkpt>
      <trkpt lat="45.77017" lon="2.97989">
        <ele>870</ele>
        <time>2014-08-22T08:18:40Z</time>
      </trkpt>
      <trkpt lat="45.7701" lon="2.97985">
        <ele>870</ele>
        <time>2014-08-22T08:18:42Z</time>
      </trkpt>
      <trkpt lat="45.77" lon="2.97976">
        <ele>870</ele>
        <time>2014-08-22T08:18:45Z</time>
      </trkpt>
      <trkpt lat="45.76989" lon="2.97969">
        <ele>870</ele>
        <time>2014-08-22T08:18:47Z</time>
      </trkpt>
      <trkpt lat="45.76982" lon="2.97966">
        <ele>871</ele>
        <time>2014-08-22T08:18:50Z</time>
      </trkpt>
      <trkpt lat="45.7697" lon="2.97961">
        <ele>871</ele>
        <time>2014-08-22T08:18:53Z</time>
      </trkpt>
      <trkpt lat="45.76957" lon="2.97957">
        <ele>872</ele>
        <time>2014-08-22T08:18:56Z</time>
      </trkpt>
      <trkpt lat="45.76944" lon="2.97955">
        <ele>873</ele>
        <time>2014-08-22T08:18:59Z</time>
      </trkpt>
      <trkpt lat="45.7693" lon="2.97954">
        <ele>873</ele>
        <time>2014-08-22T08:19:02Z</time>
      </trkpt>
      <trkpt lat="45.76919" lon="2.97954">
        <ele>873</ele>
        <time>2014-08-22T08:19:04Z</time>
      </trkpt>
      <trkpt lat="45.76902" lon="2.97953">
        <ele>873</ele>
        <time>2014-08-22T08:19:07Z</time>
      </trkpt>
      <trkpt lat="45.76885" lon="2.97951">
        <ele>873</ele>
        <time>2014-08-22T08:19:10Z</time>
      </trkpt>
      <trkpt lat="45.76868" lon="2.97948">
        <ele>873</ele>
        <time>2014-08-22T08:19:12Z</time>
      </trkpt>
      <trkpt lat="45.76856" lon="2.97945">
        <ele>873</ele>
        <time>2014-08-22T08:19:15Z</time>
      </trkpt>
      <trkpt lat="45.76838" lon="2.97942">
        <ele>873</ele>
        <time>2014-08-22T08:19:18Z</time>
      </trkpt>
      <trkpt lat="45.76827" lon="2.97939">
        <ele>873</ele>
        <time>2014-08-22T08:19:20Z</time>
      </trkpt>
      <trkpt lat="45.76811" lon="2.97936">
        <ele>873</ele>
        <time>2014-08-22T08:19:22Z</time>
      </trkpt>
      <trkpt lat="45.768" lon="2.97934">
        <ele>873</ele>
        <time>2014-08-22T08:19:25Z</time>
      </trkpt>
      <trkpt lat="45.76785" lon="2.97929">
        <ele>874</ele>
        <time>2014-08-22T08:19:28Z</time>
      </trkpt>
      <trkpt lat="45.76771" lon="2.97926">
        <ele>874</ele>
        <time>2014-08-22T08:19:31Z</time>
      </trkpt>
      <trkpt lat="45.76765" lon="2.97923">
        <ele>873</ele>
        <time>2014-08-22T08:19:33Z</time>
      </trkpt>
      <trkpt lat="45.76755" lon="2.97916">
        <ele>872</ele>
        <time>2014-08-22T08:19:36Z</time>
      </trkpt>
      <trkpt lat="45.76744" lon="2.97911">
        <ele>871</ele>
        <time>2014-08-22T08:19:38Z</time>
      </trkpt>
      <trkpt lat="45.76736" lon="2.97909">
        <ele>872</ele>
        <time>2014-08-22T08:19:41Z</time>
      </trkpt>
      <trkpt lat="45.76729" lon="2.97906">
        <ele>872</ele>
        <time>2014-08-22T08:19:43Z</time>
      </trkpt>
      <trkpt lat="45.76717" lon="2.97902">
        <ele>872</ele>
        <time>2014-08-22T08:19:46Z</time>
      </trkpt>
      <trkpt lat="45.76708" lon="2.979">
        <ele>872</ele>
        <time>2014-08-22T08:19:48Z</time>
      </trkpt>
      <trkpt lat="45.76699" lon="2.97897">
        <ele>872</ele>
        <time>2014-08-22T08:19:50Z</time>
      </trkpt>
      <trkpt lat="45.76686" lon="2.97893">
        <ele>872</ele>
        <time>2014-08-22T08:19:52Z</time>
      </trkpt>
      <trkpt lat="45.7668" lon="2.97892">
        <ele>872</ele>
        <time>2014-08-22T08:19:55Z</time>
      </trkpt>
      <trkpt lat="45.76672" lon="2.97893">
        <ele>871</ele>
        <time>2014-08-22T08:19:57Z</time>
      </trkpt>
      <trkpt lat="45.76663" lon="2.97892">
        <ele>871</ele>
        <time>2014-08-22T08:19:59Z</time>
      </trkpt>
      <trkpt lat="45.76648" lon="2.97893">
        <ele>871</ele>
        <time>2014-08-22T08:20:02Z</time>
      </trkpt>
      <trkpt lat="45.76632" lon="2.97892">
        <ele>872</ele>
        <time>2014-08-22T08:20:04Z</time>
      </trkpt>
      <trkpt lat="45.76616" lon="2.97893">
        <ele>872</ele>
        <time>2014-08-22T08:20:06Z</time>
      </trkpt>
      <trkpt lat="45.76592" lon="2.97894">
        <ele>872</ele>
        <time>2014-08-22T08:20:09Z</time>
      </trkpt>
      <trkpt lat="45.76567" lon="2.9789">
        <ele>871</ele>
        <time>2014-08-22T08:20:12Z</time>
      </trkpt>
      <trkpt lat="45.76545" lon="2.97881">
        <ele>870</ele>
        <time>2014-08-22T08:20:14Z</time>
      </trkpt>
      <trkpt lat="45.76532" lon="2.97873">
        <ele>870</ele>
        <time>2014-08-22T08:20:17Z</time>
      </trkpt>
      <trkpt lat="45.76512" lon="2.97859">
        <ele>870</ele>
        <time>2014-08-22T08:20:20Z</time>
      </trkpt>
      <trkpt lat="45.76498" lon="2.97849">
        <ele>869</ele>
        <time>2014-08-22T08:20:22Z</time>
      </trkpt>
      <trkpt lat="45.76477" lon="2.97838">
        <ele>868</ele>
        <time>2014-08-22T08:20:25Z</time>
      </trkpt>
      <trkpt lat="45.76458" lon="2.97826">
        <ele>868</ele>
        <time>2014-08-22T08:20:27Z</time>
      </trkpt>
      <trkpt lat="45.76443" lon="2.97818">
        <ele>868</ele>
        <time>2014-08-22T08:20:30Z</time>
      </trkpt>
      <trkpt lat="45.76426" lon="2.97802">
        <ele>867</ele>
        <time>2014-08-22T08:20:33Z</time>
      </trkpt>
      <trkpt lat="45.76412" lon="2.9779">
        <ele>867</ele>
        <time>2014-08-22T08:20:35Z</time>
      </trkpt>
      <trkpt lat="45.76402" lon="2.97778">
        <ele>867</ele>
        <time>2014-08-22T08:20:37Z</time>
      </trkpt>
      <trkpt lat="45.76387" lon="2.9776">
        <ele>867</ele>
        <time>2014-08-22T08:20:40Z</time>
      </trkpt>
      <trkpt lat="45.76374" lon="2.97746">
        <ele>866</ele>
        <time>2014-08-22T08:20:43Z</time>
      </trkpt>
      <trkpt lat="45.76356" lon="2.97734">
        <ele>866</ele>
        <time>2014-08-22T08:20:46Z</time>
      </trkpt>
      <trkpt lat="45.76338" lon="2.97721">
        <ele>866</ele>
        <time>2014-08-22T08:20:49Z</time>
      </trkpt>
      <trkpt lat="45.76322" lon="2.97706">
        <ele>866</ele>
        <time>2014-08-22T08:20:52Z</time>
      </trkpt>
      <trkpt lat="45.7631" lon="2.97691">
        <ele>866</ele>
        <time>2014-08-22T08:20:55Z</time>
      </trkpt>
      <trkpt lat="45.76302" lon="2.9768">
        <ele>866</ele>
        <time>2014-08-22T08:20:57Z</time>
      </trkpt>
      <trkpt lat="45.76292" lon="2.97671">
        <ele>866</ele>
        <time>2014-08-22T08:20:59Z</time>
      </trkpt>
      <trkpt lat="45.76276" lon="2.97659">
        <ele>867</ele>
        <time>2014-08-22T08:21:01Z</time>
      </trkpt>
      <trkpt lat="45.76259" lon="2.97651">
        <ele>867</ele>
        <time>2014-08-22T08:21:05Z</time>
      </trkpt>
      <trkpt lat="45.76248" lon="2.97645">
        <ele>867</ele>
        <time>2014-08-22T08:21:07Z</time>
      </trkpt>
      <trkpt lat="45.76231" lon="2.97638">
        <ele>867</ele>
        <time>2014-08-22T08:21:10Z</time>
      </trkpt>
      <trkpt lat="45.76221" lon="2.97632">
        <ele>867</ele>
        <time>2014-08-22T08:21:12Z</time>
      </trkpt>
      <trkpt lat="45.7621" lon="2.97625">
        <ele>867</ele>
        <time>2014-08-22T08:21:14Z</time>
      </trkpt>
      <trkpt lat="45.76194" lon="2.97613">
        <ele>868</ele>
        <time>2014-08-22T08:21:17Z</time>
      </trkpt>
      <trkpt lat="45.76186" lon="2.97608">
        <ele>869</ele>
        <time>2014-08-22T08:21:19Z</time>
      </trkpt>
      <trkpt lat="45.76175" lon="2.97602">
        <ele>869</ele>
        <time>2014-08-22T08:21:22Z</time>
      </trkpt>
      <trkpt lat="45.76165" lon="2.97593">
        <ele>869</ele>
        <time>2014-08-22T08:21:25Z</time>
      </trkpt>
      <trkpt lat="45.76151" lon="2.97582">
        <ele>869</ele>
        <time>2014-08-22T08:21:28Z</time>
      </trkpt>
      <trkpt lat="45.76138" lon="2.9757">
        <ele>869</ele>
        <time>2014-08-22T08:21:31Z</time>
      </trkpt>
      <trkpt lat="45.7613" lon="2.97564">
        <ele>868</ele>
        <time>2014-08-22T08:21:33Z</time>
      </trkpt>
      <trkpt lat="45.76124" lon="2.97558">
        <ele>868</ele>
        <time>2014-08-22T08:21:35Z</time>
      </trkpt>
      <trkpt lat="45.76113" lon="2.97549">
        <ele>869</ele>
        <time>2014-08-22T08:21:38Z</time>
      </trkpt>
      <trkpt lat="45.76102" lon="2.97537">
        <ele>869</ele>
        <time>2014-08-22T08:21:41Z</time>
      </trkpt>
      <trkpt lat="45.76091" lon="2.97526">
        <ele>870</ele>
        <time>2014-08-22T08:21:44Z</time>
      </trkpt>
      <trkpt lat="45.7608" lon="2.97518">
        <ele>870</ele>
        <time>2014-08-22T08:21:46Z</time>
      </trkpt>
      <trkpt lat="45.76075" lon="2.97514">
        <ele>870</ele>
        <time>2014-08-22T08:21:48Z</time>
      </trkpt>
      <trkpt lat="45.7607" lon="2.97509">
        <ele>870</ele>
        <time>2014-08-22T08:21:51Z</time>
      </trkpt>
      <trkpt lat="45.76063" lon="2.97503">
        <ele>871</ele>
        <time>2014-08-22T08:21:53Z</time>
      </trkpt>
      <trkpt lat="45.76058" lon="2.97499">
        <ele>871</ele>
        <time>2014-08-22T08:21:55Z</time>
      </trkpt>
      <trkpt lat="45.76049" lon="2.97494">
        <ele>872</ele>
        <time>2014-08-22T08:21:57Z</time>
      </trkpt>
      <trkpt lat="45.76044" lon="2.9749">
        <ele>872</ele>
        <time>2014-08-22T08:22:00Z</time>
      </trkpt>
      <trkpt lat="45.76039" lon="2.97483">
        <ele>873</ele>
        <time>2014-08-22T08:22:02Z</time>
      </trkpt>
      <trkpt lat="45.76034" lon="2.97477">
        <ele>873</ele>
        <time>2014-08-22T08:22:05Z</time>
      </trkpt>
      <trkpt lat="45.7603" lon="2.97471">
        <ele>873</ele>
        <time>2014-08-22T08:22:07Z</time>
      </trkpt>
      <trkpt lat="45.76026" lon="2.97466">
        <ele>874</ele>
        <time>2014-08-22T08:22:09Z</time>
      </trkpt>
      <trkpt lat="45.76022" lon="2.97461">
        <ele>874</ele>
        <time>2014-08-22T08:22:11Z</time>
      </trkpt>
      <trkpt lat="45.76014" lon="2.97455">
        <ele>875</ele>
        <time>2014-08-22T08:22:14Z</time>
      </trkpt>
      <trkpt lat="45.76007" lon="2.97451">
        <ele>875</ele>
        <time>2014-08-22T08:22:16Z</time>
      </trkpt>
      <trkpt lat="45.75995" lon="2.97444">
        <ele>876</ele>
        <time>2014-08-22T08:22:18Z</time>
      </trkpt>
      <trkpt lat="45.75986" lon="2.97439">
        <ele>876</ele>
        <time>2014-08-22T08:22:20Z</time>
      </trkpt>
      <trkpt lat="45.75979" lon="2.97435">
        <ele>877</ele>
        <time>2014-08-22T08:22:22Z</time>
      </trkpt>
      <trkpt lat="45.7597" lon="2.97431">
        <ele>877</ele>
        <time>2014-08-22T08:22:25Z</time>
      </trkpt>
      <trkpt lat="45.75962" lon="2.97427">
        <ele>877</ele>
        <time>2014-08-22T08:22:27Z</time>
      </trkpt>
      <trkpt lat="45.75953" lon="2.97423">
        <ele>876</ele>
        <time>2014-08-22T08:22:29Z</time>
      </trkpt>
      <trkpt lat="45.7594" lon="2.97418">
        <ele>876</ele>
        <time>2014-08-22T08:22:32Z</time>
      </trkpt>
      <trkpt lat="45.75932" lon="2.97414">
        <ele>876</ele>
        <time>2014-08-22T08:22:34Z</time>
      </trkpt>
      <trkpt lat="45.75924" lon="2.97412">
        <ele>876</ele>
        <time>2014-08-22T08:22:37Z</time>
      </trkpt>
      <trkpt lat="45.75919" lon="2.97411">
        <ele>876</ele>
        <time>2014-08-22T08:22:39Z</time>
      </trkpt>
      <trkpt lat="45.75914" lon="2.97406">
        <ele>877</ele>
        <time>2014-08-22T08:22:42Z</time>
      </trkpt>
      <trkpt lat="45.75912" lon="2.974">
        <ele>877</ele>
        <time>2014-08-22T08:22:44Z</time>
      </trkpt>
      <trkpt lat="45.75913" lon="2.97389">
        <ele>878</ele>
        <time>2014-08-22T08:22:47Z</time>
      </trkpt>
      <trkpt lat="45.75916" lon="2.97374">
        <ele>878</ele>
        <time>2014-08-22T08:22:50Z</time>
      </trkpt>
      <trkpt lat="45.75917" lon="2.97358">
        <ele>878</ele>
        <time>2014-08-22T08:22:53Z</time>
      </trkpt>
      <trkpt lat="45.75919" lon="2.97347">
        <ele>879</ele>
        <time>2014-08-22T08:22:55Z</time>
      </trkpt>
      <trkpt lat="45.75919" lon="2.97336">
        <ele>880</ele>
        <time>2014-08-22T08:22:57Z</time>
      </trkpt>
      <trkpt lat="45.75919" lon="2.97325">
        <ele>879</ele>
        <time>2014-08-22T08:22:59Z</time>
      </trkpt>
      <trkpt lat="45.75922" lon="2.97308">
        <ele>880</ele>
        <time>2014-08-22T08:23:01Z</time>
      </trkpt>
      <trkpt lat="45.75924" lon="2.97296">
        <ele>880</ele>
        <time>2014-08-22T08:23:04Z</time>
      </trkpt>
      <trkpt lat="45.75926" lon="2.97284">
        <ele>881</ele>
        <time>2014-08-22T08:23:06Z</time>
      </trkpt>
      <trkpt lat="45.75928" lon="2.97268">
        <ele>882</ele>
        <time>2014-08-22T08:23:09Z</time>
      </trkpt>
      <trkpt lat="45.75929" lon="2.97257">
        <ele>882</ele>
        <time>2014-08-22T08:23:11Z</time>
      </trkpt>
      <trkpt lat="45.7593" lon="2.97246">
        <ele>882</ele>
        <time>2014-08-22T08:23:13Z</time>
      </trkpt>
      <trkpt lat="45.75932" lon="2.97231">
        <ele>883</ele>
        <time>2014-08-22T08:23:16Z</time>
      </trkpt>
      <trkpt lat="45.75935" lon="2.9722">
        <ele>883</ele>
        <time>2014-08-22T08:23:18Z</time>
      </trkpt>
      <trkpt lat="45.75937" lon="2.97206">
        <ele>884</ele>
        <time>2014-08-22T08:23:21Z</time>
      </trkpt>
      <trkpt lat="45.7594" lon="2.97194">
        <ele>884</ele>
        <time>2014-08-22T08:23:24Z</time>
      </trkpt>
      <trkpt lat="45.75941" lon="2.97186">
        <ele>884</ele>
        <time>2014-08-22T08:23:26Z</time>
      </trkpt>
      <trkpt lat="45.75945" lon="2.9717">
        <ele>885</ele>
        <time>2014-08-22T08:23:29Z</time>
      </trkpt>
      <trkpt lat="45.75948" lon="2.97159">
        <ele>886</ele>
        <time>2014-08-22T08:23:31Z</time>
      </trkpt>
      <trkpt lat="45.75949" lon="2.97143">
        <ele>886</ele>
        <time>2014-08-22T08:23:34Z</time>
      </trkpt>
      <trkpt lat="45.75949" lon="2.97132">
        <ele>886</ele>
        <time>2014-08-22T08:23:36Z</time>
      </trkpt>
      <trkpt lat="45.75951" lon="2.97114">
        <ele>887</ele>
        <time>2014-08-22T08:23:39Z</time>
      </trkpt>
      <trkpt lat="45.75955" lon="2.97099">
        <ele>888</ele>
        <time>2014-08-22T08:23:41Z</time>
      </trkpt>
      <trkpt lat="45.75956" lon="2.97089">
        <ele>888</ele>
        <time>2014-08-22T08:23:44Z</time>
      </trkpt>
      <trkpt lat="45.75958" lon="2.97073">
        <ele>888</ele>
        <time>2014-08-22T08:23:46Z</time>
      </trkpt>
      <trkpt lat="45.75961" lon="2.97058">
        <ele>888</ele>
        <time>2014-08-22T08:23:49Z</time>
      </trkpt>
      <trkpt lat="45.75962" lon="2.97048">
        <ele>889</ele>
        <time>2014-08-22T08:23:51Z</time>
      </trkpt>
      <trkpt lat="45.75964" lon="2.97039">
        <ele>890</ele>
        <time>2014-08-22T08:23:54Z</time>
      </trkpt>
      <trkpt lat="45.75969" lon="2.97025">
        <ele>891</ele>
        <time>2014-08-22T08:23:56Z</time>
      </trkpt>
      <trkpt lat="45.75972" lon="2.97015">
        <ele>891</ele>
        <time>2014-08-22T08:23:59Z</time>
      </trkpt>
      <trkpt lat="45.75977" lon="2.96997">
        <ele>891</ele>
        <time>2014-08-22T08:24:02Z</time>
      </trkpt>
      <trkpt lat="45.75981" lon="2.96985">
        <ele>891</ele>
        <time>2014-08-22T08:24:04Z</time>
      </trkpt>
      <trkpt lat="45.75984" lon="2.96973">
        <ele>891</ele>
        <time>2014-08-22T08:24:06Z</time>
      </trkpt>
      <trkpt lat="45.75988" lon="2.96954">
        <ele>892</ele>
        <time>2014-08-22T08:24:08Z</time>
      </trkpt>
      <trkpt lat="45.75992" lon="2.9694">
        <ele>892</ele>
        <time>2014-08-22T08:24:10Z</time>
      </trkpt>
      <trkpt lat="45.75998" lon="2.96921">
        <ele>892</ele>
        <time>2014-08-22T08:24:13Z</time>
      </trkpt>
      <trkpt lat="45.76001" lon="2.96911">
        <ele>893</ele>
        <time>2014-08-22T08:24:15Z</time>
      </trkpt>
      <trkpt lat="45.76004" lon="2.96898">
        <ele>893</ele>
        <time>2014-08-22T08:24:17Z</time>
      </trkpt>
      <trkpt lat="45.76009" lon="2.9688">
        <ele>893</ele>
        <time>2014-08-22T08:24:20Z</time>
      </trkpt>
      <trkpt lat="45.76012" lon="2.96867">
        <ele>894</ele>
        <time>2014-08-22T08:24:22Z</time>
      </trkpt>
      <trkpt lat="45.76019" lon="2.96851">
        <ele>894</ele>
        <time>2014-08-22T08:24:25Z</time>
      </trkpt>
      <trkpt lat="45.76022" lon="2.96836">
        <ele>894</ele>
        <time>2014-08-22T08:24:28Z</time>
      </trkpt>
      <trkpt lat="45.76027" lon="2.96821">
        <ele>895</ele>
        <time>2014-08-22T08:24:31Z</time>
      </trkpt>
      <trkpt lat="45.76031" lon="2.96812">
        <ele>895</ele>
        <time>2014-08-22T08:24:34Z</time>
      </trkpt>
      <trkpt lat="45.76033" lon="2.96801">
        <ele>896</ele>
        <time>2014-08-22T08:24:36Z</time>
      </trkpt>
      <trkpt lat="45.76038" lon="2.9679">
        <ele>896</ele>
        <time>2014-08-22T08:24:38Z</time>
      </trkpt>
      <trkpt lat="45.76043" lon="2.96776">
        <ele>896</ele>
        <time>2014-08-22T08:24:41Z</time>
      </trkpt>
      <trkpt lat="45.76048" lon="2.96766">
        <ele>896</ele>
        <time>2014-08-22T08:24:43Z</time>
      </trkpt>
      <trkpt lat="45.76055" lon="2.96752">
        <ele>897</ele>
        <time>2014-08-22T08:24:46Z</time>
      </trkpt>
      <trkpt lat="45.76063" lon="2.96738">
        <ele>897</ele>
        <time>2014-08-22T08:24:49Z</time>
      </trkpt>
      <trkpt lat="45.7607" lon="2.96725">
        <ele>897</ele>
        <time>2014-08-22T08:24:52Z</time>
      </trkpt>
      <trkpt lat="45.76078" lon="2.96714">
        <ele>898</ele>
        <time>2014-08-22T08:24:55Z</time>
      </trkpt>
      <trkpt lat="45.76088" lon="2.96705">
        <ele>898</ele>
        <time>2014-08-22T08:24:58Z</time>
      </trkpt>
      <trkpt lat="45.76096" lon="2.96695">
        <ele>900</ele>
        <time>2014-08-22T08:25:01Z</time>
      </trkpt>
      <trkpt lat="45.76104" lon="2.96687">
        <ele>900</ele>
        <time>2014-08-22T08:25:04Z</time>
      </trkpt>
      <trkpt lat="45.76112" lon="2.96681">
        <ele>901</ele>
        <time>2014-08-22T08:25:07Z</time>
      </trkpt>
      <trkpt lat="45.76118" lon="2.96674">
        <ele>902</ele>
        <time>2014-08-22T08:25:09Z</time>
      </trkpt>
      <trkpt lat="45.76127" lon="2.96664">
        <ele>903</ele>
        <time>2014-08-22T08:25:11Z</time>
      </trkpt>
      <trkpt lat="45.76133" lon="2.96658">
        <ele>903</ele>
        <time>2014-08-22T08:25:13Z</time>
      </trkpt>
      <trkpt lat="45.76138" lon="2.96653">
        <ele>903</ele>
        <time>2014-08-22T08:25:15Z</time>
      </trkpt>
      <trkpt lat="45.76142" lon="2.96646">
        <ele>904</ele>
        <time>2014-08-22T08:25:17Z</time>
      </trkpt>
      <trkpt lat="45.76148" lon="2.96641">
        <ele>904</ele>
        <time>2014-08-22T08:25:19Z</time>
      </trkpt>
      <trkpt lat="45.76156" lon="2.96633">
        <ele>905</ele>
        <time>2014-08-22T08:25:22Z</time>
      </trkpt>
      <trkpt lat="45.76161" lon="2.96628">
        <ele>905</ele>
        <time>2014-08-22T08:25:24Z</time>
      </trkpt>
      <trkpt lat="45.76168" lon="2.96622">
        <ele>906</ele>
        <time>2014-08-22T08:25:27Z</time>
      </trkpt>
      <trkpt lat="45.76173" lon="2.96617">
        <ele>907</ele>
        <time>2014-08-22T08:25:29Z</time>
      </trkpt>
      <trkpt lat="45.76178" lon="2.96613">
        <ele>908</ele>
        <time>2014-08-22T08:25:32Z</time>
      </trkpt>
      <trkpt lat="45.76183" lon="2.9661">
        <ele>909</ele>
        <time>2014-08-22T08:25:34Z</time>
      </trkpt>
      <trkpt lat="45.76188" lon="2.96605">
        <ele>909</ele>
        <time>2014-08-22T08:25:36Z</time>
      </trkpt>
      <trkpt lat="45.76193" lon="2.96596">
        <ele>910</ele>
        <time>2014-08-22T08:25:38Z</time>
      </trkpt>
      <trkpt lat="45.76197" lon="2.96591">
        <ele>910</ele>
        <time>2014-08-22T08:25:40Z</time>
      </trkpt>
      <trkpt lat="45.76202" lon="2.96586">
        <ele>911</ele>
        <time>2014-08-22T08:25:42Z</time>
      </trkpt>
      <trkpt lat="45.76206" lon="2.9658">
        <ele>911</ele>
        <time>2014-08-22T08:25:44Z</time>
      </trkpt>
      <trkpt lat="45.7621" lon="2.96575">
        <ele>912</ele>
        <time>2014-08-22T08:25:46Z</time>
      </trkpt>
      <trkpt lat="45.76215" lon="2.96569">
        <ele>912</ele>
        <time>2014-08-22T08:25:48Z</time>
      </trkpt>
      <trkpt lat="45.76219" lon="2.96563">
        <ele>913</ele>
        <time>2014-08-22T08:25:51Z</time>
      </trkpt>
      <trkpt lat="45.76223" lon="2.96559">
        <ele>914</ele>
        <time>2014-08-22T08:25:53Z</time>
      </trkpt>
      <trkpt lat="45.76226" lon="2.96555">
        <ele>914</ele>
        <time>2014-08-22T08:25:55Z</time>
      </trkpt>
      <trkpt lat="45.76228" lon="2.9655">
        <ele>915</ele>
        <time>2014-08-22T08:25:57Z</time>
      </trkpt>
      <trkpt lat="45.7623" lon="2.96547">
        <ele>915</ele>
        <time>2014-08-22T08:25:59Z</time>
      </trkpt>
      <trkpt lat="45.76232" lon="2.96542">
        <ele>916</ele>
        <time>2014-08-22T08:26:02Z</time>
      </trkpt>
      <trkpt lat="45.76235" lon="2.96537">
        <ele>916</ele>
        <time>2014-08-22T08:26:04Z</time>
      </trkpt>
      <trkpt lat="45.76241" lon="2.9653">
        <ele>916</ele>
        <time>2014-08-22T08:26:06Z</time>
      </trkpt>
      <trkpt lat="45.76246" lon="2.96526">
        <ele>917</ele>
        <time>2014-08-22T08:26:09Z</time>
      </trkpt>
      <trkpt lat="45.76249" lon="2.96524">
        <ele>918</ele>
        <time>2014-08-22T08:26:11Z</time>
      </trkpt>
      <trkpt lat="45.76252" lon="2.9652">
        <ele>919</ele>
        <time>2014-08-22T08:26:13Z</time>
      </trkpt>
      <trkpt lat="45.76256" lon="2.96519">
        <ele>919</ele>
        <time>2014-08-22T08:26:15Z</time>
      </trkpt>
      <trkpt lat="45.76261" lon="2.96517">
        <ele>920</ele>
        <time>2014-08-22T08:26:17Z</time>
      </trkpt>
      <trkpt lat="45.76265" lon="2.96514">
        <ele>921</ele>
        <time>2014-08-22T08:26:19Z</time>
      </trkpt>
      <trkpt lat="45.7627" lon="2.9651">
        <ele>922</ele>
        <time>2014-08-22T08:26:21Z</time>
      </trkpt>
      <trkpt lat="45.76276" lon="2.96505">
        <ele>922</ele>
        <time>2014-08-22T08:26:24Z</time>
      </trkpt>
      <trkpt lat="45.76278" lon="2.965">
        <ele>923</ele>
        <time>2014-08-22T08:26:26Z</time>
      </trkpt>
      <trkpt lat="45.7628" lon="2.96493">
        <ele>924</ele>
        <time>2014-08-22T08:26:29Z</time>
      </trkpt>
      <trkpt lat="45.76282" lon="2.96485">
        <ele>925</ele>
        <time>2014-08-22T08:26:31Z</time>
      </trkpt>
      <trkpt lat="45.76285" lon="2.96473">
        <ele>926</ele>
        <time>2014-08-22T08:26:33Z</time>
      </trkpt>
      <trkpt lat="45.76286" lon="2.96465">
        <ele>926</ele>
        <time>2014-08-22T08:26:35Z</time>
      </trkpt>
      <trkpt lat="45.76288" lon="2.96457">
        <ele>926</ele>
        <time>2014-08-22T08:26:37Z</time>
      </trkpt>
      <trkpt lat="45.76289" lon="2.96449">
        <ele>927</ele>
        <time>2014-08-22T08:26:39Z</time>
      </trkpt>
      <trkpt lat="45.76291" lon="2.96443">
        <ele>927</ele>
        <time>2014-08-22T08:26:41Z</time>
      </trkpt>
      <trkpt lat="45.76292" lon="2.96435">
        <ele>927</ele>
        <time>2014-08-22T08:26:43Z</time>
      </trkpt>
      <trkpt lat="45.76294" lon="2.96428">
        <ele>927</ele>
        <time>2014-08-22T08:26:45Z</time>
      </trkpt>
      <trkpt lat="45.76296" lon="2.9642">
        <ele>928</ele>
        <time>2014-08-22T08:26:47Z</time>
      </trkpt>
      <trkpt lat="45.76297" lon="2.96413">
        <ele>928</ele>
        <time>2014-08-22T08:26:49Z</time>
      </trkpt>
      <trkpt lat="45.76299" lon="2.96404">
        <ele>929</ele>
        <time>2014-08-22T08:26:51Z</time>
      </trkpt>
      <trkpt lat="45.76299" lon="2.96395">
        <ele>929</ele>
        <time>2014-08-22T08:26:53Z</time>
      </trkpt>
      <trkpt lat="45.76301" lon="2.96388">
        <ele>930</ele>
        <time>2014-08-22T08:26:55Z</time>
      </trkpt>
      <trkpt lat="45.76303" lon="2.96378">
        <ele>930</ele>
        <time>2014-08-22T08:26:58Z</time>
      </trkpt>
      <trkpt lat="45.76305" lon="2.96369">
        <ele>930</ele>
        <time>2014-08-22T08:27:00Z</time>
      </trkpt>
      <trkpt lat="45.76308" lon="2.96355">
        <ele>931</ele>
        <time>2014-08-22T08:27:02Z</time>
      </trkpt>
      <trkpt lat="45.7631" lon="2.96346">
        <ele>931</ele>
        <time>2014-08-22T08:27:04Z</time>
      </trkpt>
      <trkpt lat="45.76313" lon="2.96338">
        <ele>932</ele>
        <time>2014-08-22T08:27:06Z</time>
      </trkpt>
      <trkpt lat="45.76315" lon="2.96331">
        <ele>933</ele>
        <time>2014-08-22T08:27:08Z</time>
      </trkpt>
      <trkpt lat="45.76316" lon="2.96326">
        <ele>933</ele>
        <time>2014-08-22T08:27:10Z</time>
      </trkpt>
      <trkpt lat="45.76318" lon="2.96319">
        <ele>933</ele>
        <time>2014-08-22T08:27:12Z</time>
      </trkpt>
      <trkpt lat="45.7632" lon="2.96313">
        <ele>934</ele>
        <time>2014-08-22T08:27:14Z</time>
      </trkpt>
      <trkpt lat="45.76321" lon="2.96307">
        <ele>934</ele>
        <time>2014-08-22T08:27:16Z</time>
      </trkpt>
      <trkpt lat="45.76323" lon="2.96301">
        <ele>935</ele>
        <time>2014-08-22T08:27:18Z</time>
      </trkpt>
      <trkpt lat="45.76323" lon="2.96293">
        <ele>936</ele>
        <time>2014-08-22T08:27:20Z</time>
      </trkpt>
      <trkpt lat="45.76324" lon="2.96287">
        <ele>936</ele>
        <time>2014-08-22T08:27:22Z</time>
      </trkpt>
      <trkpt lat="45.76326" lon="2.96278">
        <ele>937</ele>
        <time>2014-08-22T08:27:24Z</time>
      </trkpt>
      <trkpt lat="45.76328" lon="2.96269">
        <ele>937</ele>
        <time>2014-08-22T08:27:27Z</time>
      </trkpt>
      <trkpt lat="45.7633" lon="2.96261">
        <ele>938</ele>
        <time>2014-08-22T08:27:29Z</time>
      </trkpt>
      <trkpt lat="45.76332" lon="2.9625">
        <ele>938</ele>
        <time>2014-08-22T08:27:31Z</time>
      </trkpt>
      <trkpt lat="45.76333" lon="2.96244">
        <ele>939</ele>
        <time>2014-08-22T08:27:33Z</time>
      </trkpt>
      <trkpt lat="45.76334" lon="2.96236">
        <ele>939</ele>
        <time>2014-08-22T08:27:35Z</time>
      </trkpt>
      <trkpt lat="45.76335" lon="2.96224">
        <ele>939</ele>
        <time>2014-08-22T08:27:38Z</time>
      </trkpt>
      <trkpt lat="45.76335" lon="2.96216">
        <ele>940</ele>
        <time>2014-08-22T08:27:40Z</time>
      </trkpt>
      <trkpt lat="45.76336" lon="2.96208">
        <ele>941</ele>
        <time>2014-08-22T08:27:42Z</time>
      </trkpt>
      <trkpt lat="45.76337" lon="2.96198">
        <ele>942</ele>
        <time>2014-08-22T08:27:45Z</time>
      </trkpt>
      <trkpt lat="45.76338" lon="2.96193">
        <ele>943</ele>
        <time>2014-08-22T08:27:47Z</time>
      </trkpt>
      <trkpt lat="45.76338" lon="2.96184">
        <ele>944</ele>
        <time>2014-08-22T08:27:50Z</time>
      </trkpt>
      <trkpt lat="45.76338" lon="2.96178">
        <ele>945</ele>
        <time>2014-08-22T08:27:52Z</time>
      </trkpt>
      <trkpt lat="45.76338" lon="2.96173">
        <ele>946</ele>
        <time>2014-08-22T08:27:54Z</time>
      </trkpt>
      <trkpt lat="45.76338" lon="2.96167">
        <ele>946</ele>
        <time>2014-08-22T08:27:56Z</time>
      </trkpt>
      <trkpt lat="45.76338" lon="2.96161">
        <ele>947</ele>
        <time>2014-08-22T08:27:59Z</time>
      </trkpt>
      <trkpt lat="45.76339" lon="2.96151">
        <ele>947</ele>
        <time>2014-08-22T08:28:01Z</time>
      </trkpt>
      <trkpt lat="45.76339" lon="2.96145">
        <ele>948</ele>
        <time>2014-08-22T08:28:03Z</time>
      </trkpt>
      <trkpt lat="45.7634" lon="2.96137">
        <ele>949</ele>
        <time>2014-08-22T08:28:05Z</time>
      </trkpt>
      <trkpt lat="45.7634" lon="2.96128">
        <ele>950</ele>
        <time>2014-08-22T08:28:08Z</time>
      </trkpt>
      <trkpt lat="45.7634" lon="2.96123">
        <ele>952</ele>
        <time>2014-08-22T08:28:11Z</time>
      </trkpt>
      <trkpt lat="45.76341" lon="2.96119">
        <ele>952</ele>
        <time>2014-08-22T08:28:13Z</time>
      </trkpt>
      <trkpt lat="45.76342" lon="2.96115">
        <ele>952</ele>
        <time>2014-08-22T08:28:15Z</time>
      </trkpt>
      <trkpt lat="45.76341" lon="2.9611">
        <ele>954</ele>
        <time>2014-08-22T08:28:18Z</time>
      </trkpt>
      <trkpt lat="45.76341" lon="2.96105">
        <ele>954</ele>
        <time>2014-08-22T08:28:20Z</time>
      </trkpt>
      <trkpt lat="45.76341" lon="2.96098">
        <ele>955</ele>
        <time>2014-08-22T08:28:23Z</time>
      </trkpt>
      <trkpt lat="45.76342" lon="2.96088">
        <ele>956</ele>
        <time>2014-08-22T08:28:25Z</time>
      </trkpt>
      <trkpt lat="45.76342" lon="2.96081">
        <ele>956</ele>
        <time>2014-08-22T08:28:27Z</time>
      </trkpt>
      <trkpt lat="45.76342" lon="2.96075">
        <ele>957</ele>
        <time>2014-08-22T08:28:29Z</time>
      </trkpt>
      <trkpt lat="45.76343" lon="2.96069">
        <ele>957</ele>
        <time>2014-08-22T08:28:31Z</time>
      </trkpt>
      <trkpt lat="45.76344" lon="2.96059">
        <ele>958</ele>
        <time>2014-08-22T08:28:34Z</time>
      </trkpt>
      <trkpt lat="45.76345" lon="2.96053">
        <ele>959</ele>
        <time>2014-08-22T08:28:36Z</time>
      </trkpt>
      <trkpt lat="45.76345" lon="2.96048">
        <ele>960</ele>
        <time>2014-08-22T08:28:38Z</time>
      </trkpt>
      <trkpt lat="45.76345" lon="2.96043">
        <ele>961</ele>
        <time>2014-08-22T08:28:40Z</time>
      </trkpt>
      <trkpt lat="45.76344" lon="2.96037">
        <ele>962</ele>
        <time>2014-08-22T08:28:42Z</time>
      </trkpt>
      <trkpt lat="45.76344" lon="2.96031">
        <ele>963</ele>
        <time>2014-08-22T08:28:44Z</time>
      </trkpt>
      <trkpt lat="45.76344" lon="2.96026">
        <ele>963</ele>
        <time>2014-08-22T08:28:46Z</time>
      </trkpt>
      <trkpt lat="45.76345" lon="2.96019">
        <ele>963</ele>
        <time>2014-08-22T08:28:49Z</time>
      </trkpt>
      <trkpt lat="45.76346" lon="2.96009">
        <ele>964</ele>
        <time>2014-08-22T08:28:51Z</time>
      </trkpt>
      <trkpt lat="45.76346" lon="2.96001">
        <ele>965</ele>
        <time>2014-08-22T08:28:54Z</time>
      </trkpt>
      <trkpt lat="45.76346" lon="2.95997">
        <ele>965</ele>
        <time>2014-08-22T08:28:56Z</time>
      </trkpt>
      <trkpt lat="45.76345" lon="2.9599">
        <ele>966</ele>
        <time>2014-08-22T08:28:58Z</time>
      </trkpt>
      <trkpt lat="45.76345" lon="2.95985">
        <ele>967</ele>
        <time>2014-08-22T08:29:00Z</time>
      </trkpt>
      <trkpt lat="45.76346" lon="2.95979">
        <ele>967</ele>
        <time>2014-08-22T08:29:02Z</time>
      </trkpt>
      <trkpt lat="45.76346" lon="2.95973">
        <ele>968</ele>
        <time>2014-08-22T08:29:04Z</time>
      </trkpt>
      <trkpt lat="45.76347" lon="2.95969">
        <ele>969</ele>
        <time>2014-08-22T08:29:06Z</time>
      </trkpt>
      <trkpt lat="45.76347" lon="2.95965">
        <ele>970</ele>
        <time>2014-08-22T08:29:08Z</time>
      </trkpt>
      <trkpt lat="45.76348" lon="2.95961">
        <ele>970</ele>
        <time>2014-08-22T08:29:10Z</time>
      </trkpt>
      <trkpt lat="45.76349" lon="2.95956">
        <ele>971</ele>
        <time>2014-08-22T08:29:12Z</time>
      </trkpt>
      <trkpt lat="45.76349" lon="2.95951">
        <ele>971</ele>
        <time>2014-08-22T08:29:15Z</time>
      </trkpt>
      <trkpt lat="45.76349" lon="2.95944">
        <ele>972</ele>
        <time>2014-08-22T08:29:17Z</time>
      </trkpt>
      <trkpt lat="45.7635" lon="2.95939">
        <ele>973</ele>
        <time>2014-08-22T08:29:19Z</time>
      </trkpt>
      <trkpt lat="45.76349" lon="2.95935">
        <ele>974</ele>
        <time>2014-08-22T08:29:21Z</time>
      </trkpt>
      <trkpt lat="45.76348" lon="2.9593">
        <ele>974</ele>
        <time>2014-08-22T08:29:23Z</time>
      </trkpt>
      <trkpt lat="45.76348" lon="2.95923">
        <ele>975</ele>
        <time>2014-08-22T08:29:25Z</time>
      </trkpt>
      <trkpt lat="45.76348" lon="2.95915">
        <ele>976</ele>
        <time>2014-08-22T08:29:28Z</time>
      </trkpt>
      <trkpt lat="45.76348" lon="2.95905">
        <ele>977</ele>
        <time>2014-08-22T08:29:31Z</time>
      </trkpt>
      <trkpt lat="45.76348" lon="2.959">
        <ele>978</ele>
        <time>2014-08-22T08:29:33Z</time>
      </trkpt>
      <trkpt lat="45.76347" lon="2.95895">
        <ele>979</ele>
        <time>2014-08-22T08:29:35Z</time>
      </trkpt>
      <trkpt lat="45.76348" lon="2.9589">
        <ele>980</ele>
        <time>2014-08-22T08:29:37Z</time>
      </trkpt>
      <trkpt lat="45.76349" lon="2.95884">
        <ele>981</ele>
        <time>2014-08-22T08:29:40Z</time>
      </trkpt>
      <trkpt lat="45.76351" lon="2.95877">
        <ele>982</ele>
        <time>2014-08-22T08:29:42Z</time>
      </trkpt>
      <trkpt lat="45.76352" lon="2.95869">
        <ele>983</ele>
        <time>2014-08-22T08:29:45Z</time>
      </trkpt>
      <trkpt lat="45.76352" lon="2.95865">
        <ele>984</ele>
        <time>2014-08-22T08:29:47Z</time>
      </trkpt>
      <trkpt lat="45.76353" lon="2.9586">
        <ele>984</ele>
        <time>2014-08-22T08:29:49Z</time>
      </trkpt>
      <trkpt lat="45.76354" lon="2.95854">
        <ele>985</ele>
        <time>2014-08-22T08:29:51Z</time>
      </trkpt>
      <trkpt lat="45.76354" lon="2.9585">
        <ele>985</ele>
        <time>2014-08-22T08:29:53Z</time>
      </trkpt>
      <trkpt lat="45.76355" lon="2.95845">
        <ele>986</ele>
        <time>2014-08-22T08:29:55Z</time>
      </trkpt>
      <trkpt lat="45.76356" lon="2.9584">
        <ele>987</ele>
        <time>2014-08-22T08:29:57Z</time>
      </trkpt>
      <trkpt lat="45.76357" lon="2.95836">
        <ele>988</ele>
        <time>2014-08-22T08:29:59Z</time>
      </trkpt>
      <trkpt lat="45.76357" lon="2.95831">
        <ele>988</ele>
        <time>2014-08-22T08:30:01Z</time>
      </trkpt>
      <trkpt lat="45.76358" lon="2.95824">
        <ele>990</ele>
        <time>2014-08-22T08:30:04Z</time>
      </trkpt>
      <trkpt lat="45.76358" lon="2.95819">
        <ele>990</ele>
        <time>2014-08-22T08:30:07Z</time>
      </trkpt>
      <trkpt lat="45.76357" lon="2.95812">
        <ele>991</ele>
        <time>2014-08-22T08:30:09Z</time>
      </trkpt>
      <trkpt lat="45.76358" lon="2.95807">
        <ele>992</ele>
        <time>2014-08-22T08:30:11Z</time>
      </trkpt>
      <trkpt lat="45.76357" lon="2.95803">
        <ele>993</ele>
        <time>2014-08-22T08:30:13Z</time>
      </trkpt>
      <trkpt lat="45.76357" lon="2.95798">
        <ele>993</ele>
        <time>2014-08-22T08:30:15Z</time>
      </trkpt>
      <trkpt lat="45.76357" lon="2.95791">
        <ele>994</ele>
        <time>2014-08-22T08:30:18Z</time>
      </trkpt>
      <trkpt lat="45.76358" lon="2.95786">
        <ele>994</ele>
        <time>2014-08-22T08:30:20Z</time>
      </trkpt>
      <trkpt lat="45.76358" lon="2.95778">
        <ele>994</ele>
        <time>2014-08-22T08:30:23Z</time>
      </trkpt>
      <trkpt lat="45.76358" lon="2.95773">
        <ele>995</ele>
        <time>2014-08-22T08:30:25Z</time>
      </trkpt>
      <trkpt lat="45.76358" lon="2.95767">
        <ele>996</ele>
        <time>2014-08-22T08:30:27Z</time>
      </trkpt>
      <trkpt lat="45.76358" lon="2.95762">
        <ele>996</ele>
        <time>2014-08-22T08:30:29Z</time>
      </trkpt>
      <trkpt lat="45.76358" lon="2.95758">
        <ele>997</ele>
        <time>2014-08-22T08:30:31Z</time>
      </trkpt>
      <trkpt lat="45.76359" lon="2.95753">
        <ele>998</ele>
        <time>2014-08-22T08:30:33Z</time>
      </trkpt>
      <trkpt lat="45.76361" lon="2.95749">
        <ele>999</ele>
        <time>2014-08-22T08:30:36Z</time>
      </trkpt>
      <trkpt lat="45.76363" lon="2.95745">
        <ele>1000</ele>
        <time>2014-08-22T08:30:38Z</time>
      </trkpt>
      <trkpt lat="45.76363" lon="2.95741">
        <ele>1000</ele>
        <time>2014-08-22T08:30:40Z</time>
      </trkpt>
      <trkpt lat="45.76362" lon="2.95737">
        <ele>1001</ele>
        <time>2014-08-22T08:30:42Z</time>
      </trkpt>
      <trkpt lat="45.76359" lon="2.9573">
        <ele>1001</ele>
        <time>2014-08-22T08:30:45Z</time>
      </trkpt>
      <trkpt lat="45.76357" lon="2.95725">
        <ele>1002</ele>
        <time>2014-08-22T08:30:47Z</time>
      </trkpt>
      <trkpt lat="45.76353" lon="2.95717">
        <ele>1002</ele>
        <time>2014-08-22T08:30:50Z</time>
      </trkpt>
      <trkpt lat="45.7635" lon="2.95711">
        <ele>1002</ele>
        <time>2014-08-22T08:30:52Z</time>
      </trkpt>
      <trkpt lat="45.76346" lon="2.95702">
        <ele>1003</ele>
        <time>2014-08-22T08:30:55Z</time>
      </trkpt>
      <trkpt lat="45.76343" lon="2.95695">
        <ele>1003</ele>
        <time>2014-08-22T08:30:57Z</time>
      </trkpt>
      <trkpt lat="45.76341" lon="2.95689">
        <ele>1004</ele>
        <time>2014-08-22T08:30:59Z</time>
      </trkpt>
      <trkpt lat="45.76338" lon="2.95682">
        <ele>1005</ele>
        <time>2014-08-22T08:31:02Z</time>
      </trkpt>
      <trkpt lat="45.76337" lon="2.95676">
        <ele>1005</ele>
        <time>2014-08-22T08:31:05Z</time>
      </trkpt>
      <trkpt lat="45.76324" lon="2.95673">
        <ele>1010</ele>
        <time>2014-08-22T08:31:07Z</time>
      </trkpt>
      <trkpt lat="45.76321" lon="2.95674">
        <ele>1010</ele>
        <time>2014-08-22T08:31:09Z</time>
      </trkpt>
      <trkpt lat="45.76315" lon="2.95675">
        <ele>1009</ele>
        <time>2014-08-22T08:31:12Z</time>
      </trkpt>
      <trkpt lat="45.7631" lon="2.9568">
        <ele>1008</ele>
        <time>2014-08-22T08:31:14Z</time>
      </trkpt>
      <trkpt lat="45.763" lon="2.95694">
        <ele>1007</ele>
        <time>2014-08-22T08:31:17Z</time>
      </trkpt>
      <trkpt lat="45.76292" lon="2.95708">
        <ele>1007</ele>
        <time>2014-08-22T08:31:20Z</time>
      </trkpt>
      <trkpt lat="45.76282" lon="2.95716">
        <ele>1006</ele>
        <time>2014-08-22T08:31:22Z</time>
      </trkpt>
      <trkpt lat="45.76267" lon="2.95719">
        <ele>1005</ele>
        <time>2014-08-22T08:31:24Z</time>
      </trkpt>
      <trkpt lat="45.76253" lon="2.95728">
        <ele>1004</ele>
        <time>2014-08-22T08:31:26Z</time>
      </trkpt>
      <trkpt lat="45.76237" lon="2.95739">
        <ele>1002</ele>
        <time>2014-08-22T08:31:28Z</time>
      </trkpt>
      <trkpt lat="45.7622" lon="2.95741">
        <ele>1000</ele>
        <time>2014-08-22T08:31:30Z</time>
      </trkpt>
      <trkpt lat="45.76193" lon="2.95746">
        <ele>998</ele>
        <time>2014-08-22T08:31:33Z</time>
      </trkpt>
      <trkpt lat="45.76168" lon="2.95766">
        <ele>996</ele>
        <time>2014-08-22T08:31:36Z</time>
      </trkpt>
      <trkpt lat="45.76151" lon="2.95783">
        <ele>995</ele>
        <time>2014-08-22T08:31:38Z</time>
      </trkpt>
      <trkpt lat="45.76136" lon="2.95797">
        <ele>994</ele>
        <time>2014-08-22T08:31:40Z</time>
      </trkpt>
      <trkpt lat="45.76119" lon="2.95809">
        <ele>990</ele>
        <time>2014-08-22T08:31:42Z</time>
      </trkpt>
      <trkpt lat="45.76103" lon="2.95819">
        <ele>987</ele>
        <time>2014-08-22T08:31:44Z</time>
      </trkpt>
      <trkpt lat="45.76091" lon="2.95833">
        <ele>985</ele>
        <time>2014-08-22T08:31:46Z</time>
      </trkpt>
      <trkpt lat="45.76083" lon="2.95852">
        <ele>984</ele>
        <time>2014-08-22T08:31:48Z</time>
      </trkpt>
      <trkpt lat="45.76078" lon="2.95873">
        <ele>981</ele>
        <time>2014-08-22T08:31:51Z</time>
      </trkpt>
      <trkpt lat="45.76073" lon="2.95888">
        <ele>979</ele>
        <time>2014-08-22T08:31:53Z</time>
      </trkpt>
      <trkpt lat="45.76071" lon="2.95902">
        <ele>976</ele>
        <time>2014-08-22T08:31:55Z</time>
      </trkpt>
      <trkpt lat="45.76071" lon="2.95918">
        <ele>974</ele>
        <time>2014-08-22T08:31:58Z</time>
      </trkpt>
      <trkpt lat="45.76073" lon="2.95944">
        <ele>972</ele>
        <time>2014-08-22T08:32:01Z</time>
      </trkpt>
      <trkpt lat="45.76075" lon="2.95965">
        <ele>970</ele>
        <time>2014-08-22T08:32:03Z</time>
      </trkpt>
      <trkpt lat="45.76076" lon="2.95981">
        <ele>967</ele>
        <time>2014-08-22T08:32:05Z</time>
      </trkpt>
      <trkpt lat="45.76082" lon="2.95999">
        <ele>964</ele>
        <time>2014-08-22T08:32:07Z</time>
      </trkpt>
      <trkpt lat="45.76088" lon="2.96014">
        <ele>960</ele>
        <time>2014-08-22T08:32:09Z</time>
      </trkpt>
      <trkpt lat="45.76091" lon="2.96029">
        <ele>957</ele>
        <time>2014-08-22T08:32:11Z</time>
      </trkpt>
      <trkpt lat="45.76089" lon="2.96055">
        <ele>952</ele>
        <time>2014-08-22T08:32:14Z</time>
      </trkpt>
      <trkpt lat="45.76086" lon="2.96066">
        <ele>949</ele>
        <time>2014-08-22T08:32:16Z</time>
      </trkpt>
      <trkpt lat="45.76082" lon="2.96084">
        <ele>947</ele>
        <time>2014-08-22T08:32:19Z</time>
      </trkpt>
      <trkpt lat="45.76076" lon="2.96099">
        <ele>944</ele>
        <time>2014-08-22T08:32:21Z</time>
      </trkpt>
      <trkpt lat="45.76074" lon="2.96121">
        <ele>942</ele>
        <time>2014-08-22T08:32:24Z</time>
      </trkpt>
      <trkpt lat="45.76073" lon="2.96139">
        <ele>938</ele>
        <time>2014-08-22T08:32:27Z</time>
      </trkpt>
      <trkpt lat="45.76072" lon="2.96147">
        <ele>936</ele>
        <time>2014-08-22T08:32:29Z</time>
      </trkpt>
      <trkpt lat="45.76068" lon="2.96163">
        <ele>934</ele>
        <time>2014-08-22T08:32:32Z</time>
      </trkpt>
      <trkpt lat="45.76066" lon="2.96176">
        <ele>932</ele>
        <time>2014-08-22T08:32:35Z</time>
      </trkpt>
      <trkpt lat="45.76065" lon="2.96187">
        <ele>930</ele>
        <time>2014-08-22T08:32:37Z</time>
      </trkpt>
      <trkpt lat="45.76061" lon="2.96211">
        <ele>928</ele>
        <time>2014-08-22T08:32:40Z</time>
      </trkpt>
      <trkpt lat="45.76054" lon="2.96229">
        <ele>927</ele>
        <time>2014-08-22T08:32:42Z</time>
      </trkpt>
      <trkpt lat="45.76048" lon="2.9625">
        <ele>927</ele>
        <time>2014-08-22T08:32:44Z</time>
      </trkpt>
      <trkpt lat="45.76041" lon="2.9627">
        <ele>926</ele>
        <time>2014-08-22T08:32:46Z</time>
      </trkpt>
      <trkpt lat="45.76031" lon="2.96301">
        <ele>925</ele>
        <time>2014-08-22T08:32:49Z</time>
      </trkpt>
      <trkpt lat="45.76024" lon="2.96322">
        <ele>924</ele>
        <time>2014-08-22T08:32:51Z</time>
      </trkpt>
      <trkpt lat="45.76013" lon="2.96342">
        <ele>923</ele>
        <time>2014-08-22T08:32:53Z</time>
      </trkpt>
      <trkpt lat="45.76006" lon="2.96364">
        <ele>921</ele>
        <time>2014-08-22T08:32:55Z</time>
      </trkpt>
      <trkpt lat="45.75999" lon="2.96386">
        <ele>920</ele>
        <time>2014-08-22T08:32:57Z</time>
      </trkpt>
      <trkpt lat="45.7599" lon="2.96407">
        <ele>919</ele>
        <time>2014-08-22T08:32:59Z</time>
      </trkpt>
      <trkpt lat="45.75976" lon="2.96441">
        <ele>917</ele>
        <time>2014-08-22T08:33:02Z</time>
      </trkpt>
      <trkpt lat="45.75963" lon="2.96454">
        <ele>916</ele>
        <time>2014-08-22T08:33:04Z</time>
      </trkpt>
      <trkpt lat="45.75948" lon="2.96463">
        <ele>915</ele>
        <time>2014-08-22T08:33:06Z</time>
      </trkpt>
      <trkpt lat="45.75927" lon="2.96479">
        <ele>913</ele>
        <time>2014-08-22T08:33:09Z</time>
      </trkpt>
      <trkpt lat="45.75914" lon="2.9649">
        <ele>912</ele>
        <time>2014-08-22T08:33:11Z</time>
      </trkpt>
      <trkpt lat="45.75895" lon="2.96496">
        <ele>911</ele>
        <time>2014-08-22T08:33:14Z</time>
      </trkpt>
      <trkpt lat="45.7588" lon="2.96499">
        <ele>910</ele>
        <time>2014-08-22T08:33:16Z</time>
      </trkpt>
      <trkpt lat="45.75865" lon="2.96503">
        <ele>909</ele>
        <time>2014-08-22T08:33:18Z</time>
      </trkpt>
      <trkpt lat="45.7585" lon="2.96507">
        <ele>908</ele>
        <time>2014-08-22T08:33:20Z</time>
      </trkpt>
      <trkpt lat="45.75836" lon="2.96511">
        <ele>907</ele>
        <time>2014-08-22T08:33:22Z</time>
      </trkpt>
      <trkpt lat="45.75822" lon="2.96515">
        <ele>906</ele>
        <time>2014-08-22T08:33:24Z</time>
      </trkpt>
      <trkpt lat="45.75809" lon="2.96518">
        <ele>906</ele>
        <time>2014-08-22T08:33:26Z</time>
      </trkpt>
      <trkpt lat="45.758" lon="2.96522">
        <ele>905</ele>
        <time>2014-08-22T08:33:28Z</time>
      </trkpt>
      <trkpt lat="45.75792" lon="2.96524">
        <ele>904</ele>
        <time>2014-08-22T08:33:30Z</time>
      </trkpt>
      <trkpt lat="45.75785" lon="2.96525">
        <ele>903</ele>
        <time>2014-08-22T08:33:32Z</time>
      </trkpt>
      <trkpt lat="45.75781" lon="2.96526">
        <ele>903</ele>
        <time>2014-08-22T08:33:34Z</time>
      </trkpt>
      <trkpt lat="45.75778" lon="2.9653">
        <ele>903</ele>
        <time>2014-08-22T08:33:36Z</time>
      </trkpt>
      <trkpt lat="45.75767" lon="2.96534">
        <ele>903</ele>
        <time>2014-08-22T08:33:39Z</time>
      </trkpt>
      <trkpt lat="45.75757" lon="2.96537">
        <ele>903</ele>
        <time>2014-08-22T08:33:41Z</time>
      </trkpt>
      <trkpt lat="45.75742" lon="2.96542">
        <ele>904</ele>
        <time>2014-08-22T08:33:43Z</time>
      </trkpt>
      <trkpt lat="45.75716" lon="2.96551">
        <ele>904</ele>
        <time>2014-08-22T08:33:46Z</time>
      </trkpt>
      <trkpt lat="45.75694" lon="2.9656">
        <ele>905</ele>
        <time>2014-08-22T08:33:49Z</time>
      </trkpt>
      <trkpt lat="45.7568" lon="2.96565">
        <ele>906</ele>
        <time>2014-08-22T08:33:51Z</time>
      </trkpt>
      <trkpt lat="45.75667" lon="2.96571">
        <ele>906</ele>
        <time>2014-08-22T08:33:53Z</time>
      </trkpt>
      <trkpt lat="45.75647" lon="2.96582">
        <ele>906</ele>
        <time>2014-08-22T08:33:56Z</time>
      </trkpt>
      <trkpt lat="45.75634" lon="2.96589">
        <ele>906</ele>
        <time>2014-08-22T08:33:58Z</time>
      </trkpt>
      <trkpt lat="45.75615" lon="2.96599">
        <ele>905</ele>
        <time>2014-08-22T08:34:01Z</time>
      </trkpt>
      <trkpt lat="45.75602" lon="2.96606">
        <ele>905</ele>
        <time>2014-08-22T08:34:03Z</time>
      </trkpt>
      <trkpt lat="45.75589" lon="2.96611">
        <ele>905</ele>
        <time>2014-08-22T08:34:05Z</time>
      </trkpt>
      <trkpt lat="45.75576" lon="2.96618">
        <ele>905</ele>
        <time>2014-08-22T08:34:07Z</time>
      </trkpt>
      <trkpt lat="45.75563" lon="2.96624">
        <ele>904</ele>
        <time>2014-08-22T08:34:09Z</time>
      </trkpt>
      <trkpt lat="45.7555" lon="2.96629">
        <ele>904</ele>
        <time>2014-08-22T08:34:11Z</time>
      </trkpt>
      <trkpt lat="45.75532" lon="2.96639">
        <ele>904</ele>
        <time>2014-08-22T08:34:14Z</time>
      </trkpt>
      <trkpt lat="45.7552" lon="2.96646">
        <ele>904</ele>
        <time>2014-08-22T08:34:16Z</time>
      </trkpt>
      <trkpt lat="45.75507" lon="2.96655">
        <ele>904</ele>
        <time>2014-08-22T08:34:18Z</time>
      </trkpt>
      <trkpt lat="45.75486" lon="2.96667">
        <ele>904</ele>
        <time>2014-08-22T08:34:21Z</time>
      </trkpt>
      <trkpt lat="45.75471" lon="2.96674">
        <ele>904</ele>
        <time>2014-08-22T08:34:23Z</time>
      </trkpt>
      <trkpt lat="45.75448" lon="2.96685">
        <ele>904</ele>
        <time>2014-08-22T08:34:26Z</time>
      </trkpt>
      <trkpt lat="45.75433" lon="2.96692">
        <ele>904</ele>
        <time>2014-08-22T08:34:28Z</time>
      </trkpt>
      <trkpt lat="45.75409" lon="2.96701">
        <ele>904</ele>
        <time>2014-08-22T08:34:31Z</time>
      </trkpt>
      <trkpt lat="45.75393" lon="2.96707">
        <ele>904</ele>
        <time>2014-08-22T08:34:33Z</time>
      </trkpt>
      <trkpt lat="45.75379" lon="2.96712">
        <ele>904</ele>
        <time>2014-08-22T08:34:35Z</time>
      </trkpt>
      <trkpt lat="45.75365" lon="2.96717">
        <ele>904</ele>
        <time>2014-08-22T08:34:37Z</time>
      </trkpt>
      <trkpt lat="45.75351" lon="2.96721">
        <ele>904</ele>
        <time>2014-08-22T08:34:39Z</time>
      </trkpt>
      <trkpt lat="45.75341" lon="2.96726">
        <ele>903</ele>
        <time>2014-08-22T08:34:41Z</time>
      </trkpt>
      <trkpt lat="45.75328" lon="2.96732">
        <ele>901</ele>
        <time>2014-08-22T08:34:44Z</time>
      </trkpt>
      <trkpt lat="45.7532" lon="2.96737">
        <ele>901</ele>
        <time>2014-08-22T08:34:46Z</time>
      </trkpt>
      <trkpt lat="45.75312" lon="2.96742">
        <ele>900</ele>
        <time>2014-08-22T08:34:48Z</time>
      </trkpt>
      <trkpt lat="45.75299" lon="2.96752">
        <ele>899</ele>
        <time>2014-08-22T08:34:51Z</time>
      </trkpt>
      <trkpt lat="45.75293" lon="2.96762">
        <ele>898</ele>
        <time>2014-08-22T08:34:53Z</time>
      </trkpt>
      <trkpt lat="45.7529" lon="2.96772">
        <ele>898</ele>
        <time>2014-08-22T08:34:55Z</time>
      </trkpt>
      <trkpt lat="45.75287" lon="2.96779">
        <ele>897</ele>
        <time>2014-08-22T08:34:58Z</time>
      </trkpt>
      <trkpt lat="45.75286" lon="2.96781">
        <ele>897</ele>
        <time>2014-08-22T08:35:00Z</time>
      </trkpt>
      <trkpt lat="45.75285" lon="2.96783">
        <ele>897</ele>
        <time>2014-08-22T08:35:02Z</time>
      </trkpt>
      <trkpt lat="45.75279" lon="2.9679">
        <ele>898</ele>
        <time>2014-08-22T08:35:05Z</time>
      </trkpt>
      <trkpt lat="45.7527" lon="2.96792">
        <ele>898</ele>
        <time>2014-08-22T08:35:07Z</time>
      </trkpt>
      <trkpt lat="45.75259" lon="2.96788">
        <ele>898</ele>
        <time>2014-08-22T08:35:09Z</time>
      </trkpt>
      <trkpt lat="45.75246" lon="2.96788">
        <ele>897</ele>
        <time>2014-08-22T08:35:11Z</time>
      </trkpt>
      <trkpt lat="45.7523" lon="2.9679">
        <ele>897</ele>
        <time>2014-08-22T08:35:13Z</time>
      </trkpt>
      <trkpt lat="45.75208" lon="2.96794">
        <ele>896</ele>
        <time>2014-08-22T08:35:16Z</time>
      </trkpt>
      <trkpt lat="45.75192" lon="2.96797">
        <ele>896</ele>
        <time>2014-08-22T08:35:18Z</time>
      </trkpt>
      <trkpt lat="45.75176" lon="2.96801">
        <ele>895</ele>
        <time>2014-08-22T08:35:20Z</time>
      </trkpt>
      <trkpt lat="45.75159" lon="2.96805">
        <ele>895</ele>
        <time>2014-08-22T08:35:22Z</time>
      </trkpt>
      <trkpt lat="45.75143" lon="2.9681">
        <ele>894</ele>
        <time>2014-08-22T08:35:24Z</time>
      </trkpt>
      <trkpt lat="45.75118" lon="2.96817">
        <ele>894</ele>
        <time>2014-08-22T08:35:27Z</time>
      </trkpt>
      <trkpt lat="45.751" lon="2.96822">
        <ele>894</ele>
        <time>2014-08-22T08:35:29Z</time>
      </trkpt>
      <trkpt lat="45.75082" lon="2.96827">
        <ele>894</ele>
        <time>2014-08-22T08:35:31Z</time>
      </trkpt>
      <trkpt lat="45.75064" lon="2.96831">
        <ele>895</ele>
        <time>2014-08-22T08:35:33Z</time>
      </trkpt>
      <trkpt lat="45.75046" lon="2.96836">
        <ele>895</ele>
        <time>2014-08-22T08:35:35Z</time>
      </trkpt>
      <trkpt lat="45.75028" lon="2.96841">
        <ele>895</ele>
        <time>2014-08-22T08:35:37Z</time>
      </trkpt>
      <trkpt lat="45.75002" lon="2.96848">
        <ele>894</ele>
        <time>2014-08-22T08:35:40Z</time>
      </trkpt>
      <trkpt lat="45.74984" lon="2.96853">
        <ele>894</ele>
        <time>2014-08-22T08:35:42Z</time>
      </trkpt>
      <trkpt lat="45.74968" lon="2.96857">
        <ele>894</ele>
        <time>2014-08-22T08:35:44Z</time>
      </trkpt>
      <trkpt lat="45.74951" lon="2.96862">
        <ele>894</ele>
        <time>2014-08-22T08:35:46Z</time>
      </trkpt>
      <trkpt lat="45.74935" lon="2.96867">
        <ele>893</ele>
        <time>2014-08-22T08:35:48Z</time>
      </trkpt>
      <trkpt lat="45.7492" lon="2.96871">
        <ele>893</ele>
        <time>2014-08-22T08:35:50Z</time>
      </trkpt>
      <trkpt lat="45.74904" lon="2.96875">
        <ele>893</ele>
        <time>2014-08-22T08:35:52Z</time>
      </trkpt>
      <trkpt lat="45.74889" lon="2.96879">
        <ele>892</ele>
        <time>2014-08-22T08:35:54Z</time>
      </trkpt>
      <trkpt lat="45.74874" lon="2.96884">
        <ele>892</ele>
        <time>2014-08-22T08:35:56Z</time>
      </trkpt>
      <trkpt lat="45.74859" lon="2.96888">
        <ele>892</ele>
        <time>2014-08-22T08:35:58Z</time>
      </trkpt>
      <trkpt lat="45.74845" lon="2.96895">
        <ele>892</ele>
        <time>2014-08-22T08:36:00Z</time>
      </trkpt>
      <trkpt lat="45.74831" lon="2.96901">
        <ele>892</ele>
        <time>2014-08-22T08:36:02Z</time>
      </trkpt>
      <trkpt lat="45.7481" lon="2.96909">
        <ele>892</ele>
        <time>2014-08-22T08:36:05Z</time>
      </trkpt>
      <trkpt lat="45.74799" lon="2.96914">
        <ele>892</ele>
        <time>2014-08-22T08:36:07Z</time>
      </trkpt>
      <trkpt lat="45.7479" lon="2.96919">
        <ele>891</ele>
        <time>2014-08-22T08:36:09Z</time>
      </trkpt>
      <trkpt lat="45.74782" lon="2.96923">
        <ele>890</ele>
        <time>2014-08-22T08:36:11Z</time>
      </trkpt>
      <trkpt lat="45.74773" lon="2.96927">
        <ele>889</ele>
        <time>2014-08-22T08:36:13Z</time>
      </trkpt>
      <trkpt lat="45.74765" lon="2.96931">
        <ele>889</ele>
        <time>2014-08-22T08:36:15Z</time>
      </trkpt>
      <trkpt lat="45.74756" lon="2.96935">
        <ele>888</ele>
        <time>2014-08-22T08:36:17Z</time>
      </trkpt>
      <trkpt lat="45.74747" lon="2.9694">
        <ele>888</ele>
        <time>2014-08-22T08:36:19Z</time>
      </trkpt>
      <trkpt lat="45.74736" lon="2.96947">
        <ele>888</ele>
        <time>2014-08-22T08:36:21Z</time>
      </trkpt>
      <trkpt lat="45.74724" lon="2.96954">
        <ele>889</ele>
        <time>2014-08-22T08:36:23Z</time>
      </trkpt>
      <trkpt lat="45.74713" lon="2.96961">
        <ele>889</ele>
        <time>2014-08-22T08:36:25Z</time>
      </trkpt>
      <trkpt lat="45.74701" lon="2.96968">
        <ele>890</ele>
        <time>2014-08-22T08:36:27Z</time>
      </trkpt>
      <trkpt lat="45.74685" lon="2.96975">
        <ele>890</ele>
        <time>2014-08-22T08:36:30Z</time>
      </trkpt>
      <trkpt lat="45.74674" lon="2.96981">
        <ele>891</ele>
        <time>2014-08-22T08:36:32Z</time>
      </trkpt>
      <trkpt lat="45.74663" lon="2.96986">
        <ele>891</ele>
        <time>2014-08-22T08:36:34Z</time>
      </trkpt>
      <trkpt lat="45.74648" lon="2.96993">
        <ele>892</ele>
        <time>2014-08-22T08:36:37Z</time>
      </trkpt>
      <trkpt lat="45.74639" lon="2.96997">
        <ele>893</ele>
        <time>2014-08-22T08:36:39Z</time>
      </trkpt>
      <trkpt lat="45.7463" lon="2.97002">
        <ele>893</ele>
        <time>2014-08-22T08:36:41Z</time>
      </trkpt>
      <trkpt lat="45.74623" lon="2.97007">
        <ele>893</ele>
        <time>2014-08-22T08:36:43Z</time>
      </trkpt>
      <trkpt lat="45.74618" lon="2.97012">
        <ele>893</ele>
        <time>2014-08-22T08:36:45Z</time>
      </trkpt>
      <trkpt lat="45.74614" lon="2.97017">
        <ele>893</ele>
        <time>2014-08-22T08:36:47Z</time>
      </trkpt>
      <trkpt lat="45.7461" lon="2.97022">
        <ele>892</ele>
        <time>2014-08-22T08:36:50Z</time>
      </trkpt>
      <trkpt lat="45.74605" lon="2.97022">
        <ele>892</ele>
        <time>2014-08-22T08:36:52Z</time>
      </trkpt>
      <trkpt lat="45.746" lon="2.97019">
        <ele>892</ele>
        <time>2014-08-22T08:36:54Z</time>
      </trkpt>
      <trkpt lat="45.74591" lon="2.97016">
        <ele>892</ele>
        <time>2014-08-22T08:36:57Z</time>
      </trkpt>
      <trkpt lat="45.7458" lon="2.97012">
        <ele>892</ele>
        <time>2014-08-22T08:37:00Z</time>
      </trkpt>
      <trkpt lat="45.74571" lon="2.97009">
        <ele>893</ele>
        <time>2014-08-22T08:37:02Z</time>
      </trkpt>
      <trkpt lat="45.74564" lon="2.97006">
        <ele>894</ele>
        <time>2014-08-22T08:37:04Z</time>
      </trkpt>
      <trkpt lat="45.74555" lon="2.97004">
        <ele>894</ele>
        <time>2014-08-22T08:37:06Z</time>
      </trkpt>
      <trkpt lat="45.74547" lon="2.97001">
        <ele>895</ele>
        <time>2014-08-22T08:37:08Z</time>
      </trkpt>
      <trkpt lat="45.7454" lon="2.96998">
        <ele>895</ele>
        <time>2014-08-22T08:37:10Z</time>
      </trkpt>
      <trkpt lat="45.74528" lon="2.96994">
        <ele>896</ele>
        <time>2014-08-22T08:37:13Z</time>
      </trkpt>
      <trkpt lat="45.7452" lon="2.9699">
        <ele>897</ele>
        <time>2014-08-22T08:37:15Z</time>
      </trkpt>
      <trkpt lat="45.74513" lon="2.96988">
        <ele>897</ele>
        <time>2014-08-22T08:37:17Z</time>
      </trkpt>
      <trkpt lat="45.74501" lon="2.96983">
        <ele>898</ele>
        <time>2014-08-22T08:37:20Z</time>
      </trkpt>
      <trkpt lat="45.74493" lon="2.96979">
        <ele>898</ele>
        <time>2014-08-22T08:37:22Z</time>
      </trkpt>
      <trkpt lat="45.74484" lon="2.96975">
        <ele>899</ele>
        <time>2014-08-22T08:37:24Z</time>
      </trkpt>
      <trkpt lat="45.74471" lon="2.96969">
        <ele>899</ele>
        <time>2014-08-22T08:37:27Z</time>
      </trkpt>
      <trkpt lat="45.74461" lon="2.96964">
        <ele>900</ele>
        <time>2014-08-22T08:37:29Z</time>
      </trkpt>
      <trkpt lat="45.74448" lon="2.96957">
        <ele>901</ele>
        <time>2014-08-22T08:37:32Z</time>
      </trkpt>
      <trkpt lat="45.7444" lon="2.96953">
        <ele>901</ele>
        <time>2014-08-22T08:37:34Z</time>
      </trkpt>
      <trkpt lat="45.74431" lon="2.96949">
        <ele>902</ele>
        <time>2014-08-22T08:37:36Z</time>
      </trkpt>
      <trkpt lat="45.74422" lon="2.96944">
        <ele>902</ele>
        <time>2014-08-22T08:37:38Z</time>
      </trkpt>
      <trkpt lat="45.74414" lon="2.9694">
        <ele>902</ele>
        <time>2014-08-22T08:37:40Z</time>
      </trkpt>
      <trkpt lat="45.74406" lon="2.96937">
        <ele>902</ele>
        <time>2014-08-22T08:37:42Z</time>
      </trkpt>
      <trkpt lat="45.74394" lon="2.96933">
        <ele>903</ele>
        <time>2014-08-22T08:37:45Z</time>
      </trkpt>
      <trkpt lat="45.74387" lon="2.9693">
        <ele>903</ele>
        <time>2014-08-22T08:37:47Z</time>
      </trkpt>
      <trkpt lat="45.74379" lon="2.96927">
        <ele>903</ele>
        <time>2014-08-22T08:37:49Z</time>
      </trkpt>
      <trkpt lat="45.74366" lon="2.96923">
        <ele>903</ele>
        <time>2014-08-22T08:37:52Z</time>
      </trkpt>
      <trkpt lat="45.74354" lon="2.96919">
        <ele>904</ele>
        <time>2014-08-22T08:37:55Z</time>
      </trkpt>
      <trkpt lat="45.74346" lon="2.96917">
        <ele>904</ele>
        <time>2014-08-22T08:37:57Z</time>
      </trkpt>
      <trkpt lat="45.74334" lon="2.96913">
        <ele>904</ele>
        <time>2014-08-22T08:38:00Z</time>
      </trkpt>
      <trkpt lat="45.74326" lon="2.96909">
        <ele>905</ele>
        <time>2014-08-22T08:38:02Z</time>
      </trkpt>
      <trkpt lat="45.74317" lon="2.96904">
        <ele>905</ele>
        <time>2014-08-22T08:38:04Z</time>
      </trkpt>
      <trkpt lat="45.74308" lon="2.96899">
        <ele>906</ele>
        <time>2014-08-22T08:38:06Z</time>
      </trkpt>
      <trkpt lat="45.743" lon="2.96893">
        <ele>906</ele>
        <time>2014-08-22T08:38:08Z</time>
      </trkpt>
      <trkpt lat="45.74288" lon="2.96883">
        <ele>906</ele>
        <time>2014-08-22T08:38:11Z</time>
      </trkpt>
      <trkpt lat="45.7428" lon="2.96876">
        <ele>906</ele>
        <time>2014-08-22T08:38:13Z</time>
      </trkpt>
      <trkpt lat="45.74272" lon="2.9687">
        <ele>906</ele>
        <time>2014-08-22T08:38:15Z</time>
      </trkpt>
      <trkpt lat="45.7426" lon="2.9686">
        <ele>905</ele>
        <time>2014-08-22T08:38:18Z</time>
      </trkpt>
      <trkpt lat="45.74252" lon="2.96853">
        <ele>906</ele>
        <time>2014-08-22T08:38:20Z</time>
      </trkpt>
      <trkpt lat="45.74241" lon="2.96842">
        <ele>905</ele>
        <time>2014-08-22T08:38:23Z</time>
      </trkpt>
      <trkpt lat="45.74232" lon="2.96836">
        <ele>906</ele>
        <time>2014-08-22T08:38:25Z</time>
      </trkpt>
      <trkpt lat="45.74224" lon="2.96829">
        <ele>906</ele>
        <time>2014-08-22T08:38:27Z</time>
      </trkpt>
      <trkpt lat="45.74212" lon="2.96818">
        <ele>906</ele>
        <time>2014-08-22T08:38:30Z</time>
      </trkpt>
      <trkpt lat="45.74203" lon="2.9681">
        <ele>906</ele>
        <time>2014-08-22T08:38:32Z</time>
      </trkpt>
      <trkpt lat="45.74194" lon="2.96802">
        <ele>906</ele>
        <time>2014-08-22T08:38:34Z</time>
      </trkpt>
      <trkpt lat="45.74186" lon="2.96796">
        <ele>906</ele>
        <time>2014-08-22T08:38:36Z</time>
      </trkpt>
      <trkpt lat="45.74177" lon="2.96789">
        <ele>907</ele>
        <time>2014-08-22T08:38:38Z</time>
      </trkpt>
      <trkpt lat="45.74168" lon="2.96783">
        <ele>907</ele>
        <time>2014-08-22T08:38:40Z</time>
      </trkpt>
      <trkpt lat="45.7416" lon="2.96779">
        <ele>908</ele>
        <time>2014-08-22T08:38:42Z</time>
      </trkpt>
      <trkpt lat="45.7415" lon="2.96775">
        <ele>908</ele>
        <time>2014-08-22T08:38:45Z</time>
      </trkpt>
      <trkpt lat="45.74145" lon="2.96773">
        <ele>908</ele>
        <time>2014-08-22T08:38:47Z</time>
      </trkpt>
      <trkpt lat="45.74139" lon="2.96767">
        <ele>908</ele>
        <time>2014-08-22T08:38:50Z</time>
      </trkpt>
      <trkpt lat="45.74136" lon="2.96759">
        <ele>908</ele>
        <time>2014-08-22T08:38:52Z</time>
      </trkpt>
      <trkpt lat="45.7413" lon="2.96747">
        <ele>908</ele>
        <time>2014-08-22T08:38:55Z</time>
      </trkpt>
      <trkpt lat="45.74126" lon="2.96738">
        <ele>908</ele>
        <time>2014-08-22T08:38:57Z</time>
      </trkpt>
      <trkpt lat="45.7412" lon="2.96724">
        <ele>909</ele>
        <time>2014-08-22T08:39:00Z</time>
      </trkpt>
      <trkpt lat="45.74116" lon="2.96714">
        <ele>910</ele>
        <time>2014-08-22T08:39:02Z</time>
      </trkpt>
      <trkpt lat="45.74112" lon="2.96705">
        <ele>911</ele>
        <time>2014-08-22T08:39:04Z</time>
      </trkpt>
      <trkpt lat="45.74108" lon="2.96696">
        <ele>911</ele>
        <time>2014-08-22T08:39:06Z</time>
      </trkpt>
      <trkpt lat="45.74104" lon="2.96686">
        <ele>911</ele>
        <time>2014-08-22T08:39:08Z</time>
      </trkpt>
      <trkpt lat="45.74098" lon="2.96677">
        <ele>911</ele>
        <time>2014-08-22T08:39:10Z</time>
      </trkpt>
      <trkpt lat="45.74092" lon="2.96667">
        <ele>911</ele>
        <time>2014-08-22T08:39:13Z</time>
      </trkpt>
      <trkpt lat="45.74089" lon="2.96662">
        <ele>912</ele>
        <time>2014-08-22T08:39:15Z</time>
      </trkpt>
      <trkpt lat="45.74084" lon="2.96651">
        <ele>912</ele>
        <time>2014-08-22T08:39:18Z</time>
      </trkpt>
      <trkpt lat="45.74078" lon="2.96638">
        <ele>912</ele>
        <time>2014-08-22T08:39:21Z</time>
      </trkpt>
      <trkpt lat="45.74073" lon="2.96632">
        <ele>913</ele>
        <time>2014-08-22T08:39:23Z</time>
      </trkpt>
      <trkpt lat="45.74068" lon="2.96626">
        <ele>914</ele>
        <time>2014-08-22T08:39:25Z</time>
      </trkpt>
      <trkpt lat="45.7406" lon="2.96626">
        <ele>914</ele>
        <time>2014-08-22T08:39:27Z</time>
      </trkpt>
      <trkpt lat="45.74049" lon="2.96626">
        <ele>915</ele>
        <time>2014-08-22T08:39:30Z</time>
      </trkpt>
      <trkpt lat="45.74042" lon="2.96627">
        <ele>916</ele>
        <time>2014-08-22T08:39:32Z</time>
      </trkpt>
      <trkpt lat="45.74036" lon="2.96627">
        <ele>916</ele>
        <time>2014-08-22T08:39:34Z</time>
      </trkpt>
      <trkpt lat="45.74031" lon="2.96628">
        <ele>916</ele>
        <time>2014-08-22T08:39:36Z</time>
      </trkpt>
      <trkpt lat="45.74025" lon="2.96628">
        <ele>917</ele>
        <time>2014-08-22T08:39:39Z</time>
      </trkpt>
      <trkpt lat="45.74023" lon="2.96628">
        <ele>917</ele>
        <time>2014-08-22T08:39:41Z</time>
      </trkpt>
      <trkpt lat="45.74022" lon="2.96628">
        <ele>917</ele>
        <time>2014-08-22T08:39:43Z</time>
      </trkpt>
      <trkpt lat="45.7402" lon="2.96629">
        <ele>917</ele>
        <time>2014-08-22T08:39:45Z</time>
      </trkpt>
      <trkpt lat="45.74019" lon="2.96629">
        <ele>917</ele>
        <time>2014-08-22T08:39:47Z</time>
      </trkpt>
      <trkpt lat="45.74019" lon="2.96639">
        <ele>918</ele>
        <time>2014-08-22T08:39:49Z</time>
      </trkpt>
      <trkpt lat="45.74016" lon="2.96632">
        <ele>918</ele>
        <time>2014-08-22T08:39:51Z</time>
      </trkpt>
      <trkpt lat="45.7401" lon="2.96629">
        <ele>918</ele>
        <time>2014-08-22T08:39:54Z</time>
      </trkpt>
      <trkpt lat="45.74" lon="2.96625">
        <ele>918</ele>
        <time>2014-08-22T08:39:56Z</time>
      </trkpt>
      <trkpt lat="45.73992" lon="2.96623">
        <ele>919</ele>
        <time>2014-08-22T08:39:58Z</time>
      </trkpt>
      <trkpt lat="45.73986" lon="2.9662">
        <ele>919</ele>
        <time>2014-08-22T08:40:00Z</time>
      </trkpt>
      <trkpt lat="45.7398" lon="2.96617">
        <ele>920</ele>
        <time>2014-08-22T08:40:03Z</time>
      </trkpt>
      <trkpt lat="45.73975" lon="2.96613">
        <ele>920</ele>
        <time>2014-08-22T08:40:05Z</time>
      </trkpt>
      <trkpt lat="45.73969" lon="2.96609">
        <ele>921</ele>
        <time>2014-08-22T08:40:08Z</time>
      </trkpt>
      <trkpt lat="45.73964" lon="2.96605">
        <ele>922</ele>
        <time>2014-08-22T08:40:10Z</time>
      </trkpt>
      <trkpt lat="45.73957" lon="2.966">
        <ele>923</ele>
        <time>2014-08-22T08:40:12Z</time>
      </trkpt>
      <trkpt lat="45.73952" lon="2.96597">
        <ele>924</ele>
        <time>2014-08-22T08:40:14Z</time>
      </trkpt>
      <trkpt lat="45.73948" lon="2.96595">
        <ele>924</ele>
        <time>2014-08-22T08:40:16Z</time>
      </trkpt>
      <trkpt lat="45.73944" lon="2.96593">
        <ele>925</ele>
        <time>2014-08-22T08:40:19Z</time>
      </trkpt>
      <trkpt lat="45.73938" lon="2.96594">
        <ele>926</ele>
        <time>2014-08-22T08:40:21Z</time>
      </trkpt>
      <trkpt lat="45.7393" lon="2.96595">
        <ele>927</ele>
        <time>2014-08-22T08:40:23Z</time>
      </trkpt>
      <trkpt lat="45.73925" lon="2.96597">
        <ele>927</ele>
        <time>2014-08-22T08:40:25Z</time>
      </trkpt>
      <trkpt lat="45.7392" lon="2.96599">
        <ele>927</ele>
        <time>2014-08-22T08:40:27Z</time>
      </trkpt>
      <trkpt lat="45.73913" lon="2.966">
        <ele>928</ele>
        <time>2014-08-22T08:40:29Z</time>
      </trkpt>
      <trkpt lat="45.73906" lon="2.96599">
        <ele>928</ele>
        <time>2014-08-22T08:40:32Z</time>
      </trkpt>
      <trkpt lat="45.73898" lon="2.96597">
        <ele>929</ele>
        <time>2014-08-22T08:40:34Z</time>
      </trkpt>
      <trkpt lat="45.73886" lon="2.96595">
        <ele>929</ele>
        <time>2014-08-22T08:40:36Z</time>
      </trkpt>
      <trkpt lat="45.73878" lon="2.96591">
        <ele>929</ele>
        <time>2014-08-22T08:40:38Z</time>
      </trkpt>
      <trkpt lat="45.73865" lon="2.96587">
        <ele>929</ele>
        <time>2014-08-22T08:40:41Z</time>
      </trkpt>
      <trkpt lat="45.73856" lon="2.96584">
        <ele>929</ele>
        <time>2014-08-22T08:40:43Z</time>
      </trkpt>
      <trkpt lat="45.73846" lon="2.96579">
        <ele>930</ele>
        <time>2014-08-22T08:40:45Z</time>
      </trkpt>
      <trkpt lat="45.73837" lon="2.96574">
        <ele>930</ele>
        <time>2014-08-22T08:40:47Z</time>
      </trkpt>
      <trkpt lat="45.73824" lon="2.96567">
        <ele>931</ele>
        <time>2014-08-22T08:40:50Z</time>
      </trkpt>
      <trkpt lat="45.73815" lon="2.96561">
        <ele>931</ele>
        <time>2014-08-22T08:40:52Z</time>
      </trkpt>
      <trkpt lat="45.73806" lon="2.96553">
        <ele>931</ele>
        <time>2014-08-22T08:40:55Z</time>
      </trkpt>
      <trkpt lat="45.73798" lon="2.96547">
        <ele>931</ele>
        <time>2014-08-22T08:40:57Z</time>
      </trkpt>
      <trkpt lat="45.73786" lon="2.9654">
        <ele>931</ele>
        <time>2014-08-22T08:40:59Z</time>
      </trkpt>
      <trkpt lat="45.73777" lon="2.96536">
        <ele>932</ele>
        <time>2014-08-22T08:41:01Z</time>
      </trkpt>
      <trkpt lat="45.73769" lon="2.96531">
        <ele>932</ele>
        <time>2014-08-22T08:41:03Z</time>
      </trkpt>
      <trkpt lat="45.73759" lon="2.96523">
        <ele>932</ele>
        <time>2014-08-22T08:41:05Z</time>
      </trkpt>
      <trkpt lat="45.7375" lon="2.96516">
        <ele>933</ele>
        <time>2014-08-22T08:41:07Z</time>
      </trkpt>
      <trkpt lat="45.73741" lon="2.96511">
        <ele>933</ele>
        <time>2014-08-22T08:41:09Z</time>
      </trkpt>
      <trkpt lat="45.73732" lon="2.96506">
        <ele>933</ele>
        <time>2014-08-22T08:41:11Z</time>
      </trkpt>
      <trkpt lat="45.73724" lon="2.965">
        <ele>933</ele>
        <time>2014-08-22T08:41:13Z</time>
      </trkpt>
      <trkpt lat="45.73716" lon="2.96494">
        <ele>934</ele>
        <time>2014-08-22T08:41:15Z</time>
      </trkpt>
      <trkpt lat="45.73703" lon="2.96485">
        <ele>934</ele>
        <time>2014-08-22T08:41:18Z</time>
      </trkpt>
      <trkpt lat="45.73689" lon="2.96478">
        <ele>935</ele>
        <time>2014-08-22T08:41:22Z</time>
      </trkpt>
      <trkpt lat="45.73679" lon="2.96472">
        <ele>935</ele>
        <time>2014-08-22T08:41:24Z</time>
      </trkpt>
      <trkpt lat="45.73662" lon="2.96461">
        <ele>935</ele>
        <time>2014-08-22T08:41:26Z</time>
      </trkpt>
      <trkpt lat="45.73645" lon="2.96451">
        <ele>935</ele>
        <time>2014-08-22T08:41:29Z</time>
      </trkpt>
      <trkpt lat="45.73634" lon="2.96443">
        <ele>936</ele>
        <time>2014-08-22T08:41:31Z</time>
      </trkpt>
      <trkpt lat="45.73623" lon="2.96436">
        <ele>936</ele>
        <time>2014-08-22T08:41:33Z</time>
      </trkpt>
      <trkpt lat="45.73611" lon="2.96428">
        <ele>937</ele>
        <time>2014-08-22T08:41:35Z</time>
      </trkpt>
      <trkpt lat="45.736" lon="2.9642">
        <ele>937</ele>
        <time>2014-08-22T08:41:37Z</time>
      </trkpt>
      <trkpt lat="45.7359" lon="2.96412">
        <ele>937</ele>
        <time>2014-08-22T08:41:39Z</time>
      </trkpt>
      <trkpt lat="45.73574" lon="2.96402">
        <ele>937</ele>
        <time>2014-08-22T08:41:42Z</time>
      </trkpt>
      <trkpt lat="45.73558" lon="2.96393">
        <ele>938</ele>
        <time>2014-08-22T08:41:45Z</time>
      </trkpt>
      <trkpt lat="45.73547" lon="2.96387">
        <ele>938</ele>
        <time>2014-08-22T08:41:47Z</time>
      </trkpt>
      <trkpt lat="45.73531" lon="2.96377">
        <ele>938</ele>
        <time>2014-08-22T08:41:50Z</time>
      </trkpt>
      <trkpt lat="45.73521" lon="2.96372">
        <ele>938</ele>
        <time>2014-08-22T08:41:53Z</time>
      </trkpt>
      <trkpt lat="45.7351" lon="2.96366">
        <ele>939</ele>
        <time>2014-08-22T08:41:55Z</time>
      </trkpt>
      <trkpt lat="45.73493" lon="2.96359">
        <ele>939</ele>
        <time>2014-08-22T08:41:57Z</time>
      </trkpt>
      <trkpt lat="45.73482" lon="2.96355">
        <ele>939</ele>
        <time>2014-08-22T08:41:59Z</time>
      </trkpt>
      <trkpt lat="45.73471" lon="2.9635">
        <ele>939</ele>
        <time>2014-08-22T08:42:01Z</time>
      </trkpt>
      <trkpt lat="45.73459" lon="2.96344">
        <ele>939</ele>
        <time>2014-08-22T08:42:03Z</time>
      </trkpt>
      <trkpt lat="45.73449" lon="2.96338">
        <ele>939</ele>
        <time>2014-08-22T08:42:05Z</time>
      </trkpt>
      <trkpt lat="45.73438" lon="2.96336">
        <ele>939</ele>
        <time>2014-08-22T08:42:07Z</time>
      </trkpt>
      <trkpt lat="45.73426" lon="2.96334">
        <ele>939</ele>
        <time>2014-08-22T08:42:09Z</time>
      </trkpt>
      <trkpt lat="45.7341" lon="2.96331">
        <ele>940</ele>
        <time>2014-08-22T08:42:12Z</time>
      </trkpt>
      <trkpt lat="45.73399" lon="2.96327">
        <ele>940</ele>
        <time>2014-08-22T08:42:14Z</time>
      </trkpt>
      <trkpt lat="45.73388" lon="2.96322">
        <ele>940</ele>
        <time>2014-08-22T08:42:16Z</time>
      </trkpt>
      <trkpt lat="45.73377" lon="2.96317">
        <ele>940</ele>
        <time>2014-08-22T08:42:19Z</time>
      </trkpt>
      <trkpt lat="45.73361" lon="2.96308">
        <ele>940</ele>
        <time>2014-08-22T08:42:21Z</time>
      </trkpt>
      <trkpt lat="45.73352" lon="2.96303">
        <ele>940</ele>
        <time>2014-08-22T08:42:23Z</time>
      </trkpt>
      <trkpt lat="45.73336" lon="2.96297">
        <ele>941</ele>
        <time>2014-08-22T08:42:26Z</time>
      </trkpt>
      <trkpt lat="45.73325" lon="2.96292">
        <ele>942</ele>
        <time>2014-08-22T08:42:28Z</time>
      </trkpt>
      <trkpt lat="45.73316" lon="2.96287">
        <ele>942</ele>
        <time>2014-08-22T08:42:30Z</time>
      </trkpt>
      <trkpt lat="45.73303" lon="2.96278">
        <ele>943</ele>
        <time>2014-08-22T08:42:33Z</time>
      </trkpt>
      <trkpt lat="45.73294" lon="2.96272">
        <ele>943</ele>
        <time>2014-08-22T08:42:35Z</time>
      </trkpt>
      <trkpt lat="45.73285" lon="2.96266">
        <ele>943</ele>
        <time>2014-08-22T08:42:37Z</time>
      </trkpt>
      <trkpt lat="45.73271" lon="2.96257">
        <ele>943</ele>
        <time>2014-08-22T08:42:41Z</time>
      </trkpt>
      <trkpt lat="45.73263" lon="2.96251">
        <ele>944</ele>
        <time>2014-08-22T08:42:43Z</time>
      </trkpt>
      <trkpt lat="45.73251" lon="2.9624">
        <ele>944</ele>
        <time>2014-08-22T08:42:45Z</time>
      </trkpt>
      <trkpt lat="45.73243" lon="2.96234">
        <ele>944</ele>
        <time>2014-08-22T08:42:47Z</time>
      </trkpt>
      <trkpt lat="45.73235" lon="2.96229">
        <ele>945</ele>
        <time>2014-08-22T08:42:49Z</time>
      </trkpt>
      <trkpt lat="45.73226" lon="2.96223">
        <ele>945</ele>
        <time>2014-08-22T08:42:51Z</time>
      </trkpt>
      <trkpt lat="45.73218" lon="2.96218">
        <ele>946</ele>
        <time>2014-08-22T08:42:53Z</time>
      </trkpt>
      <trkpt lat="45.73206" lon="2.96211">
        <ele>946</ele>
        <time>2014-08-22T08:42:56Z</time>
      </trkpt>
      <trkpt lat="45.73198" lon="2.96205">
        <ele>946</ele>
        <time>2014-08-22T08:42:58Z</time>
      </trkpt>
      <trkpt lat="45.73191" lon="2.96199">
        <ele>947</ele>
        <time>2014-08-22T08:43:00Z</time>
      </trkpt>
      <trkpt lat="45.73182" lon="2.96194">
        <ele>947</ele>
        <time>2014-08-22T08:43:03Z</time>
      </trkpt>
      <trkpt lat="45.73171" lon="2.96186">
        <ele>948</ele>
        <time>2014-08-22T08:43:06Z</time>
      </trkpt>
      <trkpt lat="45.73164" lon="2.96182">
        <ele>948</ele>
        <time>2014-08-22T08:43:09Z</time>
      </trkpt>
      <trkpt lat="45.73154" lon="2.96175">
        <ele>949</ele>
        <time>2014-08-22T08:43:11Z</time>
      </trkpt>
      <trkpt lat="45.73148" lon="2.96171">
        <ele>949</ele>
        <time>2014-08-22T08:43:13Z</time>
      </trkpt>
      <trkpt lat="45.7314" lon="2.96167">
        <ele>950</ele>
        <time>2014-08-22T08:43:16Z</time>
      </trkpt>
      <trkpt lat="45.73134" lon="2.96166">
        <ele>950</ele>
        <time>2014-08-22T08:43:18Z</time>
      </trkpt>
      <trkpt lat="45.73129" lon="2.96164">
        <ele>950</ele>
        <time>2014-08-22T08:43:20Z</time>
      </trkpt>
      <trkpt lat="45.73123" lon="2.96163">
        <ele>950</ele>
        <time>2014-08-22T08:43:22Z</time>
      </trkpt>
      <trkpt lat="45.73117" lon="2.96162">
        <ele>950</ele>
        <time>2014-08-22T08:43:24Z</time>
      </trkpt>
      <trkpt lat="45.73108" lon="2.9616">
        <ele>951</ele>
        <time>2014-08-22T08:43:27Z</time>
      </trkpt>
      <trkpt lat="45.73098" lon="2.96157">
        <ele>952</ele>
        <time>2014-08-22T08:43:30Z</time>
      </trkpt>
      <trkpt lat="45.7309" lon="2.96153">
        <ele>953</ele>
        <time>2014-08-22T08:43:33Z</time>
      </trkpt>
      <trkpt lat="45.7308" lon="2.96148">
        <ele>953</ele>
        <time>2014-08-22T08:43:35Z</time>
      </trkpt>
      <trkpt lat="45.73075" lon="2.96144">
        <ele>954</ele>
        <time>2014-08-22T08:43:37Z</time>
      </trkpt>
      <trkpt lat="45.7307" lon="2.9614">
        <ele>955</ele>
        <time>2014-08-22T08:43:39Z</time>
      </trkpt>
      <trkpt lat="45.73065" lon="2.96135">
        <ele>955</ele>
        <time>2014-08-22T08:43:41Z</time>
      </trkpt>
      <trkpt lat="45.73061" lon="2.96132">
        <ele>956</ele>
        <time>2014-08-22T08:43:43Z</time>
      </trkpt>
      <trkpt lat="45.73056" lon="2.96127">
        <ele>956</ele>
        <time>2014-08-22T08:43:46Z</time>
      </trkpt>
      <trkpt lat="45.73052" lon="2.96124">
        <ele>957</ele>
        <time>2014-08-22T08:43:48Z</time>
      </trkpt>
      <trkpt lat="45.73047" lon="2.9612">
        <ele>958</ele>
        <time>2014-08-22T08:43:50Z</time>
      </trkpt>
      <trkpt lat="45.73043" lon="2.96117">
        <ele>958</ele>
        <time>2014-08-22T08:43:52Z</time>
      </trkpt>
      <trkpt lat="45.73036" lon="2.9611">
        <ele>959</ele>
        <time>2014-08-22T08:43:55Z</time>
      </trkpt>
      <trkpt lat="45.73032" lon="2.96106">
        <ele>960</ele>
        <time>2014-08-22T08:43:57Z</time>
      </trkpt>
      <trkpt lat="45.73027" lon="2.96101">
        <ele>960</ele>
        <time>2014-08-22T08:44:00Z</time>
      </trkpt>
      <trkpt lat="45.73022" lon="2.96093">
        <ele>961</ele>
        <time>2014-08-22T08:44:02Z</time>
      </trkpt>
      <trkpt lat="45.73016" lon="2.96084">
        <ele>962</ele>
        <time>2014-08-22T08:44:05Z</time>
      </trkpt>
      <trkpt lat="45.73012" lon="2.96078">
        <ele>963</ele>
        <time>2014-08-22T08:44:07Z</time>
      </trkpt>
      <trkpt lat="45.73009" lon="2.96071">
        <ele>963</ele>
        <time>2014-08-22T08:44:09Z</time>
      </trkpt>
      <trkpt lat="45.73007" lon="2.96064">
        <ele>964</ele>
        <time>2014-08-22T08:44:11Z</time>
      </trkpt>
      <trkpt lat="45.73003" lon="2.96057">
        <ele>964</ele>
        <time>2014-08-22T08:44:13Z</time>
      </trkpt>
      <trkpt lat="45.72999" lon="2.96048">
        <ele>965</ele>
        <time>2014-08-22T08:44:16Z</time>
      </trkpt>
      <trkpt lat="45.72997" lon="2.96042">
        <ele>965</ele>
        <time>2014-08-22T08:44:18Z</time>
      </trkpt>
      <trkpt lat="45.72994" lon="2.96037">
        <ele>966</ele>
        <time>2014-08-22T08:44:20Z</time>
      </trkpt>
      <trkpt lat="45.72991" lon="2.96032">
        <ele>966</ele>
        <time>2014-08-22T08:44:22Z</time>
      </trkpt>
      <trkpt lat="45.72988" lon="2.96026">
        <ele>967</ele>
        <time>2014-08-22T08:44:25Z</time>
      </trkpt>
      <trkpt lat="45.72982" lon="2.96018">
        <ele>967</ele>
        <time>2014-08-22T08:44:27Z</time>
      </trkpt>
      <trkpt lat="45.72976" lon="2.96011">
        <ele>968</ele>
        <time>2014-08-22T08:44:30Z</time>
      </trkpt>
      <trkpt lat="45.72972" lon="2.96007">
        <ele>969</ele>
        <time>2014-08-22T08:44:32Z</time>
      </trkpt>
      <trkpt lat="45.72969" lon="2.96002">
        <ele>970</ele>
        <time>2014-08-22T08:44:34Z</time>
      </trkpt>
      <trkpt lat="45.72962" lon="2.95995">
        <ele>971</ele>
        <time>2014-08-22T08:44:37Z</time>
      </trkpt>
      <trkpt lat="45.72956" lon="2.95988">
        <ele>972</ele>
        <time>2014-08-22T08:44:40Z</time>
      </trkpt>
      <trkpt lat="45.72952" lon="2.95983">
        <ele>972</ele>
        <time>2014-08-22T08:44:42Z</time>
      </trkpt>
      <trkpt lat="45.72948" lon="2.95977">
        <ele>973</ele>
        <time>2014-08-22T08:44:44Z</time>
      </trkpt>
      <trkpt lat="45.72941" lon="2.95971">
        <ele>974</ele>
        <time>2014-08-22T08:44:47Z</time>
      </trkpt>
      <trkpt lat="45.72937" lon="2.95966">
        <ele>974</ele>
        <time>2014-08-22T08:44:50Z</time>
      </trkpt>
      <trkpt lat="45.7293" lon="2.95959">
        <ele>974</ele>
        <time>2014-08-22T08:44:52Z</time>
      </trkpt>
      <trkpt lat="45.72926" lon="2.95954">
        <ele>975</ele>
        <time>2014-08-22T08:44:54Z</time>
      </trkpt>
      <trkpt lat="45.72921" lon="2.9595">
        <ele>976</ele>
        <time>2014-08-22T08:44:56Z</time>
      </trkpt>
      <trkpt lat="45.72914" lon="2.95943">
        <ele>977</ele>
        <time>2014-08-22T08:44:59Z</time>
      </trkpt>
      <trkpt lat="45.7291" lon="2.9594">
        <ele>978</ele>
        <time>2014-08-22T08:45:01Z</time>
      </trkpt>
      <trkpt lat="45.72902" lon="2.95933">
        <ele>979</ele>
        <time>2014-08-22T08:45:04Z</time>
      </trkpt>
      <trkpt lat="45.72897" lon="2.95928">
        <ele>979</ele>
        <time>2014-08-22T08:45:06Z</time>
      </trkpt>
      <trkpt lat="45.7289" lon="2.95921">
        <ele>980</ele>
        <time>2014-08-22T08:45:09Z</time>
      </trkpt>
      <trkpt lat="45.72883" lon="2.95913">
        <ele>981</ele>
        <time>2014-08-22T08:45:12Z</time>
      </trkpt>
      <trkpt lat="45.72879" lon="2.95908">
        <ele>981</ele>
        <time>2014-08-22T08:45:15Z</time>
      </trkpt>
      <trkpt lat="45.72874" lon="2.95903">
        <ele>981</ele>
        <time>2014-08-22T08:45:17Z</time>
      </trkpt>
      <trkpt lat="45.72871" lon="2.95899">
        <ele>982</ele>
        <time>2014-08-22T08:45:19Z</time>
      </trkpt>
      <trkpt lat="45.72864" lon="2.95891">
        <ele>982</ele>
        <time>2014-08-22T08:45:22Z</time>
      </trkpt>
      <trkpt lat="45.7286" lon="2.95884">
        <ele>983</ele>
        <time>2014-08-22T08:45:24Z</time>
      </trkpt>
      <trkpt lat="45.72857" lon="2.95876">
        <ele>983</ele>
        <time>2014-08-22T08:45:26Z</time>
      </trkpt>
      <trkpt lat="45.72854" lon="2.95869">
        <ele>983</ele>
        <time>2014-08-22T08:45:28Z</time>
      </trkpt>
      <trkpt lat="45.72852" lon="2.95862">
        <ele>984</ele>
        <time>2014-08-22T08:45:30Z</time>
      </trkpt>
      <trkpt lat="45.72848" lon="2.95854">
        <ele>985</ele>
        <time>2014-08-22T08:45:32Z</time>
      </trkpt>
      <trkpt lat="45.72844" lon="2.95843">
        <ele>985</ele>
        <time>2014-08-22T08:45:35Z</time>
      </trkpt>
      <trkpt lat="45.72841" lon="2.95836">
        <ele>985</ele>
        <time>2014-08-22T08:45:37Z</time>
      </trkpt>
      <trkpt lat="45.72839" lon="2.95829">
        <ele>986</ele>
        <time>2014-08-22T08:45:40Z</time>
      </trkpt>
      <trkpt lat="45.72834" lon="2.95819">
        <ele>986</ele>
        <time>2014-08-22T08:45:42Z</time>
      </trkpt>
      <trkpt lat="45.72829" lon="2.95813">
        <ele>987</ele>
        <time>2014-08-22T08:45:44Z</time>
      </trkpt>
      <trkpt lat="45.72824" lon="2.95807">
        <ele>987</ele>
        <time>2014-08-22T08:45:46Z</time>
      </trkpt>
      <trkpt lat="45.72819" lon="2.95801">
        <ele>988</ele>
        <time>2014-08-22T08:45:48Z</time>
      </trkpt>
      <trkpt lat="45.72816" lon="2.95796">
        <ele>988</ele>
        <time>2014-08-22T08:45:50Z</time>
      </trkpt>
      <trkpt lat="45.72813" lon="2.95791">
        <ele>989</ele>
        <time>2014-08-22T08:45:52Z</time>
      </trkpt>
      <trkpt lat="45.72807" lon="2.95783">
        <ele>989</ele>
        <time>2014-08-22T08:45:55Z</time>
      </trkpt>
      <trkpt lat="45.72802" lon="2.95777">
        <ele>990</ele>
        <time>2014-08-22T08:45:57Z</time>
      </trkpt>
      <trkpt lat="45.72797" lon="2.95772">
        <ele>990</ele>
        <time>2014-08-22T08:45:59Z</time>
      </trkpt>
      <trkpt lat="45.72792" lon="2.95765">
        <ele>990</ele>
        <time>2014-08-22T08:46:01Z</time>
      </trkpt>
      <trkpt lat="45.72787" lon="2.95756">
        <ele>991</ele>
        <time>2014-08-22T08:46:03Z</time>
      </trkpt>
      <trkpt lat="45.72782" lon="2.95747">
        <ele>992</ele>
        <time>2014-08-22T08:46:06Z</time>
      </trkpt>
      <trkpt lat="45.72774" lon="2.95736">
        <ele>992</ele>
        <time>2014-08-22T08:46:08Z</time>
      </trkpt>
      <trkpt lat="45.72769" lon="2.95728">
        <ele>992</ele>
        <time>2014-08-22T08:46:10Z</time>
      </trkpt>
      <trkpt lat="45.72764" lon="2.9572">
        <ele>993</ele>
        <time>2014-08-22T08:46:12Z</time>
      </trkpt>
      <trkpt lat="45.7276" lon="2.95711">
        <ele>993</ele>
        <time>2014-08-22T08:46:14Z</time>
      </trkpt>
      <trkpt lat="45.72755" lon="2.95706">
        <ele>994</ele>
        <time>2014-08-22T08:46:16Z</time>
      </trkpt>
      <trkpt lat="45.72749" lon="2.957">
        <ele>994</ele>
        <time>2014-08-22T08:46:18Z</time>
      </trkpt>
      <trkpt lat="45.72739" lon="2.95691">
        <ele>994</ele>
        <time>2014-08-22T08:46:21Z</time>
      </trkpt>
      <trkpt lat="45.72732" lon="2.95685">
        <ele>995</ele>
        <time>2014-08-22T08:46:23Z</time>
      </trkpt>
      <trkpt lat="45.72725" lon="2.95679">
        <ele>995</ele>
        <time>2014-08-22T08:46:25Z</time>
      </trkpt>
      <trkpt lat="45.72715" lon="2.95671">
        <ele>996</ele>
        <time>2014-08-22T08:46:28Z</time>
      </trkpt>
      <trkpt lat="45.7271" lon="2.95668">
        <ele>996</ele>
        <time>2014-08-22T08:46:31Z</time>
      </trkpt>
      <trkpt lat="45.72704" lon="2.95667">
        <ele>996</ele>
        <time>2014-08-22T08:46:33Z</time>
      </trkpt>
      <trkpt lat="45.72701" lon="2.95665">
        <ele>995</ele>
        <time>2014-08-22T08:46:36Z</time>
      </trkpt>
      <trkpt lat="45.72695" lon="2.95664">
        <ele>995</ele>
        <time>2014-08-22T08:46:38Z</time>
      </trkpt>
      <trkpt lat="45.72689" lon="2.95665">
        <ele>996</ele>
        <time>2014-08-22T08:46:40Z</time>
      </trkpt>
      <trkpt lat="45.72683" lon="2.95665">
        <ele>996</ele>
        <time>2014-08-22T08:46:42Z</time>
      </trkpt>
      <trkpt lat="45.72675" lon="2.9566">
        <ele>996</ele>
        <time>2014-08-22T08:46:45Z</time>
      </trkpt>
      <trkpt lat="45.72665" lon="2.95656">
        <ele>996</ele>
        <time>2014-08-22T08:46:48Z</time>
      </trkpt>
      <trkpt lat="45.72657" lon="2.95655">
        <ele>997</ele>
        <time>2014-08-22T08:46:50Z</time>
      </trkpt>
      <trkpt lat="45.72649" lon="2.95654">
        <ele>997</ele>
        <time>2014-08-22T08:46:52Z</time>
      </trkpt>
      <trkpt lat="45.7264" lon="2.95654">
        <ele>997</ele>
        <time>2014-08-22T08:46:55Z</time>
      </trkpt>
      <trkpt lat="45.72633" lon="2.95652">
        <ele>997</ele>
        <time>2014-08-22T08:46:57Z</time>
      </trkpt>
      <trkpt lat="45.72622" lon="2.95651">
        <ele>997</ele>
        <time>2014-08-22T08:46:59Z</time>
      </trkpt>
      <trkpt lat="45.72608" lon="2.95649">
        <ele>998</ele>
        <time>2014-08-22T08:47:02Z</time>
      </trkpt>
      <trkpt lat="45.726" lon="2.95645">
        <ele>999</ele>
        <time>2014-08-22T08:47:04Z</time>
      </trkpt>
      <trkpt lat="45.72593" lon="2.95641">
        <ele>999</ele>
        <time>2014-08-22T08:47:06Z</time>
      </trkpt>
      <trkpt lat="45.72585" lon="2.95636">
        <ele>999</ele>
        <time>2014-08-22T08:47:08Z</time>
      </trkpt>
      <trkpt lat="45.72578" lon="2.95631">
        <ele>999</ele>
        <time>2014-08-22T08:47:10Z</time>
      </trkpt>
      <trkpt lat="45.72571" lon="2.95624">
        <ele>1000</ele>
        <time>2014-08-22T08:47:12Z</time>
      </trkpt>
      <trkpt lat="45.72564" lon="2.9562">
        <ele>1000</ele>
        <time>2014-08-22T08:47:14Z</time>
      </trkpt>
      <trkpt lat="45.72557" lon="2.95613">
        <ele>1000</ele>
        <time>2014-08-22T08:47:16Z</time>
      </trkpt>
      <trkpt lat="45.72549" lon="2.95605">
        <ele>1001</ele>
        <time>2014-08-22T08:47:18Z</time>
      </trkpt>
      <trkpt lat="45.72538" lon="2.95594">
        <ele>1001</ele>
        <time>2014-08-22T08:47:21Z</time>
      </trkpt>
      <trkpt lat="45.72532" lon="2.95587">
        <ele>1002</ele>
        <time>2014-08-22T08:47:23Z</time>
      </trkpt>
      <trkpt lat="45.72526" lon="2.9558">
        <ele>1002</ele>
        <time>2014-08-22T08:47:25Z</time>
      </trkpt>
      <trkpt lat="45.72514" lon="2.95569">
        <ele>1003</ele>
        <time>2014-08-22T08:47:28Z</time>
      </trkpt>
      <trkpt lat="45.72507" lon="2.9556">
        <ele>1003</ele>
        <time>2014-08-22T08:47:30Z</time>
      </trkpt>
      <trkpt lat="45.72496" lon="2.95549">
        <ele>1004</ele>
        <time>2014-08-22T08:47:33Z</time>
      </trkpt>
      <trkpt lat="45.72484" lon="2.95539">
        <ele>1005</ele>
        <time>2014-08-22T08:47:36Z</time>
      </trkpt>
      <trkpt lat="45.72475" lon="2.95533">
        <ele>1005</ele>
        <time>2014-08-22T08:47:38Z</time>
      </trkpt>
      <trkpt lat="45.72468" lon="2.95526">
        <ele>1006</ele>
        <time>2014-08-22T08:47:40Z</time>
      </trkpt>
      <trkpt lat="45.72461" lon="2.95519">
        <ele>1007</ele>
        <time>2014-08-22T08:47:42Z</time>
      </trkpt>
      <trkpt lat="45.72453" lon="2.95513">
        <ele>1007</ele>
        <time>2014-08-22T08:47:45Z</time>
      </trkpt>
      <trkpt lat="45.72445" lon="2.95504">
        <ele>1008</ele>
        <time>2014-08-22T08:47:47Z</time>
      </trkpt>
      <trkpt lat="45.72437" lon="2.95494">
        <ele>1008</ele>
        <time>2014-08-22T08:47:50Z</time>
      </trkpt>
      <trkpt lat="45.72432" lon="2.95486">
        <ele>1008</ele>
        <time>2014-08-22T08:47:52Z</time>
      </trkpt>
      <trkpt lat="45.72424" lon="2.95476">
        <ele>1009</ele>
        <time>2014-08-22T08:47:55Z</time>
      </trkpt>
      <trkpt lat="45.72416" lon="2.95465">
        <ele>1010</ele>
        <time>2014-08-22T08:47:58Z</time>
      </trkpt>
      <trkpt lat="45.72411" lon="2.95459">
        <ele>1011</ele>
        <time>2014-08-22T08:48:00Z</time>
      </trkpt>
      <trkpt lat="45.72407" lon="2.95452">
        <ele>1011</ele>
        <time>2014-08-22T08:48:02Z</time>
      </trkpt>
      <trkpt lat="45.72404" lon="2.95446">
        <ele>1012</ele>
        <time>2014-08-22T08:48:04Z</time>
      </trkpt>
      <trkpt lat="45.72399" lon="2.95438">
        <ele>1012</ele>
        <time>2014-08-22T08:48:07Z</time>
      </trkpt>
      <trkpt lat="45.72395" lon="2.95434">
        <ele>1013</ele>
        <time>2014-08-22T08:48:10Z</time>
      </trkpt>
      <trkpt lat="45.72387" lon="2.95428">
        <ele>1013</ele>
        <time>2014-08-22T08:48:12Z</time>
      </trkpt>
      <trkpt lat="45.72381" lon="2.95421">
        <ele>1014</ele>
        <time>2014-08-22T08:48:15Z</time>
      </trkpt>
      <trkpt lat="45.72374" lon="2.95412">
        <ele>1015</ele>
        <time>2014-08-22T08:48:18Z</time>
      </trkpt>
      <trkpt lat="45.7237" lon="2.95407">
        <ele>1016</ele>
        <time>2014-08-22T08:48:20Z</time>
      </trkpt>
      <trkpt lat="45.72366" lon="2.954">
        <ele>1016</ele>
        <time>2014-08-22T08:48:22Z</time>
      </trkpt>
      <trkpt lat="45.7236" lon="2.95394">
        <ele>1017</ele>
        <time>2014-08-22T08:48:24Z</time>
      </trkpt>
      <trkpt lat="45.72355" lon="2.95384">
        <ele>1018</ele>
        <time>2014-08-22T08:48:27Z</time>
      </trkpt>
      <trkpt lat="45.7235" lon="2.95377">
        <ele>1019</ele>
        <time>2014-08-22T08:48:29Z</time>
      </trkpt>
      <trkpt lat="45.72345" lon="2.95372">
        <ele>1019</ele>
        <time>2014-08-22T08:48:31Z</time>
      </trkpt>
      <trkpt lat="45.72339" lon="2.95366">
        <ele>1020</ele>
        <time>2014-08-22T08:48:33Z</time>
      </trkpt>
      <trkpt lat="45.72333" lon="2.95359">
        <ele>1020</ele>
        <time>2014-08-22T08:48:35Z</time>
      </trkpt>
      <trkpt lat="45.72324" lon="2.95352">
        <ele>1021</ele>
        <time>2014-08-22T08:48:38Z</time>
      </trkpt>
      <trkpt lat="45.72319" lon="2.95348">
        <ele>1022</ele>
        <time>2014-08-22T08:48:40Z</time>
      </trkpt>
      <trkpt lat="45.72311" lon="2.9534">
        <ele>1022</ele>
        <time>2014-08-22T08:48:43Z</time>
      </trkpt>
      <trkpt lat="45.72306" lon="2.95334">
        <ele>1023</ele>
        <time>2014-08-22T08:48:45Z</time>
      </trkpt>
      <trkpt lat="45.72301" lon="2.95327">
        <ele>1023</ele>
        <time>2014-08-22T08:48:47Z</time>
      </trkpt>
      <trkpt lat="45.72293" lon="2.95317">
        <ele>1023</ele>
        <time>2014-08-22T08:48:50Z</time>
      </trkpt>
      <trkpt lat="45.72287" lon="2.95312">
        <ele>1024</ele>
        <time>2014-08-22T08:48:52Z</time>
      </trkpt>
      <trkpt lat="45.72282" lon="2.95308">
        <ele>1024</ele>
        <time>2014-08-22T08:48:54Z</time>
      </trkpt>
      <trkpt lat="45.72274" lon="2.953">
        <ele>1025</ele>
        <time>2014-08-22T08:48:57Z</time>
      </trkpt>
      <trkpt lat="45.72269" lon="2.95291">
        <ele>1026</ele>
        <time>2014-08-22T08:48:59Z</time>
      </trkpt>
      <trkpt lat="45.72264" lon="2.95284">
        <ele>1026</ele>
        <time>2014-08-22T08:49:02Z</time>
      </trkpt>
      <trkpt lat="45.72256" lon="2.95274">
        <ele>1026</ele>
        <time>2014-08-22T08:49:04Z</time>
      </trkpt>
      <trkpt lat="45.7225" lon="2.95268">
        <ele>1027</ele>
        <time>2014-08-22T08:49:06Z</time>
      </trkpt>
      <trkpt lat="45.72244" lon="2.95264">
        <ele>1027</ele>
        <time>2014-08-22T08:49:08Z</time>
      </trkpt>
      <trkpt lat="45.72238" lon="2.95257">
        <ele>1028</ele>
        <time>2014-08-22T08:49:10Z</time>
      </trkpt>
      <trkpt lat="45.72232" lon="2.95251">
        <ele>1028</ele>
        <time>2014-08-22T08:49:12Z</time>
      </trkpt>
      <trkpt lat="45.72228" lon="2.95245">
        <ele>1028</ele>
        <time>2014-08-22T08:49:14Z</time>
      </trkpt>
      <trkpt lat="45.72224" lon="2.95238">
        <ele>1028</ele>
        <time>2014-08-22T08:49:16Z</time>
      </trkpt>
      <trkpt lat="45.72221" lon="2.95231">
        <ele>1028</ele>
        <time>2014-08-22T08:49:18Z</time>
      </trkpt>
      <trkpt lat="45.72217" lon="2.95226">
        <ele>1029</ele>
        <time>2014-08-22T08:49:20Z</time>
      </trkpt>
      <trkpt lat="45.72211" lon="2.95223">
        <ele>1029</ele>
        <time>2014-08-22T08:49:22Z</time>
      </trkpt>
      <trkpt lat="45.72206" lon="2.95221">
        <ele>1029</ele>
        <time>2014-08-22T08:49:24Z</time>
      </trkpt>
      <trkpt lat="45.72201" lon="2.9522">
        <ele>1030</ele>
        <time>2014-08-22T08:49:27Z</time>
      </trkpt>
      <trkpt lat="45.72193" lon="2.9522">
        <ele>1030</ele>
        <time>2014-08-22T08:49:29Z</time>
      </trkpt>
      <trkpt lat="45.72187" lon="2.95217">
        <ele>1030</ele>
        <time>2014-08-22T08:49:31Z</time>
      </trkpt>
      <trkpt lat="45.72181" lon="2.95211">
        <ele>1030</ele>
        <time>2014-08-22T08:49:33Z</time>
      </trkpt>
      <trkpt lat="45.7217" lon="2.95203">
        <ele>1030</ele>
        <time>2014-08-22T08:49:36Z</time>
      </trkpt>
      <trkpt lat="45.72163" lon="2.95197">
        <ele>1029</ele>
        <time>2014-08-22T08:49:38Z</time>
      </trkpt>
      <trkpt lat="45.7215" lon="2.95188">
        <ele>1029</ele>
        <time>2014-08-22T08:49:41Z</time>
      </trkpt>
      <trkpt lat="45.72135" lon="2.95184">
        <ele>1029</ele>
        <time>2014-08-22T08:49:44Z</time>
      </trkpt>
      <trkpt lat="45.72124" lon="2.95177">
        <ele>1028</ele>
        <time>2014-08-22T08:49:46Z</time>
      </trkpt>
      <trkpt lat="45.72114" lon="2.95173">
        <ele>1027</ele>
        <time>2014-08-22T08:49:48Z</time>
      </trkpt>
      <trkpt lat="45.72104" lon="2.95171">
        <ele>1026</ele>
        <time>2014-08-22T08:49:50Z</time>
      </trkpt>
      <trkpt lat="45.72093" lon="2.95165">
        <ele>1024</ele>
        <time>2014-08-22T08:49:52Z</time>
      </trkpt>
      <trkpt lat="45.72083" lon="2.95157">
        <ele>1023</ele>
        <time>2014-08-22T08:49:55Z</time>
      </trkpt>
      <trkpt lat="45.72063" lon="2.95145">
        <ele>1022</ele>
        <time>2014-08-22T08:49:57Z</time>
      </trkpt>
      <trkpt lat="45.72043" lon="2.95131">
        <ele>1021</ele>
        <time>2014-08-22T08:50:00Z</time>
      </trkpt>
      <trkpt lat="45.72029" lon="2.95121">
        <ele>1021</ele>
        <time>2014-08-22T08:50:02Z</time>
      </trkpt>
      <trkpt lat="45.72017" lon="2.95111">
        <ele>1019</ele>
        <time>2014-08-22T08:50:04Z</time>
      </trkpt>
      <trkpt lat="45.71995" lon="2.95099">
        <ele>1018</ele>
        <time>2014-08-22T08:50:07Z</time>
      </trkpt>
      <trkpt lat="45.71974" lon="2.95087">
        <ele>1017</ele>
        <time>2014-08-22T08:50:10Z</time>
      </trkpt>
      <trkpt lat="45.7196" lon="2.95079">
        <ele>1015</ele>
        <time>2014-08-22T08:50:12Z</time>
      </trkpt>
      <trkpt lat="45.71939" lon="2.95067">
        <ele>1014</ele>
        <time>2014-08-22T08:50:15Z</time>
      </trkpt>
      <trkpt lat="45.71926" lon="2.9506">
        <ele>1013</ele>
        <time>2014-08-22T08:50:18Z</time>
      </trkpt>
      <trkpt lat="45.71908" lon="2.95045">
        <ele>1012</ele>
        <time>2014-08-22T08:50:20Z</time>
      </trkpt>
      <trkpt lat="45.71896" lon="2.95038">
        <ele>1011</ele>
        <time>2014-08-22T08:50:22Z</time>
      </trkpt>
      <trkpt lat="45.71885" lon="2.95029">
        <ele>1010</ele>
        <time>2014-08-22T08:50:24Z</time>
      </trkpt>
      <trkpt lat="45.71873" lon="2.95023">
        <ele>1010</ele>
        <time>2014-08-22T08:50:26Z</time>
      </trkpt>
      <trkpt lat="45.71862" lon="2.95014">
        <ele>1009</ele>
        <time>2014-08-22T08:50:28Z</time>
      </trkpt>
      <trkpt lat="45.7185" lon="2.95006">
        <ele>1009</ele>
        <time>2014-08-22T08:50:30Z</time>
      </trkpt>
      <trkpt lat="45.71839" lon="2.94997">
        <ele>1008</ele>
        <time>2014-08-22T08:50:32Z</time>
      </trkpt>
      <trkpt lat="45.71829" lon="2.94986">
        <ele>1008</ele>
        <time>2014-08-22T08:50:34Z</time>
      </trkpt>
      <trkpt lat="45.71814" lon="2.94975">
        <ele>1008</ele>
        <time>2014-08-22T08:50:37Z</time>
      </trkpt>
      <trkpt lat="45.71806" lon="2.94965">
        <ele>1008</ele>
        <time>2014-08-22T08:50:39Z</time>
      </trkpt>
      <trkpt lat="45.71797" lon="2.9496">
        <ele>1007</ele>
        <time>2014-08-22T08:50:42Z</time>
      </trkpt>
      <trkpt lat="45.71784" lon="2.94954">
        <ele>1007</ele>
        <time>2014-08-22T08:50:44Z</time>
      </trkpt>
      <trkpt lat="45.71777" lon="2.94948">
        <ele>1006</ele>
        <time>2014-08-22T08:50:46Z</time>
      </trkpt>
      <trkpt lat="45.71766" lon="2.94941">
        <ele>1006</ele>
        <time>2014-08-22T08:50:48Z</time>
      </trkpt>
      <trkpt lat="45.71754" lon="2.94934">
        <ele>1007</ele>
        <time>2014-08-22T08:50:50Z</time>
      </trkpt>
      <trkpt lat="45.71736" lon="2.94925">
        <ele>1008</ele>
        <time>2014-08-22T08:50:53Z</time>
      </trkpt>
      <trkpt lat="45.71726" lon="2.9492">
        <ele>1009</ele>
        <time>2014-08-22T08:50:55Z</time>
      </trkpt>
      <trkpt lat="45.71711" lon="2.94912">
        <ele>1008</ele>
        <time>2014-08-22T08:50:58Z</time>
      </trkpt>
      <trkpt lat="45.71701" lon="2.94907">
        <ele>1008</ele>
        <time>2014-08-22T08:51:00Z</time>
      </trkpt>
      <trkpt lat="45.71693" lon="2.94901">
        <ele>1007</ele>
        <time>2014-08-22T08:51:02Z</time>
      </trkpt>
      <trkpt lat="45.71685" lon="2.94893">
        <ele>1007</ele>
        <time>2014-08-22T08:51:05Z</time>
      </trkpt>
      <trkpt lat="45.71667" lon="2.94884">
        <ele>1006</ele>
        <time>2014-08-22T08:51:07Z</time>
      </trkpt>
      <trkpt lat="45.71655" lon="2.94879">
        <ele>1006</ele>
        <time>2014-08-22T08:51:09Z</time>
      </trkpt>
      <trkpt lat="45.7164" lon="2.94874">
        <ele>1006</ele>
        <time>2014-08-22T08:51:11Z</time>
      </trkpt>
      <trkpt lat="45.71617" lon="2.94867">
        <ele>1005</ele>
        <time>2014-08-22T08:51:14Z</time>
      </trkpt>
      <trkpt lat="45.71603" lon="2.94865">
        <ele>1004</ele>
        <time>2014-08-22T08:51:16Z</time>
      </trkpt>
      <trkpt lat="45.71588" lon="2.94862">
        <ele>1003</ele>
        <time>2014-08-22T08:51:18Z</time>
      </trkpt>
      <trkpt lat="45.71565" lon="2.9486">
        <ele>999</ele>
        <time>2014-08-22T08:51:21Z</time>
      </trkpt>
      <trkpt lat="45.71545" lon="2.94851">
        <ele>998</ele>
        <time>2014-08-22T08:51:24Z</time>
      </trkpt>
      <trkpt lat="45.7153" lon="2.94845">
        <ele>997</ele>
        <time>2014-08-22T08:51:27Z</time>
      </trkpt>
      <trkpt lat="45.71508" lon="2.94834">
        <ele>996</ele>
        <time>2014-08-22T08:51:29Z</time>
      </trkpt>
      <trkpt lat="45.71494" lon="2.94825">
        <ele>995</ele>
        <time>2014-08-22T08:51:31Z</time>
      </trkpt>
      <trkpt lat="45.71479" lon="2.94818">
        <ele>994</ele>
        <time>2014-08-22T08:51:33Z</time>
      </trkpt>
      <trkpt lat="45.71464" lon="2.94815">
        <ele>991</ele>
        <time>2014-08-22T08:51:35Z</time>
      </trkpt>
      <trkpt lat="45.71451" lon="2.94808">
        <ele>990</ele>
        <time>2014-08-22T08:51:37Z</time>
      </trkpt>
      <trkpt lat="45.71438" lon="2.948">
        <ele>989</ele>
        <time>2014-08-22T08:51:39Z</time>
      </trkpt>
      <trkpt lat="45.71425" lon="2.9479">
        <ele>988</ele>
        <time>2014-08-22T08:51:41Z</time>
      </trkpt>
      <trkpt lat="45.71412" lon="2.94776">
        <ele>987</ele>
        <time>2014-08-22T08:51:43Z</time>
      </trkpt>
      <trkpt lat="45.71391" lon="2.94757">
        <ele>986</ele>
        <time>2014-08-22T08:51:46Z</time>
      </trkpt>
      <trkpt lat="45.71371" lon="2.94737">
        <ele>985</ele>
        <time>2014-08-22T08:51:49Z</time>
      </trkpt>
      <trkpt lat="45.71359" lon="2.94733">
        <ele>984</ele>
        <time>2014-08-22T08:51:51Z</time>
      </trkpt>
      <trkpt lat="45.71355" lon="2.94731">
        <ele>983</ele>
        <time>2014-08-22T08:51:54Z</time>
      </trkpt>
      <trkpt lat="45.71352" lon="2.94727">
        <ele>983</ele>
        <time>2014-08-22T08:51:56Z</time>
      </trkpt>
      <trkpt lat="45.71351" lon="2.94726">
        <ele>982</ele>
        <time>2014-08-22T08:51:58Z</time>
      </trkpt>
      <trkpt lat="45.71343" lon="2.94711">
        <ele>981</ele>
        <time>2014-08-22T08:52:01Z</time>
      </trkpt>
      <trkpt lat="45.71339" lon="2.94708">
        <ele>981</ele>
        <time>2014-08-22T08:52:03Z</time>
      </trkpt>
      <trkpt lat="45.71333" lon="2.94705">
        <ele>981</ele>
        <time>2014-08-22T08:52:05Z</time>
      </trkpt>
      <trkpt lat="45.7132" lon="2.94701">
        <ele>982</ele>
        <time>2014-08-22T08:52:08Z</time>
      </trkpt>
      <trkpt lat="45.71305" lon="2.94693">
        <ele>982</ele>
        <time>2014-08-22T08:52:11Z</time>
      </trkpt>
      <trkpt lat="45.71297" lon="2.94686">
        <ele>982</ele>
        <time>2014-08-22T08:52:13Z</time>
      </trkpt>
      <trkpt lat="45.71287" lon="2.94678">
        <ele>982</ele>
        <time>2014-08-22T08:52:16Z</time>
      </trkpt>
      <trkpt lat="45.7128" lon="2.94677">
        <ele>982</ele>
        <time>2014-08-22T08:52:18Z</time>
      </trkpt>
      <trkpt lat="45.71271" lon="2.94675">
        <ele>982</ele>
        <time>2014-08-22T08:52:20Z</time>
      </trkpt>
      <trkpt lat="45.71255" lon="2.94666">
        <ele>982</ele>
        <time>2014-08-22T08:52:23Z</time>
      </trkpt>
      <trkpt lat="45.71244" lon="2.94658">
        <ele>983</ele>
        <time>2014-08-22T08:52:25Z</time>
      </trkpt>
      <trkpt lat="45.71234" lon="2.94648">
        <ele>983</ele>
        <time>2014-08-22T08:52:27Z</time>
      </trkpt>
      <trkpt lat="45.71223" lon="2.94636">
        <ele>983</ele>
        <time>2014-08-22T08:52:29Z</time>
      </trkpt>
      <trkpt lat="45.71212" lon="2.94623">
        <ele>983</ele>
        <time>2014-08-22T08:52:31Z</time>
      </trkpt>
      <trkpt lat="45.71203" lon="2.94611">
        <ele>983</ele>
        <time>2014-08-22T08:52:33Z</time>
      </trkpt>
      <trkpt lat="45.71191" lon="2.94594">
        <ele>984</ele>
        <time>2014-08-22T08:52:36Z</time>
      </trkpt>
      <trkpt lat="45.71183" lon="2.94583">
        <ele>984</ele>
        <time>2014-08-22T08:52:38Z</time>
      </trkpt>
      <trkpt lat="45.71172" lon="2.94564">
        <ele>985</ele>
        <time>2014-08-22T08:52:41Z</time>
      </trkpt>
      <trkpt lat="45.71163" lon="2.94548">
        <ele>985</ele>
        <time>2014-08-22T08:52:44Z</time>
      </trkpt>
      <trkpt lat="45.71156" lon="2.9454">
        <ele>985</ele>
        <time>2014-08-22T08:52:46Z</time>
      </trkpt>
      <trkpt lat="45.71146" lon="2.94523">
        <ele>986</ele>
        <time>2014-08-22T08:52:49Z</time>
      </trkpt>
      <trkpt lat="45.71139" lon="2.94511">
        <ele>985</ele>
        <time>2014-08-22T08:52:51Z</time>
      </trkpt>
      <trkpt lat="45.71132" lon="2.94498">
        <ele>986</ele>
        <time>2014-08-22T08:52:53Z</time>
      </trkpt>
      <trkpt lat="45.71121" lon="2.9448">
        <ele>986</ele>
        <time>2014-08-22T08:52:56Z</time>
      </trkpt>
      <trkpt lat="45.71113" lon="2.94467">
        <ele>986</ele>
        <time>2014-08-22T08:52:58Z</time>
      </trkpt>
      <trkpt lat="45.71107" lon="2.94454">
        <ele>987</ele>
        <time>2014-08-22T08:53:00Z</time>
      </trkpt>
      <trkpt lat="45.71103" lon="2.94443">
        <ele>987</ele>
        <time>2014-08-22T08:53:02Z</time>
      </trkpt>
      <trkpt lat="45.71094" lon="2.94426">
        <ele>987</ele>
        <time>2014-08-22T08:53:05Z</time>
      </trkpt>
      <trkpt lat="45.71089" lon="2.94411">
        <ele>987</ele>
        <time>2014-08-22T08:53:07Z</time>
      </trkpt>
      <trkpt lat="45.71081" lon="2.94387">
        <ele>987</ele>
        <time>2014-08-22T08:53:10Z</time>
      </trkpt>
      <trkpt lat="45.71075" lon="2.94369">
        <ele>986</ele>
        <time>2014-08-22T08:53:12Z</time>
      </trkpt>
      <trkpt lat="45.71069" lon="2.94352">
        <ele>986</ele>
        <time>2014-08-22T08:53:14Z</time>
      </trkpt>
      <trkpt lat="45.71062" lon="2.94339">
        <ele>985</ele>
        <time>2014-08-22T08:53:16Z</time>
      </trkpt>
      <trkpt lat="45.71054" lon="2.94327">
        <ele>983</ele>
        <time>2014-08-22T08:53:19Z</time>
      </trkpt>
      <trkpt lat="45.71051" lon="2.94319">
        <ele>982</ele>
        <time>2014-08-22T08:53:21Z</time>
      </trkpt>
      <trkpt lat="45.7105" lon="2.94315">
        <ele>981</ele>
        <time>2014-08-22T08:53:23Z</time>
      </trkpt>
      <trkpt lat="45.71049" lon="2.94313">
        <ele>981</ele>
        <time>2014-08-22T08:53:25Z</time>
      </trkpt>
      <trkpt lat="45.71049" lon="2.94312">
        <ele>981</ele>
        <time>2014-08-22T08:53:28Z</time>
      </trkpt>
      <trkpt lat="45.71048" lon="2.94311">
        <ele>981</ele>
        <time>2014-08-22T08:53:30Z</time>
      </trkpt>
      <trkpt lat="45.71048" lon="2.9431">
        <ele>980</ele>
        <time>2014-08-22T08:53:32Z</time>
      </trkpt>
      <trkpt lat="45.71048" lon="2.94309">
        <ele>980</ele>
        <time>2014-08-22T08:53:34Z</time>
      </trkpt>
      <trkpt lat="45.71046" lon="2.94307">
        <ele>980</ele>
        <time>2014-08-22T08:53:36Z</time>
      </trkpt>
      <trkpt lat="45.71043" lon="2.94299">
        <ele>980</ele>
        <time>2014-08-22T08:53:39Z</time>
      </trkpt>
      <trkpt lat="45.71038" lon="2.94287">
        <ele>981</ele>
        <time>2014-08-22T08:53:42Z</time>
      </trkpt>
      <trkpt lat="45.71034" lon="2.94279">
        <ele>981</ele>
        <time>2014-08-22T08:53:44Z</time>
      </trkpt>
      <trkpt lat="45.71029" lon="2.94269">
        <ele>981</ele>
        <time>2014-08-22T08:53:46Z</time>
      </trkpt>
      <trkpt lat="45.7102" lon="2.94259">
        <ele>981</ele>
        <time>2014-08-22T08:53:48Z</time>
      </trkpt>
      <trkpt lat="45.71004" lon="2.94244">
        <ele>981</ele>
        <time>2014-08-22T08:53:51Z</time>
      </trkpt>
      <trkpt lat="45.70992" lon="2.94232">
        <ele>981</ele>
        <time>2014-08-22T08:53:53Z</time>
      </trkpt>
      <trkpt lat="45.70971" lon="2.9421">
        <ele>981</ele>
        <time>2014-08-22T08:53:56Z</time>
      </trkpt>
      <trkpt lat="45.70958" lon="2.94195">
        <ele>981</ele>
        <time>2014-08-22T08:53:58Z</time>
      </trkpt>
      <trkpt lat="45.70946" lon="2.94177">
        <ele>981</ele>
        <time>2014-08-22T08:54:00Z</time>
      </trkpt>
      <trkpt lat="45.70931" lon="2.9415">
        <ele>982</ele>
        <time>2014-08-22T08:54:03Z</time>
      </trkpt>
      <trkpt lat="45.70922" lon="2.94134">
        <ele>983</ele>
        <time>2014-08-22T08:54:05Z</time>
      </trkpt>
      <trkpt lat="45.70913" lon="2.9412">
        <ele>984</ele>
        <time>2014-08-22T08:54:07Z</time>
      </trkpt>
      <trkpt lat="45.70905" lon="2.94108">
        <ele>984</ele>
        <time>2014-08-22T08:54:09Z</time>
      </trkpt>
      <trkpt lat="45.70896" lon="2.94097">
        <ele>985</ele>
        <time>2014-08-22T08:54:11Z</time>
      </trkpt>
      <trkpt lat="45.70886" lon="2.94086">
        <ele>984</ele>
        <time>2014-08-22T08:54:13Z</time>
      </trkpt>
      <trkpt lat="45.70876" lon="2.94076">
        <ele>985</ele>
        <time>2014-08-22T08:54:15Z</time>
      </trkpt>
      <trkpt lat="45.70865" lon="2.94066">
        <ele>985</ele>
        <time>2014-08-22T08:54:17Z</time>
      </trkpt>
      <trkpt lat="45.70853" lon="2.94057">
        <ele>986</ele>
        <time>2014-08-22T08:54:19Z</time>
      </trkpt>
      <trkpt lat="45.70837" lon="2.94041">
        <ele>986</ele>
        <time>2014-08-22T08:54:22Z</time>
      </trkpt>
      <trkpt lat="45.70827" lon="2.94029">
        <ele>986</ele>
        <time>2014-08-22T08:54:24Z</time>
      </trkpt>
      <trkpt lat="45.70817" lon="2.94017">
        <ele>986</ele>
        <time>2014-08-22T08:54:26Z</time>
      </trkpt>
      <trkpt lat="45.70808" lon="2.94006">
        <ele>986</ele>
        <time>2014-08-22T08:54:28Z</time>
      </trkpt>
      <trkpt lat="45.70796" lon="2.93985">
        <ele>985</ele>
        <time>2014-08-22T08:54:31Z</time>
      </trkpt>
      <trkpt lat="45.70787" lon="2.93971">
        <ele>984</ele>
        <time>2014-08-22T08:54:33Z</time>
      </trkpt>
      <trkpt lat="45.70778" lon="2.93958">
        <ele>985</ele>
        <time>2014-08-22T08:54:35Z</time>
      </trkpt>
      <trkpt lat="45.70764" lon="2.93939">
        <ele>985</ele>
        <time>2014-08-22T08:54:37Z</time>
      </trkpt>
      <trkpt lat="45.70755" lon="2.93926">
        <ele>984</ele>
        <time>2014-08-22T08:54:40Z</time>
      </trkpt>
      <trkpt lat="45.70746" lon="2.93914">
        <ele>984</ele>
        <time>2014-08-22T08:54:42Z</time>
      </trkpt>
      <trkpt lat="45.70736" lon="2.93902">
        <ele>985</ele>
        <time>2014-08-22T08:54:44Z</time>
      </trkpt>
      <trkpt lat="45.70723" lon="2.93884">
        <ele>985</ele>
        <time>2014-08-22T08:54:47Z</time>
      </trkpt>
      <trkpt lat="45.70715" lon="2.93871">
        <ele>985</ele>
        <time>2014-08-22T08:54:49Z</time>
      </trkpt>
      <trkpt lat="45.70708" lon="2.93859">
        <ele>985</ele>
        <time>2014-08-22T08:54:51Z</time>
      </trkpt>
      <trkpt lat="45.70703" lon="2.93855">
        <ele>984</ele>
        <time>2014-08-22T08:54:53Z</time>
      </trkpt>
      <trkpt lat="45.70697" lon="2.93852">
        <ele>983</ele>
        <time>2014-08-22T08:54:56Z</time>
      </trkpt>
      <trkpt lat="45.70695" lon="2.93851">
        <ele>982</ele>
        <time>2014-08-22T08:54:58Z</time>
      </trkpt>
      <trkpt lat="45.70693" lon="2.9385">
        <ele>982</ele>
        <time>2014-08-22T08:55:00Z</time>
      </trkpt>
      <trkpt lat="45.70692" lon="2.9384">
        <ele>982</ele>
        <time>2014-08-22T08:55:03Z</time>
      </trkpt>
      <trkpt lat="45.70688" lon="2.93837">
        <ele>982</ele>
        <time>2014-08-22T08:55:05Z</time>
      </trkpt>
      <trkpt lat="45.70683" lon="2.93836">
        <ele>982</ele>
        <time>2014-08-22T08:55:07Z</time>
      </trkpt>
      <trkpt lat="45.70676" lon="2.93836">
        <ele>983</ele>
        <time>2014-08-22T08:55:09Z</time>
      </trkpt>
      <trkpt lat="45.70667" lon="2.93834">
        <ele>983</ele>
        <time>2014-08-22T08:55:11Z</time>
      </trkpt>
      <trkpt lat="45.70652" lon="2.9383">
        <ele>983</ele>
        <time>2014-08-22T08:55:14Z</time>
      </trkpt>
      <trkpt lat="45.70641" lon="2.93828">
        <ele>983</ele>
        <time>2014-08-22T08:55:16Z</time>
      </trkpt>
      <trkpt lat="45.70628" lon="2.93826">
        <ele>983</ele>
        <time>2014-08-22T08:55:18Z</time>
      </trkpt>
      <trkpt lat="45.70615" lon="2.93826">
        <ele>983</ele>
        <time>2014-08-22T08:55:20Z</time>
      </trkpt>
      <trkpt lat="45.70602" lon="2.93826">
        <ele>982</ele>
        <time>2014-08-22T08:55:22Z</time>
      </trkpt>
      <trkpt lat="45.70584" lon="2.9383">
        <ele>982</ele>
        <time>2014-08-22T08:55:25Z</time>
      </trkpt>
      <trkpt lat="45.70573" lon="2.9383">
        <ele>981</ele>
        <time>2014-08-22T08:55:27Z</time>
      </trkpt>
      <trkpt lat="45.70559" lon="2.93834">
        <ele>981</ele>
        <time>2014-08-22T08:55:30Z</time>
      </trkpt>
      <trkpt lat="45.7055" lon="2.93836">
        <ele>981</ele>
        <time>2014-08-22T08:55:32Z</time>
      </trkpt>
      <trkpt lat="45.70544" lon="2.93836">
        <ele>981</ele>
        <time>2014-08-22T08:55:34Z</time>
      </trkpt>
      <trkpt lat="45.70537" lon="2.93836">
        <ele>981</ele>
        <time>2014-08-22T08:55:36Z</time>
      </trkpt>
      <trkpt lat="45.70523" lon="2.9384">
        <ele>981</ele>
        <time>2014-08-22T08:55:39Z</time>
      </trkpt>
      <trkpt lat="45.70506" lon="2.93845">
        <ele>981</ele>
        <time>2014-08-22T08:55:42Z</time>
      </trkpt>
      <trkpt lat="45.70498" lon="2.93847">
        <ele>981</ele>
        <time>2014-08-22T08:55:44Z</time>
      </trkpt>
      <trkpt lat="45.70492" lon="2.93846">
        <ele>981</ele>
        <time>2014-08-22T08:55:46Z</time>
      </trkpt>
      <trkpt lat="45.70485" lon="2.93843">
        <ele>981</ele>
        <time>2014-08-22T08:55:48Z</time>
      </trkpt>
      <trkpt lat="45.70477" lon="2.93839">
        <ele>981</ele>
        <time>2014-08-22T08:55:50Z</time>
      </trkpt>
      <trkpt lat="45.70463" lon="2.93835">
        <ele>981</ele>
        <time>2014-08-22T08:55:53Z</time>
      </trkpt>
      <trkpt lat="45.70451" lon="2.93833">
        <ele>981</ele>
        <time>2014-08-22T08:55:55Z</time>
      </trkpt>
      <trkpt lat="45.70427" lon="2.9383">
        <ele>980</ele>
        <time>2014-08-22T08:55:58Z</time>
      </trkpt>
      <trkpt lat="45.70408" lon="2.93829">
        <ele>980</ele>
        <time>2014-08-22T08:56:00Z</time>
      </trkpt>
      <trkpt lat="45.70391" lon="2.93826">
        <ele>979</ele>
        <time>2014-08-22T08:56:02Z</time>
      </trkpt>
      <trkpt lat="45.70375" lon="2.93825">
        <ele>978</ele>
        <time>2014-08-22T08:56:04Z</time>
      </trkpt>
      <trkpt lat="45.7036" lon="2.93825">
        <ele>977</ele>
        <time>2014-08-22T08:56:07Z</time>
      </trkpt>
      <trkpt lat="45.70351" lon="2.93825">
        <ele>975</ele>
        <time>2014-08-22T08:56:09Z</time>
      </trkpt>
      <trkpt lat="45.7034" lon="2.93827">
        <ele>974</ele>
        <time>2014-08-22T08:56:11Z</time>
      </trkpt>
      <trkpt lat="45.70327" lon="2.93829">
        <ele>973</ele>
        <time>2014-08-22T08:56:13Z</time>
      </trkpt>
      <trkpt lat="45.70306" lon="2.93835">
        <ele>973</ele>
        <time>2014-08-22T08:56:16Z</time>
      </trkpt>
      <trkpt lat="45.70286" lon="2.93844">
        <ele>973</ele>
        <time>2014-08-22T08:56:19Z</time>
      </trkpt>
      <trkpt lat="45.70274" lon="2.93849">
        <ele>973</ele>
        <time>2014-08-22T08:56:21Z</time>
      </trkpt>
      <trkpt lat="45.70261" lon="2.93858">
        <ele>973</ele>
        <time>2014-08-22T08:56:23Z</time>
      </trkpt>
      <trkpt lat="45.70252" lon="2.93871">
        <ele>973</ele>
        <time>2014-08-22T08:56:25Z</time>
      </trkpt>
      <trkpt lat="45.70242" lon="2.93886">
        <ele>972</ele>
        <time>2014-08-22T08:56:27Z</time>
      </trkpt>
      <trkpt lat="45.70226" lon="2.93911">
        <ele>972</ele>
        <time>2014-08-22T08:56:30Z</time>
      </trkpt>
      <trkpt lat="45.70215" lon="2.9393">
        <ele>971</ele>
        <time>2014-08-22T08:56:32Z</time>
      </trkpt>
      <trkpt lat="45.70196" lon="2.93956">
        <ele>970</ele>
        <time>2014-08-22T08:56:35Z</time>
      </trkpt>
      <trkpt lat="45.70177" lon="2.93979">
        <ele>968</ele>
        <time>2014-08-22T08:56:38Z</time>
      </trkpt>
      <trkpt lat="45.70159" lon="2.93998">
        <ele>967</ele>
        <time>2014-08-22T08:56:41Z</time>
      </trkpt>
      <trkpt lat="45.70147" lon="2.94009">
        <ele>966</ele>
        <time>2014-08-22T08:56:43Z</time>
      </trkpt>
      <trkpt lat="45.70128" lon="2.94026">
        <ele>966</ele>
        <time>2014-08-22T08:56:46Z</time>
      </trkpt>
      <trkpt lat="45.70115" lon="2.94036">
        <ele>965</ele>
        <time>2014-08-22T08:56:48Z</time>
      </trkpt>
      <trkpt lat="45.70102" lon="2.94046">
        <ele>965</ele>
        <time>2014-08-22T08:56:50Z</time>
      </trkpt>
      <trkpt lat="45.70086" lon="2.94055">
        <ele>964</ele>
        <time>2014-08-22T08:56:53Z</time>
      </trkpt>
      <trkpt lat="45.70081" lon="2.94059">
        <ele>964</ele>
        <time>2014-08-22T08:56:55Z</time>
      </trkpt>
      <trkpt lat="45.70078" lon="2.94063">
        <ele>963</ele>
        <time>2014-08-22T08:56:57Z</time>
      </trkpt>
      <trkpt lat="45.70072" lon="2.94068">
        <ele>963</ele>
        <time>2014-08-22T08:56:59Z</time>
      </trkpt>
      <trkpt lat="45.70058" lon="2.94074">
        <ele>962</ele>
        <time>2014-08-22T08:57:02Z</time>
      </trkpt>
      <trkpt lat="45.70042" lon="2.94079">
        <ele>962</ele>
        <time>2014-08-22T08:57:05Z</time>
      </trkpt>
      <trkpt lat="45.70031" lon="2.94082">
        <ele>962</ele>
        <time>2014-08-22T08:57:07Z</time>
      </trkpt>
      <trkpt lat="45.70014" lon="2.94087">
        <ele>962</ele>
        <time>2014-08-22T08:57:10Z</time>
      </trkpt>
      <trkpt lat="45.70004" lon="2.9409">
        <ele>962</ele>
        <time>2014-08-22T08:57:12Z</time>
      </trkpt>
      <trkpt lat="45.69989" lon="2.94094">
        <ele>962</ele>
        <time>2014-08-22T08:57:15Z</time>
      </trkpt>
      <trkpt lat="45.69977" lon="2.94097">
        <ele>962</ele>
        <time>2014-08-22T08:57:17Z</time>
      </trkpt>
      <trkpt lat="45.6996" lon="2.94101">
        <ele>961</ele>
        <time>2014-08-22T08:57:20Z</time>
      </trkpt>
      <trkpt lat="45.69949" lon="2.94102">
        <ele>961</ele>
        <time>2014-08-22T08:57:22Z</time>
      </trkpt>
      <trkpt lat="45.69936" lon="2.94104">
        <ele>961</ele>
        <time>2014-08-22T08:57:24Z</time>
      </trkpt>
      <trkpt lat="45.69917" lon="2.94102">
        <ele>960</ele>
        <time>2014-08-22T08:57:27Z</time>
      </trkpt>
      <trkpt lat="45.69904" lon="2.94104">
        <ele>960</ele>
        <time>2014-08-22T08:57:29Z</time>
      </trkpt>
      <trkpt lat="45.69882" lon="2.94113">
        <ele>957</ele>
        <time>2014-08-22T08:57:32Z</time>
      </trkpt>
      <trkpt lat="45.6987" lon="2.94118">
        <ele>956</ele>
        <time>2014-08-22T08:57:34Z</time>
      </trkpt>
      <trkpt lat="45.69858" lon="2.94122">
        <ele>955</ele>
        <time>2014-08-22T08:57:36Z</time>
      </trkpt>
      <trkpt lat="45.69843" lon="2.94127">
        <ele>952</ele>
        <time>2014-08-22T08:57:39Z</time>
      </trkpt>
      <trkpt lat="45.69833" lon="2.94132">
        <ele>951</ele>
        <time>2014-08-22T08:57:41Z</time>
      </trkpt>
      <trkpt lat="45.69823" lon="2.94134">
        <ele>951</ele>
        <time>2014-08-22T08:57:43Z</time>
      </trkpt>
      <trkpt lat="45.69811" lon="2.9414">
        <ele>949</ele>
        <time>2014-08-22T08:57:45Z</time>
      </trkpt>
      <trkpt lat="45.69799" lon="2.94145">
        <ele>949</ele>
        <time>2014-08-22T08:57:47Z</time>
      </trkpt>
      <trkpt lat="45.69778" lon="2.94149">
        <ele>947</ele>
        <time>2014-08-22T08:57:50Z</time>
      </trkpt>
      <trkpt lat="45.69763" lon="2.94147">
        <ele>946</ele>
        <time>2014-08-22T08:57:52Z</time>
      </trkpt>
      <trkpt lat="45.69749" lon="2.94145">
        <ele>946</ele>
        <time>2014-08-22T08:57:54Z</time>
      </trkpt>
      <trkpt lat="45.69736" lon="2.94144">
        <ele>946</ele>
        <time>2014-08-22T08:57:56Z</time>
      </trkpt>
      <trkpt lat="45.69716" lon="2.94144">
        <ele>945</ele>
        <time>2014-08-22T08:57:59Z</time>
      </trkpt>
      <trkpt lat="45.69704" lon="2.94146">
        <ele>944</ele>
        <time>2014-08-22T08:58:01Z</time>
      </trkpt>
      <trkpt lat="45.69691" lon="2.94148">
        <ele>944</ele>
        <time>2014-08-22T08:58:03Z</time>
      </trkpt>
      <trkpt lat="45.69672" lon="2.94149">
        <ele>943</ele>
        <time>2014-08-22T08:58:06Z</time>
      </trkpt>
      <trkpt lat="45.69658" lon="2.94148">
        <ele>943</ele>
        <time>2014-08-22T08:58:08Z</time>
      </trkpt>
      <trkpt lat="45.69645" lon="2.94146">
        <ele>942</ele>
        <time>2014-08-22T08:58:10Z</time>
      </trkpt>
      <trkpt lat="45.69632" lon="2.94144">
        <ele>942</ele>
        <time>2014-08-22T08:58:12Z</time>
      </trkpt>
      <trkpt lat="45.69611" lon="2.94139">
        <ele>942</ele>
        <time>2014-08-22T08:58:15Z</time>
      </trkpt>
      <trkpt lat="45.69597" lon="2.94137">
        <ele>942</ele>
        <time>2014-08-22T08:58:17Z</time>
      </trkpt>
      <trkpt lat="45.69582" lon="2.94134">
        <ele>941</ele>
        <time>2014-08-22T08:58:19Z</time>
      </trkpt>
      <trkpt lat="45.69568" lon="2.94135">
        <ele>941</ele>
        <time>2014-08-22T08:58:21Z</time>
      </trkpt>
      <trkpt lat="45.69555" lon="2.94133">
        <ele>941</ele>
        <time>2014-08-22T08:58:23Z</time>
      </trkpt>
      <trkpt lat="45.6954" lon="2.94133">
        <ele>941</ele>
        <time>2014-08-22T08:58:25Z</time>
      </trkpt>
      <trkpt lat="45.69526" lon="2.94128">
        <ele>941</ele>
        <time>2014-08-22T08:58:27Z</time>
      </trkpt>
      <trkpt lat="45.69507" lon="2.94121">
        <ele>941</ele>
        <time>2014-08-22T08:58:30Z</time>
      </trkpt>
      <trkpt lat="45.69495" lon="2.94117">
        <ele>941</ele>
        <time>2014-08-22T08:58:32Z</time>
      </trkpt>
      <trkpt lat="45.69484" lon="2.94115">
        <ele>940</ele>
        <time>2014-08-22T08:58:34Z</time>
      </trkpt>
      <trkpt lat="45.69477" lon="2.94114">
        <ele>939</ele>
        <time>2014-08-22T08:58:37Z</time>
      </trkpt>
      <trkpt lat="45.69476" lon="2.94112">
        <ele>938</ele>
        <time>2014-08-22T08:58:39Z</time>
      </trkpt>
      <trkpt lat="45.69469" lon="2.94105">
        <ele>937</ele>
        <time>2014-08-22T08:58:41Z</time>
      </trkpt>
      <trkpt lat="45.69465" lon="2.94105">
        <ele>938</ele>
        <time>2014-08-22T08:58:45Z</time>
      </trkpt>
      <trkpt lat="45.6946" lon="2.94103">
        <ele>938</ele>
        <time>2014-08-22T08:58:47Z</time>
      </trkpt>
      <trkpt lat="45.69453" lon="2.94101">
        <ele>938</ele>
        <time>2014-08-22T08:58:49Z</time>
      </trkpt>
      <trkpt lat="45.69445" lon="2.94099">
        <ele>938</ele>
        <time>2014-08-22T08:58:51Z</time>
      </trkpt>
      <trkpt lat="45.69436" lon="2.94097">
        <ele>937</ele>
        <time>2014-08-22T08:58:55Z</time>
      </trkpt>
      <trkpt lat="45.69426" lon="2.94095">
        <ele>937</ele>
        <time>2014-08-22T08:58:57Z</time>
      </trkpt>
      <trkpt lat="45.69412" lon="2.94092">
        <ele>937</ele>
        <time>2014-08-22T08:59:00Z</time>
      </trkpt>
      <trkpt lat="45.69401" lon="2.94089">
        <ele>938</ele>
        <time>2014-08-22T08:59:02Z</time>
      </trkpt>
      <trkpt lat="45.69392" lon="2.94087">
        <ele>938</ele>
        <time>2014-08-22T08:59:04Z</time>
      </trkpt>
      <trkpt lat="45.69379" lon="2.94078">
        <ele>939</ele>
        <time>2014-08-22T08:59:06Z</time>
      </trkpt>
      <trkpt lat="45.69371" lon="2.94072">
        <ele>939</ele>
        <time>2014-08-22T08:59:09Z</time>
      </trkpt>
      <trkpt lat="45.69364" lon="2.94066">
        <ele>939</ele>
        <time>2014-08-22T08:59:11Z</time>
      </trkpt>
      <trkpt lat="45.69357" lon="2.94065">
        <ele>939</ele>
        <time>2014-08-22T08:59:13Z</time>
      </trkpt>
      <trkpt lat="45.6935" lon="2.94065">
        <ele>938</ele>
        <time>2014-08-22T08:59:15Z</time>
      </trkpt>
      <trkpt lat="45.69347" lon="2.94066">
        <ele>938</ele>
        <time>2014-08-22T08:59:18Z</time>
      </trkpt>
      <trkpt lat="45.69345" lon="2.94066">
        <ele>938</ele>
        <time>2014-08-22T08:59:20Z</time>
      </trkpt>
      <trkpt lat="45.69343" lon="2.94066">
        <ele>937</ele>
        <time>2014-08-22T08:59:22Z</time>
      </trkpt>
      <trkpt lat="45.69341" lon="2.94065">
        <ele>937</ele>
        <time>2014-08-22T08:59:25Z</time>
      </trkpt>
      <trkpt lat="45.69339" lon="2.94065">
        <ele>937</ele>
        <time>2014-08-22T08:59:27Z</time>
      </trkpt>
      <trkpt lat="45.69336" lon="2.94066">
        <ele>938</ele>
        <time>2014-08-22T08:59:30Z</time>
      </trkpt>
      <trkpt lat="45.69332" lon="2.94066">
        <ele>937</ele>
        <time>2014-08-22T08:59:32Z</time>
      </trkpt>
      <trkpt lat="45.69325" lon="2.94065">
        <ele>937</ele>
        <time>2014-08-22T08:59:34Z</time>
      </trkpt>
      <trkpt lat="45.69311" lon="2.94064">
        <ele>937</ele>
        <time>2014-08-22T08:59:36Z</time>
      </trkpt>
      <trkpt lat="45.693" lon="2.94062">
        <ele>937</ele>
        <time>2014-08-22T08:59:38Z</time>
      </trkpt>
      <trkpt lat="45.6928" lon="2.9406">
        <ele>936</ele>
        <time>2014-08-22T08:59:42Z</time>
      </trkpt>
      <trkpt lat="45.6926" lon="2.9406">
        <ele>935</ele>
        <time>2014-08-22T08:59:45Z</time>
      </trkpt>
      <trkpt lat="45.69242" lon="2.94059">
        <ele>934</ele>
        <time>2014-08-22T08:59:47Z</time>
      </trkpt>
      <trkpt lat="45.69223" lon="2.94053">
        <ele>933</ele>
        <time>2014-08-22T08:59:49Z</time>
      </trkpt>
      <trkpt lat="45.69203" lon="2.94046">
        <ele>932</ele>
        <time>2014-08-22T08:59:51Z</time>
      </trkpt>
      <trkpt lat="45.69176" lon="2.9404">
        <ele>930</ele>
        <time>2014-08-22T08:59:53Z</time>
      </trkpt>
      <trkpt lat="45.69159" lon="2.94032">
        <ele>929</ele>
        <time>2014-08-22T08:59:56Z</time>
      </trkpt>
      <trkpt lat="45.69131" lon="2.9402">
        <ele>925</ele>
        <time>2014-08-22T08:59:58Z</time>
      </trkpt>
      <trkpt lat="45.69112" lon="2.94014">
        <ele>924</ele>
        <time>2014-08-22T09:00:00Z</time>
      </trkpt>
      <trkpt lat="45.69094" lon="2.94009">
        <ele>923</ele>
        <time>2014-08-22T09:00:03Z</time>
      </trkpt>
      <trkpt lat="45.69078" lon="2.94005">
        <ele>921</ele>
        <time>2014-08-22T09:00:05Z</time>
      </trkpt>
      <trkpt lat="45.69062" lon="2.93999">
        <ele>920</ele>
        <time>2014-08-22T09:00:07Z</time>
      </trkpt>
      <trkpt lat="45.69046" lon="2.93995">
        <ele>919</ele>
        <time>2014-08-22T09:00:09Z</time>
      </trkpt>
      <trkpt lat="45.69027" lon="2.93988">
        <ele>918</ele>
        <time>2014-08-22T09:00:11Z</time>
      </trkpt>
      <trkpt lat="45.69014" lon="2.93987">
        <ele>918</ele>
        <time>2014-08-22T09:00:13Z</time>
      </trkpt>
      <trkpt lat="45.69003" lon="2.93986">
        <ele>918</ele>
        <time>2014-08-22T09:00:16Z</time>
      </trkpt>
      <trkpt lat="45.68988" lon="2.93984">
        <ele>919</ele>
        <time>2014-08-22T09:00:18Z</time>
      </trkpt>
      <trkpt lat="45.68979" lon="2.93981">
        <ele>919</ele>
        <time>2014-08-22T09:00:20Z</time>
      </trkpt>
      <trkpt lat="45.6897" lon="2.93977">
        <ele>918</ele>
        <time>2014-08-22T09:00:23Z</time>
      </trkpt>
      <trkpt lat="45.68966" lon="2.93977">
        <ele>918</ele>
        <time>2014-08-22T09:00:25Z</time>
      </trkpt>
      <trkpt lat="45.68964" lon="2.93976">
        <ele>917</ele>
        <time>2014-08-22T09:00:27Z</time>
      </trkpt>
      <trkpt lat="45.68965" lon="2.93977">
        <ele>917</ele>
        <time>2014-08-22T09:00:30Z</time>
      </trkpt>
      <trkpt lat="45.68969" lon="2.93981">
        <ele>917</ele>
        <time>2014-08-22T09:00:32Z</time>
      </trkpt>
      <trkpt lat="45.68968" lon="2.93986">
        <ele>917</ele>
        <time>2014-08-22T09:00:34Z</time>
      </trkpt>
      <trkpt lat="45.68963" lon="2.93985">
        <ele>917</ele>
        <time>2014-08-22T09:00:36Z</time>
      </trkpt>
      <trkpt lat="45.68956" lon="2.93982">
        <ele>917</ele>
        <time>2014-08-22T09:00:38Z</time>
      </trkpt>
      <trkpt lat="45.68948" lon="2.9398">
        <ele>917</ele>
        <time>2014-08-22T09:00:41Z</time>
      </trkpt>
      <trkpt lat="45.6894" lon="2.93977">
        <ele>917</ele>
        <time>2014-08-22T09:00:43Z</time>
      </trkpt>
      <trkpt lat="45.6893" lon="2.93974">
        <ele>917</ele>
        <time>2014-08-22T09:00:45Z</time>
      </trkpt>
      <trkpt lat="45.68923" lon="2.93972">
        <ele>916</ele>
        <time>2014-08-22T09:00:47Z</time>
      </trkpt>
      <trkpt lat="45.68916" lon="2.93969">
        <ele>916</ele>
        <time>2014-08-22T09:00:49Z</time>
      </trkpt>
      <trkpt lat="45.68908" lon="2.93967">
        <ele>917</ele>
        <time>2014-08-22T09:00:51Z</time>
      </trkpt>
      <trkpt lat="45.68896" lon="2.93963">
        <ele>917</ele>
        <time>2014-08-22T09:00:54Z</time>
      </trkpt>
      <trkpt lat="45.68887" lon="2.9396">
        <ele>917</ele>
        <time>2014-08-22T09:00:56Z</time>
      </trkpt>
      <trkpt lat="45.68874" lon="2.93955">
        <ele>916</ele>
        <time>2014-08-22T09:00:59Z</time>
      </trkpt>
      <trkpt lat="45.68866" lon="2.93952">
        <ele>916</ele>
        <time>2014-08-22T09:01:01Z</time>
      </trkpt>
      <trkpt lat="45.68854" lon="2.93949">
        <ele>916</ele>
        <time>2014-08-22T09:01:04Z</time>
      </trkpt>
      <trkpt lat="45.68847" lon="2.93946">
        <ele>916</ele>
        <time>2014-08-22T09:01:06Z</time>
      </trkpt>
      <trkpt lat="45.68839" lon="2.93942">
        <ele>915</ele>
        <time>2014-08-22T09:01:09Z</time>
      </trkpt>
      <trkpt lat="45.6883" lon="2.9394">
        <ele>915</ele>
        <time>2014-08-22T09:01:11Z</time>
      </trkpt>
      <trkpt lat="45.68817" lon="2.93935">
        <ele>914</ele>
        <time>2014-08-22T09:01:13Z</time>
      </trkpt>
      <trkpt lat="45.68807" lon="2.93931">
        <ele>915</ele>
        <time>2014-08-22T09:01:15Z</time>
      </trkpt>
      <trkpt lat="45.68798" lon="2.93928">
        <ele>914</ele>
        <time>2014-08-22T09:01:17Z</time>
      </trkpt>
      <trkpt lat="45.68788" lon="2.93925">
        <ele>915</ele>
        <time>2014-08-22T09:01:19Z</time>
      </trkpt>
      <trkpt lat="45.68779" lon="2.93922">
        <ele>915</ele>
        <time>2014-08-22T09:01:21Z</time>
      </trkpt>
      <trkpt lat="45.6877" lon="2.93918">
        <ele>915</ele>
        <time>2014-08-22T09:01:23Z</time>
      </trkpt>
      <trkpt lat="45.68764" lon="2.93913">
        <ele>915</ele>
        <time>2014-08-22T09:01:25Z</time>
      </trkpt>
      <trkpt lat="45.68755" lon="2.93905">
        <ele>915</ele>
        <time>2014-08-22T09:01:28Z</time>
      </trkpt>
      <trkpt lat="45.68745" lon="2.93901">
        <ele>915</ele>
        <time>2014-08-22T09:01:31Z</time>
      </trkpt>
      <trkpt lat="45.68736" lon="2.93898">
        <ele>914</ele>
        <time>2014-08-22T09:01:33Z</time>
      </trkpt>
      <trkpt lat="45.68727" lon="2.93897">
        <ele>914</ele>
        <time>2014-08-22T09:01:36Z</time>
      </trkpt>
      <trkpt lat="45.68712" lon="2.93894">
        <ele>914</ele>
        <time>2014-08-22T09:01:38Z</time>
      </trkpt>
      <trkpt lat="45.68697" lon="2.93891">
        <ele>913</ele>
        <time>2014-08-22T09:01:41Z</time>
      </trkpt>
      <trkpt lat="45.68687" lon="2.93889">
        <ele>913</ele>
        <time>2014-08-22T09:01:43Z</time>
      </trkpt>
      <trkpt lat="45.68677" lon="2.93886">
        <ele>913</ele>
        <time>2014-08-22T09:01:45Z</time>
      </trkpt>
      <trkpt lat="45.6866" lon="2.93882">
        <ele>912</ele>
        <time>2014-08-22T09:01:48Z</time>
      </trkpt>
      <trkpt lat="45.68648" lon="2.9388">
        <ele>912</ele>
        <time>2014-08-22T09:01:50Z</time>
      </trkpt>
      <trkpt lat="45.68636" lon="2.93877">
        <ele>912</ele>
        <time>2014-08-22T09:01:52Z</time>
      </trkpt>
      <trkpt lat="45.68625" lon="2.93874">
        <ele>911</ele>
        <time>2014-08-22T09:01:54Z</time>
      </trkpt>
      <trkpt lat="45.68607" lon="2.93869">
        <ele>910</ele>
        <time>2014-08-22T09:01:57Z</time>
      </trkpt>
      <trkpt lat="45.68594" lon="2.93865">
        <ele>909</ele>
        <time>2014-08-22T09:02:00Z</time>
      </trkpt>
      <trkpt lat="45.68581" lon="2.93869">
        <ele>908</ele>
        <time>2014-08-22T09:02:02Z</time>
      </trkpt>
      <trkpt lat="45.68574" lon="2.93873">
        <ele>907</ele>
        <time>2014-08-22T09:02:05Z</time>
      </trkpt>
      <trkpt lat="45.68568" lon="2.93873">
        <ele>906</ele>
        <time>2014-08-22T09:02:07Z</time>
      </trkpt>
      <trkpt lat="45.68563" lon="2.9387">
        <ele>906</ele>
        <time>2014-08-22T09:02:09Z</time>
      </trkpt>
      <trkpt lat="45.6856" lon="2.93869">
        <ele>905</ele>
        <time>2014-08-22T09:02:11Z</time>
      </trkpt>
      <trkpt lat="45.68559" lon="2.93868">
        <ele>905</ele>
        <time>2014-08-22T09:02:13Z</time>
      </trkpt>
      <trkpt lat="45.68557" lon="2.93873">
        <ele>905</ele>
        <time>2014-08-22T09:02:16Z</time>
      </trkpt>
      <trkpt lat="45.6856" lon="2.9388">
        <ele>905</ele>
        <time>2014-08-22T09:02:18Z</time>
      </trkpt>
      <trkpt lat="45.68565" lon="2.93888">
        <ele>905</ele>
        <time>2014-08-22T09:02:20Z</time>
      </trkpt>
      <trkpt lat="45.68571" lon="2.93898">
        <ele>905</ele>
        <time>2014-08-22T09:02:23Z</time>
      </trkpt>
      <trkpt lat="45.68573" lon="2.93914">
        <ele>905</ele>
        <time>2014-08-22T09:02:25Z</time>
      </trkpt>
      <trkpt lat="45.68573" lon="2.9394">
        <ele>906</ele>
        <time>2014-08-22T09:02:27Z</time>
      </trkpt>
      <trkpt lat="45.68573" lon="2.93957">
        <ele>906</ele>
        <time>2014-08-22T09:02:29Z</time>
      </trkpt>
      <trkpt lat="45.68573" lon="2.93981">
        <ele>907</ele>
        <time>2014-08-22T09:02:32Z</time>
      </trkpt>
      <trkpt lat="45.68574" lon="2.94005">
        <ele>907</ele>
        <time>2014-08-22T09:02:35Z</time>
      </trkpt>
      <trkpt lat="45.68575" lon="2.9402">
        <ele>908</ele>
        <time>2014-08-22T09:02:37Z</time>
      </trkpt>
      <trkpt lat="45.68578" lon="2.94036">
        <ele>908</ele>
        <time>2014-08-22T09:02:39Z</time>
      </trkpt>
      <trkpt lat="45.68582" lon="2.94052">
        <ele>907</ele>
        <time>2014-08-22T09:02:41Z</time>
      </trkpt>
      <trkpt lat="45.68587" lon="2.94067">
        <ele>907</ele>
        <time>2014-08-22T09:02:44Z</time>
      </trkpt>
      <trkpt lat="45.68598" lon="2.94088">
        <ele>907</ele>
        <time>2014-08-22T09:02:46Z</time>
      </trkpt>
      <trkpt lat="45.68612" lon="2.94104">
        <ele>907</ele>
        <time>2014-08-22T09:02:49Z</time>
      </trkpt>
      <trkpt lat="45.68622" lon="2.94114">
        <ele>907</ele>
        <time>2014-08-22T09:02:51Z</time>
      </trkpt>
      <trkpt lat="45.68634" lon="2.94123">
        <ele>908</ele>
        <time>2014-08-22T09:02:53Z</time>
      </trkpt>
      <trkpt lat="45.68653" lon="2.94138">
        <ele>908</ele>
        <time>2014-08-22T09:02:56Z</time>
      </trkpt>
      <trkpt lat="45.68673" lon="2.94157">
        <ele>908</ele>
        <time>2014-08-22T09:02:59Z</time>
      </trkpt>
      <trkpt lat="45.68685" lon="2.94175">
        <ele>906</ele>
        <time>2014-08-22T09:03:01Z</time>
      </trkpt>
      <trkpt lat="45.68695" lon="2.94194">
        <ele>906</ele>
        <time>2014-08-22T09:03:03Z</time>
      </trkpt>
      <trkpt lat="45.68706" lon="2.94213">
        <ele>905</ele>
        <time>2014-08-22T09:03:06Z</time>
      </trkpt>
      <trkpt lat="45.68717" lon="2.94231">
        <ele>905</ele>
        <time>2014-08-22T09:03:08Z</time>
      </trkpt>
      <trkpt lat="45.68734" lon="2.94257">
        <ele>905</ele>
        <time>2014-08-22T09:03:10Z</time>
      </trkpt>
      <trkpt lat="45.68744" lon="2.94275">
        <ele>904</ele>
        <time>2014-08-22T09:03:12Z</time>
      </trkpt>
      <trkpt lat="45.68754" lon="2.94293">
        <ele>905</ele>
        <time>2014-08-22T09:03:14Z</time>
      </trkpt>
      <trkpt lat="45.68764" lon="2.9431">
        <ele>905</ele>
        <time>2014-08-22T09:03:16Z</time>
      </trkpt>
      <trkpt lat="45.68774" lon="2.94326">
        <ele>906</ele>
        <time>2014-08-22T09:03:18Z</time>
      </trkpt>
      <trkpt lat="45.68787" lon="2.9435">
        <ele>906</ele>
        <time>2014-08-22T09:03:21Z</time>
      </trkpt>
      <trkpt lat="45.68795" lon="2.94363">
        <ele>905</ele>
        <time>2014-08-22T09:03:23Z</time>
      </trkpt>
      <trkpt lat="45.68806" lon="2.94383">
        <ele>904</ele>
        <time>2014-08-22T09:03:26Z</time>
      </trkpt>
      <trkpt lat="45.68813" lon="2.94395">
        <ele>904</ele>
        <time>2014-08-22T09:03:28Z</time>
      </trkpt>
      <trkpt lat="45.6882" lon="2.94407">
        <ele>904</ele>
        <time>2014-08-22T09:03:30Z</time>
      </trkpt>
      <trkpt lat="45.68827" lon="2.94421">
        <ele>905</ele>
        <time>2014-08-22T09:03:33Z</time>
      </trkpt>
      <trkpt lat="45.6884" lon="2.94443">
        <ele>905</ele>
        <time>2014-08-22T09:03:35Z</time>
      </trkpt>
      <trkpt lat="45.68855" lon="2.94468">
        <ele>906</ele>
        <time>2014-08-22T09:03:38Z</time>
      </trkpt>
      <trkpt lat="45.68864" lon="2.94485">
        <ele>907</ele>
        <time>2014-08-22T09:03:40Z</time>
      </trkpt>
      <trkpt lat="45.68874" lon="2.94502">
        <ele>907</ele>
        <time>2014-08-22T09:03:42Z</time>
      </trkpt>
      <trkpt lat="45.68887" lon="2.94526">
        <ele>907</ele>
        <time>2014-08-22T09:03:45Z</time>
      </trkpt>
      <trkpt lat="45.68896" lon="2.9454">
        <ele>907</ele>
        <time>2014-08-22T09:03:47Z</time>
      </trkpt>
      <trkpt lat="45.68906" lon="2.94562">
        <ele>908</ele>
        <time>2014-08-22T09:03:50Z</time>
      </trkpt>
      <trkpt lat="45.68916" lon="2.94584">
        <ele>908</ele>
        <time>2014-08-22T09:03:53Z</time>
      </trkpt>
      <trkpt lat="45.68922" lon="2.94597">
        <ele>909</ele>
        <time>2014-08-22T09:03:55Z</time>
      </trkpt>
      <trkpt lat="45.68928" lon="2.94609">
        <ele>909</ele>
        <time>2014-08-22T09:03:58Z</time>
      </trkpt>
      <trkpt lat="45.68935" lon="2.94627">
        <ele>910</ele>
        <time>2014-08-22T09:04:00Z</time>
      </trkpt>
      <trkpt lat="45.6894" lon="2.94639">
        <ele>910</ele>
        <time>2014-08-22T09:04:02Z</time>
      </trkpt>
      <trkpt lat="45.68946" lon="2.94652">
        <ele>911</ele>
        <time>2014-08-22T09:04:04Z</time>
      </trkpt>
      <trkpt lat="45.68951" lon="2.94664">
        <ele>911</ele>
        <time>2014-08-22T09:04:06Z</time>
      </trkpt>
      <trkpt lat="45.68958" lon="2.94682">
        <ele>912</ele>
        <time>2014-08-22T09:04:09Z</time>
      </trkpt>
      <trkpt lat="45.68965" lon="2.94697">
        <ele>913</ele>
        <time>2014-08-22T09:04:12Z</time>
      </trkpt>
      <trkpt lat="45.68969" lon="2.94708">
        <ele>913</ele>
        <time>2014-08-22T09:04:14Z</time>
      </trkpt>
      <trkpt lat="45.68974" lon="2.94719">
        <ele>914</ele>
        <time>2014-08-22T09:04:16Z</time>
      </trkpt>
      <trkpt lat="45.68979" lon="2.94731">
        <ele>914</ele>
        <time>2014-08-22T09:04:19Z</time>
      </trkpt>
      <trkpt lat="45.68986" lon="2.94749">
        <ele>915</ele>
        <time>2014-08-22T09:04:21Z</time>
      </trkpt>
      <trkpt lat="45.68991" lon="2.94762">
        <ele>916</ele>
        <time>2014-08-22T09:04:23Z</time>
      </trkpt>
      <trkpt lat="45.68999" lon="2.9478">
        <ele>917</ele>
        <time>2014-08-22T09:04:26Z</time>
      </trkpt>
      <trkpt lat="45.69004" lon="2.94793">
        <ele>918</ele>
        <time>2014-08-22T09:04:28Z</time>
      </trkpt>
      <trkpt lat="45.69009" lon="2.94805">
        <ele>919</ele>
        <time>2014-08-22T09:04:30Z</time>
      </trkpt>
      <trkpt lat="45.69015" lon="2.94817">
        <ele>920</ele>
        <time>2014-08-22T09:04:32Z</time>
      </trkpt>
      <trkpt lat="45.69024" lon="2.94835">
        <ele>921</ele>
        <time>2014-08-22T09:04:35Z</time>
      </trkpt>
      <trkpt lat="45.69033" lon="2.94853">
        <ele>921</ele>
        <time>2014-08-22T09:04:38Z</time>
      </trkpt>
      <trkpt lat="45.6904" lon="2.94865">
        <ele>922</ele>
        <time>2014-08-22T09:04:40Z</time>
      </trkpt>
      <trkpt lat="45.69048" lon="2.94876">
        <ele>921</ele>
        <time>2014-08-22T09:04:43Z</time>
      </trkpt>
      <trkpt lat="45.6906" lon="2.94892">
        <ele>921</ele>
        <time>2014-08-22T09:04:45Z</time>
      </trkpt>
      <trkpt lat="45.69069" lon="2.94903">
        <ele>921</ele>
        <time>2014-08-22T09:04:47Z</time>
      </trkpt>
      <trkpt lat="45.69083" lon="2.94921">
        <ele>920</ele>
        <time>2014-08-22T09:04:50Z</time>
      </trkpt>
      <trkpt lat="45.69093" lon="2.94933">
        <ele>919</ele>
        <time>2014-08-22T09:04:52Z</time>
      </trkpt>
      <trkpt lat="45.69109" lon="2.94952">
        <ele>919</ele>
        <time>2014-08-22T09:04:55Z</time>
      </trkpt>
      <trkpt lat="45.69122" lon="2.94964">
        <ele>918</ele>
        <time>2014-08-22T09:04:57Z</time>
      </trkpt>
      <trkpt lat="45.69141" lon="2.94979">
        <ele>918</ele>
        <time>2014-08-22T09:05:00Z</time>
      </trkpt>
      <trkpt lat="45.69155" lon="2.94988">
        <ele>917</ele>
        <time>2014-08-22T09:05:02Z</time>
      </trkpt>
      <trkpt lat="45.69176" lon="2.95">
        <ele>917</ele>
        <time>2014-08-22T09:05:05Z</time>
      </trkpt>
      <trkpt lat="45.69198" lon="2.95011">
        <ele>916</ele>
        <time>2014-08-22T09:05:08Z</time>
      </trkpt>
      <trkpt lat="45.6922" lon="2.95024">
        <ele>915</ele>
        <time>2014-08-22T09:05:11Z</time>
      </trkpt>
      <trkpt lat="45.69241" lon="2.95041">
        <ele>914</ele>
        <time>2014-08-22T09:05:14Z</time>
      </trkpt>
      <trkpt lat="45.69254" lon="2.95055">
        <ele>913</ele>
        <time>2014-08-22T09:05:16Z</time>
      </trkpt>
      <trkpt lat="45.69267" lon="2.95068">
        <ele>913</ele>
        <time>2014-08-22T09:05:18Z</time>
      </trkpt>
      <trkpt lat="45.69278" lon="2.95084">
        <ele>912</ele>
        <time>2014-08-22T09:05:20Z</time>
      </trkpt>
      <trkpt lat="45.69289" lon="2.951">
        <ele>912</ele>
        <time>2014-08-22T09:05:22Z</time>
      </trkpt>
      <trkpt lat="45.693" lon="2.95115">
        <ele>912</ele>
        <time>2014-08-22T09:05:24Z</time>
      </trkpt>
      <trkpt lat="45.69311" lon="2.9513">
        <ele>912</ele>
        <time>2014-08-22T09:05:27Z</time>
      </trkpt>
      <trkpt lat="45.69326" lon="2.95152">
        <ele>912</ele>
        <time>2014-08-22T09:05:29Z</time>
      </trkpt>
      <trkpt lat="45.69336" lon="2.95166">
        <ele>912</ele>
        <time>2014-08-22T09:05:31Z</time>
      </trkpt>
      <trkpt lat="45.69349" lon="2.95186">
        <ele>911</ele>
        <time>2014-08-22T09:05:34Z</time>
      </trkpt>
      <trkpt lat="45.69358" lon="2.95198">
        <ele>910</ele>
        <time>2014-08-22T09:05:36Z</time>
      </trkpt>
      <trkpt lat="45.69366" lon="2.95209">
        <ele>910</ele>
        <time>2014-08-22T09:05:38Z</time>
      </trkpt>
      <trkpt lat="45.69373" lon="2.95219">
        <ele>909</ele>
        <time>2014-08-22T09:05:40Z</time>
      </trkpt>
      <trkpt lat="45.69385" lon="2.95222">
        <ele>909</ele>
        <time>2014-08-22T09:05:43Z</time>
      </trkpt>
      <trkpt lat="45.6939" lon="2.95225">
        <ele>908</ele>
        <time>2014-08-22T09:05:45Z</time>
      </trkpt>
      <trkpt lat="45.69396" lon="2.95232">
        <ele>908</ele>
        <time>2014-08-22T09:05:48Z</time>
      </trkpt>
      <trkpt lat="45.694" lon="2.95237">
        <ele>907</ele>
        <time>2014-08-22T09:05:51Z</time>
      </trkpt>
      <trkpt lat="45.69405" lon="2.95243">
        <ele>907</ele>
        <time>2014-08-22T09:05:53Z</time>
      </trkpt>
      <trkpt lat="45.6941" lon="2.95251">
        <ele>907</ele>
        <time>2014-08-22T09:05:55Z</time>
      </trkpt>
      <trkpt lat="45.69417" lon="2.95259">
        <ele>908</ele>
        <time>2014-08-22T09:05:57Z</time>
      </trkpt>
      <trkpt lat="45.69424" lon="2.95269">
        <ele>907</ele>
        <time>2014-08-22T09:05:59Z</time>
      </trkpt>
      <trkpt lat="45.69433" lon="2.95281">
        <ele>908</ele>
        <time>2014-08-22T09:06:02Z</time>
      </trkpt>
      <trkpt lat="45.69437" lon="2.95289">
        <ele>908</ele>
        <time>2014-08-22T09:06:04Z</time>
      </trkpt>
      <trkpt lat="45.69445" lon="2.953">
        <ele>908</ele>
        <time>2014-08-22T09:06:07Z</time>
      </trkpt>
      <trkpt lat="45.69455" lon="2.95312">
        <ele>908</ele>
        <time>2014-08-22T09:06:10Z</time>
      </trkpt>
      <trkpt lat="45.6946" lon="2.9532">
        <ele>909</ele>
        <time>2014-08-22T09:06:13Z</time>
      </trkpt>
      <trkpt lat="45.69466" lon="2.95323">
        <ele>909</ele>
        <time>2014-08-22T09:06:15Z</time>
      </trkpt>
      <trkpt lat="45.69468" lon="2.95323">
        <ele>910</ele>
        <time>2014-08-22T09:06:17Z</time>
      </trkpt>
      <trkpt lat="45.69468" lon="2.95324">
        <ele>910</ele>
        <time>2014-08-22T09:06:19Z</time>
      </trkpt>
      <trkpt lat="45.69471" lon="2.95324">
        <ele>911</ele>
        <time>2014-08-22T09:06:22Z</time>
      </trkpt>
      <trkpt lat="45.69472" lon="2.95325">
        <ele>910</ele>
        <time>2014-08-22T09:06:24Z</time>
      </trkpt>
      <trkpt lat="45.69474" lon="2.95324">
        <ele>910</ele>
        <time>2014-08-22T09:06:26Z</time>
      </trkpt>
      <trkpt lat="45.69474" lon="2.95324">
        <ele>910</ele>
        <time>2014-08-22T09:06:28Z</time>
      </trkpt>
      <trkpt lat="45.69473" lon="2.95349">
        <ele>909</ele>
        <time>2014-08-22T09:06:31Z</time>
      </trkpt>
      <trkpt lat="45.69473" lon="2.95352">
        <ele>909</ele>
        <time>2014-08-22T09:06:33Z</time>
      </trkpt>
      <trkpt lat="45.69471" lon="2.95355">
        <ele>909</ele>
        <time>2014-08-22T09:06:35Z</time>
      </trkpt>
      <trkpt lat="45.69469" lon="2.95362">
        <ele>908</ele>
        <time>2014-08-22T09:06:37Z</time>
      </trkpt>
      <trkpt lat="45.6947" lon="2.9537">
        <ele>908</ele>
        <time>2014-08-22T09:06:39Z</time>
      </trkpt>
      <trkpt lat="45.69474" lon="2.95377">
        <ele>908</ele>
        <time>2014-08-22T09:06:41Z</time>
      </trkpt>
      <trkpt lat="45.69483" lon="2.95388">
        <ele>908</ele>
        <time>2014-08-22T09:06:44Z</time>
      </trkpt>
      <trkpt lat="45.69488" lon="2.95396">
        <ele>908</ele>
        <time>2014-08-22T09:06:46Z</time>
      </trkpt>
      <trkpt lat="45.69495" lon="2.95404">
        <ele>908</ele>
        <time>2014-08-22T09:06:48Z</time>
      </trkpt>
      <trkpt lat="45.695" lon="2.95412">
        <ele>909</ele>
        <time>2014-08-22T09:06:50Z</time>
      </trkpt>
      <trkpt lat="45.69506" lon="2.95419">
        <ele>909</ele>
        <time>2014-08-22T09:06:52Z</time>
      </trkpt>
      <trkpt lat="45.69513" lon="2.95427">
        <ele>909</ele>
        <time>2014-08-22T09:06:54Z</time>
      </trkpt>
      <trkpt lat="45.69521" lon="2.95438">
        <ele>909</ele>
        <time>2014-08-22T09:06:57Z</time>
      </trkpt>
      <trkpt lat="45.69527" lon="2.95446">
        <ele>909</ele>
        <time>2014-08-22T09:06:59Z</time>
      </trkpt>
      <trkpt lat="45.69533" lon="2.95454">
        <ele>909</ele>
        <time>2014-08-22T09:07:01Z</time>
      </trkpt>
      <trkpt lat="45.69539" lon="2.95463">
        <ele>909</ele>
        <time>2014-08-22T09:07:03Z</time>
      </trkpt>
      <trkpt lat="45.69551" lon="2.95479">
        <ele>910</ele>
        <time>2014-08-22T09:07:06Z</time>
      </trkpt>
      <trkpt lat="45.69559" lon="2.95491">
        <ele>910</ele>
        <time>2014-08-22T09:07:08Z</time>
      </trkpt>
      <trkpt lat="45.69571" lon="2.95507">
        <ele>910</ele>
        <time>2014-08-22T09:07:11Z</time>
      </trkpt>
      <trkpt lat="45.69582" lon="2.95521">
        <ele>911</ele>
        <time>2014-08-22T09:07:14Z</time>
      </trkpt>
      <trkpt lat="45.69588" lon="2.95532">
        <ele>911</ele>
        <time>2014-08-22T09:07:16Z</time>
      </trkpt>
      <trkpt lat="45.69596" lon="2.95542">
        <ele>911</ele>
        <time>2014-08-22T09:07:18Z</time>
      </trkpt>
      <trkpt lat="45.69607" lon="2.95557">
        <ele>912</ele>
        <time>2014-08-22T09:07:21Z</time>
      </trkpt>
      <trkpt lat="45.69614" lon="2.95567">
        <ele>912</ele>
        <time>2014-08-22T09:07:23Z</time>
      </trkpt>
      <trkpt lat="45.6962" lon="2.95577">
        <ele>912</ele>
        <time>2014-08-22T09:07:25Z</time>
      </trkpt>
      <trkpt lat="45.69626" lon="2.95587">
        <ele>912</ele>
        <time>2014-08-22T09:07:27Z</time>
      </trkpt>
      <trkpt lat="45.69631" lon="2.95597">
        <ele>913</ele>
        <time>2014-08-22T09:07:29Z</time>
      </trkpt>
      <trkpt lat="45.69635" lon="2.95606">
        <ele>913</ele>
        <time>2014-08-22T09:07:31Z</time>
      </trkpt>
      <trkpt lat="45.6964" lon="2.95617">
        <ele>913</ele>
        <time>2014-08-22T09:07:33Z</time>
      </trkpt>
      <trkpt lat="45.69644" lon="2.9563">
        <ele>914</ele>
        <time>2014-08-22T09:07:35Z</time>
      </trkpt>
      <trkpt lat="45.69648" lon="2.95644">
        <ele>914</ele>
        <time>2014-08-22T09:07:37Z</time>
      </trkpt>
      <trkpt lat="45.69652" lon="2.95665">
        <ele>915</ele>
        <time>2014-08-22T09:07:40Z</time>
      </trkpt>
      <trkpt lat="45.69655" lon="2.95686">
        <ele>916</ele>
        <time>2014-08-22T09:07:43Z</time>
      </trkpt>
      <trkpt lat="45.69656" lon="2.95699">
        <ele>917</ele>
        <time>2014-08-22T09:07:45Z</time>
      </trkpt>
      <trkpt lat="45.69658" lon="2.95712">
        <ele>917</ele>
        <time>2014-08-22T09:07:47Z</time>
      </trkpt>
      <trkpt lat="45.69659" lon="2.95726">
        <ele>918</ele>
        <time>2014-08-22T09:07:49Z</time>
      </trkpt>
      <trkpt lat="45.69661" lon="2.95739">
        <ele>918</ele>
        <time>2014-08-22T09:07:51Z</time>
      </trkpt>
      <trkpt lat="45.69662" lon="2.95752">
        <ele>918</ele>
        <time>2014-08-22T09:07:53Z</time>
      </trkpt>
      <trkpt lat="45.69663" lon="2.95764">
        <ele>919</ele>
        <time>2014-08-22T09:07:55Z</time>
      </trkpt>
      <trkpt lat="45.69665" lon="2.95777">
        <ele>918</ele>
        <time>2014-08-22T09:07:57Z</time>
      </trkpt>
      <trkpt lat="45.69667" lon="2.9579">
        <ele>918</ele>
        <time>2014-08-22T09:07:59Z</time>
      </trkpt>
      <trkpt lat="45.6967" lon="2.95803">
        <ele>918</ele>
        <time>2014-08-22T09:08:01Z</time>
      </trkpt>
      <trkpt lat="45.69677" lon="2.95824">
        <ele>918</ele>
        <time>2014-08-22T09:08:04Z</time>
      </trkpt>
      <trkpt lat="45.69687" lon="2.95849">
        <ele>918</ele>
        <time>2014-08-22T09:08:07Z</time>
      </trkpt>
      <trkpt lat="45.697" lon="2.95873">
        <ele>917</ele>
        <time>2014-08-22T09:08:10Z</time>
      </trkpt>
      <trkpt lat="45.69712" lon="2.95888">
        <ele>916</ele>
        <time>2014-08-22T09:08:12Z</time>
      </trkpt>
      <trkpt lat="45.69731" lon="2.95912">
        <ele>915</ele>
        <time>2014-08-22T09:08:15Z</time>
      </trkpt>
      <trkpt lat="45.69743" lon="2.9593">
        <ele>914</ele>
        <time>2014-08-22T09:08:17Z</time>
      </trkpt>
      <trkpt lat="45.69756" lon="2.95948">
        <ele>914</ele>
        <time>2014-08-22T09:08:19Z</time>
      </trkpt>
      <trkpt lat="45.69769" lon="2.95965">
        <ele>913</ele>
        <time>2014-08-22T09:08:21Z</time>
      </trkpt>
      <trkpt lat="45.6978" lon="2.95983">
        <ele>912</ele>
        <time>2014-08-22T09:08:23Z</time>
      </trkpt>
      <trkpt lat="45.69793" lon="2.96014">
        <ele>912</ele>
        <time>2014-08-22T09:08:26Z</time>
      </trkpt>
      <trkpt lat="45.698" lon="2.96049">
        <ele>911</ele>
        <time>2014-08-22T09:08:29Z</time>
      </trkpt>
      <trkpt lat="45.69804" lon="2.96085">
        <ele>910</ele>
        <time>2014-08-22T09:08:32Z</time>
      </trkpt>
      <trkpt lat="45.69802" lon="2.96121">
        <ele>910</ele>
        <time>2014-08-22T09:08:35Z</time>
      </trkpt>
      <trkpt lat="45.69795" lon="2.96156">
        <ele>909</ele>
        <time>2014-08-22T09:08:38Z</time>
      </trkpt>
      <trkpt lat="45.69787" lon="2.96188">
        <ele>909</ele>
        <time>2014-08-22T09:08:41Z</time>
      </trkpt>
      <trkpt lat="45.69782" lon="2.9621">
        <ele>909</ele>
        <time>2014-08-22T09:08:43Z</time>
      </trkpt>
      <trkpt lat="45.69776" lon="2.96243">
        <ele>909</ele>
        <time>2014-08-22T09:08:46Z</time>
      </trkpt>
      <trkpt lat="45.69774" lon="2.96266">
        <ele>908</ele>
        <time>2014-08-22T09:08:48Z</time>
      </trkpt>
      <trkpt lat="45.69774" lon="2.96287">
        <ele>908</ele>
        <time>2014-08-22T09:08:50Z</time>
      </trkpt>
      <trkpt lat="45.69776" lon="2.96317">
        <ele>908</ele>
        <time>2014-08-22T09:08:53Z</time>
      </trkpt>
      <trkpt lat="45.6978" lon="2.96335">
        <ele>909</ele>
        <time>2014-08-22T09:08:55Z</time>
      </trkpt>
      <trkpt lat="45.69785" lon="2.96352">
        <ele>909</ele>
        <time>2014-08-22T09:08:57Z</time>
      </trkpt>
      <trkpt lat="45.6979" lon="2.96366">
        <ele>910</ele>
        <time>2014-08-22T09:08:59Z</time>
      </trkpt>
      <trkpt lat="45.69795" lon="2.96379">
        <ele>910</ele>
        <time>2014-08-22T09:09:01Z</time>
      </trkpt>
      <trkpt lat="45.69801" lon="2.9639">
        <ele>911</ele>
        <time>2014-08-22T09:09:03Z</time>
      </trkpt>
      <trkpt lat="45.69809" lon="2.96404">
        <ele>911</ele>
        <time>2014-08-22T09:09:06Z</time>
      </trkpt>
      <trkpt lat="45.69815" lon="2.96411">
        <ele>912</ele>
        <time>2014-08-22T09:09:08Z</time>
      </trkpt>
      <trkpt lat="45.69822" lon="2.96419">
        <ele>912</ele>
        <time>2014-08-22T09:09:10Z</time>
      </trkpt>
      <trkpt lat="45.69832" lon="2.9643">
        <ele>912</ele>
        <time>2014-08-22T09:09:13Z</time>
      </trkpt>
      <trkpt lat="45.69843" lon="2.96439">
        <ele>913</ele>
        <time>2014-08-22T09:09:16Z</time>
      </trkpt>
      <trkpt lat="45.69855" lon="2.96446">
        <ele>914</ele>
        <time>2014-08-22T09:09:19Z</time>
      </trkpt>
      <trkpt lat="45.69864" lon="2.96451">
        <ele>915</ele>
        <time>2014-08-22T09:09:21Z</time>
      </trkpt>
      <trkpt lat="45.69872" lon="2.96456">
        <ele>915</ele>
        <time>2014-08-22T09:09:23Z</time>
      </trkpt>
      <trkpt lat="45.69881" lon="2.96461">
        <ele>916</ele>
        <time>2014-08-22T09:09:25Z</time>
      </trkpt>
      <trkpt lat="45.69894" lon="2.96469">
        <ele>917</ele>
        <time>2014-08-22T09:09:28Z</time>
      </trkpt>
      <trkpt lat="45.69902" lon="2.96475">
        <ele>917</ele>
        <time>2014-08-22T09:09:30Z</time>
      </trkpt>
      <trkpt lat="45.69913" lon="2.96483">
        <ele>918</ele>
        <time>2014-08-22T09:09:33Z</time>
      </trkpt>
      <trkpt lat="45.69921" lon="2.96489">
        <ele>918</ele>
        <time>2014-08-22T09:09:35Z</time>
      </trkpt>
      <trkpt lat="45.69933" lon="2.96499">
        <ele>919</ele>
        <time>2014-08-22T09:09:38Z</time>
      </trkpt>
      <trkpt lat="45.69941" lon="2.96505">
        <ele>920</ele>
        <time>2014-08-22T09:09:40Z</time>
      </trkpt>
      <trkpt lat="45.69953" lon="2.96515">
        <ele>920</ele>
        <time>2014-08-22T09:09:43Z</time>
      </trkpt>
      <trkpt lat="45.69961" lon="2.96522">
        <ele>921</ele>
        <time>2014-08-22T09:09:45Z</time>
      </trkpt>
      <trkpt lat="45.69969" lon="2.96528">
        <ele>921</ele>
        <time>2014-08-22T09:09:47Z</time>
      </trkpt>
      <trkpt lat="45.69981" lon="2.96537">
        <ele>922</ele>
        <time>2014-08-22T09:09:50Z</time>
      </trkpt>
      <trkpt lat="45.69989" lon="2.96543">
        <ele>922</ele>
        <time>2014-08-22T09:09:52Z</time>
      </trkpt>
      <trkpt lat="45.70001" lon="2.96552">
        <ele>923</ele>
        <time>2014-08-22T09:09:55Z</time>
      </trkpt>
      <trkpt lat="45.70014" lon="2.96561">
        <ele>924</ele>
        <time>2014-08-22T09:09:58Z</time>
      </trkpt>
      <trkpt lat="45.70023" lon="2.96568">
        <ele>924</ele>
        <time>2014-08-22T09:10:00Z</time>
      </trkpt>
      <trkpt lat="45.70032" lon="2.96574">
        <ele>923</ele>
        <time>2014-08-22T09:10:02Z</time>
      </trkpt>
      <trkpt lat="45.70041" lon="2.96582">
        <ele>923</ele>
        <time>2014-08-22T09:10:04Z</time>
      </trkpt>
      <trkpt lat="45.70051" lon="2.96589">
        <ele>923</ele>
        <time>2014-08-22T09:10:06Z</time>
      </trkpt>
      <trkpt lat="45.70068" lon="2.966">
        <ele>922</ele>
        <time>2014-08-22T09:10:09Z</time>
      </trkpt>
      <trkpt lat="45.70079" lon="2.96609">
        <ele>922</ele>
        <time>2014-08-22T09:10:11Z</time>
      </trkpt>
      <trkpt lat="45.7009" lon="2.9662">
        <ele>921</ele>
        <time>2014-08-22T09:10:13Z</time>
      </trkpt>
      <trkpt lat="45.70106" lon="2.96639">
        <ele>921</ele>
        <time>2014-08-22T09:10:16Z</time>
      </trkpt>
      <trkpt lat="45.70121" lon="2.96658">
        <ele>920</ele>
        <time>2014-08-22T09:10:19Z</time>
      </trkpt>
      <trkpt lat="45.70125" lon="2.96667">
        <ele>920</ele>
        <time>2014-08-22T09:10:21Z</time>
      </trkpt>
      <trkpt lat="45.7013" lon="2.96668">
        <ele>919</ele>
        <time>2014-08-22T09:10:24Z</time>
      </trkpt>
      <trkpt lat="45.7013" lon="2.96664">
        <ele>918</ele>
        <time>2014-08-22T09:10:26Z</time>
      </trkpt>
      <trkpt lat="45.70128" lon="2.96658">
        <ele>918</ele>
        <time>2014-08-22T09:10:29Z</time>
      </trkpt>
      <trkpt lat="45.70128" lon="2.96654">
        <ele>918</ele>
        <time>2014-08-22T09:10:31Z</time>
      </trkpt>
      <trkpt lat="45.70127" lon="2.96648">
        <ele>918</ele>
        <time>2014-08-22T09:10:34Z</time>
      </trkpt>
      <trkpt lat="45.70125" lon="2.9664">
        <ele>918</ele>
        <time>2014-08-22T09:10:37Z</time>
      </trkpt>
      <trkpt lat="45.70124" lon="2.96633">
        <ele>918</ele>
        <time>2014-08-22T09:10:39Z</time>
      </trkpt>
      <trkpt lat="45.70121" lon="2.96626">
        <ele>918</ele>
        <time>2014-08-22T09:10:41Z</time>
      </trkpt>
      <trkpt lat="45.70117" lon="2.96614">
        <ele>919</ele>
        <time>2014-08-22T09:10:44Z</time>
      </trkpt>
      <trkpt lat="45.70113" lon="2.96606">
        <ele>920</ele>
        <time>2014-08-22T09:10:46Z</time>
      </trkpt>
      <trkpt lat="45.70109" lon="2.96599">
        <ele>920</ele>
        <time>2014-08-22T09:10:48Z</time>
      </trkpt>
      <trkpt lat="45.70105" lon="2.9659">
        <ele>920</ele>
        <time>2014-08-22T09:10:50Z</time>
      </trkpt>
      <trkpt lat="45.70098" lon="2.9658">
        <ele>921</ele>
        <time>2014-08-22T09:10:53Z</time>
      </trkpt>
      <trkpt lat="45.70091" lon="2.9657">
        <ele>922</ele>
        <time>2014-08-22T09:10:56Z</time>
      </trkpt>
      <trkpt lat="45.70084" lon="2.96557">
        <ele>923</ele>
        <time>2014-08-22T09:10:59Z</time>
      </trkpt>
      <trkpt lat="45.70079" lon="2.96546">
        <ele>924</ele>
        <time>2014-08-22T09:11:02Z</time>
      </trkpt>
      <trkpt lat="45.70074" lon="2.96533">
        <ele>925</ele>
        <time>2014-08-22T09:11:05Z</time>
      </trkpt>
      <trkpt lat="45.7007" lon="2.96525">
        <ele>925</ele>
        <time>2014-08-22T09:11:07Z</time>
      </trkpt>
      <trkpt lat="45.70066" lon="2.96518">
        <ele>926</ele>
        <time>2014-08-22T09:11:09Z</time>
      </trkpt>
      <trkpt lat="45.7006" lon="2.96507">
        <ele>926</ele>
        <time>2014-08-22T09:11:12Z</time>
      </trkpt>
      <trkpt lat="45.70058" lon="2.96498">
        <ele>926</ele>
        <time>2014-08-22T09:11:14Z</time>
      </trkpt>
      <trkpt lat="45.70056" lon="2.96488">
        <ele>926</ele>
        <time>2014-08-22T09:11:16Z</time>
      </trkpt>
      <trkpt lat="45.70055" lon="2.96474">
        <ele>927</ele>
        <time>2014-08-22T09:11:19Z</time>
      </trkpt>
      <trkpt lat="45.70054" lon="2.9646">
        <ele>928</ele>
        <time>2014-08-22T09:11:22Z</time>
      </trkpt>
      <trkpt lat="45.70056" lon="2.96444">
        <ele>929</ele>
        <time>2014-08-22T09:11:25Z</time>
      </trkpt>
      <trkpt lat="45.70057" lon="2.96433">
        <ele>929</ele>
        <time>2014-08-22T09:11:27Z</time>
      </trkpt>
      <trkpt lat="45.70058" lon="2.96423">
        <ele>930</ele>
        <time>2014-08-22T09:11:29Z</time>
      </trkpt>
      <trkpt lat="45.70059" lon="2.96408">
        <ele>930</ele>
        <time>2014-08-22T09:11:32Z</time>
      </trkpt>
      <trkpt lat="45.70059" lon="2.96397">
        <ele>931</ele>
        <time>2014-08-22T09:11:34Z</time>
      </trkpt>
      <trkpt lat="45.7006" lon="2.96382">
        <ele>931</ele>
        <time>2014-08-22T09:11:37Z</time>
      </trkpt>
      <trkpt lat="45.70062" lon="2.96367">
        <ele>932</ele>
        <time>2014-08-22T09:11:40Z</time>
      </trkpt>
      <trkpt lat="45.70063" lon="2.96358">
        <ele>932</ele>
        <time>2014-08-22T09:11:42Z</time>
      </trkpt>
      <trkpt lat="45.70065" lon="2.96346">
        <ele>933</ele>
        <time>2014-08-22T09:11:45Z</time>
      </trkpt>
      <trkpt lat="45.70068" lon="2.96333">
        <ele>934</ele>
        <time>2014-08-22T09:11:48Z</time>
      </trkpt>
      <trkpt lat="45.70072" lon="2.96313">
        <ele>934</ele>
        <time>2014-08-22T09:11:51Z</time>
      </trkpt>
      <trkpt lat="45.70074" lon="2.96297">
        <ele>933</ele>
        <time>2014-08-22T09:11:53Z</time>
      </trkpt>
      <trkpt lat="45.70078" lon="2.96281">
        <ele>933</ele>
        <time>2014-08-22T09:11:55Z</time>
      </trkpt>
      <trkpt lat="45.70085" lon="2.96258">
        <ele>932</ele>
        <time>2014-08-22T09:11:58Z</time>
      </trkpt>
      <trkpt lat="45.70092" lon="2.96239">
        <ele>931</ele>
        <time>2014-08-22T09:12:01Z</time>
      </trkpt>
      <trkpt lat="45.70097" lon="2.96226">
        <ele>930</ele>
        <time>2014-08-22T09:12:03Z</time>
      </trkpt>
      <trkpt lat="45.70105" lon="2.96202">
        <ele>929</ele>
        <time>2014-08-22T09:12:06Z</time>
      </trkpt>
      <trkpt lat="45.70114" lon="2.96178">
        <ele>929</ele>
        <time>2014-08-22T09:12:09Z</time>
      </trkpt>
      <trkpt lat="45.70122" lon="2.96163">
        <ele>929</ele>
        <time>2014-08-22T09:12:11Z</time>
      </trkpt>
      <trkpt lat="45.70131" lon="2.96149">
        <ele>928</ele>
        <time>2014-08-22T09:12:13Z</time>
      </trkpt>
      <trkpt lat="45.7014" lon="2.96137">
        <ele>927</ele>
        <time>2014-08-22T09:12:15Z</time>
      </trkpt>
      <trkpt lat="45.7015" lon="2.9612">
        <ele>927</ele>
        <time>2014-08-22T09:12:18Z</time>
      </trkpt>
      <trkpt lat="45.70154" lon="2.96112">
        <ele>927</ele>
        <time>2014-08-22T09:12:20Z</time>
      </trkpt>
      <trkpt lat="45.70157" lon="2.96104">
        <ele>927</ele>
        <time>2014-08-22T09:12:22Z</time>
      </trkpt>
      <trkpt lat="45.70159" lon="2.96096">
        <ele>926</ele>
        <time>2014-08-22T09:12:24Z</time>
      </trkpt>
      <trkpt lat="45.70164" lon="2.96088">
        <ele>926</ele>
        <time>2014-08-22T09:12:27Z</time>
      </trkpt>
      <trkpt lat="45.70169" lon="2.96081">
        <ele>926</ele>
        <time>2014-08-22T09:12:29Z</time>
      </trkpt>
      <trkpt lat="45.70174" lon="2.96072">
        <ele>926</ele>
        <time>2014-08-22T09:12:31Z</time>
      </trkpt>
      <trkpt lat="45.70179" lon="2.96062">
        <ele>926</ele>
        <time>2014-08-22T09:12:33Z</time>
      </trkpt>
      <trkpt lat="45.70189" lon="2.96049">
        <ele>926</ele>
        <time>2014-08-22T09:12:36Z</time>
      </trkpt>
      <trkpt lat="45.70197" lon="2.96038">
        <ele>927</ele>
        <time>2014-08-22T09:12:39Z</time>
      </trkpt>
      <trkpt lat="45.70202" lon="2.96027">
        <ele>927</ele>
        <time>2014-08-22T09:12:41Z</time>
      </trkpt>
      <trkpt lat="45.70208" lon="2.96011">
        <ele>928</ele>
        <time>2014-08-22T09:12:44Z</time>
      </trkpt>
      <trkpt lat="45.70214" lon="2.95997">
        <ele>928</ele>
        <time>2014-08-22T09:12:47Z</time>
      </trkpt>
      <trkpt lat="45.7022" lon="2.95987">
        <ele>928</ele>
        <time>2014-08-22T09:12:49Z</time>
      </trkpt>
      <trkpt lat="45.70231" lon="2.95978">
        <ele>929</ele>
        <time>2014-08-22T09:12:52Z</time>
      </trkpt>
      <trkpt lat="45.70243" lon="2.95971">
        <ele>929</ele>
        <time>2014-08-22T09:12:55Z</time>
      </trkpt>
      <trkpt lat="45.70256" lon="2.95956">
        <ele>929</ele>
        <time>2014-08-22T09:12:58Z</time>
      </trkpt>
      <trkpt lat="45.7026" lon="2.95942">
        <ele>929</ele>
        <time>2014-08-22T09:13:00Z</time>
      </trkpt>
      <trkpt lat="45.70267" lon="2.95925">
        <ele>929</ele>
        <time>2014-08-22T09:13:03Z</time>
      </trkpt>
      <trkpt lat="45.70272" lon="2.95914">
        <ele>928</ele>
        <time>2014-08-22T09:13:05Z</time>
      </trkpt>
      <trkpt lat="45.7028" lon="2.959">
        <ele>928</ele>
        <time>2014-08-22T09:13:08Z</time>
      </trkpt>
      <trkpt lat="45.70285" lon="2.9589">
        <ele>927</ele>
        <time>2014-08-22T09:13:10Z</time>
      </trkpt>
      <trkpt lat="45.70293" lon="2.95872">
        <ele>928</ele>
        <time>2014-08-22T09:13:13Z</time>
      </trkpt>
      <trkpt lat="45.703" lon="2.95861">
        <ele>928</ele>
        <time>2014-08-22T09:13:15Z</time>
      </trkpt>
      <trkpt lat="45.70311" lon="2.95847">
        <ele>928</ele>
        <time>2014-08-22T09:13:18Z</time>
      </trkpt>
      <trkpt lat="45.70317" lon="2.95835">
        <ele>929</ele>
        <time>2014-08-22T09:13:20Z</time>
      </trkpt>
      <trkpt lat="45.70326" lon="2.95818">
        <ele>929</ele>
        <time>2014-08-22T09:13:23Z</time>
      </trkpt>
      <trkpt lat="45.70332" lon="2.95808">
        <ele>929</ele>
        <time>2014-08-22T09:13:25Z</time>
      </trkpt>
      <trkpt lat="45.70337" lon="2.95796">
        <ele>929</ele>
        <time>2014-08-22T09:13:27Z</time>
      </trkpt>
      <trkpt lat="45.70342" lon="2.95784">
        <ele>928</ele>
        <time>2014-08-22T09:13:29Z</time>
      </trkpt>
      <trkpt lat="45.70351" lon="2.95767">
        <ele>928</ele>
        <time>2014-08-22T09:13:32Z</time>
      </trkpt>
      <trkpt lat="45.70356" lon="2.95755">
        <ele>929</ele>
        <time>2014-08-22T09:13:34Z</time>
      </trkpt>
      <trkpt lat="45.70362" lon="2.95737">
        <ele>929</ele>
        <time>2014-08-22T09:13:37Z</time>
      </trkpt>
      <trkpt lat="45.70364" lon="2.95724">
        <ele>930</ele>
        <time>2014-08-22T09:13:39Z</time>
      </trkpt>
      <trkpt lat="45.70367" lon="2.95711">
        <ele>930</ele>
        <time>2014-08-22T09:13:41Z</time>
      </trkpt>
      <trkpt lat="45.70372" lon="2.95694">
        <ele>931</ele>
        <time>2014-08-22T09:13:44Z</time>
      </trkpt>
      <trkpt lat="45.70376" lon="2.95684">
        <ele>932</ele>
        <time>2014-08-22T09:13:46Z</time>
      </trkpt>
      <trkpt lat="45.7038" lon="2.95675">
        <ele>931</ele>
        <time>2014-08-22T09:13:48Z</time>
      </trkpt>
      <trkpt lat="45.70385" lon="2.95668">
        <ele>931</ele>
        <time>2014-08-22T09:13:50Z</time>
      </trkpt>
      <trkpt lat="45.70393" lon="2.95657">
        <ele>931</ele>
        <time>2014-08-22T09:13:53Z</time>
      </trkpt>
      <trkpt lat="45.704" lon="2.95646">
        <ele>931</ele>
        <time>2014-08-22T09:13:56Z</time>
      </trkpt>
      <trkpt lat="45.70408" lon="2.95636">
        <ele>932</ele>
        <time>2014-08-22T09:13:59Z</time>
      </trkpt>
      <trkpt lat="45.70414" lon="2.9563">
        <ele>932</ele>
        <time>2014-08-22T09:14:01Z</time>
      </trkpt>
      <trkpt lat="45.7042" lon="2.95624">
        <ele>932</ele>
        <time>2014-08-22T09:14:03Z</time>
      </trkpt>
      <trkpt lat="45.70429" lon="2.95613">
        <ele>933</ele>
        <time>2014-08-22T09:14:06Z</time>
      </trkpt>
      <trkpt lat="45.70434" lon="2.95605">
        <ele>933</ele>
        <time>2014-08-22T09:14:08Z</time>
      </trkpt>
      <trkpt lat="45.70438" lon="2.95596">
        <ele>933</ele>
        <time>2014-08-22T09:14:10Z</time>
      </trkpt>
      <trkpt lat="45.70442" lon="2.95586">
        <ele>933</ele>
        <time>2014-08-22T09:14:12Z</time>
      </trkpt>
      <trkpt lat="45.70446" lon="2.95576">
        <ele>934</ele>
        <time>2014-08-22T09:14:14Z</time>
      </trkpt>
      <trkpt lat="45.7045" lon="2.95566">
        <ele>935</ele>
        <time>2014-08-22T09:14:16Z</time>
      </trkpt>
      <trkpt lat="45.70455" lon="2.9555">
        <ele>935</ele>
        <time>2014-08-22T09:14:19Z</time>
      </trkpt>
      <trkpt lat="45.7046" lon="2.95538">
        <ele>936</ele>
        <time>2014-08-22T09:14:22Z</time>
      </trkpt>
      <trkpt lat="45.70462" lon="2.95532">
        <ele>936</ele>
        <time>2014-08-22T09:14:24Z</time>
      </trkpt>
      <trkpt lat="45.70464" lon="2.95521">
        <ele>937</ele>
        <time>2014-08-22T09:14:27Z</time>
      </trkpt>
      <trkpt lat="45.70464" lon="2.95509">
        <ele>938</ele>
        <time>2014-08-22T09:14:30Z</time>
      </trkpt>
      <trkpt lat="45.70465" lon="2.95495">
        <ele>938</ele>
        <time>2014-08-22T09:14:33Z</time>
      </trkpt>
      <trkpt lat="45.70467" lon="2.95481">
        <ele>939</ele>
        <time>2014-08-22T09:14:36Z</time>
      </trkpt>
      <trkpt lat="45.70469" lon="2.95473">
        <ele>940</ele>
        <time>2014-08-22T09:14:38Z</time>
      </trkpt>
      <trkpt lat="45.70474" lon="2.95459">
        <ele>940</ele>
        <time>2014-08-22T09:14:41Z</time>
      </trkpt>
      <trkpt lat="45.70477" lon="2.95449">
        <ele>940</ele>
        <time>2014-08-22T09:14:43Z</time>
      </trkpt>
      <trkpt lat="45.7048" lon="2.95441">
        <ele>941</ele>
        <time>2014-08-22T09:14:45Z</time>
      </trkpt>
      <trkpt lat="45.70487" lon="2.95432">
        <ele>942</ele>
        <time>2014-08-22T09:14:48Z</time>
      </trkpt>
      <trkpt lat="45.70492" lon="2.95427">
        <ele>942</ele>
        <time>2014-08-22T09:14:50Z</time>
      </trkpt>
      <trkpt lat="45.70494" lon="2.95424">
        <ele>943</ele>
        <time>2014-08-22T09:14:52Z</time>
      </trkpt>
      <trkpt lat="45.70497" lon="2.95416">
        <ele>944</ele>
        <time>2014-08-22T09:14:55Z</time>
      </trkpt>
      <trkpt lat="45.705" lon="2.95409">
        <ele>944</ele>
        <time>2014-08-22T09:14:57Z</time>
      </trkpt>
      <trkpt lat="45.70505" lon="2.95404">
        <ele>944</ele>
        <time>2014-08-22T09:15:00Z</time>
      </trkpt>
      <trkpt lat="45.70508" lon="2.95399">
        <ele>945</ele>
        <time>2014-08-22T09:15:02Z</time>
      </trkpt>
      <trkpt lat="45.70512" lon="2.95392">
        <ele>946</ele>
        <time>2014-08-22T09:15:05Z</time>
      </trkpt>
      <trkpt lat="45.70515" lon="2.95388">
        <ele>947</ele>
        <time>2014-08-22T09:15:07Z</time>
      </trkpt>
      <trkpt lat="45.70518" lon="2.9538">
        <ele>947</ele>
        <time>2014-08-22T09:15:09Z</time>
      </trkpt>
      <trkpt lat="45.7052" lon="2.95373">
        <ele>948</ele>
        <time>2014-08-22T09:15:11Z</time>
      </trkpt>
      <trkpt lat="45.70526" lon="2.95363">
        <ele>949</ele>
        <time>2014-08-22T09:15:14Z</time>
      </trkpt>
      <trkpt lat="45.7053" lon="2.95357">
        <ele>949</ele>
        <time>2014-08-22T09:15:16Z</time>
      </trkpt>
      <trkpt lat="45.70534" lon="2.95352">
        <ele>950</ele>
        <time>2014-08-22T09:15:18Z</time>
      </trkpt>
      <trkpt lat="45.70541" lon="2.95345">
        <ele>951</ele>
        <time>2014-08-22T09:15:21Z</time>
      </trkpt>
      <trkpt lat="45.70546" lon="2.95339">
        <ele>952</ele>
        <time>2014-08-22T09:15:24Z</time>
      </trkpt>
      <trkpt lat="45.70549" lon="2.95336">
        <ele>953</ele>
        <time>2014-08-22T09:15:26Z</time>
      </trkpt>
      <trkpt lat="45.70555" lon="2.95331">
        <ele>954</ele>
        <time>2014-08-22T09:15:29Z</time>
      </trkpt>
      <trkpt lat="45.70559" lon="2.95329">
        <ele>954</ele>
        <time>2014-08-22T09:15:31Z</time>
      </trkpt>
      <trkpt lat="45.70564" lon="2.95324">
        <ele>955</ele>
        <time>2014-08-22T09:15:34Z</time>
      </trkpt>
      <trkpt lat="45.70568" lon="2.95321">
        <ele>955</ele>
        <time>2014-08-22T09:15:36Z</time>
      </trkpt>
      <trkpt lat="45.70572" lon="2.95318">
        <ele>956</ele>
        <time>2014-08-22T09:15:38Z</time>
      </trkpt>
      <trkpt lat="45.70577" lon="2.95315">
        <ele>957</ele>
        <time>2014-08-22T09:15:41Z</time>
      </trkpt>
      <trkpt lat="45.70581" lon="2.95312">
        <ele>957</ele>
        <time>2014-08-22T09:15:44Z</time>
      </trkpt>
      <trkpt lat="45.70586" lon="2.95307">
        <ele>958</ele>
        <time>2014-08-22T09:15:47Z</time>
      </trkpt>
      <trkpt lat="45.70588" lon="2.95304">
        <ele>959</ele>
        <time>2014-08-22T09:15:49Z</time>
      </trkpt>
      <trkpt lat="45.7059" lon="2.95301">
        <ele>960</ele>
        <time>2014-08-22T09:15:51Z</time>
      </trkpt>
      <trkpt lat="45.70594" lon="2.95297">
        <ele>960</ele>
        <time>2014-08-22T09:15:54Z</time>
      </trkpt>
      <trkpt lat="45.70599" lon="2.95292">
        <ele>962</ele>
        <time>2014-08-22T09:15:57Z</time>
      </trkpt>
      <trkpt lat="45.70601" lon="2.95289">
        <ele>962</ele>
        <time>2014-08-22T09:15:59Z</time>
      </trkpt>
      <trkpt lat="45.70603" lon="2.95285">
        <ele>963</ele>
        <time>2014-08-22T09:16:01Z</time>
      </trkpt>
      <trkpt lat="45.70606" lon="2.95282">
        <ele>964</ele>
        <time>2014-08-22T09:16:03Z</time>
      </trkpt>
      <trkpt lat="45.70607" lon="2.95274">
        <ele>965</ele>
        <time>2014-08-22T09:16:06Z</time>
      </trkpt>
      <trkpt lat="45.70609" lon="2.95269">
        <ele>966</ele>
        <time>2014-08-22T09:16:08Z</time>
      </trkpt>
      <trkpt lat="45.70612" lon="2.95265">
        <ele>968</ele>
        <time>2014-08-22T09:16:10Z</time>
      </trkpt>
      <trkpt lat="45.70615" lon="2.9526">
        <ele>969</ele>
        <time>2014-08-22T09:16:13Z</time>
      </trkpt>
      <trkpt lat="45.7062" lon="2.95253">
        <ele>969</ele>
        <time>2014-08-22T09:16:16Z</time>
      </trkpt>
      <trkpt lat="45.70622" lon="2.95248">
        <ele>969</ele>
        <time>2014-08-22T09:16:18Z</time>
      </trkpt>
      <trkpt lat="45.70627" lon="2.95242">
        <ele>969</ele>
        <time>2014-08-22T09:16:21Z</time>
      </trkpt>
      <trkpt lat="45.70629" lon="2.95236">
        <ele>970</ele>
        <time>2014-08-22T09:16:24Z</time>
      </trkpt>
      <trkpt lat="45.70632" lon="2.95232">
        <ele>971</ele>
        <time>2014-08-22T09:16:26Z</time>
      </trkpt>
      <trkpt lat="45.70636" lon="2.95226">
        <ele>971</ele>
        <time>2014-08-22T09:16:29Z</time>
      </trkpt>
      <trkpt lat="45.70642" lon="2.9522">
        <ele>971</ele>
        <time>2014-08-22T09:16:32Z</time>
      </trkpt>
      <trkpt lat="45.70647" lon="2.95211">
        <ele>972</ele>
        <time>2014-08-22T09:16:35Z</time>
      </trkpt>
      <trkpt lat="45.7065" lon="2.95205">
        <ele>972</ele>
        <time>2014-08-22T09:16:37Z</time>
      </trkpt>
      <trkpt lat="45.70654" lon="2.95194">
        <ele>973</ele>
        <time>2014-08-22T09:16:40Z</time>
      </trkpt>
      <trkpt lat="45.70656" lon="2.95186">
        <ele>973</ele>
        <time>2014-08-22T09:16:42Z</time>
      </trkpt>
      <trkpt lat="45.70659" lon="2.95177">
        <ele>973</ele>
        <time>2014-08-22T09:16:44Z</time>
      </trkpt>
      <trkpt lat="45.70663" lon="2.9516">
        <ele>974</ele>
        <time>2014-08-22T09:16:47Z</time>
      </trkpt>
      <trkpt lat="45.70665" lon="2.95148">
        <ele>974</ele>
        <time>2014-08-22T09:16:49Z</time>
      </trkpt>
      <trkpt lat="45.70666" lon="2.95137">
        <ele>973</ele>
        <time>2014-08-22T09:16:51Z</time>
      </trkpt>
      <trkpt lat="45.70668" lon="2.95125">
        <ele>973</ele>
        <time>2014-08-22T09:16:53Z</time>
      </trkpt>
      <trkpt lat="45.70669" lon="2.95113">
        <ele>973</ele>
        <time>2014-08-22T09:16:55Z</time>
      </trkpt>
      <trkpt lat="45.70669" lon="2.95101">
        <ele>973</ele>
        <time>2014-08-22T09:16:57Z</time>
      </trkpt>
      <trkpt lat="45.7067" lon="2.95089">
        <ele>973</ele>
        <time>2014-08-22T09:16:59Z</time>
      </trkpt>
      <trkpt lat="45.70671" lon="2.95075">
        <ele>974</ele>
        <time>2014-08-22T09:17:01Z</time>
      </trkpt>
      <trkpt lat="45.70673" lon="2.95055">
        <ele>974</ele>
        <time>2014-08-22T09:17:04Z</time>
      </trkpt>
      <trkpt lat="45.70673" lon="2.95041">
        <ele>974</ele>
        <time>2014-08-22T09:17:06Z</time>
      </trkpt>
      <trkpt lat="45.70676" lon="2.9502">
        <ele>974</ele>
        <time>2014-08-22T09:17:09Z</time>
      </trkpt>
      <trkpt lat="45.7068" lon="2.95008">
        <ele>975</ele>
        <time>2014-08-22T09:17:11Z</time>
      </trkpt>
      <trkpt lat="45.70684" lon="2.95002">
        <ele>975</ele>
        <time>2014-08-22T09:17:13Z</time>
      </trkpt>
      <trkpt lat="45.70687" lon="2.94995">
        <ele>975</ele>
        <time>2014-08-22T09:17:15Z</time>
      </trkpt>
      <trkpt lat="45.70691" lon="2.94988">
        <ele>975</ele>
        <time>2014-08-22T09:17:17Z</time>
      </trkpt>
      <trkpt lat="45.70694" lon="2.9498">
        <ele>976</ele>
        <time>2014-08-22T09:17:19Z</time>
      </trkpt>
      <trkpt lat="45.70697" lon="2.94973">
        <ele>976</ele>
        <time>2014-08-22T09:17:21Z</time>
      </trkpt>
      <trkpt lat="45.707" lon="2.94966">
        <ele>978</ele>
        <time>2014-08-22T09:17:23Z</time>
      </trkpt>
      <trkpt lat="45.70703" lon="2.94956">
        <ele>978</ele>
        <time>2014-08-22T09:17:25Z</time>
      </trkpt>
      <trkpt lat="45.70709" lon="2.94941">
        <ele>978</ele>
        <time>2014-08-22T09:17:28Z</time>
      </trkpt>
      <trkpt lat="45.70711" lon="2.94933">
        <ele>979</ele>
        <time>2014-08-22T09:17:30Z</time>
      </trkpt>
      <trkpt lat="45.70713" lon="2.94919">
        <ele>979</ele>
        <time>2014-08-22T09:17:33Z</time>
      </trkpt>
      <trkpt lat="45.70717" lon="2.94905">
        <ele>979</ele>
        <time>2014-08-22T09:17:36Z</time>
      </trkpt>
      <trkpt lat="45.7072" lon="2.94894">
        <ele>979</ele>
        <time>2014-08-22T09:17:38Z</time>
      </trkpt>
      <trkpt lat="45.70725" lon="2.94884">
        <ele>979</ele>
        <time>2014-08-22T09:17:40Z</time>
      </trkpt>
      <trkpt lat="45.70729" lon="2.94873">
        <ele>979</ele>
        <time>2014-08-22T09:17:42Z</time>
      </trkpt>
      <trkpt lat="45.70735" lon="2.94862">
        <ele>979</ele>
        <time>2014-08-22T09:17:44Z</time>
      </trkpt>
      <trkpt lat="45.70741" lon="2.94853">
        <ele>980</ele>
        <time>2014-08-22T09:17:46Z</time>
      </trkpt>
      <trkpt lat="45.70752" lon="2.9484">
        <ele>980</ele>
        <time>2014-08-22T09:17:49Z</time>
      </trkpt>
      <trkpt lat="45.70759" lon="2.9483">
        <ele>980</ele>
        <time>2014-08-22T09:17:51Z</time>
      </trkpt>
      <trkpt lat="45.70766" lon="2.9482">
        <ele>980</ele>
        <time>2014-08-22T09:17:53Z</time>
      </trkpt>
      <trkpt lat="45.70778" lon="2.94807">
        <ele>980</ele>
        <time>2014-08-22T09:17:56Z</time>
      </trkpt>
      <trkpt lat="45.70785" lon="2.94799">
        <ele>980</ele>
        <time>2014-08-22T09:17:58Z</time>
      </trkpt>
      <trkpt lat="45.70792" lon="2.94791">
        <ele>980</ele>
        <time>2014-08-22T09:18:00Z</time>
      </trkpt>
      <trkpt lat="45.70799" lon="2.94782">
        <ele>980</ele>
        <time>2014-08-22T09:18:02Z</time>
      </trkpt>
      <trkpt lat="45.70804" lon="2.94773">
        <ele>981</ele>
        <time>2014-08-22T09:18:04Z</time>
      </trkpt>
      <trkpt lat="45.70812" lon="2.94759">
        <ele>981</ele>
        <time>2014-08-22T09:18:07Z</time>
      </trkpt>
      <trkpt lat="45.7082" lon="2.94745">
        <ele>981</ele>
        <time>2014-08-22T09:18:10Z</time>
      </trkpt>
      <trkpt lat="45.70826" lon="2.94736">
        <ele>981</ele>
        <time>2014-08-22T09:18:12Z</time>
      </trkpt>
      <trkpt lat="45.70834" lon="2.94723">
        <ele>981</ele>
        <time>2014-08-22T09:18:15Z</time>
      </trkpt>
      <trkpt lat="45.7084" lon="2.94714">
        <ele>981</ele>
        <time>2014-08-22T09:18:17Z</time>
      </trkpt>
      <trkpt lat="45.70845" lon="2.94707">
        <ele>981</ele>
        <time>2014-08-22T09:18:19Z</time>
      </trkpt>
      <trkpt lat="45.7085" lon="2.94699">
        <ele>981</ele>
        <time>2014-08-22T09:18:21Z</time>
      </trkpt>
      <trkpt lat="45.70856" lon="2.94691">
        <ele>982</ele>
        <time>2014-08-22T09:18:23Z</time>
      </trkpt>
      <trkpt lat="45.70862" lon="2.94684">
        <ele>982</ele>
        <time>2014-08-22T09:18:25Z</time>
      </trkpt>
      <trkpt lat="45.70868" lon="2.94675">
        <ele>983</ele>
        <time>2014-08-22T09:18:27Z</time>
      </trkpt>
      <trkpt lat="45.70876" lon="2.94661">
        <ele>983</ele>
        <time>2014-08-22T09:18:30Z</time>
      </trkpt>
      <trkpt lat="45.70881" lon="2.94651">
        <ele>983</ele>
        <time>2014-08-22T09:18:32Z</time>
      </trkpt>
      <trkpt lat="45.70887" lon="2.9464">
        <ele>983</ele>
        <time>2014-08-22T09:18:34Z</time>
      </trkpt>
      <trkpt lat="45.70896" lon="2.94624">
        <ele>983</ele>
        <time>2014-08-22T09:18:37Z</time>
      </trkpt>
      <trkpt lat="45.70903" lon="2.94613">
        <ele>984</ele>
        <time>2014-08-22T09:18:39Z</time>
      </trkpt>
      <trkpt lat="45.70913" lon="2.94598">
        <ele>984</ele>
        <time>2014-08-22T09:18:42Z</time>
      </trkpt>
      <trkpt lat="45.70924" lon="2.94581">
        <ele>984</ele>
        <time>2014-08-22T09:18:45Z</time>
      </trkpt>
      <trkpt lat="45.70935" lon="2.94566">
        <ele>984</ele>
        <time>2014-08-22T09:18:48Z</time>
      </trkpt>
      <trkpt lat="45.70946" lon="2.9455">
        <ele>984</ele>
        <time>2014-08-22T09:18:51Z</time>
      </trkpt>
      <trkpt lat="45.70956" lon="2.94531">
        <ele>984</ele>
        <time>2014-08-22T09:18:54Z</time>
      </trkpt>
      <trkpt lat="45.70963" lon="2.94517">
        <ele>984</ele>
        <time>2014-08-22T09:18:56Z</time>
      </trkpt>
      <trkpt lat="45.70973" lon="2.94496">
        <ele>984</ele>
        <time>2014-08-22T09:18:59Z</time>
      </trkpt>
      <trkpt lat="45.7098" lon="2.94483">
        <ele>984</ele>
        <time>2014-08-22T09:19:01Z</time>
      </trkpt>
      <trkpt lat="45.7099" lon="2.94461">
        <ele>985</ele>
        <time>2014-08-22T09:19:04Z</time>
      </trkpt>
      <trkpt lat="45.70995" lon="2.94447">
        <ele>985</ele>
        <time>2014-08-22T09:19:06Z</time>
      </trkpt>
      <trkpt lat="45.71" lon="2.94432">
        <ele>985</ele>
        <time>2014-08-22T09:19:08Z</time>
      </trkpt>
      <trkpt lat="45.71003" lon="2.9441">
        <ele>984</ele>
        <time>2014-08-22T09:19:11Z</time>
      </trkpt>
      <trkpt lat="45.71007" lon="2.94387">
        <ele>983</ele>
        <time>2014-08-22T09:19:14Z</time>
      </trkpt>
      <trkpt lat="45.71013" lon="2.94372">
        <ele>982</ele>
        <time>2014-08-22T09:19:16Z</time>
      </trkpt>
      <trkpt lat="45.71027" lon="2.94355">
        <ele>982</ele>
        <time>2014-08-22T09:19:19Z</time>
      </trkpt>
      <trkpt lat="45.71035" lon="2.94344">
        <ele>981</ele>
        <time>2014-08-22T09:19:21Z</time>
      </trkpt>
      <trkpt lat="45.71045" lon="2.94327">
        <ele>981</ele>
        <time>2014-08-22T09:19:24Z</time>
      </trkpt>
      <trkpt lat="45.71052" lon="2.9432">
        <ele>980</ele>
        <time>2014-08-22T09:19:27Z</time>
      </trkpt>
      <trkpt lat="45.71057" lon="2.94319">
        <ele>980</ele>
        <time>2014-08-22T09:19:30Z</time>
      </trkpt>
      <trkpt lat="45.71061" lon="2.94326">
        <ele>981</ele>
        <time>2014-08-22T09:19:33Z</time>
      </trkpt>
      <trkpt lat="45.71068" lon="2.94336">
        <ele>981</ele>
        <time>2014-08-22T09:19:36Z</time>
      </trkpt>
      <trkpt lat="45.71072" lon="2.94342">
        <ele>981</ele>
        <time>2014-08-22T09:19:38Z</time>
      </trkpt>
      <trkpt lat="45.71075" lon="2.9435">
        <ele>981</ele>
        <time>2014-08-22T09:19:40Z</time>
      </trkpt>
      <trkpt lat="45.71078" lon="2.94358">
        <ele>981</ele>
        <time>2014-08-22T09:19:42Z</time>
      </trkpt>
      <trkpt lat="45.71082" lon="2.94369">
        <ele>982</ele>
        <time>2014-08-22T09:19:45Z</time>
      </trkpt>
      <trkpt lat="45.71086" lon="2.9438">
        <ele>982</ele>
        <time>2014-08-22T09:19:48Z</time>
      </trkpt>
      <trkpt lat="45.71088" lon="2.94389">
        <ele>982</ele>
        <time>2014-08-22T09:19:50Z</time>
      </trkpt>
      <trkpt lat="45.71092" lon="2.94398">
        <ele>983</ele>
        <time>2014-08-22T09:19:52Z</time>
      </trkpt>
      <trkpt lat="45.71097" lon="2.94412">
        <ele>984</ele>
        <time>2014-08-22T09:19:55Z</time>
      </trkpt>
      <trkpt lat="45.71101" lon="2.94422">
        <ele>984</ele>
        <time>2014-08-22T09:19:57Z</time>
      </trkpt>
      <trkpt lat="45.7111" lon="2.94435">
        <ele>985</ele>
        <time>2014-08-22T09:20:00Z</time>
      </trkpt>
      <trkpt lat="45.71114" lon="2.94447">
        <ele>985</ele>
        <time>2014-08-22T09:20:02Z</time>
      </trkpt>
      <trkpt lat="45.71121" lon="2.9446">
        <ele>985</ele>
        <time>2014-08-22T09:20:04Z</time>
      </trkpt>
      <trkpt lat="45.71132" lon="2.94479">
        <ele>984</ele>
        <time>2014-08-22T09:20:07Z</time>
      </trkpt>
      <trkpt lat="45.7114" lon="2.94493">
        <ele>984</ele>
        <time>2014-08-22T09:20:09Z</time>
      </trkpt>
      <trkpt lat="45.71152" lon="2.94514">
        <ele>984</ele>
        <time>2014-08-22T09:20:12Z</time>
      </trkpt>
      <trkpt lat="45.71161" lon="2.94526">
        <ele>984</ele>
        <time>2014-08-22T09:20:14Z</time>
      </trkpt>
      <trkpt lat="45.71175" lon="2.94546">
        <ele>984</ele>
        <time>2014-08-22T09:20:17Z</time>
      </trkpt>
      <trkpt lat="45.71185" lon="2.94567">
        <ele>984</ele>
        <time>2014-08-22T09:20:20Z</time>
      </trkpt>
      <trkpt lat="45.71196" lon="2.94587">
        <ele>983</ele>
        <time>2014-08-22T09:20:23Z</time>
      </trkpt>
      <trkpt lat="45.71205" lon="2.94601">
        <ele>983</ele>
        <time>2014-08-22T09:20:25Z</time>
      </trkpt>
      <trkpt lat="45.71214" lon="2.94613">
        <ele>982</ele>
        <time>2014-08-22T09:20:27Z</time>
      </trkpt>
      <trkpt lat="45.71224" lon="2.94625">
        <ele>982</ele>
        <time>2014-08-22T09:20:29Z</time>
      </trkpt>
      <trkpt lat="45.71235" lon="2.94637">
        <ele>982</ele>
        <time>2014-08-22T09:20:31Z</time>
      </trkpt>
      <trkpt lat="45.71251" lon="2.94651">
        <ele>982</ele>
        <time>2014-08-22T09:20:34Z</time>
      </trkpt>
      <trkpt lat="45.71266" lon="2.94663">
        <ele>982</ele>
        <time>2014-08-22T09:20:37Z</time>
      </trkpt>
      <trkpt lat="45.71275" lon="2.94668">
        <ele>982</ele>
        <time>2014-08-22T09:20:39Z</time>
      </trkpt>
      <trkpt lat="45.71285" lon="2.94671">
        <ele>982</ele>
        <time>2014-08-22T09:20:41Z</time>
      </trkpt>
      <trkpt lat="45.71293" lon="2.94677">
        <ele>981</ele>
        <time>2014-08-22T09:20:43Z</time>
      </trkpt>
      <trkpt lat="45.71306" lon="2.94689">
        <ele>982</ele>
        <time>2014-08-22T09:20:46Z</time>
      </trkpt>
      <trkpt lat="45.71315" lon="2.94697">
        <ele>982</ele>
        <time>2014-08-22T09:20:48Z</time>
      </trkpt>
      <trkpt lat="45.71325" lon="2.94702">
        <ele>982</ele>
        <time>2014-08-22T09:20:50Z</time>
      </trkpt>
      <trkpt lat="45.71339" lon="2.94709">
        <ele>982</ele>
        <time>2014-08-22T09:20:53Z</time>
      </trkpt>
      <trkpt lat="45.71349" lon="2.94713">
        <ele>982</ele>
        <time>2014-08-22T09:20:55Z</time>
      </trkpt>
      <trkpt lat="45.71362" lon="2.94718">
        <ele>982</ele>
        <time>2014-08-22T09:20:58Z</time>
      </trkpt>
      <trkpt lat="45.71372" lon="2.94725">
        <ele>982</ele>
        <time>2014-08-22T09:21:01Z</time>
      </trkpt>
      <trkpt lat="45.71381" lon="2.94737">
        <ele>982</ele>
        <time>2014-08-22T09:21:04Z</time>
      </trkpt>
      <trkpt lat="45.71389" lon="2.94746">
        <ele>982</ele>
        <time>2014-08-22T09:21:06Z</time>
      </trkpt>
      <trkpt lat="45.71399" lon="2.94755">
        <ele>982</ele>
        <time>2014-08-22T09:21:09Z</time>
      </trkpt>
      <trkpt lat="45.71408" lon="2.94763">
        <ele>983</ele>
        <time>2014-08-22T09:21:12Z</time>
      </trkpt>
      <trkpt lat="45.71414" lon="2.94771">
        <ele>983</ele>
        <time>2014-08-22T09:21:14Z</time>
      </trkpt>
      <trkpt lat="45.71423" lon="2.94777">
        <ele>984</ele>
        <time>2014-08-22T09:21:17Z</time>
      </trkpt>
      <trkpt lat="45.71432" lon="2.94785">
        <ele>984</ele>
        <time>2014-08-22T09:21:20Z</time>
      </trkpt>
      <trkpt lat="45.71441" lon="2.94791">
        <ele>985</ele>
        <time>2014-08-22T09:21:23Z</time>
      </trkpt>
      <trkpt lat="45.71449" lon="2.94796">
        <ele>986</ele>
        <time>2014-08-22T09:21:26Z</time>
      </trkpt>
      <trkpt lat="45.71453" lon="2.94798">
        <ele>986</ele>
        <time>2014-08-22T09:21:28Z</time>
      </trkpt>
      <trkpt lat="45.71457" lon="2.94801">
        <ele>986</ele>
        <time>2014-08-22T09:21:30Z</time>
      </trkpt>
      <trkpt lat="45.7146" lon="2.948">
        <ele>987</ele>
        <time>2014-08-22T09:21:32Z</time>
      </trkpt>
      <trkpt lat="45.71467" lon="2.948">
        <ele>987</ele>
        <time>2014-08-22T09:21:35Z</time>
      </trkpt>
      <trkpt lat="45.71474" lon="2.94805">
        <ele>988</ele>
        <time>2014-08-22T09:21:38Z</time>
      </trkpt>
      <trkpt lat="45.71481" lon="2.94806">
        <ele>989</ele>
        <time>2014-08-22T09:21:41Z</time>
      </trkpt>
      <trkpt lat="45.71488" lon="2.94811">
        <ele>990</ele>
        <time>2014-08-22T09:21:44Z</time>
      </trkpt>
      <trkpt lat="45.71494" lon="2.94813">
        <ele>990</ele>
        <time>2014-08-22T09:21:46Z</time>
      </trkpt>
      <trkpt lat="45.71503" lon="2.94816">
        <ele>991</ele>
        <time>2014-08-22T09:21:49Z</time>
      </trkpt>
      <trkpt lat="45.71507" lon="2.94817">
        <ele>991</ele>
        <time>2014-08-22T09:21:51Z</time>
      </trkpt>
      <trkpt lat="45.71514" lon="2.94819">
        <ele>991</ele>
        <time>2014-08-22T09:21:54Z</time>
      </trkpt>
      <trkpt lat="45.71519" lon="2.94822">
        <ele>991</ele>
        <time>2014-08-22T09:21:57Z</time>
      </trkpt>
      <trkpt lat="45.71525" lon="2.94823">
        <ele>991</ele>
        <time>2014-08-22T09:22:00Z</time>
      </trkpt>
      <trkpt lat="45.71534" lon="2.94827">
        <ele>993</ele>
        <time>2014-08-22T09:22:03Z</time>
      </trkpt>
      <trkpt lat="45.71543" lon="2.94831">
        <ele>994</ele>
        <time>2014-08-22T09:22:06Z</time>
      </trkpt>
      <trkpt lat="45.7155" lon="2.94832">
        <ele>994</ele>
        <time>2014-08-22T09:22:08Z</time>
      </trkpt>
      <trkpt lat="45.71561" lon="2.94834">
        <ele>994</ele>
        <time>2014-08-22T09:22:11Z</time>
      </trkpt>
      <trkpt lat="45.71568" lon="2.94834">
        <ele>994</ele>
        <time>2014-08-22T09:22:13Z</time>
      </trkpt>
      <trkpt lat="45.71577" lon="2.94839">
        <ele>995</ele>
        <time>2014-08-22T09:22:16Z</time>
      </trkpt>
      <trkpt lat="45.71581" lon="2.94841">
        <ele>996</ele>
        <time>2014-08-22T09:22:18Z</time>
      </trkpt>
      <trkpt lat="45.71585" lon="2.94841">
        <ele>997</ele>
        <time>2014-08-22T09:22:20Z</time>
      </trkpt>
      <trkpt lat="45.71592" lon="2.94843">
        <ele>997</ele>
        <time>2014-08-22T09:22:23Z</time>
      </trkpt>
      <trkpt lat="45.71597" lon="2.94845">
        <ele>998</ele>
        <time>2014-08-22T09:22:25Z</time>
      </trkpt>
      <trkpt lat="45.71602" lon="2.94847">
        <ele>998</ele>
        <time>2014-08-22T09:22:28Z</time>
      </trkpt>
      <trkpt lat="45.71609" lon="2.94849">
        <ele>999</ele>
        <time>2014-08-22T09:22:31Z</time>
      </trkpt>
      <trkpt lat="45.71616" lon="2.94851">
        <ele>1000</ele>
        <time>2014-08-22T09:22:34Z</time>
      </trkpt>
      <trkpt lat="45.71622" lon="2.94854">
        <ele>1000</ele>
        <time>2014-08-22T09:22:37Z</time>
      </trkpt>
      <trkpt lat="45.71627" lon="2.94855">
        <ele>1001</ele>
        <time>2014-08-22T09:22:39Z</time>
      </trkpt>
      <trkpt lat="45.71635" lon="2.94859">
        <ele>1001</ele>
        <time>2014-08-22T09:22:42Z</time>
      </trkpt>
      <trkpt lat="45.71644" lon="2.94862">
        <ele>1002</ele>
        <time>2014-08-22T09:22:45Z</time>
      </trkpt>
      <trkpt lat="45.71652" lon="2.94867">
        <ele>1003</ele>
        <time>2014-08-22T09:22:48Z</time>
      </trkpt>
      <trkpt lat="45.7166" lon="2.94872">
        <ele>1003</ele>
        <time>2014-08-22T09:22:51Z</time>
      </trkpt>
      <trkpt lat="45.71665" lon="2.94875">
        <ele>1004</ele>
        <time>2014-08-22T09:22:53Z</time>
      </trkpt>
      <trkpt lat="45.71672" lon="2.9488">
        <ele>1004</ele>
        <time>2014-08-22T09:22:56Z</time>
      </trkpt>
      <trkpt lat="45.71677" lon="2.94882">
        <ele>1005</ele>
        <time>2014-08-22T09:22:58Z</time>
      </trkpt>
      <trkpt lat="45.71682" lon="2.94885">
        <ele>1005</ele>
        <time>2014-08-22T09:23:00Z</time>
      </trkpt>
      <trkpt lat="45.71692" lon="2.94889">
        <ele>1006</ele>
        <time>2014-08-22T09:23:03Z</time>
      </trkpt>
      <trkpt lat="45.71704" lon="2.94894">
        <ele>1005</ele>
        <time>2014-08-22T09:23:06Z</time>
      </trkpt>
      <trkpt lat="45.71713" lon="2.94899">
        <ele>1005</ele>
        <time>2014-08-22T09:23:08Z</time>
      </trkpt>
      <trkpt lat="45.71724" lon="2.94904">
        <ele>1004</ele>
        <time>2014-08-22T09:23:10Z</time>
      </trkpt>
      <trkpt lat="45.71741" lon="2.94911">
        <ele>1004</ele>
        <time>2014-08-22T09:23:13Z</time>
      </trkpt>
      <trkpt lat="45.71758" lon="2.94922">
        <ele>1004</ele>
        <time>2014-08-22T09:23:16Z</time>
      </trkpt>
      <trkpt lat="45.71767" lon="2.94928">
        <ele>1004</ele>
        <time>2014-08-22T09:23:18Z</time>
      </trkpt>
      <trkpt lat="45.71781" lon="2.94935">
        <ele>1005</ele>
        <time>2014-08-22T09:23:21Z</time>
      </trkpt>
      <trkpt lat="45.71787" lon="2.94946">
        <ele>1004</ele>
        <time>2014-08-22T09:23:24Z</time>
      </trkpt>
      <trkpt lat="45.71793" lon="2.94954">
        <ele>1005</ele>
        <time>2014-08-22T09:23:26Z</time>
      </trkpt>
      <trkpt lat="45.71808" lon="2.94967">
        <ele>1004</ele>
        <time>2014-08-22T09:23:29Z</time>
      </trkpt>
      <trkpt lat="45.71819" lon="2.94976">
        <ele>1005</ele>
        <time>2014-08-22T09:23:31Z</time>
      </trkpt>
      <trkpt lat="45.71835" lon="2.9499">
        <ele>1006</ele>
        <time>2014-08-22T09:23:34Z</time>
      </trkpt>
      <trkpt lat="45.71847" lon="2.94998">
        <ele>1006</ele>
        <time>2014-08-22T09:23:36Z</time>
      </trkpt>
      <trkpt lat="45.71859" lon="2.95005">
        <ele>1005</ele>
        <time>2014-08-22T09:23:38Z</time>
      </trkpt>
      <trkpt lat="45.7187" lon="2.95013">
        <ele>1005</ele>
        <time>2014-08-22T09:23:40Z</time>
      </trkpt>
      <trkpt lat="45.71884" lon="2.95025">
        <ele>1005</ele>
        <time>2014-08-22T09:23:43Z</time>
      </trkpt>
      <trkpt lat="45.71893" lon="2.95032">
        <ele>1006</ele>
        <time>2014-08-22T09:23:45Z</time>
      </trkpt>
      <trkpt lat="45.71902" lon="2.95039">
        <ele>1006</ele>
        <time>2014-08-22T09:23:47Z</time>
      </trkpt>
      <trkpt lat="45.71915" lon="2.95049">
        <ele>1007</ele>
        <time>2014-08-22T09:23:50Z</time>
      </trkpt>
      <trkpt lat="45.71924" lon="2.95054">
        <ele>1007</ele>
        <time>2014-08-22T09:23:52Z</time>
      </trkpt>
      <trkpt lat="45.71933" lon="2.95058">
        <ele>1008</ele>
        <time>2014-08-22T09:23:54Z</time>
      </trkpt>
      <trkpt lat="45.71945" lon="2.95065">
        <ele>1008</ele>
        <time>2014-08-22T09:23:57Z</time>
      </trkpt>
      <trkpt lat="45.71954" lon="2.9507">
        <ele>1009</ele>
        <time>2014-08-22T09:23:59Z</time>
      </trkpt>
      <trkpt lat="45.71962" lon="2.95074">
        <ele>1009</ele>
        <time>2014-08-22T09:24:01Z</time>
      </trkpt>
      <trkpt lat="45.71968" lon="2.95077">
        <ele>1010</ele>
        <time>2014-08-22T09:24:03Z</time>
      </trkpt>
      <trkpt lat="45.71978" lon="2.95083">
        <ele>1010</ele>
        <time>2014-08-22T09:24:06Z</time>
      </trkpt>
      <trkpt lat="45.71985" lon="2.95085">
        <ele>1011</ele>
        <time>2014-08-22T09:24:08Z</time>
      </trkpt>
      <trkpt lat="45.71994" lon="2.95089">
        <ele>1011</ele>
        <time>2014-08-22T09:24:11Z</time>
      </trkpt>
      <trkpt lat="45.72004" lon="2.95095">
        <ele>1012</ele>
        <time>2014-08-22T09:24:14Z</time>
      </trkpt>
      <trkpt lat="45.72012" lon="2.951">
        <ele>1012</ele>
        <time>2014-08-22T09:24:16Z</time>
      </trkpt>
      <trkpt lat="45.72019" lon="2.95106">
        <ele>1013</ele>
        <time>2014-08-22T09:24:18Z</time>
      </trkpt>
      <trkpt lat="45.72028" lon="2.95114">
        <ele>1014</ele>
        <time>2014-08-22T09:24:21Z</time>
      </trkpt>
      <trkpt lat="45.72034" lon="2.95118">
        <ele>1015</ele>
        <time>2014-08-22T09:24:23Z</time>
      </trkpt>
      <trkpt lat="45.72042" lon="2.95124">
        <ele>1015</ele>
        <time>2014-08-22T09:24:26Z</time>
      </trkpt>
      <trkpt lat="45.72047" lon="2.95128">
        <ele>1016</ele>
        <time>2014-08-22T09:24:28Z</time>
      </trkpt>
      <trkpt lat="45.72055" lon="2.95133">
        <ele>1017</ele>
        <time>2014-08-22T09:24:31Z</time>
      </trkpt>
      <trkpt lat="45.72061" lon="2.95137">
        <ele>1017</ele>
        <time>2014-08-22T09:24:33Z</time>
      </trkpt>
      <trkpt lat="45.7207" lon="2.95141">
        <ele>1017</ele>
        <time>2014-08-22T09:24:36Z</time>
      </trkpt>
      <trkpt lat="45.72077" lon="2.95146">
        <ele>1018</ele>
        <time>2014-08-22T09:24:39Z</time>
      </trkpt>
      <trkpt lat="45.72086" lon="2.9515">
        <ele>1019</ele>
        <time>2014-08-22T09:24:42Z</time>
      </trkpt>
      <trkpt lat="45.72092" lon="2.95155">
        <ele>1020</ele>
        <time>2014-08-22T09:24:44Z</time>
      </trkpt>
      <trkpt lat="45.72096" lon="2.95156">
        <ele>1021</ele>
        <time>2014-08-22T09:24:46Z</time>
      </trkpt>
      <trkpt lat="45.72102" lon="2.95158">
        <ele>1021</ele>
        <time>2014-08-22T09:24:49Z</time>
      </trkpt>
      <trkpt lat="45.72106" lon="2.95159">
        <ele>1021</ele>
        <time>2014-08-22T09:24:51Z</time>
      </trkpt>
      <trkpt lat="45.72111" lon="2.95162">
        <ele>1022</ele>
        <time>2014-08-22T09:24:54Z</time>
      </trkpt>
      <trkpt lat="45.72114" lon="2.95164">
        <ele>1022</ele>
        <time>2014-08-22T09:24:56Z</time>
      </trkpt>
      <trkpt lat="45.72118" lon="2.95166">
        <ele>1022</ele>
        <time>2014-08-22T09:24:59Z</time>
      </trkpt>
      <trkpt lat="45.72124" lon="2.95168">
        <ele>1023</ele>
        <time>2014-08-22T09:25:02Z</time>
      </trkpt>
      <trkpt lat="45.72131" lon="2.95175">
        <ele>1024</ele>
        <time>2014-08-22T09:25:05Z</time>
      </trkpt>
      <trkpt lat="45.72138" lon="2.95179">
        <ele>1025</ele>
        <time>2014-08-22T09:25:07Z</time>
      </trkpt>
      <trkpt lat="45.72149" lon="2.95186">
        <ele>1026</ele>
        <time>2014-08-22T09:25:10Z</time>
      </trkpt>
      <trkpt lat="45.7216" lon="2.95193">
        <ele>1026</ele>
        <time>2014-08-22T09:25:13Z</time>
      </trkpt>
      <trkpt lat="45.72167" lon="2.95198">
        <ele>1027</ele>
        <time>2014-08-22T09:25:15Z</time>
      </trkpt>
      <trkpt lat="45.72177" lon="2.95206">
        <ele>1027</ele>
        <time>2014-08-22T09:25:18Z</time>
      </trkpt>
      <trkpt lat="45.72183" lon="2.95209">
        <ele>1028</ele>
        <time>2014-08-22T09:25:20Z</time>
      </trkpt>
      <trkpt lat="45.72189" lon="2.9521">
        <ele>1028</ele>
        <time>2014-08-22T09:25:22Z</time>
      </trkpt>
      <trkpt lat="45.72196" lon="2.9521">
        <ele>1029</ele>
        <time>2014-08-22T09:25:24Z</time>
      </trkpt>
      <trkpt lat="45.72206" lon="2.95211">
        <ele>1029</ele>
        <time>2014-08-22T09:25:27Z</time>
      </trkpt>
      <trkpt lat="45.72212" lon="2.9521">
        <ele>1029</ele>
        <time>2014-08-22T09:25:29Z</time>
      </trkpt>
      <trkpt lat="45.72221" lon="2.95209">
        <ele>1029</ele>
        <time>2014-08-22T09:25:32Z</time>
      </trkpt>
      <trkpt lat="45.72227" lon="2.95209">
        <ele>1029</ele>
        <time>2014-08-22T09:25:34Z</time>
      </trkpt>
      <trkpt lat="45.72233" lon="2.95209">
        <ele>1029</ele>
        <time>2014-08-22T09:25:37Z</time>
      </trkpt>
      <trkpt lat="45.72236" lon="2.9521">
        <ele>1029</ele>
        <time>2014-08-22T09:25:40Z</time>
      </trkpt>
      <trkpt lat="45.72239" lon="2.95215">
        <ele>1031</ele>
        <time>2014-08-22T09:25:42Z</time>
      </trkpt>
      <trkpt lat="45.7224" lon="2.95215">
        <ele>1031</ele>
        <time>2014-08-22T09:25:44Z</time>
      </trkpt>
      <trkpt lat="45.72246" lon="2.95217">
        <ele>1031</ele>
        <time>2014-08-22T09:25:47Z</time>
      </trkpt>
      <trkpt lat="45.72251" lon="2.95217">
        <ele>1031</ele>
        <time>2014-08-22T09:25:49Z</time>
      </trkpt>
      <trkpt lat="45.72262" lon="2.95219">
        <ele>1031</ele>
        <time>2014-08-22T09:25:52Z</time>
      </trkpt>
      <trkpt lat="45.7227" lon="2.95221">
        <ele>1031</ele>
        <time>2014-08-22T09:25:54Z</time>
      </trkpt>
      <trkpt lat="45.72278" lon="2.95223">
        <ele>1032</ele>
        <time>2014-08-22T09:25:56Z</time>
      </trkpt>
      <trkpt lat="45.72291" lon="2.95228">
        <ele>1033</ele>
        <time>2014-08-22T09:25:59Z</time>
      </trkpt>
      <trkpt lat="45.72298" lon="2.95232">
        <ele>1034</ele>
        <time>2014-08-22T09:26:01Z</time>
      </trkpt>
      <trkpt lat="45.72306" lon="2.95235">
        <ele>1034</ele>
        <time>2014-08-22T09:26:03Z</time>
      </trkpt>
      <trkpt lat="45.72318" lon="2.95241">
        <ele>1035</ele>
        <time>2014-08-22T09:26:06Z</time>
      </trkpt>
      <trkpt lat="45.72327" lon="2.95246">
        <ele>1035</ele>
        <time>2014-08-22T09:26:08Z</time>
      </trkpt>
      <trkpt lat="45.72337" lon="2.9525">
        <ele>1036</ele>
        <time>2014-08-22T09:26:10Z</time>
      </trkpt>
      <trkpt lat="45.72351" lon="2.95257">
        <ele>1036</ele>
        <time>2014-08-22T09:26:13Z</time>
      </trkpt>
      <trkpt lat="45.7236" lon="2.95261">
        <ele>1036</ele>
        <time>2014-08-22T09:26:15Z</time>
      </trkpt>
      <trkpt lat="45.72369" lon="2.95265">
        <ele>1036</ele>
        <time>2014-08-22T09:26:17Z</time>
      </trkpt>
      <trkpt lat="45.72385" lon="2.95274">
        <ele>1036</ele>
        <time>2014-08-22T09:26:20Z</time>
      </trkpt>
      <trkpt lat="45.72397" lon="2.95281">
        <ele>1037</ele>
        <time>2014-08-22T09:26:22Z</time>
      </trkpt>
      <trkpt lat="45.72408" lon="2.9529">
        <ele>1036</ele>
        <time>2014-08-22T09:26:24Z</time>
      </trkpt>
      <trkpt lat="45.72427" lon="2.95303">
        <ele>1035</ele>
        <time>2014-08-22T09:26:27Z</time>
      </trkpt>
      <trkpt lat="45.7244" lon="2.9531">
        <ele>1035</ele>
        <time>2014-08-22T09:26:29Z</time>
      </trkpt>
      <trkpt lat="45.72454" lon="2.95317">
        <ele>1035</ele>
        <time>2014-08-22T09:26:31Z</time>
      </trkpt>
      <trkpt lat="45.72475" lon="2.95325">
        <ele>1036</ele>
        <time>2014-08-22T09:26:34Z</time>
      </trkpt>
      <trkpt lat="45.72489" lon="2.9533">
        <ele>1035</ele>
        <time>2014-08-22T09:26:36Z</time>
      </trkpt>
      <trkpt lat="45.72502" lon="2.95332">
        <ele>1035</ele>
        <time>2014-08-22T09:26:38Z</time>
      </trkpt>
      <trkpt lat="45.72515" lon="2.95333">
        <ele>1035</ele>
        <time>2014-08-22T09:26:40Z</time>
      </trkpt>
      <trkpt lat="45.72527" lon="2.95333">
        <ele>1035</ele>
        <time>2014-08-22T09:26:42Z</time>
      </trkpt>
      <trkpt lat="45.72544" lon="2.95331">
        <ele>1036</ele>
        <time>2014-08-22T09:26:45Z</time>
      </trkpt>
      <trkpt lat="45.72556" lon="2.95329">
        <ele>1037</ele>
        <time>2014-08-22T09:26:47Z</time>
      </trkpt>
      <trkpt lat="45.7257" lon="2.95327">
        <ele>1039</ele>
        <time>2014-08-22T09:26:50Z</time>
      </trkpt>
      <trkpt lat="45.72583" lon="2.95325">
        <ele>1040</ele>
        <time>2014-08-22T09:26:53Z</time>
      </trkpt>
      <trkpt lat="45.72592" lon="2.95323">
        <ele>1041</ele>
        <time>2014-08-22T09:26:55Z</time>
      </trkpt>
      <trkpt lat="45.72606" lon="2.9532">
        <ele>1042</ele>
        <time>2014-08-22T09:26:58Z</time>
      </trkpt>
      <trkpt lat="45.72615" lon="2.95317">
        <ele>1043</ele>
        <time>2014-08-22T09:27:00Z</time>
      </trkpt>
      <trkpt lat="45.72629" lon="2.95313">
        <ele>1043</ele>
        <time>2014-08-22T09:27:03Z</time>
      </trkpt>
      <trkpt lat="45.72642" lon="2.95308">
        <ele>1044</ele>
        <time>2014-08-22T09:27:06Z</time>
      </trkpt>
      <trkpt lat="45.72655" lon="2.95303">
        <ele>1045</ele>
        <time>2014-08-22T09:27:09Z</time>
      </trkpt>
      <trkpt lat="45.72668" lon="2.95299">
        <ele>1045</ele>
        <time>2014-08-22T09:27:12Z</time>
      </trkpt>
      <trkpt lat="45.7268" lon="2.95294">
        <ele>1045</ele>
        <time>2014-08-22T09:27:15Z</time>
      </trkpt>
      <trkpt lat="45.72688" lon="2.95291">
        <ele>1045</ele>
        <time>2014-08-22T09:27:17Z</time>
      </trkpt>
      <trkpt lat="45.72701" lon="2.95287">
        <ele>1046</ele>
        <time>2014-08-22T09:27:20Z</time>
      </trkpt>
      <trkpt lat="45.7271" lon="2.95284">
        <ele>1046</ele>
        <time>2014-08-22T09:27:22Z</time>
      </trkpt>
      <trkpt lat="45.72723" lon="2.95278">
        <ele>1047</ele>
        <time>2014-08-22T09:27:25Z</time>
      </trkpt>
      <trkpt lat="45.72733" lon="2.95274">
        <ele>1047</ele>
        <time>2014-08-22T09:27:27Z</time>
      </trkpt>
      <trkpt lat="45.72747" lon="2.95268">
        <ele>1047</ele>
        <time>2014-08-22T09:27:30Z</time>
      </trkpt>
      <trkpt lat="45.7276" lon="2.95262">
        <ele>1048</ele>
        <time>2014-08-22T09:27:33Z</time>
      </trkpt>
      <trkpt lat="45.72774" lon="2.9526">
        <ele>1048</ele>
        <time>2014-08-22T09:27:36Z</time>
      </trkpt>
      <trkpt lat="45.72786" lon="2.9526">
        <ele>1048</ele>
        <time>2014-08-22T09:27:38Z</time>
      </trkpt>
      <trkpt lat="45.72798" lon="2.95261">
        <ele>1047</ele>
        <time>2014-08-22T09:27:40Z</time>
      </trkpt>
      <trkpt lat="45.72816" lon="2.95262">
        <ele>1047</ele>
        <time>2014-08-22T09:27:43Z</time>
      </trkpt>
      <trkpt lat="45.72827" lon="2.95265">
        <ele>1047</ele>
        <time>2014-08-22T09:27:45Z</time>
      </trkpt>
      <trkpt lat="45.72839" lon="2.95267">
        <ele>1047</ele>
        <time>2014-08-22T09:27:47Z</time>
      </trkpt>
      <trkpt lat="45.72852" lon="2.95269">
        <ele>1047</ele>
        <time>2014-08-22T09:27:49Z</time>
      </trkpt>
      <trkpt lat="45.72864" lon="2.95273">
        <ele>1047</ele>
        <time>2014-08-22T09:27:51Z</time>
      </trkpt>
      <trkpt lat="45.72884" lon="2.9528">
        <ele>1047</ele>
        <time>2014-08-22T09:27:54Z</time>
      </trkpt>
      <trkpt lat="45.72897" lon="2.95285">
        <ele>1047</ele>
        <time>2014-08-22T09:27:56Z</time>
      </trkpt>
      <trkpt lat="45.7291" lon="2.95289">
        <ele>1047</ele>
        <time>2014-08-22T09:27:58Z</time>
      </trkpt>
      <trkpt lat="45.72929" lon="2.95297">
        <ele>1047</ele>
        <time>2014-08-22T09:28:01Z</time>
      </trkpt>
      <trkpt lat="45.72941" lon="2.95303">
        <ele>1047</ele>
        <time>2014-08-22T09:28:03Z</time>
      </trkpt>
      <trkpt lat="45.72952" lon="2.95309">
        <ele>1047</ele>
        <time>2014-08-22T09:28:05Z</time>
      </trkpt>
      <trkpt lat="45.72965" lon="2.95315">
        <ele>1047</ele>
        <time>2014-08-22T09:28:07Z</time>
      </trkpt>
      <trkpt lat="45.72983" lon="2.95326">
        <ele>1047</ele>
        <time>2014-08-22T09:28:10Z</time>
      </trkpt>
      <trkpt lat="45.72995" lon="2.95336">
        <ele>1047</ele>
        <time>2014-08-22T09:28:12Z</time>
      </trkpt>
      <trkpt lat="45.73006" lon="2.95346">
        <ele>1048</ele>
        <time>2014-08-22T09:28:14Z</time>
      </trkpt>
      <trkpt lat="45.73018" lon="2.95355">
        <ele>1047</ele>
        <time>2014-08-22T09:28:16Z</time>
      </trkpt>
      <trkpt lat="45.73031" lon="2.95361">
        <ele>1048</ele>
        <time>2014-08-22T09:28:18Z</time>
      </trkpt>
      <trkpt lat="45.73043" lon="2.95368">
        <ele>1047</ele>
        <time>2014-08-22T09:28:20Z</time>
      </trkpt>
      <trkpt lat="45.7306" lon="2.95378">
        <ele>1047</ele>
        <time>2014-08-22T09:28:23Z</time>
      </trkpt>
      <trkpt lat="45.7307" lon="2.95386">
        <ele>1047</ele>
        <time>2014-08-22T09:28:25Z</time>
      </trkpt>
      <trkpt lat="45.73078" lon="2.95394">
        <ele>1046</ele>
        <time>2014-08-22T09:28:27Z</time>
      </trkpt>
      <trkpt lat="45.73085" lon="2.95405">
        <ele>1046</ele>
        <time>2014-08-22T09:28:29Z</time>
      </trkpt>
      <trkpt lat="45.73096" lon="2.95426">
        <ele>1046</ele>
        <time>2014-08-22T09:28:32Z</time>
      </trkpt>
      <trkpt lat="45.73107" lon="2.95448">
        <ele>1045</ele>
        <time>2014-08-22T09:28:35Z</time>
      </trkpt>
      <trkpt lat="45.73119" lon="2.95472">
        <ele>1045</ele>
        <time>2014-08-22T09:28:38Z</time>
      </trkpt>
      <trkpt lat="45.7313" lon="2.95498">
        <ele>1044</ele>
        <time>2014-08-22T09:28:41Z</time>
      </trkpt>
      <trkpt lat="45.73138" lon="2.95516">
        <ele>1043</ele>
        <time>2014-08-22T09:28:43Z</time>
      </trkpt>
      <trkpt lat="45.73146" lon="2.95533">
        <ele>1043</ele>
        <time>2014-08-22T09:28:45Z</time>
      </trkpt>
      <trkpt lat="45.73158" lon="2.95565">
        <ele>1042</ele>
        <time>2014-08-22T09:28:48Z</time>
      </trkpt>
      <trkpt lat="45.73167" lon="2.9559">
        <ele>1041</ele>
        <time>2014-08-22T09:28:50Z</time>
      </trkpt>
      <trkpt lat="45.73178" lon="2.95614">
        <ele>1039</ele>
        <time>2014-08-22T09:28:52Z</time>
      </trkpt>
      <trkpt lat="45.7319" lon="2.95636">
        <ele>1037</ele>
        <time>2014-08-22T09:28:54Z</time>
      </trkpt>
      <trkpt lat="45.7321" lon="2.95665">
        <ele>1036</ele>
        <time>2014-08-22T09:28:57Z</time>
      </trkpt>
      <trkpt lat="45.73223" lon="2.95684">
        <ele>1035</ele>
        <time>2014-08-22T09:28:59Z</time>
      </trkpt>
      <trkpt lat="45.73237" lon="2.95704">
        <ele>1035</ele>
        <time>2014-08-22T09:29:01Z</time>
      </trkpt>
      <trkpt lat="45.7326" lon="2.95734">
        <ele>1033</ele>
        <time>2014-08-22T09:29:04Z</time>
      </trkpt>
      <trkpt lat="45.73277" lon="2.95753">
        <ele>1031</ele>
        <time>2014-08-22T09:29:06Z</time>
      </trkpt>
      <trkpt lat="45.73301" lon="2.95778">
        <ele>1029</ele>
        <time>2014-08-22T09:29:09Z</time>
      </trkpt>
      <trkpt lat="45.73318" lon="2.95795">
        <ele>1028</ele>
        <time>2014-08-22T09:29:11Z</time>
      </trkpt>
      <trkpt lat="45.73337" lon="2.95811">
        <ele>1027</ele>
        <time>2014-08-22T09:29:13Z</time>
      </trkpt>
      <trkpt lat="45.73364" lon="2.95833">
        <ele>1025</ele>
        <time>2014-08-22T09:29:16Z</time>
      </trkpt>
      <trkpt lat="45.73385" lon="2.95844">
        <ele>1023</ele>
        <time>2014-08-22T09:29:18Z</time>
      </trkpt>
      <trkpt lat="45.73417" lon="2.95854">
        <ele>1023</ele>
        <time>2014-08-22T09:29:21Z</time>
      </trkpt>
      <trkpt lat="45.73437" lon="2.95858">
        <ele>1023</ele>
        <time>2014-08-22T09:29:23Z</time>
      </trkpt>
      <trkpt lat="45.73456" lon="2.9586">
        <ele>1024</ele>
        <time>2014-08-22T09:29:25Z</time>
      </trkpt>
      <trkpt lat="45.73482" lon="2.95865">
        <ele>1025</ele>
        <time>2014-08-22T09:29:28Z</time>
      </trkpt>
      <trkpt lat="45.73506" lon="2.95867">
        <ele>1026</ele>
        <time>2014-08-22T09:29:31Z</time>
      </trkpt>
      <trkpt lat="45.73521" lon="2.95867">
        <ele>1026</ele>
        <time>2014-08-22T09:29:33Z</time>
      </trkpt>
      <trkpt lat="45.73535" lon="2.95867">
        <ele>1026</ele>
        <time>2014-08-22T09:29:35Z</time>
      </trkpt>
      <trkpt lat="45.73555" lon="2.95867">
        <ele>1026</ele>
        <time>2014-08-22T09:29:38Z</time>
      </trkpt>
      <trkpt lat="45.73576" lon="2.95865">
        <ele>1025</ele>
        <time>2014-08-22T09:29:41Z</time>
      </trkpt>
      <trkpt lat="45.7359" lon="2.95863">
        <ele>1025</ele>
        <time>2014-08-22T09:29:43Z</time>
      </trkpt>
      <trkpt lat="45.73609" lon="2.95861">
        <ele>1026</ele>
        <time>2014-08-22T09:29:46Z</time>
      </trkpt>
      <trkpt lat="45.73621" lon="2.95859">
        <ele>1027</ele>
        <time>2014-08-22T09:29:48Z</time>
      </trkpt>
      <trkpt lat="45.73632" lon="2.95857">
        <ele>1027</ele>
        <time>2014-08-22T09:29:50Z</time>
      </trkpt>
      <trkpt lat="45.73648" lon="2.95854">
        <ele>1028</ele>
        <time>2014-08-22T09:29:53Z</time>
      </trkpt>
      <trkpt lat="45.73658" lon="2.95851">
        <ele>1028</ele>
        <time>2014-08-22T09:29:55Z</time>
      </trkpt>
      <trkpt lat="45.73669" lon="2.95849">
        <ele>1029</ele>
        <time>2014-08-22T09:29:57Z</time>
      </trkpt>
      <trkpt lat="45.7368" lon="2.95846">
        <ele>1029</ele>
        <time>2014-08-22T09:29:59Z</time>
      </trkpt>
      <trkpt lat="45.73691" lon="2.95843">
        <ele>1029</ele>
        <time>2014-08-22T09:30:01Z</time>
      </trkpt>
      <trkpt lat="45.73703" lon="2.9584">
        <ele>1029</ele>
        <time>2014-08-22T09:30:03Z</time>
      </trkpt>
      <trkpt lat="45.73722" lon="2.95834">
        <ele>1029</ele>
        <time>2014-08-22T09:30:06Z</time>
      </trkpt>
      <trkpt lat="45.73734" lon="2.9583">
        <ele>1029</ele>
        <time>2014-08-22T09:30:08Z</time>
      </trkpt>
      <trkpt lat="45.73745" lon="2.95826">
        <ele>1029</ele>
        <time>2014-08-22T09:30:10Z</time>
      </trkpt>
      <trkpt lat="45.73756" lon="2.95823">
        <ele>1029</ele>
        <time>2014-08-22T09:30:12Z</time>
      </trkpt>
      <trkpt lat="45.73772" lon="2.95816">
        <ele>1029</ele>
        <time>2014-08-22T09:30:15Z</time>
      </trkpt>
      <trkpt lat="45.73782" lon="2.95812">
        <ele>1030</ele>
        <time>2014-08-22T09:30:17Z</time>
      </trkpt>
      <trkpt lat="45.73792" lon="2.95807">
        <ele>1030</ele>
        <time>2014-08-22T09:30:19Z</time>
      </trkpt>
      <trkpt lat="45.73801" lon="2.95802">
        <ele>1031</ele>
        <time>2014-08-22T09:30:21Z</time>
      </trkpt>
      <trkpt lat="45.73815" lon="2.95793">
        <ele>1031</ele>
        <time>2014-08-22T09:30:24Z</time>
      </trkpt>
      <trkpt lat="45.73823" lon="2.95786">
        <ele>1031</ele>
        <time>2014-08-22T09:30:26Z</time>
      </trkpt>
      <trkpt lat="45.73832" lon="2.9578">
        <ele>1032</ele>
        <time>2014-08-22T09:30:28Z</time>
      </trkpt>
      <trkpt lat="45.7384" lon="2.95774">
        <ele>1032</ele>
        <time>2014-08-22T09:30:30Z</time>
      </trkpt>
      <trkpt lat="45.73847" lon="2.95769">
        <ele>1033</ele>
        <time>2014-08-22T09:30:32Z</time>
      </trkpt>
      <trkpt lat="45.73855" lon="2.95762">
        <ele>1033</ele>
        <time>2014-08-22T09:30:34Z</time>
      </trkpt>
      <trkpt lat="45.73862" lon="2.95755">
        <ele>1034</ele>
        <time>2014-08-22T09:30:36Z</time>
      </trkpt>
      <trkpt lat="45.73872" lon="2.95743">
        <ele>1034</ele>
        <time>2014-08-22T09:30:39Z</time>
      </trkpt>
      <trkpt lat="45.73878" lon="2.95736">
        <ele>1035</ele>
        <time>2014-08-22T09:30:41Z</time>
      </trkpt>
      <trkpt lat="45.73886" lon="2.95726">
        <ele>1036</ele>
        <time>2014-08-22T09:30:44Z</time>
      </trkpt>
      <trkpt lat="45.73891" lon="2.95719">
        <ele>1036</ele>
        <time>2014-08-22T09:30:46Z</time>
      </trkpt>
      <trkpt lat="45.73895" lon="2.95711">
        <ele>1037</ele>
        <time>2014-08-22T09:30:48Z</time>
      </trkpt>
      <trkpt lat="45.73899" lon="2.95703">
        <ele>1038</ele>
        <time>2014-08-22T09:30:50Z</time>
      </trkpt>
      <trkpt lat="45.73906" lon="2.9569">
        <ele>1038</ele>
        <time>2014-08-22T09:30:53Z</time>
      </trkpt>
      <trkpt lat="45.73909" lon="2.95682">
        <ele>1038</ele>
        <time>2014-08-22T09:30:55Z</time>
      </trkpt>
      <trkpt lat="45.73914" lon="2.95674">
        <ele>1039</ele>
        <time>2014-08-22T09:30:57Z</time>
      </trkpt>
      <trkpt lat="45.7392" lon="2.95661">
        <ele>1040</ele>
        <time>2014-08-22T09:31:00Z</time>
      </trkpt>
      <trkpt lat="45.73923" lon="2.95654">
        <ele>1041</ele>
        <time>2014-08-22T09:31:02Z</time>
      </trkpt>
      <trkpt lat="45.73928" lon="2.95642">
        <ele>1042</ele>
        <time>2014-08-22T09:31:05Z</time>
      </trkpt>
      <trkpt lat="45.7393" lon="2.95633">
        <ele>1043</ele>
        <time>2014-08-22T09:31:07Z</time>
      </trkpt>
      <trkpt lat="45.73934" lon="2.95624">
        <ele>1043</ele>
        <time>2014-08-22T09:31:09Z</time>
      </trkpt>
      <trkpt lat="45.73938" lon="2.95609">
        <ele>1044</ele>
        <time>2014-08-22T09:31:12Z</time>
      </trkpt>
      <trkpt lat="45.73942" lon="2.95599">
        <ele>1044</ele>
        <time>2014-08-22T09:31:14Z</time>
      </trkpt>
      <trkpt lat="45.73945" lon="2.95588">
        <ele>1044</ele>
        <time>2014-08-22T09:31:16Z</time>
      </trkpt>
      <trkpt lat="45.73953" lon="2.95571">
        <ele>1044</ele>
        <time>2014-08-22T09:31:19Z</time>
      </trkpt>
      <trkpt lat="45.7396" lon="2.95559">
        <ele>1043</ele>
        <time>2014-08-22T09:31:21Z</time>
      </trkpt>
      <trkpt lat="45.73969" lon="2.95545">
        <ele>1043</ele>
        <time>2014-08-22T09:31:23Z</time>
      </trkpt>
      <trkpt lat="45.73982" lon="2.95516">
        <ele>1041</ele>
        <time>2014-08-22T09:31:26Z</time>
      </trkpt>
      <trkpt lat="45.73995" lon="2.9548">
        <ele>1039</ele>
        <time>2014-08-22T09:31:29Z</time>
      </trkpt>
      <trkpt lat="45.74004" lon="2.95455">
        <ele>1037</ele>
        <time>2014-08-22T09:31:31Z</time>
      </trkpt>
      <trkpt lat="45.74016" lon="2.95414">
        <ele>1036</ele>
        <time>2014-08-22T09:31:34Z</time>
      </trkpt>
      <trkpt lat="45.74024" lon="2.95385">
        <ele>1034</ele>
        <time>2014-08-22T09:31:36Z</time>
      </trkpt>
      <trkpt lat="45.7403" lon="2.95353">
        <ele>1032</ele>
        <time>2014-08-22T09:31:38Z</time>
      </trkpt>
      <trkpt lat="45.74036" lon="2.9532">
        <ele>1030</ele>
        <time>2014-08-22T09:31:40Z</time>
      </trkpt>
      <trkpt lat="45.74041" lon="2.95286">
        <ele>1028</ele>
        <time>2014-08-22T09:31:42Z</time>
      </trkpt>
      <trkpt lat="45.74046" lon="2.95233">
        <ele>1025</ele>
        <time>2014-08-22T09:31:45Z</time>
      </trkpt>
      <trkpt lat="45.7405" lon="2.95197">
        <ele>1023</ele>
        <time>2014-08-22T09:31:47Z</time>
      </trkpt>
      <trkpt lat="45.74058" lon="2.95143">
        <ele>1019</ele>
        <time>2014-08-22T09:31:50Z</time>
      </trkpt>
      <trkpt lat="45.74068" lon="2.95096">
        <ele>1015</ele>
        <time>2014-08-22T09:31:53Z</time>
      </trkpt>
      <trkpt lat="45.74081" lon="2.95068">
        <ele>1013</ele>
        <time>2014-08-22T09:31:55Z</time>
      </trkpt>
      <trkpt lat="45.74094" lon="2.95046">
        <ele>1010</ele>
        <time>2014-08-22T09:31:57Z</time>
      </trkpt>
      <trkpt lat="45.74106" lon="2.95024">
        <ele>1005</ele>
        <time>2014-08-22T09:32:00Z</time>
      </trkpt>
      <trkpt lat="45.74107" lon="2.95019">
        <ele>1003</ele>
        <time>2014-08-22T09:32:02Z</time>
      </trkpt>
      <trkpt lat="45.74108" lon="2.95016">
        <ele>1002</ele>
        <time>2014-08-22T09:32:05Z</time>
      </trkpt>
      <trkpt lat="45.74108" lon="2.95015">
        <ele>1002</ele>
        <time>2014-08-22T09:32:07Z</time>
      </trkpt>
      <trkpt lat="45.7411" lon="2.95011">
        <ele>1002</ele>
        <time>2014-08-22T09:32:10Z</time>
      </trkpt>
      <trkpt lat="45.74111" lon="2.95009">
        <ele>1003</ele>
        <time>2014-08-22T09:32:12Z</time>
      </trkpt>
      <trkpt lat="45.74114" lon="2.95005">
        <ele>1002</ele>
        <time>2014-08-22T09:32:15Z</time>
      </trkpt>
      <trkpt lat="45.74119" lon="2.95001">
        <ele>1002</ele>
        <time>2014-08-22T09:32:17Z</time>
      </trkpt>
      <trkpt lat="45.74124" lon="2.94993">
        <ele>1001</ele>
        <time>2014-08-22T09:32:19Z</time>
      </trkpt>
      <trkpt lat="45.74129" lon="2.94975">
        <ele>1001</ele>
        <time>2014-08-22T09:32:22Z</time>
      </trkpt>
      <trkpt lat="45.74131" lon="2.94963">
        <ele>1001</ele>
        <time>2014-08-22T09:32:24Z</time>
      </trkpt>
      <trkpt lat="45.74133" lon="2.94951">
        <ele>1001</ele>
        <time>2014-08-22T09:32:26Z</time>
      </trkpt>
      <trkpt lat="45.74135" lon="2.94935">
        <ele>1002</ele>
        <time>2014-08-22T09:32:29Z</time>
      </trkpt>
      <trkpt lat="45.74136" lon="2.94925">
        <ele>1001</ele>
        <time>2014-08-22T09:32:31Z</time>
      </trkpt>
      <trkpt lat="45.74138" lon="2.94916">
        <ele>1001</ele>
        <time>2014-08-22T09:32:33Z</time>
      </trkpt>
      <trkpt lat="45.74142" lon="2.94903">
        <ele>1001</ele>
        <time>2014-08-22T09:32:36Z</time>
      </trkpt>
      <trkpt lat="45.74147" lon="2.94894">
        <ele>1001</ele>
        <time>2014-08-22T09:32:39Z</time>
      </trkpt>
      <trkpt lat="45.74151" lon="2.9489">
        <ele>1000</ele>
        <time>2014-08-22T09:32:41Z</time>
      </trkpt>
      <trkpt lat="45.74155" lon="2.94883">
        <ele>1000</ele>
        <time>2014-08-22T09:32:43Z</time>
      </trkpt>
      <trkpt lat="45.74157" lon="2.94867">
        <ele>1000</ele>
        <time>2014-08-22T09:32:46Z</time>
      </trkpt>
      <trkpt lat="45.74157" lon="2.94847">
        <ele>1001</ele>
        <time>2014-08-22T09:32:49Z</time>
      </trkpt>
      <trkpt lat="45.74155" lon="2.94834">
        <ele>1001</ele>
        <time>2014-08-22T09:32:51Z</time>
      </trkpt>
      <trkpt lat="45.74152" lon="2.94814">
        <ele>1001</ele>
        <time>2014-08-22T09:32:54Z</time>
      </trkpt>
      <trkpt lat="45.74149" lon="2.94793">
        <ele>1001</ele>
        <time>2014-08-22T09:32:57Z</time>
      </trkpt>
      <trkpt lat="45.74147" lon="2.94779">
        <ele>1001</ele>
        <time>2014-08-22T09:32:59Z</time>
      </trkpt>
      <trkpt lat="45.74143" lon="2.94756">
        <ele>1001</ele>
        <time>2014-08-22T09:33:02Z</time>
      </trkpt>
      <trkpt lat="45.74139" lon="2.9473">
        <ele>1000</ele>
        <time>2014-08-22T09:33:05Z</time>
      </trkpt>
      <trkpt lat="45.74136" lon="2.94713">
        <ele>1000</ele>
        <time>2014-08-22T09:33:07Z</time>
      </trkpt>
      <trkpt lat="45.74133" lon="2.94695">
        <ele>1000</ele>
        <time>2014-08-22T09:33:09Z</time>
      </trkpt>
      <trkpt lat="45.74129" lon="2.94668">
        <ele>1000</ele>
        <time>2014-08-22T09:33:12Z</time>
      </trkpt>
      <trkpt lat="45.74127" lon="2.9465">
        <ele>999</ele>
        <time>2014-08-22T09:33:14Z</time>
      </trkpt>
      <trkpt lat="45.74124" lon="2.9463">
        <ele>999</ele>
        <time>2014-08-22T09:33:16Z</time>
      </trkpt>
      <trkpt lat="45.7412" lon="2.946">
        <ele>998</ele>
        <time>2014-08-22T09:33:19Z</time>
      </trkpt>
      <trkpt lat="45.74116" lon="2.94579">
        <ele>997</ele>
        <time>2014-08-22T09:33:21Z</time>
      </trkpt>
      <trkpt lat="45.74118" lon="2.94548">
        <ele>997</ele>
        <time>2014-08-22T09:33:24Z</time>
      </trkpt>
      <trkpt lat="45.7413" lon="2.94536">
        <ele>997</ele>
        <time>2014-08-22T09:33:26Z</time>
      </trkpt>
      <trkpt lat="45.74152" lon="2.94546">
        <ele>996</ele>
        <time>2014-08-22T09:33:29Z</time>
      </trkpt>
      <trkpt lat="45.74158" lon="2.94565">
        <ele>995</ele>
        <time>2014-08-22T09:33:31Z</time>
      </trkpt>
      <trkpt lat="45.74156" lon="2.94587">
        <ele>994</ele>
        <time>2014-08-22T09:33:33Z</time>
      </trkpt>
      <trkpt lat="45.74152" lon="2.94609">
        <ele>993</ele>
        <time>2014-08-22T09:33:35Z</time>
      </trkpt>
      <trkpt lat="45.74159" lon="2.94639">
        <ele>993</ele>
        <time>2014-08-22T09:33:38Z</time>
      </trkpt>
      <trkpt lat="45.74179" lon="2.94639">
        <ele>993</ele>
        <time>2014-08-22T09:33:41Z</time>
      </trkpt>
      <trkpt lat="45.74188" lon="2.94622">
        <ele>993</ele>
        <time>2014-08-22T09:33:43Z</time>
      </trkpt>
      <trkpt lat="45.74193" lon="2.946">
        <ele>992</ele>
        <time>2014-08-22T09:33:45Z</time>
      </trkpt>
      <trkpt lat="45.74199" lon="2.94563">
        <ele>992</ele>
        <time>2014-08-22T09:33:48Z</time>
      </trkpt>
      <trkpt lat="45.74209" lon="2.94524">
        <ele>990</ele>
        <time>2014-08-22T09:33:51Z</time>
      </trkpt>
      <trkpt lat="45.74217" lon="2.94498">
        <ele>989</ele>
        <time>2014-08-22T09:33:53Z</time>
      </trkpt>
      <trkpt lat="45.74232" lon="2.94462">
        <ele>987</ele>
        <time>2014-08-22T09:33:56Z</time>
      </trkpt>
      <trkpt lat="45.74243" lon="2.94439">
        <ele>984</ele>
        <time>2014-08-22T09:33:58Z</time>
      </trkpt>
      <trkpt lat="45.74257" lon="2.94416">
        <ele>982</ele>
        <time>2014-08-22T09:34:00Z</time>
      </trkpt>
      <trkpt lat="45.74279" lon="2.94378">
        <ele>981</ele>
        <time>2014-08-22T09:34:03Z</time>
      </trkpt>
      <trkpt lat="45.74294" lon="2.94352">
        <ele>979</ele>
        <time>2014-08-22T09:34:05Z</time>
      </trkpt>
      <trkpt lat="45.74316" lon="2.94311">
        <ele>977</ele>
        <time>2014-08-22T09:34:08Z</time>
      </trkpt>
      <trkpt lat="45.74332" lon="2.94283">
        <ele>975</ele>
        <time>2014-08-22T09:34:10Z</time>
      </trkpt>
      <trkpt lat="45.74348" lon="2.94257">
        <ele>973</ele>
        <time>2014-08-22T09:34:12Z</time>
      </trkpt>
      <trkpt lat="45.74371" lon="2.94216">
        <ele>971</ele>
        <time>2014-08-22T09:34:15Z</time>
      </trkpt>
      <trkpt lat="45.74386" lon="2.94189">
        <ele>969</ele>
        <time>2014-08-22T09:34:17Z</time>
      </trkpt>
      <trkpt lat="45.744" lon="2.94163">
        <ele>967</ele>
        <time>2014-08-22T09:34:19Z</time>
      </trkpt>
      <trkpt lat="45.74423" lon="2.94126">
        <ele>965</ele>
        <time>2014-08-22T09:34:22Z</time>
      </trkpt>
      <trkpt lat="45.74438" lon="2.941">
        <ele>963</ele>
        <time>2014-08-22T09:34:24Z</time>
      </trkpt>
      <trkpt lat="45.7446" lon="2.94063">
        <ele>961</ele>
        <time>2014-08-22T09:34:27Z</time>
      </trkpt>
      <trkpt lat="45.74479" lon="2.94025">
        <ele>958</ele>
        <time>2014-08-22T09:34:30Z</time>
      </trkpt>
      <trkpt lat="45.745" lon="2.93989">
        <ele>956</ele>
        <time>2014-08-22T09:34:33Z</time>
      </trkpt>
      <trkpt lat="45.74514" lon="2.93968">
        <ele>954</ele>
        <time>2014-08-22T09:34:35Z</time>
      </trkpt>
      <trkpt lat="45.7453" lon="2.93949">
        <ele>953</ele>
        <time>2014-08-22T09:34:37Z</time>
      </trkpt>
      <trkpt lat="45.74554" lon="2.93932">
        <ele>951</ele>
        <time>2014-08-22T09:34:40Z</time>
      </trkpt>
      <trkpt lat="45.7458" lon="2.93919">
        <ele>949</ele>
        <time>2014-08-22T09:34:43Z</time>
      </trkpt>
      <trkpt lat="45.74597" lon="2.93912">
        <ele>948</ele>
        <time>2014-08-22T09:34:45Z</time>
      </trkpt>
      <trkpt lat="45.74623" lon="2.93901">
        <ele>947</ele>
        <time>2014-08-22T09:34:48Z</time>
      </trkpt>
      <trkpt lat="45.74653" lon="2.93887">
        <ele>946</ele>
        <time>2014-08-22T09:34:51Z</time>
      </trkpt>
      <trkpt lat="45.74682" lon="2.93877">
        <ele>945</ele>
        <time>2014-08-22T09:34:54Z</time>
      </trkpt>
      <trkpt lat="45.74703" lon="2.93869">
        <ele>944</ele>
        <time>2014-08-22T09:34:56Z</time>
      </trkpt>
      <trkpt lat="45.74733" lon="2.93859">
        <ele>942</ele>
        <time>2014-08-22T09:34:59Z</time>
      </trkpt>
      <trkpt lat="45.74753" lon="2.93852">
        <ele>941</ele>
        <time>2014-08-22T09:35:01Z</time>
      </trkpt>
      <trkpt lat="45.74772" lon="2.93846">
        <ele>940</ele>
        <time>2014-08-22T09:35:03Z</time>
      </trkpt>
      <trkpt lat="45.748" lon="2.93837">
        <ele>939</ele>
        <time>2014-08-22T09:35:06Z</time>
      </trkpt>
      <trkpt lat="45.74821" lon="2.9383">
        <ele>938</ele>
        <time>2014-08-22T09:35:08Z</time>
      </trkpt>
      <trkpt lat="45.74841" lon="2.93825">
        <ele>937</ele>
        <time>2014-08-22T09:35:10Z</time>
      </trkpt>
      <trkpt lat="45.74863" lon="2.93817">
        <ele>936</ele>
        <time>2014-08-22T09:35:12Z</time>
      </trkpt>
      <trkpt lat="45.74886" lon="2.9381">
        <ele>935</ele>
        <time>2014-08-22T09:35:14Z</time>
      </trkpt>
      <trkpt lat="45.7491" lon="2.93803">
        <ele>934</ele>
        <time>2014-08-22T09:35:16Z</time>
      </trkpt>
      <trkpt lat="45.74933" lon="2.93796">
        <ele>933</ele>
        <time>2014-08-22T09:35:18Z</time>
      </trkpt>
      <trkpt lat="45.74966" lon="2.93785">
        <ele>931</ele>
        <time>2014-08-22T09:35:21Z</time>
      </trkpt>
      <trkpt lat="45.74988" lon="2.93776">
        <ele>930</ele>
        <time>2014-08-22T09:35:23Z</time>
      </trkpt>
      <trkpt lat="45.75021" lon="2.93763">
        <ele>928</ele>
        <time>2014-08-22T09:35:26Z</time>
      </trkpt>
      <trkpt lat="45.75054" lon="2.93754">
        <ele>926</ele>
        <time>2014-08-22T09:35:29Z</time>
      </trkpt>
      <trkpt lat="45.75076" lon="2.93752">
        <ele>924</ele>
        <time>2014-08-22T09:35:31Z</time>
      </trkpt>
      <trkpt lat="45.75109" lon="2.9375">
        <ele>923</ele>
        <time>2014-08-22T09:35:34Z</time>
      </trkpt>
      <trkpt lat="45.75131" lon="2.9375">
        <ele>922</ele>
        <time>2014-08-22T09:35:36Z</time>
      </trkpt>
      <trkpt lat="45.75161" lon="2.9375">
        <ele>920</ele>
        <time>2014-08-22T09:35:39Z</time>
      </trkpt>
      <trkpt lat="45.75184" lon="2.93732">
        <ele>918</ele>
        <time>2014-08-22T09:35:42Z</time>
      </trkpt>
      <trkpt lat="45.75192" lon="2.93709">
        <ele>917</ele>
        <time>2014-08-22T09:35:44Z</time>
      </trkpt>
      <trkpt lat="45.75198" lon="2.93685">
        <ele>916</ele>
        <time>2014-08-22T09:35:46Z</time>
      </trkpt>
      <trkpt lat="45.75205" lon="2.93658">
        <ele>915</ele>
        <time>2014-08-22T09:35:48Z</time>
      </trkpt>
      <trkpt lat="45.75214" lon="2.93616">
        <ele>913</ele>
        <time>2014-08-22T09:35:51Z</time>
      </trkpt>
      <trkpt lat="45.75221" lon="2.93587">
        <ele>912</ele>
        <time>2014-08-22T09:35:53Z</time>
      </trkpt>
      <trkpt lat="45.75228" lon="2.93559">
        <ele>911</ele>
        <time>2014-08-22T09:35:55Z</time>
      </trkpt>
      <trkpt lat="45.75235" lon="2.93532">
        <ele>911</ele>
        <time>2014-08-22T09:35:57Z</time>
      </trkpt>
      <trkpt lat="45.75245" lon="2.93493">
        <ele>909</ele>
        <time>2014-08-22T09:36:00Z</time>
      </trkpt>
      <trkpt lat="45.75255" lon="2.93457">
        <ele>909</ele>
        <time>2014-08-22T09:36:03Z</time>
      </trkpt>
      <trkpt lat="45.75262" lon="2.93433">
        <ele>908</ele>
        <time>2014-08-22T09:36:05Z</time>
      </trkpt>
      <trkpt lat="45.75269" lon="2.93395">
        <ele>907</ele>
        <time>2014-08-22T09:36:08Z</time>
      </trkpt>
      <trkpt lat="45.75274" lon="2.9337">
        <ele>907</ele>
        <time>2014-08-22T09:36:10Z</time>
      </trkpt>
      <trkpt lat="45.75279" lon="2.93345">
        <ele>906</ele>
        <time>2014-08-22T09:36:12Z</time>
      </trkpt>
      <trkpt lat="45.75284" lon="2.9332">
        <ele>905</ele>
        <time>2014-08-22T09:36:14Z</time>
      </trkpt>
      <trkpt lat="45.75294" lon="2.93286">
        <ele>904</ele>
        <time>2014-08-22T09:36:17Z</time>
      </trkpt>
      <trkpt lat="45.75299" lon="2.93261">
        <ele>903</ele>
        <time>2014-08-22T09:36:19Z</time>
      </trkpt>
      <trkpt lat="45.75305" lon="2.93234">
        <ele>902</ele>
        <time>2014-08-22T09:36:21Z</time>
      </trkpt>
      <trkpt lat="45.7531" lon="2.93207">
        <ele>901</ele>
        <time>2014-08-22T09:36:23Z</time>
      </trkpt>
      <trkpt lat="45.75313" lon="2.9318">
        <ele>900</ele>
        <time>2014-08-22T09:36:25Z</time>
      </trkpt>
      <trkpt lat="45.75312" lon="2.93141">
        <ele>899</ele>
        <time>2014-08-22T09:36:28Z</time>
      </trkpt>
      <trkpt lat="45.75307" lon="2.93103">
        <ele>898</ele>
        <time>2014-08-22T09:36:31Z</time>
      </trkpt>
      <trkpt lat="45.75306" lon="2.93079">
        <ele>897</ele>
        <time>2014-08-22T09:36:33Z</time>
      </trkpt>
      <trkpt lat="45.75307" lon="2.93056">
        <ele>897</ele>
        <time>2014-08-22T09:36:35Z</time>
      </trkpt>
      <trkpt lat="45.75309" lon="2.9303">
        <ele>896</ele>
        <time>2014-08-22T09:36:37Z</time>
      </trkpt>
      <trkpt lat="45.75314" lon="2.93007">
        <ele>896</ele>
        <time>2014-08-22T09:36:39Z</time>
      </trkpt>
      <trkpt lat="45.7532" lon="2.92983">
        <ele>895</ele>
        <time>2014-08-22T09:36:41Z</time>
      </trkpt>
      <trkpt lat="45.75325" lon="2.92961">
        <ele>894</ele>
        <time>2014-08-22T09:36:43Z</time>
      </trkpt>
      <trkpt lat="45.75328" lon="2.9294">
        <ele>893</ele>
        <time>2014-08-22T09:36:45Z</time>
      </trkpt>
      <trkpt lat="45.75328" lon="2.92909">
        <ele>892</ele>
        <time>2014-08-22T09:36:48Z</time>
      </trkpt>
      <trkpt lat="45.75326" lon="2.92899">
        <ele>891</ele>
        <time>2014-08-22T09:36:50Z</time>
      </trkpt>
      <trkpt lat="45.75327" lon="2.92896">
        <ele>890</ele>
        <time>2014-08-22T09:36:53Z</time>
      </trkpt>
      <trkpt lat="45.75324" lon="2.92898">
        <ele>889</ele>
        <time>2014-08-22T09:36:56Z</time>
      </trkpt>
      <trkpt lat="45.75323" lon="2.92902">
        <ele>889</ele>
        <time>2014-08-22T09:36:58Z</time>
      </trkpt>
      <trkpt lat="45.75325" lon="2.92908">
        <ele>890</ele>
        <time>2014-08-22T09:37:01Z</time>
      </trkpt>
      <trkpt lat="45.75324" lon="2.92911">
        <ele>890</ele>
        <time>2014-08-22T09:37:03Z</time>
      </trkpt>
      <trkpt lat="45.75323" lon="2.92914">
        <ele>891</ele>
        <time>2014-08-22T09:37:05Z</time>
      </trkpt>
      <trkpt lat="45.75321" lon="2.92919">
        <ele>891</ele>
        <time>2014-08-22T09:37:08Z</time>
      </trkpt>
      <trkpt lat="45.7532" lon="2.92924">
        <ele>892</ele>
        <time>2014-08-22T09:37:10Z</time>
      </trkpt>
      <trkpt lat="45.75319" lon="2.92931">
        <ele>893</ele>
        <time>2014-08-22T09:37:13Z</time>
      </trkpt>
      <trkpt lat="45.75318" lon="2.92937">
        <ele>893</ele>
        <time>2014-08-22T09:37:16Z</time>
      </trkpt>
      <trkpt lat="45.75319" lon="2.92942">
        <ele>893</ele>
        <time>2014-08-22T09:37:18Z</time>
      </trkpt>
      <trkpt lat="45.75324" lon="2.9295">
        <ele>894</ele>
        <time>2014-08-22T09:37:21Z</time>
      </trkpt>
      <trkpt lat="45.75328" lon="2.92955">
        <ele>895</ele>
        <time>2014-08-22T09:37:23Z</time>
      </trkpt>
      <trkpt lat="45.75332" lon="2.9296">
        <ele>896</ele>
        <time>2014-08-22T09:37:26Z</time>
      </trkpt>
      <trkpt lat="45.75334" lon="2.92963">
        <ele>897</ele>
        <time>2014-08-22T09:37:28Z</time>
      </trkpt>
      <trkpt lat="45.75338" lon="2.92966">
        <ele>897</ele>
        <time>2014-08-22T09:37:31Z</time>
      </trkpt>
      <trkpt lat="45.7534" lon="2.92971">
        <ele>898</ele>
        <time>2014-08-22T09:37:34Z</time>
      </trkpt>
      <trkpt lat="45.75342" lon="2.92975">
        <ele>899</ele>
        <time>2014-08-22T09:37:36Z</time>
      </trkpt>
      <trkpt lat="45.75342" lon="2.92979">
        <ele>900</ele>
        <time>2014-08-22T09:37:38Z</time>
      </trkpt>
      <trkpt lat="45.75343" lon="2.92984">
        <ele>901</ele>
        <time>2014-08-22T09:37:40Z</time>
      </trkpt>
      <trkpt lat="45.75344" lon="2.92987">
        <ele>901</ele>
        <time>2014-08-22T09:37:42Z</time>
      </trkpt>
      <trkpt lat="45.75345" lon="2.9299">
        <ele>902</ele>
        <time>2014-08-22T09:37:44Z</time>
      </trkpt>
      <trkpt lat="45.75346" lon="2.92993">
        <ele>903</ele>
        <time>2014-08-22T09:37:46Z</time>
      </trkpt>
      <trkpt lat="45.75347" lon="2.92999">
        <ele>904</ele>
        <time>2014-08-22T09:37:49Z</time>
      </trkpt>
      <trkpt lat="45.75349" lon="2.93002">
        <ele>904</ele>
        <time>2014-08-22T09:37:51Z</time>
      </trkpt>
      <trkpt lat="45.7535" lon="2.93007">
        <ele>905</ele>
        <time>2014-08-22T09:37:54Z</time>
      </trkpt>
      <trkpt lat="45.75352" lon="2.93013">
        <ele>906</ele>
        <time>2014-08-22T09:37:57Z</time>
      </trkpt>
      <trkpt lat="45.75354" lon="2.93019">
        <ele>907</ele>
        <time>2014-08-22T09:38:00Z</time>
      </trkpt>
      <trkpt lat="45.75357" lon="2.93025">
        <ele>907</ele>
        <time>2014-08-22T09:38:03Z</time>
      </trkpt>
      <trkpt lat="45.75359" lon="2.93031">
        <ele>908</ele>
        <time>2014-08-22T09:38:06Z</time>
      </trkpt>
      <trkpt lat="45.7536" lon="2.93037">
        <ele>908</ele>
        <time>2014-08-22T09:38:08Z</time>
      </trkpt>
      <trkpt lat="45.7536" lon="2.93041">
        <ele>908</ele>
        <time>2014-08-22T09:38:10Z</time>
      </trkpt>
      <trkpt lat="45.75363" lon="2.93048">
        <ele>909</ele>
        <time>2014-08-22T09:38:13Z</time>
      </trkpt>
      <trkpt lat="45.75366" lon="2.93054">
        <ele>909</ele>
        <time>2014-08-22T09:38:15Z</time>
      </trkpt>
      <trkpt lat="45.75368" lon="2.9306">
        <ele>909</ele>
        <time>2014-08-22T09:38:17Z</time>
      </trkpt>
      <trkpt lat="45.7537" lon="2.93067">
        <ele>909</ele>
        <time>2014-08-22T09:38:19Z</time>
      </trkpt>
      <trkpt lat="45.75372" lon="2.93073">
        <ele>909</ele>
        <time>2014-08-22T09:38:21Z</time>
      </trkpt>
      <trkpt lat="45.75375" lon="2.93079">
        <ele>909</ele>
        <time>2014-08-22T09:38:23Z</time>
      </trkpt>
      <trkpt lat="45.7538" lon="2.93086">
        <ele>909</ele>
        <time>2014-08-22T09:38:25Z</time>
      </trkpt>
      <trkpt lat="45.75384" lon="2.93094">
        <ele>910</ele>
        <time>2014-08-22T09:38:27Z</time>
      </trkpt>
      <trkpt lat="45.75388" lon="2.93103">
        <ele>910</ele>
        <time>2014-08-22T09:38:29Z</time>
      </trkpt>
      <trkpt lat="45.75392" lon="2.9311">
        <ele>910</ele>
        <time>2014-08-22T09:38:31Z</time>
      </trkpt>
      <trkpt lat="45.75399" lon="2.93123">
        <ele>910</ele>
        <time>2014-08-22T09:38:34Z</time>
      </trkpt>
      <trkpt lat="45.75404" lon="2.93135">
        <ele>910</ele>
        <time>2014-08-22T09:38:37Z</time>
      </trkpt>
      <trkpt lat="45.75408" lon="2.93142">
        <ele>911</ele>
        <time>2014-08-22T09:38:39Z</time>
      </trkpt>
      <trkpt lat="45.75412" lon="2.93149">
        <ele>911</ele>
        <time>2014-08-22T09:38:41Z</time>
      </trkpt>
      <trkpt lat="45.75417" lon="2.93158">
        <ele>911</ele>
        <time>2014-08-22T09:38:44Z</time>
      </trkpt>
      <trkpt lat="45.7542" lon="2.93164">
        <ele>912</ele>
        <time>2014-08-22T09:38:46Z</time>
      </trkpt>
      <trkpt lat="45.75426" lon="2.93173">
        <ele>912</ele>
        <time>2014-08-22T09:38:49Z</time>
      </trkpt>
      <trkpt lat="45.75427" lon="2.93178">
        <ele>913</ele>
        <time>2014-08-22T09:38:51Z</time>
      </trkpt>
      <trkpt lat="45.75431" lon="2.93186">
        <ele>914</ele>
        <time>2014-08-22T09:38:54Z</time>
      </trkpt>
      <trkpt lat="45.75432" lon="2.93192">
        <ele>914</ele>
        <time>2014-08-22T09:38:56Z</time>
      </trkpt>
      <trkpt lat="45.75433" lon="2.93197">
        <ele>915</ele>
        <time>2014-08-22T09:38:58Z</time>
      </trkpt>
      <trkpt lat="45.75437" lon="2.93204">
        <ele>915</ele>
        <time>2014-08-22T09:39:01Z</time>
      </trkpt>
      <trkpt lat="45.7544" lon="2.9321">
        <ele>916</ele>
        <time>2014-08-22T09:39:03Z</time>
      </trkpt>
      <trkpt lat="45.75445" lon="2.93219">
        <ele>917</ele>
        <time>2014-08-22T09:39:06Z</time>
      </trkpt>
      <trkpt lat="45.75449" lon="2.93226">
        <ele>917</ele>
        <time>2014-08-22T09:39:08Z</time>
      </trkpt>
      <trkpt lat="45.75451" lon="2.93233">
        <ele>917</ele>
        <time>2014-08-22T09:39:10Z</time>
      </trkpt>
      <trkpt lat="45.75454" lon="2.93243">
        <ele>917</ele>
        <time>2014-08-22T09:39:13Z</time>
      </trkpt>
      <trkpt lat="45.75455" lon="2.9325">
        <ele>917</ele>
        <time>2014-08-22T09:39:15Z</time>
      </trkpt>
      <trkpt lat="45.75456" lon="2.93257">
        <ele>918</ele>
        <time>2014-08-22T09:39:17Z</time>
      </trkpt>
      <trkpt lat="45.75457" lon="2.93268">
        <ele>918</ele>
        <time>2014-08-22T09:39:20Z</time>
      </trkpt>
      <trkpt lat="45.75459" lon="2.93282">
        <ele>918</ele>
        <time>2014-08-22T09:39:23Z</time>
      </trkpt>
      <trkpt lat="45.75465" lon="2.93296">
        <ele>918</ele>
        <time>2014-08-22T09:39:26Z</time>
      </trkpt>
      <trkpt lat="45.7547" lon="2.93306">
        <ele>919</ele>
        <time>2014-08-22T09:39:28Z</time>
      </trkpt>
      <trkpt lat="45.75479" lon="2.93319">
        <ele>919</ele>
        <time>2014-08-22T09:39:31Z</time>
      </trkpt>
      <trkpt lat="45.75484" lon="2.93328">
        <ele>919</ele>
        <time>2014-08-22T09:39:33Z</time>
      </trkpt>
      <trkpt lat="45.75489" lon="2.93338">
        <ele>920</ele>
        <time>2014-08-22T09:39:35Z</time>
      </trkpt>
      <trkpt lat="45.75494" lon="2.93348">
        <ele>920</ele>
        <time>2014-08-22T09:39:37Z</time>
      </trkpt>
      <trkpt lat="45.75497" lon="2.93359">
        <ele>920</ele>
        <time>2014-08-22T09:39:39Z</time>
      </trkpt>
      <trkpt lat="45.75498" lon="2.9337">
        <ele>920</ele>
        <time>2014-08-22T09:39:41Z</time>
      </trkpt>
      <trkpt lat="45.75501" lon="2.93386">
        <ele>920</ele>
        <time>2014-08-22T09:39:44Z</time>
      </trkpt>
      <trkpt lat="45.75502" lon="2.93396">
        <ele>920</ele>
        <time>2014-08-22T09:39:46Z</time>
      </trkpt>
      <trkpt lat="45.75507" lon="2.93411">
        <ele>920</ele>
        <time>2014-08-22T09:39:49Z</time>
      </trkpt>
      <trkpt lat="45.7551" lon="2.93427">
        <ele>920</ele>
        <time>2014-08-22T09:39:52Z</time>
      </trkpt>
      <trkpt lat="45.75511" lon="2.93438">
        <ele>920</ele>
        <time>2014-08-22T09:39:54Z</time>
      </trkpt>
      <trkpt lat="45.75513" lon="2.93449">
        <ele>921</ele>
        <time>2014-08-22T09:39:56Z</time>
      </trkpt>
      <trkpt lat="45.75514" lon="2.9346">
        <ele>921</ele>
        <time>2014-08-22T09:39:58Z</time>
      </trkpt>
      <trkpt lat="45.75519" lon="2.93481">
        <ele>921</ele>
        <time>2014-08-22T09:40:01Z</time>
      </trkpt>
      <trkpt lat="45.75523" lon="2.93494">
        <ele>921</ele>
        <time>2014-08-22T09:40:03Z</time>
      </trkpt>
      <trkpt lat="45.75527" lon="2.93513">
        <ele>922</ele>
        <time>2014-08-22T09:40:06Z</time>
      </trkpt>
      <trkpt lat="45.75531" lon="2.9353">
        <ele>922</ele>
        <time>2014-08-22T09:40:09Z</time>
      </trkpt>
      <trkpt lat="45.75533" lon="2.93542">
        <ele>922</ele>
        <time>2014-08-22T09:40:11Z</time>
      </trkpt>
      <trkpt lat="45.75536" lon="2.9356">
        <ele>922</ele>
        <time>2014-08-22T09:40:14Z</time>
      </trkpt>
      <trkpt lat="45.75539" lon="2.93577">
        <ele>923</ele>
        <time>2014-08-22T09:40:17Z</time>
      </trkpt>
      <trkpt lat="45.75543" lon="2.93589">
        <ele>923</ele>
        <time>2014-08-22T09:40:19Z</time>
      </trkpt>
      <trkpt lat="45.75553" lon="2.93607">
        <ele>923</ele>
        <time>2014-08-22T09:40:22Z</time>
      </trkpt>
      <trkpt lat="45.75558" lon="2.93619">
        <ele>923</ele>
        <time>2014-08-22T09:40:24Z</time>
      </trkpt>
      <trkpt lat="45.75567" lon="2.93637">
        <ele>922</ele>
        <time>2014-08-22T09:40:27Z</time>
      </trkpt>
      <trkpt lat="45.75571" lon="2.93648">
        <ele>923</ele>
        <time>2014-08-22T09:40:29Z</time>
      </trkpt>
      <trkpt lat="45.75578" lon="2.93665">
        <ele>924</ele>
        <time>2014-08-22T09:40:32Z</time>
      </trkpt>
      <trkpt lat="45.75585" lon="2.93677">
        <ele>924</ele>
        <time>2014-08-22T09:40:34Z</time>
      </trkpt>
      <trkpt lat="45.75597" lon="2.93694">
        <ele>924</ele>
        <time>2014-08-22T09:40:37Z</time>
      </trkpt>
      <trkpt lat="45.75601" lon="2.93705">
        <ele>924</ele>
        <time>2014-08-22T09:40:39Z</time>
      </trkpt>
      <trkpt lat="45.75605" lon="2.93715">
        <ele>924</ele>
        <time>2014-08-22T09:40:41Z</time>
      </trkpt>
      <trkpt lat="45.75611" lon="2.93729">
        <ele>925</ele>
        <time>2014-08-22T09:40:44Z</time>
      </trkpt>
      <trkpt lat="45.75615" lon="2.93743">
        <ele>925</ele>
        <time>2014-08-22T09:40:47Z</time>
      </trkpt>
      <trkpt lat="45.75619" lon="2.93753">
        <ele>925</ele>
        <time>2014-08-22T09:40:49Z</time>
      </trkpt>
      <trkpt lat="45.75623" lon="2.93764">
        <ele>925</ele>
        <time>2014-08-22T09:40:52Z</time>
      </trkpt>
      <trkpt lat="45.75624" lon="2.93772">
        <ele>925</ele>
        <time>2014-08-22T09:40:54Z</time>
      </trkpt>
      <trkpt lat="45.75624" lon="2.93782">
        <ele>925</ele>
        <time>2014-08-22T09:40:56Z</time>
      </trkpt>
      <trkpt lat="45.75628" lon="2.93797">
        <ele>925</ele>
        <time>2014-08-22T09:40:59Z</time>
      </trkpt>
      <trkpt lat="45.75629" lon="2.93807">
        <ele>925</ele>
        <time>2014-08-22T09:41:01Z</time>
      </trkpt>
      <trkpt lat="45.75629" lon="2.93817">
        <ele>926</ele>
        <time>2014-08-22T09:41:03Z</time>
      </trkpt>
      <trkpt lat="45.75629" lon="2.93827">
        <ele>926</ele>
        <time>2014-08-22T09:41:05Z</time>
      </trkpt>
      <trkpt lat="45.7563" lon="2.93837">
        <ele>926</ele>
        <time>2014-08-22T09:41:07Z</time>
      </trkpt>
      <trkpt lat="45.75631" lon="2.93848">
        <ele>926</ele>
        <time>2014-08-22T09:41:09Z</time>
      </trkpt>
      <trkpt lat="45.75634" lon="2.93858">
        <ele>926</ele>
        <time>2014-08-22T09:41:11Z</time>
      </trkpt>
      <trkpt lat="45.75637" lon="2.93865">
        <ele>926</ele>
        <time>2014-08-22T09:41:13Z</time>
      </trkpt>
      <trkpt lat="45.75644" lon="2.93879">
        <ele>927</ele>
        <time>2014-08-22T09:41:16Z</time>
      </trkpt>
      <trkpt lat="45.75649" lon="2.93891">
        <ele>927</ele>
        <time>2014-08-22T09:41:19Z</time>
      </trkpt>
      <trkpt lat="45.75652" lon="2.93899">
        <ele>927</ele>
        <time>2014-08-22T09:41:22Z</time>
      </trkpt>
      <trkpt lat="45.75653" lon="2.93905">
        <ele>927</ele>
        <time>2014-08-22T09:41:25Z</time>
      </trkpt>
      <trkpt lat="45.75654" lon="2.93908">
        <ele>927</ele>
        <time>2014-08-22T09:41:28Z</time>
      </trkpt>
      <trkpt lat="45.75669" lon="2.93928">
        <ele>929</ele>
        <time>2014-08-22T09:41:31Z</time>
      </trkpt>
      <trkpt lat="45.7567" lon="2.93933">
        <ele>929</ele>
        <time>2014-08-22T09:41:33Z</time>
      </trkpt>
      <trkpt lat="45.75672" lon="2.93941">
        <ele>929</ele>
        <time>2014-08-22T09:41:35Z</time>
      </trkpt>
      <trkpt lat="45.75677" lon="2.93956">
        <ele>930</ele>
        <time>2014-08-22T09:41:38Z</time>
      </trkpt>
      <trkpt lat="45.75681" lon="2.93965">
        <ele>930</ele>
        <time>2014-08-22T09:41:40Z</time>
      </trkpt>
      <trkpt lat="45.75686" lon="2.93973">
        <ele>930</ele>
        <time>2014-08-22T09:41:42Z</time>
      </trkpt>
      <trkpt lat="45.7569" lon="2.93982">
        <ele>930</ele>
        <time>2014-08-22T09:41:44Z</time>
      </trkpt>
      <trkpt lat="45.75694" lon="2.9399">
        <ele>930</ele>
        <time>2014-08-22T09:41:46Z</time>
      </trkpt>
      <trkpt lat="45.75698" lon="2.94005">
        <ele>930</ele>
        <time>2014-08-22T09:41:49Z</time>
      </trkpt>
      <trkpt lat="45.75701" lon="2.94014">
        <ele>930</ele>
        <time>2014-08-22T09:41:51Z</time>
      </trkpt>
      <trkpt lat="45.75706" lon="2.94027">
        <ele>931</ele>
        <time>2014-08-22T09:41:54Z</time>
      </trkpt>
      <trkpt lat="45.75708" lon="2.94035">
        <ele>931</ele>
        <time>2014-08-22T09:41:56Z</time>
      </trkpt>
      <trkpt lat="45.7571" lon="2.94044">
        <ele>931</ele>
        <time>2014-08-22T09:41:58Z</time>
      </trkpt>
      <trkpt lat="45.75707" lon="2.94057">
        <ele>931</ele>
        <time>2014-08-22T09:42:01Z</time>
      </trkpt>
      <trkpt lat="45.75708" lon="2.94068">
        <ele>932</ele>
        <time>2014-08-22T09:42:04Z</time>
      </trkpt>
      <trkpt lat="45.75711" lon="2.94077">
        <ele>932</ele>
        <time>2014-08-22T09:42:06Z</time>
      </trkpt>
      <trkpt lat="45.75715" lon="2.94089">
        <ele>933</ele>
        <time>2014-08-22T09:42:09Z</time>
      </trkpt>
      <trkpt lat="45.7572" lon="2.94101">
        <ele>933</ele>
        <time>2014-08-22T09:42:12Z</time>
      </trkpt>
      <trkpt lat="45.75725" lon="2.94109">
        <ele>934</ele>
        <time>2014-08-22T09:42:14Z</time>
      </trkpt>
      <trkpt lat="45.75731" lon="2.94117">
        <ele>934</ele>
        <time>2014-08-22T09:42:16Z</time>
      </trkpt>
      <trkpt lat="45.75737" lon="2.94125">
        <ele>934</ele>
        <time>2014-08-22T09:42:18Z</time>
      </trkpt>
      <trkpt lat="45.75744" lon="2.94135">
        <ele>934</ele>
        <time>2014-08-22T09:42:21Z</time>
      </trkpt>
      <trkpt lat="45.7575" lon="2.94148">
        <ele>935</ele>
        <time>2014-08-22T09:42:24Z</time>
      </trkpt>
      <trkpt lat="45.75753" lon="2.94156">
        <ele>935</ele>
        <time>2014-08-22T09:42:26Z</time>
      </trkpt>
      <trkpt lat="45.75754" lon="2.94164">
        <ele>936</ele>
        <time>2014-08-22T09:42:28Z</time>
      </trkpt>
      <trkpt lat="45.75754" lon="2.94171">
        <ele>936</ele>
        <time>2014-08-22T09:42:30Z</time>
      </trkpt>
      <trkpt lat="45.75755" lon="2.9418">
        <ele>936</ele>
        <time>2014-08-22T09:42:33Z</time>
      </trkpt>
      <trkpt lat="45.75756" lon="2.9419">
        <ele>937</ele>
        <time>2014-08-22T09:42:36Z</time>
      </trkpt>
      <trkpt lat="45.75758" lon="2.942">
        <ele>938</ele>
        <time>2014-08-22T09:42:39Z</time>
      </trkpt>
      <trkpt lat="45.75757" lon="2.94209">
        <ele>938</ele>
        <time>2014-08-22T09:42:42Z</time>
      </trkpt>
      <trkpt lat="45.75758" lon="2.94216">
        <ele>939</ele>
        <time>2014-08-22T09:42:44Z</time>
      </trkpt>
      <trkpt lat="45.75762" lon="2.94229">
        <ele>939</ele>
        <time>2014-08-22T09:42:47Z</time>
      </trkpt>
      <trkpt lat="45.75766" lon="2.94239">
        <ele>940</ele>
        <time>2014-08-22T09:42:50Z</time>
      </trkpt>
      <trkpt lat="45.75765" lon="2.94249">
        <ele>940</ele>
        <time>2014-08-22T09:42:52Z</time>
      </trkpt>
      <trkpt lat="45.75767" lon="2.94263">
        <ele>941</ele>
        <time>2014-08-22T09:42:55Z</time>
      </trkpt>
      <trkpt lat="45.7577" lon="2.94272">
        <ele>941</ele>
        <time>2014-08-22T09:42:57Z</time>
      </trkpt>
      <trkpt lat="45.75773" lon="2.94284">
        <ele>941</ele>
        <time>2014-08-22T09:43:00Z</time>
      </trkpt>
      <trkpt lat="45.75778" lon="2.94293">
        <ele>942</ele>
        <time>2014-08-22T09:43:02Z</time>
      </trkpt>
      <trkpt lat="45.75784" lon="2.94307">
        <ele>942</ele>
        <time>2014-08-22T09:43:05Z</time>
      </trkpt>
      <trkpt lat="45.75788" lon="2.94316">
        <ele>943</ele>
        <time>2014-08-22T09:43:07Z</time>
      </trkpt>
      <trkpt lat="45.75793" lon="2.9433">
        <ele>944</ele>
        <time>2014-08-22T09:43:10Z</time>
      </trkpt>
      <trkpt lat="45.75797" lon="2.94339">
        <ele>944</ele>
        <time>2014-08-22T09:43:12Z</time>
      </trkpt>
      <trkpt lat="45.75805" lon="2.94352">
        <ele>945</ele>
        <time>2014-08-22T09:43:15Z</time>
      </trkpt>
      <trkpt lat="45.7581" lon="2.94361">
        <ele>946</ele>
        <time>2014-08-22T09:43:17Z</time>
      </trkpt>
      <trkpt lat="45.75817" lon="2.94376">
        <ele>946</ele>
        <time>2014-08-22T09:43:20Z</time>
      </trkpt>
      <trkpt lat="45.75822" lon="2.94385">
        <ele>947</ele>
        <time>2014-08-22T09:43:22Z</time>
      </trkpt>
      <trkpt lat="45.75828" lon="2.94396">
        <ele>947</ele>
        <time>2014-08-22T09:43:25Z</time>
      </trkpt>
      <trkpt lat="45.75832" lon="2.94403">
        <ele>947</ele>
        <time>2014-08-22T09:43:27Z</time>
      </trkpt>
      <trkpt lat="45.75834" lon="2.94411">
        <ele>948</ele>
        <time>2014-08-22T09:43:29Z</time>
      </trkpt>
      <trkpt lat="45.75833" lon="2.94421">
        <ele>948</ele>
        <time>2014-08-22T09:43:32Z</time>
      </trkpt>
      <trkpt lat="45.7583" lon="2.94425">
        <ele>949</ele>
        <time>2014-08-22T09:43:34Z</time>
      </trkpt>
      <trkpt lat="45.75828" lon="2.94432">
        <ele>950</ele>
        <time>2014-08-22T09:43:37Z</time>
      </trkpt>
      <trkpt lat="45.75824" lon="2.94441">
        <ele>950</ele>
        <time>2014-08-22T09:43:40Z</time>
      </trkpt>
      <trkpt lat="45.75825" lon="2.94453">
        <ele>951</ele>
        <time>2014-08-22T09:43:43Z</time>
      </trkpt>
      <trkpt lat="45.7583" lon="2.94461">
        <ele>951</ele>
        <time>2014-08-22T09:43:45Z</time>
      </trkpt>
      <trkpt lat="45.75833" lon="2.9447">
        <ele>952</ele>
        <time>2014-08-22T09:43:47Z</time>
      </trkpt>
      <trkpt lat="45.75836" lon="2.94479">
        <ele>952</ele>
        <time>2014-08-22T09:43:49Z</time>
      </trkpt>
      <trkpt lat="45.7584" lon="2.94493">
        <ele>952</ele>
        <time>2014-08-22T09:43:52Z</time>
      </trkpt>
      <trkpt lat="45.7584" lon="2.94502">
        <ele>953</ele>
        <time>2014-08-22T09:43:55Z</time>
      </trkpt>
      <trkpt lat="45.75838" lon="2.94511">
        <ele>954</ele>
        <time>2014-08-22T09:43:58Z</time>
      </trkpt>
      <trkpt lat="45.75836" lon="2.94519">
        <ele>955</ele>
        <time>2014-08-22T09:44:01Z</time>
      </trkpt>
      <trkpt lat="45.75834" lon="2.94528">
        <ele>954</ele>
        <time>2014-08-22T09:44:04Z</time>
      </trkpt>
      <trkpt lat="45.75832" lon="2.94537">
        <ele>955</ele>
        <time>2014-08-22T09:44:07Z</time>
      </trkpt>
      <trkpt lat="45.75832" lon="2.94549">
        <ele>956</ele>
        <time>2014-08-22T09:44:10Z</time>
      </trkpt>
      <trkpt lat="45.75831" lon="2.9456">
        <ele>958</ele>
        <time>2014-08-22T09:44:13Z</time>
      </trkpt>
      <trkpt lat="45.75829" lon="2.94572">
        <ele>959</ele>
        <time>2014-08-22T09:44:16Z</time>
      </trkpt>
      <trkpt lat="45.75829" lon="2.94583">
        <ele>960</ele>
        <time>2014-08-22T09:44:19Z</time>
      </trkpt>
      <trkpt lat="45.75829" lon="2.94591">
        <ele>961</ele>
        <time>2014-08-22T09:44:21Z</time>
      </trkpt>
      <trkpt lat="45.75828" lon="2.94601">
        <ele>961</ele>
        <time>2014-08-22T09:44:24Z</time>
      </trkpt>
      <trkpt lat="45.75827" lon="2.9461">
        <ele>962</ele>
        <time>2014-08-22T09:44:27Z</time>
      </trkpt>
      <trkpt lat="45.75825" lon="2.94618">
        <ele>962</ele>
        <time>2014-08-22T09:44:30Z</time>
      </trkpt>
      <trkpt lat="45.75826" lon="2.94629">
        <ele>963</ele>
        <time>2014-08-22T09:44:33Z</time>
      </trkpt>
      <trkpt lat="45.75827" lon="2.94637">
        <ele>963</ele>
        <time>2014-08-22T09:44:35Z</time>
      </trkpt>
      <trkpt lat="45.75829" lon="2.94648">
        <ele>964</ele>
        <time>2014-08-22T09:44:38Z</time>
      </trkpt>
      <trkpt lat="45.75833" lon="2.9466">
        <ele>964</ele>
        <time>2014-08-22T09:44:41Z</time>
      </trkpt>
      <trkpt lat="45.75835" lon="2.94667">
        <ele>965</ele>
        <time>2014-08-22T09:44:43Z</time>
      </trkpt>
      <trkpt lat="45.75838" lon="2.94679">
        <ele>965</ele>
        <time>2014-08-22T09:44:46Z</time>
      </trkpt>
      <trkpt lat="45.75839" lon="2.94688">
        <ele>966</ele>
        <time>2014-08-22T09:44:48Z</time>
      </trkpt>
      <trkpt lat="45.7584" lon="2.94696">
        <ele>966</ele>
        <time>2014-08-22T09:44:50Z</time>
      </trkpt>
      <trkpt lat="45.75841" lon="2.94705">
        <ele>966</ele>
        <time>2014-08-22T09:44:52Z</time>
      </trkpt>
      <trkpt lat="45.75841" lon="2.94714">
        <ele>966</ele>
        <time>2014-08-22T09:44:54Z</time>
      </trkpt>
      <trkpt lat="45.75842" lon="2.94727">
        <ele>966</ele>
        <time>2014-08-22T09:44:57Z</time>
      </trkpt>
      <trkpt lat="45.75845" lon="2.94735">
        <ele>966</ele>
        <time>2014-08-22T09:44:59Z</time>
      </trkpt>
      <trkpt lat="45.75848" lon="2.94746">
        <ele>967</ele>
        <time>2014-08-22T09:45:02Z</time>
      </trkpt>
      <trkpt lat="45.7585" lon="2.94754">
        <ele>967</ele>
        <time>2014-08-22T09:45:04Z</time>
      </trkpt>
      <trkpt lat="45.75853" lon="2.94767">
        <ele>967</ele>
        <time>2014-08-22T09:45:07Z</time>
      </trkpt>
      <trkpt lat="45.75856" lon="2.94773">
        <ele>968</ele>
        <time>2014-08-22T09:45:09Z</time>
      </trkpt>
      <trkpt lat="45.75861" lon="2.94784">
        <ele>968</ele>
        <time>2014-08-22T09:45:12Z</time>
      </trkpt>
      <trkpt lat="45.75864" lon="2.94793">
        <ele>968</ele>
        <time>2014-08-22T09:45:14Z</time>
      </trkpt>
      <trkpt lat="45.75869" lon="2.94805">
        <ele>968</ele>
        <time>2014-08-22T09:45:17Z</time>
      </trkpt>
      <trkpt lat="45.75875" lon="2.94813">
        <ele>968</ele>
        <time>2014-08-22T09:45:20Z</time>
      </trkpt>
      <trkpt lat="45.75875" lon="2.9482">
        <ele>968</ele>
        <time>2014-08-22T09:45:22Z</time>
      </trkpt>
      <trkpt lat="45.75877" lon="2.94826">
        <ele>969</ele>
        <time>2014-08-22T09:45:24Z</time>
      </trkpt>
      <trkpt lat="45.7588" lon="2.94833">
        <ele>969</ele>
        <time>2014-08-22T09:45:27Z</time>
      </trkpt>
      <trkpt lat="45.75885" lon="2.94836">
        <ele>969</ele>
        <time>2014-08-22T09:45:29Z</time>
      </trkpt>
      <trkpt lat="45.75889" lon="2.94847">
        <ele>969</ele>
        <time>2014-08-22T09:45:32Z</time>
      </trkpt>
      <trkpt lat="45.75891" lon="2.94851">
        <ele>969</ele>
        <time>2014-08-22T09:45:34Z</time>
      </trkpt>
      <trkpt lat="45.75897" lon="2.9486">
        <ele>969</ele>
        <time>2014-08-22T09:45:37Z</time>
      </trkpt>
      <trkpt lat="45.75903" lon="2.94872">
        <ele>969</ele>
        <time>2014-08-22T09:45:40Z</time>
      </trkpt>
      <trkpt lat="45.75908" lon="2.94882">
        <ele>970</ele>
        <time>2014-08-22T09:45:43Z</time>
      </trkpt>
      <trkpt lat="45.75915" lon="2.94892">
        <ele>970</ele>
        <time>2014-08-22T09:45:46Z</time>
      </trkpt>
      <trkpt lat="45.75924" lon="2.94902">
        <ele>970</ele>
        <time>2014-08-22T09:45:49Z</time>
      </trkpt>
      <trkpt lat="45.75934" lon="2.94913">
        <ele>971</ele>
        <time>2014-08-22T09:45:52Z</time>
      </trkpt>
      <trkpt lat="45.75942" lon="2.94923">
        <ele>971</ele>
        <time>2014-08-22T09:45:55Z</time>
      </trkpt>
      <trkpt lat="45.75948" lon="2.94928">
        <ele>972</ele>
        <time>2014-08-22T09:45:57Z</time>
      </trkpt>
      <trkpt lat="45.75952" lon="2.94933">
        <ele>973</ele>
        <time>2014-08-22T09:45:59Z</time>
      </trkpt>
      <trkpt lat="45.75956" lon="2.94938">
        <ele>973</ele>
        <time>2014-08-22T09:46:01Z</time>
      </trkpt>
      <trkpt lat="45.75962" lon="2.94946">
        <ele>973</ele>
        <time>2014-08-22T09:46:04Z</time>
      </trkpt>
      <trkpt lat="45.75971" lon="2.9495">
        <ele>974</ele>
        <time>2014-08-22T09:46:07Z</time>
      </trkpt>
      <trkpt lat="45.75977" lon="2.94953">
        <ele>975</ele>
        <time>2014-08-22T09:46:09Z</time>
      </trkpt>
      <trkpt lat="45.75986" lon="2.94956">
        <ele>976</ele>
        <time>2014-08-22T09:46:12Z</time>
      </trkpt>
      <trkpt lat="45.75996" lon="2.94962">
        <ele>977</ele>
        <time>2014-08-22T09:46:15Z</time>
      </trkpt>
      <trkpt lat="45.76008" lon="2.9497">
        <ele>977</ele>
        <time>2014-08-22T09:46:18Z</time>
      </trkpt>
      <trkpt lat="45.7602" lon="2.9498">
        <ele>978</ele>
        <time>2014-08-22T09:46:21Z</time>
      </trkpt>
      <trkpt lat="45.7603" lon="2.94988">
        <ele>979</ele>
        <time>2014-08-22T09:46:24Z</time>
      </trkpt>
      <trkpt lat="45.76042" lon="2.94999">
        <ele>980</ele>
        <time>2014-08-22T09:46:27Z</time>
      </trkpt>
      <trkpt lat="45.76054" lon="2.95011">
        <ele>980</ele>
        <time>2014-08-22T09:46:30Z</time>
      </trkpt>
      <trkpt lat="45.76062" lon="2.95018">
        <ele>980</ele>
        <time>2014-08-22T09:46:32Z</time>
      </trkpt>
      <trkpt lat="45.76068" lon="2.95024">
        <ele>980</ele>
        <time>2014-08-22T09:46:34Z</time>
      </trkpt>
      <trkpt lat="45.76072" lon="2.95031">
        <ele>980</ele>
        <time>2014-08-22T09:46:36Z</time>
      </trkpt>
      <trkpt lat="45.76081" lon="2.95043">
        <ele>980</ele>
        <time>2014-08-22T09:46:39Z</time>
      </trkpt>
      <trkpt lat="45.76089" lon="2.95053">
        <ele>981</ele>
        <time>2014-08-22T09:46:42Z</time>
      </trkpt>
      <trkpt lat="45.76092" lon="2.95059">
        <ele>981</ele>
        <time>2014-08-22T09:46:44Z</time>
      </trkpt>
      <trkpt lat="45.76098" lon="2.95064">
        <ele>981</ele>
        <time>2014-08-22T09:46:47Z</time>
      </trkpt>
      <trkpt lat="45.76105" lon="2.95067">
        <ele>981</ele>
        <time>2014-08-22T09:46:50Z</time>
      </trkpt>
      <trkpt lat="45.76125" lon="2.95108">
        <ele>984</ele>
        <time>2014-08-22T09:46:53Z</time>
      </trkpt>
      <trkpt lat="45.76125" lon="2.95108">
        <ele>984</ele>
        <time>2014-08-22T09:46:56Z</time>
      </trkpt>
      <trkpt lat="45.76127" lon="2.9511">
        <ele>983</ele>
        <time>2014-08-22T09:46:58Z</time>
      </trkpt>
      <trkpt lat="45.7613" lon="2.95113">
        <ele>982</ele>
        <time>2014-08-22T09:47:01Z</time>
      </trkpt>
      <trkpt lat="45.76133" lon="2.95113">
        <ele>981</ele>
        <time>2014-08-22T09:47:04Z</time>
      </trkpt>
      <trkpt lat="45.76137" lon="2.95115">
        <ele>980</ele>
        <time>2014-08-22T09:47:07Z</time>
      </trkpt>
      <trkpt lat="45.76141" lon="2.95116">
        <ele>980</ele>
        <time>2014-08-22T09:47:10Z</time>
      </trkpt>
      <trkpt lat="45.76144" lon="2.95116">
        <ele>979</ele>
        <time>2014-08-22T09:47:13Z</time>
      </trkpt>
      <trkpt lat="45.76147" lon="2.95116">
        <ele>979</ele>
        <time>2014-08-22T09:47:16Z</time>
      </trkpt>
      <trkpt lat="45.76149" lon="2.95117">
        <ele>979</ele>
        <time>2014-08-22T09:47:18Z</time>
      </trkpt>
      <trkpt lat="45.76152" lon="2.95118">
        <ele>978</ele>
        <time>2014-08-22T09:47:20Z</time>
      </trkpt>
      <trkpt lat="45.76156" lon="2.95121">
        <ele>978</ele>
        <time>2014-08-22T09:47:22Z</time>
      </trkpt>
      <trkpt lat="45.76164" lon="2.95127">
        <ele>977</ele>
        <time>2014-08-22T09:47:25Z</time>
      </trkpt>
      <trkpt lat="45.76177" lon="2.95135">
        <ele>976</ele>
        <time>2014-08-22T09:47:28Z</time>
      </trkpt>
      <trkpt lat="45.76189" lon="2.95145">
        <ele>976</ele>
        <time>2014-08-22T09:47:31Z</time>
      </trkpt>
      <trkpt lat="45.76199" lon="2.95151">
        <ele>973</ele>
        <time>2014-08-22T09:47:34Z</time>
      </trkpt>
      <trkpt lat="45.76204" lon="2.95155">
        <ele>972</ele>
        <time>2014-08-22T09:47:36Z</time>
      </trkpt>
      <trkpt lat="45.76214" lon="2.9515">
        <ele>969</ele>
        <time>2014-08-22T09:47:39Z</time>
      </trkpt>
      <trkpt lat="45.7622" lon="2.95146">
        <ele>968</ele>
        <time>2014-08-22T09:47:41Z</time>
      </trkpt>
      <trkpt lat="45.76227" lon="2.95143">
        <ele>966</ele>
        <time>2014-08-22T09:47:44Z</time>
      </trkpt>
      <trkpt lat="45.76232" lon="2.9514">
        <ele>965</ele>
        <time>2014-08-22T09:47:46Z</time>
      </trkpt>
      <trkpt lat="45.76241" lon="2.95134">
        <ele>964</ele>
        <time>2014-08-22T09:47:49Z</time>
      </trkpt>
      <trkpt lat="45.76246" lon="2.95129">
        <ele>963</ele>
        <time>2014-08-22T09:47:51Z</time>
      </trkpt>
      <trkpt lat="45.76258" lon="2.95121">
        <ele>962</ele>
        <time>2014-08-22T09:47:54Z</time>
      </trkpt>
      <trkpt lat="45.76271" lon="2.95111">
        <ele>961</ele>
        <time>2014-08-22T09:47:57Z</time>
      </trkpt>
      <trkpt lat="45.76282" lon="2.95106">
        <ele>961</ele>
        <time>2014-08-22T09:48:00Z</time>
      </trkpt>
      <trkpt lat="45.76287" lon="2.95109">
        <ele>960</ele>
        <time>2014-08-22T09:48:02Z</time>
      </trkpt>
      <trkpt lat="45.76292" lon="2.95114">
        <ele>960</ele>
        <time>2014-08-22T09:48:04Z</time>
      </trkpt>
      <trkpt lat="45.76299" lon="2.95124">
        <ele>961</ele>
        <time>2014-08-22T09:48:07Z</time>
      </trkpt>
      <trkpt lat="45.76305" lon="2.95132">
        <ele>961</ele>
        <time>2014-08-22T09:48:10Z</time>
      </trkpt>
      <trkpt lat="45.76311" lon="2.95142">
        <ele>962</ele>
        <time>2014-08-22T09:48:13Z</time>
      </trkpt>
      <trkpt lat="45.76313" lon="2.95149">
        <ele>962</ele>
        <time>2014-08-22T09:48:15Z</time>
      </trkpt>
      <trkpt lat="45.7632" lon="2.95159">
        <ele>964</ele>
        <time>2014-08-22T09:48:18Z</time>
      </trkpt>
      <trkpt lat="45.76324" lon="2.95165">
        <ele>964</ele>
        <time>2014-08-22T09:48:20Z</time>
      </trkpt>
      <trkpt lat="45.76334" lon="2.9517">
        <ele>965</ele>
        <time>2014-08-22T09:48:22Z</time>
      </trkpt>
      <trkpt lat="45.76339" lon="2.95175">
        <ele>965</ele>
        <time>2014-08-22T09:48:25Z</time>
      </trkpt>
      <trkpt lat="45.76344" lon="2.9518">
        <ele>966</ele>
        <time>2014-08-22T09:48:27Z</time>
      </trkpt>
      <trkpt lat="45.76352" lon="2.95189">
        <ele>967</ele>
        <time>2014-08-22T09:48:30Z</time>
      </trkpt>
      <trkpt lat="45.76357" lon="2.95194">
        <ele>968</ele>
        <time>2014-08-22T09:48:32Z</time>
      </trkpt>
      <trkpt lat="45.76362" lon="2.95201">
        <ele>968</ele>
        <time>2014-08-22T09:48:34Z</time>
      </trkpt>
      <trkpt lat="45.76364" lon="2.95206">
        <ele>968</ele>
        <time>2014-08-22T09:48:37Z</time>
      </trkpt>
      <trkpt lat="45.76369" lon="2.95213">
        <ele>969</ele>
        <time>2014-08-22T09:48:39Z</time>
      </trkpt>
      <trkpt lat="45.76371" lon="2.95218">
        <ele>969</ele>
        <time>2014-08-22T09:48:42Z</time>
      </trkpt>
      <trkpt lat="45.76375" lon="2.95226">
        <ele>970</ele>
        <time>2014-08-22T09:48:45Z</time>
      </trkpt>
      <trkpt lat="45.76377" lon="2.95234">
        <ele>972</ele>
        <time>2014-08-22T09:48:48Z</time>
      </trkpt>
      <trkpt lat="45.7638" lon="2.95242">
        <ele>972</ele>
        <time>2014-08-22T09:48:51Z</time>
      </trkpt>
      <trkpt lat="45.76383" lon="2.95251">
        <ele>973</ele>
        <time>2014-08-22T09:48:54Z</time>
      </trkpt>
      <trkpt lat="45.76386" lon="2.95255">
        <ele>974</ele>
        <time>2014-08-22T09:48:56Z</time>
      </trkpt>
      <trkpt lat="45.7639" lon="2.95262">
        <ele>975</ele>
        <time>2014-08-22T09:48:59Z</time>
      </trkpt>
      <trkpt lat="45.76395" lon="2.95269">
        <ele>976</ele>
        <time>2014-08-22T09:49:01Z</time>
      </trkpt>
      <trkpt lat="45.76397" lon="2.95273">
        <ele>977</ele>
        <time>2014-08-22T09:49:04Z</time>
      </trkpt>
      <trkpt lat="45.76401" lon="2.95279">
        <ele>978</ele>
        <time>2014-08-22T09:49:07Z</time>
      </trkpt>
      <trkpt lat="45.76404" lon="2.95286">
        <ele>978</ele>
        <time>2014-08-22T09:49:09Z</time>
      </trkpt>
      <trkpt lat="45.76406" lon="2.95291">
        <ele>978</ele>
        <time>2014-08-22T09:49:12Z</time>
      </trkpt>
      <trkpt lat="45.7641" lon="2.95298">
        <ele>979</ele>
        <time>2014-08-22T09:49:14Z</time>
      </trkpt>
      <trkpt lat="45.76415" lon="2.95305">
        <ele>979</ele>
        <time>2014-08-22T09:49:17Z</time>
      </trkpt>
      <trkpt lat="45.76418" lon="2.95309">
        <ele>980</ele>
        <time>2014-08-22T09:49:20Z</time>
      </trkpt>
      <trkpt lat="45.7642" lon="2.9532">
        <ele>981</ele>
        <time>2014-08-22T09:49:22Z</time>
      </trkpt>
      <trkpt lat="45.76422" lon="2.95326">
        <ele>982</ele>
        <time>2014-08-22T09:49:25Z</time>
      </trkpt>
      <trkpt lat="45.76424" lon="2.95332">
        <ele>983</ele>
        <time>2014-08-22T09:49:27Z</time>
      </trkpt>
      <trkpt lat="45.76425" lon="2.9534">
        <ele>983</ele>
        <time>2014-08-22T09:49:29Z</time>
      </trkpt>
      <trkpt lat="45.76425" lon="2.95346">
        <ele>984</ele>
        <time>2014-08-22T09:49:31Z</time>
      </trkpt>
      <trkpt lat="45.76426" lon="2.95352">
        <ele>984</ele>
        <time>2014-08-22T09:49:33Z</time>
      </trkpt>
      <trkpt lat="45.76426" lon="2.95357">
        <ele>985</ele>
        <time>2014-08-22T09:49:35Z</time>
      </trkpt>
      <trkpt lat="45.76427" lon="2.95362">
        <ele>986</ele>
        <time>2014-08-22T09:49:37Z</time>
      </trkpt>
      <trkpt lat="45.76429" lon="2.95366">
        <ele>987</ele>
        <time>2014-08-22T09:49:40Z</time>
      </trkpt>
      <trkpt lat="45.7643" lon="2.9537">
        <ele>987</ele>
        <time>2014-08-22T09:49:42Z</time>
      </trkpt>
      <trkpt lat="45.76432" lon="2.95373">
        <ele>988</ele>
        <time>2014-08-22T09:49:44Z</time>
      </trkpt>
      <trkpt lat="45.76435" lon="2.9538">
        <ele>989</ele>
        <time>2014-08-22T09:49:47Z</time>
      </trkpt>
      <trkpt lat="45.76437" lon="2.95385">
        <ele>990</ele>
        <time>2014-08-22T09:49:50Z</time>
      </trkpt>
      <trkpt lat="45.76439" lon="2.95389">
        <ele>991</ele>
        <time>2014-08-22T09:49:53Z</time>
      </trkpt>
      <trkpt lat="45.76441" lon="2.95395">
        <ele>991</ele>
        <time>2014-08-22T09:49:55Z</time>
      </trkpt>
      <trkpt lat="45.76442" lon="2.95401">
        <ele>992</ele>
        <time>2014-08-22T09:49:58Z</time>
      </trkpt>
      <trkpt lat="45.76443" lon="2.95406">
        <ele>992</ele>
        <time>2014-08-22T09:50:00Z</time>
      </trkpt>
      <trkpt lat="45.76443" lon="2.95411">
        <ele>993</ele>
        <time>2014-08-22T09:50:02Z</time>
      </trkpt>
      <trkpt lat="45.76441" lon="2.9542">
        <ele>993</ele>
        <time>2014-08-22T09:50:05Z</time>
      </trkpt>
      <trkpt lat="45.7644" lon="2.95428">
        <ele>995</ele>
        <time>2014-08-22T09:50:07Z</time>
      </trkpt>
      <trkpt lat="45.76439" lon="2.95432">
        <ele>995</ele>
        <time>2014-08-22T09:50:09Z</time>
      </trkpt>
      <trkpt lat="45.76438" lon="2.95436">
        <ele>996</ele>
        <time>2014-08-22T09:50:12Z</time>
      </trkpt>
      <trkpt lat="45.76437" lon="2.95442">
        <ele>997</ele>
        <time>2014-08-22T09:50:14Z</time>
      </trkpt>
      <trkpt lat="45.76437" lon="2.95445">
        <ele>998</ele>
        <time>2014-08-22T09:50:17Z</time>
      </trkpt>
      <trkpt lat="45.76435" lon="2.95448">
        <ele>998</ele>
        <time>2014-08-22T09:50:19Z</time>
      </trkpt>
      <trkpt lat="45.76434" lon="2.95451">
        <ele>999</ele>
        <time>2014-08-22T09:50:22Z</time>
      </trkpt>
      <trkpt lat="45.76433" lon="2.9545">
        <ele>1000</ele>
        <time>2014-08-22T09:50:24Z</time>
      </trkpt>
      <trkpt lat="45.76434" lon="2.95451">
        <ele>1000</ele>
        <time>2014-08-22T09:50:27Z</time>
      </trkpt>
      <trkpt lat="45.76434" lon="2.9545">
        <ele>1000</ele>
        <time>2014-08-22T09:50:29Z</time>
      </trkpt>
      <trkpt lat="45.76434" lon="2.9545">
        <ele>1000</ele>
        <time>2014-08-22T09:50:32Z</time>
      </trkpt>
      <trkpt lat="45.76435" lon="2.95451">
        <ele>1001</ele>
        <time>2014-08-22T09:50:35Z</time>
      </trkpt>
      <trkpt lat="45.76437" lon="2.95452">
        <ele>1001</ele>
        <time>2014-08-22T09:50:37Z</time>
      </trkpt>
      <trkpt lat="45.76437" lon="2.95454">
        <ele>1002</ele>
        <time>2014-08-22T09:50:40Z</time>
      </trkpt>
      <trkpt lat="45.76436" lon="2.95455">
        <ele>1002</ele>
        <time>2014-08-22T09:50:42Z</time>
      </trkpt>
      <trkpt lat="45.76435" lon="2.95458">
        <ele>1001</ele>
        <time>2014-08-22T09:50:44Z</time>
      </trkpt>
      <trkpt lat="45.76432" lon="2.95463">
        <ele>1002</ele>
        <time>2014-08-22T09:50:47Z</time>
      </trkpt>
      <trkpt lat="45.7643" lon="2.95465">
        <ele>1002</ele>
        <time>2014-08-22T09:50:49Z</time>
      </trkpt>
      <trkpt lat="45.76427" lon="2.95467">
        <ele>1003</ele>
        <time>2014-08-22T09:50:52Z</time>
      </trkpt>
      <trkpt lat="45.76424" lon="2.95468">
        <ele>1004</ele>
        <time>2014-08-22T09:50:54Z</time>
      </trkpt>
      <trkpt lat="45.76421" lon="2.9547">
        <ele>1005</ele>
        <time>2014-08-22T09:50:57Z</time>
      </trkpt>
      <trkpt lat="45.76418" lon="2.95472">
        <ele>1005</ele>
        <time>2014-08-22T09:50:59Z</time>
      </trkpt>
      <trkpt lat="45.76416" lon="2.95473">
        <ele>1006</ele>
        <time>2014-08-22T09:51:02Z</time>
      </trkpt>
      <trkpt lat="45.76412" lon="2.95476">
        <ele>1007</ele>
        <time>2014-08-22T09:51:04Z</time>
      </trkpt>
      <trkpt lat="45.7641" lon="2.95479">
        <ele>1008</ele>
        <time>2014-08-22T09:51:07Z</time>
      </trkpt>
      <trkpt lat="45.76406" lon="2.95483">
        <ele>1010</ele>
        <time>2014-08-22T09:51:09Z</time>
      </trkpt>
      <trkpt lat="45.76403" lon="2.95487">
        <ele>1011</ele>
        <time>2014-08-22T09:51:11Z</time>
      </trkpt>
      <trkpt lat="45.764" lon="2.95489">
        <ele>1011</ele>
        <time>2014-08-22T09:51:14Z</time>
      </trkpt>
      <trkpt lat="45.76393" lon="2.95497">
        <ele>1011</ele>
        <time>2014-08-22T09:51:16Z</time>
      </trkpt>
      <trkpt lat="45.76391" lon="2.95506">
        <ele>1011</ele>
        <time>2014-08-22T09:51:19Z</time>
      </trkpt>
      <trkpt lat="45.76391" lon="2.95518">
        <ele>1010</ele>
        <time>2014-08-22T09:51:21Z</time>
      </trkpt>
      <trkpt lat="45.76388" lon="2.95527">
        <ele>1011</ele>
        <time>2014-08-22T09:51:24Z</time>
      </trkpt>
      <trkpt lat="45.76388" lon="2.95534">
        <ele>1011</ele>
        <time>2014-08-22T09:51:27Z</time>
      </trkpt>
      <trkpt lat="45.76389" lon="2.95545">
        <ele>1012</ele>
        <time>2014-08-22T09:51:29Z</time>
      </trkpt>
      <trkpt lat="45.76389" lon="2.95551">
        <ele>1012</ele>
        <time>2014-08-22T09:51:31Z</time>
      </trkpt>
      <trkpt lat="45.76392" lon="2.95553">
        <ele>1013</ele>
        <time>2014-08-22T09:51:34Z</time>
      </trkpt>
      <trkpt lat="45.76394" lon="2.95549">
        <ele>1013</ele>
        <time>2014-08-22T09:51:36Z</time>
      </trkpt>
      <trkpt lat="45.76397" lon="2.95545">
        <ele>1013</ele>
        <time>2014-08-22T09:51:39Z</time>
      </trkpt>
      <trkpt lat="45.76401" lon="2.95543">
        <ele>1014</ele>
        <time>2014-08-22T09:51:42Z</time>
      </trkpt>
      <trkpt lat="45.76402" lon="2.95544">
        <ele>1015</ele>
        <time>2014-08-22T09:51:44Z</time>
      </trkpt>
      <trkpt lat="45.76401" lon="2.95546">
        <ele>1015</ele>
        <time>2014-08-22T09:51:46Z</time>
      </trkpt>
      <trkpt lat="45.76399" lon="2.95547">
        <ele>1015</ele>
        <time>2014-08-22T09:51:48Z</time>
      </trkpt>
      <trkpt lat="45.76397" lon="2.95551">
        <ele>1014</ele>
        <time>2014-08-22T09:51:51Z</time>
      </trkpt>
      <trkpt lat="45.76397" lon="2.95554">
        <ele>1014</ele>
        <time>2014-08-22T09:51:53Z</time>
      </trkpt>
      <trkpt lat="45.76402" lon="2.95558">
        <ele>1015</ele>
        <time>2014-08-22T09:51:55Z</time>
      </trkpt>
      <trkpt lat="45.764" lon="2.95553">
        <ele>1014</ele>
        <time>2014-08-22T09:51:57Z</time>
      </trkpt>
      <trkpt lat="45.76401" lon="2.95551">
        <ele>1014</ele>
        <time>2014-08-22T09:51:59Z</time>
      </trkpt>
      <trkpt lat="45.76405" lon="2.95548">
        <ele>1015</ele>
        <time>2014-08-22T09:52:02Z</time>
      </trkpt>
      <trkpt lat="45.76408" lon="2.95546">
        <ele>1015</ele>
        <time>2014-08-22T09:52:04Z</time>
      </trkpt>
      <trkpt lat="45.76414" lon="2.95544">
        <ele>1016</ele>
        <time>2014-08-22T09:52:07Z</time>
      </trkpt>
      <trkpt lat="45.7642" lon="2.95544">
        <ele>1017</ele>
        <time>2014-08-22T09:52:10Z</time>
      </trkpt>
      <trkpt lat="45.76425" lon="2.95544">
        <ele>1018</ele>
        <time>2014-08-22T09:52:12Z</time>
      </trkpt>
      <trkpt lat="45.7643" lon="2.95541">
        <ele>1018</ele>
        <time>2014-08-22T09:52:15Z</time>
      </trkpt>
      <trkpt lat="45.76433" lon="2.95539">
        <ele>1019</ele>
        <time>2014-08-22T09:52:18Z</time>
      </trkpt>
      <trkpt lat="45.76434" lon="2.95539">
        <ele>1019</ele>
        <time>2014-08-22T09:52:20Z</time>
      </trkpt>
      <trkpt lat="45.76436" lon="2.9554">
        <ele>1019</ele>
        <time>2014-08-22T09:52:22Z</time>
      </trkpt>
      <trkpt lat="45.76438" lon="2.95542">
        <ele>1020</ele>
        <time>2014-08-22T09:52:25Z</time>
      </trkpt>
      <trkpt lat="45.7644" lon="2.95542">
        <ele>1020</ele>
        <time>2014-08-22T09:52:27Z</time>
      </trkpt>
      <trkpt lat="45.7644" lon="2.95541">
        <ele>1020</ele>
        <time>2014-08-22T09:52:29Z</time>
      </trkpt>
      <trkpt lat="45.7644" lon="2.95541">
        <ele>1020</ele>
        <time>2014-08-22T09:52:32Z</time>
      </trkpt>
      <trkpt lat="45.7644" lon="2.95541">
        <ele>1020</ele>
        <time>2014-08-22T09:52:34Z</time>
      </trkpt>
      <trkpt lat="45.7644" lon="2.95541">
        <ele>1020</ele>
        <time>2014-08-22T09:52:36Z</time>
      </trkpt>
      <trkpt lat="45.7644" lon="2.95541">
        <ele>1020</ele>
        <time>2014-08-22T09:52:38Z</time>
      </trkpt>
      <trkpt lat="45.7644" lon="2.95541">
        <ele>1020</ele>
        <time>2014-08-22T09:52:42Z</time>
      </trkpt>
      <trkpt lat="45.7644" lon="2.95541">
        <ele>1020</ele>
        <time>2014-08-22T09:52:46Z</time>
      </trkpt>
      <trkpt lat="45.76441" lon="2.95541">
        <ele>1020</ele>
        <time>2014-08-22T09:52:49Z</time>
      </trkpt>
      <trkpt lat="45.76441" lon="2.95536">
        <ele>1020</ele>
        <time>2014-08-22T09:52:52Z</time>
      </trkpt>
      <trkpt lat="45.76445" lon="2.9553">
        <ele>1019</ele>
        <time>2014-08-22T09:52:55Z</time>
      </trkpt>
      <trkpt lat="45.76447" lon="2.95524">
        <ele>1018</ele>
        <time>2014-08-22T09:52:58Z</time>
      </trkpt>
      <trkpt lat="45.76448" lon="2.95521">
        <ele>1018</ele>
        <time>2014-08-22T09:53:00Z</time>
      </trkpt>
      <trkpt lat="45.76453" lon="2.95519">
        <ele>1017</ele>
        <time>2014-08-22T09:53:02Z</time>
      </trkpt>
      <trkpt lat="45.76465" lon="2.95514">
        <ele>1017</ele>
        <time>2014-08-22T09:53:05Z</time>
      </trkpt>
      <trkpt lat="45.76474" lon="2.9551">
        <ele>1017</ele>
        <time>2014-08-22T09:53:07Z</time>
      </trkpt>
      <trkpt lat="45.76482" lon="2.95507">
        <ele>1016</ele>
        <time>2014-08-22T09:53:10Z</time>
      </trkpt>
      <trkpt lat="45.76489" lon="2.95505">
        <ele>1017</ele>
        <time>2014-08-22T09:53:12Z</time>
      </trkpt>
      <trkpt lat="45.76503" lon="2.95503">
        <ele>1017</ele>
        <time>2014-08-22T09:53:15Z</time>
      </trkpt>
      <trkpt lat="45.76515" lon="2.95501">
        <ele>1017</ele>
        <time>2014-08-22T09:53:18Z</time>
      </trkpt>
      <trkpt lat="45.76523" lon="2.95502">
        <ele>1018</ele>
        <time>2014-08-22T09:53:20Z</time>
      </trkpt>
      <trkpt lat="45.76529" lon="2.95503">
        <ele>1018</ele>
        <time>2014-08-22T09:53:22Z</time>
      </trkpt>
      <trkpt lat="45.76539" lon="2.95499">
        <ele>1019</ele>
        <time>2014-08-22T09:53:25Z</time>
      </trkpt>
      <trkpt lat="45.76545" lon="2.95494">
        <ele>1019</ele>
        <time>2014-08-22T09:53:27Z</time>
      </trkpt>
      <trkpt lat="45.76553" lon="2.95487">
        <ele>1019</ele>
        <time>2014-08-22T09:53:29Z</time>
      </trkpt>
      <trkpt lat="45.76569" lon="2.95478">
        <ele>1018</ele>
        <time>2014-08-22T09:53:32Z</time>
      </trkpt>
      <trkpt lat="45.7658" lon="2.95469">
        <ele>1017</ele>
        <time>2014-08-22T09:53:35Z</time>
      </trkpt>
      <trkpt lat="45.76593" lon="2.9546">
        <ele>1018</ele>
        <time>2014-08-22T09:53:38Z</time>
      </trkpt>
      <trkpt lat="45.76614" lon="2.95449">
        <ele>1017</ele>
        <time>2014-08-22T09:53:41Z</time>
      </trkpt>
      <trkpt lat="45.76635" lon="2.95439">
        <ele>1016</ele>
        <time>2014-08-22T09:53:44Z</time>
      </trkpt>
      <trkpt lat="45.76646" lon="2.95434">
        <ele>1015</ele>
        <time>2014-08-22T09:53:46Z</time>
      </trkpt>
      <trkpt lat="45.76659" lon="2.95429">
        <ele>1014</ele>
        <time>2014-08-22T09:53:48Z</time>
      </trkpt>
      <trkpt lat="45.76677" lon="2.95425">
        <ele>1014</ele>
        <time>2014-08-22T09:53:51Z</time>
      </trkpt>
      <trkpt lat="45.7669" lon="2.95421">
        <ele>1014</ele>
        <time>2014-08-22T09:53:54Z</time>
      </trkpt>
      <trkpt lat="45.767" lon="2.95418">
        <ele>1014</ele>
        <time>2014-08-22T09:53:56Z</time>
      </trkpt>
      <trkpt lat="45.76708" lon="2.95414">
        <ele>1014</ele>
        <time>2014-08-22T09:53:58Z</time>
      </trkpt>
      <trkpt lat="45.76716" lon="2.95411">
        <ele>1014</ele>
        <time>2014-08-22T09:54:01Z</time>
      </trkpt>
      <trkpt lat="45.76724" lon="2.95409">
        <ele>1015</ele>
        <time>2014-08-22T09:54:04Z</time>
      </trkpt>
      <trkpt lat="45.7673" lon="2.95409">
        <ele>1015</ele>
        <time>2014-08-22T09:54:06Z</time>
      </trkpt>
      <trkpt lat="45.76736" lon="2.95412">
        <ele>1015</ele>
        <time>2014-08-22T09:54:09Z</time>
      </trkpt>
      <trkpt lat="45.7674" lon="2.95412">
        <ele>1015</ele>
        <time>2014-08-22T09:54:11Z</time>
      </trkpt>
      <trkpt lat="45.76744" lon="2.95411">
        <ele>1016</ele>
        <time>2014-08-22T09:54:13Z</time>
      </trkpt>
      <trkpt lat="45.76751" lon="2.95407">
        <ele>1017</ele>
        <time>2014-08-22T09:54:16Z</time>
      </trkpt>
      <trkpt lat="45.76763" lon="2.95401">
        <ele>1018</ele>
        <time>2014-08-22T09:54:19Z</time>
      </trkpt>
      <trkpt lat="45.76772" lon="2.95398">
        <ele>1018</ele>
        <time>2014-08-22T09:54:21Z</time>
      </trkpt>
      <trkpt lat="45.76783" lon="2.95389">
        <ele>1019</ele>
        <time>2014-08-22T09:54:24Z</time>
      </trkpt>
      <trkpt lat="45.76789" lon="2.95384">
        <ele>1019</ele>
        <time>2014-08-22T09:54:26Z</time>
      </trkpt>
      <trkpt lat="45.76802" lon="2.95378">
        <ele>1019</ele>
        <time>2014-08-22T09:54:29Z</time>
      </trkpt>
      <trkpt lat="45.76811" lon="2.95376">
        <ele>1019</ele>
        <time>2014-08-22T09:54:31Z</time>
      </trkpt>
      <trkpt lat="45.76821" lon="2.95374">
        <ele>1018</ele>
        <time>2014-08-22T09:54:33Z</time>
      </trkpt>
      <trkpt lat="45.7684" lon="2.9537">
        <ele>1018</ele>
        <time>2014-08-22T09:54:36Z</time>
      </trkpt>
      <trkpt lat="45.76857" lon="2.95364">
        <ele>1019</ele>
        <time>2014-08-22T09:54:39Z</time>
      </trkpt>
      <trkpt lat="45.76871" lon="2.95358">
        <ele>1019</ele>
        <time>2014-08-22T09:54:41Z</time>
      </trkpt>
      <trkpt lat="45.76883" lon="2.95354">
        <ele>1019</ele>
        <time>2014-08-22T09:54:43Z</time>
      </trkpt>
      <trkpt lat="45.76893" lon="2.95349">
        <ele>1019</ele>
        <time>2014-08-22T09:54:45Z</time>
      </trkpt>
      <trkpt lat="45.76903" lon="2.95345">
        <ele>1019</ele>
        <time>2014-08-22T09:54:47Z</time>
      </trkpt>
      <trkpt lat="45.76917" lon="2.95339">
        <ele>1019</ele>
        <time>2014-08-22T09:54:50Z</time>
      </trkpt>
      <trkpt lat="45.76929" lon="2.95335">
        <ele>1020</ele>
        <time>2014-08-22T09:54:53Z</time>
      </trkpt>
      <trkpt lat="45.76937" lon="2.95333">
        <ele>1020</ele>
        <time>2014-08-22T09:54:55Z</time>
      </trkpt>
      <trkpt lat="45.76947" lon="2.9533">
        <ele>1021</ele>
        <time>2014-08-22T09:54:58Z</time>
      </trkpt>
      <trkpt lat="45.76953" lon="2.95328">
        <ele>1021</ele>
        <time>2014-08-22T09:55:00Z</time>
      </trkpt>
      <trkpt lat="45.7696" lon="2.95326">
        <ele>1022</ele>
        <time>2014-08-22T09:55:02Z</time>
      </trkpt>
      <trkpt lat="45.7697" lon="2.95323">
        <ele>1023</ele>
        <time>2014-08-22T09:55:05Z</time>
      </trkpt>
      <trkpt lat="45.76976" lon="2.95322">
        <ele>1024</ele>
        <time>2014-08-22T09:55:07Z</time>
      </trkpt>
      <trkpt lat="45.76982" lon="2.95321">
        <ele>1024</ele>
        <time>2014-08-22T09:55:09Z</time>
      </trkpt>
      <trkpt lat="45.76985" lon="2.9532">
        <ele>1025</ele>
        <time>2014-08-22T09:55:11Z</time>
      </trkpt>
      <trkpt lat="45.76988" lon="2.95317">
        <ele>1025</ele>
        <time>2014-08-22T09:55:13Z</time>
      </trkpt>
      <trkpt lat="45.76995" lon="2.95309">
        <ele>1025</ele>
        <time>2014-08-22T09:55:16Z</time>
      </trkpt>
      <trkpt lat="45.77002" lon="2.95304">
        <ele>1025</ele>
        <time>2014-08-22T09:55:18Z</time>
      </trkpt>
      <trkpt lat="45.77012" lon="2.95298">
        <ele>1025</ele>
        <time>2014-08-22T09:55:21Z</time>
      </trkpt>
      <trkpt lat="45.77024" lon="2.95292">
        <ele>1025</ele>
        <time>2014-08-22T09:55:24Z</time>
      </trkpt>
      <trkpt lat="45.77032" lon="2.95287">
        <ele>1025</ele>
        <time>2014-08-22T09:55:26Z</time>
      </trkpt>
      <trkpt lat="45.77041" lon="2.95282">
        <ele>1025</ele>
        <time>2014-08-22T09:55:28Z</time>
      </trkpt>
      <trkpt lat="45.77052" lon="2.95274">
        <ele>1024</ele>
        <time>2014-08-22T09:55:30Z</time>
      </trkpt>
      <trkpt lat="45.77066" lon="2.95265">
        <ele>1023</ele>
        <time>2014-08-22T09:55:32Z</time>
      </trkpt>
      <trkpt lat="45.77089" lon="2.95253">
        <ele>1022</ele>
        <time>2014-08-22T09:55:35Z</time>
      </trkpt>
      <trkpt lat="45.77109" lon="2.95243">
        <ele>1020</ele>
        <time>2014-08-22T09:55:38Z</time>
      </trkpt>
      <trkpt lat="45.77121" lon="2.95236">
        <ele>1019</ele>
        <time>2014-08-22T09:55:40Z</time>
      </trkpt>
      <trkpt lat="45.77134" lon="2.95231">
        <ele>1017</ele>
        <time>2014-08-22T09:55:43Z</time>
      </trkpt>
      <trkpt lat="45.77142" lon="2.95224">
        <ele>1016</ele>
        <time>2014-08-22T09:55:45Z</time>
      </trkpt>
      <trkpt lat="45.77156" lon="2.95215">
        <ele>1014</ele>
        <time>2014-08-22T09:55:48Z</time>
      </trkpt>
      <trkpt lat="45.77167" lon="2.95208">
        <ele>1013</ele>
        <time>2014-08-22T09:55:50Z</time>
      </trkpt>
      <trkpt lat="45.77176" lon="2.95205">
        <ele>1012</ele>
        <time>2014-08-22T09:55:52Z</time>
      </trkpt>
      <trkpt lat="45.77184" lon="2.95202">
        <ele>1011</ele>
        <time>2014-08-22T09:55:54Z</time>
      </trkpt>
      <trkpt lat="45.77195" lon="2.95198">
        <ele>1010</ele>
        <time>2014-08-22T09:55:57Z</time>
      </trkpt>
      <trkpt lat="45.772" lon="2.95193">
        <ele>1008</ele>
        <time>2014-08-22T09:55:59Z</time>
      </trkpt>
      <trkpt lat="45.77205" lon="2.95189">
        <ele>1007</ele>
        <time>2014-08-22T09:56:02Z</time>
      </trkpt>
      <trkpt lat="45.77211" lon="2.95187">
        <ele>1007</ele>
        <time>2014-08-22T09:56:04Z</time>
      </trkpt>
      <trkpt lat="45.77218" lon="2.95181">
        <ele>1006</ele>
        <time>2014-08-22T09:56:06Z</time>
      </trkpt>
      <trkpt lat="45.77225" lon="2.95174">
        <ele>1004</ele>
        <time>2014-08-22T09:56:09Z</time>
      </trkpt>
      <trkpt lat="45.77231" lon="2.95174">
        <ele>1003</ele>
        <time>2014-08-22T09:56:11Z</time>
      </trkpt>
      <trkpt lat="45.7724" lon="2.95173">
        <ele>1002</ele>
        <time>2014-08-22T09:56:13Z</time>
      </trkpt>
      <trkpt lat="45.77253" lon="2.95176">
        <ele>1002</ele>
        <time>2014-08-22T09:56:16Z</time>
      </trkpt>
      <trkpt lat="45.77263" lon="2.95177">
        <ele>1001</ele>
        <time>2014-08-22T09:56:18Z</time>
      </trkpt>
      <trkpt lat="45.77279" lon="2.95182">
        <ele>999</ele>
        <time>2014-08-22T09:56:21Z</time>
      </trkpt>
      <trkpt lat="45.77298" lon="2.95186">
        <ele>998</ele>
        <time>2014-08-22T09:56:24Z</time>
      </trkpt>
      <trkpt lat="45.77313" lon="2.95191">
        <ele>996</ele>
        <time>2014-08-22T09:56:27Z</time>
      </trkpt>
      <trkpt lat="45.7732" lon="2.95192">
        <ele>995</ele>
        <time>2014-08-22T09:56:29Z</time>
      </trkpt>
      <trkpt lat="45.77326" lon="2.95198">
        <ele>993</ele>
        <time>2014-08-22T09:56:31Z</time>
      </trkpt>
      <trkpt lat="45.77335" lon="2.95206">
        <ele>993</ele>
        <time>2014-08-22T09:56:34Z</time>
      </trkpt>
      <trkpt lat="45.77341" lon="2.95214">
        <ele>994</ele>
        <time>2014-08-22T09:56:36Z</time>
      </trkpt>
      <trkpt lat="45.77349" lon="2.95226">
        <ele>995</ele>
        <time>2014-08-22T09:56:39Z</time>
      </trkpt>
      <trkpt lat="45.77352" lon="2.95233">
        <ele>995</ele>
        <time>2014-08-22T09:56:41Z</time>
      </trkpt>
      <trkpt lat="45.77356" lon="2.95238">
        <ele>996</ele>
        <time>2014-08-22T09:56:43Z</time>
      </trkpt>
      <trkpt lat="45.77361" lon="2.95239">
        <ele>996</ele>
        <time>2014-08-22T09:56:45Z</time>
      </trkpt>
      <trkpt lat="45.77366" lon="2.95239">
        <ele>996</ele>
        <time>2014-08-22T09:56:47Z</time>
      </trkpt>
      <trkpt lat="45.77372" lon="2.9524">
        <ele>997</ele>
        <time>2014-08-22T09:56:49Z</time>
      </trkpt>
      <trkpt lat="45.7738" lon="2.9524">
        <ele>997</ele>
        <time>2014-08-22T09:56:51Z</time>
      </trkpt>
      <trkpt lat="45.77387" lon="2.95241">
        <ele>998</ele>
        <time>2014-08-22T09:56:53Z</time>
      </trkpt>
      <trkpt lat="45.77394" lon="2.95242">
        <ele>999</ele>
        <time>2014-08-22T09:56:55Z</time>
      </trkpt>
      <trkpt lat="45.77404" lon="2.9524">
        <ele>999</ele>
        <time>2014-08-22T09:56:58Z</time>
      </trkpt>
      <trkpt lat="45.77411" lon="2.95239">
        <ele>999</ele>
        <time>2014-08-22T09:57:00Z</time>
      </trkpt>
      <trkpt lat="45.77422" lon="2.95238">
        <ele>1000</ele>
        <time>2014-08-22T09:57:03Z</time>
      </trkpt>
      <trkpt lat="45.77434" lon="2.95237">
        <ele>1001</ele>
        <time>2014-08-22T09:57:06Z</time>
      </trkpt>
      <trkpt lat="45.77442" lon="2.95237">
        <ele>1001</ele>
        <time>2014-08-22T09:57:08Z</time>
      </trkpt>
      <trkpt lat="45.77451" lon="2.95234">
        <ele>1002</ele>
        <time>2014-08-22T09:57:11Z</time>
      </trkpt>
      <trkpt lat="45.77457" lon="2.95233">
        <ele>1003</ele>
        <time>2014-08-22T09:57:13Z</time>
      </trkpt>
      <trkpt lat="45.77465" lon="2.95232">
        <ele>1004</ele>
        <time>2014-08-22T09:57:15Z</time>
      </trkpt>
      <trkpt lat="45.77474" lon="2.9523">
        <ele>1004</ele>
        <time>2014-08-22T09:57:18Z</time>
      </trkpt>
      <trkpt lat="45.77483" lon="2.95227">
        <ele>1005</ele>
        <time>2014-08-22T09:57:21Z</time>
      </trkpt>
      <trkpt lat="45.77495" lon="2.95225">
        <ele>1005</ele>
        <time>2014-08-22T09:57:24Z</time>
      </trkpt>
      <trkpt lat="45.77501" lon="2.95226">
        <ele>1006</ele>
        <time>2014-08-22T09:57:26Z</time>
      </trkpt>
      <trkpt lat="45.77506" lon="2.95225">
        <ele>1007</ele>
        <time>2014-08-22T09:57:28Z</time>
      </trkpt>
      <trkpt lat="45.77512" lon="2.95223">
        <ele>1007</ele>
        <time>2014-08-22T09:57:30Z</time>
      </trkpt>
      <trkpt lat="45.77523" lon="2.9522">
        <ele>1008</ele>
        <time>2014-08-22T09:57:33Z</time>
      </trkpt>
      <trkpt lat="45.7753" lon="2.95217">
        <ele>1008</ele>
        <time>2014-08-22T09:57:35Z</time>
      </trkpt>
      <trkpt lat="45.77541" lon="2.95215">
        <ele>1008</ele>
        <time>2014-08-22T09:57:38Z</time>
      </trkpt>
      <trkpt lat="45.77548" lon="2.95215">
        <ele>1008</ele>
        <time>2014-08-22T09:57:40Z</time>
      </trkpt>
      <trkpt lat="45.7756" lon="2.95215">
        <ele>1009</ele>
        <time>2014-08-22T09:57:43Z</time>
      </trkpt>
      <trkpt lat="45.77571" lon="2.95216">
        <ele>1009</ele>
        <time>2014-08-22T09:57:45Z</time>
      </trkpt>
      <trkpt lat="45.77581" lon="2.95219">
        <ele>1009</ele>
        <time>2014-08-22T09:57:47Z</time>
      </trkpt>
      <trkpt lat="45.77594" lon="2.95224">
        <ele>1009</ele>
        <time>2014-08-22T09:57:50Z</time>
      </trkpt>
      <trkpt lat="45.77606" lon="2.95227">
        <ele>1009</ele>
        <time>2014-08-22T09:57:52Z</time>
      </trkpt>
      <trkpt lat="45.77617" lon="2.95232">
        <ele>1009</ele>
        <time>2014-08-22T09:57:54Z</time>
      </trkpt>
      <trkpt lat="45.77628" lon="2.95235">
        <ele>1008</ele>
        <time>2014-08-22T09:57:56Z</time>
      </trkpt>
      <trkpt lat="45.77644" lon="2.95234">
        <ele>1008</ele>
        <time>2014-08-22T09:57:59Z</time>
      </trkpt>
      <trkpt lat="45.77655" lon="2.95235">
        <ele>1007</ele>
        <time>2014-08-22T09:58:01Z</time>
      </trkpt>
      <trkpt lat="45.77665" lon="2.95236">
        <ele>1006</ele>
        <time>2014-08-22T09:58:03Z</time>
      </trkpt>
      <trkpt lat="45.77679" lon="2.95236">
        <ele>1005</ele>
        <time>2014-08-22T09:58:06Z</time>
      </trkpt>
      <trkpt lat="45.77692" lon="2.95237">
        <ele>1005</ele>
        <time>2014-08-22T09:58:09Z</time>
      </trkpt>
      <trkpt lat="45.77704" lon="2.95241">
        <ele>1005</ele>
        <time>2014-08-22T09:58:12Z</time>
      </trkpt>
      <trkpt lat="45.77724" lon="2.95246">
        <ele>1005</ele>
        <time>2014-08-22T09:58:15Z</time>
      </trkpt>
      <trkpt lat="45.77735" lon="2.95246">
        <ele>1004</ele>
        <time>2014-08-22T09:58:17Z</time>
      </trkpt>
      <trkpt lat="45.77746" lon="2.95251">
        <ele>1003</ele>
        <time>2014-08-22T09:58:19Z</time>
      </trkpt>
      <trkpt lat="45.77763" lon="2.95261">
        <ele>1002</ele>
        <time>2014-08-22T09:58:22Z</time>
      </trkpt>
      <trkpt lat="45.77774" lon="2.95265">
        <ele>1002</ele>
        <time>2014-08-22T09:58:24Z</time>
      </trkpt>
      <trkpt lat="45.77795" lon="2.95279">
        <ele>1002</ele>
        <time>2014-08-22T09:58:27Z</time>
      </trkpt>
      <trkpt lat="45.77812" lon="2.9529">
        <ele>1001</ele>
        <time>2014-08-22T09:58:30Z</time>
      </trkpt>
      <trkpt lat="45.77825" lon="2.95297">
        <ele>1000</ele>
        <time>2014-08-22T09:58:33Z</time>
      </trkpt>
      <trkpt lat="45.77829" lon="2.95298">
        <ele>1000</ele>
        <time>2014-08-22T09:58:35Z</time>
      </trkpt>
      <trkpt lat="45.77833" lon="2.95301">
        <ele>1000</ele>
        <time>2014-08-22T09:58:37Z</time>
      </trkpt>
      <trkpt lat="45.77842" lon="2.95305">
        <ele>1000</ele>
        <time>2014-08-22T09:58:40Z</time>
      </trkpt>
      <trkpt lat="45.77851" lon="2.95311">
        <ele>1000</ele>
        <time>2014-08-22T09:58:43Z</time>
      </trkpt>
      <trkpt lat="45.77864" lon="2.95318">
        <ele>1000</ele>
        <time>2014-08-22T09:58:46Z</time>
      </trkpt>
      <trkpt lat="45.77872" lon="2.95319">
        <ele>1001</ele>
        <time>2014-08-22T09:58:48Z</time>
      </trkpt>
      <trkpt lat="45.77879" lon="2.9532">
        <ele>1001</ele>
        <time>2014-08-22T09:58:50Z</time>
      </trkpt>
      <trkpt lat="45.77885" lon="2.95322">
        <ele>1001</ele>
        <time>2014-08-22T09:58:52Z</time>
      </trkpt>
      <trkpt lat="45.77895" lon="2.95325">
        <ele>1002</ele>
        <time>2014-08-22T09:58:55Z</time>
      </trkpt>
      <trkpt lat="45.77902" lon="2.95331">
        <ele>1003</ele>
        <time>2014-08-22T09:58:57Z</time>
      </trkpt>
      <trkpt lat="45.77913" lon="2.95339">
        <ele>1004</ele>
        <time>2014-08-22T09:59:00Z</time>
      </trkpt>
      <trkpt lat="45.77922" lon="2.95347">
        <ele>1005</ele>
        <time>2014-08-22T09:59:03Z</time>
      </trkpt>
      <trkpt lat="45.77934" lon="2.95358">
        <ele>1006</ele>
        <time>2014-08-22T09:59:06Z</time>
      </trkpt>
      <trkpt lat="45.77941" lon="2.95364">
        <ele>1007</ele>
        <time>2014-08-22T09:59:08Z</time>
      </trkpt>
      <trkpt lat="45.77952" lon="2.95372">
        <ele>1008</ele>
        <time>2014-08-22T09:59:11Z</time>
      </trkpt>
      <trkpt lat="45.77962" lon="2.9538">
        <ele>1008</ele>
        <time>2014-08-22T09:59:14Z</time>
      </trkpt>
      <trkpt lat="45.77968" lon="2.95387">
        <ele>1009</ele>
        <time>2014-08-22T09:59:16Z</time>
      </trkpt>
      <trkpt lat="45.77978" lon="2.95396">
        <ele>1009</ele>
        <time>2014-08-22T09:59:19Z</time>
      </trkpt>
      <trkpt lat="45.77984" lon="2.95402">
        <ele>1009</ele>
        <time>2014-08-22T09:59:21Z</time>
      </trkpt>
      <trkpt lat="45.77995" lon="2.9541">
        <ele>1010</ele>
        <time>2014-08-22T09:59:24Z</time>
      </trkpt>
      <trkpt lat="45.78001" lon="2.95416">
        <ele>1010</ele>
        <time>2014-08-22T09:59:26Z</time>
      </trkpt>
      <trkpt lat="45.78005" lon="2.95423">
        <ele>1010</ele>
        <time>2014-08-22T09:59:28Z</time>
      </trkpt>
      <trkpt lat="45.78011" lon="2.95435">
        <ele>1011</ele>
        <time>2014-08-22T09:59:31Z</time>
      </trkpt>
      <trkpt lat="45.78014" lon="2.95443">
        <ele>1011</ele>
        <time>2014-08-22T09:59:33Z</time>
      </trkpt>
      <trkpt lat="45.78017" lon="2.95449">
        <ele>1011</ele>
        <time>2014-08-22T09:59:35Z</time>
      </trkpt>
      <trkpt lat="45.78021" lon="2.95461">
        <ele>1011</ele>
        <time>2014-08-22T09:59:38Z</time>
      </trkpt>
      <trkpt lat="45.78024" lon="2.95473">
        <ele>1012</ele>
        <time>2014-08-22T09:59:41Z</time>
      </trkpt>
      <trkpt lat="45.78029" lon="2.95486">
        <ele>1012</ele>
        <time>2014-08-22T09:59:44Z</time>
      </trkpt>
      <trkpt lat="45.78032" lon="2.95495">
        <ele>1012</ele>
        <time>2014-08-22T09:59:46Z</time>
      </trkpt>
      <trkpt lat="45.78036" lon="2.95507">
        <ele>1012</ele>
        <time>2014-08-22T09:59:49Z</time>
      </trkpt>
      <trkpt lat="45.7804" lon="2.95513">
        <ele>1012</ele>
        <time>2014-08-22T09:59:51Z</time>
      </trkpt>
      <trkpt lat="45.78044" lon="2.95514">
        <ele>1013</ele>
        <time>2014-08-22T09:59:53Z</time>
      </trkpt>
      <trkpt lat="45.7805" lon="2.95524">
        <ele>1013</ele>
        <time>2014-08-22T09:59:56Z</time>
      </trkpt>
      <trkpt lat="45.78055" lon="2.95533">
        <ele>1014</ele>
        <time>2014-08-22T09:59:58Z</time>
      </trkpt>
      <trkpt lat="45.78062" lon="2.95545">
        <ele>1014</ele>
        <time>2014-08-22T10:00:01Z</time>
      </trkpt>
      <trkpt lat="45.78071" lon="2.95554">
        <ele>1014</ele>
        <time>2014-08-22T10:00:04Z</time>
      </trkpt>
      <trkpt lat="45.78078" lon="2.95561">
        <ele>1014</ele>
        <time>2014-08-22T10:00:06Z</time>
      </trkpt>
      <trkpt lat="45.78086" lon="2.9557">
        <ele>1014</ele>
        <time>2014-08-22T10:00:09Z</time>
      </trkpt>
      <trkpt lat="45.7809" lon="2.95575">
        <ele>1013</ele>
        <time>2014-08-22T10:00:11Z</time>
      </trkpt>
      <trkpt lat="45.78095" lon="2.95586">
        <ele>1012</ele>
        <time>2014-08-22T10:00:14Z</time>
      </trkpt>
      <trkpt lat="45.78097" lon="2.95594">
        <ele>1012</ele>
        <time>2014-08-22T10:00:16Z</time>
      </trkpt>
      <trkpt lat="45.781" lon="2.95602">
        <ele>1011</ele>
        <time>2014-08-22T10:00:18Z</time>
      </trkpt>
      <trkpt lat="45.78105" lon="2.95618">
        <ele>1011</ele>
        <time>2014-08-22T10:00:21Z</time>
      </trkpt>
      <trkpt lat="45.78109" lon="2.95636">
        <ele>1011</ele>
        <time>2014-08-22T10:00:24Z</time>
      </trkpt>
      <trkpt lat="45.78111" lon="2.95652">
        <ele>1011</ele>
        <time>2014-08-22T10:00:26Z</time>
      </trkpt>
      <trkpt lat="45.78115" lon="2.95668">
        <ele>1010</ele>
        <time>2014-08-22T10:00:28Z</time>
      </trkpt>
      <trkpt lat="45.7812" lon="2.9569">
        <ele>1010</ele>
        <time>2014-08-22T10:00:31Z</time>
      </trkpt>
      <trkpt lat="45.78127" lon="2.95704">
        <ele>1010</ele>
        <time>2014-08-22T10:00:33Z</time>
      </trkpt>
      <trkpt lat="45.78134" lon="2.95717">
        <ele>1010</ele>
        <time>2014-08-22T10:00:35Z</time>
      </trkpt>
      <trkpt lat="45.78146" lon="2.95732">
        <ele>1009</ele>
        <time>2014-08-22T10:00:38Z</time>
      </trkpt>
      <trkpt lat="45.78152" lon="2.95741">
        <ele>1009</ele>
        <time>2014-08-22T10:00:40Z</time>
      </trkpt>
      <trkpt lat="45.78162" lon="2.95752">
        <ele>1008</ele>
        <time>2014-08-22T10:00:43Z</time>
      </trkpt>
      <trkpt lat="45.78172" lon="2.95767">
        <ele>1008</ele>
        <time>2014-08-22T10:00:46Z</time>
      </trkpt>
      <trkpt lat="45.78178" lon="2.95777">
        <ele>1008</ele>
        <time>2014-08-22T10:00:48Z</time>
      </trkpt>
      <trkpt lat="45.78186" lon="2.9579">
        <ele>1008</ele>
        <time>2014-08-22T10:00:51Z</time>
      </trkpt>
      <trkpt lat="45.78192" lon="2.95797">
        <ele>1008</ele>
        <time>2014-08-22T10:00:53Z</time>
      </trkpt>
      <trkpt lat="45.78199" lon="2.95805">
        <ele>1008</ele>
        <time>2014-08-22T10:00:56Z</time>
      </trkpt>
      <trkpt lat="45.78204" lon="2.95812">
        <ele>1008</ele>
        <time>2014-08-22T10:00:59Z</time>
      </trkpt>
      <trkpt lat="45.78206" lon="2.95814">
        <ele>1008</ele>
        <time>2014-08-22T10:01:01Z</time>
      </trkpt>
      <trkpt lat="45.78208" lon="2.95816">
        <ele>1008</ele>
        <time>2014-08-22T10:01:04Z</time>
      </trkpt>
      <trkpt lat="45.78218" lon="2.95827">
        <ele>1011</ele>
        <time>2014-08-22T10:01:07Z</time>
      </trkpt>
      <trkpt lat="45.78221" lon="2.95835">
        <ele>1011</ele>
        <time>2014-08-22T10:01:10Z</time>
      </trkpt>
      <trkpt lat="45.78223" lon="2.95844">
        <ele>1010</ele>
        <time>2014-08-22T10:01:13Z</time>
      </trkpt>
      <trkpt lat="45.78224" lon="2.95856">
        <ele>1010</ele>
        <time>2014-08-22T10:01:16Z</time>
      </trkpt>
      <trkpt lat="45.78226" lon="2.95867">
        <ele>1010</ele>
        <time>2014-08-22T10:01:19Z</time>
      </trkpt>
      <trkpt lat="45.78228" lon="2.95875">
        <ele>1011</ele>
        <time>2014-08-22T10:01:21Z</time>
      </trkpt>
      <trkpt lat="45.7823" lon="2.95881">
        <ele>1011</ele>
        <time>2014-08-22T10:01:24Z</time>
      </trkpt>
      <trkpt lat="45.78231" lon="2.95884">
        <ele>1011</ele>
        <time>2014-08-22T10:01:26Z</time>
      </trkpt>
      <trkpt lat="45.78232" lon="2.95889">
        <ele>1011</ele>
        <time>2014-08-22T10:01:28Z</time>
      </trkpt>
      <trkpt lat="45.78233" lon="2.95895">
        <ele>1011</ele>
        <time>2014-08-22T10:01:30Z</time>
      </trkpt>
      <trkpt lat="45.78238" lon="2.95906">
        <ele>1012</ele>
        <time>2014-08-22T10:01:33Z</time>
      </trkpt>
      <trkpt lat="45.78241" lon="2.95916">
        <ele>1012</ele>
        <time>2014-08-22T10:01:35Z</time>
      </trkpt>
      <trkpt lat="45.78243" lon="2.95925">
        <ele>1012</ele>
        <time>2014-08-22T10:01:37Z</time>
      </trkpt>
      <trkpt lat="45.78248" lon="2.95939">
        <ele>1012</ele>
        <time>2014-08-22T10:01:40Z</time>
      </trkpt>
      <trkpt lat="45.78251" lon="2.95948">
        <ele>1013</ele>
        <time>2014-08-22T10:01:42Z</time>
      </trkpt>
      <trkpt lat="45.78257" lon="2.95962">
        <ele>1013</ele>
        <time>2014-08-22T10:01:45Z</time>
      </trkpt>
      <trkpt lat="45.7826" lon="2.95971">
        <ele>1013</ele>
        <time>2014-08-22T10:01:47Z</time>
      </trkpt>
      <trkpt lat="45.78264" lon="2.95986">
        <ele>1013</ele>
        <time>2014-08-22T10:01:50Z</time>
      </trkpt>
      <trkpt lat="45.78268" lon="2.95995">
        <ele>1014</ele>
        <time>2014-08-22T10:01:52Z</time>
      </trkpt>
      <trkpt lat="45.78271" lon="2.9601">
        <ele>1014</ele>
        <time>2014-08-22T10:01:55Z</time>
      </trkpt>
      <trkpt lat="45.78273" lon="2.96019">
        <ele>1014</ele>
        <time>2014-08-22T10:01:57Z</time>
      </trkpt>
      <trkpt lat="45.78277" lon="2.96031">
        <ele>1014</ele>
        <time>2014-08-22T10:02:00Z</time>
      </trkpt>
      <trkpt lat="45.78283" lon="2.96044">
        <ele>1015</ele>
        <time>2014-08-22T10:02:03Z</time>
      </trkpt>
      <trkpt lat="45.78289" lon="2.96055">
        <ele>1015</ele>
        <time>2014-08-22T10:02:06Z</time>
      </trkpt>
      <trkpt lat="45.78293" lon="2.96068">
        <ele>1016</ele>
        <time>2014-08-22T10:02:09Z</time>
      </trkpt>
      <trkpt lat="45.78297" lon="2.96076">
        <ele>1016</ele>
        <time>2014-08-22T10:02:11Z</time>
      </trkpt>
      <trkpt lat="45.78305" lon="2.96082">
        <ele>1017</ele>
        <time>2014-08-22T10:02:14Z</time>
      </trkpt>
      <trkpt lat="45.7831" lon="2.96089">
        <ele>1017</ele>
        <time>2014-08-22T10:02:16Z</time>
      </trkpt>
      <trkpt lat="45.78316" lon="2.961">
        <ele>1017</ele>
        <time>2014-08-22T10:02:19Z</time>
      </trkpt>
      <trkpt lat="45.78325" lon="2.96106">
        <ele>1018</ele>
        <time>2014-08-22T10:02:22Z</time>
      </trkpt>
      <trkpt lat="45.78335" lon="2.9611">
        <ele>1019</ele>
        <time>2014-08-22T10:02:25Z</time>
      </trkpt>
      <trkpt lat="45.78341" lon="2.96113">
        <ele>1019</ele>
        <time>2014-08-22T10:02:27Z</time>
      </trkpt>
      <trkpt lat="45.78346" lon="2.96117">
        <ele>1020</ele>
        <time>2014-08-22T10:02:29Z</time>
      </trkpt>
      <trkpt lat="45.7835" lon="2.96117">
        <ele>1020</ele>
        <time>2014-08-22T10:02:32Z</time>
      </trkpt>
      <trkpt lat="45.78353" lon="2.96117">
        <ele>1020</ele>
        <time>2014-08-22T10:02:34Z</time>
      </trkpt>
      <trkpt lat="45.78358" lon="2.96116">
        <ele>1020</ele>
        <time>2014-08-22T10:02:37Z</time>
      </trkpt>
      <trkpt lat="45.78367" lon="2.96116">
        <ele>1021</ele>
        <time>2014-08-22T10:02:40Z</time>
      </trkpt>
      <trkpt lat="45.78373" lon="2.96115">
        <ele>1022</ele>
        <time>2014-08-22T10:02:43Z</time>
      </trkpt>
      <trkpt lat="45.7838" lon="2.96112">
        <ele>1022</ele>
        <time>2014-08-22T10:02:46Z</time>
      </trkpt>
      <trkpt lat="45.78386" lon="2.96111">
        <ele>1023</ele>
        <time>2014-08-22T10:02:49Z</time>
      </trkpt>
      <trkpt lat="45.78393" lon="2.96107">
        <ele>1024</ele>
        <time>2014-08-22T10:02:52Z</time>
      </trkpt>
      <trkpt lat="45.78399" lon="2.96106">
        <ele>1024</ele>
        <time>2014-08-22T10:02:54Z</time>
      </trkpt>
      <trkpt lat="45.78407" lon="2.96104">
        <ele>1024</ele>
        <time>2014-08-22T10:02:57Z</time>
      </trkpt>
      <trkpt lat="45.78416" lon="2.96102">
        <ele>1025</ele>
        <time>2014-08-22T10:03:00Z</time>
      </trkpt>
      <trkpt lat="45.78421" lon="2.96101">
        <ele>1025</ele>
        <time>2014-08-22T10:03:02Z</time>
      </trkpt>
      <trkpt lat="45.78427" lon="2.96102">
        <ele>1025</ele>
        <time>2014-08-22T10:03:04Z</time>
      </trkpt>
      <trkpt lat="45.78433" lon="2.96102">
        <ele>1026</ele>
        <time>2014-08-22T10:03:06Z</time>
      </trkpt>
      <trkpt lat="45.78439" lon="2.96105">
        <ele>1026</ele>
        <time>2014-08-22T10:03:08Z</time>
      </trkpt>
      <trkpt lat="45.78447" lon="2.96109">
        <ele>1027</ele>
        <time>2014-08-22T10:03:11Z</time>
      </trkpt>
      <trkpt lat="45.78456" lon="2.96113">
        <ele>1028</ele>
        <time>2014-08-22T10:03:14Z</time>
      </trkpt>
      <trkpt lat="45.78462" lon="2.96118">
        <ele>1029</ele>
        <time>2014-08-22T10:03:16Z</time>
      </trkpt>
      <trkpt lat="45.78468" lon="2.96124">
        <ele>1029</ele>
        <time>2014-08-22T10:03:18Z</time>
      </trkpt>
      <trkpt lat="45.78473" lon="2.96129">
        <ele>1030</ele>
        <time>2014-08-22T10:03:20Z</time>
      </trkpt>
      <trkpt lat="45.78477" lon="2.96134">
        <ele>1030</ele>
        <time>2014-08-22T10:03:23Z</time>
      </trkpt>
      <trkpt lat="45.78483" lon="2.96137">
        <ele>1031</ele>
        <time>2014-08-22T10:03:26Z</time>
      </trkpt>
      <trkpt lat="45.78487" lon="2.96141">
        <ele>1031</ele>
        <time>2014-08-22T10:03:29Z</time>
      </trkpt>
      <trkpt lat="45.7849" lon="2.96144">
        <ele>1032</ele>
        <time>2014-08-22T10:03:31Z</time>
      </trkpt>
      <trkpt lat="45.78493" lon="2.9615">
        <ele>1032</ele>
        <time>2014-08-22T10:03:33Z</time>
      </trkpt>
      <trkpt lat="45.78494" lon="2.96154">
        <ele>1032</ele>
        <time>2014-08-22T10:03:35Z</time>
      </trkpt>
      <trkpt lat="45.78494" lon="2.9616">
        <ele>1033</ele>
        <time>2014-08-22T10:03:38Z</time>
      </trkpt>
      <trkpt lat="45.78495" lon="2.96164">
        <ele>1034</ele>
        <time>2014-08-22T10:03:41Z</time>
      </trkpt>
      <trkpt lat="45.78495" lon="2.96167">
        <ele>1034</ele>
        <time>2014-08-22T10:03:43Z</time>
      </trkpt>
      <trkpt lat="45.78494" lon="2.96172">
        <ele>1034</ele>
        <time>2014-08-22T10:03:46Z</time>
      </trkpt>
      <trkpt lat="45.78493" lon="2.96179">
        <ele>1035</ele>
        <time>2014-08-22T10:03:49Z</time>
      </trkpt>
      <trkpt lat="45.78492" lon="2.96182">
        <ele>1035</ele>
        <time>2014-08-22T10:03:51Z</time>
      </trkpt>
      <trkpt lat="45.7849" lon="2.96185">
        <ele>1036</ele>
        <time>2014-08-22T10:03:54Z</time>
      </trkpt>
      <trkpt lat="45.78487" lon="2.96188">
        <ele>1038</ele>
        <time>2014-08-22T10:03:57Z</time>
      </trkpt>
      <trkpt lat="45.78483" lon="2.96192">
        <ele>1039</ele>
        <time>2014-08-22T10:04:00Z</time>
      </trkpt>
      <trkpt lat="45.78481" lon="2.96193">
        <ele>1039</ele>
        <time>2014-08-22T10:04:02Z</time>
      </trkpt>
      <trkpt lat="45.78477" lon="2.96197">
        <ele>1040</ele>
        <time>2014-08-22T10:04:05Z</time>
      </trkpt>
      <trkpt lat="45.78475" lon="2.96199">
        <ele>1040</ele>
        <time>2014-08-22T10:04:07Z</time>
      </trkpt>
      <trkpt lat="45.78471" lon="2.96199">
        <ele>1041</ele>
        <time>2014-08-22T10:04:10Z</time>
      </trkpt>
      <trkpt lat="45.78467" lon="2.96199">
        <ele>1041</ele>
        <time>2014-08-22T10:04:12Z</time>
      </trkpt>
      <trkpt lat="45.7846" lon="2.96198">
        <ele>1041</ele>
        <time>2014-08-22T10:04:15Z</time>
      </trkpt>
      <trkpt lat="45.78457" lon="2.96199">
        <ele>1041</ele>
        <time>2014-08-22T10:04:17Z</time>
      </trkpt>
      <trkpt lat="45.78453" lon="2.96203">
        <ele>1041</ele>
        <time>2014-08-22T10:04:20Z</time>
      </trkpt>
      <trkpt lat="45.78449" lon="2.96209">
        <ele>1042</ele>
        <time>2014-08-22T10:04:23Z</time>
      </trkpt>
      <trkpt lat="45.78444" lon="2.96215">
        <ele>1043</ele>
        <time>2014-08-22T10:04:26Z</time>
      </trkpt>
      <trkpt lat="45.78438" lon="2.9622">
        <ele>1044</ele>
        <time>2014-08-22T10:04:29Z</time>
      </trkpt>
      <trkpt lat="45.78433" lon="2.96226">
        <ele>1045</ele>
        <time>2014-08-22T10:04:32Z</time>
      </trkpt>
      <trkpt lat="45.78427" lon="2.96232">
        <ele>1045</ele>
        <time>2014-08-22T10:04:35Z</time>
      </trkpt>
      <trkpt lat="45.78424" lon="2.96236">
        <ele>1046</ele>
        <time>2014-08-22T10:04:37Z</time>
      </trkpt>
      <trkpt lat="45.7842" lon="2.96244">
        <ele>1047</ele>
        <time>2014-08-22T10:04:40Z</time>
      </trkpt>
      <trkpt lat="45.78417" lon="2.96248">
        <ele>1047</ele>
        <time>2014-08-22T10:04:42Z</time>
      </trkpt>
      <trkpt lat="45.78413" lon="2.96252">
        <ele>1048</ele>
        <time>2014-08-22T10:04:44Z</time>
      </trkpt>
      <trkpt lat="45.78409" lon="2.96258">
        <ele>1049</ele>
        <time>2014-08-22T10:04:47Z</time>
      </trkpt>
      <trkpt lat="45.78405" lon="2.96267">
        <ele>1049</ele>
        <time>2014-08-22T10:04:50Z</time>
      </trkpt>
      <trkpt lat="45.78401" lon="2.96274">
        <ele>1050</ele>
        <time>2014-08-22T10:04:53Z</time>
      </trkpt>
      <trkpt lat="45.78399" lon="2.96279">
        <ele>1051</ele>
        <time>2014-08-22T10:04:55Z</time>
      </trkpt>
      <trkpt lat="45.78395" lon="2.96287">
        <ele>1052</ele>
        <time>2014-08-22T10:04:58Z</time>
      </trkpt>
      <trkpt lat="45.78394" lon="2.96294">
        <ele>1052</ele>
        <time>2014-08-22T10:05:00Z</time>
      </trkpt>
      <trkpt lat="45.78392" lon="2.96301">
        <ele>1053</ele>
        <time>2014-08-22T10:05:02Z</time>
      </trkpt>
      <trkpt lat="45.7839" lon="2.96307">
        <ele>1053</ele>
        <time>2014-08-22T10:05:04Z</time>
      </trkpt>
      <trkpt lat="45.78387" lon="2.96317">
        <ele>1054</ele>
        <time>2014-08-22T10:05:07Z</time>
      </trkpt>
      <trkpt lat="45.78386" lon="2.96326">
        <ele>1055</ele>
        <time>2014-08-22T10:05:10Z</time>
      </trkpt>
      <trkpt lat="45.78385" lon="2.96334">
        <ele>1056</ele>
        <time>2014-08-22T10:05:13Z</time>
      </trkpt>
      <trkpt lat="45.78384" lon="2.96339">
        <ele>1056</ele>
        <time>2014-08-22T10:05:15Z</time>
      </trkpt>
      <trkpt lat="45.78383" lon="2.96349">
        <ele>1057</ele>
        <time>2014-08-22T10:05:18Z</time>
      </trkpt>
      <trkpt lat="45.78382" lon="2.9636">
        <ele>1057</ele>
        <time>2014-08-22T10:05:21Z</time>
      </trkpt>
      <trkpt lat="45.7838" lon="2.96373">
        <ele>1058</ele>
        <time>2014-08-22T10:05:24Z</time>
      </trkpt>
      <trkpt lat="45.78379" lon="2.96388">
        <ele>1058</ele>
        <time>2014-08-22T10:05:27Z</time>
      </trkpt>
      <trkpt lat="45.78378" lon="2.96402">
        <ele>1059</ele>
        <time>2014-08-22T10:05:30Z</time>
      </trkpt>
      <trkpt lat="45.78377" lon="2.96411">
        <ele>1059</ele>
        <time>2014-08-22T10:05:32Z</time>
      </trkpt>
      <trkpt lat="45.78377" lon="2.96426">
        <ele>1059</ele>
        <time>2014-08-22T10:05:35Z</time>
      </trkpt>
      <trkpt lat="45.78378" lon="2.96442">
        <ele>1060</ele>
        <time>2014-08-22T10:05:38Z</time>
      </trkpt>
      <trkpt lat="45.78381" lon="2.96458">
        <ele>1060</ele>
        <time>2014-08-22T10:05:41Z</time>
      </trkpt>
      <trkpt lat="45.78384" lon="2.96473">
        <ele>1060</ele>
        <time>2014-08-22T10:05:44Z</time>
      </trkpt>
      <trkpt lat="45.78386" lon="2.96488">
        <ele>1060</ele>
        <time>2014-08-22T10:05:47Z</time>
      </trkpt>
      <trkpt lat="45.78388" lon="2.96506">
        <ele>1060</ele>
        <time>2014-08-22T10:05:50Z</time>
      </trkpt>
      <trkpt lat="45.78391" lon="2.96516">
        <ele>1060</ele>
        <time>2014-08-22T10:05:52Z</time>
      </trkpt>
      <trkpt lat="45.78394" lon="2.96531">
        <ele>1059</ele>
        <time>2014-08-22T10:05:55Z</time>
      </trkpt>
      <trkpt lat="45.78394" lon="2.9654">
        <ele>1060</ele>
        <time>2014-08-22T10:05:57Z</time>
      </trkpt>
      <trkpt lat="45.78396" lon="2.96548">
        <ele>1059</ele>
        <time>2014-08-22T10:05:59Z</time>
      </trkpt>
      <trkpt lat="45.78397" lon="2.96562">
        <ele>1059</ele>
        <time>2014-08-22T10:06:02Z</time>
      </trkpt>
      <trkpt lat="45.78399" lon="2.96574">
        <ele>1059</ele>
        <time>2014-08-22T10:06:05Z</time>
      </trkpt>
      <trkpt lat="45.78399" lon="2.96583">
        <ele>1060</ele>
        <time>2014-08-22T10:06:08Z</time>
      </trkpt>
      <trkpt lat="45.78399" lon="2.96585">
        <ele>1060</ele>
        <time>2014-08-22T10:06:10Z</time>
      </trkpt>
      <trkpt lat="45.78399" lon="2.96585">
        <ele>1060</ele>
        <time>2014-08-22T10:06:12Z</time>
      </trkpt>
      <trkpt lat="45.784" lon="2.96587">
        <ele>1060</ele>
        <time>2014-08-22T10:06:14Z</time>
      </trkpt>
      <trkpt lat="45.78402" lon="2.96594">
        <ele>1060</ele>
        <time>2014-08-22T10:06:17Z</time>
      </trkpt>
      <trkpt lat="45.78406" lon="2.96603">
        <ele>1060</ele>
        <time>2014-08-22T10:06:20Z</time>
      </trkpt>
      <trkpt lat="45.7841" lon="2.96605">
        <ele>1060</ele>
        <time>2014-08-22T10:06:22Z</time>
      </trkpt>
      <trkpt lat="45.78414" lon="2.96607">
        <ele>1061</ele>
        <time>2014-08-22T10:06:24Z</time>
      </trkpt>
      <trkpt lat="45.7842" lon="2.9661">
        <ele>1061</ele>
        <time>2014-08-22T10:06:27Z</time>
      </trkpt>
      <trkpt lat="45.78427" lon="2.96615">
        <ele>1062</ele>
        <time>2014-08-22T10:06:30Z</time>
      </trkpt>
      <trkpt lat="45.78432" lon="2.96618">
        <ele>1063</ele>
        <time>2014-08-22T10:06:32Z</time>
      </trkpt>
      <trkpt lat="45.78438" lon="2.96621">
        <ele>1064</ele>
        <time>2014-08-22T10:06:34Z</time>
      </trkpt>
      <trkpt lat="45.78446" lon="2.96628">
        <ele>1065</ele>
        <time>2014-08-22T10:06:37Z</time>
      </trkpt>
      <trkpt lat="45.78455" lon="2.96634">
        <ele>1066</ele>
        <time>2014-08-22T10:06:40Z</time>
      </trkpt>
      <trkpt lat="45.7846" lon="2.96638">
        <ele>1067</ele>
        <time>2014-08-22T10:06:42Z</time>
      </trkpt>
      <trkpt lat="45.78465" lon="2.96641">
        <ele>1067</ele>
        <time>2014-08-22T10:06:44Z</time>
      </trkpt>
      <trkpt lat="45.78472" lon="2.96646">
        <ele>1068</ele>
        <time>2014-08-22T10:06:47Z</time>
      </trkpt>
      <trkpt lat="45.7848" lon="2.96651">
        <ele>1069</ele>
        <time>2014-08-22T10:06:50Z</time>
      </trkpt>
      <trkpt lat="45.78484" lon="2.96655">
        <ele>1070</ele>
        <time>2014-08-22T10:06:52Z</time>
      </trkpt>
      <trkpt lat="45.78492" lon="2.96659">
        <ele>1070</ele>
        <time>2014-08-22T10:06:55Z</time>
      </trkpt>
      <trkpt lat="45.78497" lon="2.96661">
        <ele>1071</ele>
        <time>2014-08-22T10:06:57Z</time>
      </trkpt>
      <trkpt lat="45.78505" lon="2.96662">
        <ele>1072</ele>
        <time>2014-08-22T10:07:00Z</time>
      </trkpt>
      <trkpt lat="45.78514" lon="2.96661">
        <ele>1074</ele>
        <time>2014-08-22T10:07:03Z</time>
      </trkpt>
      <trkpt lat="45.78522" lon="2.9666">
        <ele>1075</ele>
        <time>2014-08-22T10:07:06Z</time>
      </trkpt>
      <trkpt lat="45.78527" lon="2.96659">
        <ele>1075</ele>
        <time>2014-08-22T10:07:08Z</time>
      </trkpt>
      <trkpt lat="45.78533" lon="2.96658">
        <ele>1076</ele>
        <time>2014-08-22T10:07:10Z</time>
      </trkpt>
      <trkpt lat="45.78537" lon="2.9666">
        <ele>1075</ele>
        <time>2014-08-22T10:07:12Z</time>
      </trkpt>
      <trkpt lat="45.78543" lon="2.96662">
        <ele>1075</ele>
        <time>2014-08-22T10:07:15Z</time>
      </trkpt>
      <trkpt lat="45.78548" lon="2.96662">
        <ele>1076</ele>
        <time>2014-08-22T10:07:17Z</time>
      </trkpt>
      <trkpt lat="45.78556" lon="2.96661">
        <ele>1076</ele>
        <time>2014-08-22T10:07:20Z</time>
      </trkpt>
      <trkpt lat="45.78565" lon="2.96664">
        <ele>1076</ele>
        <time>2014-08-22T10:07:23Z</time>
      </trkpt>
      <trkpt lat="45.78573" lon="2.96667">
        <ele>1075</ele>
        <time>2014-08-22T10:07:26Z</time>
      </trkpt>
      <trkpt lat="45.7858" lon="2.96668">
        <ele>1075</ele>
        <time>2014-08-22T10:07:28Z</time>
      </trkpt>
      <trkpt lat="45.78587" lon="2.9667">
        <ele>1075</ele>
        <time>2014-08-22T10:07:30Z</time>
      </trkpt>
      <trkpt lat="45.78599" lon="2.96671">
        <ele>1076</ele>
        <time>2014-08-22T10:07:33Z</time>
      </trkpt>
      <trkpt lat="45.78606" lon="2.96671">
        <ele>1075</ele>
        <time>2014-08-22T10:07:35Z</time>
      </trkpt>
      <trkpt lat="45.78613" lon="2.96671">
        <ele>1075</ele>
        <time>2014-08-22T10:07:37Z</time>
      </trkpt>
      <trkpt lat="45.78623" lon="2.96671">
        <ele>1074</ele>
        <time>2014-08-22T10:07:40Z</time>
      </trkpt>
      <trkpt lat="45.78633" lon="2.96673">
        <ele>1073</ele>
        <time>2014-08-22T10:07:43Z</time>
      </trkpt>
      <trkpt lat="45.78644" lon="2.96675">
        <ele>1073</ele>
        <time>2014-08-22T10:07:46Z</time>
      </trkpt>
      <trkpt lat="45.78652" lon="2.96675">
        <ele>1073</ele>
        <time>2014-08-22T10:07:48Z</time>
      </trkpt>
      <trkpt lat="45.78661" lon="2.96676">
        <ele>1073</ele>
        <time>2014-08-22T10:07:50Z</time>
      </trkpt>
      <trkpt lat="45.78669" lon="2.96677">
        <ele>1073</ele>
        <time>2014-08-22T10:07:52Z</time>
      </trkpt>
      <trkpt lat="45.78682" lon="2.96681">
        <ele>1072</ele>
        <time>2014-08-22T10:07:55Z</time>
      </trkpt>
      <trkpt lat="45.7869" lon="2.96682">
        <ele>1071</ele>
        <time>2014-08-22T10:07:57Z</time>
      </trkpt>
      <trkpt lat="45.78703" lon="2.96685">
        <ele>1071</ele>
        <time>2014-08-22T10:08:00Z</time>
      </trkpt>
      <trkpt lat="45.78714" lon="2.96688">
        <ele>1070</ele>
        <time>2014-08-22T10:08:02Z</time>
      </trkpt>
      <trkpt lat="45.78732" lon="2.96691">
        <ele>1069</ele>
        <time>2014-08-22T10:08:05Z</time>
      </trkpt>
      <trkpt lat="45.78745" lon="2.96694">
        <ele>1069</ele>
        <time>2014-08-22T10:08:07Z</time>
      </trkpt>
      <trkpt lat="45.78757" lon="2.96696">
        <ele>1069</ele>
        <time>2014-08-22T10:08:09Z</time>
      </trkpt>
      <trkpt lat="45.7877" lon="2.96698">
        <ele>1069</ele>
        <time>2014-08-22T10:08:11Z</time>
      </trkpt>
      <trkpt lat="45.78783" lon="2.967">
        <ele>1068</ele>
        <time>2014-08-22T10:08:13Z</time>
      </trkpt>
      <trkpt lat="45.78797" lon="2.967">
        <ele>1067</ele>
        <time>2014-08-22T10:08:15Z</time>
      </trkpt>
      <trkpt lat="45.78817" lon="2.96704">
        <ele>1066</ele>
        <time>2014-08-22T10:08:18Z</time>
      </trkpt>
      <trkpt lat="45.78839" lon="2.96706">
        <ele>1064</ele>
        <time>2014-08-22T10:08:21Z</time>
      </trkpt>
      <trkpt lat="45.78854" lon="2.96707">
        <ele>1063</ele>
        <time>2014-08-22T10:08:23Z</time>
      </trkpt>
      <trkpt lat="45.78877" lon="2.96708">
        <ele>1061</ele>
        <time>2014-08-22T10:08:26Z</time>
      </trkpt>
      <trkpt lat="45.78899" lon="2.96711">
        <ele>1060</ele>
        <time>2014-08-22T10:08:29Z</time>
      </trkpt>
      <trkpt lat="45.78912" lon="2.96715">
        <ele>1059</ele>
        <time>2014-08-22T10:08:31Z</time>
      </trkpt>
      <trkpt lat="45.78931" lon="2.96719">
        <ele>1057</ele>
        <time>2014-08-22T10:08:34Z</time>
      </trkpt>
      <trkpt lat="45.78947" lon="2.96725">
        <ele>1056</ele>
        <time>2014-08-22T10:08:37Z</time>
      </trkpt>
      <trkpt lat="45.78962" lon="2.96732">
        <ele>1054</ele>
        <time>2014-08-22T10:08:40Z</time>
      </trkpt>
      <trkpt lat="45.7897" lon="2.96737">
        <ele>1054</ele>
        <time>2014-08-22T10:08:42Z</time>
      </trkpt>
      <trkpt lat="45.78978" lon="2.9674">
        <ele>1052</ele>
        <time>2014-08-22T10:08:44Z</time>
      </trkpt>
      <trkpt lat="45.7899" lon="2.96744">
        <ele>1052</ele>
        <time>2014-08-22T10:08:47Z</time>
      </trkpt>
      <trkpt lat="45.79" lon="2.96747">
        <ele>1051</ele>
        <time>2014-08-22T10:08:49Z</time>
      </trkpt>
      <trkpt lat="45.79015" lon="2.96758">
        <ele>1050</ele>
        <time>2014-08-22T10:08:52Z</time>
      </trkpt>
      <trkpt lat="45.79033" lon="2.96773">
        <ele>1050</ele>
        <time>2014-08-22T10:08:55Z</time>
      </trkpt>
      <trkpt lat="45.79053" lon="2.96792">
        <ele>1049</ele>
        <time>2014-08-22T10:08:58Z</time>
      </trkpt>
      <trkpt lat="45.79076" lon="2.96809">
        <ele>1048</ele>
        <time>2014-08-22T10:09:01Z</time>
      </trkpt>
      <trkpt lat="45.79092" lon="2.96818">
        <ele>1047</ele>
        <time>2014-08-22T10:09:03Z</time>
      </trkpt>
      <trkpt lat="45.79107" lon="2.96828">
        <ele>1046</ele>
        <time>2014-08-22T10:09:05Z</time>
      </trkpt>
      <trkpt lat="45.79129" lon="2.96841">
        <ele>1044</ele>
        <time>2014-08-22T10:09:08Z</time>
      </trkpt>
      <trkpt lat="45.79145" lon="2.96848">
        <ele>1043</ele>
        <time>2014-08-22T10:09:10Z</time>
      </trkpt>
      <trkpt lat="45.79168" lon="2.96856">
        <ele>1041</ele>
        <time>2014-08-22T10:09:13Z</time>
      </trkpt>
      <trkpt lat="45.79184" lon="2.9686">
        <ele>1039</ele>
        <time>2014-08-22T10:09:15Z</time>
      </trkpt>
      <trkpt lat="45.79198" lon="2.96862">
        <ele>1038</ele>
        <time>2014-08-22T10:09:17Z</time>
      </trkpt>
      <trkpt lat="45.79216" lon="2.96872">
        <ele>1035</ele>
        <time>2014-08-22T10:09:20Z</time>
      </trkpt>
      <trkpt lat="45.79225" lon="2.96876">
        <ele>1032</ele>
        <time>2014-08-22T10:09:22Z</time>
      </trkpt>
      <trkpt lat="45.79237" lon="2.96878">
        <ele>1029</ele>
        <time>2014-08-22T10:09:25Z</time>
      </trkpt>
      <trkpt lat="45.79245" lon="2.96878">
        <ele>1028</ele>
        <time>2014-08-22T10:09:27Z</time>
      </trkpt>
      <trkpt lat="45.79258" lon="2.96877">
        <ele>1027</ele>
        <time>2014-08-22T10:09:30Z</time>
      </trkpt>
      <trkpt lat="45.79268" lon="2.96873">
        <ele>1026</ele>
        <time>2014-08-22T10:09:32Z</time>
      </trkpt>
      <trkpt lat="45.79281" lon="2.96869">
        <ele>1025</ele>
        <time>2014-08-22T10:09:35Z</time>
      </trkpt>
      <trkpt lat="45.79287" lon="2.96865">
        <ele>1024</ele>
        <time>2014-08-22T10:09:37Z</time>
      </trkpt>
      <trkpt lat="45.79292" lon="2.96861">
        <ele>1024</ele>
        <time>2014-08-22T10:09:39Z</time>
      </trkpt>
      <trkpt lat="45.79299" lon="2.96857">
        <ele>1023</ele>
        <time>2014-08-22T10:09:42Z</time>
      </trkpt>
      <trkpt lat="45.79305" lon="2.96856">
        <ele>1023</ele>
        <time>2014-08-22T10:09:44Z</time>
      </trkpt>
      <trkpt lat="45.7931" lon="2.96859">
        <ele>1022</ele>
        <time>2014-08-22T10:09:46Z</time>
      </trkpt>
      <trkpt lat="45.79313" lon="2.96864">
        <ele>1021</ele>
        <time>2014-08-22T10:09:49Z</time>
      </trkpt>
      <trkpt lat="45.79313" lon="2.96869">
        <ele>1021</ele>
        <time>2014-08-22T10:09:51Z</time>
      </trkpt>
      <trkpt lat="45.79317" lon="2.96871">
        <ele>1021</ele>
        <time>2014-08-22T10:09:54Z</time>
      </trkpt>
      <trkpt lat="45.79322" lon="2.96876">
        <ele>1021</ele>
        <time>2014-08-22T10:09:57Z</time>
      </trkpt>
      <trkpt lat="45.79325" lon="2.96887">
        <ele>1021</ele>
        <time>2014-08-22T10:10:00Z</time>
      </trkpt>
      <trkpt lat="45.79327" lon="2.96895">
        <ele>1021</ele>
        <time>2014-08-22T10:10:02Z</time>
      </trkpt>
      <trkpt lat="45.79329" lon="2.969">
        <ele>1021</ele>
        <time>2014-08-22T10:10:04Z</time>
      </trkpt>
      <trkpt lat="45.7933" lon="2.96905">
        <ele>1020</ele>
        <time>2014-08-22T10:10:07Z</time>
      </trkpt>
      <trkpt lat="45.79331" lon="2.96909">
        <ele>1020</ele>
        <time>2014-08-22T10:10:09Z</time>
      </trkpt>
      <trkpt lat="45.79334" lon="2.9691">
        <ele>1021</ele>
        <time>2014-08-22T10:10:12Z</time>
      </trkpt>
      <trkpt lat="45.7933" lon="2.96909">
        <ele>1021</ele>
        <time>2014-08-22T10:10:15Z</time>
      </trkpt>
      <trkpt lat="45.79326" lon="2.96897">
        <ele>1021</ele>
        <time>2014-08-22T10:10:18Z</time>
      </trkpt>
      <trkpt lat="45.79327" lon="2.9689">
        <ele>1021</ele>
        <time>2014-08-22T10:10:20Z</time>
      </trkpt>
      <trkpt lat="45.79329" lon="2.96881">
        <ele>1022</ele>
        <time>2014-08-22T10:10:23Z</time>
      </trkpt>
      <trkpt lat="45.79331" lon="2.96872">
        <ele>1022</ele>
        <time>2014-08-22T10:10:26Z</time>
      </trkpt>
      <trkpt lat="45.79333" lon="2.96865">
        <ele>1022</ele>
        <time>2014-08-22T10:10:28Z</time>
      </trkpt>
      <trkpt lat="45.79337" lon="2.96852">
        <ele>1022</ele>
        <time>2014-08-22T10:10:31Z</time>
      </trkpt>
      <trkpt lat="45.79339" lon="2.96842">
        <ele>1023</ele>
        <time>2014-08-22T10:10:34Z</time>
      </trkpt>
      <trkpt lat="45.79343" lon="2.96831">
        <ele>1023</ele>
        <time>2014-08-22T10:10:37Z</time>
      </trkpt>
      <trkpt lat="45.79345" lon="2.96824">
        <ele>1023</ele>
        <time>2014-08-22T10:10:39Z</time>
      </trkpt>
      <trkpt lat="45.79347" lon="2.96816">
        <ele>1022</ele>
        <time>2014-08-22T10:10:41Z</time>
      </trkpt>
      <trkpt lat="45.79351" lon="2.96801">
        <ele>1022</ele>
        <time>2014-08-22T10:10:44Z</time>
      </trkpt>
      <trkpt lat="45.79354" lon="2.96789">
        <ele>1022</ele>
        <time>2014-08-22T10:10:46Z</time>
      </trkpt>
      <trkpt lat="45.79363" lon="2.9677">
        <ele>1021</ele>
        <time>2014-08-22T10:10:49Z</time>
      </trkpt>
      <trkpt lat="45.79369" lon="2.96755">
        <ele>1021</ele>
        <time>2014-08-22T10:10:51Z</time>
      </trkpt>
      <trkpt lat="45.79377" lon="2.96739">
        <ele>1020</ele>
        <time>2014-08-22T10:10:53Z</time>
      </trkpt>
      <trkpt lat="45.79385" lon="2.96723">
        <ele>1019</ele>
        <time>2014-08-22T10:10:55Z</time>
      </trkpt>
      <trkpt lat="45.79394" lon="2.96704">
        <ele>1018</ele>
        <time>2014-08-22T10:10:57Z</time>
      </trkpt>
      <trkpt lat="45.79404" lon="2.96672">
        <ele>1015</ele>
        <time>2014-08-22T10:11:00Z</time>
      </trkpt>
      <trkpt lat="45.79409" lon="2.96656">
        <ele>1012</ele>
        <time>2014-08-22T10:11:02Z</time>
      </trkpt>
      <trkpt lat="45.79414" lon="2.96641">
        <ele>1009</ele>
        <time>2014-08-22T10:11:04Z</time>
      </trkpt>
      <trkpt lat="45.79425" lon="2.96621">
        <ele>1007</ele>
        <time>2014-08-22T10:11:07Z</time>
      </trkpt>
      <trkpt lat="45.79432" lon="2.96606">
        <ele>1006</ele>
        <time>2014-08-22T10:11:09Z</time>
      </trkpt>
      <trkpt lat="45.79441" lon="2.96586">
        <ele>1006</ele>
        <time>2014-08-22T10:11:12Z</time>
      </trkpt>
      <trkpt lat="45.79448" lon="2.96574">
        <ele>1005</ele>
        <time>2014-08-22T10:11:14Z</time>
      </trkpt>
      <trkpt lat="45.79459" lon="2.96557">
        <ele>1004</ele>
        <time>2014-08-22T10:11:17Z</time>
      </trkpt>
      <trkpt lat="45.79468" lon="2.96542">
        <ele>1003</ele>
        <time>2014-08-22T10:11:20Z</time>
      </trkpt>
      <trkpt lat="45.79474" lon="2.96532">
        <ele>1003</ele>
        <time>2014-08-22T10:11:22Z</time>
      </trkpt>
      <trkpt lat="45.79485" lon="2.96519">
        <ele>1003</ele>
        <time>2014-08-22T10:11:25Z</time>
      </trkpt>
      <trkpt lat="45.79493" lon="2.96511">
        <ele>1003</ele>
        <time>2014-08-22T10:11:27Z</time>
      </trkpt>
      <trkpt lat="45.795" lon="2.96504">
        <ele>1003</ele>
        <time>2014-08-22T10:11:29Z</time>
      </trkpt>
      <trkpt lat="45.79507" lon="2.96498">
        <ele>1003</ele>
        <time>2014-08-22T10:11:31Z</time>
      </trkpt>
      <trkpt lat="45.79517" lon="2.96488">
        <ele>1003</ele>
        <time>2014-08-22T10:11:34Z</time>
      </trkpt>
      <trkpt lat="45.79524" lon="2.9648">
        <ele>1003</ele>
        <time>2014-08-22T10:11:36Z</time>
      </trkpt>
      <trkpt lat="45.79536" lon="2.96471">
        <ele>1003</ele>
        <time>2014-08-22T10:11:39Z</time>
      </trkpt>
      <trkpt lat="45.79546" lon="2.96466">
        <ele>1003</ele>
        <time>2014-08-22T10:11:41Z</time>
      </trkpt>
      <trkpt lat="45.79556" lon="2.96459">
        <ele>1004</ele>
        <time>2014-08-22T10:11:43Z</time>
      </trkpt>
      <trkpt lat="45.79564" lon="2.96451">
        <ele>1004</ele>
        <time>2014-08-22T10:11:45Z</time>
      </trkpt>
      <trkpt lat="45.79576" lon="2.96441">
        <ele>1004</ele>
        <time>2014-08-22T10:11:48Z</time>
      </trkpt>
      <trkpt lat="45.79592" lon="2.96434">
        <ele>1004</ele>
        <time>2014-08-22T10:11:51Z</time>
      </trkpt>
      <trkpt lat="45.79607" lon="2.96428">
        <ele>1004</ele>
        <time>2014-08-22T10:11:54Z</time>
      </trkpt>
      <trkpt lat="45.79618" lon="2.96423">
        <ele>1005</ele>
        <time>2014-08-22T10:11:56Z</time>
      </trkpt>
      <trkpt lat="45.79628" lon="2.96419">
        <ele>1005</ele>
        <time>2014-08-22T10:11:58Z</time>
      </trkpt>
      <trkpt lat="45.79638" lon="2.96416">
        <ele>1006</ele>
        <time>2014-08-22T10:12:00Z</time>
      </trkpt>
      <trkpt lat="45.79648" lon="2.96414">
        <ele>1006</ele>
        <time>2014-08-22T10:12:02Z</time>
      </trkpt>
      <trkpt lat="45.79662" lon="2.96411">
        <ele>1006</ele>
        <time>2014-08-22T10:12:05Z</time>
      </trkpt>
      <trkpt lat="45.79677" lon="2.96408">
        <ele>1006</ele>
        <time>2014-08-22T10:12:08Z</time>
      </trkpt>
      <trkpt lat="45.79687" lon="2.96407">
        <ele>1006</ele>
        <time>2014-08-22T10:12:10Z</time>
      </trkpt>
      <trkpt lat="45.79696" lon="2.96405">
        <ele>1005</ele>
        <time>2014-08-22T10:12:12Z</time>
      </trkpt>
      <trkpt lat="45.79706" lon="2.96405">
        <ele>1005</ele>
        <time>2014-08-22T10:12:14Z</time>
      </trkpt>
      <trkpt lat="45.79716" lon="2.96405">
        <ele>1004</ele>
        <time>2014-08-22T10:12:16Z</time>
      </trkpt>
      <trkpt lat="45.79733" lon="2.96406">
        <ele>1004</ele>
        <time>2014-08-22T10:12:19Z</time>
      </trkpt>
      <trkpt lat="45.79743" lon="2.96408">
        <ele>1004</ele>
        <time>2014-08-22T10:12:21Z</time>
      </trkpt>
      <trkpt lat="45.7976" lon="2.96411">
        <ele>1003</ele>
        <time>2014-08-22T10:12:24Z</time>
      </trkpt>
      <trkpt lat="45.7977" lon="2.96418">
        <ele>1002</ele>
        <time>2014-08-22T10:12:26Z</time>
      </trkpt>
      <trkpt lat="45.79779" lon="2.96425">
        <ele>1001</ele>
        <time>2014-08-22T10:12:28Z</time>
      </trkpt>
      <trkpt lat="45.79798" lon="2.96434">
        <ele>1001</ele>
        <time>2014-08-22T10:12:31Z</time>
      </trkpt>
      <trkpt lat="45.79823" lon="2.96443">
        <ele>999</ele>
        <time>2014-08-22T10:12:34Z</time>
      </trkpt>
      <trkpt lat="45.79845" lon="2.96456">
        <ele>997</ele>
        <time>2014-08-22T10:12:37Z</time>
      </trkpt>
      <trkpt lat="45.7986" lon="2.96465">
        <ele>996</ele>
        <time>2014-08-22T10:12:39Z</time>
      </trkpt>
      <trkpt lat="45.79881" lon="2.96475">
        <ele>994</ele>
        <time>2014-08-22T10:12:42Z</time>
      </trkpt>
      <trkpt lat="45.79896" lon="2.9648">
        <ele>994</ele>
        <time>2014-08-22T10:12:44Z</time>
      </trkpt>
      <trkpt lat="45.79911" lon="2.96484">
        <ele>993</ele>
        <time>2014-08-22T10:12:46Z</time>
      </trkpt>
      <trkpt lat="45.79925" lon="2.96488">
        <ele>992</ele>
        <time>2014-08-22T10:12:48Z</time>
      </trkpt>
      <trkpt lat="45.79947" lon="2.96493">
        <ele>991</ele>
        <time>2014-08-22T10:12:51Z</time>
      </trkpt>
      <trkpt lat="45.79962" lon="2.96497">
        <ele>991</ele>
        <time>2014-08-22T10:12:53Z</time>
      </trkpt>
      <trkpt lat="45.79985" lon="2.96506">
        <ele>990</ele>
        <time>2014-08-22T10:12:56Z</time>
      </trkpt>
      <trkpt lat="45.80001" lon="2.96512">
        <ele>989</ele>
        <time>2014-08-22T10:12:58Z</time>
      </trkpt>
      <trkpt lat="45.80018" lon="2.96518">
        <ele>989</ele>
        <time>2014-08-22T10:13:00Z</time>
      </trkpt>
      <trkpt lat="45.80032" lon="2.96522">
        <ele>988</ele>
        <time>2014-08-22T10:13:02Z</time>
      </trkpt>
      <trkpt lat="45.80047" lon="2.96528">
        <ele>987</ele>
        <time>2014-08-22T10:13:04Z</time>
      </trkpt>
      <trkpt lat="45.8006" lon="2.96538">
        <ele>986</ele>
        <time>2014-08-22T10:13:06Z</time>
      </trkpt>
      <trkpt lat="45.8008" lon="2.96553">
        <ele>985</ele>
        <time>2014-08-22T10:13:09Z</time>
      </trkpt>
      <trkpt lat="45.80095" lon="2.96569">
        <ele>984</ele>
        <time>2014-08-22T10:13:12Z</time>
      </trkpt>
      <trkpt lat="45.80102" lon="2.96576">
        <ele>983</ele>
        <time>2014-08-22T10:13:14Z</time>
      </trkpt>
      <trkpt lat="45.80107" lon="2.96581">
        <ele>983</ele>
        <time>2014-08-22T10:13:16Z</time>
      </trkpt>
      <trkpt lat="45.80116" lon="2.96587">
        <ele>983</ele>
        <time>2014-08-22T10:13:19Z</time>
      </trkpt>
      <trkpt lat="45.80128" lon="2.96596">
        <ele>982</ele>
        <time>2014-08-22T10:13:22Z</time>
      </trkpt>
      <trkpt lat="45.80138" lon="2.96604">
        <ele>982</ele>
        <time>2014-08-22T10:13:24Z</time>
      </trkpt>
      <trkpt lat="45.80147" lon="2.96614">
        <ele>982</ele>
        <time>2014-08-22T10:13:26Z</time>
      </trkpt>
      <trkpt lat="45.80155" lon="2.96622">
        <ele>981</ele>
        <time>2014-08-22T10:13:28Z</time>
      </trkpt>
      <trkpt lat="45.80164" lon="2.9663">
        <ele>981</ele>
        <time>2014-08-22T10:13:30Z</time>
      </trkpt>
      <trkpt lat="45.80178" lon="2.96639">
        <ele>981</ele>
        <time>2014-08-22T10:13:33Z</time>
      </trkpt>
      <trkpt lat="45.80187" lon="2.96646">
        <ele>981</ele>
        <time>2014-08-22T10:13:35Z</time>
      </trkpt>
      <trkpt lat="45.80196" lon="2.96653">
        <ele>981</ele>
        <time>2014-08-22T10:13:37Z</time>
      </trkpt>
      <trkpt lat="45.80203" lon="2.9666">
        <ele>981</ele>
        <time>2014-08-22T10:13:39Z</time>
      </trkpt>
      <trkpt lat="45.80215" lon="2.96665">
        <ele>981</ele>
        <time>2014-08-22T10:13:42Z</time>
      </trkpt>
      <trkpt lat="45.80228" lon="2.96667">
        <ele>981</ele>
        <time>2014-08-22T10:13:45Z</time>
      </trkpt>
      <trkpt lat="45.80234" lon="2.96672">
        <ele>981</ele>
        <time>2014-08-22T10:13:47Z</time>
      </trkpt>
      <trkpt lat="45.80243" lon="2.96684">
        <ele>981</ele>
        <time>2014-08-22T10:13:50Z</time>
      </trkpt>
      <trkpt lat="45.80248" lon="2.96694">
        <ele>981</ele>
        <time>2014-08-22T10:13:52Z</time>
      </trkpt>
      <trkpt lat="45.80254" lon="2.96712">
        <ele>980</ele>
        <time>2014-08-22T10:13:55Z</time>
      </trkpt>
      <trkpt lat="45.80258" lon="2.96725">
        <ele>980</ele>
        <time>2014-08-22T10:13:57Z</time>
      </trkpt>
      <trkpt lat="45.80263" lon="2.96744">
        <ele>979</ele>
        <time>2014-08-22T10:14:00Z</time>
      </trkpt>
      <trkpt lat="45.80268" lon="2.9676">
        <ele>978</ele>
        <time>2014-08-22T10:14:02Z</time>
      </trkpt>
      <trkpt lat="45.80275" lon="2.96776">
        <ele>977</ele>
        <time>2014-08-22T10:14:04Z</time>
      </trkpt>
      <trkpt lat="45.80285" lon="2.96792">
        <ele>976</ele>
        <time>2014-08-22T10:14:06Z</time>
      </trkpt>
      <trkpt lat="45.80297" lon="2.9682">
        <ele>976</ele>
        <time>2014-08-22T10:14:09Z</time>
      </trkpt>
      <trkpt lat="45.80305" lon="2.96838">
        <ele>975</ele>
        <time>2014-08-22T10:14:11Z</time>
      </trkpt>
      <trkpt lat="45.8031" lon="2.96858">
        <ele>973</ele>
        <time>2014-08-22T10:14:13Z</time>
      </trkpt>
      <trkpt lat="45.80315" lon="2.96872">
        <ele>971</ele>
        <time>2014-08-22T10:14:15Z</time>
      </trkpt>
      <trkpt lat="45.80318" lon="2.96882">
        <ele>969</ele>
        <time>2014-08-22T10:14:18Z</time>
      </trkpt>
      <trkpt lat="45.8032" lon="2.96885">
        <ele>967</ele>
        <time>2014-08-22T10:14:20Z</time>
      </trkpt>
      <trkpt lat="45.80322" lon="2.9689">
        <ele>966</ele>
        <time>2014-08-22T10:14:22Z</time>
      </trkpt>
      <trkpt lat="45.80326" lon="2.96904">
        <ele>965</ele>
        <time>2014-08-22T10:14:25Z</time>
      </trkpt>
      <trkpt lat="45.80331" lon="2.96919">
        <ele>965</ele>
        <time>2014-08-22T10:14:27Z</time>
      </trkpt>
      <trkpt lat="45.80338" lon="2.96935">
        <ele>964</ele>
        <time>2014-08-22T10:14:29Z</time>
      </trkpt>
      <trkpt lat="45.80352" lon="2.9696">
        <ele>962</ele>
        <time>2014-08-22T10:14:32Z</time>
      </trkpt>
      <trkpt lat="45.80363" lon="2.96977">
        <ele>961</ele>
        <time>2014-08-22T10:14:34Z</time>
      </trkpt>
      <trkpt lat="45.80376" lon="2.96999">
        <ele>958</ele>
        <time>2014-08-22T10:14:37Z</time>
      </trkpt>
      <trkpt lat="45.80386" lon="2.97014">
        <ele>956</ele>
        <time>2014-08-22T10:14:40Z</time>
      </trkpt>
      <trkpt lat="45.80393" lon="2.97034">
        <ele>953</ele>
        <time>2014-08-22T10:14:43Z</time>
      </trkpt>
      <trkpt lat="45.80405" lon="2.97059">
        <ele>952</ele>
        <time>2014-08-22T10:14:46Z</time>
      </trkpt>
      <trkpt lat="45.80419" lon="2.97086">
        <ele>951</ele>
        <time>2014-08-22T10:14:49Z</time>
      </trkpt>
      <trkpt lat="45.80432" lon="2.97107">
        <ele>949</ele>
        <time>2014-08-22T10:14:52Z</time>
      </trkpt>
      <trkpt lat="45.80444" lon="2.97118">
        <ele>947</ele>
        <time>2014-08-22T10:14:54Z</time>
      </trkpt>
      <trkpt lat="45.80455" lon="2.97128">
        <ele>945</ele>
        <time>2014-08-22T10:14:56Z</time>
      </trkpt>
      <trkpt lat="45.80469" lon="2.97147">
        <ele>944</ele>
        <time>2014-08-22T10:14:59Z</time>
      </trkpt>
      <trkpt lat="45.80479" lon="2.97171">
        <ele>941</ele>
        <time>2014-08-22T10:15:02Z</time>
      </trkpt>
      <trkpt lat="45.80487" lon="2.97201">
        <ele>939</ele>
        <time>2014-08-22T10:15:05Z</time>
      </trkpt>
      <trkpt lat="45.80497" lon="2.97235">
        <ele>937</ele>
        <time>2014-08-22T10:15:08Z</time>
      </trkpt>
      <trkpt lat="45.80502" lon="2.97261">
        <ele>935</ele>
        <time>2014-08-22T10:15:10Z</time>
      </trkpt>
      <trkpt lat="45.80508" lon="2.97284">
        <ele>934</ele>
        <time>2014-08-22T10:15:12Z</time>
      </trkpt>
      <trkpt lat="45.80521" lon="2.97313">
        <ele>932</ele>
        <time>2014-08-22T10:15:15Z</time>
      </trkpt>
      <trkpt lat="45.80537" lon="2.97339">
        <ele>929</ele>
        <time>2014-08-22T10:15:18Z</time>
      </trkpt>
      <trkpt lat="45.80552" lon="2.97365">
        <ele>928</ele>
        <time>2014-08-22T10:15:21Z</time>
      </trkpt>
      <trkpt lat="45.80562" lon="2.97383">
        <ele>928</ele>
        <time>2014-08-22T10:15:23Z</time>
      </trkpt>
      <trkpt lat="45.80576" lon="2.97407">
        <ele>927</ele>
        <time>2014-08-22T10:15:26Z</time>
      </trkpt>
      <trkpt lat="45.80584" lon="2.97423">
        <ele>926</ele>
        <time>2014-08-22T10:15:28Z</time>
      </trkpt>
      <trkpt lat="45.80592" lon="2.97439">
        <ele>926</ele>
        <time>2014-08-22T10:15:30Z</time>
      </trkpt>
      <trkpt lat="45.806" lon="2.97463">
        <ele>925</ele>
        <time>2014-08-22T10:15:33Z</time>
      </trkpt>
      <trkpt lat="45.80606" lon="2.97485">
        <ele>925</ele>
        <time>2014-08-22T10:15:36Z</time>
      </trkpt>
      <trkpt lat="45.80609" lon="2.97499">
        <ele>924</ele>
        <time>2014-08-22T10:15:38Z</time>
      </trkpt>
      <trkpt lat="45.80615" lon="2.97518">
        <ele>924</ele>
        <time>2014-08-22T10:15:41Z</time>
      </trkpt>
      <trkpt lat="45.80614" lon="2.97536">
        <ele>924</ele>
        <time>2014-08-22T10:15:44Z</time>
      </trkpt>
      <trkpt lat="45.80615" lon="2.97549">
        <ele>925</ele>
        <time>2014-08-22T10:15:46Z</time>
      </trkpt>
      <trkpt lat="45.80616" lon="2.97562">
        <ele>925</ele>
        <time>2014-08-22T10:15:48Z</time>
      </trkpt>
      <trkpt lat="45.80617" lon="2.97573">
        <ele>926</ele>
        <time>2014-08-22T10:15:50Z</time>
      </trkpt>
      <trkpt lat="45.8062" lon="2.97583">
        <ele>926</ele>
        <time>2014-08-22T10:15:52Z</time>
      </trkpt>
      <trkpt lat="45.80622" lon="2.97591">
        <ele>927</ele>
        <time>2014-08-22T10:15:54Z</time>
      </trkpt>
      <trkpt lat="45.80625" lon="2.97602">
        <ele>927</ele>
        <time>2014-08-22T10:15:57Z</time>
      </trkpt>
      <trkpt lat="45.80627" lon="2.97608">
        <ele>927</ele>
        <time>2014-08-22T10:15:59Z</time>
      </trkpt>
      <trkpt lat="45.80632" lon="2.9761">
        <ele>928</ele>
        <time>2014-08-22T10:16:02Z</time>
      </trkpt>
      <trkpt lat="45.80635" lon="2.97611">
        <ele>928</ele>
        <time>2014-08-22T10:16:05Z</time>
      </trkpt>
      <trkpt lat="45.80635" lon="2.97611">
        <ele>927</ele>
        <time>2014-08-22T10:16:08Z</time>
      </trkpt>
      <trkpt lat="45.80633" lon="2.97638">
        <ele>929</ele>
        <time>2014-08-22T10:16:11Z</time>
      </trkpt>
      <trkpt lat="45.80636" lon="2.97629">
        <ele>930</ele>
        <time>2014-08-22T10:16:13Z</time>
      </trkpt>
      <trkpt lat="45.80639" lon="2.97618">
        <ele>930</ele>
        <time>2014-08-22T10:16:15Z</time>
      </trkpt>
      <trkpt lat="45.80646" lon="2.97596">
        <ele>930</ele>
        <time>2014-08-22T10:16:18Z</time>
      </trkpt>
      <trkpt lat="45.80652" lon="2.97579">
        <ele>929</ele>
        <time>2014-08-22T10:16:20Z</time>
      </trkpt>
      <trkpt lat="45.80663" lon="2.97547">
        <ele>928</ele>
        <time>2014-08-22T10:16:23Z</time>
      </trkpt>
      <trkpt lat="45.80674" lon="2.97513">
        <ele>927</ele>
        <time>2014-08-22T10:16:26Z</time>
      </trkpt>
      <trkpt lat="45.80683" lon="2.97488">
        <ele>926</ele>
        <time>2014-08-22T10:16:28Z</time>
      </trkpt>
      <trkpt lat="45.80692" lon="2.97462">
        <ele>926</ele>
        <time>2014-08-22T10:16:30Z</time>
      </trkpt>
      <trkpt lat="45.80706" lon="2.97421">
        <ele>925</ele>
        <time>2014-08-22T10:16:33Z</time>
      </trkpt>
      <trkpt lat="45.80715" lon="2.97394">
        <ele>925</ele>
        <time>2014-08-22T10:16:35Z</time>
      </trkpt>
      <trkpt lat="45.80724" lon="2.97367">
        <ele>924</ele>
        <time>2014-08-22T10:16:37Z</time>
      </trkpt>
      <trkpt lat="45.80733" lon="2.97341">
        <ele>923</ele>
        <time>2014-08-22T10:16:39Z</time>
      </trkpt>
      <trkpt lat="45.80742" lon="2.97315">
        <ele>922</ele>
        <time>2014-08-22T10:16:41Z</time>
      </trkpt>
      <trkpt lat="45.80754" lon="2.97278">
        <ele>921</ele>
        <time>2014-08-22T10:16:44Z</time>
      </trkpt>
      <trkpt lat="45.80767" lon="2.97243">
        <ele>920</ele>
        <time>2014-08-22T10:16:47Z</time>
      </trkpt>
      <trkpt lat="45.80775" lon="2.97219">
        <ele>920</ele>
        <time>2014-08-22T10:16:49Z</time>
      </trkpt>
      <trkpt lat="45.80783" lon="2.97196">
        <ele>920</ele>
        <time>2014-08-22T10:16:51Z</time>
      </trkpt>
      <trkpt lat="45.80795" lon="2.97162">
        <ele>919</ele>
        <time>2014-08-22T10:16:54Z</time>
      </trkpt>
      <trkpt lat="45.80806" lon="2.97129">
        <ele>919</ele>
        <time>2014-08-22T10:16:57Z</time>
      </trkpt>
      <trkpt lat="45.80813" lon="2.97108">
        <ele>919</ele>
        <time>2014-08-22T10:16:59Z</time>
      </trkpt>
      <trkpt lat="45.8082" lon="2.97088">
        <ele>919</ele>
        <time>2014-08-22T10:17:01Z</time>
      </trkpt>
      <trkpt lat="45.80827" lon="2.97068">
        <ele>920</ele>
        <time>2014-08-22T10:17:03Z</time>
      </trkpt>
      <trkpt lat="45.80833" lon="2.97049">
        <ele>919</ele>
        <time>2014-08-22T10:17:05Z</time>
      </trkpt>
      <trkpt lat="45.80843" lon="2.97023">
        <ele>919</ele>
        <time>2014-08-22T10:17:08Z</time>
      </trkpt>
      <trkpt lat="45.80849" lon="2.97005">
        <ele>919</ele>
        <time>2014-08-22T10:17:10Z</time>
      </trkpt>
      <trkpt lat="45.80856" lon="2.96989">
        <ele>919</ele>
        <time>2014-08-22T10:17:12Z</time>
      </trkpt>
      <trkpt lat="45.80865" lon="2.96963">
        <ele>919</ele>
        <time>2014-08-22T10:17:15Z</time>
      </trkpt>
      <trkpt lat="45.80874" lon="2.96936">
        <ele>919</ele>
        <time>2014-08-22T10:17:18Z</time>
      </trkpt>
      <trkpt lat="45.8088" lon="2.96918">
        <ele>918</ele>
        <time>2014-08-22T10:17:20Z</time>
      </trkpt>
      <trkpt lat="45.80888" lon="2.96892">
        <ele>918</ele>
        <time>2014-08-22T10:17:23Z</time>
      </trkpt>
      <trkpt lat="45.80894" lon="2.96874">
        <ele>918</ele>
        <time>2014-08-22T10:17:25Z</time>
      </trkpt>
      <trkpt lat="45.80899" lon="2.96858">
        <ele>918</ele>
        <time>2014-08-22T10:17:27Z</time>
      </trkpt>
      <trkpt lat="45.80905" lon="2.96842">
        <ele>918</ele>
        <time>2014-08-22T10:17:29Z</time>
      </trkpt>
      <trkpt lat="45.8091" lon="2.96826">
        <ele>918</ele>
        <time>2014-08-22T10:17:31Z</time>
      </trkpt>
      <trkpt lat="45.80916" lon="2.96809">
        <ele>918</ele>
        <time>2014-08-22T10:17:33Z</time>
      </trkpt>
      <trkpt lat="45.80921" lon="2.96793">
        <ele>918</ele>
        <time>2014-08-22T10:17:35Z</time>
      </trkpt>
      <trkpt lat="45.8093" lon="2.96768">
        <ele>919</ele>
        <time>2014-08-22T10:17:38Z</time>
      </trkpt>
      <trkpt lat="45.80935" lon="2.96751">
        <ele>919</ele>
        <time>2014-08-22T10:17:40Z</time>
      </trkpt>
      <trkpt lat="45.80941" lon="2.96735">
        <ele>919</ele>
        <time>2014-08-22T10:17:42Z</time>
      </trkpt>
      <trkpt lat="45.80949" lon="2.96709">
        <ele>919</ele>
        <time>2014-08-22T10:17:45Z</time>
      </trkpt>
      <trkpt lat="45.80955" lon="2.96692">
        <ele>919</ele>
        <time>2014-08-22T10:17:47Z</time>
      </trkpt>
      <trkpt lat="45.80963" lon="2.96667">
        <ele>919</ele>
        <time>2014-08-22T10:17:50Z</time>
      </trkpt>
      <trkpt lat="45.80968" lon="2.96651">
        <ele>919</ele>
        <time>2014-08-22T10:17:52Z</time>
      </trkpt>
      <trkpt lat="45.80976" lon="2.96626">
        <ele>919</ele>
        <time>2014-08-22T10:17:55Z</time>
      </trkpt>
      <trkpt lat="45.80981" lon="2.9661">
        <ele>919</ele>
        <time>2014-08-22T10:17:57Z</time>
      </trkpt>
      <trkpt lat="45.80988" lon="2.96585">
        <ele>919</ele>
        <time>2014-08-22T10:18:00Z</time>
      </trkpt>
      <trkpt lat="45.80993" lon="2.96569">
        <ele>919</ele>
        <time>2014-08-22T10:18:02Z</time>
      </trkpt>
      <trkpt lat="45.81001" lon="2.96544">
        <ele>919</ele>
        <time>2014-08-22T10:18:05Z</time>
      </trkpt>
      <trkpt lat="45.81007" lon="2.96527">
        <ele>919</ele>
        <time>2014-08-22T10:18:07Z</time>
      </trkpt>
      <trkpt lat="45.81014" lon="2.96499">
        <ele>921</ele>
        <time>2014-08-22T10:18:10Z</time>
      </trkpt>
      <trkpt lat="45.81023" lon="2.96473">
        <ele>920</ele>
        <time>2014-08-22T10:18:13Z</time>
      </trkpt>
      <trkpt lat="45.81028" lon="2.96455">
        <ele>920</ele>
        <time>2014-08-22T10:18:15Z</time>
      </trkpt>
      <trkpt lat="45.81033" lon="2.96437">
        <ele>919</ele>
        <time>2014-08-22T10:18:17Z</time>
      </trkpt>
      <trkpt lat="45.81039" lon="2.96418">
        <ele>919</ele>
        <time>2014-08-22T10:18:19Z</time>
      </trkpt>
      <trkpt lat="45.81047" lon="2.96389">
        <ele>918</ele>
        <time>2014-08-22T10:18:22Z</time>
      </trkpt>
      <trkpt lat="45.81053" lon="2.96368">
        <ele>917</ele>
        <time>2014-08-22T10:18:24Z</time>
      </trkpt>
      <trkpt lat="45.81061" lon="2.96338">
        <ele>917</ele>
        <time>2014-08-22T10:18:27Z</time>
      </trkpt>
      <trkpt lat="45.81068" lon="2.96316">
        <ele>916</ele>
        <time>2014-08-22T10:18:29Z</time>
      </trkpt>
      <trkpt lat="45.81074" lon="2.96294">
        <ele>916</ele>
        <time>2014-08-22T10:18:31Z</time>
      </trkpt>
      <trkpt lat="45.8108" lon="2.96272">
        <ele>916</ele>
        <time>2014-08-22T10:18:33Z</time>
      </trkpt>
      <trkpt lat="45.81086" lon="2.96251">
        <ele>916</ele>
        <time>2014-08-22T10:18:35Z</time>
      </trkpt>
      <trkpt lat="45.81093" lon="2.96229">
        <ele>916</ele>
        <time>2014-08-22T10:18:37Z</time>
      </trkpt>
      <trkpt lat="45.81102" lon="2.96197">
        <ele>916</ele>
        <time>2014-08-22T10:18:40Z</time>
      </trkpt>
      <trkpt lat="45.81107" lon="2.96177">
        <ele>916</ele>
        <time>2014-08-22T10:18:42Z</time>
      </trkpt>
      <trkpt lat="45.81113" lon="2.96156">
        <ele>916</ele>
        <time>2014-08-22T10:18:44Z</time>
      </trkpt>
      <trkpt lat="45.81123" lon="2.96126">
        <ele>916</ele>
        <time>2014-08-22T10:18:47Z</time>
      </trkpt>
      <trkpt lat="45.81129" lon="2.96105">
        <ele>915</ele>
        <time>2014-08-22T10:18:49Z</time>
      </trkpt>
      <trkpt lat="45.81138" lon="2.96072">
        <ele>914</ele>
        <time>2014-08-22T10:18:52Z</time>
      </trkpt>
      <trkpt lat="45.81144" lon="2.96051">
        <ele>913</ele>
        <time>2014-08-22T10:18:54Z</time>
      </trkpt>
      <trkpt lat="45.81151" lon="2.96029">
        <ele>913</ele>
        <time>2014-08-22T10:18:56Z</time>
      </trkpt>
      <trkpt lat="45.8116" lon="2.95996">
        <ele>911</ele>
        <time>2014-08-22T10:18:59Z</time>
      </trkpt>
      <trkpt lat="45.81167" lon="2.95974">
        <ele>910</ele>
        <time>2014-08-22T10:19:01Z</time>
      </trkpt>
      <trkpt lat="45.81173" lon="2.95953">
        <ele>910</ele>
        <time>2014-08-22T10:19:03Z</time>
      </trkpt>
      <trkpt lat="45.81179" lon="2.95932">
        <ele>909</ele>
        <time>2014-08-22T10:19:05Z</time>
      </trkpt>
      <trkpt lat="45.81185" lon="2.95912">
        <ele>909</ele>
        <time>2014-08-22T10:19:07Z</time>
      </trkpt>
      <trkpt lat="45.81194" lon="2.95882">
        <ele>909</ele>
        <time>2014-08-22T10:19:10Z</time>
      </trkpt>
      <trkpt lat="45.812" lon="2.95863">
        <ele>907</ele>
        <time>2014-08-22T10:19:12Z</time>
      </trkpt>
      <trkpt lat="45.81206" lon="2.95843">
        <ele>906</ele>
        <time>2014-08-22T10:19:14Z</time>
      </trkpt>
      <trkpt lat="45.81212" lon="2.95821">
        <ele>906</ele>
        <time>2014-08-22T10:19:16Z</time>
      </trkpt>
      <trkpt lat="45.81222" lon="2.95788">
        <ele>904</ele>
        <time>2014-08-22T10:19:19Z</time>
      </trkpt>
      <trkpt lat="45.81232" lon="2.95754">
        <ele>904</ele>
        <time>2014-08-22T10:19:22Z</time>
      </trkpt>
      <trkpt lat="45.81239" lon="2.9573">
        <ele>904</ele>
        <time>2014-08-22T10:19:24Z</time>
      </trkpt>
      <trkpt lat="45.81246" lon="2.95708">
        <ele>904</ele>
        <time>2014-08-22T10:19:26Z</time>
      </trkpt>
      <trkpt lat="45.81252" lon="2.95685">
        <ele>903</ele>
        <time>2014-08-22T10:19:28Z</time>
      </trkpt>
      <trkpt lat="45.81263" lon="2.9565">
        <ele>902</ele>
        <time>2014-08-22T10:19:31Z</time>
      </trkpt>
      <trkpt lat="45.81269" lon="2.95626">
        <ele>901</ele>
        <time>2014-08-22T10:19:33Z</time>
      </trkpt>
      <trkpt lat="45.81276" lon="2.95602">
        <ele>901</ele>
        <time>2014-08-22T10:19:35Z</time>
      </trkpt>
      <trkpt lat="45.81287" lon="2.95567">
        <ele>900</ele>
        <time>2014-08-22T10:19:38Z</time>
      </trkpt>
      <trkpt lat="45.81293" lon="2.95544">
        <ele>900</ele>
        <time>2014-08-22T10:19:40Z</time>
      </trkpt>
      <trkpt lat="45.813" lon="2.95522">
        <ele>899</ele>
        <time>2014-08-22T10:19:42Z</time>
      </trkpt>
      <trkpt lat="45.81306" lon="2.955">
        <ele>899</ele>
        <time>2014-08-22T10:19:44Z</time>
      </trkpt>
      <trkpt lat="45.81316" lon="2.9547">
        <ele>898</ele>
        <time>2014-08-22T10:19:47Z</time>
      </trkpt>
      <trkpt lat="45.81323" lon="2.95452">
        <ele>897</ele>
        <time>2014-08-22T10:19:49Z</time>
      </trkpt>
      <trkpt lat="45.81333" lon="2.95426">
        <ele>897</ele>
        <time>2014-08-22T10:19:52Z</time>
      </trkpt>
      <trkpt lat="45.81339" lon="2.95409">
        <ele>897</ele>
        <time>2014-08-22T10:19:54Z</time>
      </trkpt>
      <trkpt lat="45.81347" lon="2.95387">
        <ele>897</ele>
        <time>2014-08-22T10:19:57Z</time>
      </trkpt>
      <trkpt lat="45.81352" lon="2.95373">
        <ele>898</ele>
        <time>2014-08-22T10:19:59Z</time>
      </trkpt>
      <trkpt lat="45.81358" lon="2.95362">
        <ele>897</ele>
        <time>2014-08-22T10:20:01Z</time>
      </trkpt>
      <trkpt lat="45.81367" lon="2.95355">
        <ele>896</ele>
        <time>2014-08-22T10:20:04Z</time>
      </trkpt>
      <trkpt lat="45.81385" lon="2.95353">
        <ele>894</ele>
        <time>2014-08-22T10:20:06Z</time>
      </trkpt>
      <trkpt lat="45.81393" lon="2.95357">
        <ele>894</ele>
        <time>2014-08-22T10:20:08Z</time>
      </trkpt>
      <trkpt lat="45.814" lon="2.95367">
        <ele>894</ele>
        <time>2014-08-22T10:20:10Z</time>
      </trkpt>
      <trkpt lat="45.81402" lon="2.95382">
        <ele>893</ele>
        <time>2014-08-22T10:20:12Z</time>
      </trkpt>
      <trkpt lat="45.81398" lon="2.95396">
        <ele>893</ele>
        <time>2014-08-22T10:20:14Z</time>
      </trkpt>
      <trkpt lat="45.81383" lon="2.9541">
        <ele>894</ele>
        <time>2014-08-22T10:20:17Z</time>
      </trkpt>
      <trkpt lat="45.81374" lon="2.95419">
        <ele>894</ele>
        <time>2014-08-22T10:20:19Z</time>
      </trkpt>
      <trkpt lat="45.81362" lon="2.95439">
        <ele>894</ele>
        <time>2014-08-22T10:20:22Z</time>
      </trkpt>
      <trkpt lat="45.81359" lon="2.95456">
        <ele>894</ele>
        <time>2014-08-22T10:20:25Z</time>
      </trkpt>
      <trkpt lat="45.8136" lon="2.95484">
        <ele>894</ele>
        <time>2014-08-22T10:20:27Z</time>
      </trkpt>
      <trkpt lat="45.81361" lon="2.95502">
        <ele>893</ele>
        <time>2014-08-22T10:20:29Z</time>
      </trkpt>
      <trkpt lat="45.81364" lon="2.95521">
        <ele>893</ele>
        <time>2014-08-22T10:20:31Z</time>
      </trkpt>
      <trkpt lat="45.81368" lon="2.95539">
        <ele>893</ele>
        <time>2014-08-22T10:20:33Z</time>
      </trkpt>
      <trkpt lat="45.81371" lon="2.9556">
        <ele>893</ele>
        <time>2014-08-22T10:20:35Z</time>
      </trkpt>
      <trkpt lat="45.81377" lon="2.95589">
        <ele>893</ele>
        <time>2014-08-22T10:20:38Z</time>
      </trkpt>
      <trkpt lat="45.81382" lon="2.9562">
        <ele>893</ele>
        <time>2014-08-22T10:20:41Z</time>
      </trkpt>
      <trkpt lat="45.81385" lon="2.9564">
        <ele>892</ele>
        <time>2014-08-22T10:20:43Z</time>
      </trkpt>
      <trkpt lat="45.81388" lon="2.9566">
        <ele>892</ele>
        <time>2014-08-22T10:20:46Z</time>
      </trkpt>
      <trkpt lat="45.81393" lon="2.9569">
        <ele>892</ele>
        <time>2014-08-22T10:20:48Z</time>
      </trkpt>
      <trkpt lat="45.81395" lon="2.95709">
        <ele>892</ele>
        <time>2014-08-22T10:20:50Z</time>
      </trkpt>
      <trkpt lat="45.81399" lon="2.95735">
        <ele>892</ele>
        <time>2014-08-22T10:20:53Z</time>
      </trkpt>
      <trkpt lat="45.81402" lon="2.95759">
        <ele>892</ele>
        <time>2014-08-22T10:20:56Z</time>
      </trkpt>
      <trkpt lat="45.81404" lon="2.95773">
        <ele>892</ele>
        <time>2014-08-22T10:20:58Z</time>
      </trkpt>
      <trkpt lat="45.81408" lon="2.95785">
        <ele>892</ele>
        <time>2014-08-22T10:21:00Z</time>
      </trkpt>
      <trkpt lat="45.81414" lon="2.95793">
        <ele>892</ele>
        <time>2014-08-22T10:21:02Z</time>
      </trkpt>
      <trkpt lat="45.81421" lon="2.95799">
        <ele>892</ele>
        <time>2014-08-22T10:21:04Z</time>
      </trkpt>
      <trkpt lat="45.81427" lon="2.95805">
        <ele>892</ele>
        <time>2014-08-22T10:21:06Z</time>
      </trkpt>
      <trkpt lat="45.81435" lon="2.95811">
        <ele>892</ele>
        <time>2014-08-22T10:21:09Z</time>
      </trkpt>
      <trkpt lat="45.81447" lon="2.95821">
        <ele>892</ele>
        <time>2014-08-22T10:21:11Z</time>
      </trkpt>
      <trkpt lat="45.81456" lon="2.95829">
        <ele>892</ele>
        <time>2014-08-22T10:21:13Z</time>
      </trkpt>
      <trkpt lat="45.8147" lon="2.95841">
        <ele>892</ele>
        <time>2014-08-22T10:21:16Z</time>
      </trkpt>
      <trkpt lat="45.8148" lon="2.95849">
        <ele>892</ele>
        <time>2014-08-22T10:21:18Z</time>
      </trkpt>
      <trkpt lat="45.8149" lon="2.95854">
        <ele>892</ele>
        <time>2014-08-22T10:21:20Z</time>
      </trkpt>
      <trkpt lat="45.81505" lon="2.95863">
        <ele>892</ele>
        <time>2014-08-22T10:21:23Z</time>
      </trkpt>
      <trkpt lat="45.81515" lon="2.9587">
        <ele>891</ele>
        <time>2014-08-22T10:21:25Z</time>
      </trkpt>
      <trkpt lat="45.81532" lon="2.95878">
        <ele>892</ele>
        <time>2014-08-22T10:21:28Z</time>
      </trkpt>
      <trkpt lat="45.81548" lon="2.95888">
        <ele>892</ele>
        <time>2014-08-22T10:21:31Z</time>
      </trkpt>
      <trkpt lat="45.81563" lon="2.95899">
        <ele>892</ele>
        <time>2014-08-22T10:21:34Z</time>
      </trkpt>
      <trkpt lat="45.81573" lon="2.95907">
        <ele>892</ele>
        <time>2014-08-22T10:21:37Z</time>
      </trkpt>
      <trkpt lat="45.81591" lon="2.95918">
        <ele>893</ele>
        <time>2014-08-22T10:21:39Z</time>
      </trkpt>
      <trkpt lat="45.81608" lon="2.9593">
        <ele>893</ele>
        <time>2014-08-22T10:21:42Z</time>
      </trkpt>
      <trkpt lat="45.8162" lon="2.95937">
        <ele>893</ele>
        <time>2014-08-22T10:21:44Z</time>
      </trkpt>
      <trkpt lat="45.81638" lon="2.95948">
        <ele>893</ele>
        <time>2014-08-22T10:21:47Z</time>
      </trkpt>
      <trkpt lat="45.8165" lon="2.95955">
        <ele>893</ele>
        <time>2014-08-22T10:21:49Z</time>
      </trkpt>
      <trkpt lat="45.81667" lon="2.95963">
        <ele>892</ele>
        <time>2014-08-22T10:21:52Z</time>
      </trkpt>
      <trkpt lat="45.81683" lon="2.95975">
        <ele>892</ele>
        <time>2014-08-22T10:21:55Z</time>
      </trkpt>
      <trkpt lat="45.81694" lon="2.95981">
        <ele>892</ele>
        <time>2014-08-22T10:21:57Z</time>
      </trkpt>
      <trkpt lat="45.81705" lon="2.95989">
        <ele>892</ele>
        <time>2014-08-22T10:21:59Z</time>
      </trkpt>
      <trkpt lat="45.81717" lon="2.95994">
        <ele>892</ele>
        <time>2014-08-22T10:22:02Z</time>
      </trkpt>
      <trkpt lat="45.81733" lon="2.96005">
        <ele>892</ele>
        <time>2014-08-22T10:22:04Z</time>
      </trkpt>
      <trkpt lat="45.81744" lon="2.96011">
        <ele>892</ele>
        <time>2014-08-22T10:22:06Z</time>
      </trkpt>
      <trkpt lat="45.81757" lon="2.96027">
        <ele>892</ele>
        <time>2014-08-22T10:22:09Z</time>
      </trkpt>
      <trkpt lat="45.81768" lon="2.96034">
        <ele>892</ele>
        <time>2014-08-22T10:22:11Z</time>
      </trkpt>
      <trkpt lat="45.81783" lon="2.96046">
        <ele>892</ele>
        <time>2014-08-22T10:22:14Z</time>
      </trkpt>
      <trkpt lat="45.81798" lon="2.9606">
        <ele>893</ele>
        <time>2014-08-22T10:22:17Z</time>
      </trkpt>
      <trkpt lat="45.81811" lon="2.96075">
        <ele>893</ele>
        <time>2014-08-22T10:22:20Z</time>
      </trkpt>
      <trkpt lat="45.81825" lon="2.96089">
        <ele>893</ele>
        <time>2014-08-22T10:22:23Z</time>
      </trkpt>
      <trkpt lat="45.81834" lon="2.96096">
        <ele>894</ele>
        <time>2014-08-22T10:22:25Z</time>
      </trkpt>
      <trkpt lat="45.81846" lon="2.96107">
        <ele>894</ele>
        <time>2014-08-22T10:22:28Z</time>
      </trkpt>
      <trkpt lat="45.81859" lon="2.96118">
        <ele>894</ele>
        <time>2014-08-22T10:22:31Z</time>
      </trkpt>
      <trkpt lat="45.81868" lon="2.96123">
        <ele>893</ele>
        <time>2014-08-22T10:22:33Z</time>
      </trkpt>
      <trkpt lat="45.81878" lon="2.9613">
        <ele>893</ele>
        <time>2014-08-22T10:22:36Z</time>
      </trkpt>
      <trkpt lat="45.81888" lon="2.96137">
        <ele>894</ele>
        <time>2014-08-22T10:22:38Z</time>
      </trkpt>
      <trkpt lat="45.81903" lon="2.96149">
        <ele>894</ele>
        <time>2014-08-22T10:22:40Z</time>
      </trkpt>
      <trkpt lat="45.81913" lon="2.96158">
        <ele>895</ele>
        <time>2014-08-22T10:22:42Z</time>
      </trkpt>
      <trkpt lat="45.81922" lon="2.96165">
        <ele>895</ele>
        <time>2014-08-22T10:22:44Z</time>
      </trkpt>
      <trkpt lat="45.81931" lon="2.96172">
        <ele>895</ele>
        <time>2014-08-22T10:22:46Z</time>
      </trkpt>
      <trkpt lat="45.81943" lon="2.96182">
        <ele>895</ele>
        <time>2014-08-22T10:22:49Z</time>
      </trkpt>
      <trkpt lat="45.81956" lon="2.96192">
        <ele>896</ele>
        <time>2014-08-22T10:22:52Z</time>
      </trkpt>
      <trkpt lat="45.8197" lon="2.96204">
        <ele>896</ele>
        <time>2014-08-22T10:22:55Z</time>
      </trkpt>
      <trkpt lat="45.81978" lon="2.96212">
        <ele>896</ele>
        <time>2014-08-22T10:22:57Z</time>
      </trkpt>
      <trkpt lat="45.81987" lon="2.96218">
        <ele>897</ele>
        <time>2014-08-22T10:23:00Z</time>
      </trkpt>
      <trkpt lat="45.81999" lon="2.96227">
        <ele>897</ele>
        <time>2014-08-22T10:23:02Z</time>
      </trkpt>
      <trkpt lat="45.82012" lon="2.96235">
        <ele>897</ele>
        <time>2014-08-22T10:23:05Z</time>
      </trkpt>
      <trkpt lat="45.82019" lon="2.96238">
        <ele>897</ele>
        <time>2014-08-22T10:23:07Z</time>
      </trkpt>
      <trkpt lat="45.82027" lon="2.96243">
        <ele>897</ele>
        <time>2014-08-22T10:23:09Z</time>
      </trkpt>
      <trkpt lat="45.82039" lon="2.96248">
        <ele>898</ele>
        <time>2014-08-22T10:23:12Z</time>
      </trkpt>
      <trkpt lat="45.82045" lon="2.9625">
        <ele>898</ele>
        <time>2014-08-22T10:23:14Z</time>
      </trkpt>
      <trkpt lat="45.82058" lon="2.96252">
        <ele>898</ele>
        <time>2014-08-22T10:23:17Z</time>
      </trkpt>
      <trkpt lat="45.82073" lon="2.96256">
        <ele>898</ele>
        <time>2014-08-22T10:23:20Z</time>
      </trkpt>
      <trkpt lat="45.82082" lon="2.9626">
        <ele>899</ele>
        <time>2014-08-22T10:23:22Z</time>
      </trkpt>
      <trkpt lat="45.82096" lon="2.96263">
        <ele>899</ele>
        <time>2014-08-22T10:23:25Z</time>
      </trkpt>
      <trkpt lat="45.82104" lon="2.96266">
        <ele>899</ele>
        <time>2014-08-22T10:23:28Z</time>
      </trkpt>
      <trkpt lat="45.82117" lon="2.96271">
        <ele>899</ele>
        <time>2014-08-22T10:23:30Z</time>
      </trkpt>
      <trkpt lat="45.82126" lon="2.96275">
        <ele>899</ele>
        <time>2014-08-22T10:23:32Z</time>
      </trkpt>
      <trkpt lat="45.82134" lon="2.96279">
        <ele>900</ele>
        <time>2014-08-22T10:23:34Z</time>
      </trkpt>
      <trkpt lat="45.82142" lon="2.96282">
        <ele>900</ele>
        <time>2014-08-22T10:23:36Z</time>
      </trkpt>
      <trkpt lat="45.82151" lon="2.96283">
        <ele>900</ele>
        <time>2014-08-22T10:23:38Z</time>
      </trkpt>
      <trkpt lat="45.82161" lon="2.96285">
        <ele>901</ele>
        <time>2014-08-22T10:23:41Z</time>
      </trkpt>
      <trkpt lat="45.82175" lon="2.9629">
        <ele>901</ele>
        <time>2014-08-22T10:23:43Z</time>
      </trkpt>
      <trkpt lat="45.82183" lon="2.96291">
        <ele>901</ele>
        <time>2014-08-22T10:23:45Z</time>
      </trkpt>
      <trkpt lat="45.82193" lon="2.96294">
        <ele>902</ele>
        <time>2014-08-22T10:23:47Z</time>
      </trkpt>
      <trkpt lat="45.82202" lon="2.96294">
        <ele>902</ele>
        <time>2014-08-22T10:23:49Z</time>
      </trkpt>
      <trkpt lat="45.82212" lon="2.96296">
        <ele>903</ele>
        <time>2014-08-22T10:23:51Z</time>
      </trkpt>
      <trkpt lat="45.82226" lon="2.963">
        <ele>903</ele>
        <time>2014-08-22T10:23:54Z</time>
      </trkpt>
      <trkpt lat="45.8224" lon="2.96303">
        <ele>903</ele>
        <time>2014-08-22T10:23:57Z</time>
      </trkpt>
      <trkpt lat="45.82249" lon="2.96304">
        <ele>903</ele>
        <time>2014-08-22T10:23:59Z</time>
      </trkpt>
      <trkpt lat="45.82257" lon="2.96308">
        <ele>903</ele>
        <time>2014-08-22T10:24:01Z</time>
      </trkpt>
      <trkpt lat="45.82267" lon="2.96315">
        <ele>904</ele>
        <time>2014-08-22T10:24:04Z</time>
      </trkpt>
      <trkpt lat="45.82273" lon="2.96317">
        <ele>904</ele>
        <time>2014-08-22T10:24:06Z</time>
      </trkpt>
      <trkpt lat="45.82278" lon="2.96319">
        <ele>904</ele>
        <time>2014-08-22T10:24:08Z</time>
      </trkpt>
      <trkpt lat="45.82284" lon="2.96321">
        <ele>904</ele>
        <time>2014-08-22T10:24:11Z</time>
      </trkpt>
      <trkpt lat="45.82294" lon="2.96324">
        <ele>904</ele>
        <time>2014-08-22T10:24:13Z</time>
      </trkpt>
      <trkpt lat="45.82302" lon="2.96325">
        <ele>905</ele>
        <time>2014-08-22T10:24:15Z</time>
      </trkpt>
      <trkpt lat="45.8231" lon="2.96325">
        <ele>905</ele>
        <time>2014-08-22T10:24:17Z</time>
      </trkpt>
      <trkpt lat="45.82322" lon="2.96322">
        <ele>906</ele>
        <time>2014-08-22T10:24:20Z</time>
      </trkpt>
      <trkpt lat="45.82329" lon="2.96322">
        <ele>906</ele>
        <time>2014-08-22T10:24:22Z</time>
      </trkpt>
      <trkpt lat="45.82338" lon="2.96322">
        <ele>906</ele>
        <time>2014-08-22T10:24:24Z</time>
      </trkpt>
      <trkpt lat="45.82346" lon="2.9632">
        <ele>906</ele>
        <time>2014-08-22T10:24:27Z</time>
      </trkpt>
      <trkpt lat="45.82359" lon="2.96319">
        <ele>906</ele>
        <time>2014-08-22T10:24:29Z</time>
      </trkpt>
      <trkpt lat="45.8237" lon="2.96319">
        <ele>907</ele>
        <time>2014-08-22T10:24:32Z</time>
      </trkpt>
      <trkpt lat="45.82378" lon="2.96319">
        <ele>908</ele>
        <time>2014-08-22T10:24:34Z</time>
      </trkpt>
      <trkpt lat="45.82386" lon="2.96321">
        <ele>908</ele>
        <time>2014-08-22T10:24:36Z</time>
      </trkpt>
      <trkpt lat="45.82398" lon="2.96322">
        <ele>910</ele>
        <time>2014-08-22T10:24:39Z</time>
      </trkpt>
      <trkpt lat="45.82411" lon="2.96322">
        <ele>910</ele>
        <time>2014-08-22T10:24:42Z</time>
      </trkpt>
      <trkpt lat="45.8242" lon="2.96322">
        <ele>910</ele>
        <time>2014-08-22T10:24:44Z</time>
      </trkpt>
      <trkpt lat="45.82429" lon="2.9632">
        <ele>910</ele>
        <time>2014-08-22T10:24:46Z</time>
      </trkpt>
      <trkpt lat="45.82441" lon="2.96314">
        <ele>910</ele>
        <time>2014-08-22T10:24:49Z</time>
      </trkpt>
      <trkpt lat="45.82452" lon="2.96306">
        <ele>910</ele>
        <time>2014-08-22T10:24:52Z</time>
      </trkpt>
      <trkpt lat="45.82462" lon="2.96297">
        <ele>910</ele>
        <time>2014-08-22T10:24:55Z</time>
      </trkpt>
      <trkpt lat="45.82463" lon="2.96297">
        <ele>910</ele>
        <time>2014-08-22T10:24:57Z</time>
      </trkpt>
      <trkpt lat="45.82472" lon="2.96292">
        <ele>911</ele>
        <time>2014-08-22T10:25:00Z</time>
      </trkpt>
      <trkpt lat="45.82473" lon="2.96291">
        <ele>910</ele>
        <time>2014-08-22T10:25:02Z</time>
      </trkpt>
      <trkpt lat="45.82472" lon="2.96289">
        <ele>910</ele>
        <time>2014-08-22T10:25:05Z</time>
      </trkpt>
      <trkpt lat="45.82471" lon="2.96286">
        <ele>910</ele>
        <time>2014-08-22T10:25:08Z</time>
      </trkpt>
      <trkpt lat="45.82472" lon="2.96282">
        <ele>910</ele>
        <time>2014-08-22T10:25:11Z</time>
      </trkpt>
      <trkpt lat="45.82473" lon="2.96279">
        <ele>911</ele>
        <time>2014-08-22T10:25:14Z</time>
      </trkpt>
      <trkpt lat="45.82473" lon="2.96279">
        <ele>911</ele>
        <time>2014-08-22T10:25:16Z</time>
      </trkpt>
      <trkpt lat="45.82471" lon="2.96278">
        <ele>912</ele>
        <time>2014-08-22T10:25:19Z</time>
      </trkpt>
      <trkpt lat="45.82471" lon="2.96277">
        <ele>912</ele>
        <time>2014-08-22T10:25:23Z</time>
      </trkpt>
      <trkpt lat="45.82471" lon="2.96276">
        <ele>912</ele>
        <time>2014-08-22T10:25:25Z</time>
      </trkpt>
      <trkpt lat="45.82471" lon="2.96276">
        <ele>911</ele>
        <time>2014-08-22T10:25:28Z</time>
      </trkpt>
      <trkpt lat="45.82471" lon="2.96276">
        <ele>911</ele>
        <time>2014-08-22T10:25:30Z</time>
      </trkpt>
      <trkpt lat="45.82471" lon="2.96275">
        <ele>911</ele>
        <time>2014-08-22T10:25:33Z</time>
      </trkpt>
      <trkpt lat="45.82471" lon="2.96274">
        <ele>911</ele>
        <time>2014-08-22T10:25:36Z</time>
      </trkpt>
      <trkpt lat="45.82471" lon="2.96274">
        <ele>911</ele>
        <time>2014-08-22T10:25:39Z</time>
      </trkpt>
      <trkpt lat="45.8247" lon="2.96272">
        <ele>911</ele>
        <time>2014-08-22T10:25:41Z</time>
      </trkpt>
      <trkpt lat="45.8247" lon="2.96267">
        <ele>911</ele>
        <time>2014-08-22T10:25:44Z</time>
      </trkpt>
      <trkpt lat="45.82472" lon="2.96262">
        <ele>912</ele>
        <time>2014-08-22T10:25:46Z</time>
      </trkpt>
      <trkpt lat="45.82472" lon="2.96253">
        <ele>912</ele>
        <time>2014-08-22T10:25:49Z</time>
      </trkpt>
      <trkpt lat="45.82472" lon="2.96246">
        <ele>913</ele>
        <time>2014-08-22T10:25:52Z</time>
      </trkpt>
      <trkpt lat="45.82473" lon="2.96237">
        <ele>914</ele>
        <time>2014-08-22T10:25:55Z</time>
      </trkpt>
      <trkpt lat="45.82473" lon="2.96232">
        <ele>914</ele>
        <time>2014-08-22T10:25:57Z</time>
      </trkpt>
      <trkpt lat="45.82473" lon="2.96223">
        <ele>915</ele>
        <time>2014-08-22T10:26:00Z</time>
      </trkpt>
      <trkpt lat="45.82472" lon="2.96213">
        <ele>916</ele>
        <time>2014-08-22T10:26:03Z</time>
      </trkpt>
      <trkpt lat="45.82472" lon="2.96206">
        <ele>917</ele>
        <time>2014-08-22T10:26:05Z</time>
      </trkpt>
      <trkpt lat="45.82471" lon="2.96197">
        <ele>918</ele>
        <time>2014-08-22T10:26:08Z</time>
      </trkpt>
      <trkpt lat="45.82472" lon="2.9619">
        <ele>918</ele>
        <time>2014-08-22T10:26:11Z</time>
      </trkpt>
      <trkpt lat="45.82472" lon="2.96186">
        <ele>919</ele>
        <time>2014-08-22T10:26:13Z</time>
      </trkpt>
      <trkpt lat="45.82471" lon="2.96183">
        <ele>919</ele>
        <time>2014-08-22T10:26:15Z</time>
      </trkpt>
      <trkpt lat="45.82471" lon="2.96178">
        <ele>920</ele>
        <time>2014-08-22T10:26:17Z</time>
      </trkpt>
      <trkpt lat="45.82469" lon="2.96175">
        <ele>921</ele>
        <time>2014-08-22T10:26:19Z</time>
      </trkpt>
      <trkpt lat="45.82467" lon="2.96171">
        <ele>921</ele>
        <time>2014-08-22T10:26:21Z</time>
      </trkpt>
      <trkpt lat="45.82464" lon="2.96166">
        <ele>922</ele>
        <time>2014-08-22T10:26:24Z</time>
      </trkpt>
      <trkpt lat="45.82461" lon="2.96161">
        <ele>923</ele>
        <time>2014-08-22T10:26:27Z</time>
      </trkpt>
      <trkpt lat="45.82458" lon="2.96158">
        <ele>923</ele>
        <time>2014-08-22T10:26:29Z</time>
      </trkpt>
      <trkpt lat="45.82455" lon="2.96154">
        <ele>924</ele>
        <time>2014-08-22T10:26:31Z</time>
      </trkpt>
      <trkpt lat="45.82452" lon="2.96149">
        <ele>924</ele>
        <time>2014-08-22T10:26:33Z</time>
      </trkpt>
      <trkpt lat="45.82448" lon="2.96145">
        <ele>924</ele>
        <time>2014-08-22T10:26:35Z</time>
      </trkpt>
      <trkpt lat="45.82444" lon="2.96138">
        <ele>924</ele>
        <time>2014-08-22T10:26:38Z</time>
      </trkpt>
      <trkpt lat="45.82438" lon="2.96134">
        <ele>924</ele>
        <time>2014-08-22T10:26:41Z</time>
      </trkpt>
      <trkpt lat="45.82433" lon="2.96129">
        <ele>925</ele>
        <time>2014-08-22T10:26:44Z</time>
      </trkpt>
      <trkpt lat="45.82428" lon="2.96128">
        <ele>926</ele>
        <time>2014-08-22T10:26:47Z</time>
      </trkpt>
      <trkpt lat="45.82422" lon="2.96124">
        <ele>927</ele>
        <time>2014-08-22T10:26:50Z</time>
      </trkpt>
      <trkpt lat="45.82415" lon="2.96119">
        <ele>927</ele>
        <time>2014-08-22T10:26:53Z</time>
      </trkpt>
      <trkpt lat="45.82408" lon="2.96114">
        <ele>928</ele>
        <time>2014-08-22T10:26:56Z</time>
      </trkpt>
      <trkpt lat="45.82404" lon="2.9611">
        <ele>928</ele>
        <time>2014-08-22T10:26:58Z</time>
      </trkpt>
      <trkpt lat="45.824" lon="2.96103">
        <ele>929</ele>
        <time>2014-08-22T10:27:01Z</time>
      </trkpt>
      <trkpt lat="45.82396" lon="2.96097">
        <ele>930</ele>
        <time>2014-08-22T10:27:04Z</time>
      </trkpt>
      <trkpt lat="45.82393" lon="2.96092">
        <ele>930</ele>
        <time>2014-08-22T10:27:06Z</time>
      </trkpt>
      <trkpt lat="45.82392" lon="2.96087">
        <ele>931</ele>
        <time>2014-08-22T10:27:08Z</time>
      </trkpt>
      <trkpt lat="45.82392" lon="2.96079">
        <ele>932</ele>
        <time>2014-08-22T10:27:11Z</time>
      </trkpt>
      <trkpt lat="45.82391" lon="2.96072">
        <ele>933</ele>
        <time>2014-08-22T10:27:14Z</time>
      </trkpt>
      <trkpt lat="45.82391" lon="2.96066">
        <ele>934</ele>
        <time>2014-08-22T10:27:16Z</time>
      </trkpt>
      <trkpt lat="45.82392" lon="2.96058">
        <ele>935</ele>
        <time>2014-08-22T10:27:19Z</time>
      </trkpt>
      <trkpt lat="45.82393" lon="2.96054">
        <ele>936</ele>
        <time>2014-08-22T10:27:21Z</time>
      </trkpt>
      <trkpt lat="45.82394" lon="2.9605">
        <ele>936</ele>
        <time>2014-08-22T10:27:23Z</time>
      </trkpt>
      <trkpt lat="45.82396" lon="2.96048">
        <ele>937</ele>
        <time>2014-08-22T10:27:26Z</time>
      </trkpt>
      <trkpt lat="45.82399" lon="2.96045">
        <ele>936</ele>
        <time>2014-08-22T10:27:29Z</time>
      </trkpt>
      <trkpt lat="45.82405" lon="2.96042">
        <ele>936</ele>
        <time>2014-08-22T10:27:31Z</time>
      </trkpt>
      <trkpt lat="45.82408" lon="2.9604">
        <ele>936</ele>
        <time>2014-08-22T10:27:33Z</time>
      </trkpt>
      <trkpt lat="45.8241" lon="2.96038">
        <ele>936</ele>
        <time>2014-08-22T10:27:36Z</time>
      </trkpt>
      <trkpt lat="45.82411" lon="2.96039">
        <ele>936</ele>
        <time>2014-08-22T10:27:38Z</time>
      </trkpt>
      <trkpt lat="45.82413" lon="2.96038">
        <ele>937</ele>
        <time>2014-08-22T10:27:41Z</time>
      </trkpt>
      <trkpt lat="45.82415" lon="2.96036">
        <ele>938</ele>
        <time>2014-08-22T10:27:44Z</time>
      </trkpt>
      <trkpt lat="45.82417" lon="2.96035">
        <ele>939</ele>
        <time>2014-08-22T10:27:46Z</time>
      </trkpt>
      <trkpt lat="45.82419" lon="2.96032">
        <ele>941</ele>
        <time>2014-08-22T10:27:49Z</time>
      </trkpt>
      <trkpt lat="45.82423" lon="2.96028">
        <ele>942</ele>
        <time>2014-08-22T10:27:52Z</time>
      </trkpt>
      <trkpt lat="45.82425" lon="2.96025">
        <ele>943</ele>
        <time>2014-08-22T10:27:55Z</time>
      </trkpt>
      <trkpt lat="45.82428" lon="2.96024">
        <ele>943</ele>
        <time>2014-08-22T10:27:57Z</time>
      </trkpt>
      <trkpt lat="45.82433" lon="2.96022">
        <ele>944</ele>
        <time>2014-08-22T10:28:00Z</time>
      </trkpt>
      <trkpt lat="45.82434" lon="2.96021">
        <ele>945</ele>
        <time>2014-08-22T10:28:02Z</time>
      </trkpt>
      <trkpt lat="45.82438" lon="2.96015">
        <ele>946</ele>
        <time>2014-08-22T10:28:05Z</time>
      </trkpt>
      <trkpt lat="45.8244" lon="2.96012">
        <ele>946</ele>
        <time>2014-08-22T10:28:07Z</time>
      </trkpt>
      <trkpt lat="45.82441" lon="2.96008">
        <ele>947</ele>
        <time>2014-08-22T10:28:09Z</time>
      </trkpt>
      <trkpt lat="45.82442" lon="2.96005">
        <ele>947</ele>
        <time>2014-08-22T10:28:11Z</time>
      </trkpt>
      <trkpt lat="45.82445" lon="2.95999">
        <ele>947</ele>
        <time>2014-08-22T10:28:14Z</time>
      </trkpt>
      <trkpt lat="45.82447" lon="2.95997">
        <ele>948</ele>
        <time>2014-08-22T10:28:16Z</time>
      </trkpt>
      <trkpt lat="45.82449" lon="2.95993">
        <ele>949</ele>
        <time>2014-08-22T10:28:18Z</time>
      </trkpt>
      <trkpt lat="45.82449" lon="2.9599">
        <ele>950</ele>
        <time>2014-08-22T10:28:20Z</time>
      </trkpt>
      <trkpt lat="45.82451" lon="2.95986">
        <ele>951</ele>
        <time>2014-08-22T10:28:22Z</time>
      </trkpt>
      <trkpt lat="45.82453" lon="2.95981">
        <ele>951</ele>
        <time>2014-08-22T10:28:24Z</time>
      </trkpt>
      <trkpt lat="45.82454" lon="2.95977">
        <ele>952</ele>
        <time>2014-08-22T10:28:26Z</time>
      </trkpt>
      <trkpt lat="45.82457" lon="2.95973">
        <ele>953</ele>
        <time>2014-08-22T10:28:29Z</time>
      </trkpt>
      <trkpt lat="45.82458" lon="2.95971">
        <ele>954</ele>
        <time>2014-08-22T10:28:31Z</time>
      </trkpt>
      <trkpt lat="45.8246" lon="2.95967">
        <ele>955</ele>
        <time>2014-08-22T10:28:34Z</time>
      </trkpt>
      <trkpt lat="45.82462" lon="2.95965">
        <ele>955</ele>
        <time>2014-08-22T10:28:36Z</time>
      </trkpt>
      <trkpt lat="45.82463" lon="2.95962">
        <ele>956</ele>
        <time>2014-08-22T10:28:39Z</time>
      </trkpt>
      <trkpt lat="45.82464" lon="2.9596">
        <ele>956</ele>
        <time>2014-08-22T10:28:41Z</time>
      </trkpt>
      <trkpt lat="45.82465" lon="2.95958">
        <ele>957</ele>
        <time>2014-08-22T10:28:43Z</time>
      </trkpt>
      <trkpt lat="45.82467" lon="2.95956">
        <ele>957</ele>
        <time>2014-08-22T10:28:45Z</time>
      </trkpt>
      <trkpt lat="45.82469" lon="2.95953">
        <ele>958</ele>
        <time>2014-08-22T10:28:47Z</time>
      </trkpt>
      <trkpt lat="45.8247" lon="2.95951">
        <ele>958</ele>
        <time>2014-08-22T10:28:49Z</time>
      </trkpt>
      <trkpt lat="45.82471" lon="2.9595">
        <ele>959</ele>
        <time>2014-08-22T10:28:51Z</time>
      </trkpt>
      <trkpt lat="45.82471" lon="2.9595">
        <ele>960</ele>
        <time>2014-08-22T10:28:54Z</time>
      </trkpt>
      <trkpt lat="45.82472" lon="2.95951">
        <ele>960</ele>
        <time>2014-08-22T10:28:56Z</time>
      </trkpt>
      <trkpt lat="45.82473" lon="2.95952">
        <ele>960</ele>
        <time>2014-08-22T10:28:58Z</time>
      </trkpt>
      <trkpt lat="45.82475" lon="2.95952">
        <ele>961</ele>
        <time>2014-08-22T10:29:01Z</time>
      </trkpt>
      <trkpt lat="45.82475" lon="2.95953">
        <ele>961</ele>
        <time>2014-08-22T10:29:03Z</time>
      </trkpt>
      <trkpt lat="45.82475" lon="2.95955">
        <ele>962</ele>
        <time>2014-08-22T10:29:06Z</time>
      </trkpt>
      <trkpt lat="45.82475" lon="2.95956">
        <ele>962</ele>
        <time>2014-08-22T10:29:09Z</time>
      </trkpt>
      <trkpt lat="45.82475" lon="2.95957">
        <ele>964</ele>
        <time>2014-08-22T10:29:13Z</time>
      </trkpt>
      <trkpt lat="45.82475" lon="2.95956">
        <ele>964</ele>
        <time>2014-08-22T10:29:15Z</time>
      </trkpt>
      <trkpt lat="45.82476" lon="2.95954">
        <ele>965</ele>
        <time>2014-08-22T10:29:17Z</time>
      </trkpt>
      <trkpt lat="45.82476" lon="2.95951">
        <ele>966</ele>
        <time>2014-08-22T10:29:20Z</time>
      </trkpt>
      <trkpt lat="45.82477" lon="2.95947">
        <ele>966</ele>
        <time>2014-08-22T10:29:23Z</time>
      </trkpt>
      <trkpt lat="45.82478" lon="2.95943">
        <ele>966</ele>
        <time>2014-08-22T10:29:25Z</time>
      </trkpt>
      <trkpt lat="45.82478" lon="2.9594">
        <ele>967</ele>
        <time>2014-08-22T10:29:28Z</time>
      </trkpt>
      <trkpt lat="45.8248" lon="2.95937">
        <ele>968</ele>
        <time>2014-08-22T10:29:30Z</time>
      </trkpt>
      <trkpt lat="45.82482" lon="2.95932">
        <ele>968</ele>
        <time>2014-08-22T10:29:33Z</time>
      </trkpt>
      <trkpt lat="45.82483" lon="2.9593">
        <ele>969</ele>
        <time>2014-08-22T10:29:35Z</time>
      </trkpt>
      <trkpt lat="45.82485" lon="2.95927">
        <ele>969</ele>
        <time>2014-08-22T10:29:38Z</time>
      </trkpt>
      <trkpt lat="45.82486" lon="2.95925">
        <ele>970</ele>
        <time>2014-08-22T10:29:40Z</time>
      </trkpt>
      <trkpt lat="45.82487" lon="2.95922">
        <ele>970</ele>
        <time>2014-08-22T10:29:42Z</time>
      </trkpt>
      <trkpt lat="45.82488" lon="2.95919">
        <ele>971</ele>
        <time>2014-08-22T10:29:45Z</time>
      </trkpt>
      <trkpt lat="45.82489" lon="2.95916">
        <ele>972</ele>
        <time>2014-08-22T10:29:48Z</time>
      </trkpt>
      <trkpt lat="45.82489" lon="2.95914">
        <ele>972</ele>
        <time>2014-08-22T10:29:50Z</time>
      </trkpt>
      <trkpt lat="45.8249" lon="2.95912">
        <ele>973</ele>
        <time>2014-08-22T10:29:53Z</time>
      </trkpt>
      <trkpt lat="45.82491" lon="2.95911">
        <ele>973</ele>
        <time>2014-08-22T10:29:55Z</time>
      </trkpt>
      <trkpt lat="45.82491" lon="2.9591">
        <ele>973</ele>
        <time>2014-08-22T10:29:58Z</time>
      </trkpt>
      <trkpt lat="45.82491" lon="2.95907">
        <ele>973</ele>
        <time>2014-08-22T10:30:00Z</time>
      </trkpt>
      <trkpt lat="45.82491" lon="2.95902">
        <ele>973</ele>
        <time>2014-08-22T10:30:03Z</time>
      </trkpt>
      <trkpt lat="45.82494" lon="2.95899">
        <ele>974</ele>
        <time>2014-08-22T10:30:06Z</time>
      </trkpt>
      <trkpt lat="45.82495" lon="2.95896">
        <ele>975</ele>
        <time>2014-08-22T10:30:08Z</time>
      </trkpt>
      <trkpt lat="45.82496" lon="2.95888">
        <ele>977</ele>
        <time>2014-08-22T10:30:11Z</time>
      </trkpt>
      <trkpt lat="45.82497" lon="2.95885">
        <ele>977</ele>
        <time>2014-08-22T10:30:13Z</time>
      </trkpt>
      <trkpt lat="45.82498" lon="2.95883">
        <ele>978</ele>
        <time>2014-08-22T10:30:15Z</time>
      </trkpt>
      <trkpt lat="45.825" lon="2.95876">
        <ele>979</ele>
        <time>2014-08-22T10:30:18Z</time>
      </trkpt>
      <trkpt lat="45.82502" lon="2.95868">
        <ele>981</ele>
        <time>2014-08-22T10:30:21Z</time>
      </trkpt>
      <trkpt lat="45.82503" lon="2.95861">
        <ele>982</ele>
        <time>2014-08-22T10:30:24Z</time>
      </trkpt>
      <trkpt lat="45.82504" lon="2.95853">
        <ele>983</ele>
        <time>2014-08-22T10:30:27Z</time>
      </trkpt>
      <trkpt lat="45.82506" lon="2.95846">
        <ele>985</ele>
        <time>2014-08-22T10:30:30Z</time>
      </trkpt>
      <trkpt lat="45.82507" lon="2.95842">
        <ele>986</ele>
        <time>2014-08-22T10:30:32Z</time>
      </trkpt>
      <trkpt lat="45.82508" lon="2.95837">
        <ele>987</ele>
        <time>2014-08-22T10:30:35Z</time>
      </trkpt>
      <trkpt lat="45.8251" lon="2.95833">
        <ele>987</ele>
        <time>2014-08-22T10:30:37Z</time>
      </trkpt>
      <trkpt lat="45.82512" lon="2.95827">
        <ele>989</ele>
        <time>2014-08-22T10:30:40Z</time>
      </trkpt>
      <trkpt lat="45.82513" lon="2.95826">
        <ele>989</ele>
        <time>2014-08-22T10:30:42Z</time>
      </trkpt>
      <trkpt lat="45.82514" lon="2.95825">
        <ele>990</ele>
        <time>2014-08-22T10:30:44Z</time>
      </trkpt>
      <trkpt lat="45.82515" lon="2.95823">
        <ele>990</ele>
        <time>2014-08-22T10:30:47Z</time>
      </trkpt>
      <trkpt lat="45.82515" lon="2.95821">
        <ele>990</ele>
        <time>2014-08-22T10:30:50Z</time>
      </trkpt>
      <trkpt lat="45.82515" lon="2.95821">
        <ele>990</ele>
        <time>2014-08-22T10:30:52Z</time>
      </trkpt>
      <trkpt lat="45.82515" lon="2.9582">
        <ele>991</ele>
        <time>2014-08-22T10:30:55Z</time>
      </trkpt>
      <trkpt lat="45.82515" lon="2.95818">
        <ele>991</ele>
        <time>2014-08-22T10:30:57Z</time>
      </trkpt>
      <trkpt lat="45.82515" lon="2.95816">
        <ele>991</ele>
        <time>2014-08-22T10:30:59Z</time>
      </trkpt>
      <trkpt lat="45.82515" lon="2.95813">
        <ele>991</ele>
        <time>2014-08-22T10:31:02Z</time>
      </trkpt>
      <trkpt lat="45.82515" lon="2.95811">
        <ele>992</ele>
        <time>2014-08-22T10:31:04Z</time>
      </trkpt>
      <trkpt lat="45.82516" lon="2.95808">
        <ele>992</ele>
        <time>2014-08-22T10:31:07Z</time>
      </trkpt>
      <trkpt lat="45.82516" lon="2.95806">
        <ele>993</ele>
        <time>2014-08-22T10:31:09Z</time>
      </trkpt>
      <trkpt lat="45.82515" lon="2.95803">
        <ele>994</ele>
        <time>2014-08-22T10:31:11Z</time>
      </trkpt>
      <trkpt lat="45.82516" lon="2.95802">
        <ele>994</ele>
        <time>2014-08-22T10:31:14Z</time>
      </trkpt>
      <trkpt lat="45.82517" lon="2.95799">
        <ele>995</ele>
        <time>2014-08-22T10:31:17Z</time>
      </trkpt>
      <trkpt lat="45.82517" lon="2.95796">
        <ele>995</ele>
        <time>2014-08-22T10:31:19Z</time>
      </trkpt>
      <trkpt lat="45.82517" lon="2.95794">
        <ele>996</ele>
        <time>2014-08-22T10:31:21Z</time>
      </trkpt>
      <trkpt lat="45.82517" lon="2.95792">
        <ele>996</ele>
        <time>2014-08-22T10:31:23Z</time>
      </trkpt>
      <trkpt lat="45.82518" lon="2.9579">
        <ele>998</ele>
        <time>2014-08-22T10:31:25Z</time>
      </trkpt>
      <trkpt lat="45.82518" lon="2.95789">
        <ele>998</ele>
        <time>2014-08-22T10:31:28Z</time>
      </trkpt>
      <trkpt lat="45.82519" lon="2.95788">
        <ele>999</ele>
        <time>2014-08-22T10:31:30Z</time>
      </trkpt>
      <trkpt lat="45.82519" lon="2.95787">
        <ele>999</ele>
        <time>2014-08-22T10:31:32Z</time>
      </trkpt>
      <trkpt lat="45.82521" lon="2.95785">
        <ele>1000</ele>
        <time>2014-08-22T10:31:34Z</time>
      </trkpt>
      <trkpt lat="45.82521" lon="2.95784">
        <ele>1000</ele>
        <time>2014-08-22T10:31:36Z</time>
      </trkpt>
      <trkpt lat="45.82522" lon="2.95782">
        <ele>1001</ele>
        <time>2014-08-22T10:31:39Z</time>
      </trkpt>
      <trkpt lat="45.82523" lon="2.95778">
        <ele>1002</ele>
        <time>2014-08-22T10:31:42Z</time>
      </trkpt>
      <trkpt lat="45.82523" lon="2.95776">
        <ele>1002</ele>
        <time>2014-08-22T10:31:44Z</time>
      </trkpt>
      <trkpt lat="45.82523" lon="2.95773">
        <ele>1003</ele>
        <time>2014-08-22T10:31:47Z</time>
      </trkpt>
      <trkpt lat="45.82523" lon="2.95772">
        <ele>1003</ele>
        <time>2014-08-22T10:31:49Z</time>
      </trkpt>
      <trkpt lat="45.82523" lon="2.95771">
        <ele>1004</ele>
        <time>2014-08-22T10:31:51Z</time>
      </trkpt>
      <trkpt lat="45.82524" lon="2.95768">
        <ele>1004</ele>
        <time>2014-08-22T10:31:54Z</time>
      </trkpt>
      <trkpt lat="45.82524" lon="2.95767">
        <ele>1005</ele>
        <time>2014-08-22T10:31:56Z</time>
      </trkpt>
      <trkpt lat="45.82525" lon="2.95765">
        <ele>1006</ele>
        <time>2014-08-22T10:31:58Z</time>
      </trkpt>
      <trkpt lat="45.82525" lon="2.95764">
        <ele>1007</ele>
        <time>2014-08-22T10:32:01Z</time>
      </trkpt>
      <trkpt lat="45.82525" lon="2.95761">
        <ele>1007</ele>
        <time>2014-08-22T10:32:04Z</time>
      </trkpt>
      <trkpt lat="45.82526" lon="2.95759">
        <ele>1008</ele>
        <time>2014-08-22T10:32:06Z</time>
      </trkpt>
      <trkpt lat="45.82527" lon="2.95756">
        <ele>1008</ele>
        <time>2014-08-22T10:32:09Z</time>
      </trkpt>
      <trkpt lat="45.82527" lon="2.95754">
        <ele>1009</ele>
        <time>2014-08-22T10:32:12Z</time>
      </trkpt>
      <trkpt lat="45.82527" lon="2.95753">
        <ele>1010</ele>
        <time>2014-08-22T10:32:14Z</time>
      </trkpt>
      <trkpt lat="45.82528" lon="2.9575">
        <ele>1010</ele>
        <time>2014-08-22T10:32:17Z</time>
      </trkpt>
      <trkpt lat="45.82529" lon="2.95749">
        <ele>1011</ele>
        <time>2014-08-22T10:32:20Z</time>
      </trkpt>
      <trkpt lat="45.82529" lon="2.95747">
        <ele>1012</ele>
        <time>2014-08-22T10:32:23Z</time>
      </trkpt>
      <trkpt lat="45.8253" lon="2.95746">
        <ele>1012</ele>
        <time>2014-08-22T10:32:26Z</time>
      </trkpt>
      <trkpt lat="45.8253" lon="2.95745">
        <ele>1013</ele>
        <time>2014-08-22T10:32:28Z</time>
      </trkpt>
      <trkpt lat="45.82531" lon="2.95743">
        <ele>1013</ele>
        <time>2014-08-22T10:32:31Z</time>
      </trkpt>
      <trkpt lat="45.82531" lon="2.95741">
        <ele>1014</ele>
        <time>2014-08-22T10:32:33Z</time>
      </trkpt>
      <trkpt lat="45.82531" lon="2.9574">
        <ele>1015</ele>
        <time>2014-08-22T10:32:35Z</time>
      </trkpt>
      <trkpt lat="45.8253" lon="2.95738">
        <ele>1016</ele>
        <time>2014-08-22T10:32:38Z</time>
      </trkpt>
      <trkpt lat="45.8253" lon="2.95734">
        <ele>1016</ele>
        <time>2014-08-22T10:32:41Z</time>
      </trkpt>
      <trkpt lat="45.82531" lon="2.95732">
        <ele>1017</ele>
        <time>2014-08-22T10:32:43Z</time>
      </trkpt>
      <trkpt lat="45.8253" lon="2.9573">
        <ele>1017</ele>
        <time>2014-08-22T10:32:46Z</time>
      </trkpt>
      <trkpt lat="45.8253" lon="2.95728">
        <ele>1018</ele>
        <time>2014-08-22T10:32:49Z</time>
      </trkpt>
      <trkpt lat="45.82529" lon="2.95726">
        <ele>1019</ele>
        <time>2014-08-22T10:32:52Z</time>
      </trkpt>
      <trkpt lat="45.82529" lon="2.95725">
        <ele>1019</ele>
        <time>2014-08-22T10:32:54Z</time>
      </trkpt>
      <trkpt lat="45.82529" lon="2.95722">
        <ele>1020</ele>
        <time>2014-08-22T10:32:57Z</time>
      </trkpt>
      <trkpt lat="45.82529" lon="2.95719">
        <ele>1021</ele>
        <time>2014-08-22T10:32:59Z</time>
      </trkpt>
      <trkpt lat="45.82529" lon="2.95717">
        <ele>1021</ele>
        <time>2014-08-22T10:33:01Z</time>
      </trkpt>
      <trkpt lat="45.82529" lon="2.95713">
        <ele>1022</ele>
        <time>2014-08-22T10:33:04Z</time>
      </trkpt>
      <trkpt lat="45.82529" lon="2.95709">
        <ele>1022</ele>
        <time>2014-08-22T10:33:07Z</time>
      </trkpt>
      <trkpt lat="45.82528" lon="2.95706">
        <ele>1023</ele>
        <time>2014-08-22T10:33:09Z</time>
      </trkpt>
      <trkpt lat="45.82526" lon="2.95704">
        <ele>1023</ele>
        <time>2014-08-22T10:33:11Z</time>
      </trkpt>
      <trkpt lat="45.82525" lon="2.95702">
        <ele>1024</ele>
        <time>2014-08-22T10:33:13Z</time>
      </trkpt>
      <trkpt lat="45.82524" lon="2.957">
        <ele>1024</ele>
        <time>2014-08-22T10:33:16Z</time>
      </trkpt>
      <trkpt lat="45.82524" lon="2.95698">
        <ele>1025</ele>
        <time>2014-08-22T10:33:19Z</time>
      </trkpt>
      <trkpt lat="45.82523" lon="2.95697">
        <ele>1025</ele>
        <time>2014-08-22T10:33:22Z</time>
      </trkpt>
      <trkpt lat="45.82521" lon="2.95695">
        <ele>1025</ele>
        <time>2014-08-22T10:33:24Z</time>
      </trkpt>
      <trkpt lat="45.82519" lon="2.95693">
        <ele>1025</ele>
        <time>2014-08-22T10:33:26Z</time>
      </trkpt>
      <trkpt lat="45.82517" lon="2.95692">
        <ele>1025</ele>
        <time>2014-08-22T10:33:28Z</time>
      </trkpt>
      <trkpt lat="45.82516" lon="2.95689">
        <ele>1026</ele>
        <time>2014-08-22T10:33:30Z</time>
      </trkpt>
      <trkpt lat="45.82515" lon="2.95684">
        <ele>1026</ele>
        <time>2014-08-22T10:33:32Z</time>
      </trkpt>
      <trkpt lat="45.82512" lon="2.9568">
        <ele>1027</ele>
        <time>2014-08-22T10:33:35Z</time>
      </trkpt>
      <trkpt lat="45.8251" lon="2.95677">
        <ele>1028</ele>
        <time>2014-08-22T10:33:37Z</time>
      </trkpt>
      <trkpt lat="45.8251" lon="2.9567">
        <ele>1028</ele>
        <time>2014-08-22T10:33:40Z</time>
      </trkpt>
      <trkpt lat="45.8251" lon="2.95665">
        <ele>1030</ele>
        <time>2014-08-22T10:33:42Z</time>
      </trkpt>
      <trkpt lat="45.8251" lon="2.95664">
        <ele>1031</ele>
        <time>2014-08-22T10:33:45Z</time>
      </trkpt>
      <trkpt lat="45.8251" lon="2.95663">
        <ele>1032</ele>
        <time>2014-08-22T10:33:48Z</time>
      </trkpt>
      <trkpt lat="45.8251" lon="2.95663">
        <ele>1032</ele>
        <time>2014-08-22T10:33:50Z</time>
      </trkpt>
      <trkpt lat="45.82509" lon="2.95664">
        <ele>1032</ele>
        <time>2014-08-22T10:33:53Z</time>
      </trkpt>
      <trkpt lat="45.82509" lon="2.95664">
        <ele>1032</ele>
        <time>2014-08-22T10:33:56Z</time>
      </trkpt>
      <trkpt lat="45.82508" lon="2.95663">
        <ele>1032</ele>
        <time>2014-08-22T10:33:58Z</time>
      </trkpt>
      <trkpt lat="45.82508" lon="2.95663">
        <ele>1032</ele>
        <time>2014-08-22T10:34:03Z</time>
      </trkpt>
      <trkpt lat="45.82508" lon="2.95661">
        <ele>1031</ele>
        <time>2014-08-22T10:34:05Z</time>
      </trkpt>
      <trkpt lat="45.82508" lon="2.9566">
        <ele>1031</ele>
        <time>2014-08-22T10:34:07Z</time>
      </trkpt>
      <trkpt lat="45.82507" lon="2.95658">
        <ele>1032</ele>
        <time>2014-08-22T10:34:09Z</time>
      </trkpt>
      <trkpt lat="45.82506" lon="2.95657">
        <ele>1032</ele>
        <time>2014-08-22T10:34:13Z</time>
      </trkpt>
      <trkpt lat="45.82506" lon="2.95657">
        <ele>1033</ele>
        <time>2014-08-22T10:34:15Z</time>
      </trkpt>
      <trkpt lat="45.82506" lon="2.95657">
        <ele>1033</ele>
        <time>2014-08-22T10:34:18Z</time>
      </trkpt>
      <trkpt lat="45.82504" lon="2.95655">
        <ele>1033</ele>
        <time>2014-08-22T10:34:21Z</time>
      </trkpt>
      <trkpt lat="45.82502" lon="2.95649">
        <ele>1033</ele>
        <time>2014-08-22T10:34:24Z</time>
      </trkpt>
      <trkpt lat="45.825" lon="2.95646">
        <ele>1034</ele>
        <time>2014-08-22T10:34:26Z</time>
      </trkpt>
      <trkpt lat="45.82499" lon="2.95642">
        <ele>1034</ele>
        <time>2014-08-22T10:34:28Z</time>
      </trkpt>
      <trkpt lat="45.82497" lon="2.95638">
        <ele>1035</ele>
        <time>2014-08-22T10:34:30Z</time>
      </trkpt>
      <trkpt lat="45.82495" lon="2.95632">
        <ele>1036</ele>
        <time>2014-08-22T10:34:33Z</time>
      </trkpt>
      <trkpt lat="45.82494" lon="2.95628">
        <ele>1036</ele>
        <time>2014-08-22T10:34:35Z</time>
      </trkpt>
      <trkpt lat="45.82493" lon="2.95623">
        <ele>1037</ele>
        <time>2014-08-22T10:34:37Z</time>
      </trkpt>
      <trkpt lat="45.82492" lon="2.95619">
        <ele>1037</ele>
        <time>2014-08-22T10:34:39Z</time>
      </trkpt>
      <trkpt lat="45.82491" lon="2.95613">
        <ele>1039</ele>
        <time>2014-08-22T10:34:42Z</time>
      </trkpt>
      <trkpt lat="45.82489" lon="2.9561">
        <ele>1039</ele>
        <time>2014-08-22T10:34:44Z</time>
      </trkpt>
      <trkpt lat="45.82487" lon="2.95605">
        <ele>1041</ele>
        <time>2014-08-22T10:34:47Z</time>
      </trkpt>
      <trkpt lat="45.82486" lon="2.95599">
        <ele>1041</ele>
        <time>2014-08-22T10:34:50Z</time>
      </trkpt>
      <trkpt lat="45.82486" lon="2.95592">
        <ele>1042</ele>
        <time>2014-08-22T10:34:53Z</time>
      </trkpt>
      <trkpt lat="45.82485" lon="2.95588">
        <ele>1043</ele>
        <time>2014-08-22T10:34:55Z</time>
      </trkpt>
      <trkpt lat="45.82484" lon="2.95583">
        <ele>1044</ele>
        <time>2014-08-22T10:34:58Z</time>
      </trkpt>
      <trkpt lat="45.82483" lon="2.95577">
        <ele>1045</ele>
        <time>2014-08-22T10:35:01Z</time>
      </trkpt>
      <trkpt lat="45.82483" lon="2.95572">
        <ele>1045</ele>
        <time>2014-08-22T10:35:03Z</time>
      </trkpt>
      <trkpt lat="45.82483" lon="2.95565">
        <ele>1047</ele>
        <time>2014-08-22T10:35:06Z</time>
      </trkpt>
      <trkpt lat="45.82483" lon="2.95561">
        <ele>1048</ele>
        <time>2014-08-22T10:35:08Z</time>
      </trkpt>
      <trkpt lat="45.82483" lon="2.95554">
        <ele>1049</ele>
        <time>2014-08-22T10:35:11Z</time>
      </trkpt>
      <trkpt lat="45.82481" lon="2.95548">
        <ele>1050</ele>
        <time>2014-08-22T10:35:14Z</time>
      </trkpt>
      <trkpt lat="45.82481" lon="2.95544">
        <ele>1050</ele>
        <time>2014-08-22T10:35:16Z</time>
      </trkpt>
      <trkpt lat="45.8248" lon="2.95538">
        <ele>1051</ele>
        <time>2014-08-22T10:35:18Z</time>
      </trkpt>
      <trkpt lat="45.82479" lon="2.95532">
        <ele>1052</ele>
        <time>2014-08-22T10:35:22Z</time>
      </trkpt>
      <trkpt lat="45.82479" lon="2.95528">
        <ele>1052</ele>
        <time>2014-08-22T10:35:24Z</time>
      </trkpt>
      <trkpt lat="45.82478" lon="2.95521">
        <ele>1053</ele>
        <time>2014-08-22T10:35:27Z</time>
      </trkpt>
      <trkpt lat="45.82477" lon="2.95517">
        <ele>1054</ele>
        <time>2014-08-22T10:35:29Z</time>
      </trkpt>
      <trkpt lat="45.82476" lon="2.9551">
        <ele>1055</ele>
        <time>2014-08-22T10:35:31Z</time>
      </trkpt>
      <trkpt lat="45.82475" lon="2.95506">
        <ele>1056</ele>
        <time>2014-08-22T10:35:33Z</time>
      </trkpt>
      <trkpt lat="45.82474" lon="2.955">
        <ele>1056</ele>
        <time>2014-08-22T10:35:37Z</time>
      </trkpt>
      <trkpt lat="45.82473" lon="2.95494">
        <ele>1057</ele>
        <time>2014-08-22T10:35:40Z</time>
      </trkpt>
      <trkpt lat="45.82471" lon="2.95488">
        <ele>1058</ele>
        <time>2014-08-22T10:35:42Z</time>
      </trkpt>
      <trkpt lat="45.82471" lon="2.95483">
        <ele>1058</ele>
        <time>2014-08-22T10:35:45Z</time>
      </trkpt>
      <trkpt lat="45.8247" lon="2.95477">
        <ele>1059</ele>
        <time>2014-08-22T10:35:48Z</time>
      </trkpt>
      <trkpt lat="45.82469" lon="2.95473">
        <ele>1060</ele>
        <time>2014-08-22T10:35:50Z</time>
      </trkpt>
      <trkpt lat="45.82469" lon="2.95467">
        <ele>1061</ele>
        <time>2014-08-22T10:35:53Z</time>
      </trkpt>
      <trkpt lat="45.82468" lon="2.95462">
        <ele>1062</ele>
        <time>2014-08-22T10:35:55Z</time>
      </trkpt>
      <trkpt lat="45.82467" lon="2.95458">
        <ele>1062</ele>
        <time>2014-08-22T10:35:57Z</time>
      </trkpt>
      <trkpt lat="45.82466" lon="2.95452">
        <ele>1063</ele>
        <time>2014-08-22T10:36:01Z</time>
      </trkpt>
      <trkpt lat="45.82465" lon="2.95448">
        <ele>1063</ele>
        <time>2014-08-22T10:36:03Z</time>
      </trkpt>
      <trkpt lat="45.82464" lon="2.95441">
        <ele>1064</ele>
        <time>2014-08-22T10:36:06Z</time>
      </trkpt>
      <trkpt lat="45.82463" lon="2.95434">
        <ele>1064</ele>
        <time>2014-08-22T10:36:08Z</time>
      </trkpt>
      <trkpt lat="45.82462" lon="2.95429">
        <ele>1065</ele>
        <time>2014-08-22T10:36:11Z</time>
      </trkpt>
      <trkpt lat="45.82462" lon="2.95423">
        <ele>1066</ele>
        <time>2014-08-22T10:36:14Z</time>
      </trkpt>
      <trkpt lat="45.82461" lon="2.95416">
        <ele>1067</ele>
        <time>2014-08-22T10:36:16Z</time>
      </trkpt>
      <trkpt lat="45.82461" lon="2.95412">
        <ele>1067</ele>
        <time>2014-08-22T10:36:19Z</time>
      </trkpt>
      <trkpt lat="45.82461" lon="2.95406">
        <ele>1068</ele>
        <time>2014-08-22T10:36:21Z</time>
      </trkpt>
      <trkpt lat="45.8246" lon="2.95402">
        <ele>1069</ele>
        <time>2014-08-22T10:36:24Z</time>
      </trkpt>
      <trkpt lat="45.8246" lon="2.95399">
        <ele>1069</ele>
        <time>2014-08-22T10:36:26Z</time>
      </trkpt>
      <trkpt lat="45.82468" lon="2.95395">
        <ele>1069</ele>
        <time>2014-08-22T10:36:28Z</time>
      </trkpt>
      <trkpt lat="45.82467" lon="2.95392">
        <ele>1069</ele>
        <time>2014-08-22T10:36:31Z</time>
      </trkpt>
      <trkpt lat="45.82463" lon="2.95389">
        <ele>1069</ele>
        <time>2014-08-22T10:36:33Z</time>
      </trkpt>
      <trkpt lat="45.82454" lon="2.95375">
        <ele>1069</ele>
        <time>2014-08-22T10:36:35Z</time>
      </trkpt>
      <trkpt lat="45.82439" lon="2.95352">
        <ele>1067</ele>
        <time>2014-08-22T10:36:38Z</time>
      </trkpt>
      <trkpt lat="45.8243" lon="2.9534">
        <ele>1064</ele>
        <time>2014-08-22T10:36:40Z</time>
      </trkpt>
      <trkpt lat="45.82422" lon="2.95327">
        <ele>1061</ele>
        <time>2014-08-22T10:36:42Z</time>
      </trkpt>
      <trkpt lat="45.82412" lon="2.9531">
        <ele>1058</ele>
        <time>2014-08-22T10:36:44Z</time>
      </trkpt>
      <trkpt lat="45.82401" lon="2.95281">
        <ele>1054</ele>
        <time>2014-08-22T10:36:47Z</time>
      </trkpt>
      <trkpt lat="45.82391" lon="2.95248">
        <ele>1051</ele>
        <time>2014-08-22T10:36:50Z</time>
      </trkpt>
      <trkpt lat="45.82387" lon="2.95224">
        <ele>1049</ele>
        <time>2014-08-22T10:36:53Z</time>
      </trkpt>
      <trkpt lat="45.82385" lon="2.95213">
        <ele>1048</ele>
        <time>2014-08-22T10:36:55Z</time>
      </trkpt>
      <trkpt lat="45.82383" lon="2.95202">
        <ele>1047</ele>
        <time>2014-08-22T10:36:58Z</time>
      </trkpt>
      <trkpt lat="45.82382" lon="2.95191">
        <ele>1048</ele>
        <time>2014-08-22T10:37:01Z</time>
      </trkpt>
      <trkpt lat="45.82382" lon="2.95184">
        <ele>1048</ele>
        <time>2014-08-22T10:37:03Z</time>
      </trkpt>
      <trkpt lat="45.82382" lon="2.95179">
        <ele>1048</ele>
        <time>2014-08-22T10:37:06Z</time>
      </trkpt>
      <trkpt lat="45.82382" lon="2.95169">
        <ele>1049</ele>
        <time>2014-08-22T10:37:08Z</time>
      </trkpt>
      <trkpt lat="45.82381" lon="2.95162">
        <ele>1049</ele>
        <time>2014-08-22T10:37:10Z</time>
      </trkpt>
      <trkpt lat="45.8238" lon="2.95152">
        <ele>1050</ele>
        <time>2014-08-22T10:37:13Z</time>
      </trkpt>
      <trkpt lat="45.82378" lon="2.95145">
        <ele>1050</ele>
        <time>2014-08-22T10:37:15Z</time>
      </trkpt>
      <trkpt lat="45.82376" lon="2.95137">
        <ele>1051</ele>
        <time>2014-08-22T10:37:18Z</time>
      </trkpt>
      <trkpt lat="45.82375" lon="2.95132">
        <ele>1051</ele>
        <time>2014-08-22T10:37:20Z</time>
      </trkpt>
      <trkpt lat="45.82375" lon="2.95124">
        <ele>1052</ele>
        <time>2014-08-22T10:37:23Z</time>
      </trkpt>
      <trkpt lat="45.82373" lon="2.95118">
        <ele>1052</ele>
        <time>2014-08-22T10:37:25Z</time>
      </trkpt>
      <trkpt lat="45.82373" lon="2.95111">
        <ele>1052</ele>
        <time>2014-08-22T10:37:27Z</time>
      </trkpt>
      <trkpt lat="45.82372" lon="2.95102">
        <ele>1052</ele>
        <time>2014-08-22T10:37:29Z</time>
      </trkpt>
      <trkpt lat="45.82371" lon="2.95092">
        <ele>1052</ele>
        <time>2014-08-22T10:37:32Z</time>
      </trkpt>
      <trkpt lat="45.82371" lon="2.95075">
        <ele>1052</ele>
        <time>2014-08-22T10:37:34Z</time>
      </trkpt>
      <trkpt lat="45.82373" lon="2.95058">
        <ele>1051</ele>
        <time>2014-08-22T10:37:37Z</time>
      </trkpt>
      <trkpt lat="45.82377" lon="2.95046">
        <ele>1050</ele>
        <time>2014-08-22T10:37:39Z</time>
      </trkpt>
      <trkpt lat="45.82384" lon="2.95033">
        <ele>1050</ele>
        <time>2014-08-22T10:37:42Z</time>
      </trkpt>
      <trkpt lat="45.82387" lon="2.95029">
        <ele>1049</ele>
        <time>2014-08-22T10:37:44Z</time>
      </trkpt>
      <trkpt lat="45.82394" lon="2.95025">
        <ele>1049</ele>
        <time>2014-08-22T10:37:47Z</time>
      </trkpt>
      <trkpt lat="45.82397" lon="2.95024">
        <ele>1049</ele>
        <time>2014-08-22T10:37:49Z</time>
      </trkpt>
      <trkpt lat="45.82401" lon="2.95022">
        <ele>1047</ele>
        <time>2014-08-22T10:37:52Z</time>
      </trkpt>
      <trkpt lat="45.82404" lon="2.95022">
        <ele>1046</ele>
        <time>2014-08-22T10:37:54Z</time>
      </trkpt>
      <trkpt lat="45.82411" lon="2.95023">
        <ele>1045</ele>
        <time>2014-08-22T10:37:57Z</time>
      </trkpt>
      <trkpt lat="45.82416" lon="2.95023">
        <ele>1044</ele>
        <time>2014-08-22T10:37:59Z</time>
      </trkpt>
      <trkpt lat="45.82421" lon="2.95025">
        <ele>1044</ele>
        <time>2014-08-22T10:38:01Z</time>
      </trkpt>
      <trkpt lat="45.82424" lon="2.95029">
        <ele>1044</ele>
        <time>2014-08-22T10:38:04Z</time>
      </trkpt>
      <trkpt lat="45.82425" lon="2.95038">
        <ele>1043</ele>
        <time>2014-08-22T10:38:06Z</time>
      </trkpt>
      <trkpt lat="45.82422" lon="2.95048">
        <ele>1042</ele>
        <time>2014-08-22T10:38:09Z</time>
      </trkpt>
      <trkpt lat="45.82418" lon="2.9506">
        <ele>1040</ele>
        <time>2014-08-22T10:38:12Z</time>
      </trkpt>
      <trkpt lat="45.82418" lon="2.95068">
        <ele>1039</ele>
        <time>2014-08-22T10:38:14Z</time>
      </trkpt>
      <trkpt lat="45.82426" lon="2.9508">
        <ele>1036</ele>
        <time>2014-08-22T10:38:17Z</time>
      </trkpt>
      <trkpt lat="45.82441" lon="2.9509">
        <ele>1034</ele>
        <time>2014-08-22T10:38:20Z</time>
      </trkpt>
      <trkpt lat="45.82454" lon="2.95091">
        <ele>1033</ele>
        <time>2014-08-22T10:38:22Z</time>
      </trkpt>
      <trkpt lat="45.82469" lon="2.951">
        <ele>1030</ele>
        <time>2014-08-22T10:38:25Z</time>
      </trkpt>
      <trkpt lat="45.82476" lon="2.95118">
        <ele>1027</ele>
        <time>2014-08-22T10:38:28Z</time>
      </trkpt>
      <trkpt lat="45.82485" lon="2.95125">
        <ele>1026</ele>
        <time>2014-08-22T10:38:30Z</time>
      </trkpt>
      <trkpt lat="45.82495" lon="2.95131">
        <ele>1025</ele>
        <time>2014-08-22T10:38:33Z</time>
      </trkpt>
      <trkpt lat="45.82512" lon="2.95143">
        <ele>1023</ele>
        <time>2014-08-22T10:38:35Z</time>
      </trkpt>
      <trkpt lat="45.82518" lon="2.95149">
        <ele>1021</ele>
        <time>2014-08-22T10:38:37Z</time>
      </trkpt>
      <trkpt lat="45.82522" lon="2.95152">
        <ele>1018</ele>
        <time>2014-08-22T10:38:39Z</time>
      </trkpt>
      <trkpt lat="45.82529" lon="2.95153">
        <ele>1016</ele>
        <time>2014-08-22T10:38:42Z</time>
      </trkpt>
      <trkpt lat="45.82534" lon="2.95154">
        <ele>1015</ele>
        <time>2014-08-22T10:38:44Z</time>
      </trkpt>
      <trkpt lat="45.82537" lon="2.95152">
        <ele>1015</ele>
        <time>2014-08-22T10:38:47Z</time>
      </trkpt>
      <trkpt lat="45.82537" lon="2.95152">
        <ele>1015</ele>
        <time>2014-08-22T10:38:49Z</time>
      </trkpt>
      <trkpt lat="45.82538" lon="2.95151">
        <ele>1014</ele>
        <time>2014-08-22T10:38:52Z</time>
      </trkpt>
      <trkpt lat="45.82538" lon="2.95151">
        <ele>1014</ele>
        <time>2014-08-22T10:38:55Z</time>
      </trkpt>
      <trkpt lat="45.82539" lon="2.95151">
        <ele>1014</ele>
        <time>2014-08-22T10:38:57Z</time>
      </trkpt>
      <trkpt lat="45.8254" lon="2.95151">
        <ele>1014</ele>
        <time>2014-08-22T10:38:59Z</time>
      </trkpt>
      <trkpt lat="45.82541" lon="2.95151">
        <ele>1015</ele>
        <time>2014-08-22T10:39:02Z</time>
      </trkpt>
      <trkpt lat="45.82541" lon="2.9515">
        <ele>1015</ele>
        <time>2014-08-22T10:39:04Z</time>
      </trkpt>
      <trkpt lat="45.82544" lon="2.95152">
        <ele>1015</ele>
        <time>2014-08-22T10:39:07Z</time>
      </trkpt>
      <trkpt lat="45.82545" lon="2.95152">
        <ele>1015</ele>
        <time>2014-08-22T10:39:09Z</time>
      </trkpt>
      <trkpt lat="45.82548" lon="2.95155">
        <ele>1014</ele>
        <time>2014-08-22T10:39:12Z</time>
      </trkpt>
      <trkpt lat="45.82554" lon="2.95157">
        <ele>1014</ele>
        <time>2014-08-22T10:39:14Z</time>
      </trkpt>
      <trkpt lat="45.82564" lon="2.95161">
        <ele>1013</ele>
        <time>2014-08-22T10:39:17Z</time>
      </trkpt>
      <trkpt lat="45.82571" lon="2.95167">
        <ele>1012</ele>
        <time>2014-08-22T10:39:20Z</time>
      </trkpt>
      <trkpt lat="45.82576" lon="2.95173">
        <ele>1011</ele>
        <time>2014-08-22T10:39:22Z</time>
      </trkpt>
      <trkpt lat="45.82585" lon="2.95179">
        <ele>1011</ele>
        <time>2014-08-22T10:39:25Z</time>
      </trkpt>
      <trkpt lat="45.82592" lon="2.95184">
        <ele>1010</ele>
        <time>2014-08-22T10:39:27Z</time>
      </trkpt>
      <trkpt lat="45.82603" lon="2.95193">
        <ele>1009</ele>
        <time>2014-08-22T10:39:30Z</time>
      </trkpt>
      <trkpt lat="45.82617" lon="2.952">
        <ele>1009</ele>
        <time>2014-08-22T10:39:32Z</time>
      </trkpt>
      <trkpt lat="45.82629" lon="2.95208">
        <ele>1007</ele>
        <time>2014-08-22T10:39:34Z</time>
      </trkpt>
      <trkpt lat="45.82642" lon="2.95207">
        <ele>1006</ele>
        <time>2014-08-22T10:39:37Z</time>
      </trkpt>
      <trkpt lat="45.8265" lon="2.95209">
        <ele>1003</ele>
        <time>2014-08-22T10:39:40Z</time>
      </trkpt>
      <trkpt lat="45.82663" lon="2.95206">
        <ele>1002</ele>
        <time>2014-08-22T10:39:43Z</time>
      </trkpt>
      <trkpt lat="45.82671" lon="2.95205">
        <ele>1001</ele>
        <time>2014-08-22T10:39:45Z</time>
      </trkpt>
      <trkpt lat="45.82685" lon="2.95198">
        <ele>1000</ele>
        <time>2014-08-22T10:39:48Z</time>
      </trkpt>
      <trkpt lat="45.82697" lon="2.95192">
        <ele>998</ele>
        <time>2014-08-22T10:39:51Z</time>
      </trkpt>
      <trkpt lat="45.82711" lon="2.95181">
        <ele>998</ele>
        <time>2014-08-22T10:39:54Z</time>
      </trkpt>
      <trkpt lat="45.82727" lon="2.95169">
        <ele>996</ele>
        <time>2014-08-22T10:39:57Z</time>
      </trkpt>
      <trkpt lat="45.82737" lon="2.95166">
        <ele>994</ele>
        <time>2014-08-22T10:39:59Z</time>
      </trkpt>
      <trkpt lat="45.82746" lon="2.95163">
        <ele>992</ele>
        <time>2014-08-22T10:40:02Z</time>
      </trkpt>
      <trkpt lat="45.82761" lon="2.9516">
        <ele>989</ele>
        <time>2014-08-22T10:40:04Z</time>
      </trkpt>
      <trkpt lat="45.82777" lon="2.95157">
        <ele>988</ele>
        <time>2014-08-22T10:40:06Z</time>
      </trkpt>
      <trkpt lat="45.82796" lon="2.95153">
        <ele>985</ele>
        <time>2014-08-22T10:40:08Z</time>
      </trkpt>
      <trkpt lat="45.82819" lon="2.95147">
        <ele>982</ele>
        <time>2014-08-22T10:40:11Z</time>
      </trkpt>
      <trkpt lat="45.82842" lon="2.9514">
        <ele>978</ele>
        <time>2014-08-22T10:40:14Z</time>
      </trkpt>
      <trkpt lat="45.82865" lon="2.95127">
        <ele>975</ele>
        <time>2014-08-22T10:40:17Z</time>
      </trkpt>
      <trkpt lat="45.8289" lon="2.95111">
        <ele>973</ele>
        <time>2014-08-22T10:40:20Z</time>
      </trkpt>
      <trkpt lat="45.8291" lon="2.95096">
        <ele>970</ele>
        <time>2014-08-22T10:40:23Z</time>
      </trkpt>
      <trkpt lat="45.8293" lon="2.95076">
        <ele>966</ele>
        <time>2014-08-22T10:40:26Z</time>
      </trkpt>
      <trkpt lat="45.82946" lon="2.95055">
        <ele>963</ele>
        <time>2014-08-22T10:40:29Z</time>
      </trkpt>
      <trkpt lat="45.82951" lon="2.95052">
        <ele>960</ele>
        <time>2014-08-22T10:40:32Z</time>
      </trkpt>
      <trkpt lat="45.82954" lon="2.9505">
        <ele>959</ele>
        <time>2014-08-22T10:40:34Z</time>
      </trkpt>
      <trkpt lat="45.82959" lon="2.95051">
        <ele>957</ele>
        <time>2014-08-22T10:40:37Z</time>
      </trkpt>
      <trkpt lat="45.82963" lon="2.95054">
        <ele>957</ele>
        <time>2014-08-22T10:40:39Z</time>
      </trkpt>
      <trkpt lat="45.82967" lon="2.95058">
        <ele>957</ele>
        <time>2014-08-22T10:40:41Z</time>
      </trkpt>
      <trkpt lat="45.82972" lon="2.95063">
        <ele>957</ele>
        <time>2014-08-22T10:40:43Z</time>
      </trkpt>
      <trkpt lat="45.82978" lon="2.9507">
        <ele>957</ele>
        <time>2014-08-22T10:40:45Z</time>
      </trkpt>
      <trkpt lat="45.82988" lon="2.95086">
        <ele>957</ele>
        <time>2014-08-22T10:40:48Z</time>
      </trkpt>
      <trkpt lat="45.82996" lon="2.95095">
        <ele>957</ele>
        <time>2014-08-22T10:40:50Z</time>
      </trkpt>
      <trkpt lat="45.83006" lon="2.95108">
        <ele>957</ele>
        <time>2014-08-22T10:40:53Z</time>
      </trkpt>
      <trkpt lat="45.83012" lon="2.95116">
        <ele>957</ele>
        <time>2014-08-22T10:40:55Z</time>
      </trkpt>
      <trkpt lat="45.83018" lon="2.95125">
        <ele>957</ele>
        <time>2014-08-22T10:40:57Z</time>
      </trkpt>
      <trkpt lat="45.83026" lon="2.95137">
        <ele>957</ele>
        <time>2014-08-22T10:41:00Z</time>
      </trkpt>
      <trkpt lat="45.83032" lon="2.95152">
        <ele>957</ele>
        <time>2014-08-22T10:41:03Z</time>
      </trkpt>
      <trkpt lat="45.83036" lon="2.95163">
        <ele>958</ele>
        <time>2014-08-22T10:41:06Z</time>
      </trkpt>
      <trkpt lat="45.83039" lon="2.95175">
        <ele>958</ele>
        <time>2014-08-22T10:41:09Z</time>
      </trkpt>
      <trkpt lat="45.83042" lon="2.95185">
        <ele>960</ele>
        <time>2014-08-22T10:41:12Z</time>
      </trkpt>
      <trkpt lat="45.83046" lon="2.95199">
        <ele>961</ele>
        <time>2014-08-22T10:41:15Z</time>
      </trkpt>
      <trkpt lat="45.83052" lon="2.95211">
        <ele>961</ele>
        <time>2014-08-22T10:41:18Z</time>
      </trkpt>
      <trkpt lat="45.83058" lon="2.95226">
        <ele>962</ele>
        <time>2014-08-22T10:41:21Z</time>
      </trkpt>
      <trkpt lat="45.83064" lon="2.95245">
        <ele>962</ele>
        <time>2014-08-22T10:41:24Z</time>
      </trkpt>
      <trkpt lat="45.83067" lon="2.95265">
        <ele>962</ele>
        <time>2014-08-22T10:41:27Z</time>
      </trkpt>
      <trkpt lat="45.83071" lon="2.95278">
        <ele>962</ele>
        <time>2014-08-22T10:41:29Z</time>
      </trkpt>
      <trkpt lat="45.83077" lon="2.95296">
        <ele>962</ele>
        <time>2014-08-22T10:41:32Z</time>
      </trkpt>
      <trkpt lat="45.83083" lon="2.95306">
        <ele>962</ele>
        <time>2014-08-22T10:41:34Z</time>
      </trkpt>
      <trkpt lat="45.83087" lon="2.95317">
        <ele>962</ele>
        <time>2014-08-22T10:41:36Z</time>
      </trkpt>
      <trkpt lat="45.83095" lon="2.95333">
        <ele>962</ele>
        <time>2014-08-22T10:41:39Z</time>
      </trkpt>
      <trkpt lat="45.83099" lon="2.9535">
        <ele>963</ele>
        <time>2014-08-22T10:41:42Z</time>
      </trkpt>
      <trkpt lat="45.83104" lon="2.95369">
        <ele>962</ele>
        <time>2014-08-22T10:41:45Z</time>
      </trkpt>
      <trkpt lat="45.83109" lon="2.95389">
        <ele>962</ele>
        <time>2014-08-22T10:41:48Z</time>
      </trkpt>
      <trkpt lat="45.83111" lon="2.95403">
        <ele>962</ele>
        <time>2014-08-22T10:41:50Z</time>
      </trkpt>
      <trkpt lat="45.83113" lon="2.95428">
        <ele>962</ele>
        <time>2014-08-22T10:41:53Z</time>
      </trkpt>
      <trkpt lat="45.83113" lon="2.95459">
        <ele>961</ele>
        <time>2014-08-22T10:41:56Z</time>
      </trkpt>
      <trkpt lat="45.83115" lon="2.95481">
        <ele>960</ele>
        <time>2014-08-22T10:41:58Z</time>
      </trkpt>
      <trkpt lat="45.83115" lon="2.955">
        <ele>959</ele>
        <time>2014-08-22T10:42:00Z</time>
      </trkpt>
      <trkpt lat="45.83116" lon="2.95517">
        <ele>959</ele>
        <time>2014-08-22T10:42:02Z</time>
      </trkpt>
      <trkpt lat="45.83118" lon="2.95536">
        <ele>958</ele>
        <time>2014-08-22T10:42:05Z</time>
      </trkpt>
      <trkpt lat="45.83118" lon="2.95548">
        <ele>958</ele>
        <time>2014-08-22T10:42:07Z</time>
      </trkpt>
      <trkpt lat="45.83113" lon="2.95568">
        <ele>958</ele>
        <time>2014-08-22T10:42:10Z</time>
      </trkpt>
      <trkpt lat="45.83114" lon="2.95581">
        <ele>959</ele>
        <time>2014-08-22T10:42:12Z</time>
      </trkpt>
      <trkpt lat="45.83116" lon="2.95599">
        <ele>959</ele>
        <time>2014-08-22T10:42:15Z</time>
      </trkpt>
      <trkpt lat="45.83117" lon="2.9561">
        <ele>959</ele>
        <time>2014-08-22T10:42:17Z</time>
      </trkpt>
      <trkpt lat="45.83118" lon="2.95627">
        <ele>959</ele>
        <time>2014-08-22T10:42:20Z</time>
      </trkpt>
      <trkpt lat="45.83116" lon="2.95645">
        <ele>959</ele>
        <time>2014-08-22T10:42:23Z</time>
      </trkpt>
      <trkpt lat="45.83114" lon="2.95667">
        <ele>958</ele>
        <time>2014-08-22T10:42:26Z</time>
      </trkpt>
      <trkpt lat="45.83111" lon="2.95684">
        <ele>958</ele>
        <time>2014-08-22T10:42:28Z</time>
      </trkpt>
      <trkpt lat="45.83104" lon="2.9571">
        <ele>957</ele>
        <time>2014-08-22T10:42:31Z</time>
      </trkpt>
      <trkpt lat="45.83098" lon="2.95729">
        <ele>957</ele>
        <time>2014-08-22T10:42:33Z</time>
      </trkpt>
      <trkpt lat="45.83091" lon="2.95746">
        <ele>957</ele>
        <time>2014-08-22T10:42:35Z</time>
      </trkpt>
      <trkpt lat="45.83084" lon="2.95762">
        <ele>956</ele>
        <time>2014-08-22T10:42:37Z</time>
      </trkpt>
      <trkpt lat="45.83076" lon="2.95777">
        <ele>956</ele>
        <time>2014-08-22T10:42:39Z</time>
      </trkpt>
      <trkpt lat="45.83064" lon="2.95796">
        <ele>955</ele>
        <time>2014-08-22T10:42:42Z</time>
      </trkpt>
      <trkpt lat="45.83052" lon="2.9581">
        <ele>954</ele>
        <time>2014-08-22T10:42:45Z</time>
      </trkpt>
      <trkpt lat="45.83046" lon="2.95817">
        <ele>954</ele>
        <time>2014-08-22T10:42:47Z</time>
      </trkpt>
      <trkpt lat="45.8304" lon="2.95825">
        <ele>953</ele>
        <time>2014-08-22T10:42:49Z</time>
      </trkpt>
      <trkpt lat="45.83033" lon="2.95833">
        <ele>953</ele>
        <time>2014-08-22T10:42:52Z</time>
      </trkpt>
      <trkpt lat="45.83027" lon="2.95842">
        <ele>953</ele>
        <time>2014-08-22T10:42:55Z</time>
      </trkpt>
      <trkpt lat="45.83023" lon="2.95848">
        <ele>953</ele>
        <time>2014-08-22T10:42:58Z</time>
      </trkpt>
      <trkpt lat="45.8302" lon="2.95849">
        <ele>953</ele>
        <time>2014-08-22T10:43:00Z</time>
      </trkpt>
      <trkpt lat="45.83018" lon="2.95847">
        <ele>953</ele>
        <time>2014-08-22T10:43:03Z</time>
      </trkpt>
      <trkpt lat="45.83017" lon="2.95844">
        <ele>953</ele>
        <time>2014-08-22T10:43:05Z</time>
      </trkpt>
      <trkpt lat="45.83015" lon="2.95839">
        <ele>954</ele>
        <time>2014-08-22T10:43:08Z</time>
      </trkpt>
      <trkpt lat="45.83016" lon="2.95837">
        <ele>954</ele>
        <time>2014-08-22T10:43:11Z</time>
      </trkpt>
      <trkpt lat="45.8302" lon="2.95837">
        <ele>955</ele>
        <time>2014-08-22T10:43:14Z</time>
      </trkpt>
      <trkpt lat="45.83027" lon="2.9584">
        <ele>955</ele>
        <time>2014-08-22T10:43:17Z</time>
      </trkpt>
      <trkpt lat="45.83033" lon="2.95842">
        <ele>955</ele>
        <time>2014-08-22T10:43:19Z</time>
      </trkpt>
      <trkpt lat="45.83037" lon="2.9584">
        <ele>955</ele>
        <time>2014-08-22T10:43:21Z</time>
      </trkpt>
      <trkpt lat="45.83044" lon="2.95835">
        <ele>955</ele>
        <time>2014-08-22T10:43:24Z</time>
      </trkpt>
      <trkpt lat="45.83049" lon="2.95831">
        <ele>954</ele>
        <time>2014-08-22T10:43:27Z</time>
      </trkpt>
      <trkpt lat="45.83057" lon="2.95824">
        <ele>955</ele>
        <time>2014-08-22T10:43:30Z</time>
      </trkpt>
      <trkpt lat="45.83062" lon="2.95819">
        <ele>955</ele>
        <time>2014-08-22T10:43:32Z</time>
      </trkpt>
      <trkpt lat="45.8307" lon="2.95809">
        <ele>956</ele>
        <time>2014-08-22T10:43:35Z</time>
      </trkpt>
      <trkpt lat="45.83075" lon="2.95801">
        <ele>957</ele>
        <time>2014-08-22T10:43:37Z</time>
      </trkpt>
      <trkpt lat="45.83082" lon="2.95789">
        <ele>957</ele>
        <time>2014-08-22T10:43:40Z</time>
      </trkpt>
      <trkpt lat="45.83087" lon="2.9578">
        <ele>958</ele>
        <time>2014-08-22T10:43:42Z</time>
      </trkpt>
      <trkpt lat="45.83092" lon="2.95768">
        <ele>957</ele>
        <time>2014-08-22T10:43:45Z</time>
      </trkpt>
      <trkpt lat="45.83095" lon="2.95759">
        <ele>957</ele>
        <time>2014-08-22T10:43:47Z</time>
      </trkpt>
      <trkpt lat="45.831" lon="2.95747">
        <ele>957</ele>
        <time>2014-08-22T10:43:50Z</time>
      </trkpt>
      <trkpt lat="45.83101" lon="2.95741">
        <ele>957</ele>
        <time>2014-08-22T10:43:52Z</time>
      </trkpt>
      <trkpt lat="45.83102" lon="2.95734">
        <ele>958</ele>
        <time>2014-08-22T10:43:54Z</time>
      </trkpt>
      <trkpt lat="45.83103" lon="2.95723">
        <ele>958</ele>
        <time>2014-08-22T10:43:57Z</time>
      </trkpt>
      <trkpt lat="45.83104" lon="2.95715">
        <ele>958</ele>
        <time>2014-08-22T10:43:59Z</time>
      </trkpt>
      <trkpt lat="45.83108" lon="2.95699">
        <ele>959</ele>
        <time>2014-08-22T10:44:02Z</time>
      </trkpt>
      <trkpt lat="45.83111" lon="2.9568">
        <ele>959</ele>
        <time>2014-08-22T10:44:05Z</time>
      </trkpt>
      <trkpt lat="45.83111" lon="2.95669">
        <ele>960</ele>
        <time>2014-08-22T10:44:07Z</time>
      </trkpt>
      <trkpt lat="45.83112" lon="2.95648">
        <ele>960</ele>
        <time>2014-08-22T10:44:10Z</time>
      </trkpt>
      <trkpt lat="45.83116" lon="2.95626">
        <ele>960</ele>
        <time>2014-08-22T10:44:13Z</time>
      </trkpt>
      <trkpt lat="45.83117" lon="2.95611">
        <ele>960</ele>
        <time>2014-08-22T10:44:15Z</time>
      </trkpt>
      <trkpt lat="45.83115" lon="2.95589">
        <ele>959</ele>
        <time>2014-08-22T10:44:18Z</time>
      </trkpt>
      <trkpt lat="45.83114" lon="2.95573">
        <ele>959</ele>
        <time>2014-08-22T10:44:20Z</time>
      </trkpt>
      <trkpt lat="45.83115" lon="2.95561">
        <ele>959</ele>
        <time>2014-08-22T10:44:22Z</time>
      </trkpt>
      <trkpt lat="45.83117" lon="2.95548">
        <ele>959</ele>
        <time>2014-08-22T10:44:24Z</time>
      </trkpt>
      <trkpt lat="45.8312" lon="2.95536">
        <ele>959</ele>
        <time>2014-08-22T10:44:27Z</time>
      </trkpt>
      <trkpt lat="45.83123" lon="2.95531">
        <ele>959</ele>
        <time>2014-08-22T10:44:29Z</time>
      </trkpt>
      <trkpt lat="45.83126" lon="2.95522">
        <ele>958</ele>
        <time>2014-08-22T10:44:32Z</time>
      </trkpt>
      <trkpt lat="45.8313" lon="2.95513">
        <ele>957</ele>
        <time>2014-08-22T10:44:35Z</time>
      </trkpt>
      <trkpt lat="45.83138" lon="2.95498">
        <ele>957</ele>
        <time>2014-08-22T10:44:38Z</time>
      </trkpt>
      <trkpt lat="45.83144" lon="2.95488">
        <ele>956</ele>
        <time>2014-08-22T10:44:40Z</time>
      </trkpt>
      <trkpt lat="45.83149" lon="2.95477">
        <ele>955</ele>
        <time>2014-08-22T10:44:42Z</time>
      </trkpt>
      <trkpt lat="45.83154" lon="2.95467">
        <ele>954</ele>
        <time>2014-08-22T10:44:45Z</time>
      </trkpt>
      <trkpt lat="45.83157" lon="2.95463">
        <ele>953</ele>
        <time>2014-08-22T10:44:47Z</time>
      </trkpt>
      <trkpt lat="45.83159" lon="2.95459">
        <ele>953</ele>
        <time>2014-08-22T10:44:50Z</time>
      </trkpt>
      <trkpt lat="45.83162" lon="2.95457">
        <ele>953</ele>
        <time>2014-08-22T10:44:52Z</time>
      </trkpt>
      <trkpt lat="45.83165" lon="2.95455">
        <ele>953</ele>
        <time>2014-08-22T10:44:54Z</time>
      </trkpt>
      <trkpt lat="45.83173" lon="2.95451">
        <ele>953</ele>
        <time>2014-08-22T10:44:57Z</time>
      </trkpt>
      <trkpt lat="45.83178" lon="2.95449">
        <ele>953</ele>
        <time>2014-08-22T10:44:59Z</time>
      </trkpt>
      <trkpt lat="45.83191" lon="2.95445">
        <ele>953</ele>
        <time>2014-08-22T10:45:02Z</time>
      </trkpt>
      <trkpt lat="45.83199" lon="2.95442">
        <ele>953</ele>
        <time>2014-08-22T10:45:04Z</time>
      </trkpt>
      <trkpt lat="45.83209" lon="2.95439">
        <ele>953</ele>
        <time>2014-08-22T10:45:06Z</time>
      </trkpt>
      <trkpt lat="45.83218" lon="2.95436">
        <ele>953</ele>
        <time>2014-08-22T10:45:08Z</time>
      </trkpt>
      <trkpt lat="45.83227" lon="2.95433">
        <ele>953</ele>
        <time>2014-08-22T10:45:10Z</time>
      </trkpt>
      <trkpt lat="45.83242" lon="2.95429">
        <ele>953</ele>
        <time>2014-08-22T10:45:13Z</time>
      </trkpt>
      <trkpt lat="45.8325" lon="2.95427">
        <ele>954</ele>
        <time>2014-08-22T10:45:15Z</time>
      </trkpt>
      <trkpt lat="45.83258" lon="2.95427">
        <ele>954</ele>
        <time>2014-08-22T10:45:17Z</time>
      </trkpt>
      <trkpt lat="45.83266" lon="2.95426">
        <ele>955</ele>
        <time>2014-08-22T10:45:19Z</time>
      </trkpt>
      <trkpt lat="45.83278" lon="2.95424">
        <ele>955</ele>
        <time>2014-08-22T10:45:22Z</time>
      </trkpt>
      <trkpt lat="45.83286" lon="2.95422">
        <ele>955</ele>
        <time>2014-08-22T10:45:24Z</time>
      </trkpt>
      <trkpt lat="45.83294" lon="2.95421">
        <ele>955</ele>
        <time>2014-08-22T10:45:26Z</time>
      </trkpt>
      <trkpt lat="45.83301" lon="2.95419">
        <ele>955</ele>
        <time>2014-08-22T10:45:28Z</time>
      </trkpt>
      <trkpt lat="45.83308" lon="2.95416">
        <ele>956</ele>
        <time>2014-08-22T10:45:30Z</time>
      </trkpt>
      <trkpt lat="45.83315" lon="2.95414">
        <ele>956</ele>
        <time>2014-08-22T10:45:32Z</time>
      </trkpt>
      <trkpt lat="45.83321" lon="2.95413">
        <ele>957</ele>
        <time>2014-08-22T10:45:34Z</time>
      </trkpt>
      <trkpt lat="45.83327" lon="2.95412">
        <ele>957</ele>
        <time>2014-08-22T10:45:36Z</time>
      </trkpt>
      <trkpt lat="45.83335" lon="2.95412">
        <ele>958</ele>
        <time>2014-08-22T10:45:39Z</time>
      </trkpt>
      <trkpt lat="45.83344" lon="2.95409">
        <ele>960</ele>
        <time>2014-08-22T10:45:42Z</time>
      </trkpt>
      <trkpt lat="45.83349" lon="2.95408">
        <ele>960</ele>
        <time>2014-08-22T10:45:44Z</time>
      </trkpt>
      <trkpt lat="45.83356" lon="2.95406">
        <ele>961</ele>
        <time>2014-08-22T10:45:47Z</time>
      </trkpt>
      <trkpt lat="45.8336" lon="2.95405">
        <ele>961</ele>
        <time>2014-08-22T10:45:49Z</time>
      </trkpt>
      <trkpt lat="45.83365" lon="2.95404">
        <ele>962</ele>
        <time>2014-08-22T10:45:51Z</time>
      </trkpt>
      <trkpt lat="45.83371" lon="2.95404">
        <ele>963</ele>
        <time>2014-08-22T10:45:53Z</time>
      </trkpt>
      <trkpt lat="45.83377" lon="2.95405">
        <ele>963</ele>
        <time>2014-08-22T10:45:55Z</time>
      </trkpt>
      <trkpt lat="45.83383" lon="2.95405">
        <ele>964</ele>
        <time>2014-08-22T10:45:57Z</time>
      </trkpt>
      <trkpt lat="45.83388" lon="2.95407">
        <ele>964</ele>
        <time>2014-08-22T10:45:59Z</time>
      </trkpt>
      <trkpt lat="45.83393" lon="2.9541">
        <ele>965</ele>
        <time>2014-08-22T10:46:01Z</time>
      </trkpt>
      <trkpt lat="45.834" lon="2.95416">
        <ele>965</ele>
        <time>2014-08-22T10:46:04Z</time>
      </trkpt>
      <trkpt lat="45.83405" lon="2.95424">
        <ele>966</ele>
        <time>2014-08-22T10:46:07Z</time>
      </trkpt>
      <trkpt lat="45.83408" lon="2.95427">
        <ele>966</ele>
        <time>2014-08-22T10:46:09Z</time>
      </trkpt>
      <trkpt lat="45.83415" lon="2.95431">
        <ele>967</ele>
        <time>2014-08-22T10:46:12Z</time>
      </trkpt>
      <trkpt lat="45.83423" lon="2.95433">
        <ele>967</ele>
        <time>2014-08-22T10:46:15Z</time>
      </trkpt>
      <trkpt lat="45.83428" lon="2.95434">
        <ele>968</ele>
        <time>2014-08-22T10:46:17Z</time>
      </trkpt>
      <trkpt lat="45.83433" lon="2.95436">
        <ele>968</ele>
        <time>2014-08-22T10:46:19Z</time>
      </trkpt>
      <trkpt lat="45.83441" lon="2.9544">
        <ele>969</ele>
        <time>2014-08-22T10:46:22Z</time>
      </trkpt>
      <trkpt lat="45.83449" lon="2.95442">
        <ele>970</ele>
        <time>2014-08-22T10:46:25Z</time>
      </trkpt>
      <trkpt lat="45.83455" lon="2.95445">
        <ele>971</ele>
        <time>2014-08-22T10:46:27Z</time>
      </trkpt>
      <trkpt lat="45.83463" lon="2.9545">
        <ele>972</ele>
        <time>2014-08-22T10:46:30Z</time>
      </trkpt>
      <trkpt lat="45.83467" lon="2.95452">
        <ele>972</ele>
        <time>2014-08-22T10:46:32Z</time>
      </trkpt>
      <trkpt lat="45.83475" lon="2.95457">
        <ele>973</ele>
        <time>2014-08-22T10:46:35Z</time>
      </trkpt>
      <trkpt lat="45.83483" lon="2.95461">
        <ele>973</ele>
        <time>2014-08-22T10:46:38Z</time>
      </trkpt>
      <trkpt lat="45.83491" lon="2.95466">
        <ele>974</ele>
        <time>2014-08-22T10:46:41Z</time>
      </trkpt>
      <trkpt lat="45.83496" lon="2.95469">
        <ele>974</ele>
        <time>2014-08-22T10:46:43Z</time>
      </trkpt>
      <trkpt lat="45.83501" lon="2.95472">
        <ele>974</ele>
        <time>2014-08-22T10:46:45Z</time>
      </trkpt>
      <trkpt lat="45.83507" lon="2.95475">
        <ele>974</ele>
        <time>2014-08-22T10:46:47Z</time>
      </trkpt>
      <trkpt lat="45.83515" lon="2.95481">
        <ele>974</ele>
        <time>2014-08-22T10:46:50Z</time>
      </trkpt>
      <trkpt lat="45.83522" lon="2.95483">
        <ele>974</ele>
        <time>2014-08-22T10:46:52Z</time>
      </trkpt>
      <trkpt lat="45.83532" lon="2.95489">
        <ele>974</ele>
        <time>2014-08-22T10:46:55Z</time>
      </trkpt>
      <trkpt lat="45.8354" lon="2.95494">
        <ele>973</ele>
        <time>2014-08-22T10:46:57Z</time>
      </trkpt>
      <trkpt lat="45.83548" lon="2.95497">
        <ele>973</ele>
        <time>2014-08-22T10:46:59Z</time>
      </trkpt>
      <trkpt lat="45.83558" lon="2.95502">
        <ele>972</ele>
        <time>2014-08-22T10:47:01Z</time>
      </trkpt>
      <trkpt lat="45.8357" lon="2.95508">
        <ele>972</ele>
        <time>2014-08-22T10:47:03Z</time>
      </trkpt>
      <trkpt lat="45.83589" lon="2.95518">
        <ele>971</ele>
        <time>2014-08-22T10:47:06Z</time>
      </trkpt>
      <trkpt lat="45.83605" lon="2.95526">
        <ele>969</ele>
        <time>2014-08-22T10:47:09Z</time>
      </trkpt>
      <trkpt lat="45.83622" lon="2.95532">
        <ele>969</ele>
        <time>2014-08-22T10:47:12Z</time>
      </trkpt>
      <trkpt lat="45.83631" lon="2.95537">
        <ele>969</ele>
        <time>2014-08-22T10:47:14Z</time>
      </trkpt>
      <trkpt lat="45.83641" lon="2.95546">
        <ele>969</ele>
        <time>2014-08-22T10:47:17Z</time>
      </trkpt>
      <trkpt lat="45.83649" lon="2.95556">
        <ele>969</ele>
        <time>2014-08-22T10:47:20Z</time>
      </trkpt>
      <trkpt lat="45.83657" lon="2.95563">
        <ele>970</ele>
        <time>2014-08-22T10:47:23Z</time>
      </trkpt>
      <trkpt lat="45.83664" lon="2.95571">
        <ele>971</ele>
        <time>2014-08-22T10:47:26Z</time>
      </trkpt>
      <trkpt lat="45.83665" lon="2.95583">
        <ele>972</ele>
        <time>2014-08-22T10:47:29Z</time>
      </trkpt>
      <trkpt lat="45.83661" lon="2.95591">
        <ele>972</ele>
        <time>2014-08-22T10:47:31Z</time>
      </trkpt>
      <trkpt lat="45.8366" lon="2.95597">
        <ele>973</ele>
        <time>2014-08-22T10:47:33Z</time>
      </trkpt>
      <trkpt lat="45.83657" lon="2.95607">
        <ele>973</ele>
        <time>2014-08-22T10:47:36Z</time>
      </trkpt>
      <trkpt lat="45.83655" lon="2.95615">
        <ele>973</ele>
        <time>2014-08-22T10:47:38Z</time>
      </trkpt>
      <trkpt lat="45.83652" lon="2.95625">
        <ele>973</ele>
        <time>2014-08-22T10:47:40Z</time>
      </trkpt>
      <trkpt lat="45.8365" lon="2.95632">
        <ele>973</ele>
        <time>2014-08-22T10:47:42Z</time>
      </trkpt>
      <trkpt lat="45.83646" lon="2.95643">
        <ele>974</ele>
        <time>2014-08-22T10:47:45Z</time>
      </trkpt>
      <trkpt lat="45.8364" lon="2.95656">
        <ele>974</ele>
        <time>2014-08-22T10:47:48Z</time>
      </trkpt>
      <trkpt lat="45.83636" lon="2.95669">
        <ele>974</ele>
        <time>2014-08-22T10:47:51Z</time>
      </trkpt>
      <trkpt lat="45.83633" lon="2.95678">
        <ele>975</ele>
        <time>2014-08-22T10:47:53Z</time>
      </trkpt>
      <trkpt lat="45.8363" lon="2.95688">
        <ele>975</ele>
        <time>2014-08-22T10:47:56Z</time>
      </trkpt>
      <trkpt lat="45.83627" lon="2.95696">
        <ele>975</ele>
        <time>2014-08-22T10:47:58Z</time>
      </trkpt>
      <trkpt lat="45.83623" lon="2.95705">
        <ele>976</ele>
        <time>2014-08-22T10:48:00Z</time>
      </trkpt>
      <trkpt lat="45.83618" lon="2.95718">
        <ele>976</ele>
        <time>2014-08-22T10:48:03Z</time>
      </trkpt>
      <trkpt lat="45.83615" lon="2.95727">
        <ele>976</ele>
        <time>2014-08-22T10:48:05Z</time>
      </trkpt>
      <trkpt lat="45.83611" lon="2.95737">
        <ele>977</ele>
        <time>2014-08-22T10:48:07Z</time>
      </trkpt>
      <trkpt lat="45.83607" lon="2.95751">
        <ele>977</ele>
        <time>2014-08-22T10:48:10Z</time>
      </trkpt>
      <trkpt lat="45.836" lon="2.95767">
        <ele>977</ele>
        <time>2014-08-22T10:48:13Z</time>
      </trkpt>
      <trkpt lat="45.83596" lon="2.95776">
        <ele>978</ele>
        <time>2014-08-22T10:48:15Z</time>
      </trkpt>
      <trkpt lat="45.8359" lon="2.95789">
        <ele>978</ele>
        <time>2014-08-22T10:48:18Z</time>
      </trkpt>
      <trkpt lat="45.83583" lon="2.95803">
        <ele>978</ele>
        <time>2014-08-22T10:48:21Z</time>
      </trkpt>
      <trkpt lat="45.83575" lon="2.95819">
        <ele>977</ele>
        <time>2014-08-22T10:48:24Z</time>
      </trkpt>
      <trkpt lat="45.83566" lon="2.95835">
        <ele>977</ele>
        <time>2014-08-22T10:48:27Z</time>
      </trkpt>
      <trkpt lat="45.83563" lon="2.95841">
        <ele>976</ele>
        <time>2014-08-22T10:48:29Z</time>
      </trkpt>
      <trkpt lat="45.83564" lon="2.95849">
        <ele>975</ele>
        <time>2014-08-22T10:48:31Z</time>
      </trkpt>
      <trkpt lat="45.83572" lon="2.95862">
        <ele>973</ele>
        <time>2014-08-22T10:48:34Z</time>
      </trkpt>
      <trkpt lat="45.83587" lon="2.95875">
        <ele>971</ele>
        <time>2014-08-22T10:48:37Z</time>
      </trkpt>
      <trkpt lat="45.83598" lon="2.95883">
        <ele>968</ele>
        <time>2014-08-22T10:48:39Z</time>
      </trkpt>
      <trkpt lat="45.83618" lon="2.95897">
        <ele>966</ele>
        <time>2014-08-22T10:48:42Z</time>
      </trkpt>
      <trkpt lat="45.83632" lon="2.95907">
        <ele>963</ele>
        <time>2014-08-22T10:48:45Z</time>
      </trkpt>
      <trkpt lat="45.83636" lon="2.95906">
        <ele>962</ele>
        <time>2014-08-22T10:48:47Z</time>
      </trkpt>
      <trkpt lat="45.83644" lon="2.95899">
        <ele>961</ele>
        <time>2014-08-22T10:48:50Z</time>
      </trkpt>
      <trkpt lat="45.83649" lon="2.95895">
        <ele>959</ele>
        <time>2014-08-22T10:48:53Z</time>
      </trkpt>
      <trkpt lat="45.83652" lon="2.95892">
        <ele>958</ele>
        <time>2014-08-22T10:48:55Z</time>
      </trkpt>
      <trkpt lat="45.83653" lon="2.9589">
        <ele>955</ele>
        <time>2014-08-22T10:48:58Z</time>
      </trkpt>
      <trkpt lat="45.83654" lon="2.9589">
        <ele>955</ele>
        <time>2014-08-22T10:49:00Z</time>
      </trkpt>
      <trkpt lat="45.83656" lon="2.95891">
        <ele>955</ele>
        <time>2014-08-22T10:49:03Z</time>
      </trkpt>
      <trkpt lat="45.83658" lon="2.95892">
        <ele>955</ele>
        <time>2014-08-22T10:49:06Z</time>
      </trkpt>
      <trkpt lat="45.83659" lon="2.95892">
        <ele>955</ele>
        <time>2014-08-22T10:49:08Z</time>
      </trkpt>
      <trkpt lat="45.8366" lon="2.95891">
        <ele>955</ele>
        <time>2014-08-22T10:49:11Z</time>
      </trkpt>
      <trkpt lat="45.83661" lon="2.95891">
        <ele>955</ele>
        <time>2014-08-22T10:49:14Z</time>
      </trkpt>
      <trkpt lat="45.83662" lon="2.9589">
        <ele>955</ele>
        <time>2014-08-22T10:49:16Z</time>
      </trkpt>
      <trkpt lat="45.83662" lon="2.95892">
        <ele>955</ele>
        <time>2014-08-22T10:49:19Z</time>
      </trkpt>
      <trkpt lat="45.83662" lon="2.95893">
        <ele>956</ele>
        <time>2014-08-22T10:49:21Z</time>
      </trkpt>
      <trkpt lat="45.83665" lon="2.95894">
        <ele>956</ele>
        <time>2014-08-22T10:49:24Z</time>
      </trkpt>
      <trkpt lat="45.83669" lon="2.95896">
        <ele>956</ele>
        <time>2014-08-22T10:49:26Z</time>
      </trkpt>
      <trkpt lat="45.83674" lon="2.95898">
        <ele>956</ele>
        <time>2014-08-22T10:49:28Z</time>
      </trkpt>
      <trkpt lat="45.83681" lon="2.95902">
        <ele>956</ele>
        <time>2014-08-22T10:49:31Z</time>
      </trkpt>
      <trkpt lat="45.83684" lon="2.95903">
        <ele>956</ele>
        <time>2014-08-22T10:49:33Z</time>
      </trkpt>
      <trkpt lat="45.83686" lon="2.95903">
        <ele>956</ele>
        <time>2014-08-22T10:49:36Z</time>
      </trkpt>
      <trkpt lat="45.83688" lon="2.95903">
        <ele>956</ele>
        <time>2014-08-22T10:49:39Z</time>
      </trkpt>
      <trkpt lat="45.83689" lon="2.95904">
        <ele>956</ele>
        <time>2014-08-22T10:49:41Z</time>
      </trkpt>
      <trkpt lat="45.83691" lon="2.95906">
        <ele>956</ele>
        <time>2014-08-22T10:49:43Z</time>
      </trkpt>
      <trkpt lat="45.83691" lon="2.95907">
        <ele>956</ele>
        <time>2014-08-22T10:49:46Z</time>
      </trkpt>
      <trkpt lat="45.83692" lon="2.95908">
        <ele>957</ele>
        <time>2014-08-22T10:49:48Z</time>
      </trkpt>
      <trkpt lat="45.83692" lon="2.9591">
        <ele>957</ele>
        <time>2014-08-22T10:49:51Z</time>
      </trkpt>
      <trkpt lat="45.8369" lon="2.95913">
        <ele>957</ele>
        <time>2014-08-22T10:49:54Z</time>
      </trkpt>
      <trkpt lat="45.83689" lon="2.95915">
        <ele>957</ele>
        <time>2014-08-22T10:49:56Z</time>
      </trkpt>
      <trkpt lat="45.83687" lon="2.95919">
        <ele>958</ele>
        <time>2014-08-22T10:49:59Z</time>
      </trkpt>
      <trkpt lat="45.83686" lon="2.95923">
        <ele>958</ele>
        <time>2014-08-22T10:50:02Z</time>
      </trkpt>
      <trkpt lat="45.83684" lon="2.95928">
        <ele>960</ele>
        <time>2014-08-22T10:50:05Z</time>
      </trkpt>
      <trkpt lat="45.83681" lon="2.95931">
        <ele>961</ele>
        <time>2014-08-22T10:50:08Z</time>
      </trkpt>
      <trkpt lat="45.83678" lon="2.95935">
        <ele>961</ele>
        <time>2014-08-22T10:50:11Z</time>
      </trkpt>
      <trkpt lat="45.83676" lon="2.9594">
        <ele>962</ele>
        <time>2014-08-22T10:50:14Z</time>
      </trkpt>
      <trkpt lat="45.83674" lon="2.95943">
        <ele>962</ele>
        <time>2014-08-22T10:50:16Z</time>
      </trkpt>
      <trkpt lat="45.83673" lon="2.95946">
        <ele>963</ele>
        <time>2014-08-22T10:50:18Z</time>
      </trkpt>
      <trkpt lat="45.83674" lon="2.95949">
        <ele>964</ele>
        <time>2014-08-22T10:50:20Z</time>
      </trkpt>
      <trkpt lat="45.83675" lon="2.95951">
        <ele>964</ele>
        <time>2014-08-22T10:50:22Z</time>
      </trkpt>
      <trkpt lat="45.83677" lon="2.95954">
        <ele>964</ele>
        <time>2014-08-22T10:50:25Z</time>
      </trkpt>
      <trkpt lat="45.8368" lon="2.9596">
        <ele>965</ele>
        <time>2014-08-22T10:50:28Z</time>
      </trkpt>
      <trkpt lat="45.83682" lon="2.95965">
        <ele>965</ele>
        <time>2014-08-22T10:50:31Z</time>
      </trkpt>
      <trkpt lat="45.83685" lon="2.9597">
        <ele>966</ele>
        <time>2014-08-22T10:50:34Z</time>
      </trkpt>
      <trkpt lat="45.83687" lon="2.95974">
        <ele>968</ele>
        <time>2014-08-22T10:50:37Z</time>
      </trkpt>
      <trkpt lat="45.8369" lon="2.95978">
        <ele>968</ele>
        <time>2014-08-22T10:50:40Z</time>
      </trkpt>
      <trkpt lat="45.83692" lon="2.9598">
        <ele>969</ele>
        <time>2014-08-22T10:50:42Z</time>
      </trkpt>
      <trkpt lat="45.83695" lon="2.95984">
        <ele>970</ele>
        <time>2014-08-22T10:50:45Z</time>
      </trkpt>
      <trkpt lat="45.83698" lon="2.95986">
        <ele>971</ele>
        <time>2014-08-22T10:50:47Z</time>
      </trkpt>
      <trkpt lat="45.83702" lon="2.95989">
        <ele>972</ele>
        <time>2014-08-22T10:50:50Z</time>
      </trkpt>
      <trkpt lat="45.83705" lon="2.95992">
        <ele>972</ele>
        <time>2014-08-22T10:50:52Z</time>
      </trkpt>
      <trkpt lat="45.83709" lon="2.95996">
        <ele>973</ele>
        <time>2014-08-22T10:50:55Z</time>
      </trkpt>
      <trkpt lat="45.83712" lon="2.95999">
        <ele>974</ele>
        <time>2014-08-22T10:50:57Z</time>
      </trkpt>
      <trkpt lat="45.83714" lon="2.96003">
        <ele>975</ele>
        <time>2014-08-22T10:51:00Z</time>
      </trkpt>
      <trkpt lat="45.83715" lon="2.96007">
        <ele>976</ele>
        <time>2014-08-22T10:51:02Z</time>
      </trkpt>
      <trkpt lat="45.83717" lon="2.96012">
        <ele>977</ele>
        <time>2014-08-22T10:51:05Z</time>
      </trkpt>
      <trkpt lat="45.83719" lon="2.96019">
        <ele>977</ele>
        <time>2014-08-22T10:51:08Z</time>
      </trkpt>
      <trkpt lat="45.83721" lon="2.96025">
        <ele>978</ele>
        <time>2014-08-22T10:51:10Z</time>
      </trkpt>
      <trkpt lat="45.83722" lon="2.96032">
        <ele>978</ele>
        <time>2014-08-22T10:51:12Z</time>
      </trkpt>
      <trkpt lat="45.83722" lon="2.96037">
        <ele>978</ele>
        <time>2014-08-22T10:51:14Z</time>
      </trkpt>
      <trkpt lat="45.83723" lon="2.96043">
        <ele>979</ele>
        <time>2014-08-22T10:51:17Z</time>
      </trkpt>
      <trkpt lat="45.83724" lon="2.96048">
        <ele>979</ele>
        <time>2014-08-22T10:51:19Z</time>
      </trkpt>
      <trkpt lat="45.83725" lon="2.96055">
        <ele>979</ele>
        <time>2014-08-22T10:51:22Z</time>
      </trkpt>
      <trkpt lat="45.83725" lon="2.96058">
        <ele>980</ele>
        <time>2014-08-22T10:51:24Z</time>
      </trkpt>
      <trkpt lat="45.83727" lon="2.96062">
        <ele>980</ele>
        <time>2014-08-22T10:51:26Z</time>
      </trkpt>
      <trkpt lat="45.83728" lon="2.9607">
        <ele>981</ele>
        <time>2014-08-22T10:51:29Z</time>
      </trkpt>
      <trkpt lat="45.83728" lon="2.9608">
        <ele>982</ele>
        <time>2014-08-22T10:51:32Z</time>
      </trkpt>
      <trkpt lat="45.83728" lon="2.96086">
        <ele>982</ele>
        <time>2014-08-22T10:51:35Z</time>
      </trkpt>
      <trkpt lat="45.83728" lon="2.96091">
        <ele>983</ele>
        <time>2014-08-22T10:51:37Z</time>
      </trkpt>
      <trkpt lat="45.83729" lon="2.96098">
        <ele>984</ele>
        <time>2014-08-22T10:51:40Z</time>
      </trkpt>
      <trkpt lat="45.83729" lon="2.96103">
        <ele>985</ele>
        <time>2014-08-22T10:51:42Z</time>
      </trkpt>
      <trkpt lat="45.8373" lon="2.96109">
        <ele>986</ele>
        <time>2014-08-22T10:51:45Z</time>
      </trkpt>
      <trkpt lat="45.83732" lon="2.96116">
        <ele>987</ele>
        <time>2014-08-22T10:51:48Z</time>
      </trkpt>
      <trkpt lat="45.83733" lon="2.96123">
        <ele>988</ele>
        <time>2014-08-22T10:51:51Z</time>
      </trkpt>
      <trkpt lat="45.83734" lon="2.96129">
        <ele>989</ele>
        <time>2014-08-22T10:51:54Z</time>
      </trkpt>
      <trkpt lat="45.83735" lon="2.96136">
        <ele>991</ele>
        <time>2014-08-22T10:51:57Z</time>
      </trkpt>
      <trkpt lat="45.83736" lon="2.96142">
        <ele>991</ele>
        <time>2014-08-22T10:51:59Z</time>
      </trkpt>
      <trkpt lat="45.83736" lon="2.96149">
        <ele>992</ele>
        <time>2014-08-22T10:52:02Z</time>
      </trkpt>
      <trkpt lat="45.83737" lon="2.96154">
        <ele>993</ele>
        <time>2014-08-22T10:52:04Z</time>
      </trkpt>
      <trkpt lat="45.83737" lon="2.96157">
        <ele>993</ele>
        <time>2014-08-22T10:52:06Z</time>
      </trkpt>
      <trkpt lat="45.83737" lon="2.96159">
        <ele>994</ele>
        <time>2014-08-22T10:52:08Z</time>
      </trkpt>
      <trkpt lat="45.83737" lon="2.96162">
        <ele>995</ele>
        <time>2014-08-22T10:52:11Z</time>
      </trkpt>
      <trkpt lat="45.83737" lon="2.96165">
        <ele>995</ele>
        <time>2014-08-22T10:52:14Z</time>
      </trkpt>
      <trkpt lat="45.83737" lon="2.96166">
        <ele>995</ele>
        <time>2014-08-22T10:52:16Z</time>
      </trkpt>
      <trkpt lat="45.83738" lon="2.96167">
        <ele>994</ele>
        <time>2014-08-22T10:52:18Z</time>
      </trkpt>
      <trkpt lat="45.83738" lon="2.96169">
        <ele>995</ele>
        <time>2014-08-22T10:52:21Z</time>
      </trkpt>
      <trkpt lat="45.83738" lon="2.9617">
        <ele>995</ele>
        <time>2014-08-22T10:52:23Z</time>
      </trkpt>
      <trkpt lat="45.83738" lon="2.96172">
        <ele>995</ele>
        <time>2014-08-22T10:52:26Z</time>
      </trkpt>
      <trkpt lat="45.83738" lon="2.96173">
        <ele>994</ele>
        <time>2014-08-22T10:52:28Z</time>
      </trkpt>
      <trkpt lat="45.83738" lon="2.96175">
        <ele>995</ele>
        <time>2014-08-22T10:52:31Z</time>
      </trkpt>
      <trkpt lat="45.83739" lon="2.96179">
        <ele>994</ele>
        <time>2014-08-22T10:52:33Z</time>
      </trkpt>
      <trkpt lat="45.83741" lon="2.96183">
        <ele>995</ele>
        <time>2014-08-22T10:52:36Z</time>
      </trkpt>
      <trkpt lat="45.83743" lon="2.96189">
        <ele>996</ele>
        <time>2014-08-22T10:52:39Z</time>
      </trkpt>
      <trkpt lat="45.83743" lon="2.9619">
        <ele>997</ele>
        <time>2014-08-22T10:52:42Z</time>
      </trkpt>
      <trkpt lat="45.83743" lon="2.96191">
        <ele>997</ele>
        <time>2014-08-22T10:52:44Z</time>
      </trkpt>
      <trkpt lat="45.83743" lon="2.96191">
        <ele>998</ele>
        <time>2014-08-22T10:52:46Z</time>
      </trkpt>
      <trkpt lat="45.83744" lon="2.96193">
        <ele>998</ele>
        <time>2014-08-22T10:52:49Z</time>
      </trkpt>
      <trkpt lat="45.83745" lon="2.96195">
        <ele>998</ele>
        <time>2014-08-22T10:52:52Z</time>
      </trkpt>
      <trkpt lat="45.83746" lon="2.96197">
        <ele>998</ele>
        <time>2014-08-22T10:52:54Z</time>
      </trkpt>
      <trkpt lat="45.83747" lon="2.96199">
        <ele>999</ele>
        <time>2014-08-22T10:52:56Z</time>
      </trkpt>
      <trkpt lat="45.83749" lon="2.962">
        <ele>999</ele>
        <time>2014-08-22T10:52:58Z</time>
      </trkpt>
      <trkpt lat="45.83751" lon="2.96202">
        <ele>1000</ele>
        <time>2014-08-22T10:53:01Z</time>
      </trkpt>
      <trkpt lat="45.83752" lon="2.96203">
        <ele>1001</ele>
        <time>2014-08-22T10:53:04Z</time>
      </trkpt>
      <trkpt lat="45.83753" lon="2.96204">
        <ele>1001</ele>
        <time>2014-08-22T10:53:06Z</time>
      </trkpt>
      <trkpt lat="45.83754" lon="2.96206">
        <ele>1001</ele>
        <time>2014-08-22T10:53:09Z</time>
      </trkpt>
      <trkpt lat="45.83756" lon="2.96208">
        <ele>1002</ele>
        <time>2014-08-22T10:53:12Z</time>
      </trkpt>
      <trkpt lat="45.83758" lon="2.96209">
        <ele>1002</ele>
        <time>2014-08-22T10:53:15Z</time>
      </trkpt>
      <trkpt lat="45.8376" lon="2.9621">
        <ele>1003</ele>
        <time>2014-08-22T10:53:18Z</time>
      </trkpt>
      <trkpt lat="45.83761" lon="2.96211">
        <ele>1003</ele>
        <time>2014-08-22T10:53:20Z</time>
      </trkpt>
      <trkpt lat="45.83763" lon="2.96213">
        <ele>1004</ele>
        <time>2014-08-22T10:53:23Z</time>
      </trkpt>
      <trkpt lat="45.83763" lon="2.96213">
        <ele>1004</ele>
        <time>2014-08-22T10:53:27Z</time>
      </trkpt>
      <trkpt lat="45.83763" lon="2.96213">
        <ele>1004</ele>
        <time>2014-08-22T10:53:30Z</time>
      </trkpt>
      <trkpt lat="45.83765" lon="2.96214">
        <ele>1005</ele>
        <time>2014-08-22T10:53:32Z</time>
      </trkpt>
      <trkpt lat="45.83768" lon="2.96216">
        <ele>1005</ele>
        <time>2014-08-22T10:53:35Z</time>
      </trkpt>
      <trkpt lat="45.8377" lon="2.96217">
        <ele>1006</ele>
        <time>2014-08-22T10:53:37Z</time>
      </trkpt>
      <trkpt lat="45.8377" lon="2.96217">
        <ele>1007</ele>
        <time>2014-08-22T10:53:40Z</time>
      </trkpt>
      <trkpt lat="45.83771" lon="2.96217">
        <ele>1008</ele>
        <time>2014-08-22T10:53:43Z</time>
      </trkpt>
      <trkpt lat="45.83775" lon="2.96219">
        <ele>1008</ele>
        <time>2014-08-22T10:53:46Z</time>
      </trkpt>
      <trkpt lat="45.83778" lon="2.9622">
        <ele>1008</ele>
        <time>2014-08-22T10:53:48Z</time>
      </trkpt>
      <trkpt lat="45.83781" lon="2.96222">
        <ele>1009</ele>
        <time>2014-08-22T10:53:51Z</time>
      </trkpt>
      <trkpt lat="45.83783" lon="2.96222">
        <ele>1010</ele>
        <time>2014-08-22T10:53:53Z</time>
      </trkpt>
      <trkpt lat="45.83785" lon="2.96221">
        <ele>1011</ele>
        <time>2014-08-22T10:53:55Z</time>
      </trkpt>
      <trkpt lat="45.83788" lon="2.96221">
        <ele>1011</ele>
        <time>2014-08-22T10:53:57Z</time>
      </trkpt>
      <trkpt lat="45.83789" lon="2.96222">
        <ele>1012</ele>
        <time>2014-08-22T10:53:59Z</time>
      </trkpt>
      <trkpt lat="45.8379" lon="2.96223">
        <ele>1012</ele>
        <time>2014-08-22T10:54:02Z</time>
      </trkpt>
      <trkpt lat="45.83791" lon="2.96223">
        <ele>1013</ele>
        <time>2014-08-22T10:54:05Z</time>
      </trkpt>
      <trkpt lat="45.83792" lon="2.96223">
        <ele>1013</ele>
        <time>2014-08-22T10:54:08Z</time>
      </trkpt>
      <trkpt lat="45.83796" lon="2.96224">
        <ele>1014</ele>
        <time>2014-08-22T10:54:11Z</time>
      </trkpt>
      <trkpt lat="45.83797" lon="2.96225">
        <ele>1014</ele>
        <time>2014-08-22T10:54:14Z</time>
      </trkpt>
      <trkpt lat="45.83798" lon="2.96225">
        <ele>1015</ele>
        <time>2014-08-22T10:54:17Z</time>
      </trkpt>
      <trkpt lat="45.83802" lon="2.96226">
        <ele>1015</ele>
        <time>2014-08-22T10:54:20Z</time>
      </trkpt>
      <trkpt lat="45.83804" lon="2.96228">
        <ele>1016</ele>
        <time>2014-08-22T10:54:22Z</time>
      </trkpt>
      <trkpt lat="45.83806" lon="2.96228">
        <ele>1016</ele>
        <time>2014-08-22T10:54:24Z</time>
      </trkpt>
      <trkpt lat="45.83809" lon="2.96229">
        <ele>1016</ele>
        <time>2014-08-22T10:54:26Z</time>
      </trkpt>
      <trkpt lat="45.83812" lon="2.96228">
        <ele>1017</ele>
        <time>2014-08-22T10:54:28Z</time>
      </trkpt>
      <trkpt lat="45.83817" lon="2.96228">
        <ele>1018</ele>
        <time>2014-08-22T10:54:31Z</time>
      </trkpt>
      <trkpt lat="45.83821" lon="2.96228">
        <ele>1019</ele>
        <time>2014-08-22T10:54:34Z</time>
      </trkpt>
      <trkpt lat="45.83825" lon="2.96229">
        <ele>1020</ele>
        <time>2014-08-22T10:54:37Z</time>
      </trkpt>
      <trkpt lat="45.8383" lon="2.9623">
        <ele>1021</ele>
        <time>2014-08-22T10:54:40Z</time>
      </trkpt>
      <trkpt lat="45.83833" lon="2.9623">
        <ele>1022</ele>
        <time>2014-08-22T10:54:42Z</time>
      </trkpt>
      <trkpt lat="45.83837" lon="2.9623">
        <ele>1023</ele>
        <time>2014-08-22T10:54:45Z</time>
      </trkpt>
      <trkpt lat="45.83841" lon="2.9623">
        <ele>1024</ele>
        <time>2014-08-22T10:54:48Z</time>
      </trkpt>
      <trkpt lat="45.83846" lon="2.96229">
        <ele>1025</ele>
        <time>2014-08-22T10:54:51Z</time>
      </trkpt>
      <trkpt lat="45.83849" lon="2.96229">
        <ele>1026</ele>
        <time>2014-08-22T10:54:53Z</time>
      </trkpt>
      <trkpt lat="45.83854" lon="2.96229">
        <ele>1027</ele>
        <time>2014-08-22T10:54:56Z</time>
      </trkpt>
      <trkpt lat="45.83858" lon="2.96229">
        <ele>1027</ele>
        <time>2014-08-22T10:54:59Z</time>
      </trkpt>
      <trkpt lat="45.83861" lon="2.96228">
        <ele>1027</ele>
        <time>2014-08-22T10:55:01Z</time>
      </trkpt>
      <trkpt lat="45.83865" lon="2.96227">
        <ele>1028</ele>
        <time>2014-08-22T10:55:04Z</time>
      </trkpt>
      <trkpt lat="45.83868" lon="2.96226">
        <ele>1028</ele>
        <time>2014-08-22T10:55:06Z</time>
      </trkpt>
      <trkpt lat="45.83871" lon="2.96226">
        <ele>1029</ele>
        <time>2014-08-22T10:55:08Z</time>
      </trkpt>
      <trkpt lat="45.83874" lon="2.96226">
        <ele>1030</ele>
        <time>2014-08-22T10:55:10Z</time>
      </trkpt>
      <trkpt lat="45.83879" lon="2.96226">
        <ele>1031</ele>
        <time>2014-08-22T10:55:13Z</time>
      </trkpt>
      <trkpt lat="45.83884" lon="2.96227">
        <ele>1031</ele>
        <time>2014-08-22T10:55:16Z</time>
      </trkpt>
      <trkpt lat="45.83889" lon="2.96225">
        <ele>1031</ele>
        <time>2014-08-22T10:55:19Z</time>
      </trkpt>
      <trkpt lat="45.83893" lon="2.96224">
        <ele>1032</ele>
        <time>2014-08-22T10:55:22Z</time>
      </trkpt>
      <trkpt lat="45.83898" lon="2.96223">
        <ele>1033</ele>
        <time>2014-08-22T10:55:25Z</time>
      </trkpt>
      <trkpt lat="45.83902" lon="2.96223">
        <ele>1033</ele>
        <time>2014-08-22T10:55:27Z</time>
      </trkpt>
      <trkpt lat="45.83906" lon="2.96222">
        <ele>1033</ele>
        <time>2014-08-22T10:55:29Z</time>
      </trkpt>
      <trkpt lat="45.83912" lon="2.9622">
        <ele>1033</ele>
        <time>2014-08-22T10:55:32Z</time>
      </trkpt>
      <trkpt lat="45.83915" lon="2.96215">
        <ele>1033</ele>
        <time>2014-08-22T10:55:34Z</time>
      </trkpt>
      <trkpt lat="45.83919" lon="2.96212">
        <ele>1032</ele>
        <time>2014-08-22T10:55:36Z</time>
      </trkpt>
      <trkpt lat="45.8393" lon="2.96214">
        <ele>1031</ele>
        <time>2014-08-22T10:55:39Z</time>
      </trkpt>
      <trkpt lat="45.83939" lon="2.96217">
        <ele>1031</ele>
        <time>2014-08-22T10:55:42Z</time>
      </trkpt>
      <trkpt lat="45.83945" lon="2.96219">
        <ele>1031</ele>
        <time>2014-08-22T10:55:44Z</time>
      </trkpt>
      <trkpt lat="45.83953" lon="2.9622">
        <ele>1031</ele>
        <time>2014-08-22T10:55:47Z</time>
      </trkpt>
      <trkpt lat="45.83957" lon="2.9622">
        <ele>1032</ele>
        <time>2014-08-22T10:55:49Z</time>
      </trkpt>
      <trkpt lat="45.83962" lon="2.96221">
        <ele>1033</ele>
        <time>2014-08-22T10:55:52Z</time>
      </trkpt>
      <trkpt lat="45.83967" lon="2.96221">
        <ele>1033</ele>
        <time>2014-08-22T10:55:54Z</time>
      </trkpt>
      <trkpt lat="45.83971" lon="2.9622">
        <ele>1034</ele>
        <time>2014-08-22T10:55:56Z</time>
      </trkpt>
      <trkpt lat="45.83976" lon="2.96222">
        <ele>1034</ele>
        <time>2014-08-22T10:55:58Z</time>
      </trkpt>
      <trkpt lat="45.83981" lon="2.96223">
        <ele>1035</ele>
        <time>2014-08-22T10:56:00Z</time>
      </trkpt>
      <trkpt lat="45.83989" lon="2.96225">
        <ele>1035</ele>
        <time>2014-08-22T10:56:03Z</time>
      </trkpt>
      <trkpt lat="45.83994" lon="2.96226">
        <ele>1036</ele>
        <time>2014-08-22T10:56:05Z</time>
      </trkpt>
      <trkpt lat="45.84001" lon="2.96226">
        <ele>1037</ele>
        <time>2014-08-22T10:56:08Z</time>
      </trkpt>
      <trkpt lat="45.84004" lon="2.96227">
        <ele>1037</ele>
        <time>2014-08-22T10:56:10Z</time>
      </trkpt>
      <trkpt lat="45.8401" lon="2.9623">
        <ele>1038</ele>
        <time>2014-08-22T10:56:13Z</time>
      </trkpt>
      <trkpt lat="45.84015" lon="2.96231">
        <ele>1038</ele>
        <time>2014-08-22T10:56:15Z</time>
      </trkpt>
      <trkpt lat="45.84019" lon="2.96231">
        <ele>1039</ele>
        <time>2014-08-22T10:56:17Z</time>
      </trkpt>
      <trkpt lat="45.84023" lon="2.96233">
        <ele>1040</ele>
        <time>2014-08-22T10:56:19Z</time>
      </trkpt>
      <trkpt lat="45.84028" lon="2.96234">
        <ele>1041</ele>
        <time>2014-08-22T10:56:22Z</time>
      </trkpt>
      <trkpt lat="45.84031" lon="2.96235">
        <ele>1041</ele>
        <time>2014-08-22T10:56:24Z</time>
      </trkpt>
      <trkpt lat="45.84037" lon="2.96236">
        <ele>1042</ele>
        <time>2014-08-22T10:56:27Z</time>
      </trkpt>
      <trkpt lat="45.8404" lon="2.96237">
        <ele>1042</ele>
        <time>2014-08-22T10:56:29Z</time>
      </trkpt>
      <trkpt lat="45.84046" lon="2.96241">
        <ele>1043</ele>
        <time>2014-08-22T10:56:32Z</time>
      </trkpt>
      <trkpt lat="45.84049" lon="2.96243">
        <ele>1044</ele>
        <time>2014-08-22T10:56:34Z</time>
      </trkpt>
      <trkpt lat="45.84053" lon="2.96246">
        <ele>1044</ele>
        <time>2014-08-22T10:56:36Z</time>
      </trkpt>
      <trkpt lat="45.84058" lon="2.96248">
        <ele>1045</ele>
        <time>2014-08-22T10:56:39Z</time>
      </trkpt>
      <trkpt lat="45.84063" lon="2.96252">
        <ele>1046</ele>
        <time>2014-08-22T10:56:42Z</time>
      </trkpt>
      <trkpt lat="45.84066" lon="2.96253">
        <ele>1047</ele>
        <time>2014-08-22T10:56:45Z</time>
      </trkpt>
      <trkpt lat="45.84067" lon="2.96254">
        <ele>1047</ele>
        <time>2014-08-22T10:56:47Z</time>
      </trkpt>
      <trkpt lat="45.84068" lon="2.96255">
        <ele>1047</ele>
        <time>2014-08-22T10:56:49Z</time>
      </trkpt>
      <trkpt lat="45.84071" lon="2.96257">
        <ele>1048</ele>
        <time>2014-08-22T10:56:52Z</time>
      </trkpt>
      <trkpt lat="45.84073" lon="2.96259">
        <ele>1049</ele>
        <time>2014-08-22T10:56:55Z</time>
      </trkpt>
      <trkpt lat="45.84074" lon="2.9626">
        <ele>1049</ele>
        <time>2014-08-22T10:56:57Z</time>
      </trkpt>
      <trkpt lat="45.84077" lon="2.96262">
        <ele>1050</ele>
        <time>2014-08-22T10:57:00Z</time>
      </trkpt>
      <trkpt lat="45.84078" lon="2.96263">
        <ele>1050</ele>
        <time>2014-08-22T10:57:02Z</time>
      </trkpt>
      <trkpt lat="45.8408" lon="2.96264">
        <ele>1050</ele>
        <time>2014-08-22T10:57:05Z</time>
      </trkpt>
      <trkpt lat="45.84081" lon="2.96266">
        <ele>1050</ele>
        <time>2014-08-22T10:57:07Z</time>
      </trkpt>
      <trkpt lat="45.84083" lon="2.96268">
        <ele>1051</ele>
        <time>2014-08-22T10:57:10Z</time>
      </trkpt>
      <trkpt lat="45.84084" lon="2.96269">
        <ele>1051</ele>
        <time>2014-08-22T10:57:12Z</time>
      </trkpt>
      <trkpt lat="45.84086" lon="2.9627">
        <ele>1052</ele>
        <time>2014-08-22T10:57:15Z</time>
      </trkpt>
      <trkpt lat="45.84087" lon="2.96271">
        <ele>1052</ele>
        <time>2014-08-22T10:57:17Z</time>
      </trkpt>
      <trkpt lat="45.84089" lon="2.96272">
        <ele>1053</ele>
        <time>2014-08-22T10:57:20Z</time>
      </trkpt>
      <trkpt lat="45.8409" lon="2.96274">
        <ele>1053</ele>
        <time>2014-08-22T10:57:22Z</time>
      </trkpt>
      <trkpt lat="45.84092" lon="2.96276">
        <ele>1054</ele>
        <time>2014-08-22T10:57:25Z</time>
      </trkpt>
      <trkpt lat="45.84094" lon="2.96278">
        <ele>1054</ele>
        <time>2014-08-22T10:57:28Z</time>
      </trkpt>
      <trkpt lat="45.84095" lon="2.9628">
        <ele>1055</ele>
        <time>2014-08-22T10:57:30Z</time>
      </trkpt>
      <trkpt lat="45.84097" lon="2.96281">
        <ele>1055</ele>
        <time>2014-08-22T10:57:33Z</time>
      </trkpt>
      <trkpt lat="45.84098" lon="2.96281">
        <ele>1056</ele>
        <time>2014-08-22T10:57:35Z</time>
      </trkpt>
      <trkpt lat="45.84099" lon="2.96282">
        <ele>1056</ele>
        <time>2014-08-22T10:57:37Z</time>
      </trkpt>
      <trkpt lat="45.841" lon="2.96284">
        <ele>1056</ele>
        <time>2014-08-22T10:57:40Z</time>
      </trkpt>
      <trkpt lat="45.84101" lon="2.96285">
        <ele>1057</ele>
        <time>2014-08-22T10:57:42Z</time>
      </trkpt>
      <trkpt lat="45.84102" lon="2.96286">
        <ele>1057</ele>
        <time>2014-08-22T10:57:45Z</time>
      </trkpt>
      <trkpt lat="45.84103" lon="2.96287">
        <ele>1057</ele>
        <time>2014-08-22T10:57:47Z</time>
      </trkpt>
      <trkpt lat="45.84105" lon="2.96289">
        <ele>1058</ele>
        <time>2014-08-22T10:57:50Z</time>
      </trkpt>
      <trkpt lat="45.84106" lon="2.9629">
        <ele>1058</ele>
        <time>2014-08-22T10:57:52Z</time>
      </trkpt>
      <trkpt lat="45.84108" lon="2.96291">
        <ele>1059</ele>
        <time>2014-08-22T10:57:55Z</time>
      </trkpt>
      <trkpt lat="45.8411" lon="2.96293">
        <ele>1059</ele>
        <time>2014-08-22T10:57:58Z</time>
      </trkpt>
      <trkpt lat="45.84111" lon="2.96294">
        <ele>1060</ele>
        <time>2014-08-22T10:58:00Z</time>
      </trkpt>
      <trkpt lat="45.84112" lon="2.96296">
        <ele>1060</ele>
        <time>2014-08-22T10:58:02Z</time>
      </trkpt>
      <trkpt lat="45.84113" lon="2.96298">
        <ele>1061</ele>
        <time>2014-08-22T10:58:05Z</time>
      </trkpt>
      <trkpt lat="45.84115" lon="2.96299">
        <ele>1061</ele>
        <time>2014-08-22T10:58:07Z</time>
      </trkpt>
      <trkpt lat="45.84115" lon="2.96299">
        <ele>1062</ele>
        <time>2014-08-22T10:58:10Z</time>
      </trkpt>
      <trkpt lat="45.84115" lon="2.96299">
        <ele>1062</ele>
        <time>2014-08-22T10:58:12Z</time>
      </trkpt>
      <trkpt lat="45.84115" lon="2.96299">
        <ele>1063</ele>
        <time>2014-08-22T10:58:15Z</time>
      </trkpt>
      <trkpt lat="45.84116" lon="2.963">
        <ele>1062</ele>
        <time>2014-08-22T10:58:17Z</time>
      </trkpt>
      <trkpt lat="45.84119" lon="2.96303">
        <ele>1063</ele>
        <time>2014-08-22T10:58:20Z</time>
      </trkpt>
      <trkpt lat="45.8412" lon="2.96305">
        <ele>1063</ele>
        <time>2014-08-22T10:58:22Z</time>
      </trkpt>
      <trkpt lat="45.84123" lon="2.96308">
        <ele>1065</ele>
        <time>2014-08-22T10:58:25Z</time>
      </trkpt>
      <trkpt lat="45.84125" lon="2.96311">
        <ele>1065</ele>
        <time>2014-08-22T10:58:27Z</time>
      </trkpt>
      <trkpt lat="45.84129" lon="2.96314">
        <ele>1066</ele>
        <time>2014-08-22T10:58:30Z</time>
      </trkpt>
      <trkpt lat="45.84133" lon="2.96318">
        <ele>1067</ele>
        <time>2014-08-22T10:58:33Z</time>
      </trkpt>
      <trkpt lat="45.84136" lon="2.9632">
        <ele>1068</ele>
        <time>2014-08-22T10:58:35Z</time>
      </trkpt>
      <trkpt lat="45.84139" lon="2.96322">
        <ele>1069</ele>
        <time>2014-08-22T10:58:37Z</time>
      </trkpt>
      <trkpt lat="45.84142" lon="2.96324">
        <ele>1071</ele>
        <time>2014-08-22T10:58:40Z</time>
      </trkpt>
      <trkpt lat="45.84145" lon="2.96326">
        <ele>1072</ele>
        <time>2014-08-22T10:58:42Z</time>
      </trkpt>
      <trkpt lat="45.84148" lon="2.96328">
        <ele>1073</ele>
        <time>2014-08-22T10:58:45Z</time>
      </trkpt>
      <trkpt lat="45.84151" lon="2.96329">
        <ele>1073</ele>
        <time>2014-08-22T10:58:47Z</time>
      </trkpt>
      <trkpt lat="45.84155" lon="2.96333">
        <ele>1075</ele>
        <time>2014-08-22T10:58:50Z</time>
      </trkpt>
      <trkpt lat="45.84157" lon="2.96335">
        <ele>1075</ele>
        <time>2014-08-22T10:58:52Z</time>
      </trkpt>
      <trkpt lat="45.84161" lon="2.96339">
        <ele>1076</ele>
        <time>2014-08-22T10:58:55Z</time>
      </trkpt>
      <trkpt lat="45.84164" lon="2.9634">
        <ele>1076</ele>
        <time>2014-08-22T10:58:57Z</time>
      </trkpt>
      <trkpt lat="45.84166" lon="2.96342">
        <ele>1077</ele>
        <time>2014-08-22T10:58:59Z</time>
      </trkpt>
      <trkpt lat="45.84169" lon="2.96344">
        <ele>1077</ele>
        <time>2014-08-22T10:59:02Z</time>
      </trkpt>
      <trkpt lat="45.84171" lon="2.96347">
        <ele>1078</ele>
        <time>2014-08-22T10:59:04Z</time>
      </trkpt>
      <trkpt lat="45.84177" lon="2.96352">
        <ele>1077</ele>
        <time>2014-08-22T10:59:07Z</time>
      </trkpt>
      <trkpt lat="45.84184" lon="2.96359">
        <ele>1077</ele>
        <time>2014-08-22T10:59:10Z</time>
      </trkpt>
      <trkpt lat="45.84188" lon="2.96364">
        <ele>1077</ele>
        <time>2014-08-22T10:59:12Z</time>
      </trkpt>
      <trkpt lat="45.84195" lon="2.96373">
        <ele>1077</ele>
        <time>2014-08-22T10:59:15Z</time>
      </trkpt>
      <trkpt lat="45.84204" lon="2.9638">
        <ele>1076</ele>
        <time>2014-08-22T10:59:18Z</time>
      </trkpt>
      <trkpt lat="45.84213" lon="2.96388">
        <ele>1075</ele>
        <time>2014-08-22T10:59:21Z</time>
      </trkpt>
      <trkpt lat="45.84219" lon="2.96394">
        <ele>1075</ele>
        <time>2014-08-22T10:59:23Z</time>
      </trkpt>
      <trkpt lat="45.84227" lon="2.96405">
        <ele>1075</ele>
        <time>2014-08-22T10:59:26Z</time>
      </trkpt>
      <trkpt lat="45.84235" lon="2.96415">
        <ele>1075</ele>
        <time>2014-08-22T10:59:29Z</time>
      </trkpt>
      <trkpt lat="45.8424" lon="2.96423">
        <ele>1075</ele>
        <time>2014-08-22T10:59:31Z</time>
      </trkpt>
      <trkpt lat="45.84243" lon="2.96428">
        <ele>1075</ele>
        <time>2014-08-22T10:59:33Z</time>
      </trkpt>
      <trkpt lat="45.84247" lon="2.96432">
        <ele>1075</ele>
        <time>2014-08-22T10:59:35Z</time>
      </trkpt>
      <trkpt lat="45.8425" lon="2.96436">
        <ele>1076</ele>
        <time>2014-08-22T10:59:37Z</time>
      </trkpt>
      <trkpt lat="45.84255" lon="2.96442">
        <ele>1076</ele>
        <time>2014-08-22T10:59:40Z</time>
      </trkpt>
      <trkpt lat="45.84258" lon="2.96445">
        <ele>1076</ele>
        <time>2014-08-22T10:59:42Z</time>
      </trkpt>
      <trkpt lat="45.84259" lon="2.96447">
        <ele>1076</ele>
        <time>2014-08-22T10:59:45Z</time>
      </trkpt>
      <trkpt lat="45.8426" lon="2.96448">
        <ele>1076</ele>
        <time>2014-08-22T10:59:47Z</time>
      </trkpt>
      <trkpt lat="45.84261" lon="2.96451">
        <ele>1077</ele>
        <time>2014-08-22T10:59:50Z</time>
      </trkpt>
      <trkpt lat="45.84264" lon="2.96456">
        <ele>1077</ele>
        <time>2014-08-22T10:59:53Z</time>
      </trkpt>
      <trkpt lat="45.84267" lon="2.96458">
        <ele>1076</ele>
        <time>2014-08-22T10:59:55Z</time>
      </trkpt>
      <trkpt lat="45.8427" lon="2.96462">
        <ele>1076</ele>
        <time>2014-08-22T10:59:58Z</time>
      </trkpt>
      <trkpt lat="45.84274" lon="2.96466">
        <ele>1076</ele>
        <time>2014-08-22T11:00:01Z</time>
      </trkpt>
      <trkpt lat="45.84277" lon="2.96469">
        <ele>1077</ele>
        <time>2014-08-22T11:00:03Z</time>
      </trkpt>
      <trkpt lat="45.84281" lon="2.96476">
        <ele>1077</ele>
        <time>2014-08-22T11:00:06Z</time>
      </trkpt>
      <trkpt lat="45.84284" lon="2.96479">
        <ele>1077</ele>
        <time>2014-08-22T11:00:08Z</time>
      </trkpt>
      <trkpt lat="45.84288" lon="2.9648">
        <ele>1077</ele>
        <time>2014-08-22T11:00:10Z</time>
      </trkpt>
      <trkpt lat="45.84296" lon="2.96485">
        <ele>1077</ele>
        <time>2014-08-22T11:00:13Z</time>
      </trkpt>
      <trkpt lat="45.84301" lon="2.96489">
        <ele>1078</ele>
        <time>2014-08-22T11:00:15Z</time>
      </trkpt>
      <trkpt lat="45.84307" lon="2.96494">
        <ele>1078</ele>
        <time>2014-08-22T11:00:18Z</time>
      </trkpt>
      <trkpt lat="45.84311" lon="2.96495">
        <ele>1079</ele>
        <time>2014-08-22T11:00:20Z</time>
      </trkpt>
      <trkpt lat="45.84317" lon="2.96496">
        <ele>1079</ele>
        <time>2014-08-22T11:00:23Z</time>
      </trkpt>
      <trkpt lat="45.84324" lon="2.96499">
        <ele>1080</ele>
        <time>2014-08-22T11:00:26Z</time>
      </trkpt>
      <trkpt lat="45.84328" lon="2.96503">
        <ele>1081</ele>
        <time>2014-08-22T11:00:28Z</time>
      </trkpt>
      <trkpt lat="45.84333" lon="2.96509">
        <ele>1082</ele>
        <time>2014-08-22T11:00:31Z</time>
      </trkpt>
      <trkpt lat="45.84336" lon="2.96511">
        <ele>1082</ele>
        <time>2014-08-22T11:00:33Z</time>
      </trkpt>
      <trkpt lat="45.84342" lon="2.96513">
        <ele>1082</ele>
        <time>2014-08-22T11:00:36Z</time>
      </trkpt>
      <trkpt lat="45.84346" lon="2.96514">
        <ele>1083</ele>
        <time>2014-08-22T11:00:38Z</time>
      </trkpt>
      <trkpt lat="45.84349" lon="2.96515">
        <ele>1083</ele>
        <time>2014-08-22T11:00:40Z</time>
      </trkpt>
      <trkpt lat="45.84353" lon="2.96515">
        <ele>1084</ele>
        <time>2014-08-22T11:00:42Z</time>
      </trkpt>
      <trkpt lat="45.8436" lon="2.96513">
        <ele>1085</ele>
        <time>2014-08-22T11:00:45Z</time>
      </trkpt>
      <trkpt lat="45.84364" lon="2.96512">
        <ele>1086</ele>
        <time>2014-08-22T11:00:47Z</time>
      </trkpt>
      <trkpt lat="45.8437" lon="2.96511">
        <ele>1087</ele>
        <time>2014-08-22T11:00:50Z</time>
      </trkpt>
      <trkpt lat="45.84374" lon="2.96512">
        <ele>1087</ele>
        <time>2014-08-22T11:00:52Z</time>
      </trkpt>
      <trkpt lat="45.84378" lon="2.96511">
        <ele>1088</ele>
        <time>2014-08-22T11:00:55Z</time>
      </trkpt>
      <trkpt lat="45.84376" lon="2.96513">
        <ele>1090</ele>
        <time>2014-08-22T11:01:00Z</time>
      </trkpt>
      <trkpt lat="45.84378" lon="2.9651">
        <ele>1090</ele>
        <time>2014-08-22T11:01:02Z</time>
      </trkpt>
      <trkpt lat="45.84381" lon="2.96506">
        <ele>1089</ele>
        <time>2014-08-22T11:01:04Z</time>
      </trkpt>
      <trkpt lat="45.84386" lon="2.96504">
        <ele>1088</ele>
        <time>2014-08-22T11:01:06Z</time>
      </trkpt>
      <trkpt lat="45.84388" lon="2.965">
        <ele>1087</ele>
        <time>2014-08-22T11:01:08Z</time>
      </trkpt>
      <trkpt lat="45.84388" lon="2.96493">
        <ele>1086</ele>
        <time>2014-08-22T11:01:11Z</time>
      </trkpt>
      <trkpt lat="45.84389" lon="2.96483">
        <ele>1084</ele>
        <time>2014-08-22T11:01:14Z</time>
      </trkpt>
      <trkpt lat="45.84391" lon="2.96479">
        <ele>1083</ele>
        <time>2014-08-22T11:01:16Z</time>
      </trkpt>
      <trkpt lat="45.84389" lon="2.96474">
        <ele>1082</ele>
        <time>2014-08-22T11:01:18Z</time>
      </trkpt>
      <trkpt lat="45.84387" lon="2.96465">
        <ele>1081</ele>
        <time>2014-08-22T11:01:21Z</time>
      </trkpt>
      <trkpt lat="45.8439" lon="2.96461">
        <ele>1080</ele>
        <time>2014-08-22T11:01:23Z</time>
      </trkpt>
      <trkpt lat="45.84395" lon="2.96457">
        <ele>1079</ele>
        <time>2014-08-22T11:01:25Z</time>
      </trkpt>
      <trkpt lat="45.84401" lon="2.96453">
        <ele>1078</ele>
        <time>2014-08-22T11:01:28Z</time>
      </trkpt>
      <trkpt lat="45.84408" lon="2.96449">
        <ele>1077</ele>
        <time>2014-08-22T11:01:31Z</time>
      </trkpt>
      <trkpt lat="45.84416" lon="2.96445">
        <ele>1076</ele>
        <time>2014-08-22T11:01:34Z</time>
      </trkpt>
      <trkpt lat="45.8442" lon="2.96441">
        <ele>1074</ele>
        <time>2014-08-22T11:01:36Z</time>
      </trkpt>
      <trkpt lat="45.84423" lon="2.9644">
        <ele>1073</ele>
        <time>2014-08-22T11:01:38Z</time>
      </trkpt>
      <trkpt lat="45.84431" lon="2.9644">
        <ele>1072</ele>
        <time>2014-08-22T11:01:41Z</time>
      </trkpt>
      <trkpt lat="45.84435" lon="2.96445">
        <ele>1072</ele>
        <time>2014-08-22T11:01:43Z</time>
      </trkpt>
      <trkpt lat="45.8444" lon="2.96448">
        <ele>1071</ele>
        <time>2014-08-22T11:01:45Z</time>
      </trkpt>
      <trkpt lat="45.84445" lon="2.96452">
        <ele>1070</ele>
        <time>2014-08-22T11:01:48Z</time>
      </trkpt>
      <trkpt lat="45.8445" lon="2.9646">
        <ele>1069</ele>
        <time>2014-08-22T11:01:51Z</time>
      </trkpt>
      <trkpt lat="45.84455" lon="2.96469">
        <ele>1068</ele>
        <time>2014-08-22T11:01:53Z</time>
      </trkpt>
      <trkpt lat="45.84461" lon="2.96478">
        <ele>1067</ele>
        <time>2014-08-22T11:01:55Z</time>
      </trkpt>
      <trkpt lat="45.84468" lon="2.96483">
        <ele>1065</ele>
        <time>2014-08-22T11:01:57Z</time>
      </trkpt>
      <trkpt lat="45.84475" lon="2.96489">
        <ele>1064</ele>
        <time>2014-08-22T11:01:59Z</time>
      </trkpt>
      <trkpt lat="45.84483" lon="2.96494">
        <ele>1062</ele>
        <time>2014-08-22T11:02:01Z</time>
      </trkpt>
      <trkpt lat="45.84497" lon="2.965">
        <ele>1059</ele>
        <time>2014-08-22T11:02:04Z</time>
      </trkpt>
      <trkpt lat="45.84509" lon="2.96509">
        <ele>1056</ele>
        <time>2014-08-22T11:02:07Z</time>
      </trkpt>
      <trkpt lat="45.84515" lon="2.96519">
        <ele>1054</ele>
        <time>2014-08-22T11:02:10Z</time>
      </trkpt>
      <trkpt lat="45.84519" lon="2.96527">
        <ele>1055</ele>
        <time>2014-08-22T11:02:13Z</time>
      </trkpt>
      <trkpt lat="45.84523" lon="2.96533">
        <ele>1056</ele>
        <time>2014-08-22T11:02:16Z</time>
      </trkpt>
      <trkpt lat="45.84528" lon="2.96538">
        <ele>1057</ele>
        <time>2014-08-22T11:02:19Z</time>
      </trkpt>
      <trkpt lat="45.84531" lon="2.96541">
        <ele>1058</ele>
        <time>2014-08-22T11:02:21Z</time>
      </trkpt>
      <trkpt lat="45.84534" lon="2.96545">
        <ele>1058</ele>
        <time>2014-08-22T11:02:23Z</time>
      </trkpt>
      <trkpt lat="45.84538" lon="2.96547">
        <ele>1059</ele>
        <time>2014-08-22T11:02:25Z</time>
      </trkpt>
      <trkpt lat="45.84541" lon="2.96551">
        <ele>1060</ele>
        <time>2014-08-22T11:02:28Z</time>
      </trkpt>
      <trkpt lat="45.84543" lon="2.96553">
        <ele>1060</ele>
        <time>2014-08-22T11:02:31Z</time>
      </trkpt>
      <trkpt lat="45.84544" lon="2.96555">
        <ele>1060</ele>
        <time>2014-08-22T11:02:33Z</time>
      </trkpt>
      <trkpt lat="45.84546" lon="2.96557">
        <ele>1061</ele>
        <time>2014-08-22T11:02:35Z</time>
      </trkpt>
      <trkpt lat="45.84547" lon="2.96559">
        <ele>1060</ele>
        <time>2014-08-22T11:02:37Z</time>
      </trkpt>
      <trkpt lat="45.84549" lon="2.96561">
        <ele>1061</ele>
        <time>2014-08-22T11:02:39Z</time>
      </trkpt>
      <trkpt lat="45.84553" lon="2.96563">
        <ele>1061</ele>
        <time>2014-08-22T11:02:42Z</time>
      </trkpt>
      <trkpt lat="45.84555" lon="2.96566">
        <ele>1062</ele>
        <time>2014-08-22T11:02:44Z</time>
      </trkpt>
      <trkpt lat="45.84556" lon="2.96568">
        <ele>1062</ele>
        <time>2014-08-22T11:02:46Z</time>
      </trkpt>
      <trkpt lat="45.84558" lon="2.96569">
        <ele>1063</ele>
        <time>2014-08-22T11:02:48Z</time>
      </trkpt>
      <trkpt lat="45.8456" lon="2.96573">
        <ele>1063</ele>
        <time>2014-08-22T11:02:51Z</time>
      </trkpt>
      <trkpt lat="45.84562" lon="2.96575">
        <ele>1063</ele>
        <time>2014-08-22T11:02:53Z</time>
      </trkpt>
      <trkpt lat="45.84564" lon="2.96576">
        <ele>1063</ele>
        <time>2014-08-22T11:02:56Z</time>
      </trkpt>
      <trkpt lat="45.84565" lon="2.96578">
        <ele>1064</ele>
        <time>2014-08-22T11:02:58Z</time>
      </trkpt>
      <trkpt lat="45.84568" lon="2.9658">
        <ele>1064</ele>
        <time>2014-08-22T11:03:01Z</time>
      </trkpt>
      <trkpt lat="45.84569" lon="2.9658">
        <ele>1065</ele>
        <time>2014-08-22T11:03:03Z</time>
      </trkpt>
      <trkpt lat="45.84572" lon="2.96581">
        <ele>1065</ele>
        <time>2014-08-22T11:03:06Z</time>
      </trkpt>
      <trkpt lat="45.84574" lon="2.96581">
        <ele>1066</ele>
        <time>2014-08-22T11:03:09Z</time>
      </trkpt>
      <trkpt lat="45.84576" lon="2.96582">
        <ele>1066</ele>
        <time>2014-08-22T11:03:11Z</time>
      </trkpt>
      <trkpt lat="45.84578" lon="2.96583">
        <ele>1067</ele>
        <time>2014-08-22T11:03:13Z</time>
      </trkpt>
      <trkpt lat="45.84579" lon="2.96584">
        <ele>1067</ele>
        <time>2014-08-22T11:03:15Z</time>
      </trkpt>
      <trkpt lat="45.84581" lon="2.96586">
        <ele>1068</ele>
        <time>2014-08-22T11:03:18Z</time>
      </trkpt>
      <trkpt lat="45.84582" lon="2.96588">
        <ele>1068</ele>
        <time>2014-08-22T11:03:20Z</time>
      </trkpt>
      <trkpt lat="45.84583" lon="2.96589">
        <ele>1069</ele>
        <time>2014-08-22T11:03:22Z</time>
      </trkpt>
      <trkpt lat="45.84585" lon="2.96591">
        <ele>1070</ele>
        <time>2014-08-22T11:03:25Z</time>
      </trkpt>
      <trkpt lat="45.84586" lon="2.96592">
        <ele>1070</ele>
        <time>2014-08-22T11:03:27Z</time>
      </trkpt>
      <trkpt lat="45.84587" lon="2.96593">
        <ele>1070</ele>
        <time>2014-08-22T11:03:30Z</time>
      </trkpt>
      <trkpt lat="45.84588" lon="2.96595">
        <ele>1070</ele>
        <time>2014-08-22T11:03:32Z</time>
      </trkpt>
      <trkpt lat="45.84588" lon="2.96596">
        <ele>1071</ele>
        <time>2014-08-22T11:03:34Z</time>
      </trkpt>
      <trkpt lat="45.84589" lon="2.96596">
        <ele>1071</ele>
        <time>2014-08-22T11:03:36Z</time>
      </trkpt>
      <trkpt lat="45.8459" lon="2.96597">
        <ele>1071</ele>
        <time>2014-08-22T11:03:38Z</time>
      </trkpt>
      <trkpt lat="45.8459" lon="2.96598">
        <ele>1072</ele>
        <time>2014-08-22T11:03:41Z</time>
      </trkpt>
      <trkpt lat="45.8459" lon="2.96598">
        <ele>1072</ele>
        <time>2014-08-22T11:03:43Z</time>
      </trkpt>
      <trkpt lat="45.84591" lon="2.96599">
        <ele>1072</ele>
        <time>2014-08-22T11:03:46Z</time>
      </trkpt>
      <trkpt lat="45.84591" lon="2.966">
        <ele>1073</ele>
        <time>2014-08-22T11:03:48Z</time>
      </trkpt>
      <trkpt lat="45.84591" lon="2.96601">
        <ele>1073</ele>
        <time>2014-08-22T11:03:50Z</time>
      </trkpt>
      <trkpt lat="45.84591" lon="2.96602">
        <ele>1073</ele>
        <time>2014-08-22T11:03:52Z</time>
      </trkpt>
      <trkpt lat="45.84591" lon="2.96602">
        <ele>1073</ele>
        <time>2014-08-22T11:03:56Z</time>
      </trkpt>
      <trkpt lat="45.84592" lon="2.96603">
        <ele>1073</ele>
        <time>2014-08-22T11:03:59Z</time>
      </trkpt>
      <trkpt lat="45.84592" lon="2.96604">
        <ele>1073</ele>
        <time>2014-08-22T11:04:01Z</time>
      </trkpt>
      <trkpt lat="45.84593" lon="2.96606">
        <ele>1074</ele>
        <time>2014-08-22T11:04:03Z</time>
      </trkpt>
      <trkpt lat="45.84594" lon="2.96608">
        <ele>1074</ele>
        <time>2014-08-22T11:04:05Z</time>
      </trkpt>
      <trkpt lat="45.84597" lon="2.96612">
        <ele>1074</ele>
        <time>2014-08-22T11:04:08Z</time>
      </trkpt>
      <trkpt lat="45.84597" lon="2.96612">
        <ele>1075</ele>
        <time>2014-08-22T11:04:10Z</time>
      </trkpt>
      <trkpt lat="45.84597" lon="2.96613">
        <ele>1075</ele>
        <time>2014-08-22T11:04:13Z</time>
      </trkpt>
      <trkpt lat="45.84597" lon="2.96614">
        <ele>1075</ele>
        <time>2014-08-22T11:04:16Z</time>
      </trkpt>
      <trkpt lat="45.84598" lon="2.96615">
        <ele>1075</ele>
        <time>2014-08-22T11:04:18Z</time>
      </trkpt>
      <trkpt lat="45.84598" lon="2.96617">
        <ele>1075</ele>
        <time>2014-08-22T11:04:21Z</time>
      </trkpt>
      <trkpt lat="45.84599" lon="2.96618">
        <ele>1076</ele>
        <time>2014-08-22T11:04:23Z</time>
      </trkpt>
      <trkpt lat="45.84599" lon="2.9662">
        <ele>1076</ele>
        <time>2014-08-22T11:04:25Z</time>
      </trkpt>
      <trkpt lat="45.84599" lon="2.9662">
        <ele>1076</ele>
        <time>2014-08-22T11:04:27Z</time>
      </trkpt>
      <trkpt lat="45.84599" lon="2.96621">
        <ele>1076</ele>
        <time>2014-08-22T11:04:29Z</time>
      </trkpt>
      <trkpt lat="45.846" lon="2.96625">
        <ele>1076</ele>
        <time>2014-08-22T11:04:32Z</time>
      </trkpt>
      <trkpt lat="45.84602" lon="2.96629">
        <ele>1077</ele>
        <time>2014-08-22T11:04:34Z</time>
      </trkpt>
      <trkpt lat="45.84605" lon="2.96632">
        <ele>1077</ele>
        <time>2014-08-22T11:04:36Z</time>
      </trkpt>
      <trkpt lat="45.84608" lon="2.96635">
        <ele>1078</ele>
        <time>2014-08-22T11:04:38Z</time>
      </trkpt>
      <trkpt lat="45.84613" lon="2.96638">
        <ele>1079</ele>
        <time>2014-08-22T11:04:41Z</time>
      </trkpt>
      <trkpt lat="45.84614" lon="2.96641">
        <ele>1080</ele>
        <time>2014-08-22T11:04:43Z</time>
      </trkpt>
      <trkpt lat="45.84617" lon="2.96642">
        <ele>1080</ele>
        <time>2014-08-22T11:04:45Z</time>
      </trkpt>
      <trkpt lat="45.84619" lon="2.96643">
        <ele>1081</ele>
        <time>2014-08-22T11:04:47Z</time>
      </trkpt>
      <trkpt lat="45.84623" lon="2.96645">
        <ele>1082</ele>
        <time>2014-08-22T11:04:50Z</time>
      </trkpt>
      <trkpt lat="45.84626" lon="2.96647">
        <ele>1083</ele>
        <time>2014-08-22T11:04:52Z</time>
      </trkpt>
      <trkpt lat="45.8463" lon="2.9665">
        <ele>1084</ele>
        <time>2014-08-22T11:04:55Z</time>
      </trkpt>
      <trkpt lat="45.84632" lon="2.96652">
        <ele>1085</ele>
        <time>2014-08-22T11:04:57Z</time>
      </trkpt>
      <trkpt lat="45.84634" lon="2.96653">
        <ele>1086</ele>
        <time>2014-08-22T11:04:59Z</time>
      </trkpt>
      <trkpt lat="45.84637" lon="2.96653">
        <ele>1087</ele>
        <time>2014-08-22T11:05:02Z</time>
      </trkpt>
      <trkpt lat="45.84641" lon="2.96656">
        <ele>1089</ele>
        <time>2014-08-22T11:05:05Z</time>
      </trkpt>
      <trkpt lat="45.84643" lon="2.96658">
        <ele>1089</ele>
        <time>2014-08-22T11:05:07Z</time>
      </trkpt>
      <trkpt lat="45.84647" lon="2.96662">
        <ele>1090</ele>
        <time>2014-08-22T11:05:10Z</time>
      </trkpt>
      <trkpt lat="45.84652" lon="2.96665">
        <ele>1090</ele>
        <time>2014-08-22T11:05:13Z</time>
      </trkpt>
      <trkpt lat="45.84654" lon="2.96667">
        <ele>1091</ele>
        <time>2014-08-22T11:05:16Z</time>
      </trkpt>
      <trkpt lat="45.84655" lon="2.96669">
        <ele>1091</ele>
        <time>2014-08-22T11:05:18Z</time>
      </trkpt>
      <trkpt lat="45.84658" lon="2.96674">
        <ele>1091</ele>
        <time>2014-08-22T11:05:21Z</time>
      </trkpt>
      <trkpt lat="45.8466" lon="2.96682">
        <ele>1091</ele>
        <time>2014-08-22T11:05:24Z</time>
      </trkpt>
      <trkpt lat="45.84662" lon="2.96686">
        <ele>1091</ele>
        <time>2014-08-22T11:05:26Z</time>
      </trkpt>
      <trkpt lat="45.84667" lon="2.96694">
        <ele>1090</ele>
        <time>2014-08-22T11:05:29Z</time>
      </trkpt>
      <trkpt lat="45.8467" lon="2.96704">
        <ele>1089</ele>
        <time>2014-08-22T11:05:32Z</time>
      </trkpt>
      <trkpt lat="45.84676" lon="2.96713">
        <ele>1089</ele>
        <time>2014-08-22T11:05:35Z</time>
      </trkpt>
      <trkpt lat="45.84681" lon="2.96725">
        <ele>1088</ele>
        <time>2014-08-22T11:05:38Z</time>
      </trkpt>
      <trkpt lat="45.84683" lon="2.96738">
        <ele>1088</ele>
        <time>2014-08-22T11:05:41Z</time>
      </trkpt>
      <trkpt lat="45.84688" lon="2.96749">
        <ele>1089</ele>
        <time>2014-08-22T11:05:44Z</time>
      </trkpt>
      <trkpt lat="45.84693" lon="2.96759">
        <ele>1088</ele>
        <time>2014-08-22T11:05:47Z</time>
      </trkpt>
      <trkpt lat="45.84696" lon="2.96765">
        <ele>1088</ele>
        <time>2014-08-22T11:05:49Z</time>
      </trkpt>
      <trkpt lat="45.84701" lon="2.96776">
        <ele>1088</ele>
        <time>2014-08-22T11:05:52Z</time>
      </trkpt>
      <trkpt lat="45.84706" lon="2.96786">
        <ele>1088</ele>
        <time>2014-08-22T11:05:55Z</time>
      </trkpt>
      <trkpt lat="45.8471" lon="2.9679">
        <ele>1088</ele>
        <time>2014-08-22T11:05:57Z</time>
      </trkpt>
      <trkpt lat="45.84718" lon="2.96799">
        <ele>1087</ele>
        <time>2014-08-22T11:06:00Z</time>
      </trkpt>
      <trkpt lat="45.84721" lon="2.96808">
        <ele>1087</ele>
        <time>2014-08-22T11:06:02Z</time>
      </trkpt>
      <trkpt lat="45.84727" lon="2.9682">
        <ele>1087</ele>
        <time>2014-08-22T11:06:05Z</time>
      </trkpt>
      <trkpt lat="45.84737" lon="2.9683">
        <ele>1087</ele>
        <time>2014-08-22T11:06:08Z</time>
      </trkpt>
      <trkpt lat="45.84741" lon="2.96835">
        <ele>1087</ele>
        <time>2014-08-22T11:06:10Z</time>
      </trkpt>
      <trkpt lat="45.84747" lon="2.9684">
        <ele>1086</ele>
        <time>2014-08-22T11:06:13Z</time>
      </trkpt>
      <trkpt lat="45.84753" lon="2.96846">
        <ele>1085</ele>
        <time>2014-08-22T11:06:16Z</time>
      </trkpt>
      <trkpt lat="45.84758" lon="2.96853">
        <ele>1085</ele>
        <time>2014-08-22T11:06:19Z</time>
      </trkpt>
      <trkpt lat="45.84764" lon="2.9686">
        <ele>1084</ele>
        <time>2014-08-22T11:06:22Z</time>
      </trkpt>
      <trkpt lat="45.84771" lon="2.96863">
        <ele>1085</ele>
        <time>2014-08-22T11:06:25Z</time>
      </trkpt>
      <trkpt lat="45.84775" lon="2.96867">
        <ele>1084</ele>
        <time>2014-08-22T11:06:27Z</time>
      </trkpt>
      <trkpt lat="45.84779" lon="2.9687">
        <ele>1084</ele>
        <time>2014-08-22T11:06:29Z</time>
      </trkpt>
      <trkpt lat="45.84784" lon="2.96874">
        <ele>1084</ele>
        <time>2014-08-22T11:06:32Z</time>
      </trkpt>
      <trkpt lat="45.84789" lon="2.96876">
        <ele>1084</ele>
        <time>2014-08-22T11:06:34Z</time>
      </trkpt>
      <trkpt lat="45.84794" lon="2.96876">
        <ele>1084</ele>
        <time>2014-08-22T11:06:36Z</time>
      </trkpt>
      <trkpt lat="45.84803" lon="2.96876">
        <ele>1083</ele>
        <time>2014-08-22T11:06:39Z</time>
      </trkpt>
      <trkpt lat="45.84814" lon="2.96878">
        <ele>1083</ele>
        <time>2014-08-22T11:06:42Z</time>
      </trkpt>
      <trkpt lat="45.84822" lon="2.96881">
        <ele>1082</ele>
        <time>2014-08-22T11:06:45Z</time>
      </trkpt>
      <trkpt lat="45.84827" lon="2.96881">
        <ele>1081</ele>
        <time>2014-08-22T11:06:48Z</time>
      </trkpt>
      <trkpt lat="45.8483" lon="2.9688">
        <ele>1079</ele>
        <time>2014-08-22T11:06:50Z</time>
      </trkpt>
      <trkpt lat="45.84833" lon="2.96877">
        <ele>1079</ele>
        <time>2014-08-22T11:06:52Z</time>
      </trkpt>
      <trkpt lat="45.84837" lon="2.96868">
        <ele>1079</ele>
        <time>2014-08-22T11:06:55Z</time>
      </trkpt>
      <trkpt lat="45.84841" lon="2.96863">
        <ele>1078</ele>
        <time>2014-08-22T11:06:57Z</time>
      </trkpt>
      <trkpt lat="45.84847" lon="2.9686">
        <ele>1076</ele>
        <time>2014-08-22T11:07:00Z</time>
      </trkpt>
      <trkpt lat="45.84855" lon="2.96857">
        <ele>1074</ele>
        <time>2014-08-22T11:07:03Z</time>
      </trkpt>
      <trkpt lat="45.84863" lon="2.96849">
        <ele>1073</ele>
        <time>2014-08-22T11:07:06Z</time>
      </trkpt>
      <trkpt lat="45.84869" lon="2.96844">
        <ele>1071</ele>
        <time>2014-08-22T11:07:09Z</time>
      </trkpt>
      <trkpt lat="45.84874" lon="2.96835">
        <ele>1069</ele>
        <time>2014-08-22T11:07:12Z</time>
      </trkpt>
      <trkpt lat="45.84879" lon="2.96828">
        <ele>1067</ele>
        <time>2014-08-22T11:07:15Z</time>
      </trkpt>
      <trkpt lat="45.84882" lon="2.96823">
        <ele>1065</ele>
        <time>2014-08-22T11:07:17Z</time>
      </trkpt>
      <trkpt lat="45.84885" lon="2.96821">
        <ele>1064</ele>
        <time>2014-08-22T11:07:19Z</time>
      </trkpt>
      <trkpt lat="45.84888" lon="2.96814">
        <ele>1064</ele>
        <time>2014-08-22T11:07:22Z</time>
      </trkpt>
      <trkpt lat="45.84893" lon="2.96807">
        <ele>1063</ele>
        <time>2014-08-22T11:07:25Z</time>
      </trkpt>
      <trkpt lat="45.84898" lon="2.96797">
        <ele>1062</ele>
        <time>2014-08-22T11:07:28Z</time>
      </trkpt>
      <trkpt lat="45.84903" lon="2.96786">
        <ele>1060</ele>
        <time>2014-08-22T11:07:31Z</time>
      </trkpt>
      <trkpt lat="45.84908" lon="2.96771">
        <ele>1059</ele>
        <time>2014-08-22T11:07:34Z</time>
      </trkpt>
      <trkpt lat="45.84909" lon="2.96763">
        <ele>1058</ele>
        <time>2014-08-22T11:07:36Z</time>
      </trkpt>
      <trkpt lat="45.84909" lon="2.96759">
        <ele>1057</ele>
        <time>2014-08-22T11:07:39Z</time>
      </trkpt>
      <trkpt lat="45.8491" lon="2.96756">
        <ele>1056</ele>
        <time>2014-08-22T11:07:41Z</time>
      </trkpt>
      <trkpt lat="45.84914" lon="2.96754">
        <ele>1056</ele>
        <time>2014-08-22T11:07:43Z</time>
      </trkpt>
      <trkpt lat="45.84919" lon="2.96752">
        <ele>1055</ele>
        <time>2014-08-22T11:07:46Z</time>
      </trkpt>
      <trkpt lat="45.84924" lon="2.96751">
        <ele>1054</ele>
        <time>2014-08-22T11:07:49Z</time>
      </trkpt>
      <trkpt lat="45.84926" lon="2.96748">
        <ele>1052</ele>
        <time>2014-08-22T11:07:52Z</time>
      </trkpt>
      <trkpt lat="45.84928" lon="2.96746">
        <ele>1051</ele>
        <time>2014-08-22T11:07:54Z</time>
      </trkpt>
      <trkpt lat="45.84933" lon="2.96743">
        <ele>1049</ele>
        <time>2014-08-22T11:07:57Z</time>
      </trkpt>
      <trkpt lat="45.84938" lon="2.9674">
        <ele>1046</ele>
        <time>2014-08-22T11:08:00Z</time>
      </trkpt>
      <trkpt lat="45.84943" lon="2.96736">
        <ele>1044</ele>
        <time>2014-08-22T11:08:03Z</time>
      </trkpt>
      <trkpt lat="45.84946" lon="2.96732">
        <ele>1041</ele>
        <time>2014-08-22T11:08:05Z</time>
      </trkpt>
      <trkpt lat="45.84957" lon="2.96729">
        <ele>1039</ele>
        <time>2014-08-22T11:08:08Z</time>
      </trkpt>
      <trkpt lat="45.84964" lon="2.96723">
        <ele>1036</ele>
        <time>2014-08-22T11:08:11Z</time>
      </trkpt>
      <trkpt lat="45.84972" lon="2.96719">
        <ele>1034</ele>
        <time>2014-08-22T11:08:14Z</time>
      </trkpt>
      <trkpt lat="45.84976" lon="2.96717">
        <ele>1032</ele>
        <time>2014-08-22T11:08:16Z</time>
      </trkpt>
      <trkpt lat="45.84984" lon="2.9671">
        <ele>1030</ele>
        <time>2014-08-22T11:08:18Z</time>
      </trkpt>
      <trkpt lat="45.84993" lon="2.96701">
        <ele>1027</ele>
        <time>2014-08-22T11:08:20Z</time>
      </trkpt>
      <trkpt lat="45.85009" lon="2.96695">
        <ele>1025</ele>
        <time>2014-08-22T11:08:23Z</time>
      </trkpt>
      <trkpt lat="45.85027" lon="2.96684">
        <ele>1020</ele>
        <time>2014-08-22T11:08:26Z</time>
      </trkpt>
      <trkpt lat="45.85043" lon="2.96668">
        <ele>1016</ele>
        <time>2014-08-22T11:08:29Z</time>
      </trkpt>
      <trkpt lat="45.85053" lon="2.96655">
        <ele>1011</ele>
        <time>2014-08-22T11:08:32Z</time>
      </trkpt>
      <trkpt lat="45.8506" lon="2.9665">
        <ele>1009</ele>
        <time>2014-08-22T11:08:34Z</time>
      </trkpt>
      <trkpt lat="45.8507" lon="2.96641">
        <ele>1004</ele>
        <time>2014-08-22T11:08:37Z</time>
      </trkpt>
      <trkpt lat="45.85081" lon="2.96627">
        <ele>1001</ele>
        <time>2014-08-22T11:08:40Z</time>
      </trkpt>
      <trkpt lat="45.85091" lon="2.96618">
        <ele>998</ele>
        <time>2014-08-22T11:08:42Z</time>
      </trkpt>
      <trkpt lat="45.851" lon="2.96606">
        <ele>996</ele>
        <time>2014-08-22T11:08:44Z</time>
      </trkpt>
      <trkpt lat="45.85105" lon="2.96597">
        <ele>994</ele>
        <time>2014-08-22T11:08:46Z</time>
      </trkpt>
      <trkpt lat="45.8511" lon="2.96585">
        <ele>992</ele>
        <time>2014-08-22T11:08:49Z</time>
      </trkpt>
      <trkpt lat="45.85113" lon="2.96575">
        <ele>989</ele>
        <time>2014-08-22T11:08:52Z</time>
      </trkpt>
      <trkpt lat="45.85114" lon="2.96566">
        <ele>987</ele>
        <time>2014-08-22T11:08:55Z</time>
      </trkpt>
      <trkpt lat="45.85115" lon="2.96559">
        <ele>985</ele>
        <time>2014-08-22T11:08:58Z</time>
      </trkpt>
      <trkpt lat="45.85115" lon="2.96556">
        <ele>984</ele>
        <time>2014-08-22T11:09:00Z</time>
      </trkpt>
      <trkpt lat="45.85116" lon="2.96553">
        <ele>984</ele>
        <time>2014-08-22T11:09:02Z</time>
      </trkpt>
      <trkpt lat="45.85117" lon="2.96548">
        <ele>984</ele>
        <time>2014-08-22T11:09:05Z</time>
      </trkpt>
      <trkpt lat="45.85118" lon="2.96544">
        <ele>984</ele>
        <time>2014-08-22T11:09:07Z</time>
      </trkpt>
      <trkpt lat="45.8512" lon="2.9654">
        <ele>983</ele>
        <time>2014-08-22T11:09:09Z</time>
      </trkpt>
      <trkpt lat="45.85122" lon="2.96536">
        <ele>983</ele>
        <time>2014-08-22T11:09:11Z</time>
      </trkpt>
      <trkpt lat="45.85123" lon="2.96534">
        <ele>982</ele>
        <time>2014-08-22T11:09:13Z</time>
      </trkpt>
      <trkpt lat="45.85124" lon="2.96531">
        <ele>982</ele>
        <time>2014-08-22T11:09:16Z</time>
      </trkpt>
      <trkpt lat="45.85124" lon="2.96529">
        <ele>982</ele>
        <time>2014-08-22T11:09:18Z</time>
      </trkpt>
      <trkpt lat="45.85126" lon="2.96525">
        <ele>981</ele>
        <time>2014-08-22T11:09:21Z</time>
      </trkpt>
      <trkpt lat="45.85128" lon="2.96518">
        <ele>981</ele>
        <time>2014-08-22T11:09:24Z</time>
      </trkpt>
      <trkpt lat="45.85131" lon="2.9651">
        <ele>979</ele>
        <time>2014-08-22T11:09:27Z</time>
      </trkpt>
      <trkpt lat="45.85133" lon="2.96504">
        <ele>978</ele>
        <time>2014-08-22T11:09:29Z</time>
      </trkpt>
      <trkpt lat="45.85138" lon="2.96494">
        <ele>976</ele>
        <time>2014-08-22T11:09:32Z</time>
      </trkpt>
      <trkpt lat="45.85144" lon="2.9648">
        <ele>973</ele>
        <time>2014-08-22T11:09:35Z</time>
      </trkpt>
      <trkpt lat="45.85149" lon="2.96467">
        <ele>970</ele>
        <time>2014-08-22T11:09:38Z</time>
      </trkpt>
      <trkpt lat="45.85154" lon="2.96458">
        <ele>969</ele>
        <time>2014-08-22T11:09:40Z</time>
      </trkpt>
      <trkpt lat="45.85158" lon="2.96449">
        <ele>967</ele>
        <time>2014-08-22T11:09:42Z</time>
      </trkpt>
      <trkpt lat="45.8516" lon="2.96444">
        <ele>967</ele>
        <time>2014-08-22T11:09:44Z</time>
      </trkpt>
      <trkpt lat="45.8516" lon="2.9644">
        <ele>965</ele>
        <time>2014-08-22T11:09:46Z</time>
      </trkpt>
      <trkpt lat="45.85167" lon="2.96439">
        <ele>964</ele>
        <time>2014-08-22T11:09:49Z</time>
      </trkpt>
      <trkpt lat="45.85175" lon="2.96444">
        <ele>964</ele>
        <time>2014-08-22T11:09:52Z</time>
      </trkpt>
      <trkpt lat="45.85185" lon="2.9645">
        <ele>963</ele>
        <time>2014-08-22T11:09:55Z</time>
      </trkpt>
      <trkpt lat="45.85196" lon="2.9646">
        <ele>963</ele>
        <time>2014-08-22T11:09:58Z</time>
      </trkpt>
      <trkpt lat="45.85201" lon="2.96469">
        <ele>962</ele>
        <time>2014-08-22T11:10:00Z</time>
      </trkpt>
      <trkpt lat="45.85208" lon="2.96483">
        <ele>962</ele>
        <time>2014-08-22T11:10:02Z</time>
      </trkpt>
      <trkpt lat="45.85215" lon="2.96498">
        <ele>961</ele>
        <time>2014-08-22T11:10:04Z</time>
      </trkpt>
      <trkpt lat="45.85228" lon="2.96524">
        <ele>959</ele>
        <time>2014-08-22T11:10:07Z</time>
      </trkpt>
      <trkpt lat="45.85236" lon="2.96543">
        <ele>958</ele>
        <time>2014-08-22T11:10:09Z</time>
      </trkpt>
      <trkpt lat="45.85244" lon="2.96561">
        <ele>957</ele>
        <time>2014-08-22T11:10:11Z</time>
      </trkpt>
      <trkpt lat="45.85253" lon="2.96582">
        <ele>956</ele>
        <time>2014-08-22T11:10:13Z</time>
      </trkpt>
      <trkpt lat="45.85268" lon="2.96609">
        <ele>955</ele>
        <time>2014-08-22T11:10:16Z</time>
      </trkpt>
      <trkpt lat="45.85287" lon="2.96627">
        <ele>953</ele>
        <time>2014-08-22T11:10:19Z</time>
      </trkpt>
      <trkpt lat="45.85296" lon="2.96642">
        <ele>952</ele>
        <time>2014-08-22T11:10:22Z</time>
      </trkpt>
      <trkpt lat="45.85294" lon="2.96664">
        <ele>951</ele>
        <time>2014-08-22T11:10:25Z</time>
      </trkpt>
      <trkpt lat="45.8529" lon="2.96686">
        <ele>950</ele>
        <time>2014-08-22T11:10:28Z</time>
      </trkpt>
      <trkpt lat="45.85283" lon="2.96704">
        <ele>949</ele>
        <time>2014-08-22T11:10:31Z</time>
      </trkpt>
      <trkpt lat="45.85275" lon="2.96722">
        <ele>948</ele>
        <time>2014-08-22T11:10:34Z</time>
      </trkpt>
      <trkpt lat="45.85267" lon="2.96734">
        <ele>948</ele>
        <time>2014-08-22T11:10:36Z</time>
      </trkpt>
      <trkpt lat="45.85261" lon="2.96741">
        <ele>948</ele>
        <time>2014-08-22T11:10:38Z</time>
      </trkpt>
      <trkpt lat="45.85254" lon="2.96757">
        <ele>947</ele>
        <time>2014-08-22T11:10:41Z</time>
      </trkpt>
      <trkpt lat="45.8525" lon="2.96769">
        <ele>948</ele>
        <time>2014-08-22T11:10:43Z</time>
      </trkpt>
      <trkpt lat="45.85249" lon="2.96781">
        <ele>948</ele>
        <time>2014-08-22T11:10:45Z</time>
      </trkpt>
      <trkpt lat="45.85249" lon="2.96805">
        <ele>947</ele>
        <time>2014-08-22T11:10:48Z</time>
      </trkpt>
      <trkpt lat="45.85251" lon="2.96835">
        <ele>946</ele>
        <time>2014-08-22T11:10:51Z</time>
      </trkpt>
      <trkpt lat="45.85255" lon="2.96863">
        <ele>945</ele>
        <time>2014-08-22T11:10:54Z</time>
      </trkpt>
      <trkpt lat="45.85255" lon="2.9689">
        <ele>944</ele>
        <time>2014-08-22T11:10:57Z</time>
      </trkpt>
      <trkpt lat="45.85253" lon="2.96915">
        <ele>943</ele>
        <time>2014-08-22T11:10:59Z</time>
      </trkpt>
      <trkpt lat="45.85252" lon="2.96951">
        <ele>942</ele>
        <time>2014-08-22T11:11:02Z</time>
      </trkpt>
      <trkpt lat="45.8525" lon="2.96985">
        <ele>941</ele>
        <time>2014-08-22T11:11:05Z</time>
      </trkpt>
      <trkpt lat="45.85245" lon="2.97011">
        <ele>940</ele>
        <time>2014-08-22T11:11:08Z</time>
      </trkpt>
      <trkpt lat="45.8524" lon="2.97026">
        <ele>939</ele>
        <time>2014-08-22T11:11:10Z</time>
      </trkpt>
      <trkpt lat="45.85233" lon="2.97042">
        <ele>939</ele>
        <time>2014-08-22T11:11:12Z</time>
      </trkpt>
      <trkpt lat="45.85228" lon="2.97058">
        <ele>938</ele>
        <time>2014-08-22T11:11:14Z</time>
      </trkpt>
      <trkpt lat="45.85226" lon="2.97084">
        <ele>938</ele>
        <time>2014-08-22T11:11:17Z</time>
      </trkpt>
      <trkpt lat="45.85224" lon="2.97096">
        <ele>938</ele>
        <time>2014-08-22T11:11:19Z</time>
      </trkpt>
      <trkpt lat="45.85221" lon="2.97109">
        <ele>937</ele>
        <time>2014-08-22T11:11:21Z</time>
      </trkpt>
      <trkpt lat="45.85213" lon="2.97128">
        <ele>937</ele>
        <time>2014-08-22T11:11:24Z</time>
      </trkpt>
      <trkpt lat="45.85206" lon="2.9714">
        <ele>937</ele>
        <time>2014-08-22T11:11:26Z</time>
      </trkpt>
      <trkpt lat="45.85199" lon="2.97152">
        <ele>937</ele>
        <time>2014-08-22T11:11:28Z</time>
      </trkpt>
      <trkpt lat="45.85191" lon="2.97167">
        <ele>936</ele>
        <time>2014-08-22T11:11:30Z</time>
      </trkpt>
      <trkpt lat="45.85182" lon="2.97187">
        <ele>936</ele>
        <time>2014-08-22T11:11:33Z</time>
      </trkpt>
      <trkpt lat="45.85178" lon="2.97199">
        <ele>935</ele>
        <time>2014-08-22T11:11:35Z</time>
      </trkpt>
      <trkpt lat="45.85171" lon="2.97207">
        <ele>935</ele>
        <time>2014-08-22T11:11:37Z</time>
      </trkpt>
      <trkpt lat="45.85164" lon="2.97216">
        <ele>934</ele>
        <time>2014-08-22T11:11:39Z</time>
      </trkpt>
      <trkpt lat="45.85158" lon="2.97226">
        <ele>932</ele>
        <time>2014-08-22T11:11:41Z</time>
      </trkpt>
      <trkpt lat="45.85149" lon="2.97238">
        <ele>930</ele>
        <time>2014-08-22T11:11:43Z</time>
      </trkpt>
      <trkpt lat="45.85137" lon="2.97259">
        <ele>926</ele>
        <time>2014-08-22T11:11:46Z</time>
      </trkpt>
      <trkpt lat="45.85131" lon="2.97276">
        <ele>923</ele>
        <time>2014-08-22T11:11:48Z</time>
      </trkpt>
      <trkpt lat="45.85126" lon="2.97292">
        <ele>922</ele>
        <time>2014-08-22T11:11:51Z</time>
      </trkpt>
      <trkpt lat="45.85127" lon="2.97302">
        <ele>920</ele>
        <time>2014-08-22T11:11:53Z</time>
      </trkpt>
      <trkpt lat="45.8513" lon="2.97313">
        <ele>919</ele>
        <time>2014-08-22T11:11:55Z</time>
      </trkpt>
      <trkpt lat="45.85136" lon="2.97324">
        <ele>918</ele>
        <time>2014-08-22T11:11:57Z</time>
      </trkpt>
      <trkpt lat="45.85143" lon="2.97338">
        <ele>916</ele>
        <time>2014-08-22T11:11:59Z</time>
      </trkpt>
      <trkpt lat="45.85158" lon="2.97364">
        <ele>913</ele>
        <time>2014-08-22T11:12:02Z</time>
      </trkpt>
      <trkpt lat="45.8517" lon="2.9739">
        <ele>909</ele>
        <time>2014-08-22T11:12:05Z</time>
      </trkpt>
      <trkpt lat="45.85176" lon="2.97405">
        <ele>907</ele>
        <time>2014-08-22T11:12:07Z</time>
      </trkpt>
      <trkpt lat="45.85183" lon="2.9742">
        <ele>904</ele>
        <time>2014-08-22T11:12:09Z</time>
      </trkpt>
      <trkpt lat="45.85192" lon="2.97437">
        <ele>901</ele>
        <time>2014-08-22T11:12:11Z</time>
      </trkpt>
      <trkpt lat="45.85204" lon="2.97465">
        <ele>898</ele>
        <time>2014-08-22T11:12:14Z</time>
      </trkpt>
      <trkpt lat="45.85215" lon="2.97488">
        <ele>893</ele>
        <time>2014-08-22T11:12:17Z</time>
      </trkpt>
      <trkpt lat="45.85225" lon="2.97513">
        <ele>887</ele>
        <time>2014-08-22T11:12:20Z</time>
      </trkpt>
      <trkpt lat="45.85234" lon="2.97537">
        <ele>885</ele>
        <time>2014-08-22T11:12:23Z</time>
      </trkpt>
      <trkpt lat="45.85239" lon="2.97549">
        <ele>882</ele>
        <time>2014-08-22T11:12:25Z</time>
      </trkpt>
      <trkpt lat="45.85248" lon="2.97573">
        <ele>880</ele>
        <time>2014-08-22T11:12:28Z</time>
      </trkpt>
      <trkpt lat="45.8526" lon="2.97595">
        <ele>877</ele>
        <time>2014-08-22T11:12:31Z</time>
      </trkpt>
      <trkpt lat="45.85271" lon="2.97614">
        <ele>874</ele>
        <time>2014-08-22T11:12:34Z</time>
      </trkpt>
      <trkpt lat="45.85279" lon="2.97625">
        <ele>873</ele>
        <time>2014-08-22T11:12:36Z</time>
      </trkpt>
      <trkpt lat="45.85289" lon="2.97637">
        <ele>871</ele>
        <time>2014-08-22T11:12:38Z</time>
      </trkpt>
      <trkpt lat="45.85304" lon="2.97655">
        <ele>870</ele>
        <time>2014-08-22T11:12:41Z</time>
      </trkpt>
      <trkpt lat="45.85313" lon="2.97671">
        <ele>869</ele>
        <time>2014-08-22T11:12:43Z</time>
      </trkpt>
      <trkpt lat="45.85328" lon="2.97697">
        <ele>865</ele>
        <time>2014-08-22T11:12:46Z</time>
      </trkpt>
      <trkpt lat="45.85336" lon="2.97718">
        <ele>863</ele>
        <time>2014-08-22T11:12:48Z</time>
      </trkpt>
      <trkpt lat="45.8535" lon="2.97747">
        <ele>858</ele>
        <time>2014-08-22T11:12:51Z</time>
      </trkpt>
      <trkpt lat="45.85372" lon="2.97769">
        <ele>855</ele>
        <time>2014-08-22T11:12:54Z</time>
      </trkpt>
      <trkpt lat="45.85397" lon="2.97779">
        <ele>854</ele>
        <time>2014-08-22T11:12:57Z</time>
      </trkpt>
      <trkpt lat="45.85419" lon="2.9779">
        <ele>852</ele>
        <time>2014-08-22T11:13:00Z</time>
      </trkpt>
      <trkpt lat="45.85443" lon="2.97809">
        <ele>850</ele>
        <time>2014-08-22T11:13:03Z</time>
      </trkpt>
      <trkpt lat="45.85457" lon="2.97815">
        <ele>849</ele>
        <time>2014-08-22T11:13:05Z</time>
      </trkpt>
      <trkpt lat="45.85479" lon="2.9783">
        <ele>847</ele>
        <time>2014-08-22T11:13:08Z</time>
      </trkpt>
      <trkpt lat="45.85494" lon="2.97844">
        <ele>845</ele>
        <time>2014-08-22T11:13:10Z</time>
      </trkpt>
      <trkpt lat="45.85506" lon="2.97854">
        <ele>844</ele>
        <time>2014-08-22T11:13:12Z</time>
      </trkpt>
      <trkpt lat="45.85516" lon="2.97863">
        <ele>842</ele>
        <time>2014-08-22T11:13:14Z</time>
      </trkpt>
      <trkpt lat="45.8553" lon="2.97874">
        <ele>841</ele>
        <time>2014-08-22T11:13:16Z</time>
      </trkpt>
      <trkpt lat="45.85545" lon="2.97895">
        <ele>837</ele>
        <time>2014-08-22T11:13:19Z</time>
      </trkpt>
      <trkpt lat="45.85558" lon="2.97917">
        <ele>834</ele>
        <time>2014-08-22T11:13:22Z</time>
      </trkpt>
      <trkpt lat="45.8557" lon="2.97928">
        <ele>832</ele>
        <time>2014-08-22T11:13:24Z</time>
      </trkpt>
      <trkpt lat="45.85585" lon="2.97935">
        <ele>831</ele>
        <time>2014-08-22T11:13:26Z</time>
      </trkpt>
      <trkpt lat="45.85605" lon="2.97954">
        <ele>830</ele>
        <time>2014-08-22T11:13:29Z</time>
      </trkpt>
      <trkpt lat="45.85617" lon="2.97984">
        <ele>827</ele>
        <time>2014-08-22T11:13:32Z</time>
      </trkpt>
      <trkpt lat="45.8563" lon="2.98011">
        <ele>825</ele>
        <time>2014-08-22T11:13:35Z</time>
      </trkpt>
      <trkpt lat="45.85635" lon="2.98022">
        <ele>823</ele>
        <time>2014-08-22T11:13:37Z</time>
      </trkpt>
      <trkpt lat="45.85642" lon="2.9803">
        <ele>821</ele>
        <time>2014-08-22T11:13:40Z</time>
      </trkpt>
      <trkpt lat="45.85649" lon="2.98039">
        <ele>820</ele>
        <time>2014-08-22T11:13:43Z</time>
      </trkpt>
      <trkpt lat="45.85654" lon="2.98043">
        <ele>820</ele>
        <time>2014-08-22T11:13:46Z</time>
      </trkpt>
      <trkpt lat="45.85657" lon="2.98048">
        <ele>820</ele>
        <time>2014-08-22T11:13:48Z</time>
      </trkpt>
      <trkpt lat="45.85663" lon="2.98056">
        <ele>820</ele>
        <time>2014-08-22T11:13:51Z</time>
      </trkpt>
      <trkpt lat="45.85668" lon="2.98062">
        <ele>819</ele>
        <time>2014-08-22T11:13:54Z</time>
      </trkpt>
      <trkpt lat="45.85671" lon="2.98065">
        <ele>818</ele>
        <time>2014-08-22T11:13:56Z</time>
      </trkpt>
      <trkpt lat="45.85677" lon="2.98071">
        <ele>818</ele>
        <time>2014-08-22T11:13:59Z</time>
      </trkpt>
      <trkpt lat="45.85682" lon="2.98069">
        <ele>818</ele>
        <time>2014-08-22T11:14:01Z</time>
      </trkpt>
      <trkpt lat="45.85685" lon="2.98067">
        <ele>818</ele>
        <time>2014-08-22T11:14:03Z</time>
      </trkpt>
      <trkpt lat="45.85688" lon="2.98065">
        <ele>818</ele>
        <time>2014-08-22T11:14:05Z</time>
      </trkpt>
      <trkpt lat="45.85691" lon="2.98063">
        <ele>818</ele>
        <time>2014-08-22T11:14:07Z</time>
      </trkpt>
      <trkpt lat="45.85693" lon="2.9806">
        <ele>819</ele>
        <time>2014-08-22T11:14:09Z</time>
      </trkpt>
      <trkpt lat="45.85697" lon="2.98057">
        <ele>819</ele>
        <time>2014-08-22T11:14:12Z</time>
      </trkpt>
      <trkpt lat="45.857" lon="2.98055">
        <ele>819</ele>
        <time>2014-08-22T11:14:14Z</time>
      </trkpt>
      <trkpt lat="45.85702" lon="2.98053">
        <ele>819</ele>
        <time>2014-08-22T11:14:16Z</time>
      </trkpt>
      <trkpt lat="45.85706" lon="2.9805">
        <ele>820</ele>
        <time>2014-08-22T11:14:19Z</time>
      </trkpt>
      <trkpt lat="45.8571" lon="2.98047">
        <ele>820</ele>
        <time>2014-08-22T11:14:21Z</time>
      </trkpt>
      <trkpt lat="45.85712" lon="2.98044">
        <ele>820</ele>
        <time>2014-08-22T11:14:23Z</time>
      </trkpt>
      <trkpt lat="45.85714" lon="2.98041">
        <ele>821</ele>
        <time>2014-08-22T11:14:26Z</time>
      </trkpt>
      <trkpt lat="45.85718" lon="2.98038">
        <ele>821</ele>
        <time>2014-08-22T11:14:29Z</time>
      </trkpt>
      <trkpt lat="45.85722" lon="2.98036">
        <ele>821</ele>
        <time>2014-08-22T11:14:32Z</time>
      </trkpt>
      <trkpt lat="45.85727" lon="2.98037">
        <ele>822</ele>
        <time>2014-08-22T11:14:35Z</time>
      </trkpt>
      <trkpt lat="45.8573" lon="2.98037">
        <ele>823</ele>
        <time>2014-08-22T11:14:37Z</time>
      </trkpt>
      <trkpt lat="45.85733" lon="2.98036">
        <ele>824</ele>
        <time>2014-08-22T11:14:39Z</time>
      </trkpt>
      <trkpt lat="45.85738" lon="2.98036">
        <ele>825</ele>
        <time>2014-08-22T11:14:42Z</time>
      </trkpt>
      <trkpt lat="45.85741" lon="2.98034">
        <ele>825</ele>
        <time>2014-08-22T11:14:44Z</time>
      </trkpt>
      <trkpt lat="45.85746" lon="2.98034">
        <ele>826</ele>
        <time>2014-08-22T11:14:47Z</time>
      </trkpt>
      <trkpt lat="45.85749" lon="2.98034">
        <ele>826</ele>
        <time>2014-08-22T11:14:49Z</time>
      </trkpt>
      <trkpt lat="45.85752" lon="2.98034">
        <ele>827</ele>
        <time>2014-08-22T11:14:51Z</time>
      </trkpt>
      <trkpt lat="45.85757" lon="2.98034">
        <ele>827</ele>
        <time>2014-08-22T11:14:54Z</time>
      </trkpt>
      <trkpt lat="45.8576" lon="2.98032">
        <ele>828</ele>
        <time>2014-08-22T11:14:56Z</time>
      </trkpt>
      <trkpt lat="45.85764" lon="2.98032">
        <ele>828</ele>
        <time>2014-08-22T11:14:58Z</time>
      </trkpt>
      <trkpt lat="45.85767" lon="2.98032">
        <ele>829</ele>
        <time>2014-08-22T11:15:00Z</time>
      </trkpt>
      <trkpt lat="45.8577" lon="2.98032">
        <ele>829</ele>
        <time>2014-08-22T11:15:02Z</time>
      </trkpt>
      <trkpt lat="45.85773" lon="2.98032">
        <ele>830</ele>
        <time>2014-08-22T11:15:04Z</time>
      </trkpt>
      <trkpt lat="45.85777" lon="2.98031">
        <ele>830</ele>
        <time>2014-08-22T11:15:06Z</time>
      </trkpt>
      <trkpt lat="45.8578" lon="2.9803">
        <ele>831</ele>
        <time>2014-08-22T11:15:08Z</time>
      </trkpt>
      <trkpt lat="45.85784" lon="2.9803">
        <ele>831</ele>
        <time>2014-08-22T11:15:10Z</time>
      </trkpt>
      <trkpt lat="45.85787" lon="2.9803">
        <ele>831</ele>
        <time>2014-08-22T11:15:12Z</time>
      </trkpt>
      <trkpt lat="45.8579" lon="2.9803">
        <ele>832</ele>
        <time>2014-08-22T11:15:14Z</time>
      </trkpt>
      <trkpt lat="45.85793" lon="2.98031">
        <ele>833</ele>
        <time>2014-08-22T11:15:16Z</time>
      </trkpt>
      <trkpt lat="45.85798" lon="2.98032">
        <ele>834</ele>
        <time>2014-08-22T11:15:19Z</time>
      </trkpt>
      <trkpt lat="45.85801" lon="2.98034">
        <ele>834</ele>
        <time>2014-08-22T11:15:21Z</time>
      </trkpt>
      <trkpt lat="45.85804" lon="2.98036">
        <ele>835</ele>
        <time>2014-08-22T11:15:24Z</time>
      </trkpt>
      <trkpt lat="45.85808" lon="2.98036">
        <ele>836</ele>
        <time>2014-08-22T11:15:26Z</time>
      </trkpt>
      <trkpt lat="45.85811" lon="2.98037">
        <ele>836</ele>
        <time>2014-08-22T11:15:29Z</time>
      </trkpt>
      <trkpt lat="45.85812" lon="2.98038">
        <ele>837</ele>
        <time>2014-08-22T11:15:31Z</time>
      </trkpt>
      <trkpt lat="45.85815" lon="2.9804">
        <ele>837</ele>
        <time>2014-08-22T11:15:34Z</time>
      </trkpt>
      <trkpt lat="45.85816" lon="2.98041">
        <ele>838</ele>
        <time>2014-08-22T11:15:36Z</time>
      </trkpt>
      <trkpt lat="45.85817" lon="2.98042">
        <ele>838</ele>
        <time>2014-08-22T11:15:39Z</time>
      </trkpt>
      <trkpt lat="45.85818" lon="2.98043">
        <ele>838</ele>
        <time>2014-08-22T11:15:41Z</time>
      </trkpt>
      <trkpt lat="45.8582" lon="2.98045">
        <ele>838</ele>
        <time>2014-08-22T11:15:44Z</time>
      </trkpt>
      <trkpt lat="45.85821" lon="2.98046">
        <ele>839</ele>
        <time>2014-08-22T11:15:46Z</time>
      </trkpt>
      <trkpt lat="45.85823" lon="2.98048">
        <ele>839</ele>
        <time>2014-08-22T11:15:49Z</time>
      </trkpt>
      <trkpt lat="45.85825" lon="2.98049">
        <ele>839</ele>
        <time>2014-08-22T11:15:51Z</time>
      </trkpt>
      <trkpt lat="45.85826" lon="2.98049">
        <ele>839</ele>
        <time>2014-08-22T11:15:53Z</time>
      </trkpt>
      <trkpt lat="45.85828" lon="2.98049">
        <ele>839</ele>
        <time>2014-08-22T11:15:56Z</time>
      </trkpt>
      <trkpt lat="45.85831" lon="2.98051">
        <ele>840</ele>
        <time>2014-08-22T11:15:59Z</time>
      </trkpt>
      <trkpt lat="45.85833" lon="2.98052">
        <ele>841</ele>
        <time>2014-08-22T11:16:01Z</time>
      </trkpt>
      <trkpt lat="45.85835" lon="2.98053">
        <ele>841</ele>
        <time>2014-08-22T11:16:03Z</time>
      </trkpt>
      <trkpt lat="45.85836" lon="2.98054">
        <ele>842</ele>
        <time>2014-08-22T11:16:05Z</time>
      </trkpt>
      <trkpt lat="45.85838" lon="2.98056">
        <ele>842</ele>
        <time>2014-08-22T11:16:08Z</time>
      </trkpt>
      <trkpt lat="45.85839" lon="2.98057">
        <ele>843</ele>
        <time>2014-08-22T11:16:10Z</time>
      </trkpt>
      <trkpt lat="45.85841" lon="2.98059">
        <ele>843</ele>
        <time>2014-08-22T11:16:13Z</time>
      </trkpt>
      <trkpt lat="45.85842" lon="2.98062">
        <ele>843</ele>
        <time>2014-08-22T11:16:16Z</time>
      </trkpt>
      <trkpt lat="45.85844" lon="2.98065">
        <ele>844</ele>
        <time>2014-08-22T11:16:19Z</time>
      </trkpt>
      <trkpt lat="45.85845" lon="2.98066">
        <ele>844</ele>
        <time>2014-08-22T11:16:21Z</time>
      </trkpt>
      <trkpt lat="45.85846" lon="2.98068">
        <ele>845</ele>
        <time>2014-08-22T11:16:24Z</time>
      </trkpt>
      <trkpt lat="45.85847" lon="2.98069">
        <ele>845</ele>
        <time>2014-08-22T11:16:26Z</time>
      </trkpt>
      <trkpt lat="45.85849" lon="2.98071">
        <ele>846</ele>
        <time>2014-08-22T11:16:29Z</time>
      </trkpt>
      <trkpt lat="45.85851" lon="2.98072">
        <ele>846</ele>
        <time>2014-08-22T11:16:31Z</time>
      </trkpt>
      <trkpt lat="45.85853" lon="2.98074">
        <ele>847</ele>
        <time>2014-08-22T11:16:34Z</time>
      </trkpt>
      <trkpt lat="45.85854" lon="2.98076">
        <ele>847</ele>
        <time>2014-08-22T11:16:37Z</time>
      </trkpt>
      <trkpt lat="45.85856" lon="2.98079">
        <ele>847</ele>
        <time>2014-08-22T11:16:40Z</time>
      </trkpt>
      <trkpt lat="45.85857" lon="2.98082">
        <ele>848</ele>
        <time>2014-08-22T11:16:43Z</time>
      </trkpt>
      <trkpt lat="45.85859" lon="2.98085">
        <ele>848</ele>
        <time>2014-08-22T11:16:46Z</time>
      </trkpt>
      <trkpt lat="45.8586" lon="2.98087">
        <ele>849</ele>
        <time>2014-08-22T11:16:49Z</time>
      </trkpt>
      <trkpt lat="45.85861" lon="2.98089">
        <ele>849</ele>
        <time>2014-08-22T11:16:51Z</time>
      </trkpt>
      <trkpt lat="45.85863" lon="2.98091">
        <ele>850</ele>
        <time>2014-08-22T11:16:54Z</time>
      </trkpt>
      <trkpt lat="45.85864" lon="2.98092">
        <ele>851</ele>
        <time>2014-08-22T11:16:56Z</time>
      </trkpt>
      <trkpt lat="45.85865" lon="2.98094">
        <ele>851</ele>
        <time>2014-08-22T11:16:58Z</time>
      </trkpt>
      <trkpt lat="45.85866" lon="2.98096">
        <ele>852</ele>
        <time>2014-08-22T11:17:01Z</time>
      </trkpt>
      <trkpt lat="45.85866" lon="2.98098">
        <ele>853</ele>
        <time>2014-08-22T11:17:03Z</time>
      </trkpt>
      <trkpt lat="45.85866" lon="2.98101">
        <ele>853</ele>
        <time>2014-08-22T11:17:06Z</time>
      </trkpt>
      <trkpt lat="45.85867" lon="2.98104">
        <ele>854</ele>
        <time>2014-08-22T11:17:09Z</time>
      </trkpt>
      <trkpt lat="45.85867" lon="2.98106">
        <ele>854</ele>
        <time>2014-08-22T11:17:11Z</time>
      </trkpt>
      <trkpt lat="45.85868" lon="2.98108">
        <ele>854</ele>
        <time>2014-08-22T11:17:14Z</time>
      </trkpt>
      <trkpt lat="45.85867" lon="2.9811">
        <ele>855</ele>
        <time>2014-08-22T11:17:17Z</time>
      </trkpt>
      <trkpt lat="45.85867" lon="2.98112">
        <ele>855</ele>
        <time>2014-08-22T11:17:19Z</time>
      </trkpt>
      <trkpt lat="45.85867" lon="2.98114">
        <ele>856</ele>
        <time>2014-08-22T11:17:21Z</time>
      </trkpt>
      <trkpt lat="45.85866" lon="2.98116">
        <ele>856</ele>
        <time>2014-08-22T11:17:23Z</time>
      </trkpt>
      <trkpt lat="45.85865" lon="2.98117">
        <ele>857</ele>
        <time>2014-08-22T11:17:25Z</time>
      </trkpt>
      <trkpt lat="45.85865" lon="2.98119">
        <ele>858</ele>
        <time>2014-08-22T11:17:27Z</time>
      </trkpt>
      <trkpt lat="45.85864" lon="2.9812">
        <ele>858</ele>
        <time>2014-08-22T11:17:29Z</time>
      </trkpt>
      <trkpt lat="45.85863" lon="2.98122">
        <ele>859</ele>
        <time>2014-08-22T11:17:31Z</time>
      </trkpt>
      <trkpt lat="45.85863" lon="2.98123">
        <ele>859</ele>
        <time>2014-08-22T11:17:34Z</time>
      </trkpt>
      <trkpt lat="45.85862" lon="2.98126">
        <ele>859</ele>
        <time>2014-08-22T11:17:37Z</time>
      </trkpt>
      <trkpt lat="45.85862" lon="2.98128">
        <ele>859</ele>
        <time>2014-08-22T11:17:39Z</time>
      </trkpt>
      <trkpt lat="45.85861" lon="2.9813">
        <ele>859</ele>
        <time>2014-08-22T11:17:41Z</time>
      </trkpt>
      <trkpt lat="45.8586" lon="2.98133">
        <ele>860</ele>
        <time>2014-08-22T11:17:44Z</time>
      </trkpt>
      <trkpt lat="45.85859" lon="2.98136">
        <ele>861</ele>
        <time>2014-08-22T11:17:47Z</time>
      </trkpt>
      <trkpt lat="45.85859" lon="2.98138">
        <ele>861</ele>
        <time>2014-08-22T11:17:49Z</time>
      </trkpt>
      <trkpt lat="45.85858" lon="2.9814">
        <ele>862</ele>
        <time>2014-08-22T11:17:52Z</time>
      </trkpt>
      <trkpt lat="45.85857" lon="2.98141">
        <ele>862</ele>
        <time>2014-08-22T11:17:54Z</time>
      </trkpt>
      <trkpt lat="45.85856" lon="2.98143">
        <ele>862</ele>
        <time>2014-08-22T11:17:56Z</time>
      </trkpt>
      <trkpt lat="45.85854" lon="2.98146">
        <ele>862</ele>
        <time>2014-08-22T11:17:58Z</time>
      </trkpt>
      <trkpt lat="45.85852" lon="2.98148">
        <ele>862</ele>
        <time>2014-08-22T11:18:00Z</time>
      </trkpt>
      <trkpt lat="45.8585" lon="2.98151">
        <ele>862</ele>
        <time>2014-08-22T11:18:02Z</time>
      </trkpt>
      <trkpt lat="45.85848" lon="2.98155">
        <ele>863</ele>
        <time>2014-08-22T11:18:05Z</time>
      </trkpt>
      <trkpt lat="45.85846" lon="2.98159">
        <ele>863</ele>
        <time>2014-08-22T11:18:07Z</time>
      </trkpt>
      <trkpt lat="45.85844" lon="2.98162">
        <ele>864</ele>
        <time>2014-08-22T11:18:09Z</time>
      </trkpt>
      <trkpt lat="45.8584" lon="2.98166">
        <ele>864</ele>
        <time>2014-08-22T11:18:12Z</time>
      </trkpt>
      <trkpt lat="45.85836" lon="2.98171">
        <ele>865</ele>
        <time>2014-08-22T11:18:15Z</time>
      </trkpt>
      <trkpt lat="45.85832" lon="2.98174">
        <ele>866</ele>
        <time>2014-08-22T11:18:18Z</time>
      </trkpt>
      <trkpt lat="45.85829" lon="2.98177">
        <ele>866</ele>
        <time>2014-08-22T11:18:20Z</time>
      </trkpt>
      <trkpt lat="45.85825" lon="2.98183">
        <ele>867</ele>
        <time>2014-08-22T11:18:23Z</time>
      </trkpt>
      <trkpt lat="45.85823" lon="2.98186">
        <ele>867</ele>
        <time>2014-08-22T11:18:25Z</time>
      </trkpt>
      <trkpt lat="45.8582" lon="2.98189">
        <ele>868</ele>
        <time>2014-08-22T11:18:27Z</time>
      </trkpt>
      <trkpt lat="45.85817" lon="2.98194">
        <ele>868</ele>
        <time>2014-08-22T11:18:30Z</time>
      </trkpt>
      <trkpt lat="45.85815" lon="2.98198">
        <ele>869</ele>
        <time>2014-08-22T11:18:32Z</time>
      </trkpt>
      <trkpt lat="45.85814" lon="2.98201">
        <ele>870</ele>
        <time>2014-08-22T11:18:34Z</time>
      </trkpt>
      <trkpt lat="45.85812" lon="2.98205">
        <ele>871</ele>
        <time>2014-08-22T11:18:36Z</time>
      </trkpt>
      <trkpt lat="45.8581" lon="2.98209">
        <ele>871</ele>
        <time>2014-08-22T11:18:38Z</time>
      </trkpt>
      <trkpt lat="45.85808" lon="2.98215">
        <ele>872</ele>
        <time>2014-08-22T11:18:41Z</time>
      </trkpt>
      <trkpt lat="45.85806" lon="2.98222">
        <ele>872</ele>
        <time>2014-08-22T11:18:44Z</time>
      </trkpt>
      <trkpt lat="45.85805" lon="2.98227">
        <ele>873</ele>
        <time>2014-08-22T11:18:46Z</time>
      </trkpt>
      <trkpt lat="45.85804" lon="2.98237">
        <ele>873</ele>
        <time>2014-08-22T11:18:49Z</time>
      </trkpt>
      <trkpt lat="45.85803" lon="2.98243">
        <ele>873</ele>
        <time>2014-08-22T11:18:51Z</time>
      </trkpt>
      <trkpt lat="45.85802" lon="2.98249">
        <ele>873</ele>
        <time>2014-08-22T11:18:53Z</time>
      </trkpt>
      <trkpt lat="45.85802" lon="2.98254">
        <ele>874</ele>
        <time>2014-08-22T11:18:55Z</time>
      </trkpt>
      <trkpt lat="45.85802" lon="2.98259">
        <ele>874</ele>
        <time>2014-08-22T11:18:57Z</time>
      </trkpt>
      <trkpt lat="45.85803" lon="2.98265">
        <ele>875</ele>
        <time>2014-08-22T11:19:00Z</time>
      </trkpt>
      <trkpt lat="45.85803" lon="2.98269">
        <ele>876</ele>
        <time>2014-08-22T11:19:02Z</time>
      </trkpt>
      <trkpt lat="45.85804" lon="2.98275">
        <ele>876</ele>
        <time>2014-08-22T11:19:04Z</time>
      </trkpt>
      <trkpt lat="45.85804" lon="2.98281">
        <ele>877</ele>
        <time>2014-08-22T11:19:06Z</time>
      </trkpt>
      <trkpt lat="45.85805" lon="2.98288">
        <ele>878</ele>
        <time>2014-08-22T11:19:09Z</time>
      </trkpt>
      <trkpt lat="45.85806" lon="2.98293">
        <ele>878</ele>
        <time>2014-08-22T11:19:11Z</time>
      </trkpt>
      <trkpt lat="45.85806" lon="2.98298">
        <ele>879</ele>
        <time>2014-08-22T11:19:13Z</time>
      </trkpt>
      <trkpt lat="45.85807" lon="2.98303">
        <ele>879</ele>
        <time>2014-08-22T11:19:15Z</time>
      </trkpt>
      <trkpt lat="45.85809" lon="2.98307">
        <ele>880</ele>
        <time>2014-08-22T11:19:17Z</time>
      </trkpt>
      <trkpt lat="45.85811" lon="2.98314">
        <ele>882</ele>
        <time>2014-08-22T11:19:20Z</time>
      </trkpt>
      <trkpt lat="45.85813" lon="2.98319">
        <ele>883</ele>
        <time>2014-08-22T11:19:23Z</time>
      </trkpt>
      <trkpt lat="45.85814" lon="2.98323">
        <ele>884</ele>
        <time>2014-08-22T11:19:25Z</time>
      </trkpt>
      <trkpt lat="45.85815" lon="2.98327">
        <ele>885</ele>
        <time>2014-08-22T11:19:27Z</time>
      </trkpt>
      <trkpt lat="45.85817" lon="2.9833">
        <ele>886</ele>
        <time>2014-08-22T11:19:29Z</time>
      </trkpt>
      <trkpt lat="45.85819" lon="2.98333">
        <ele>887</ele>
        <time>2014-08-22T11:19:31Z</time>
      </trkpt>
      <trkpt lat="45.8582" lon="2.98337">
        <ele>887</ele>
        <time>2014-08-22T11:19:33Z</time>
      </trkpt>
      <trkpt lat="45.85822" lon="2.98341">
        <ele>888</ele>
        <time>2014-08-22T11:19:36Z</time>
      </trkpt>
      <trkpt lat="45.85823" lon="2.98345">
        <ele>888</ele>
        <time>2014-08-22T11:19:38Z</time>
      </trkpt>
      <trkpt lat="45.85825" lon="2.98348">
        <ele>889</ele>
        <time>2014-08-22T11:19:40Z</time>
      </trkpt>
      <trkpt lat="45.85827" lon="2.98353">
        <ele>890</ele>
        <time>2014-08-22T11:19:42Z</time>
      </trkpt>
      <trkpt lat="45.85829" lon="2.98356">
        <ele>891</ele>
        <time>2014-08-22T11:19:44Z</time>
      </trkpt>
      <trkpt lat="45.85832" lon="2.98359">
        <ele>892</ele>
        <time>2014-08-22T11:19:46Z</time>
      </trkpt>
      <trkpt lat="45.85834" lon="2.98363">
        <ele>893</ele>
        <time>2014-08-22T11:19:48Z</time>
      </trkpt>
      <trkpt lat="45.85837" lon="2.98368">
        <ele>894</ele>
        <time>2014-08-22T11:19:50Z</time>
      </trkpt>
      <trkpt lat="45.85838" lon="2.98372">
        <ele>895</ele>
        <time>2014-08-22T11:19:53Z</time>
      </trkpt>
      <trkpt lat="45.85841" lon="2.98377">
        <ele>896</ele>
        <time>2014-08-22T11:19:56Z</time>
      </trkpt>
      <trkpt lat="45.85843" lon="2.9838">
        <ele>896</ele>
        <time>2014-08-22T11:19:58Z</time>
      </trkpt>
      <trkpt lat="45.85845" lon="2.98383">
        <ele>897</ele>
        <time>2014-08-22T11:20:00Z</time>
      </trkpt>
      <trkpt lat="45.85847" lon="2.98388">
        <ele>898</ele>
        <time>2014-08-22T11:20:03Z</time>
      </trkpt>
      <trkpt lat="45.85848" lon="2.98392">
        <ele>899</ele>
        <time>2014-08-22T11:20:05Z</time>
      </trkpt>
      <trkpt lat="45.8585" lon="2.98396">
        <ele>899</ele>
        <time>2014-08-22T11:20:07Z</time>
      </trkpt>
      <trkpt lat="45.85852" lon="2.98404">
        <ele>899</ele>
        <time>2014-08-22T11:20:10Z</time>
      </trkpt>
      <trkpt lat="45.85854" lon="2.98408">
        <ele>900</ele>
        <time>2014-08-22T11:20:12Z</time>
      </trkpt>
      <trkpt lat="45.85856" lon="2.98414">
        <ele>899</ele>
        <time>2014-08-22T11:20:15Z</time>
      </trkpt>
      <trkpt lat="45.85859" lon="2.98419">
        <ele>899</ele>
        <time>2014-08-22T11:20:17Z</time>
      </trkpt>
      <trkpt lat="45.85861" lon="2.98427">
        <ele>899</ele>
        <time>2014-08-22T11:20:20Z</time>
      </trkpt>
      <trkpt lat="45.85863" lon="2.98432">
        <ele>899</ele>
        <time>2014-08-22T11:20:22Z</time>
      </trkpt>
      <trkpt lat="45.85866" lon="2.98444">
        <ele>899</ele>
        <time>2014-08-22T11:20:25Z</time>
      </trkpt>
      <trkpt lat="45.85868" lon="2.98454">
        <ele>898</ele>
        <time>2014-08-22T11:20:27Z</time>
      </trkpt>
      <trkpt lat="45.85871" lon="2.98464">
        <ele>898</ele>
        <time>2014-08-22T11:20:29Z</time>
      </trkpt>
      <trkpt lat="45.85877" lon="2.9848">
        <ele>898</ele>
        <time>2014-08-22T11:20:32Z</time>
      </trkpt>
      <trkpt lat="45.8588" lon="2.98488">
        <ele>897</ele>
        <time>2014-08-22T11:20:34Z</time>
      </trkpt>
      <trkpt lat="45.85882" lon="2.98495">
        <ele>897</ele>
        <time>2014-08-22T11:20:36Z</time>
      </trkpt>
      <trkpt lat="45.85884" lon="2.98506">
        <ele>898</ele>
        <time>2014-08-22T11:20:39Z</time>
      </trkpt>
      <trkpt lat="45.85885" lon="2.98514">
        <ele>898</ele>
        <time>2014-08-22T11:20:41Z</time>
      </trkpt>
      <trkpt lat="45.85888" lon="2.98526">
        <ele>898</ele>
        <time>2014-08-22T11:20:44Z</time>
      </trkpt>
      <trkpt lat="45.85891" lon="2.98535">
        <ele>898</ele>
        <time>2014-08-22T11:20:47Z</time>
      </trkpt>
      <trkpt lat="45.85893" lon="2.9854">
        <ele>898</ele>
        <time>2014-08-22T11:20:49Z</time>
      </trkpt>
      <trkpt lat="45.85895" lon="2.98551">
        <ele>898</ele>
        <time>2014-08-22T11:20:52Z</time>
      </trkpt>
      <trkpt lat="45.85896" lon="2.98561">
        <ele>899</ele>
        <time>2014-08-22T11:20:54Z</time>
      </trkpt>
      <trkpt lat="45.85897" lon="2.98573">
        <ele>899</ele>
        <time>2014-08-22T11:20:57Z</time>
      </trkpt>
      <trkpt lat="45.85899" lon="2.98582">
        <ele>899</ele>
        <time>2014-08-22T11:20:59Z</time>
      </trkpt>
      <trkpt lat="45.859" lon="2.98591">
        <ele>899</ele>
        <time>2014-08-22T11:21:01Z</time>
      </trkpt>
      <trkpt lat="45.85901" lon="2.98604">
        <ele>900</ele>
        <time>2014-08-22T11:21:04Z</time>
      </trkpt>
      <trkpt lat="45.85902" lon="2.98617">
        <ele>900</ele>
        <time>2014-08-22T11:21:07Z</time>
      </trkpt>
      <trkpt lat="45.85902" lon="2.98628">
        <ele>901</ele>
        <time>2014-08-22T11:21:10Z</time>
      </trkpt>
      <trkpt lat="45.85905" lon="2.98636">
        <ele>901</ele>
        <time>2014-08-22T11:21:13Z</time>
      </trkpt>
      <trkpt lat="45.85908" lon="2.98641">
        <ele>901</ele>
        <time>2014-08-22T11:21:16Z</time>
      </trkpt>
      <trkpt lat="45.85912" lon="2.98645">
        <ele>900</ele>
        <time>2014-08-22T11:21:19Z</time>
      </trkpt>
      <trkpt lat="45.85915" lon="2.9865">
        <ele>899</ele>
        <time>2014-08-22T11:21:22Z</time>
      </trkpt>
      <trkpt lat="45.85921" lon="2.9866">
        <ele>897</ele>
        <time>2014-08-22T11:21:25Z</time>
      </trkpt>
      <trkpt lat="45.85925" lon="2.98667">
        <ele>895</ele>
        <time>2014-08-22T11:21:27Z</time>
      </trkpt>
      <trkpt lat="45.8593" lon="2.98673">
        <ele>894</ele>
        <time>2014-08-22T11:21:29Z</time>
      </trkpt>
      <trkpt lat="45.85937" lon="2.98674">
        <ele>893</ele>
        <time>2014-08-22T11:21:32Z</time>
      </trkpt>
      <trkpt lat="45.85942" lon="2.98672">
        <ele>891</ele>
        <time>2014-08-22T11:21:34Z</time>
      </trkpt>
      <trkpt lat="45.85948" lon="2.98671">
        <ele>889</ele>
        <time>2014-08-22T11:21:37Z</time>
      </trkpt>
      <trkpt lat="45.85954" lon="2.98668">
        <ele>887</ele>
        <time>2014-08-22T11:21:40Z</time>
      </trkpt>
      <trkpt lat="45.85959" lon="2.98667">
        <ele>884</ele>
        <time>2014-08-22T11:21:43Z</time>
      </trkpt>
      <trkpt lat="45.85962" lon="2.98662">
        <ele>882</ele>
        <time>2014-08-22T11:21:46Z</time>
      </trkpt>
      <trkpt lat="45.85965" lon="2.98659">
        <ele>880</ele>
        <time>2014-08-22T11:21:48Z</time>
      </trkpt>
      <trkpt lat="45.85966" lon="2.98657">
        <ele>879</ele>
        <time>2014-08-22T11:21:50Z</time>
      </trkpt>
      <trkpt lat="45.8597" lon="2.98654">
        <ele>877</ele>
        <time>2014-08-22T11:21:53Z</time>
      </trkpt>
      <trkpt lat="45.85972" lon="2.98653">
        <ele>876</ele>
        <time>2014-08-22T11:21:55Z</time>
      </trkpt>
      <trkpt lat="45.85975" lon="2.98651">
        <ele>875</ele>
        <time>2014-08-22T11:21:57Z</time>
      </trkpt>
      <trkpt lat="45.85977" lon="2.98649">
        <ele>873</ele>
        <time>2014-08-22T11:22:00Z</time>
      </trkpt>
      <trkpt lat="45.8598" lon="2.98647">
        <ele>871</ele>
        <time>2014-08-22T11:22:03Z</time>
      </trkpt>
      <trkpt lat="45.85982" lon="2.98645">
        <ele>870</ele>
        <time>2014-08-22T11:22:05Z</time>
      </trkpt>
      <trkpt lat="45.85987" lon="2.98639">
        <ele>868</ele>
        <time>2014-08-22T11:22:08Z</time>
      </trkpt>
      <trkpt lat="45.85992" lon="2.98635">
        <ele>866</ele>
        <time>2014-08-22T11:22:11Z</time>
      </trkpt>
      <trkpt lat="45.85997" lon="2.98632">
        <ele>864</ele>
        <time>2014-08-22T11:22:13Z</time>
      </trkpt>
      <trkpt lat="45.86002" lon="2.98627">
        <ele>862</ele>
        <time>2014-08-22T11:22:15Z</time>
      </trkpt>
      <trkpt lat="45.86008" lon="2.98621">
        <ele>860</ele>
        <time>2014-08-22T11:22:18Z</time>
      </trkpt>
      <trkpt lat="45.8601" lon="2.98616">
        <ele>859</ele>
        <time>2014-08-22T11:22:20Z</time>
      </trkpt>
      <trkpt lat="45.86011" lon="2.9861">
        <ele>858</ele>
        <time>2014-08-22T11:22:22Z</time>
      </trkpt>
      <trkpt lat="45.86013" lon="2.98596">
        <ele>857</ele>
        <time>2014-08-22T11:22:26Z</time>
      </trkpt>
      <trkpt lat="45.86017" lon="2.98587">
        <ele>856</ele>
        <time>2014-08-22T11:22:29Z</time>
      </trkpt>
      <trkpt lat="45.86021" lon="2.98581">
        <ele>856</ele>
        <time>2014-08-22T11:22:31Z</time>
      </trkpt>
      <trkpt lat="45.86026" lon="2.98575">
        <ele>855</ele>
        <time>2014-08-22T11:22:33Z</time>
      </trkpt>
      <trkpt lat="45.86034" lon="2.98567">
        <ele>855</ele>
        <time>2014-08-22T11:22:36Z</time>
      </trkpt>
      <trkpt lat="45.86039" lon="2.98563">
        <ele>856</ele>
        <time>2014-08-22T11:22:38Z</time>
      </trkpt>
      <trkpt lat="45.86045" lon="2.98559">
        <ele>856</ele>
        <time>2014-08-22T11:22:40Z</time>
      </trkpt>
      <trkpt lat="45.86049" lon="2.98556">
        <ele>856</ele>
        <time>2014-08-22T11:22:42Z</time>
      </trkpt>
      <trkpt lat="45.86053" lon="2.98555">
        <ele>857</ele>
        <time>2014-08-22T11:22:44Z</time>
      </trkpt>
      <trkpt lat="45.86055" lon="2.98554">
        <ele>856</ele>
        <time>2014-08-22T11:22:46Z</time>
      </trkpt>
      <trkpt lat="45.86058" lon="2.98554">
        <ele>856</ele>
        <time>2014-08-22T11:22:48Z</time>
      </trkpt>
      <trkpt lat="45.86064" lon="2.98554">
        <ele>855</ele>
        <time>2014-08-22T11:22:51Z</time>
      </trkpt>
      <trkpt lat="45.8607" lon="2.98554">
        <ele>855</ele>
        <time>2014-08-22T11:22:54Z</time>
      </trkpt>
      <trkpt lat="45.86074" lon="2.98553">
        <ele>856</ele>
        <time>2014-08-22T11:22:56Z</time>
      </trkpt>
      <trkpt lat="45.86077" lon="2.98552">
        <ele>856</ele>
        <time>2014-08-22T11:22:58Z</time>
      </trkpt>
      <trkpt lat="45.86083" lon="2.98553">
        <ele>856</ele>
        <time>2014-08-22T11:23:01Z</time>
      </trkpt>
      <trkpt lat="45.8609" lon="2.98551">
        <ele>857</ele>
        <time>2014-08-22T11:23:04Z</time>
      </trkpt>
      <trkpt lat="45.86094" lon="2.98551">
        <ele>858</ele>
        <time>2014-08-22T11:23:06Z</time>
      </trkpt>
      <trkpt lat="45.86098" lon="2.98551">
        <ele>859</ele>
        <time>2014-08-22T11:23:08Z</time>
      </trkpt>
      <trkpt lat="45.86102" lon="2.98552">
        <ele>859</ele>
        <time>2014-08-22T11:23:10Z</time>
      </trkpt>
      <trkpt lat="45.86106" lon="2.98555">
        <ele>859</ele>
        <time>2014-08-22T11:23:12Z</time>
      </trkpt>
      <trkpt lat="45.8611" lon="2.98556">
        <ele>859</ele>
        <time>2014-08-22T11:23:14Z</time>
      </trkpt>
      <trkpt lat="45.86113" lon="2.98557">
        <ele>859</ele>
        <time>2014-08-22T11:23:16Z</time>
      </trkpt>
      <trkpt lat="45.86117" lon="2.98558">
        <ele>859</ele>
        <time>2014-08-22T11:23:18Z</time>
      </trkpt>
      <trkpt lat="45.86122" lon="2.98559">
        <ele>859</ele>
        <time>2014-08-22T11:23:20Z</time>
      </trkpt>
      <trkpt lat="45.86129" lon="2.98561">
        <ele>859</ele>
        <time>2014-08-22T11:23:23Z</time>
      </trkpt>
      <trkpt lat="45.86133" lon="2.98561">
        <ele>859</ele>
        <time>2014-08-22T11:23:25Z</time>
      </trkpt>
      <trkpt lat="45.8614" lon="2.98563">
        <ele>859</ele>
        <time>2014-08-22T11:23:28Z</time>
      </trkpt>
      <trkpt lat="45.86145" lon="2.98565">
        <ele>859</ele>
        <time>2014-08-22T11:23:31Z</time>
      </trkpt>
      <trkpt lat="45.86148" lon="2.98565">
        <ele>859</ele>
        <time>2014-08-22T11:23:33Z</time>
      </trkpt>
      <trkpt lat="45.86154" lon="2.98568">
        <ele>859</ele>
        <time>2014-08-22T11:23:36Z</time>
      </trkpt>
      <trkpt lat="45.86157" lon="2.98572">
        <ele>860</ele>
        <time>2014-08-22T11:23:38Z</time>
      </trkpt>
      <trkpt lat="45.8616" lon="2.98576">
        <ele>860</ele>
        <time>2014-08-22T11:23:40Z</time>
      </trkpt>
      <trkpt lat="45.86162" lon="2.9858">
        <ele>860</ele>
        <time>2014-08-22T11:23:42Z</time>
      </trkpt>
      <trkpt lat="45.86164" lon="2.98582">
        <ele>861</ele>
        <time>2014-08-22T11:23:44Z</time>
      </trkpt>
      <trkpt lat="45.86168" lon="2.98585">
        <ele>861</ele>
        <time>2014-08-22T11:23:47Z</time>
      </trkpt>
      <trkpt lat="45.86171" lon="2.98586">
        <ele>862</ele>
        <time>2014-08-22T11:23:50Z</time>
      </trkpt>
      <trkpt lat="45.86172" lon="2.98589">
        <ele>862</ele>
        <time>2014-08-22T11:23:53Z</time>
      </trkpt>
      <trkpt lat="45.86173" lon="2.98591">
        <ele>862</ele>
        <time>2014-08-22T11:23:55Z</time>
      </trkpt>
      <trkpt lat="45.86175" lon="2.98593">
        <ele>862</ele>
        <time>2014-08-22T11:23:57Z</time>
      </trkpt>
      <trkpt lat="45.86176" lon="2.98597">
        <ele>862</ele>
        <time>2014-08-22T11:23:59Z</time>
      </trkpt>
      <trkpt lat="45.86179" lon="2.98603">
        <ele>863</ele>
        <time>2014-08-22T11:24:02Z</time>
      </trkpt>
      <trkpt lat="45.86183" lon="2.98607">
        <ele>863</ele>
        <time>2014-08-22T11:24:05Z</time>
      </trkpt>
      <trkpt lat="45.86187" lon="2.98612">
        <ele>863</ele>
        <time>2014-08-22T11:24:08Z</time>
      </trkpt>
      <trkpt lat="45.86192" lon="2.98616">
        <ele>864</ele>
        <time>2014-08-22T11:24:11Z</time>
      </trkpt>
      <trkpt lat="45.86197" lon="2.98619">
        <ele>865</ele>
        <time>2014-08-22T11:24:14Z</time>
      </trkpt>
      <trkpt lat="45.862" lon="2.98622">
        <ele>865</ele>
        <time>2014-08-22T11:24:17Z</time>
      </trkpt>
      <trkpt lat="45.86205" lon="2.98625">
        <ele>866</ele>
        <time>2014-08-22T11:24:20Z</time>
      </trkpt>
      <trkpt lat="45.86208" lon="2.98627">
        <ele>867</ele>
        <time>2014-08-22T11:24:22Z</time>
      </trkpt>
      <trkpt lat="45.86211" lon="2.9863">
        <ele>867</ele>
        <time>2014-08-22T11:24:24Z</time>
      </trkpt>
      <trkpt lat="45.86213" lon="2.98632">
        <ele>867</ele>
        <time>2014-08-22T11:24:26Z</time>
      </trkpt>
      <trkpt lat="45.86214" lon="2.98634">
        <ele>868</ele>
        <time>2014-08-22T11:24:28Z</time>
      </trkpt>
      <trkpt lat="45.86216" lon="2.98637">
        <ele>868</ele>
        <time>2014-08-22T11:24:30Z</time>
      </trkpt>
      <trkpt lat="45.86219" lon="2.9864">
        <ele>868</ele>
        <time>2014-08-22T11:24:33Z</time>
      </trkpt>
      <trkpt lat="45.86222" lon="2.98643">
        <ele>868</ele>
        <time>2014-08-22T11:24:35Z</time>
      </trkpt>
      <trkpt lat="45.86226" lon="2.98645">
        <ele>868</ele>
        <time>2014-08-22T11:24:37Z</time>
      </trkpt>
      <trkpt lat="45.86232" lon="2.98649">
        <ele>866</ele>
        <time>2014-08-22T11:24:40Z</time>
      </trkpt>
      <trkpt lat="45.86236" lon="2.98656">
        <ele>864</ele>
        <time>2014-08-22T11:24:43Z</time>
      </trkpt>
      <trkpt lat="45.86238" lon="2.98659">
        <ele>863</ele>
        <time>2014-08-22T11:24:45Z</time>
      </trkpt>
      <trkpt lat="45.8624" lon="2.98663">
        <ele>861</ele>
        <time>2014-08-22T11:24:48Z</time>
      </trkpt>
      <trkpt lat="45.86242" lon="2.98665">
        <ele>860</ele>
        <time>2014-08-22T11:24:50Z</time>
      </trkpt>
      <trkpt lat="45.86246" lon="2.98667">
        <ele>858</ele>
        <time>2014-08-22T11:24:53Z</time>
      </trkpt>
      <trkpt lat="45.86251" lon="2.98667">
        <ele>856</ele>
        <time>2014-08-22T11:24:56Z</time>
      </trkpt>
      <trkpt lat="45.86258" lon="2.98667">
        <ele>854</ele>
        <time>2014-08-22T11:24:59Z</time>
      </trkpt>
      <trkpt lat="45.86262" lon="2.98668">
        <ele>852</ele>
        <time>2014-08-22T11:25:01Z</time>
      </trkpt>
      <trkpt lat="45.86266" lon="2.98668">
        <ele>850</ele>
        <time>2014-08-22T11:25:03Z</time>
      </trkpt>
      <trkpt lat="45.86273" lon="2.98668">
        <ele>848</ele>
        <time>2014-08-22T11:25:06Z</time>
      </trkpt>
      <trkpt lat="45.86278" lon="2.98669">
        <ele>845</ele>
        <time>2014-08-22T11:25:09Z</time>
      </trkpt>
      <trkpt lat="45.86281" lon="2.9867">
        <ele>844</ele>
        <time>2014-08-22T11:25:11Z</time>
      </trkpt>
      <trkpt lat="45.86284" lon="2.98671">
        <ele>842</ele>
        <time>2014-08-22T11:25:13Z</time>
      </trkpt>
      <trkpt lat="45.86288" lon="2.98674">
        <ele>840</ele>
        <time>2014-08-22T11:25:16Z</time>
      </trkpt>
      <trkpt lat="45.86292" lon="2.98674">
        <ele>838</ele>
        <time>2014-08-22T11:25:18Z</time>
      </trkpt>
      <trkpt lat="45.86297" lon="2.98675">
        <ele>836</ele>
        <time>2014-08-22T11:25:21Z</time>
      </trkpt>
      <trkpt lat="45.86301" lon="2.98676">
        <ele>834</ele>
        <time>2014-08-22T11:25:23Z</time>
      </trkpt>
      <trkpt lat="45.86306" lon="2.98675">
        <ele>832</ele>
        <time>2014-08-22T11:25:25Z</time>
      </trkpt>
      <trkpt lat="45.86311" lon="2.98675">
        <ele>830</ele>
        <time>2014-08-22T11:25:27Z</time>
      </trkpt>
      <trkpt lat="45.86319" lon="2.98676">
        <ele>828</ele>
        <time>2014-08-22T11:25:30Z</time>
      </trkpt>
      <trkpt lat="45.86327" lon="2.98676">
        <ele>825</ele>
        <time>2014-08-22T11:25:33Z</time>
      </trkpt>
      <trkpt lat="45.86334" lon="2.98674">
        <ele>822</ele>
        <time>2014-08-22T11:25:35Z</time>
      </trkpt>
      <trkpt lat="45.86343" lon="2.98673">
        <ele>820</ele>
        <time>2014-08-22T11:25:37Z</time>
      </trkpt>
      <trkpt lat="45.86362" lon="2.98667">
        <ele>816</ele>
        <time>2014-08-22T11:25:40Z</time>
      </trkpt>
      <trkpt lat="45.86382" lon="2.98656">
        <ele>813</ele>
        <time>2014-08-22T11:25:43Z</time>
      </trkpt>
      <trkpt lat="45.86395" lon="2.9865">
        <ele>810</ele>
        <time>2014-08-22T11:25:46Z</time>
      </trkpt>
      <trkpt lat="45.86403" lon="2.98648">
        <ele>809</ele>
        <time>2014-08-22T11:25:49Z</time>
      </trkpt>
      <trkpt lat="45.86411" lon="2.98647">
        <ele>808</ele>
        <time>2014-08-22T11:25:52Z</time>
      </trkpt>
      <trkpt lat="45.86415" lon="2.98644">
        <ele>808</ele>
        <time>2014-08-22T11:25:55Z</time>
      </trkpt>
      <trkpt lat="45.86419" lon="2.98641">
        <ele>807</ele>
        <time>2014-08-22T11:25:58Z</time>
      </trkpt>
      <trkpt lat="45.86428" lon="2.98639">
        <ele>806</ele>
        <time>2014-08-22T11:26:01Z</time>
      </trkpt>
      <trkpt lat="45.86435" lon="2.98637">
        <ele>805</ele>
        <time>2014-08-22T11:26:03Z</time>
      </trkpt>
      <trkpt lat="45.86447" lon="2.98637">
        <ele>804</ele>
        <time>2014-08-22T11:26:06Z</time>
      </trkpt>
      <trkpt lat="45.86465" lon="2.98643">
        <ele>803</ele>
        <time>2014-08-22T11:26:09Z</time>
      </trkpt>
      <trkpt lat="45.86481" lon="2.98645">
        <ele>801</ele>
        <time>2014-08-22T11:26:12Z</time>
      </trkpt>
      <trkpt lat="45.86494" lon="2.98649">
        <ele>799</ele>
        <time>2014-08-22T11:26:15Z</time>
      </trkpt>
      <trkpt lat="45.86508" lon="2.98651">
        <ele>797</ele>
        <time>2014-08-22T11:26:18Z</time>
      </trkpt>
      <trkpt lat="45.86517" lon="2.98653">
        <ele>796</ele>
        <time>2014-08-22T11:26:20Z</time>
      </trkpt>
      <trkpt lat="45.8653" lon="2.98655">
        <ele>794</ele>
        <time>2014-08-22T11:26:23Z</time>
      </trkpt>
      <trkpt lat="45.86543" lon="2.98657">
        <ele>790</ele>
        <time>2014-08-22T11:26:26Z</time>
      </trkpt>
      <trkpt lat="45.8655" lon="2.98658">
        <ele>789</ele>
        <time>2014-08-22T11:26:28Z</time>
      </trkpt>
      <trkpt lat="45.86557" lon="2.98658">
        <ele>787</ele>
        <time>2014-08-22T11:26:30Z</time>
      </trkpt>
      <trkpt lat="45.86565" lon="2.98657">
        <ele>785</ele>
        <time>2014-08-22T11:26:32Z</time>
      </trkpt>
      <trkpt lat="45.86573" lon="2.98655">
        <ele>782</ele>
        <time>2014-08-22T11:26:34Z</time>
      </trkpt>
      <trkpt lat="45.86584" lon="2.98653">
        <ele>780</ele>
        <time>2014-08-22T11:26:36Z</time>
      </trkpt>
      <trkpt lat="45.86606" lon="2.98647">
        <ele>777</ele>
        <time>2014-08-22T11:26:39Z</time>
      </trkpt>
      <trkpt lat="45.86624" lon="2.98637">
        <ele>773</ele>
        <time>2014-08-22T11:26:42Z</time>
      </trkpt>
      <trkpt lat="45.86634" lon="2.98629">
        <ele>771</ele>
        <time>2014-08-22T11:26:44Z</time>
      </trkpt>
      <trkpt lat="45.86645" lon="2.98618">
        <ele>769</ele>
        <time>2014-08-22T11:26:46Z</time>
      </trkpt>
      <trkpt lat="45.86658" lon="2.98605">
        <ele>767</ele>
        <time>2014-08-22T11:26:48Z</time>
      </trkpt>
      <trkpt lat="45.8667" lon="2.98591">
        <ele>766</ele>
        <time>2014-08-22T11:26:50Z</time>
      </trkpt>
      <trkpt lat="45.8669" lon="2.98574">
        <ele>764</ele>
        <time>2014-08-22T11:26:53Z</time>
      </trkpt>
      <trkpt lat="45.86703" lon="2.98563">
        <ele>762</ele>
        <time>2014-08-22T11:26:56Z</time>
      </trkpt>
      <trkpt lat="45.86711" lon="2.9855">
        <ele>760</ele>
        <time>2014-08-22T11:26:59Z</time>
      </trkpt>
      <trkpt lat="45.86726" lon="2.98529">
        <ele>758</ele>
        <time>2014-08-22T11:27:02Z</time>
      </trkpt>
      <trkpt lat="45.86738" lon="2.98505">
        <ele>756</ele>
        <time>2014-08-22T11:27:05Z</time>
      </trkpt>
      <trkpt lat="45.86745" lon="2.98488">
        <ele>756</ele>
        <time>2014-08-22T11:27:07Z</time>
      </trkpt>
      <trkpt lat="45.86754" lon="2.98463">
        <ele>756</ele>
        <time>2014-08-22T11:27:10Z</time>
      </trkpt>
      <trkpt lat="45.86759" lon="2.98446">
        <ele>755</ele>
        <time>2014-08-22T11:27:12Z</time>
      </trkpt>
      <trkpt lat="45.86764" lon="2.98431">
        <ele>755</ele>
        <time>2014-08-22T11:27:14Z</time>
      </trkpt>
      <trkpt lat="45.86768" lon="2.98422">
        <ele>754</ele>
        <time>2014-08-22T11:27:16Z</time>
      </trkpt>
      <trkpt lat="45.86774" lon="2.98413">
        <ele>754</ele>
        <time>2014-08-22T11:27:19Z</time>
      </trkpt>
      <trkpt lat="45.86781" lon="2.98404">
        <ele>754</ele>
        <time>2014-08-22T11:27:22Z</time>
      </trkpt>
      <trkpt lat="45.86785" lon="2.98395">
        <ele>754</ele>
        <time>2014-08-22T11:27:24Z</time>
      </trkpt>
      <trkpt lat="45.86791" lon="2.98384">
        <ele>753</ele>
        <time>2014-08-22T11:27:27Z</time>
      </trkpt>
      <trkpt lat="45.86795" lon="2.98377">
        <ele>753</ele>
        <time>2014-08-22T11:27:30Z</time>
      </trkpt>
      <trkpt lat="45.86798" lon="2.98372">
        <ele>753</ele>
        <time>2014-08-22T11:27:33Z</time>
      </trkpt>
      <trkpt lat="45.86802" lon="2.98368">
        <ele>753</ele>
        <time>2014-08-22T11:27:35Z</time>
      </trkpt>
      <trkpt lat="45.86808" lon="2.98363">
        <ele>753</ele>
        <time>2014-08-22T11:27:37Z</time>
      </trkpt>
      <trkpt lat="45.86816" lon="2.9836">
        <ele>752</ele>
        <time>2014-08-22T11:27:39Z</time>
      </trkpt>
      <trkpt lat="45.86826" lon="2.98356">
        <ele>752</ele>
        <time>2014-08-22T11:27:41Z</time>
      </trkpt>
      <trkpt lat="45.8684" lon="2.98345">
        <ele>751</ele>
        <time>2014-08-22T11:27:44Z</time>
      </trkpt>
      <trkpt lat="45.8685" lon="2.98336">
        <ele>750</ele>
        <time>2014-08-22T11:27:46Z</time>
      </trkpt>
      <trkpt lat="45.8686" lon="2.98326">
        <ele>750</ele>
        <time>2014-08-22T11:27:48Z</time>
      </trkpt>
      <trkpt lat="45.86868" lon="2.98319">
        <ele>749</ele>
        <time>2014-08-22T11:27:50Z</time>
      </trkpt>
      <trkpt lat="45.86877" lon="2.98307">
        <ele>749</ele>
        <time>2014-08-22T11:27:53Z</time>
      </trkpt>
      <trkpt lat="45.86884" lon="2.98296">
        <ele>749</ele>
        <time>2014-08-22T11:27:56Z</time>
      </trkpt>
      <trkpt lat="45.86888" lon="2.98291">
        <ele>749</ele>
        <time>2014-08-22T11:27:58Z</time>
      </trkpt>
      <trkpt lat="45.86893" lon="2.98287">
        <ele>749</ele>
        <time>2014-08-22T11:28:00Z</time>
      </trkpt>
      <trkpt lat="45.86901" lon="2.98278">
        <ele>749</ele>
        <time>2014-08-22T11:28:03Z</time>
      </trkpt>
      <trkpt lat="45.86908" lon="2.98274">
        <ele>749</ele>
        <time>2014-08-22T11:28:05Z</time>
      </trkpt>
      <trkpt lat="45.86916" lon="2.9827">
        <ele>749</ele>
        <time>2014-08-22T11:28:07Z</time>
      </trkpt>
      <trkpt lat="45.86922" lon="2.98266">
        <ele>749</ele>
        <time>2014-08-22T11:28:09Z</time>
      </trkpt>
      <trkpt lat="45.8693" lon="2.98263">
        <ele>749</ele>
        <time>2014-08-22T11:28:11Z</time>
      </trkpt>
      <trkpt lat="45.86938" lon="2.98258">
        <ele>749</ele>
        <time>2014-08-22T11:28:13Z</time>
      </trkpt>
      <trkpt lat="45.86944" lon="2.98255">
        <ele>749</ele>
        <time>2014-08-22T11:28:15Z</time>
      </trkpt>
      <trkpt lat="45.86954" lon="2.98251">
        <ele>749</ele>
        <time>2014-08-22T11:28:18Z</time>
      </trkpt>
      <trkpt lat="45.86961" lon="2.98247">
        <ele>749</ele>
        <time>2014-08-22T11:28:20Z</time>
      </trkpt>
      <trkpt lat="45.86969" lon="2.98244">
        <ele>749</ele>
        <time>2014-08-22T11:28:22Z</time>
      </trkpt>
      <trkpt lat="45.86975" lon="2.98241">
        <ele>749</ele>
        <time>2014-08-22T11:28:24Z</time>
      </trkpt>
      <trkpt lat="45.86983" lon="2.98236">
        <ele>749</ele>
        <time>2014-08-22T11:28:26Z</time>
      </trkpt>
      <trkpt lat="45.86992" lon="2.98233">
        <ele>749</ele>
        <time>2014-08-22T11:28:28Z</time>
      </trkpt>
      <trkpt lat="45.87" lon="2.9823">
        <ele>749</ele>
        <time>2014-08-22T11:28:30Z</time>
      </trkpt>
      <trkpt lat="45.8701" lon="2.98227">
        <ele>749</ele>
        <time>2014-08-22T11:28:32Z</time>
      </trkpt>
      <trkpt lat="45.87024" lon="2.98223">
        <ele>749</ele>
        <time>2014-08-22T11:28:35Z</time>
      </trkpt>
      <trkpt lat="45.87032" lon="2.98221">
        <ele>750</ele>
        <time>2014-08-22T11:28:37Z</time>
      </trkpt>
      <trkpt lat="45.87041" lon="2.98216">
        <ele>750</ele>
        <time>2014-08-22T11:28:39Z</time>
      </trkpt>
      <trkpt lat="45.87048" lon="2.98212">
        <ele>750</ele>
        <time>2014-08-22T11:28:41Z</time>
      </trkpt>
      <trkpt lat="45.87056" lon="2.98209">
        <ele>750</ele>
        <time>2014-08-22T11:28:43Z</time>
      </trkpt>
      <trkpt lat="45.87066" lon="2.98203">
        <ele>751</ele>
        <time>2014-08-22T11:28:46Z</time>
      </trkpt>
      <trkpt lat="45.87074" lon="2.98199">
        <ele>751</ele>
        <time>2014-08-22T11:28:48Z</time>
      </trkpt>
      <trkpt lat="45.87082" lon="2.98193">
        <ele>750</ele>
        <time>2014-08-22T11:28:50Z</time>
      </trkpt>
      <trkpt lat="45.87096" lon="2.98178">
        <ele>750</ele>
        <time>2014-08-22T11:28:53Z</time>
      </trkpt>
      <trkpt lat="45.8711" lon="2.98156">
        <ele>750</ele>
        <time>2014-08-22T11:28:56Z</time>
      </trkpt>
      <trkpt lat="45.87117" lon="2.98141">
        <ele>748</ele>
        <time>2014-08-22T11:28:59Z</time>
      </trkpt>
      <trkpt lat="45.87118" lon="2.98127">
        <ele>747</ele>
        <time>2014-08-22T11:29:02Z</time>
      </trkpt>
      <trkpt lat="45.87118" lon="2.9812">
        <ele>746</ele>
        <time>2014-08-22T11:29:04Z</time>
      </trkpt>
      <trkpt lat="45.87118" lon="2.98114">
        <ele>746</ele>
        <time>2014-08-22T11:29:06Z</time>
      </trkpt>
      <trkpt lat="45.87119" lon="2.98107">
        <ele>746</ele>
        <time>2014-08-22T11:29:08Z</time>
      </trkpt>
      <trkpt lat="45.87118" lon="2.98099">
        <ele>746</ele>
        <time>2014-08-22T11:29:10Z</time>
      </trkpt>
      <trkpt lat="45.87117" lon="2.98089">
        <ele>746</ele>
        <time>2014-08-22T11:29:12Z</time>
      </trkpt>
      <trkpt lat="45.87115" lon="2.98077">
        <ele>746</ele>
        <time>2014-08-22T11:29:14Z</time>
      </trkpt>
      <trkpt lat="45.87114" lon="2.9806">
        <ele>747</ele>
        <time>2014-08-22T11:29:17Z</time>
      </trkpt>
      <trkpt lat="45.87114" lon="2.98051">
        <ele>747</ele>
        <time>2014-08-22T11:29:19Z</time>
      </trkpt>
      <trkpt lat="45.87115" lon="2.98045">
        <ele>747</ele>
        <time>2014-08-22T11:29:21Z</time>
      </trkpt>
      <trkpt lat="45.87116" lon="2.9804">
        <ele>747</ele>
        <time>2014-08-22T11:29:23Z</time>
      </trkpt>
      <trkpt lat="45.87117" lon="2.98035">
        <ele>747</ele>
        <time>2014-08-22T11:29:25Z</time>
      </trkpt>
      <trkpt lat="45.87117" lon="2.98031">
        <ele>747</ele>
        <time>2014-08-22T11:29:27Z</time>
      </trkpt>
      <trkpt lat="45.87117" lon="2.98027">
        <ele>747</ele>
        <time>2014-08-22T11:29:29Z</time>
      </trkpt>
      <trkpt lat="45.87117" lon="2.98024">
        <ele>747</ele>
        <time>2014-08-22T11:29:31Z</time>
      </trkpt>
      <trkpt lat="45.87117" lon="2.98021">
        <ele>747</ele>
        <time>2014-08-22T11:29:33Z</time>
      </trkpt>
      <trkpt lat="45.87116" lon="2.98018">
        <ele>747</ele>
        <time>2014-08-22T11:29:35Z</time>
      </trkpt>
      <trkpt lat="45.87116" lon="2.98016">
        <ele>747</ele>
        <time>2014-08-22T11:29:37Z</time>
      </trkpt>
      <trkpt lat="45.87115" lon="2.98013">
        <ele>747</ele>
        <time>2014-08-22T11:29:40Z</time>
      </trkpt>
      <trkpt lat="45.87117" lon="2.98012">
        <ele>747</ele>
        <time>2014-08-22T11:29:42Z</time>
      </trkpt>
      <trkpt lat="45.87119" lon="2.98006">
        <ele>747</ele>
        <time>2014-08-22T11:29:45Z</time>
      </trkpt>
      <trkpt lat="45.87123" lon="2.98002">
        <ele>747</ele>
        <time>2014-08-22T11:29:47Z</time>
      </trkpt>
      <trkpt lat="45.87131" lon="2.97995">
        <ele>748</ele>
        <time>2014-08-22T11:29:50Z</time>
      </trkpt>
      <trkpt lat="45.87136" lon="2.97994">
        <ele>748</ele>
        <time>2014-08-22T11:29:52Z</time>
      </trkpt>
      <trkpt lat="45.87141" lon="2.97993">
        <ele>748</ele>
        <time>2014-08-22T11:29:54Z</time>
      </trkpt>
      <trkpt lat="45.87148" lon="2.97995">
        <ele>748</ele>
        <time>2014-08-22T11:29:57Z</time>
      </trkpt>
      <trkpt lat="45.87152" lon="2.97995">
        <ele>748</ele>
        <time>2014-08-22T11:29:59Z</time>
      </trkpt>
      <trkpt lat="45.87157" lon="2.97996">
        <ele>748</ele>
        <time>2014-08-22T11:30:01Z</time>
      </trkpt>
      <trkpt lat="45.87164" lon="2.97998">
        <ele>748</ele>
        <time>2014-08-22T11:30:03Z</time>
      </trkpt>
      <trkpt lat="45.8717" lon="2.98">
        <ele>748</ele>
        <time>2014-08-22T11:30:05Z</time>
      </trkpt>
      <trkpt lat="45.87175" lon="2.98001">
        <ele>749</ele>
        <time>2014-08-22T11:30:07Z</time>
      </trkpt>
      <trkpt lat="45.8718" lon="2.98">
        <ele>749</ele>
        <time>2014-08-22T11:30:09Z</time>
      </trkpt>
      <trkpt lat="45.87186" lon="2.98001">
        <ele>749</ele>
        <time>2014-08-22T11:30:11Z</time>
      </trkpt>
      <trkpt lat="45.87194" lon="2.98003">
        <ele>750</ele>
        <time>2014-08-22T11:30:13Z</time>
      </trkpt>
      <trkpt lat="45.87204" lon="2.98005">
        <ele>750</ele>
        <time>2014-08-22T11:30:15Z</time>
      </trkpt>
      <trkpt lat="45.87216" lon="2.9801">
        <ele>750</ele>
        <time>2014-08-22T11:30:18Z</time>
      </trkpt>
      <trkpt lat="45.87223" lon="2.98012">
        <ele>751</ele>
        <time>2014-08-22T11:30:20Z</time>
      </trkpt>
      <trkpt lat="45.87229" lon="2.98013">
        <ele>751</ele>
        <time>2014-08-22T11:30:22Z</time>
      </trkpt>
      <trkpt lat="45.87241" lon="2.98016">
        <ele>752</ele>
        <time>2014-08-22T11:30:25Z</time>
      </trkpt>
      <trkpt lat="45.87247" lon="2.98018">
        <ele>752</ele>
        <time>2014-08-22T11:30:27Z</time>
      </trkpt>
      <trkpt lat="45.87253" lon="2.98019">
        <ele>752</ele>
        <time>2014-08-22T11:30:29Z</time>
      </trkpt>
      <trkpt lat="45.87261" lon="2.98022">
        <ele>751</ele>
        <time>2014-08-22T11:30:31Z</time>
      </trkpt>
      <trkpt lat="45.87271" lon="2.98028">
        <ele>751</ele>
        <time>2014-08-22T11:30:34Z</time>
      </trkpt>
      <trkpt lat="45.87281" lon="2.98029">
        <ele>752</ele>
        <time>2014-08-22T11:30:37Z</time>
      </trkpt>
      <trkpt lat="45.87288" lon="2.98031">
        <ele>752</ele>
        <time>2014-08-22T11:30:39Z</time>
      </trkpt>
      <trkpt lat="45.87297" lon="2.98036">
        <ele>752</ele>
        <time>2014-08-22T11:30:42Z</time>
      </trkpt>
      <trkpt lat="45.87302" lon="2.98039">
        <ele>753</ele>
        <time>2014-08-22T11:30:44Z</time>
      </trkpt>
      <trkpt lat="45.8731" lon="2.98043">
        <ele>753</ele>
        <time>2014-08-22T11:30:46Z</time>
      </trkpt>
      <trkpt lat="45.87322" lon="2.98048">
        <ele>753</ele>
        <time>2014-08-22T11:30:49Z</time>
      </trkpt>
      <trkpt lat="45.87332" lon="2.98051">
        <ele>753</ele>
        <time>2014-08-22T11:30:51Z</time>
      </trkpt>
      <trkpt lat="45.87343" lon="2.98055">
        <ele>753</ele>
        <time>2014-08-22T11:30:54Z</time>
      </trkpt>
      <trkpt lat="45.8735" lon="2.98058">
        <ele>753</ele>
        <time>2014-08-22T11:30:56Z</time>
      </trkpt>
      <trkpt lat="45.87362" lon="2.9806">
        <ele>753</ele>
        <time>2014-08-22T11:30:59Z</time>
      </trkpt>
      <trkpt lat="45.8737" lon="2.98064">
        <ele>753</ele>
        <time>2014-08-22T11:31:01Z</time>
      </trkpt>
      <trkpt lat="45.87381" lon="2.98067">
        <ele>753</ele>
        <time>2014-08-22T11:31:04Z</time>
      </trkpt>
      <trkpt lat="45.8739" lon="2.98068">
        <ele>753</ele>
        <time>2014-08-22T11:31:06Z</time>
      </trkpt>
      <trkpt lat="45.874" lon="2.98069">
        <ele>752</ele>
        <time>2014-08-22T11:31:08Z</time>
      </trkpt>
      <trkpt lat="45.8741" lon="2.98072">
        <ele>752</ele>
        <time>2014-08-22T11:31:10Z</time>
      </trkpt>
      <trkpt lat="45.87427" lon="2.98075">
        <ele>752</ele>
        <time>2014-08-22T11:31:13Z</time>
      </trkpt>
      <trkpt lat="45.87449" lon="2.98075">
        <ele>751</ele>
        <time>2014-08-22T11:31:16Z</time>
      </trkpt>
      <trkpt lat="45.87465" lon="2.98075">
        <ele>751</ele>
        <time>2014-08-22T11:31:18Z</time>
      </trkpt>
      <trkpt lat="45.87482" lon="2.98074">
        <ele>750</ele>
        <time>2014-08-22T11:31:20Z</time>
      </trkpt>
      <trkpt lat="45.87496" lon="2.98073">
        <ele>749</ele>
        <time>2014-08-22T11:31:22Z</time>
      </trkpt>
      <trkpt lat="45.87511" lon="2.98074">
        <ele>748</ele>
        <time>2014-08-22T11:31:24Z</time>
      </trkpt>
      <trkpt lat="45.87523" lon="2.98074">
        <ele>747</ele>
        <time>2014-08-22T11:31:26Z</time>
      </trkpt>
      <trkpt lat="45.8753" lon="2.98075">
        <ele>746</ele>
        <time>2014-08-22T11:31:28Z</time>
      </trkpt>
      <trkpt lat="45.87541" lon="2.98077">
        <ele>745</ele>
        <time>2014-08-22T11:31:31Z</time>
      </trkpt>
      <trkpt lat="45.8755" lon="2.98079">
        <ele>744</ele>
        <time>2014-08-22T11:31:34Z</time>
      </trkpt>
      <trkpt lat="45.87555" lon="2.98082">
        <ele>744</ele>
        <time>2014-08-22T11:31:36Z</time>
      </trkpt>
      <trkpt lat="45.87566" lon="2.98086">
        <ele>744</ele>
        <time>2014-08-22T11:31:39Z</time>
      </trkpt>
      <trkpt lat="45.87573" lon="2.98089">
        <ele>744</ele>
        <time>2014-08-22T11:31:41Z</time>
      </trkpt>
      <trkpt lat="45.87579" lon="2.9809">
        <ele>744</ele>
        <time>2014-08-22T11:31:43Z</time>
      </trkpt>
      <trkpt lat="45.87586" lon="2.98091">
        <ele>744</ele>
        <time>2014-08-22T11:31:45Z</time>
      </trkpt>
      <trkpt lat="45.87595" lon="2.9809">
        <ele>744</ele>
        <time>2014-08-22T11:31:47Z</time>
      </trkpt>
      <trkpt lat="45.87606" lon="2.98089">
        <ele>744</ele>
        <time>2014-08-22T11:31:49Z</time>
      </trkpt>
      <trkpt lat="45.87623" lon="2.98086">
        <ele>744</ele>
        <time>2014-08-22T11:31:52Z</time>
      </trkpt>
      <trkpt lat="45.8764" lon="2.98088">
        <ele>743</ele>
        <time>2014-08-22T11:31:55Z</time>
      </trkpt>
      <trkpt lat="45.87648" lon="2.98088">
        <ele>743</ele>
        <time>2014-08-22T11:31:57Z</time>
      </trkpt>
      <trkpt lat="45.87656" lon="2.98089">
        <ele>741</ele>
        <time>2014-08-22T11:32:00Z</time>
      </trkpt>
      <trkpt lat="45.87662" lon="2.98089">
        <ele>740</ele>
        <time>2014-08-22T11:32:02Z</time>
      </trkpt>
      <trkpt lat="45.8767" lon="2.98088">
        <ele>740</ele>
        <time>2014-08-22T11:32:04Z</time>
      </trkpt>
      <trkpt lat="45.87679" lon="2.98085">
        <ele>740</ele>
        <time>2014-08-22T11:32:06Z</time>
      </trkpt>
      <trkpt lat="45.87691" lon="2.98081">
        <ele>739</ele>
        <time>2014-08-22T11:32:09Z</time>
      </trkpt>
      <trkpt lat="45.87698" lon="2.98078">
        <ele>739</ele>
        <time>2014-08-22T11:32:11Z</time>
      </trkpt>
      <trkpt lat="45.8771" lon="2.98075">
        <ele>739</ele>
        <time>2014-08-22T11:32:14Z</time>
      </trkpt>
      <trkpt lat="45.87717" lon="2.98074">
        <ele>739</ele>
        <time>2014-08-22T11:32:16Z</time>
      </trkpt>
      <trkpt lat="45.87724" lon="2.98074">
        <ele>739</ele>
        <time>2014-08-22T11:32:18Z</time>
      </trkpt>
      <trkpt lat="45.87731" lon="2.98071">
        <ele>739</ele>
        <time>2014-08-22T11:32:21Z</time>
      </trkpt>
      <trkpt lat="45.87735" lon="2.98068">
        <ele>739</ele>
        <time>2014-08-22T11:32:23Z</time>
      </trkpt>
      <trkpt lat="45.8774" lon="2.98068">
        <ele>739</ele>
        <time>2014-08-22T11:32:26Z</time>
      </trkpt>
      <trkpt lat="45.87743" lon="2.9807">
        <ele>738</ele>
        <time>2014-08-22T11:32:28Z</time>
      </trkpt>
      <trkpt lat="45.87745" lon="2.98071">
        <ele>738</ele>
        <time>2014-08-22T11:32:31Z</time>
      </trkpt>
      <trkpt lat="45.87751" lon="2.98076">
        <ele>740</ele>
        <time>2014-08-22T11:32:33Z</time>
      </trkpt>
      <trkpt lat="45.87751" lon="2.98077">
        <ele>740</ele>
        <time>2014-08-22T11:32:35Z</time>
      </trkpt>
      <trkpt lat="45.87748" lon="2.98078">
        <ele>739</ele>
        <time>2014-08-22T11:32:37Z</time>
      </trkpt>
      <trkpt lat="45.87743" lon="2.98079">
        <ele>739</ele>
        <time>2014-08-22T11:32:40Z</time>
      </trkpt>
      <trkpt lat="45.87738" lon="2.98078">
        <ele>739</ele>
        <time>2014-08-22T11:32:42Z</time>
      </trkpt>
      <trkpt lat="45.87732" lon="2.98076">
        <ele>739</ele>
        <time>2014-08-22T11:32:44Z</time>
      </trkpt>
      <trkpt lat="45.87726" lon="2.98077">
        <ele>740</ele>
        <time>2014-08-22T11:32:46Z</time>
      </trkpt>
      <trkpt lat="45.87717" lon="2.9808">
        <ele>740</ele>
        <time>2014-08-22T11:32:49Z</time>
      </trkpt>
      <trkpt lat="45.87711" lon="2.98083">
        <ele>740</ele>
        <time>2014-08-22T11:32:51Z</time>
      </trkpt>
      <trkpt lat="45.87702" lon="2.98089">
        <ele>741</ele>
        <time>2014-08-22T11:32:54Z</time>
      </trkpt>
      <trkpt lat="45.87695" lon="2.98091">
        <ele>741</ele>
        <time>2014-08-22T11:32:56Z</time>
      </trkpt>
      <trkpt lat="45.87689" lon="2.98091">
        <ele>741</ele>
        <time>2014-08-22T11:32:58Z</time>
      </trkpt>
      <trkpt lat="45.87682" lon="2.98095">
        <ele>740</ele>
        <time>2014-08-22T11:33:01Z</time>
      </trkpt>
      <trkpt lat="45.87678" lon="2.98095">
        <ele>740</ele>
        <time>2014-08-22T11:33:03Z</time>
      </trkpt>
      <trkpt lat="45.8767" lon="2.98095">
        <ele>740</ele>
        <time>2014-08-22T11:33:06Z</time>
      </trkpt>
      <trkpt lat="45.87664" lon="2.98094">
        <ele>740</ele>
        <time>2014-08-22T11:33:08Z</time>
      </trkpt>
      <trkpt lat="45.87657" lon="2.98094">
        <ele>741</ele>
        <time>2014-08-22T11:33:10Z</time>
      </trkpt>
      <trkpt lat="45.87651" lon="2.98093">
        <ele>741</ele>
        <time>2014-08-22T11:33:12Z</time>
      </trkpt>
      <trkpt lat="45.87645" lon="2.98093">
        <ele>741</ele>
        <time>2014-08-22T11:33:14Z</time>
      </trkpt>
      <trkpt lat="45.87639" lon="2.98093">
        <ele>741</ele>
        <time>2014-08-22T11:33:16Z</time>
      </trkpt>
      <trkpt lat="45.87631" lon="2.98092">
        <ele>742</ele>
        <time>2014-08-22T11:33:19Z</time>
      </trkpt>
      <trkpt lat="45.87625" lon="2.98092">
        <ele>742</ele>
        <time>2014-08-22T11:33:21Z</time>
      </trkpt>
      <trkpt lat="45.87617" lon="2.98093">
        <ele>743</ele>
        <time>2014-08-22T11:33:24Z</time>
      </trkpt>
      <trkpt lat="45.8761" lon="2.98094">
        <ele>744</ele>
        <time>2014-08-22T11:33:27Z</time>
      </trkpt>
      <trkpt lat="45.87602" lon="2.98095">
        <ele>744</ele>
        <time>2014-08-22T11:33:30Z</time>
      </trkpt>
      <trkpt lat="45.87597" lon="2.98094">
        <ele>744</ele>
        <time>2014-08-22T11:33:32Z</time>
      </trkpt>
      <trkpt lat="45.87589" lon="2.98092">
        <ele>745</ele>
        <time>2014-08-22T11:33:35Z</time>
      </trkpt>
      <trkpt lat="45.87585" lon="2.98091">
        <ele>745</ele>
        <time>2014-08-22T11:33:37Z</time>
      </trkpt>
      <trkpt lat="45.87579" lon="2.98093">
        <ele>745</ele>
        <time>2014-08-22T11:33:40Z</time>
      </trkpt>
      <trkpt lat="45.87576" lon="2.98099">
        <ele>745</ele>
        <time>2014-08-22T11:33:42Z</time>
      </trkpt>
      <trkpt lat="45.87574" lon="2.98104">
        <ele>745</ele>
        <time>2014-08-22T11:33:44Z</time>
      </trkpt>
      <trkpt lat="45.87572" lon="2.98109">
        <ele>745</ele>
        <time>2014-08-22T11:33:46Z</time>
      </trkpt>
      <trkpt lat="45.8757" lon="2.98115">
        <ele>745</ele>
        <time>2014-08-22T11:33:49Z</time>
      </trkpt>
      <trkpt lat="45.87569" lon="2.98117">
        <ele>745</ele>
        <time>2014-08-22T11:33:51Z</time>
      </trkpt>
      <trkpt lat="45.87568" lon="2.98122">
        <ele>745</ele>
        <time>2014-08-22T11:33:53Z</time>
      </trkpt>
      <trkpt lat="45.87567" lon="2.98129">
        <ele>745</ele>
        <time>2014-08-22T11:33:55Z</time>
      </trkpt>
      <trkpt lat="45.87567" lon="2.98137">
        <ele>745</ele>
        <time>2014-08-22T11:33:57Z</time>
      </trkpt>
      <trkpt lat="45.87563" lon="2.98149">
        <ele>745</ele>
        <time>2014-08-22T11:34:00Z</time>
      </trkpt>
      <trkpt lat="45.87561" lon="2.98154">
        <ele>745</ele>
        <time>2014-08-22T11:34:02Z</time>
      </trkpt>
      <trkpt lat="45.87559" lon="2.98161">
        <ele>745</ele>
        <time>2014-08-22T11:34:04Z</time>
      </trkpt>
      <trkpt lat="45.87558" lon="2.98167">
        <ele>745</ele>
        <time>2014-08-22T11:34:06Z</time>
      </trkpt>
      <trkpt lat="45.87555" lon="2.98175">
        <ele>746</ele>
        <time>2014-08-22T11:34:08Z</time>
      </trkpt>
      <trkpt lat="45.8755" lon="2.98187">
        <ele>745</ele>
        <time>2014-08-22T11:34:11Z</time>
      </trkpt>
      <trkpt lat="45.87548" lon="2.98193">
        <ele>745</ele>
        <time>2014-08-22T11:34:13Z</time>
      </trkpt>
      <trkpt lat="45.87546" lon="2.98199">
        <ele>745</ele>
        <time>2014-08-22T11:34:15Z</time>
      </trkpt>
      <trkpt lat="45.87541" lon="2.98208">
        <ele>745</ele>
        <time>2014-08-22T11:34:17Z</time>
      </trkpt>
      <trkpt lat="45.87536" lon="2.98216">
        <ele>745</ele>
        <time>2014-08-22T11:34:19Z</time>
      </trkpt>
      <trkpt lat="45.87532" lon="2.98226">
        <ele>745</ele>
        <time>2014-08-22T11:34:21Z</time>
      </trkpt>
      <trkpt lat="45.87527" lon="2.98232">
        <ele>745</ele>
        <time>2014-08-22T11:34:23Z</time>
      </trkpt>
      <trkpt lat="45.87521" lon="2.98237">
        <ele>744</ele>
        <time>2014-08-22T11:34:25Z</time>
      </trkpt>
      <trkpt lat="45.87514" lon="2.98242">
        <ele>744</ele>
        <time>2014-08-22T11:34:27Z</time>
      </trkpt>
      <trkpt lat="45.87505" lon="2.9825">
        <ele>743</ele>
        <time>2014-08-22T11:34:29Z</time>
      </trkpt>
      <trkpt lat="45.87497" lon="2.98259">
        <ele>742</ele>
        <time>2014-08-22T11:34:31Z</time>
      </trkpt>
      <trkpt lat="45.8749" lon="2.98266">
        <ele>742</ele>
        <time>2014-08-22T11:34:33Z</time>
      </trkpt>
      <trkpt lat="45.87479" lon="2.98275">
        <ele>741</ele>
        <time>2014-08-22T11:34:36Z</time>
      </trkpt>
      <trkpt lat="45.87465" lon="2.98288">
        <ele>741</ele>
        <time>2014-08-22T11:34:39Z</time>
      </trkpt>
      <trkpt lat="45.87457" lon="2.98294">
        <ele>741</ele>
        <time>2014-08-22T11:34:41Z</time>
      </trkpt>
      <trkpt lat="45.87447" lon="2.98302">
        <ele>741</ele>
        <time>2014-08-22T11:34:43Z</time>
      </trkpt>
      <trkpt lat="45.87438" lon="2.98315">
        <ele>741</ele>
        <time>2014-08-22T11:34:45Z</time>
      </trkpt>
      <trkpt lat="45.87429" lon="2.98326">
        <ele>741</ele>
        <time>2014-08-22T11:34:47Z</time>
      </trkpt>
      <trkpt lat="45.87413" lon="2.9834">
        <ele>741</ele>
        <time>2014-08-22T11:34:50Z</time>
      </trkpt>
      <trkpt lat="45.87404" lon="2.98347">
        <ele>740</ele>
        <time>2014-08-22T11:34:52Z</time>
      </trkpt>
      <trkpt lat="45.87391" lon="2.98362">
        <ele>740</ele>
        <time>2014-08-22T11:34:55Z</time>
      </trkpt>
      <trkpt lat="45.87377" lon="2.98384">
        <ele>740</ele>
        <time>2014-08-22T11:34:58Z</time>
      </trkpt>
      <trkpt lat="45.87369" lon="2.984">
        <ele>740</ele>
        <time>2014-08-22T11:35:00Z</time>
      </trkpt>
      <trkpt lat="45.8736" lon="2.98419">
        <ele>739</ele>
        <time>2014-08-22T11:35:02Z</time>
      </trkpt>
      <trkpt lat="45.87354" lon="2.98435">
        <ele>738</ele>
        <time>2014-08-22T11:35:04Z</time>
      </trkpt>
      <trkpt lat="45.8735" lon="2.98445">
        <ele>738</ele>
        <time>2014-08-22T11:35:06Z</time>
      </trkpt>
      <trkpt lat="45.8734" lon="2.98461">
        <ele>737</ele>
        <time>2014-08-22T11:35:09Z</time>
      </trkpt>
      <trkpt lat="45.87332" lon="2.98471">
        <ele>736</ele>
        <time>2014-08-22T11:35:11Z</time>
      </trkpt>
      <trkpt lat="45.87327" lon="2.98482">
        <ele>736</ele>
        <time>2014-08-22T11:35:13Z</time>
      </trkpt>
      <trkpt lat="45.87319" lon="2.98496">
        <ele>735</ele>
        <time>2014-08-22T11:35:15Z</time>
      </trkpt>
      <trkpt lat="45.8731" lon="2.98514">
        <ele>735</ele>
        <time>2014-08-22T11:35:18Z</time>
      </trkpt>
      <trkpt lat="45.87304" lon="2.98526">
        <ele>734</ele>
        <time>2014-08-22T11:35:20Z</time>
      </trkpt>
      <trkpt lat="45.87295" lon="2.98548">
        <ele>733</ele>
        <time>2014-08-22T11:35:23Z</time>
      </trkpt>
      <trkpt lat="45.87288" lon="2.98569">
        <ele>733</ele>
        <time>2014-08-22T11:35:26Z</time>
      </trkpt>
      <trkpt lat="45.87284" lon="2.98581">
        <ele>733</ele>
        <time>2014-08-22T11:35:28Z</time>
      </trkpt>
      <trkpt lat="45.87281" lon="2.98597">
        <ele>733</ele>
        <time>2014-08-22T11:35:30Z</time>
      </trkpt>
      <trkpt lat="45.87277" lon="2.98616">
        <ele>733</ele>
        <time>2014-08-22T11:35:32Z</time>
      </trkpt>
      <trkpt lat="45.87273" lon="2.98646">
        <ele>732</ele>
        <time>2014-08-22T11:35:35Z</time>
      </trkpt>
      <trkpt lat="45.87273" lon="2.98676">
        <ele>732</ele>
        <time>2014-08-22T11:35:38Z</time>
      </trkpt>
      <trkpt lat="45.87274" lon="2.98706">
        <ele>732</ele>
        <time>2014-08-22T11:35:41Z</time>
      </trkpt>
      <trkpt lat="45.87273" lon="2.98731">
        <ele>730</ele>
        <time>2014-08-22T11:35:44Z</time>
      </trkpt>
      <trkpt lat="45.87273" lon="2.98745">
        <ele>730</ele>
        <time>2014-08-22T11:35:46Z</time>
      </trkpt>
      <trkpt lat="45.8727" lon="2.98759">
        <ele>730</ele>
        <time>2014-08-22T11:35:48Z</time>
      </trkpt>
      <trkpt lat="45.87268" lon="2.98778">
        <ele>730</ele>
        <time>2014-08-22T11:35:51Z</time>
      </trkpt>
      <trkpt lat="45.87265" lon="2.98792">
        <ele>730</ele>
        <time>2014-08-22T11:35:53Z</time>
      </trkpt>
      <trkpt lat="45.87262" lon="2.98804">
        <ele>730</ele>
        <time>2014-08-22T11:35:55Z</time>
      </trkpt>
      <trkpt lat="45.87259" lon="2.98823">
        <ele>729</ele>
        <time>2014-08-22T11:35:58Z</time>
      </trkpt>
      <trkpt lat="45.87257" lon="2.98842">
        <ele>729</ele>
        <time>2014-08-22T11:36:01Z</time>
      </trkpt>
      <trkpt lat="45.87256" lon="2.98862">
        <ele>729</ele>
        <time>2014-08-22T11:36:04Z</time>
      </trkpt>
      <trkpt lat="45.87256" lon="2.98881">
        <ele>729</ele>
        <time>2014-08-22T11:36:07Z</time>
      </trkpt>
      <trkpt lat="45.87256" lon="2.98902">
        <ele>729</ele>
        <time>2014-08-22T11:36:10Z</time>
      </trkpt>
      <trkpt lat="45.87258" lon="2.98917">
        <ele>729</ele>
        <time>2014-08-22T11:36:12Z</time>
      </trkpt>
      <trkpt lat="45.87262" lon="2.98942">
        <ele>728</ele>
        <time>2014-08-22T11:36:15Z</time>
      </trkpt>
      <trkpt lat="45.87265" lon="2.98959">
        <ele>728</ele>
        <time>2014-08-22T11:36:17Z</time>
      </trkpt>
      <trkpt lat="45.87268" lon="2.9898">
        <ele>727</ele>
        <time>2014-08-22T11:36:20Z</time>
      </trkpt>
      <trkpt lat="45.87265" lon="2.98997">
        <ele>728</ele>
        <time>2014-08-22T11:36:23Z</time>
      </trkpt>
      <trkpt lat="45.87261" lon="2.99006">
        <ele>727</ele>
        <time>2014-08-22T11:36:25Z</time>
      </trkpt>
      <trkpt lat="45.87253" lon="2.99006">
        <ele>727</ele>
        <time>2014-08-22T11:36:28Z</time>
      </trkpt>
      <trkpt lat="45.87247" lon="2.99002">
        <ele>726</ele>
        <time>2014-08-22T11:36:30Z</time>
      </trkpt>
      <trkpt lat="45.87237" lon="2.98996">
        <ele>727</ele>
        <time>2014-08-22T11:36:33Z</time>
      </trkpt>
      <trkpt lat="45.8723" lon="2.98995">
        <ele>727</ele>
        <time>2014-08-22T11:36:36Z</time>
      </trkpt>
      <trkpt lat="45.87222" lon="2.99001">
        <ele>728</ele>
        <time>2014-08-22T11:36:39Z</time>
      </trkpt>
      <trkpt lat="45.87211" lon="2.99012">
        <ele>728</ele>
        <time>2014-08-22T11:36:42Z</time>
      </trkpt>
      <trkpt lat="45.87199" lon="2.99023">
        <ele>729</ele>
        <time>2014-08-22T11:36:45Z</time>
      </trkpt>
      <trkpt lat="45.87189" lon="2.99032">
        <ele>729</ele>
        <time>2014-08-22T11:36:48Z</time>
      </trkpt>
      <trkpt lat="45.87181" lon="2.9904">
        <ele>731</ele>
        <time>2014-08-22T11:36:51Z</time>
      </trkpt>
      <trkpt lat="45.87175" lon="2.99046">
        <ele>732</ele>
        <time>2014-08-22T11:36:54Z</time>
      </trkpt>
      <trkpt lat="45.8717" lon="2.9905">
        <ele>733</ele>
        <time>2014-08-22T11:36:56Z</time>
      </trkpt>
      <trkpt lat="45.87166" lon="2.99056">
        <ele>733</ele>
        <time>2014-08-22T11:36:58Z</time>
      </trkpt>
      <trkpt lat="45.8716" lon="2.99063">
        <ele>734</ele>
        <time>2014-08-22T11:37:00Z</time>
      </trkpt>
      <trkpt lat="45.87151" lon="2.99078">
        <ele>734</ele>
        <time>2014-08-22T11:37:03Z</time>
      </trkpt>
      <trkpt lat="45.87141" lon="2.99094">
        <ele>734</ele>
        <time>2014-08-22T11:37:06Z</time>
      </trkpt>
      <trkpt lat="45.87133" lon="2.99104">
        <ele>734</ele>
        <time>2014-08-22T11:37:08Z</time>
      </trkpt>
      <trkpt lat="45.87123" lon="2.99124">
        <ele>733</ele>
        <time>2014-08-22T11:37:11Z</time>
      </trkpt>
      <trkpt lat="45.87119" lon="2.99137">
        <ele>733</ele>
        <time>2014-08-22T11:37:13Z</time>
      </trkpt>
      <trkpt lat="45.87114" lon="2.99157">
        <ele>734</ele>
        <time>2014-08-22T11:37:16Z</time>
      </trkpt>
      <trkpt lat="45.87118" lon="2.99174">
        <ele>734</ele>
        <time>2014-08-22T11:37:19Z</time>
      </trkpt>
      <trkpt lat="45.87123" lon="2.99195">
        <ele>734</ele>
        <time>2014-08-22T11:37:22Z</time>
      </trkpt>
      <trkpt lat="45.87129" lon="2.99209">
        <ele>734</ele>
        <time>2014-08-22T11:37:24Z</time>
      </trkpt>
      <trkpt lat="45.87143" lon="2.99232">
        <ele>733</ele>
        <time>2014-08-22T11:37:27Z</time>
      </trkpt>
      <trkpt lat="45.87154" lon="2.99248">
        <ele>733</ele>
        <time>2014-08-22T11:37:29Z</time>
      </trkpt>
      <trkpt lat="45.87161" lon="2.99286">
        <ele>733</ele>
        <time>2014-08-22T11:37:32Z</time>
      </trkpt>
      <trkpt lat="45.87166" lon="2.99313">
        <ele>733</ele>
        <time>2014-08-22T11:37:34Z</time>
      </trkpt>
      <trkpt lat="45.87162" lon="2.99338">
        <ele>731</ele>
        <time>2014-08-22T11:37:36Z</time>
      </trkpt>
      <trkpt lat="45.87143" lon="2.99369">
        <ele>728</ele>
        <time>2014-08-22T11:37:39Z</time>
      </trkpt>
      <trkpt lat="45.87117" lon="2.99394">
        <ele>725</ele>
        <time>2014-08-22T11:37:42Z</time>
      </trkpt>
      <trkpt lat="45.87096" lon="2.99405">
        <ele>721</ele>
        <time>2014-08-22T11:37:45Z</time>
      </trkpt>
      <trkpt lat="45.87088" lon="2.99414">
        <ele>718</ele>
        <time>2014-08-22T11:37:47Z</time>
      </trkpt>
      <trkpt lat="45.8709" lon="2.99437">
        <ele>715</ele>
        <time>2014-08-22T11:37:50Z</time>
      </trkpt>
      <trkpt lat="45.87089" lon="2.99457">
        <ele>714</ele>
        <time>2014-08-22T11:37:52Z</time>
      </trkpt>
      <trkpt lat="45.87085" lon="2.9949">
        <ele>714</ele>
        <time>2014-08-22T11:37:55Z</time>
      </trkpt>
      <trkpt lat="45.87085" lon="2.99512">
        <ele>713</ele>
        <time>2014-08-22T11:37:57Z</time>
      </trkpt>
      <trkpt lat="45.87085" lon="2.99528">
        <ele>710</ele>
        <time>2014-08-22T11:38:00Z</time>
      </trkpt>
      <trkpt lat="45.87083" lon="2.99541">
        <ele>708</ele>
        <time>2014-08-22T11:38:02Z</time>
      </trkpt>
      <trkpt lat="45.87079" lon="2.9957">
        <ele>707</ele>
        <time>2014-08-22T11:38:05Z</time>
      </trkpt>
      <trkpt lat="45.87079" lon="2.99609">
        <ele>705</ele>
        <time>2014-08-22T11:38:08Z</time>
      </trkpt>
      <trkpt lat="45.87082" lon="2.99637">
        <ele>705</ele>
        <time>2014-08-22T11:38:10Z</time>
      </trkpt>
      <trkpt lat="45.8708" lon="2.99675">
        <ele>701</ele>
        <time>2014-08-22T11:38:13Z</time>
      </trkpt>
      <trkpt lat="45.87075" lon="2.99713">
        <ele>698</ele>
        <time>2014-08-22T11:38:16Z</time>
      </trkpt>
      <trkpt lat="45.87072" lon="2.99742">
        <ele>696</ele>
        <time>2014-08-22T11:38:18Z</time>
      </trkpt>
      <trkpt lat="45.8707" lon="2.9977">
        <ele>693</ele>
        <time>2014-08-22T11:38:20Z</time>
      </trkpt>
      <trkpt lat="45.87072" lon="2.99815">
        <ele>690</ele>
        <time>2014-08-22T11:38:23Z</time>
      </trkpt>
      <trkpt lat="45.87075" lon="2.99845">
        <ele>689</ele>
        <time>2014-08-22T11:38:25Z</time>
      </trkpt>
      <trkpt lat="45.87072" lon="2.99882">
        <ele>686</ele>
        <time>2014-08-22T11:38:28Z</time>
      </trkpt>
      <trkpt lat="45.87075" lon="2.99911">
        <ele>685</ele>
        <time>2014-08-22T11:38:30Z</time>
      </trkpt>
      <trkpt lat="45.87076" lon="2.99941">
        <ele>683</ele>
        <time>2014-08-22T11:38:32Z</time>
      </trkpt>
      <trkpt lat="45.87076" lon="2.99971">
        <ele>681</ele>
        <time>2014-08-22T11:38:34Z</time>
      </trkpt>
      <trkpt lat="45.87077" lon="3.00012">
        <ele>680</ele>
        <time>2014-08-22T11:38:37Z</time>
      </trkpt>
      <trkpt lat="45.87079" lon="3.00036">
        <ele>678</ele>
        <time>2014-08-22T11:38:39Z</time>
      </trkpt>
      <trkpt lat="45.87077" lon="3.00065">
        <ele>675</ele>
        <time>2014-08-22T11:38:42Z</time>
      </trkpt>
      <trkpt lat="45.87075" lon="3.00085">
        <ele>674</ele>
        <time>2014-08-22T11:38:44Z</time>
      </trkpt>
      <trkpt lat="45.87075" lon="3.00105">
        <ele>672</ele>
        <time>2014-08-22T11:38:46Z</time>
      </trkpt>
      <trkpt lat="45.87074" lon="3.00136">
        <ele>671</ele>
        <time>2014-08-22T11:38:49Z</time>
      </trkpt>
      <trkpt lat="45.87072" lon="3.00159">
        <ele>670</ele>
        <time>2014-08-22T11:38:51Z</time>
      </trkpt>
      <trkpt lat="45.87072" lon="3.00184">
        <ele>669</ele>
        <time>2014-08-22T11:38:53Z</time>
      </trkpt>
      <trkpt lat="45.87073" lon="3.00219">
        <ele>667</ele>
        <time>2014-08-22T11:38:56Z</time>
      </trkpt>
      <trkpt lat="45.87073" lon="3.00242">
        <ele>667</ele>
        <time>2014-08-22T11:38:58Z</time>
      </trkpt>
      <trkpt lat="45.87073" lon="3.00265">
        <ele>666</ele>
        <time>2014-08-22T11:39:00Z</time>
      </trkpt>
      <trkpt lat="45.87074" lon="3.00301">
        <ele>665</ele>
        <time>2014-08-22T11:39:03Z</time>
      </trkpt>
      <trkpt lat="45.87077" lon="3.00323">
        <ele>664</ele>
        <time>2014-08-22T11:39:05Z</time>
      </trkpt>
      <trkpt lat="45.87077" lon="3.00344">
        <ele>663</ele>
        <time>2014-08-22T11:39:07Z</time>
      </trkpt>
      <trkpt lat="45.87077" lon="3.00366">
        <ele>663</ele>
        <time>2014-08-22T11:39:09Z</time>
      </trkpt>
      <trkpt lat="45.87078" lon="3.004">
        <ele>662</ele>
        <time>2014-08-22T11:39:12Z</time>
      </trkpt>
      <trkpt lat="45.8708" lon="3.0043">
        <ele>661</ele>
        <time>2014-08-22T11:39:15Z</time>
      </trkpt>
      <trkpt lat="45.8708" lon="3.00448">
        <ele>660</ele>
        <time>2014-08-22T11:39:17Z</time>
      </trkpt>
      <trkpt lat="45.87082" lon="3.00479">
        <ele>659</ele>
        <time>2014-08-22T11:39:20Z</time>
      </trkpt>
      <trkpt lat="45.87084" lon="3.005">
        <ele>659</ele>
        <time>2014-08-22T11:39:22Z</time>
      </trkpt>
      <trkpt lat="45.87083" lon="3.00529">
        <ele>657</ele>
        <time>2014-08-22T11:39:25Z</time>
      </trkpt>
      <trkpt lat="45.87079" lon="3.00544">
        <ele>656</ele>
        <time>2014-08-22T11:39:27Z</time>
      </trkpt>
      <trkpt lat="45.87069" lon="3.00557">
        <ele>653</ele>
        <time>2014-08-22T11:39:30Z</time>
      </trkpt>
      <trkpt lat="45.87059" lon="3.00568">
        <ele>652</ele>
        <time>2014-08-22T11:39:32Z</time>
      </trkpt>
      <trkpt lat="45.8705" lon="3.00581">
        <ele>651</ele>
        <time>2014-08-22T11:39:34Z</time>
      </trkpt>
      <trkpt lat="45.87038" lon="3.00602">
        <ele>651</ele>
        <time>2014-08-22T11:39:37Z</time>
      </trkpt>
      <trkpt lat="45.87035" lon="3.00634">
        <ele>649</ele>
        <time>2014-08-22T11:39:40Z</time>
      </trkpt>
      <trkpt lat="45.87035" lon="3.00658">
        <ele>648</ele>
        <time>2014-08-22T11:39:42Z</time>
      </trkpt>
      <trkpt lat="45.87037" lon="3.00693">
        <ele>646</ele>
        <time>2014-08-22T11:39:45Z</time>
      </trkpt>
      <trkpt lat="45.87038" lon="3.00712">
        <ele>644</ele>
        <time>2014-08-22T11:39:47Z</time>
      </trkpt>
      <trkpt lat="45.87041" lon="3.00728">
        <ele>642</ele>
        <time>2014-08-22T11:39:49Z</time>
      </trkpt>
      <trkpt lat="45.87051" lon="3.00738">
        <ele>640</ele>
        <time>2014-08-22T11:39:51Z</time>
      </trkpt>
      <trkpt lat="45.87061" lon="3.00744">
        <ele>639</ele>
        <time>2014-08-22T11:39:53Z</time>
      </trkpt>
      <trkpt lat="45.87069" lon="3.00749">
        <ele>638</ele>
        <time>2014-08-22T11:39:55Z</time>
      </trkpt>
      <trkpt lat="45.87075" lon="3.00753">
        <ele>637</ele>
        <time>2014-08-22T11:39:58Z</time>
      </trkpt>
      <trkpt lat="45.87079" lon="3.00756">
        <ele>636</ele>
        <time>2014-08-22T11:40:00Z</time>
      </trkpt>
      <trkpt lat="45.87086" lon="3.00758">
        <ele>636</ele>
        <time>2014-08-22T11:40:03Z</time>
      </trkpt>
      <trkpt lat="45.87093" lon="3.00759">
        <ele>636</ele>
        <time>2014-08-22T11:40:05Z</time>
      </trkpt>
      <trkpt lat="45.87099" lon="3.00761">
        <ele>636</ele>
        <time>2014-08-22T11:40:07Z</time>
      </trkpt>
      <trkpt lat="45.87106" lon="3.00769">
        <ele>635</ele>
        <time>2014-08-22T11:40:09Z</time>
      </trkpt>
      <trkpt lat="45.87111" lon="3.00783">
        <ele>634</ele>
        <time>2014-08-22T11:40:11Z</time>
      </trkpt>
      <trkpt lat="45.87114" lon="3.00801">
        <ele>633</ele>
        <time>2014-08-22T11:40:13Z</time>
      </trkpt>
      <trkpt lat="45.8712" lon="3.0083">
        <ele>631</ele>
        <time>2014-08-22T11:40:16Z</time>
      </trkpt>
      <trkpt lat="45.87125" lon="3.0085">
        <ele>629</ele>
        <time>2014-08-22T11:40:18Z</time>
      </trkpt>
      <trkpt lat="45.8713" lon="3.00871">
        <ele>629</ele>
        <time>2014-08-22T11:40:20Z</time>
      </trkpt>
      <trkpt lat="45.87133" lon="3.00894">
        <ele>628</ele>
        <time>2014-08-22T11:40:22Z</time>
      </trkpt>
      <trkpt lat="45.87135" lon="3.00919">
        <ele>627</ele>
        <time>2014-08-22T11:40:24Z</time>
      </trkpt>
      <trkpt lat="45.87138" lon="3.00943">
        <ele>627</ele>
        <time>2014-08-22T11:40:26Z</time>
      </trkpt>
      <trkpt lat="45.8714" lon="3.00966">
        <ele>627</ele>
        <time>2014-08-22T11:40:28Z</time>
      </trkpt>
      <trkpt lat="45.87143" lon="3.00998">
        <ele>627</ele>
        <time>2014-08-22T11:40:31Z</time>
      </trkpt>
      <trkpt lat="45.87144" lon="3.0102">
        <ele>626</ele>
        <time>2014-08-22T11:40:33Z</time>
      </trkpt>
      <trkpt lat="45.87146" lon="3.01043">
        <ele>626</ele>
        <time>2014-08-22T11:40:35Z</time>
      </trkpt>
      <trkpt lat="45.87154" lon="3.01078">
        <ele>623</ele>
        <time>2014-08-22T11:40:38Z</time>
      </trkpt>
      <trkpt lat="45.87159" lon="3.01102">
        <ele>621</ele>
        <time>2014-08-22T11:40:40Z</time>
      </trkpt>
      <trkpt lat="45.87169" lon="3.01125">
        <ele>620</ele>
        <time>2014-08-22T11:40:42Z</time>
      </trkpt>
      <trkpt lat="45.87178" lon="3.01147">
        <ele>618</ele>
        <time>2014-08-22T11:40:44Z</time>
      </trkpt>
      <trkpt lat="45.87186" lon="3.01166">
        <ele>616</ele>
        <time>2014-08-22T11:40:46Z</time>
      </trkpt>
      <trkpt lat="45.87192" lon="3.01187">
        <ele>615</ele>
        <time>2014-08-22T11:40:48Z</time>
      </trkpt>
      <trkpt lat="45.87201" lon="3.01223">
        <ele>612</ele>
        <time>2014-08-22T11:40:51Z</time>
      </trkpt>
      <trkpt lat="45.87202" lon="3.01246">
        <ele>611</ele>
        <time>2014-08-22T11:40:53Z</time>
      </trkpt>
      <trkpt lat="45.87202" lon="3.01281">
        <ele>609</ele>
        <time>2014-08-22T11:40:56Z</time>
      </trkpt>
      <trkpt lat="45.87209" lon="3.01315">
        <ele>608</ele>
        <time>2014-08-22T11:40:59Z</time>
      </trkpt>
      <trkpt lat="45.87219" lon="3.01346">
        <ele>607</ele>
        <time>2014-08-22T11:41:02Z</time>
      </trkpt>
      <trkpt lat="45.8723" lon="3.01372">
        <ele>607</ele>
        <time>2014-08-22T11:41:05Z</time>
      </trkpt>
      <trkpt lat="45.87237" lon="3.01397">
        <ele>607</ele>
        <time>2014-08-22T11:41:08Z</time>
      </trkpt>
      <trkpt lat="45.87238" lon="3.01423">
        <ele>606</ele>
        <time>2014-08-22T11:41:11Z</time>
      </trkpt>
      <trkpt lat="45.87238" lon="3.01448">
        <ele>605</ele>
        <time>2014-08-22T11:41:14Z</time>
      </trkpt>
      <trkpt lat="45.87239" lon="3.01466">
        <ele>605</ele>
        <time>2014-08-22T11:41:16Z</time>
      </trkpt>
      <trkpt lat="45.87239" lon="3.01483">
        <ele>604</ele>
        <time>2014-08-22T11:41:18Z</time>
      </trkpt>
      <trkpt lat="45.87234" lon="3.01507">
        <ele>603</ele>
        <time>2014-08-22T11:41:21Z</time>
      </trkpt>
      <trkpt lat="45.87228" lon="3.01525">
        <ele>603</ele>
        <time>2014-08-22T11:41:23Z</time>
      </trkpt>
      <trkpt lat="45.87222" lon="3.01545">
        <ele>603</ele>
        <time>2014-08-22T11:41:26Z</time>
      </trkpt>
      <trkpt lat="45.87217" lon="3.01559">
        <ele>602</ele>
        <time>2014-08-22T11:41:28Z</time>
      </trkpt>
      <trkpt lat="45.87209" lon="3.01574">
        <ele>602</ele>
        <time>2014-08-22T11:41:30Z</time>
      </trkpt>
      <trkpt lat="45.87191" lon="3.01595">
        <ele>600</ele>
        <time>2014-08-22T11:41:33Z</time>
      </trkpt>
      <trkpt lat="45.87179" lon="3.01609">
        <ele>599</ele>
        <time>2014-08-22T11:41:35Z</time>
      </trkpt>
      <trkpt lat="45.87165" lon="3.01637">
        <ele>597</ele>
        <time>2014-08-22T11:41:38Z</time>
      </trkpt>
      <trkpt lat="45.87154" lon="3.01666">
        <ele>596</ele>
        <time>2014-08-22T11:41:41Z</time>
      </trkpt>
      <trkpt lat="45.87144" lon="3.01682">
        <ele>593</ele>
        <time>2014-08-22T11:41:44Z</time>
      </trkpt>
      <trkpt lat="45.87142" lon="3.01691">
        <ele>592</ele>
        <time>2014-08-22T11:41:46Z</time>
      </trkpt>
      <trkpt lat="45.87141" lon="3.01699">
        <ele>590</ele>
        <time>2014-08-22T11:41:48Z</time>
      </trkpt>
      <trkpt lat="45.87137" lon="3.01712">
        <ele>590</ele>
        <time>2014-08-22T11:41:51Z</time>
      </trkpt>
      <trkpt lat="45.87131" lon="3.01721">
        <ele>589</ele>
        <time>2014-08-22T11:41:53Z</time>
      </trkpt>
      <trkpt lat="45.87125" lon="3.01732">
        <ele>589</ele>
        <time>2014-08-22T11:41:55Z</time>
      </trkpt>
      <trkpt lat="45.87123" lon="3.01744">
        <ele>587</ele>
        <time>2014-08-22T11:41:57Z</time>
      </trkpt>
      <trkpt lat="45.87122" lon="3.01749">
        <ele>585</ele>
        <time>2014-08-22T11:42:00Z</time>
      </trkpt>
      <trkpt lat="45.87122" lon="3.01752">
        <ele>583</ele>
        <time>2014-08-22T11:42:03Z</time>
      </trkpt>
      <trkpt lat="45.87124" lon="3.01778">
        <ele>585</ele>
        <time>2014-08-22T11:42:06Z</time>
      </trkpt>
      <trkpt lat="45.87124" lon="3.0178">
        <ele>585</ele>
        <time>2014-08-22T11:42:08Z</time>
      </trkpt>
      <trkpt lat="45.87123" lon="3.01782">
        <ele>584</ele>
        <time>2014-08-22T11:42:10Z</time>
      </trkpt>
      <trkpt lat="45.87122" lon="3.01787">
        <ele>584</ele>
        <time>2014-08-22T11:42:12Z</time>
      </trkpt>
      <trkpt lat="45.8712" lon="3.01799">
        <ele>584</ele>
        <time>2014-08-22T11:42:15Z</time>
      </trkpt>
      <trkpt lat="45.87118" lon="3.01809">
        <ele>584</ele>
        <time>2014-08-22T11:42:17Z</time>
      </trkpt>
      <trkpt lat="45.87117" lon="3.01819">
        <ele>585</ele>
        <time>2014-08-22T11:42:19Z</time>
      </trkpt>
      <trkpt lat="45.87117" lon="3.01839">
        <ele>584</ele>
        <time>2014-08-22T11:42:22Z</time>
      </trkpt>
      <trkpt lat="45.87117" lon="3.01853">
        <ele>583</ele>
        <time>2014-08-22T11:42:24Z</time>
      </trkpt>
      <trkpt lat="45.87121" lon="3.01877">
        <ele>581</ele>
        <time>2014-08-22T11:42:27Z</time>
      </trkpt>
      <trkpt lat="45.87128" lon="3.01895">
        <ele>580</ele>
        <time>2014-08-22T11:42:30Z</time>
      </trkpt>
      <trkpt lat="45.87135" lon="3.01908">
        <ele>580</ele>
        <time>2014-08-22T11:42:32Z</time>
      </trkpt>
      <trkpt lat="45.87143" lon="3.0193">
        <ele>579</ele>
        <time>2014-08-22T11:42:35Z</time>
      </trkpt>
      <trkpt lat="45.87149" lon="3.01955">
        <ele>577</ele>
        <time>2014-08-22T11:42:38Z</time>
      </trkpt>
      <trkpt lat="45.87155" lon="3.0197">
        <ele>576</ele>
        <time>2014-08-22T11:42:41Z</time>
      </trkpt>
      <trkpt lat="45.87159" lon="3.01974">
        <ele>574</ele>
        <time>2014-08-22T11:42:43Z</time>
      </trkpt>
      <trkpt lat="45.87165" lon="3.01974">
        <ele>572</ele>
        <time>2014-08-22T11:42:45Z</time>
      </trkpt>
      <trkpt lat="45.8718" lon="3.01982">
        <ele>571</ele>
        <time>2014-08-22T11:42:48Z</time>
      </trkpt>
      <trkpt lat="45.87187" lon="3.01997">
        <ele>570</ele>
        <time>2014-08-22T11:42:51Z</time>
      </trkpt>
      <trkpt lat="45.87191" lon="3.0201">
        <ele>570</ele>
        <time>2014-08-22T11:42:53Z</time>
      </trkpt>
      <trkpt lat="45.87194" lon="3.02026">
        <ele>569</ele>
        <time>2014-08-22T11:42:55Z</time>
      </trkpt>
      <trkpt lat="45.87198" lon="3.02043">
        <ele>569</ele>
        <time>2014-08-22T11:42:57Z</time>
      </trkpt>
      <trkpt lat="45.87201" lon="3.02059">
        <ele>569</ele>
        <time>2014-08-22T11:42:59Z</time>
      </trkpt>
      <trkpt lat="45.87207" lon="3.02084">
        <ele>569</ele>
        <time>2014-08-22T11:43:02Z</time>
      </trkpt>
      <trkpt lat="45.87214" lon="3.0211">
        <ele>568</ele>
        <time>2014-08-22T11:43:05Z</time>
      </trkpt>
      <trkpt lat="45.87217" lon="3.02128">
        <ele>567</ele>
        <time>2014-08-22T11:43:07Z</time>
      </trkpt>
      <trkpt lat="45.8722" lon="3.02145">
        <ele>567</ele>
        <time>2014-08-22T11:43:09Z</time>
      </trkpt>
      <trkpt lat="45.87227" lon="3.02169">
        <ele>567</ele>
        <time>2014-08-22T11:43:12Z</time>
      </trkpt>
      <trkpt lat="45.87234" lon="3.02195">
        <ele>567</ele>
        <time>2014-08-22T11:43:15Z</time>
      </trkpt>
      <trkpt lat="45.87238" lon="3.02211">
        <ele>567</ele>
        <time>2014-08-22T11:43:17Z</time>
      </trkpt>
      <trkpt lat="45.87241" lon="3.02238">
        <ele>567</ele>
        <time>2014-08-22T11:43:20Z</time>
      </trkpt>
      <trkpt lat="45.87244" lon="3.02263">
        <ele>567</ele>
        <time>2014-08-22T11:43:23Z</time>
      </trkpt>
      <trkpt lat="45.87246" lon="3.02286">
        <ele>567</ele>
        <time>2014-08-22T11:43:26Z</time>
      </trkpt>
      <trkpt lat="45.87242" lon="3.02298">
        <ele>566</ele>
        <time>2014-08-22T11:43:28Z</time>
      </trkpt>
      <trkpt lat="45.87234" lon="3.02314">
        <ele>564</ele>
        <time>2014-08-22T11:43:31Z</time>
      </trkpt>
      <trkpt lat="45.87228" lon="3.02327">
        <ele>564</ele>
        <time>2014-08-22T11:43:33Z</time>
      </trkpt>
      <trkpt lat="45.87219" lon="3.02349">
        <ele>563</ele>
        <time>2014-08-22T11:43:36Z</time>
      </trkpt>
      <trkpt lat="45.87211" lon="3.02364">
        <ele>563</ele>
        <time>2014-08-22T11:43:38Z</time>
      </trkpt>
      <trkpt lat="45.87198" lon="3.02386">
        <ele>563</ele>
        <time>2014-08-22T11:43:41Z</time>
      </trkpt>
      <trkpt lat="45.87185" lon="3.02407">
        <ele>562</ele>
        <time>2014-08-22T11:43:44Z</time>
      </trkpt>
      <trkpt lat="45.8717" lon="3.02418">
        <ele>560</ele>
        <time>2014-08-22T11:43:47Z</time>
      </trkpt>
      <trkpt lat="45.87166" lon="3.02424">
        <ele>559</ele>
        <time>2014-08-22T11:43:49Z</time>
      </trkpt>
      <trkpt lat="45.87164" lon="3.02442">
        <ele>556</ele>
        <time>2014-08-22T11:43:52Z</time>
      </trkpt>
      <trkpt lat="45.87163" lon="3.02461">
        <ele>554</ele>
        <time>2014-08-22T11:43:55Z</time>
      </trkpt>
      <trkpt lat="45.87162" lon="3.02483">
        <ele>552</ele>
        <time>2014-08-22T11:43:58Z</time>
      </trkpt>
      <trkpt lat="45.8716" lon="3.02504">
        <ele>551</ele>
        <time>2014-08-22T11:44:01Z</time>
      </trkpt>
      <trkpt lat="45.87163" lon="3.02531">
        <ele>550</ele>
        <time>2014-08-22T11:44:04Z</time>
      </trkpt>
      <trkpt lat="45.87165" lon="3.02548">
        <ele>548</ele>
        <time>2014-08-22T11:44:06Z</time>
      </trkpt>
      <trkpt lat="45.87166" lon="3.02561">
        <ele>547</ele>
        <time>2014-08-22T11:44:08Z</time>
      </trkpt>
      <trkpt lat="45.87165" lon="3.02575">
        <ele>546</ele>
        <time>2014-08-22T11:44:10Z</time>
      </trkpt>
      <trkpt lat="45.87162" lon="3.0259">
        <ele>545</ele>
        <time>2014-08-22T11:44:12Z</time>
      </trkpt>
      <trkpt lat="45.8716" lon="3.02604">
        <ele>544</ele>
        <time>2014-08-22T11:44:14Z</time>
      </trkpt>
      <trkpt lat="45.87157" lon="3.02622">
        <ele>543</ele>
        <time>2014-08-22T11:44:17Z</time>
      </trkpt>
      <trkpt lat="45.87157" lon="3.02629">
        <ele>541</ele>
        <time>2014-08-22T11:44:19Z</time>
      </trkpt>
      <trkpt lat="45.87154" lon="3.02639">
        <ele>539</ele>
        <time>2014-08-22T11:44:21Z</time>
      </trkpt>
      <trkpt lat="45.87147" lon="3.02657">
        <ele>538</ele>
        <time>2014-08-22T11:44:24Z</time>
      </trkpt>
      <trkpt lat="45.87141" lon="3.02679">
        <ele>537</ele>
        <time>2014-08-22T11:44:27Z</time>
      </trkpt>
      <trkpt lat="45.87138" lon="3.02696">
        <ele>536</ele>
        <time>2014-08-22T11:44:30Z</time>
      </trkpt>
      <trkpt lat="45.87135" lon="3.0271">
        <ele>534</ele>
        <time>2014-08-22T11:44:33Z</time>
      </trkpt>
      <trkpt lat="45.87132" lon="3.02725">
        <ele>532</ele>
        <time>2014-08-22T11:44:36Z</time>
      </trkpt>
      <trkpt lat="45.87127" lon="3.02735">
        <ele>530</ele>
        <time>2014-08-22T11:44:39Z</time>
      </trkpt>
      <trkpt lat="45.87123" lon="3.0275">
        <ele>530</ele>
        <time>2014-08-22T11:44:42Z</time>
      </trkpt>
      <trkpt lat="45.8712" lon="3.02762">
        <ele>529</ele>
        <time>2014-08-22T11:44:44Z</time>
      </trkpt>
      <trkpt lat="45.87116" lon="3.02785">
        <ele>529</ele>
        <time>2014-08-22T11:44:47Z</time>
      </trkpt>
      <trkpt lat="45.87113" lon="3.02801">
        <ele>528</ele>
        <time>2014-08-22T11:44:49Z</time>
      </trkpt>
      <trkpt lat="45.87109" lon="3.02819">
        <ele>528</ele>
        <time>2014-08-22T11:44:51Z</time>
      </trkpt>
      <trkpt lat="45.87099" lon="3.02847">
        <ele>528</ele>
        <time>2014-08-22T11:44:54Z</time>
      </trkpt>
      <trkpt lat="45.87094" lon="3.02868">
        <ele>527</ele>
        <time>2014-08-22T11:44:56Z</time>
      </trkpt>
      <trkpt lat="45.87087" lon="3.02899">
        <ele>526</ele>
        <time>2014-08-22T11:44:59Z</time>
      </trkpt>
      <trkpt lat="45.87081" lon="3.0292">
        <ele>525</ele>
        <time>2014-08-22T11:45:01Z</time>
      </trkpt>
      <trkpt lat="45.87072" lon="3.02952">
        <ele>525</ele>
        <time>2014-08-22T11:45:04Z</time>
      </trkpt>
      <trkpt lat="45.87063" lon="3.02984">
        <ele>524</ele>
        <time>2014-08-22T11:45:07Z</time>
      </trkpt>
      <trkpt lat="45.87056" lon="3.03006">
        <ele>523</ele>
        <time>2014-08-22T11:45:09Z</time>
      </trkpt>
      <trkpt lat="45.87044" lon="3.03038">
        <ele>521</ele>
        <time>2014-08-22T11:45:12Z</time>
      </trkpt>
      <trkpt lat="45.87033" lon="3.03072">
        <ele>520</ele>
        <time>2014-08-22T11:45:15Z</time>
      </trkpt>
      <trkpt lat="45.87027" lon="3.03096">
        <ele>519</ele>
        <time>2014-08-22T11:45:17Z</time>
      </trkpt>
      <trkpt lat="45.87022" lon="3.03133">
        <ele>518</ele>
        <time>2014-08-22T11:45:20Z</time>
      </trkpt>
      <trkpt lat="45.87019" lon="3.03157">
        <ele>517</ele>
        <time>2014-08-22T11:45:22Z</time>
      </trkpt>
      <trkpt lat="45.87018" lon="3.0318">
        <ele>516</ele>
        <time>2014-08-22T11:45:24Z</time>
      </trkpt>
      <trkpt lat="45.87016" lon="3.03198">
        <ele>515</ele>
        <time>2014-08-22T11:45:26Z</time>
      </trkpt>
      <trkpt lat="45.87012" lon="3.03213">
        <ele>512</ele>
        <time>2014-08-22T11:45:29Z</time>
      </trkpt>
      <trkpt lat="45.87019" lon="3.03231">
        <ele>509</ele>
        <time>2014-08-22T11:45:32Z</time>
      </trkpt>
      <trkpt lat="45.87026" lon="3.03245">
        <ele>508</ele>
        <time>2014-08-22T11:45:34Z</time>
      </trkpt>
      <trkpt lat="45.87033" lon="3.03262">
        <ele>507</ele>
        <time>2014-08-22T11:45:36Z</time>
      </trkpt>
      <trkpt lat="45.87036" lon="3.03296">
        <ele>507</ele>
        <time>2014-08-22T11:45:39Z</time>
      </trkpt>
      <trkpt lat="45.8703" lon="3.03319">
        <ele>506</ele>
        <time>2014-08-22T11:45:41Z</time>
      </trkpt>
      <trkpt lat="45.87021" lon="3.03341">
        <ele>505</ele>
        <time>2014-08-22T11:45:43Z</time>
      </trkpt>
      <trkpt lat="45.87005" lon="3.03372">
        <ele>504</ele>
        <time>2014-08-22T11:45:46Z</time>
      </trkpt>
      <trkpt lat="45.86991" lon="3.03388">
        <ele>503</ele>
        <time>2014-08-22T11:45:48Z</time>
      </trkpt>
      <trkpt lat="45.86965" lon="3.03394">
        <ele>501</ele>
        <time>2014-08-22T11:45:51Z</time>
      </trkpt>
      <trkpt lat="45.86939" lon="3.03381">
        <ele>500</ele>
        <time>2014-08-22T11:45:54Z</time>
      </trkpt>
      <trkpt lat="45.86923" lon="3.03372">
        <ele>498</ele>
        <time>2014-08-22T11:45:56Z</time>
      </trkpt>
      <trkpt lat="45.86898" lon="3.03359">
        <ele>497</ele>
        <time>2014-08-22T11:45:59Z</time>
      </trkpt>
      <trkpt lat="45.86879" lon="3.03356">
        <ele>496</ele>
        <time>2014-08-22T11:46:01Z</time>
      </trkpt>
      <trkpt lat="45.86852" lon="3.03365">
        <ele>496</ele>
        <time>2014-08-22T11:46:04Z</time>
      </trkpt>
      <trkpt lat="45.8683" lon="3.03391">
        <ele>495</ele>
        <time>2014-08-22T11:46:07Z</time>
      </trkpt>
      <trkpt lat="45.86817" lon="3.03413">
        <ele>493</ele>
        <time>2014-08-22T11:46:09Z</time>
      </trkpt>
      <trkpt lat="45.86801" lon="3.0345">
        <ele>491</ele>
        <time>2014-08-22T11:46:12Z</time>
      </trkpt>
      <trkpt lat="45.86792" lon="3.03493">
        <ele>489</ele>
        <time>2014-08-22T11:46:15Z</time>
      </trkpt>
      <trkpt lat="45.86792" lon="3.03522">
        <ele>488</ele>
        <time>2014-08-22T11:46:17Z</time>
      </trkpt>
      <trkpt lat="45.86802" lon="3.03562">
        <ele>485</ele>
        <time>2014-08-22T11:46:20Z</time>
      </trkpt>
      <trkpt lat="45.86815" lon="3.03582">
        <ele>484</ele>
        <time>2014-08-22T11:46:22Z</time>
      </trkpt>
      <trkpt lat="45.86833" lon="3.036">
        <ele>483</ele>
        <time>2014-08-22T11:46:24Z</time>
      </trkpt>
      <trkpt lat="45.86862" lon="3.03612">
        <ele>481</ele>
        <time>2014-08-22T11:46:27Z</time>
      </trkpt>
      <trkpt lat="45.86883" lon="3.03614">
        <ele>480</ele>
        <time>2014-08-22T11:46:29Z</time>
      </trkpt>
      <trkpt lat="45.86904" lon="3.03616">
        <ele>480</ele>
        <time>2014-08-22T11:46:31Z</time>
      </trkpt>
      <trkpt lat="45.8693" lon="3.03632">
        <ele>478</ele>
        <time>2014-08-22T11:46:34Z</time>
      </trkpt>
      <trkpt lat="45.86941" lon="3.03653">
        <ele>477</ele>
        <time>2014-08-22T11:46:36Z</time>
      </trkpt>
      <trkpt lat="45.86959" lon="3.037">
        <ele>475</ele>
        <time>2014-08-22T11:46:40Z</time>
      </trkpt>
      <trkpt lat="45.86968" lon="3.03722">
        <ele>474</ele>
        <time>2014-08-22T11:46:42Z</time>
      </trkpt>
      <trkpt lat="45.86987" lon="3.03735">
        <ele>473</ele>
        <time>2014-08-22T11:46:45Z</time>
      </trkpt>
      <trkpt lat="45.87" lon="3.03723">
        <ele>471</ele>
        <time>2014-08-22T11:46:48Z</time>
      </trkpt>
      <trkpt lat="45.87008" lon="3.03713">
        <ele>470</ele>
        <time>2014-08-22T11:46:50Z</time>
      </trkpt>
      <trkpt lat="45.87011" lon="3.03703">
        <ele>469</ele>
        <time>2014-08-22T11:46:52Z</time>
      </trkpt>
      <trkpt lat="45.87017" lon="3.03695">
        <ele>468</ele>
        <time>2014-08-22T11:46:54Z</time>
      </trkpt>
      <trkpt lat="45.87025" lon="3.03686">
        <ele>468</ele>
        <time>2014-08-22T11:46:57Z</time>
      </trkpt>
      <trkpt lat="45.8703" lon="3.03679">
        <ele>467</ele>
        <time>2014-08-22T11:47:00Z</time>
      </trkpt>
      <trkpt lat="45.87033" lon="3.03677">
        <ele>467</ele>
        <time>2014-08-22T11:47:02Z</time>
      </trkpt>
      <trkpt lat="45.87036" lon="3.03674">
        <ele>467</ele>
        <time>2014-08-22T11:47:04Z</time>
      </trkpt>
      <trkpt lat="45.87038" lon="3.03668">
        <ele>467</ele>
        <time>2014-08-22T11:47:07Z</time>
      </trkpt>
      <trkpt lat="45.87038" lon="3.0366">
        <ele>467</ele>
        <time>2014-08-22T11:47:10Z</time>
      </trkpt>
      <trkpt lat="45.87039" lon="3.03658">
        <ele>468</ele>
        <time>2014-08-22T11:47:12Z</time>
      </trkpt>
      <trkpt lat="45.87036" lon="3.03658">
        <ele>468</ele>
        <time>2014-08-22T11:47:15Z</time>
      </trkpt>
      <trkpt lat="45.87032" lon="3.0366">
        <ele>468</ele>
        <time>2014-08-22T11:47:17Z</time>
      </trkpt>
      <trkpt lat="45.8703" lon="3.03668">
        <ele>469</ele>
        <time>2014-08-22T11:47:20Z</time>
      </trkpt>
      <trkpt lat="45.87032" lon="3.03676">
        <ele>468</ele>
        <time>2014-08-22T11:47:22Z</time>
      </trkpt>
      <trkpt lat="45.87038" lon="3.0368">
        <ele>468</ele>
        <time>2014-08-22T11:47:24Z</time>
      </trkpt>
      <trkpt lat="45.87052" lon="3.03681">
        <ele>468</ele>
        <time>2014-08-22T11:47:27Z</time>
      </trkpt>
      <trkpt lat="45.87061" lon="3.03682">
        <ele>467</ele>
        <time>2014-08-22T11:47:29Z</time>
      </trkpt>
      <trkpt lat="45.87068" lon="3.03683">
        <ele>467</ele>
        <time>2014-08-22T11:47:31Z</time>
      </trkpt>
      <trkpt lat="45.87081" lon="3.03685">
        <ele>467</ele>
        <time>2014-08-22T11:47:34Z</time>
      </trkpt>
      <trkpt lat="45.87094" lon="3.03686">
        <ele>467</ele>
        <time>2014-08-22T11:47:37Z</time>
      </trkpt>
      <trkpt lat="45.87102" lon="3.03686">
        <ele>467</ele>
        <time>2014-08-22T11:47:39Z</time>
      </trkpt>
      <trkpt lat="45.87114" lon="3.03687">
        <ele>467</ele>
        <time>2014-08-22T11:47:42Z</time>
      </trkpt>
      <trkpt lat="45.87126" lon="3.03687">
        <ele>468</ele>
        <time>2014-08-22T11:47:45Z</time>
      </trkpt>
      <trkpt lat="45.87131" lon="3.03687">
        <ele>468</ele>
        <time>2014-08-22T11:47:47Z</time>
      </trkpt>
      <trkpt lat="45.87139" lon="3.03685">
        <ele>468</ele>
        <time>2014-08-22T11:47:50Z</time>
      </trkpt>
      <trkpt lat="45.87146" lon="3.03685">
        <ele>467</ele>
        <time>2014-08-22T11:47:52Z</time>
      </trkpt>
      <trkpt lat="45.87162" lon="3.03688">
        <ele>467</ele>
        <time>2014-08-22T11:47:55Z</time>
      </trkpt>
      <trkpt lat="45.87178" lon="3.03694">
        <ele>467</ele>
        <time>2014-08-22T11:47:58Z</time>
      </trkpt>
      <trkpt lat="45.87189" lon="3.03698">
        <ele>467</ele>
        <time>2014-08-22T11:48:00Z</time>
      </trkpt>
      <trkpt lat="45.87203" lon="3.03709">
        <ele>467</ele>
        <time>2014-08-22T11:48:03Z</time>
      </trkpt>
      <trkpt lat="45.87212" lon="3.03715">
        <ele>466</ele>
        <time>2014-08-22T11:48:05Z</time>
      </trkpt>
      <trkpt lat="45.87227" lon="3.03722">
        <ele>466</ele>
        <time>2014-08-22T11:48:08Z</time>
      </trkpt>
      <trkpt lat="45.87235" lon="3.03728">
        <ele>466</ele>
        <time>2014-08-22T11:48:10Z</time>
      </trkpt>
      <trkpt lat="45.87246" lon="3.03736">
        <ele>466</ele>
        <time>2014-08-22T11:48:13Z</time>
      </trkpt>
      <trkpt lat="45.87251" lon="3.03739">
        <ele>466</ele>
        <time>2014-08-22T11:48:15Z</time>
      </trkpt>
      <trkpt lat="45.87257" lon="3.03743">
        <ele>467</ele>
        <time>2014-08-22T11:48:18Z</time>
      </trkpt>
      <trkpt lat="45.8726" lon="3.03745">
        <ele>467</ele>
        <time>2014-08-22T11:48:20Z</time>
      </trkpt>
      <trkpt lat="45.87263" lon="3.03748">
        <ele>467</ele>
        <time>2014-08-22T11:48:23Z</time>
      </trkpt>
      <trkpt lat="45.87264" lon="3.03743">
        <ele>467</ele>
        <time>2014-08-22T11:48:26Z</time>
      </trkpt>
      <trkpt lat="45.87263" lon="3.03741">
        <ele>467</ele>
        <time>2014-08-22T11:48:28Z</time>
      </trkpt>
      <trkpt lat="45.87262" lon="3.0374">
        <ele>467</ele>
        <time>2014-08-22T11:48:31Z</time>
      </trkpt>
      <trkpt lat="45.87261" lon="3.0374">
        <ele>467</ele>
        <time>2014-08-22T11:48:33Z</time>
      </trkpt>
      <trkpt lat="45.8726" lon="3.0374">
        <ele>467</ele>
        <time>2014-08-22T11:48:35Z</time>
      </trkpt>
      <trkpt lat="45.8726" lon="3.0374">
        <ele>467</ele>
        <time>2014-08-22T11:48:37Z</time>
      </trkpt>
      <trkpt lat="45.87259" lon="3.0374">
        <ele>467</ele>
        <time>2014-08-22T11:48:39Z</time>
      </trkpt>
      <trkpt lat="45.87259" lon="3.03741">
        <ele>467</ele>
        <time>2014-08-22T11:48:42Z</time>
      </trkpt>
      <trkpt lat="45.87257" lon="3.03742">
        <ele>467</ele>
        <time>2014-08-22T11:48:45Z</time>
      </trkpt>
      <trkpt lat="45.87254" lon="3.03744">
        <ele>467</ele>
        <time>2014-08-22T11:48:47Z</time>
      </trkpt>
      <trkpt lat="45.87249" lon="3.03751">
        <ele>467</ele>
        <time>2014-08-22T11:48:50Z</time>
      </trkpt>
      <trkpt lat="45.8724" lon="3.03759">
        <ele>467</ele>
        <time>2014-08-22T11:48:53Z</time>
      </trkpt>
      <trkpt lat="45.87236" lon="3.03765">
        <ele>467</ele>
        <time>2014-08-22T11:48:56Z</time>
      </trkpt>
      <trkpt lat="45.87236" lon="3.03775">
        <ele>466</ele>
        <time>2014-08-22T11:48:59Z</time>
      </trkpt>
      <trkpt lat="45.87239" lon="3.03791">
        <ele>465</ele>
        <time>2014-08-22T11:49:02Z</time>
      </trkpt>
      <trkpt lat="45.87243" lon="3.03802">
        <ele>465</ele>
        <time>2014-08-22T11:49:04Z</time>
      </trkpt>
      <trkpt lat="45.87246" lon="3.03814">
        <ele>465</ele>
        <time>2014-08-22T11:49:06Z</time>
      </trkpt>
      <trkpt lat="45.87251" lon="3.03827">
        <ele>465</ele>
        <time>2014-08-22T11:49:08Z</time>
      </trkpt>
      <trkpt lat="45.87255" lon="3.0385">
        <ele>465</ele>
        <time>2014-08-22T11:49:11Z</time>
      </trkpt>
      <trkpt lat="45.87259" lon="3.03877">
        <ele>465</ele>
        <time>2014-08-22T11:49:14Z</time>
      </trkpt>
      <trkpt lat="45.87261" lon="3.03892">
        <ele>464</ele>
        <time>2014-08-22T11:49:16Z</time>
      </trkpt>
      <trkpt lat="45.87265" lon="3.03911">
        <ele>462</ele>
        <time>2014-08-22T11:49:19Z</time>
      </trkpt>
      <trkpt lat="45.87272" lon="3.03931">
        <ele>460</ele>
        <time>2014-08-22T11:49:22Z</time>
      </trkpt>
      <trkpt lat="45.8728" lon="3.03941">
        <ele>459</ele>
        <time>2014-08-22T11:49:24Z</time>
      </trkpt>
      <trkpt lat="45.87289" lon="3.03945">
        <ele>457</ele>
        <time>2014-08-22T11:49:26Z</time>
      </trkpt>
      <trkpt lat="45.87304" lon="3.03954">
        <ele>456</ele>
        <time>2014-08-22T11:49:29Z</time>
      </trkpt>
      <trkpt lat="45.87313" lon="3.03959">
        <ele>456</ele>
        <time>2014-08-22T11:49:31Z</time>
      </trkpt>
      <trkpt lat="45.87327" lon="3.03966">
        <ele>457</ele>
        <time>2014-08-22T11:49:34Z</time>
      </trkpt>
      <trkpt lat="45.87334" lon="3.0397">
        <ele>457</ele>
        <time>2014-08-22T11:49:36Z</time>
      </trkpt>
      <trkpt lat="45.87342" lon="3.03973">
        <ele>456</ele>
        <time>2014-08-22T11:49:38Z</time>
      </trkpt>
      <trkpt lat="45.87357" lon="3.03978">
        <ele>456</ele>
        <time>2014-08-22T11:49:41Z</time>
      </trkpt>
      <trkpt lat="45.87366" lon="3.03981">
        <ele>456</ele>
        <time>2014-08-22T11:49:43Z</time>
      </trkpt>
      <trkpt lat="45.8738" lon="3.03985">
        <ele>456</ele>
        <time>2014-08-22T11:49:46Z</time>
      </trkpt>
      <trkpt lat="45.87383" lon="3.03988">
        <ele>456</ele>
        <time>2014-08-22T11:49:48Z</time>
      </trkpt>
      <trkpt lat="45.87389" lon="3.03993">
        <ele>456</ele>
        <time>2014-08-22T11:49:51Z</time>
      </trkpt>
      <trkpt lat="45.87397" lon="3.04">
        <ele>457</ele>
        <time>2014-08-22T11:49:53Z</time>
      </trkpt>
      <trkpt lat="45.87405" lon="3.0401">
        <ele>457</ele>
        <time>2014-08-22T11:49:55Z</time>
      </trkpt>
      <trkpt lat="45.87414" lon="3.0402">
        <ele>457</ele>
        <time>2014-08-22T11:49:57Z</time>
      </trkpt>
      <trkpt lat="45.87424" lon="3.04031">
        <ele>456</ele>
        <time>2014-08-22T11:49:59Z</time>
      </trkpt>
      <trkpt lat="45.87436" lon="3.04049">
        <ele>456</ele>
        <time>2014-08-22T11:50:02Z</time>
      </trkpt>
      <trkpt lat="45.87448" lon="3.04064">
        <ele>455</ele>
        <time>2014-08-22T11:50:04Z</time>
      </trkpt>
      <trkpt lat="45.87463" lon="3.04091">
        <ele>456</ele>
        <time>2014-08-22T11:50:07Z</time>
      </trkpt>
      <trkpt lat="45.87476" lon="3.04119">
        <ele>455</ele>
        <time>2014-08-22T11:50:10Z</time>
      </trkpt>
      <trkpt lat="45.87489" lon="3.04152">
        <ele>454</ele>
        <time>2014-08-22T11:50:13Z</time>
      </trkpt>
      <trkpt lat="45.87496" lon="3.04176">
        <ele>453</ele>
        <time>2014-08-22T11:50:15Z</time>
      </trkpt>
      <trkpt lat="45.87503" lon="3.04216">
        <ele>452</ele>
        <time>2014-08-22T11:50:18Z</time>
      </trkpt>
      <trkpt lat="45.87508" lon="3.04244">
        <ele>451</ele>
        <time>2014-08-22T11:50:20Z</time>
      </trkpt>
      <trkpt lat="45.87513" lon="3.04286">
        <ele>450</ele>
        <time>2014-08-22T11:50:23Z</time>
      </trkpt>
      <trkpt lat="45.87517" lon="3.04315">
        <ele>449</ele>
        <time>2014-08-22T11:50:25Z</time>
      </trkpt>
      <trkpt lat="45.87521" lon="3.04357">
        <ele>448</ele>
        <time>2014-08-22T11:50:28Z</time>
      </trkpt>
      <trkpt lat="45.87524" lon="3.04398">
        <ele>446</ele>
        <time>2014-08-22T11:50:31Z</time>
      </trkpt>
      <trkpt lat="45.8753" lon="3.04436">
        <ele>444</ele>
        <time>2014-08-22T11:50:34Z</time>
      </trkpt>
      <trkpt lat="45.87535" lon="3.04462">
        <ele>441</ele>
        <time>2014-08-22T11:50:36Z</time>
      </trkpt>
      <trkpt lat="45.87539" lon="3.04483">
        <ele>439</ele>
        <time>2014-08-22T11:50:38Z</time>
      </trkpt>
      <trkpt lat="45.87543" lon="3.04505">
        <ele>437</ele>
        <time>2014-08-22T11:50:41Z</time>
      </trkpt>
      <trkpt lat="45.87546" lon="3.04515">
        <ele>435</ele>
        <time>2014-08-22T11:50:43Z</time>
      </trkpt>
      <trkpt lat="45.87548" lon="3.04527">
        <ele>434</ele>
        <time>2014-08-22T11:50:46Z</time>
      </trkpt>
      <trkpt lat="45.87547" lon="3.04539">
        <ele>434</ele>
        <time>2014-08-22T11:50:49Z</time>
      </trkpt>
      <trkpt lat="45.87548" lon="3.04554">
        <ele>434</ele>
        <time>2014-08-22T11:50:52Z</time>
      </trkpt>
      <trkpt lat="45.87552" lon="3.04568">
        <ele>434</ele>
        <time>2014-08-22T11:50:54Z</time>
      </trkpt>
      <trkpt lat="45.87556" lon="3.04585">
        <ele>434</ele>
        <time>2014-08-22T11:50:56Z</time>
      </trkpt>
      <trkpt lat="45.8756" lon="3.04604">
        <ele>435</ele>
        <time>2014-08-22T11:50:58Z</time>
      </trkpt>
      <trkpt lat="45.87564" lon="3.04623">
        <ele>435</ele>
        <time>2014-08-22T11:51:00Z</time>
      </trkpt>
      <trkpt lat="45.87568" lon="3.04643">
        <ele>436</ele>
        <time>2014-08-22T11:51:02Z</time>
      </trkpt>
      <trkpt lat="45.87574" lon="3.04675">
        <ele>436</ele>
        <time>2014-08-22T11:51:05Z</time>
      </trkpt>
      <trkpt lat="45.8758" lon="3.04696">
        <ele>436</ele>
        <time>2014-08-22T11:51:07Z</time>
      </trkpt>
      <trkpt lat="45.8759" lon="3.04729">
        <ele>434</ele>
        <time>2014-08-22T11:51:10Z</time>
      </trkpt>
      <trkpt lat="45.87601" lon="3.04762">
        <ele>434</ele>
        <time>2014-08-22T11:51:13Z</time>
      </trkpt>
      <trkpt lat="45.87608" lon="3.04784">
        <ele>433</ele>
        <time>2014-08-22T11:51:15Z</time>
      </trkpt>
      <trkpt lat="45.87614" lon="3.04806">
        <ele>433</ele>
        <time>2014-08-22T11:51:17Z</time>
      </trkpt>
      <trkpt lat="45.87618" lon="3.0483">
        <ele>433</ele>
        <time>2014-08-22T11:51:19Z</time>
      </trkpt>
      <trkpt lat="45.8762" lon="3.04866">
        <ele>431</ele>
        <time>2014-08-22T11:51:22Z</time>
      </trkpt>
      <trkpt lat="45.87621" lon="3.0489">
        <ele>430</ele>
        <time>2014-08-22T11:51:24Z</time>
      </trkpt>
      <trkpt lat="45.8762" lon="3.04914">
        <ele>431</ele>
        <time>2014-08-22T11:51:26Z</time>
      </trkpt>
      <trkpt lat="45.87617" lon="3.04949">
        <ele>431</ele>
        <time>2014-08-22T11:51:29Z</time>
      </trkpt>
      <trkpt lat="45.87614" lon="3.04982">
        <ele>430</ele>
        <time>2014-08-22T11:51:32Z</time>
      </trkpt>
      <trkpt lat="45.87611" lon="3.05003">
        <ele>429</ele>
        <time>2014-08-22T11:51:34Z</time>
      </trkpt>
      <trkpt lat="45.87607" lon="3.05035">
        <ele>428</ele>
        <time>2014-08-22T11:51:37Z</time>
      </trkpt>
      <trkpt lat="45.87603" lon="3.05067">
        <ele>427</ele>
        <time>2014-08-22T11:51:40Z</time>
      </trkpt>
      <trkpt lat="45.87599" lon="3.05099">
        <ele>427</ele>
        <time>2014-08-22T11:51:43Z</time>
      </trkpt>
      <trkpt lat="45.87595" lon="3.0513">
        <ele>427</ele>
        <time>2014-08-22T11:51:46Z</time>
      </trkpt>
      <trkpt lat="45.87592" lon="3.05151">
        <ele>427</ele>
        <time>2014-08-22T11:51:48Z</time>
      </trkpt>
      <trkpt lat="45.87589" lon="3.05171">
        <ele>426</ele>
        <time>2014-08-22T11:51:50Z</time>
      </trkpt>
      <trkpt lat="45.87584" lon="3.05202">
        <ele>427</ele>
        <time>2014-08-22T11:51:53Z</time>
      </trkpt>
      <trkpt lat="45.87579" lon="3.05222">
        <ele>427</ele>
        <time>2014-08-22T11:51:55Z</time>
      </trkpt>
      <trkpt lat="45.87572" lon="3.05242">
        <ele>426</ele>
        <time>2014-08-22T11:51:57Z</time>
      </trkpt>
      <trkpt lat="45.87561" lon="3.0527">
        <ele>426</ele>
        <time>2014-08-22T11:52:00Z</time>
      </trkpt>
      <trkpt lat="45.87549" lon="3.05299">
        <ele>425</ele>
        <time>2014-08-22T11:52:03Z</time>
      </trkpt>
      <trkpt lat="45.8754" lon="3.05319">
        <ele>426</ele>
        <time>2014-08-22T11:52:05Z</time>
      </trkpt>
      <trkpt lat="45.87524" lon="3.05346">
        <ele>425</ele>
        <time>2014-08-22T11:52:08Z</time>
      </trkpt>
      <trkpt lat="45.87507" lon="3.05372">
        <ele>425</ele>
        <time>2014-08-22T11:52:11Z</time>
      </trkpt>
      <trkpt lat="45.87496" lon="3.05389">
        <ele>424</ele>
        <time>2014-08-22T11:52:13Z</time>
      </trkpt>
      <trkpt lat="45.8748" lon="3.05415">
        <ele>424</ele>
        <time>2014-08-22T11:52:16Z</time>
      </trkpt>
      <trkpt lat="45.87465" lon="3.05439">
        <ele>424</ele>
        <time>2014-08-22T11:52:19Z</time>
      </trkpt>
      <trkpt lat="45.8745" lon="3.05463">
        <ele>423</ele>
        <time>2014-08-22T11:52:22Z</time>
      </trkpt>
      <trkpt lat="45.8744" lon="3.05479">
        <ele>424</ele>
        <time>2014-08-22T11:52:24Z</time>
      </trkpt>
      <trkpt lat="45.87425" lon="3.05502">
        <ele>423</ele>
        <time>2014-08-22T11:52:27Z</time>
      </trkpt>
      <trkpt lat="45.8741" lon="3.05525">
        <ele>423</ele>
        <time>2014-08-22T11:52:30Z</time>
      </trkpt>
      <trkpt lat="45.874" lon="3.05541">
        <ele>422</ele>
        <time>2014-08-22T11:52:32Z</time>
      </trkpt>
      <trkpt lat="45.87389" lon="3.05556">
        <ele>422</ele>
        <time>2014-08-22T11:52:34Z</time>
      </trkpt>
      <trkpt lat="45.87377" lon="3.0557">
        <ele>422</ele>
        <time>2014-08-22T11:52:36Z</time>
      </trkpt>
      <trkpt lat="45.87354" lon="3.05586">
        <ele>421</ele>
        <time>2014-08-22T11:52:39Z</time>
      </trkpt>
      <trkpt lat="45.87338" lon="3.05596">
        <ele>421</ele>
        <time>2014-08-22T11:52:41Z</time>
      </trkpt>
      <trkpt lat="45.87315" lon="3.05621">
        <ele>420</ele>
        <time>2014-08-22T11:52:44Z</time>
      </trkpt>
      <trkpt lat="45.87294" lon="3.05654">
        <ele>420</ele>
        <time>2014-08-22T11:52:47Z</time>
      </trkpt>
      <trkpt lat="45.87277" lon="3.05671">
        <ele>420</ele>
        <time>2014-08-22T11:52:49Z</time>
      </trkpt>
      <trkpt lat="45.87256" lon="3.0568">
        <ele>419</ele>
        <time>2014-08-22T11:52:51Z</time>
      </trkpt>
      <trkpt lat="45.87226" lon="3.05699">
        <ele>418</ele>
        <time>2014-08-22T11:52:54Z</time>
      </trkpt>
      <trkpt lat="45.87209" lon="3.05739">
        <ele>416</ele>
        <time>2014-08-22T11:52:57Z</time>
      </trkpt>
      <trkpt lat="45.872" lon="3.0577">
        <ele>413</ele>
        <time>2014-08-22T11:52:59Z</time>
      </trkpt>
      <trkpt lat="45.87176" lon="3.05805">
        <ele>411</ele>
        <time>2014-08-22T11:53:02Z</time>
      </trkpt>
      <trkpt lat="45.8715" lon="3.05836">
        <ele>408</ele>
        <time>2014-08-22T11:53:05Z</time>
      </trkpt>
      <trkpt lat="45.87123" lon="3.05868">
        <ele>406</ele>
        <time>2014-08-22T11:53:08Z</time>
      </trkpt>
      <trkpt lat="45.87106" lon="3.0589">
        <ele>405</ele>
        <time>2014-08-22T11:53:10Z</time>
      </trkpt>
      <trkpt lat="45.87084" lon="3.05928">
        <ele>402</ele>
        <time>2014-08-22T11:53:13Z</time>
      </trkpt>
      <trkpt lat="45.87082" lon="3.05975">
        <ele>400</ele>
        <time>2014-08-22T11:53:16Z</time>
      </trkpt>
      <trkpt lat="45.87089" lon="3.06005">
        <ele>399</ele>
        <time>2014-08-22T11:53:18Z</time>
      </trkpt>
      <trkpt lat="45.87096" lon="3.06037">
        <ele>397</ele>
        <time>2014-08-22T11:53:20Z</time>
      </trkpt>
      <trkpt lat="45.87108" lon="3.06083">
        <ele>396</ele>
        <time>2014-08-22T11:53:23Z</time>
      </trkpt>
      <trkpt lat="45.8712" lon="3.06113">
        <ele>394</ele>
        <time>2014-08-22T11:53:25Z</time>
      </trkpt>
      <trkpt lat="45.87129" lon="3.06144">
        <ele>392</ele>
        <time>2014-08-22T11:53:27Z</time>
      </trkpt>
      <trkpt lat="45.87139" lon="3.06195">
        <ele>390</ele>
        <time>2014-08-22T11:53:30Z</time>
      </trkpt>
      <trkpt lat="45.87145" lon="3.06229">
        <ele>389</ele>
        <time>2014-08-22T11:53:32Z</time>
      </trkpt>
      <trkpt lat="45.8715" lon="3.06263">
        <ele>387</ele>
        <time>2014-08-22T11:53:34Z</time>
      </trkpt>
      <trkpt lat="45.87158" lon="3.06313">
        <ele>384</ele>
        <time>2014-08-22T11:53:37Z</time>
      </trkpt>
      <trkpt lat="45.87162" lon="3.06344">
        <ele>382</ele>
        <time>2014-08-22T11:53:39Z</time>
      </trkpt>
      <trkpt lat="45.87169" lon="3.0639">
        <ele>379</ele>
        <time>2014-08-22T11:53:42Z</time>
      </trkpt>
      <trkpt lat="45.87178" lon="3.06433">
        <ele>378</ele>
        <time>2014-08-22T11:53:45Z</time>
      </trkpt>
      <trkpt lat="45.87193" lon="3.0647">
        <ele>376</ele>
        <time>2014-08-22T11:53:48Z</time>
      </trkpt>
      <trkpt lat="45.87206" lon="3.06492">
        <ele>375</ele>
        <time>2014-08-22T11:53:50Z</time>
      </trkpt>
      <trkpt lat="45.87228" lon="3.0652">
        <ele>374</ele>
        <time>2014-08-22T11:53:53Z</time>
      </trkpt>
      <trkpt lat="45.87243" lon="3.06538">
        <ele>374</ele>
        <time>2014-08-22T11:53:55Z</time>
      </trkpt>
      <trkpt lat="45.87259" lon="3.06556">
        <ele>373</ele>
        <time>2014-08-22T11:53:57Z</time>
      </trkpt>
      <trkpt lat="45.87282" lon="3.06582">
        <ele>372</ele>
        <time>2014-08-22T11:54:00Z</time>
      </trkpt>
      <trkpt lat="45.87298" lon="3.066">
        <ele>372</ele>
        <time>2014-08-22T11:54:02Z</time>
      </trkpt>
      <trkpt lat="45.87314" lon="3.06618">
        <ele>371</ele>
        <time>2014-08-22T11:54:04Z</time>
      </trkpt>
      <trkpt lat="45.8733" lon="3.06636">
        <ele>370</ele>
        <time>2014-08-22T11:54:06Z</time>
      </trkpt>
      <trkpt lat="45.87355" lon="3.06663">
        <ele>369</ele>
        <time>2014-08-22T11:54:09Z</time>
      </trkpt>
      <trkpt lat="45.87371" lon="3.06682">
        <ele>368</ele>
        <time>2014-08-22T11:54:11Z</time>
      </trkpt>
      <trkpt lat="45.87385" lon="3.06703">
        <ele>366</ele>
        <time>2014-08-22T11:54:13Z</time>
      </trkpt>
      <trkpt lat="45.87401" lon="3.06738">
        <ele>366</ele>
        <time>2014-08-22T11:54:16Z</time>
      </trkpt>
      <trkpt lat="45.8741" lon="3.06778">
        <ele>365</ele>
        <time>2014-08-22T11:54:19Z</time>
      </trkpt>
      <trkpt lat="45.87416" lon="3.06818">
        <ele>365</ele>
        <time>2014-08-22T11:54:22Z</time>
      </trkpt>
      <trkpt lat="45.8742" lon="3.06844">
        <ele>364</ele>
        <time>2014-08-22T11:54:24Z</time>
      </trkpt>
      <trkpt lat="45.87425" lon="3.06883">
        <ele>364</ele>
        <time>2014-08-22T11:54:27Z</time>
      </trkpt>
      <trkpt lat="45.87428" lon="3.06922">
        <ele>363</ele>
        <time>2014-08-22T11:54:30Z</time>
      </trkpt>
      <trkpt lat="45.87431" lon="3.06947">
        <ele>362</ele>
        <time>2014-08-22T11:54:32Z</time>
      </trkpt>
      <trkpt lat="45.87434" lon="3.06984">
        <ele>361</ele>
        <time>2014-08-22T11:54:35Z</time>
      </trkpt>
      <trkpt lat="45.87436" lon="3.07021">
        <ele>361</ele>
        <time>2014-08-22T11:54:38Z</time>
      </trkpt>
      <trkpt lat="45.87438" lon="3.07045">
        <ele>360</ele>
        <time>2014-08-22T11:54:40Z</time>
      </trkpt>
      <trkpt lat="45.87439" lon="3.07081">
        <ele>360</ele>
        <time>2014-08-22T11:54:43Z</time>
      </trkpt>
      <trkpt lat="45.87439" lon="3.07104">
        <ele>358</ele>
        <time>2014-08-22T11:54:45Z</time>
      </trkpt>
      <trkpt lat="45.87439" lon="3.07128">
        <ele>358</ele>
        <time>2014-08-22T11:54:47Z</time>
      </trkpt>
      <trkpt lat="45.87439" lon="3.07163">
        <ele>358</ele>
        <time>2014-08-22T11:54:50Z</time>
      </trkpt>
      <trkpt lat="45.87436" lon="3.07195">
        <ele>357</ele>
        <time>2014-08-22T11:54:53Z</time>
      </trkpt>
      <trkpt lat="45.87433" lon="3.07215">
        <ele>356</ele>
        <time>2014-08-22T11:54:55Z</time>
      </trkpt>
      <trkpt lat="45.87428" lon="3.07244">
        <ele>356</ele>
        <time>2014-08-22T11:54:58Z</time>
      </trkpt>
      <trkpt lat="45.87424" lon="3.07272">
        <ele>355</ele>
        <time>2014-08-22T11:55:01Z</time>
      </trkpt>
      <trkpt lat="45.87422" lon="3.07302">
        <ele>355</ele>
        <time>2014-08-22T11:55:04Z</time>
      </trkpt>
      <trkpt lat="45.87422" lon="3.07324">
        <ele>355</ele>
        <time>2014-08-22T11:55:06Z</time>
      </trkpt>
      <trkpt lat="45.87423" lon="3.07346">
        <ele>355</ele>
        <time>2014-08-22T11:55:08Z</time>
      </trkpt>
      <trkpt lat="45.87426" lon="3.07368">
        <ele>355</ele>
        <time>2014-08-22T11:55:10Z</time>
      </trkpt>
      <trkpt lat="45.87433" lon="3.07401">
        <ele>355</ele>
        <time>2014-08-22T11:55:13Z</time>
      </trkpt>
      <trkpt lat="45.87444" lon="3.07433">
        <ele>355</ele>
        <time>2014-08-22T11:55:16Z</time>
      </trkpt>
      <trkpt lat="45.87456" lon="3.07464">
        <ele>355</ele>
        <time>2014-08-22T11:55:19Z</time>
      </trkpt>
      <trkpt lat="45.87463" lon="3.07485">
        <ele>356</ele>
        <time>2014-08-22T11:55:21Z</time>
      </trkpt>
      <trkpt lat="45.87472" lon="3.07516">
        <ele>355</ele>
        <time>2014-08-22T11:55:24Z</time>
      </trkpt>
      <trkpt lat="45.8748" lon="3.07547">
        <ele>355</ele>
        <time>2014-08-22T11:55:27Z</time>
      </trkpt>
      <trkpt lat="45.87486" lon="3.07567">
        <ele>355</ele>
        <time>2014-08-22T11:55:29Z</time>
      </trkpt>
      <trkpt lat="45.87492" lon="3.07587">
        <ele>354</ele>
        <time>2014-08-22T11:55:31Z</time>
      </trkpt>
      <trkpt lat="45.875" lon="3.07617">
        <ele>354</ele>
        <time>2014-08-22T11:55:34Z</time>
      </trkpt>
      <trkpt lat="45.87504" lon="3.07638">
        <ele>353</ele>
        <time>2014-08-22T11:55:36Z</time>
      </trkpt>
      <trkpt lat="45.87508" lon="3.07658">
        <ele>353</ele>
        <time>2014-08-22T11:55:38Z</time>
      </trkpt>
      <trkpt lat="45.87519" lon="3.07686">
        <ele>353</ele>
        <time>2014-08-22T11:55:41Z</time>
      </trkpt>
      <trkpt lat="45.87535" lon="3.07711">
        <ele>352</ele>
        <time>2014-08-22T11:55:44Z</time>
      </trkpt>
      <trkpt lat="45.87548" lon="3.07737">
        <ele>352</ele>
        <time>2014-08-22T11:55:47Z</time>
      </trkpt>
      <trkpt lat="45.87556" lon="3.07755">
        <ele>352</ele>
        <time>2014-08-22T11:55:49Z</time>
      </trkpt>
      <trkpt lat="45.87568" lon="3.07782">
        <ele>352</ele>
        <time>2014-08-22T11:55:52Z</time>
      </trkpt>
      <trkpt lat="45.8758" lon="3.07809">
        <ele>351</ele>
        <time>2014-08-22T11:55:55Z</time>
      </trkpt>
      <trkpt lat="45.87587" lon="3.07827">
        <ele>351</ele>
        <time>2014-08-22T11:55:57Z</time>
      </trkpt>
      <trkpt lat="45.87597" lon="3.07855">
        <ele>350</ele>
        <time>2014-08-22T11:56:00Z</time>
      </trkpt>
      <trkpt lat="45.87606" lon="3.07883">
        <ele>350</ele>
        <time>2014-08-22T11:56:03Z</time>
      </trkpt>
      <trkpt lat="45.87611" lon="3.07902">
        <ele>350</ele>
        <time>2014-08-22T11:56:05Z</time>
      </trkpt>
      <trkpt lat="45.87618" lon="3.07931">
        <ele>350</ele>
        <time>2014-08-22T11:56:08Z</time>
      </trkpt>
      <trkpt lat="45.87622" lon="3.0795">
        <ele>350</ele>
        <time>2014-08-22T11:56:10Z</time>
      </trkpt>
      <trkpt lat="45.87626" lon="3.07969">
        <ele>350</ele>
        <time>2014-08-22T11:56:12Z</time>
      </trkpt>
      <trkpt lat="45.87634" lon="3.07996">
        <ele>350</ele>
        <time>2014-08-22T11:56:15Z</time>
      </trkpt>
      <trkpt lat="45.87642" lon="3.08023">
        <ele>350</ele>
        <time>2014-08-22T11:56:18Z</time>
      </trkpt>
      <trkpt lat="45.87653" lon="3.0805">
        <ele>349</ele>
        <time>2014-08-22T11:56:21Z</time>
      </trkpt>
      <trkpt lat="45.87664" lon="3.08077">
        <ele>348</ele>
        <time>2014-08-22T11:56:24Z</time>
      </trkpt>
      <trkpt lat="45.8767" lon="3.08095">
        <ele>348</ele>
        <time>2014-08-22T11:56:26Z</time>
      </trkpt>
      <trkpt lat="45.87677" lon="3.08113">
        <ele>348</ele>
        <time>2014-08-22T11:56:28Z</time>
      </trkpt>
      <trkpt lat="45.87682" lon="3.08131">
        <ele>348</ele>
        <time>2014-08-22T11:56:30Z</time>
      </trkpt>
      <trkpt lat="45.87692" lon="3.08156">
        <ele>348</ele>
        <time>2014-08-22T11:56:33Z</time>
      </trkpt>
      <trkpt lat="45.87704" lon="3.08179">
        <ele>347</ele>
        <time>2014-08-22T11:56:36Z</time>
      </trkpt>
      <trkpt lat="45.8772" lon="3.08193">
        <ele>346</ele>
        <time>2014-08-22T11:56:39Z</time>
      </trkpt>
      <trkpt lat="45.87731" lon="3.08199">
        <ele>345</ele>
        <time>2014-08-22T11:56:41Z</time>
      </trkpt>
      <trkpt lat="45.87745" lon="3.0821">
        <ele>345</ele>
        <time>2014-08-22T11:56:44Z</time>
      </trkpt>
      <trkpt lat="45.87754" lon="3.08215">
        <ele>345</ele>
        <time>2014-08-22T11:56:46Z</time>
      </trkpt>
      <trkpt lat="45.87773" lon="3.08224">
        <ele>345</ele>
        <time>2014-08-22T11:56:49Z</time>
      </trkpt>
      <trkpt lat="45.87784" lon="3.08235">
        <ele>346</ele>
        <time>2014-08-22T11:56:51Z</time>
      </trkpt>
      <trkpt lat="45.87793" lon="3.0826">
        <ele>346</ele>
        <time>2014-08-22T11:56:54Z</time>
      </trkpt>
      <trkpt lat="45.878" lon="3.08287">
        <ele>346</ele>
        <time>2014-08-22T11:56:57Z</time>
      </trkpt>
      <trkpt lat="45.87805" lon="3.08305">
        <ele>345</ele>
        <time>2014-08-22T11:56:59Z</time>
      </trkpt>
      <trkpt lat="45.87812" lon="3.08333">
        <ele>344</ele>
        <time>2014-08-22T11:57:02Z</time>
      </trkpt>
      <trkpt lat="45.87818" lon="3.08352">
        <ele>344</ele>
        <time>2014-08-22T11:57:04Z</time>
      </trkpt>
      <trkpt lat="45.87825" lon="3.08369">
        <ele>344</ele>
        <time>2014-08-22T11:57:06Z</time>
      </trkpt>
      <trkpt lat="45.87833" lon="3.08386">
        <ele>344</ele>
        <time>2014-08-22T11:57:08Z</time>
      </trkpt>
      <trkpt lat="45.87843" lon="3.08414">
        <ele>344</ele>
        <time>2014-08-22T11:57:11Z</time>
      </trkpt>
      <trkpt lat="45.87852" lon="3.08442">
        <ele>344</ele>
        <time>2014-08-22T11:57:14Z</time>
      </trkpt>
      <trkpt lat="45.87859" lon="3.0846">
        <ele>344</ele>
        <time>2014-08-22T11:57:16Z</time>
      </trkpt>
      <trkpt lat="45.87874" lon="3.08486">
        <ele>343</ele>
        <time>2014-08-22T11:57:19Z</time>
      </trkpt>
      <trkpt lat="45.87886" lon="3.08502">
        <ele>342</ele>
        <time>2014-08-22T11:57:21Z</time>
      </trkpt>
      <trkpt lat="45.87904" lon="3.08522">
        <ele>341</ele>
        <time>2014-08-22T11:57:24Z</time>
      </trkpt>
      <trkpt lat="45.87925" lon="3.08544">
        <ele>340</ele>
        <time>2014-08-22T11:57:27Z</time>
      </trkpt>
      <trkpt lat="45.87946" lon="3.08568">
        <ele>340</ele>
        <time>2014-08-22T11:57:30Z</time>
      </trkpt>
      <trkpt lat="45.87968" lon="3.08591">
        <ele>339</ele>
        <time>2014-08-22T11:57:33Z</time>
      </trkpt>
      <trkpt lat="45.87987" lon="3.08619">
        <ele>339</ele>
        <time>2014-08-22T11:57:36Z</time>
      </trkpt>
      <trkpt lat="45.87999" lon="3.08653">
        <ele>337</ele>
        <time>2014-08-22T11:57:39Z</time>
      </trkpt>
      <trkpt lat="45.88003" lon="3.08677">
        <ele>336</ele>
        <time>2014-08-22T11:57:41Z</time>
      </trkpt>
      <trkpt lat="45.88008" lon="3.08712">
        <ele>335</ele>
        <time>2014-08-22T11:57:44Z</time>
      </trkpt>
      <trkpt lat="45.8801" lon="3.08734">
        <ele>334</ele>
        <time>2014-08-22T11:57:46Z</time>
      </trkpt>
      <trkpt lat="45.88013" lon="3.08755">
        <ele>334</ele>
        <time>2014-08-22T11:57:48Z</time>
      </trkpt>
      <trkpt lat="45.88016" lon="3.08776">
        <ele>332</ele>
        <time>2014-08-22T11:57:50Z</time>
      </trkpt>
      <trkpt lat="45.88021" lon="3.08797">
        <ele>332</ele>
        <time>2014-08-22T11:57:52Z</time>
      </trkpt>
      <trkpt lat="45.88027" lon="3.08817">
        <ele>331</ele>
        <time>2014-08-22T11:57:54Z</time>
      </trkpt>
      <trkpt lat="45.88036" lon="3.08835">
        <ele>331</ele>
        <time>2014-08-22T11:57:56Z</time>
      </trkpt>
      <trkpt lat="45.88051" lon="3.0886">
        <ele>330</ele>
        <time>2014-08-22T11:57:59Z</time>
      </trkpt>
      <trkpt lat="45.88068" lon="3.08883">
        <ele>330</ele>
        <time>2014-08-22T11:58:02Z</time>
      </trkpt>
      <trkpt lat="45.8808" lon="3.08897">
        <ele>330</ele>
        <time>2014-08-22T11:58:04Z</time>
      </trkpt>
      <trkpt lat="45.88103" lon="3.08909">
        <ele>329</ele>
        <time>2014-08-22T11:58:07Z</time>
      </trkpt>
      <trkpt lat="45.88121" lon="3.08912">
        <ele>329</ele>
        <time>2014-08-22T11:58:09Z</time>
      </trkpt>
      <trkpt lat="45.88144" lon="3.08915">
        <ele>329</ele>
        <time>2014-08-22T11:58:12Z</time>
      </trkpt>
      <trkpt lat="45.88157" lon="3.0892">
        <ele>329</ele>
        <time>2014-08-22T11:58:14Z</time>
      </trkpt>
      <trkpt lat="45.88186" lon="3.08928">
        <ele>328</ele>
        <time>2014-08-22T11:58:17Z</time>
      </trkpt>
      <trkpt lat="45.88214" lon="3.0894">
        <ele>327</ele>
        <time>2014-08-22T11:58:20Z</time>
      </trkpt>
      <trkpt lat="45.88241" lon="3.08955">
        <ele>325</ele>
        <time>2014-08-22T11:58:23Z</time>
      </trkpt>
      <trkpt lat="45.88258" lon="3.08965">
        <ele>324</ele>
        <time>2014-08-22T11:58:25Z</time>
      </trkpt>
      <trkpt lat="45.88274" lon="3.08978">
        <ele>323</ele>
        <time>2014-08-22T11:58:27Z</time>
      </trkpt>
      <trkpt lat="45.88287" lon="3.08994">
        <ele>323</ele>
        <time>2014-08-22T11:58:29Z</time>
      </trkpt>
      <trkpt lat="45.88298" lon="3.09012">
        <ele>322</ele>
        <time>2014-08-22T11:58:31Z</time>
      </trkpt>
      <trkpt lat="45.88308" lon="3.0903">
        <ele>321</ele>
        <time>2014-08-22T11:58:33Z</time>
      </trkpt>
      <trkpt lat="45.88325" lon="3.09055">
        <ele>320</ele>
        <time>2014-08-22T11:58:36Z</time>
      </trkpt>
      <trkpt lat="45.88334" lon="3.09072">
        <ele>320</ele>
        <time>2014-08-22T11:58:38Z</time>
      </trkpt>
      <trkpt lat="45.88348" lon="3.09097">
        <ele>320</ele>
        <time>2014-08-22T11:58:41Z</time>
      </trkpt>
      <trkpt lat="45.8836" lon="3.09121">
        <ele>320</ele>
        <time>2014-08-22T11:58:44Z</time>
      </trkpt>
      <trkpt lat="45.88371" lon="3.09144">
        <ele>319</ele>
        <time>2014-08-22T11:58:47Z</time>
      </trkpt>
      <trkpt lat="45.88378" lon="3.0916">
        <ele>319</ele>
        <time>2014-08-22T11:58:49Z</time>
      </trkpt>
      <trkpt lat="45.88388" lon="3.09182">
        <ele>319</ele>
        <time>2014-08-22T11:58:52Z</time>
      </trkpt>
      <trkpt lat="45.88398" lon="3.09204">
        <ele>319</ele>
        <time>2014-08-22T11:58:55Z</time>
      </trkpt>
      <trkpt lat="45.88404" lon="3.09218">
        <ele>319</ele>
        <time>2014-08-22T11:58:57Z</time>
      </trkpt>
      <trkpt lat="45.8841" lon="3.09231">
        <ele>320</ele>
        <time>2014-08-22T11:58:59Z</time>
      </trkpt>
      <trkpt lat="45.88416" lon="3.09245">
        <ele>320</ele>
        <time>2014-08-22T11:59:01Z</time>
      </trkpt>
      <trkpt lat="45.88425" lon="3.09265">
        <ele>320</ele>
        <time>2014-08-22T11:59:04Z</time>
      </trkpt>
      <trkpt lat="45.88435" lon="3.09286">
        <ele>321</ele>
        <time>2014-08-22T11:59:07Z</time>
      </trkpt>
      <trkpt lat="45.88444" lon="3.09307">
        <ele>321</ele>
        <time>2014-08-22T11:59:10Z</time>
      </trkpt>
      <trkpt lat="45.8845" lon="3.09321">
        <ele>321</ele>
        <time>2014-08-22T11:59:12Z</time>
      </trkpt>
      <trkpt lat="45.88459" lon="3.09343">
        <ele>321</ele>
        <time>2014-08-22T11:59:15Z</time>
      </trkpt>
      <trkpt lat="45.88466" lon="3.09358">
        <ele>321</ele>
        <time>2014-08-22T11:59:17Z</time>
      </trkpt>
      <trkpt lat="45.88475" lon="3.09379">
        <ele>321</ele>
        <time>2014-08-22T11:59:20Z</time>
      </trkpt>
      <trkpt lat="45.88481" lon="3.09392">
        <ele>321</ele>
        <time>2014-08-22T11:59:22Z</time>
      </trkpt>
      <trkpt lat="45.88489" lon="3.0941">
        <ele>321</ele>
        <time>2014-08-22T11:59:25Z</time>
      </trkpt>
      <trkpt lat="45.88488" lon="3.09419">
        <ele>322</ele>
        <time>2014-08-22T11:59:27Z</time>
      </trkpt>
      <trkpt lat="45.88482" lon="3.09424">
        <ele>321</ele>
        <time>2014-08-22T11:59:29Z</time>
      </trkpt>
      <trkpt lat="45.88472" lon="3.09429">
        <ele>322</ele>
        <time>2014-08-22T11:59:31Z</time>
      </trkpt>
      <trkpt lat="45.88456" lon="3.09438">
        <ele>322</ele>
        <time>2014-08-22T11:59:34Z</time>
      </trkpt>
      <trkpt lat="45.8844" lon="3.09453">
        <ele>322</ele>
        <time>2014-08-22T11:59:37Z</time>
      </trkpt>
      <trkpt lat="45.88423" lon="3.09471">
        <ele>320</ele>
        <time>2014-08-22T11:59:40Z</time>
      </trkpt>
      <trkpt lat="45.88404" lon="3.0949">
        <ele>319</ele>
        <time>2014-08-22T11:59:43Z</time>
      </trkpt>
      <trkpt lat="45.88388" lon="3.09509">
        <ele>318</ele>
        <time>2014-08-22T11:59:46Z</time>
      </trkpt>
      <trkpt lat="45.88382" lon="3.09538">
        <ele>317</ele>
        <time>2014-08-22T11:59:49Z</time>
      </trkpt>
      <trkpt lat="45.88384" lon="3.09558">
        <ele>316</ele>
        <time>2014-08-22T11:59:51Z</time>
      </trkpt>
      <trkpt lat="45.88388" lon="3.09589">
        <ele>317</ele>
        <time>2014-08-22T11:59:54Z</time>
      </trkpt>
      <trkpt lat="45.88391" lon="3.09621">
        <ele>317</ele>
        <time>2014-08-22T11:59:57Z</time>
      </trkpt>
      <trkpt lat="45.88395" lon="3.09653">
        <ele>317</ele>
        <time>2014-08-22T12:00:00Z</time>
      </trkpt>
      <trkpt lat="45.88397" lon="3.09674">
        <ele>317</ele>
        <time>2014-08-22T12:00:02Z</time>
      </trkpt>
      <trkpt lat="45.88401" lon="3.09706">
        <ele>317</ele>
        <time>2014-08-22T12:00:05Z</time>
      </trkpt>
      <trkpt lat="45.88406" lon="3.09738">
        <ele>316</ele>
        <time>2014-08-22T12:00:08Z</time>
      </trkpt>
      <trkpt lat="45.8841" lon="3.09759">
        <ele>316</ele>
        <time>2014-08-22T12:00:10Z</time>
      </trkpt>
      <trkpt lat="45.88414" lon="3.09792">
        <ele>316</ele>
        <time>2014-08-22T12:00:13Z</time>
      </trkpt>
      <trkpt lat="45.88419" lon="3.09825">
        <ele>315</ele>
        <time>2014-08-22T12:00:16Z</time>
      </trkpt>
      <trkpt lat="45.88424" lon="3.09858">
        <ele>315</ele>
        <time>2014-08-22T12:00:19Z</time>
      </trkpt>
      <trkpt lat="45.88429" lon="3.09892">
        <ele>314</ele>
        <time>2014-08-22T12:00:22Z</time>
      </trkpt>
      <trkpt lat="45.88434" lon="3.09927">
        <ele>314</ele>
        <time>2014-08-22T12:00:25Z</time>
      </trkpt>
      <trkpt lat="45.88439" lon="3.09962">
        <ele>313</ele>
        <time>2014-08-22T12:00:28Z</time>
      </trkpt>
      <trkpt lat="45.88444" lon="3.09997">
        <ele>313</ele>
        <time>2014-08-22T12:00:31Z</time>
      </trkpt>
      <trkpt lat="45.88448" lon="3.10021">
        <ele>313</ele>
        <time>2014-08-22T12:00:33Z</time>
      </trkpt>
      <trkpt lat="45.88451" lon="3.10056">
        <ele>313</ele>
        <time>2014-08-22T12:00:36Z</time>
      </trkpt>
      <trkpt lat="45.88457" lon="3.10092">
        <ele>313</ele>
        <time>2014-08-22T12:00:39Z</time>
      </trkpt>
      <trkpt lat="45.88462" lon="3.10125">
        <ele>312</ele>
        <time>2014-08-22T12:00:42Z</time>
      </trkpt>
      <trkpt lat="45.88467" lon="3.10158">
        <ele>311</ele>
        <time>2014-08-22T12:00:45Z</time>
      </trkpt>
      <trkpt lat="45.88471" lon="3.1019">
        <ele>311</ele>
        <time>2014-08-22T12:00:48Z</time>
      </trkpt>
      <trkpt lat="45.88474" lon="3.10211">
        <ele>311</ele>
        <time>2014-08-22T12:00:50Z</time>
      </trkpt>
      <trkpt lat="45.88477" lon="3.10233">
        <ele>310</ele>
        <time>2014-08-22T12:00:52Z</time>
      </trkpt>
      <trkpt lat="45.88481" lon="3.10265">
        <ele>310</ele>
        <time>2014-08-22T12:00:55Z</time>
      </trkpt>
      <trkpt lat="45.88485" lon="3.10286">
        <ele>309</ele>
        <time>2014-08-22T12:00:57Z</time>
      </trkpt>
      <trkpt lat="45.88488" lon="3.10306">
        <ele>309</ele>
        <time>2014-08-22T12:00:59Z</time>
      </trkpt>
      <trkpt lat="45.88491" lon="3.10335">
        <ele>309</ele>
        <time>2014-08-22T12:01:02Z</time>
      </trkpt>
      <trkpt lat="45.88494" lon="3.10354">
        <ele>309</ele>
        <time>2014-08-22T12:01:04Z</time>
      </trkpt>
      <trkpt lat="45.88496" lon="3.10373">
        <ele>309</ele>
        <time>2014-08-22T12:01:06Z</time>
      </trkpt>
      <trkpt lat="45.885" lon="3.10401">
        <ele>308</ele>
        <time>2014-08-22T12:01:09Z</time>
      </trkpt>
      <trkpt lat="45.88503" lon="3.1042">
        <ele>307</ele>
        <time>2014-08-22T12:01:11Z</time>
      </trkpt>
      <trkpt lat="45.88506" lon="3.10439">
        <ele>307</ele>
        <time>2014-08-22T12:01:13Z</time>
      </trkpt>
      <trkpt lat="45.88507" lon="3.10458">
        <ele>308</ele>
        <time>2014-08-22T12:01:15Z</time>
      </trkpt>
      <trkpt lat="45.88509" lon="3.10487">
        <ele>308</ele>
        <time>2014-08-22T12:01:18Z</time>
      </trkpt>
      <trkpt lat="45.8851" lon="3.10508">
        <ele>307</ele>
        <time>2014-08-22T12:01:20Z</time>
      </trkpt>
      <trkpt lat="45.8851" lon="3.10528">
        <ele>307</ele>
        <time>2014-08-22T12:01:22Z</time>
      </trkpt>
      <trkpt lat="45.88509" lon="3.1056">
        <ele>306</ele>
        <time>2014-08-22T12:01:25Z</time>
      </trkpt>
      <trkpt lat="45.88507" lon="3.10581">
        <ele>306</ele>
        <time>2014-08-22T12:01:27Z</time>
      </trkpt>
      <trkpt lat="45.88506" lon="3.10603">
        <ele>306</ele>
        <time>2014-08-22T12:01:29Z</time>
      </trkpt>
      <trkpt lat="45.88505" lon="3.10624">
        <ele>306</ele>
        <time>2014-08-22T12:01:31Z</time>
      </trkpt>
      <trkpt lat="45.88503" lon="3.10656">
        <ele>306</ele>
        <time>2014-08-22T12:01:34Z</time>
      </trkpt>
      <trkpt lat="45.88502" lon="3.10688">
        <ele>306</ele>
        <time>2014-08-22T12:01:37Z</time>
      </trkpt>
      <trkpt lat="45.88501" lon="3.10708">
        <ele>306</ele>
        <time>2014-08-22T12:01:39Z</time>
      </trkpt>
      <trkpt lat="45.88499" lon="3.10737">
        <ele>306</ele>
        <time>2014-08-22T12:01:42Z</time>
      </trkpt>
      <trkpt lat="45.88498" lon="3.10757">
        <ele>306</ele>
        <time>2014-08-22T12:01:44Z</time>
      </trkpt>
      <trkpt lat="45.88498" lon="3.10785">
        <ele>306</ele>
        <time>2014-08-22T12:01:47Z</time>
      </trkpt>
      <trkpt lat="45.885" lon="3.10814">
        <ele>305</ele>
        <time>2014-08-22T12:01:49Z</time>
      </trkpt>
      <trkpt lat="45.88502" lon="3.10833">
        <ele>306</ele>
        <time>2014-08-22T12:01:52Z</time>
      </trkpt>
      <trkpt lat="45.88505" lon="3.10852">
        <ele>306</ele>
        <time>2014-08-22T12:01:54Z</time>
      </trkpt>
      <trkpt lat="45.88511" lon="3.10878">
        <ele>306</ele>
        <time>2014-08-22T12:01:56Z</time>
      </trkpt>
      <trkpt lat="45.88515" lon="3.10895">
        <ele>305</ele>
        <time>2014-08-22T12:01:59Z</time>
      </trkpt>
      <trkpt lat="45.8852" lon="3.10917">
        <ele>305</ele>
        <time>2014-08-22T12:02:02Z</time>
      </trkpt>
      <trkpt lat="45.88521" lon="3.10927">
        <ele>304</ele>
        <time>2014-08-22T12:02:05Z</time>
      </trkpt>
      <trkpt lat="45.8852" lon="3.10934">
        <ele>304</ele>
        <time>2014-08-22T12:02:07Z</time>
      </trkpt>
      <trkpt lat="45.8852" lon="3.10948">
        <ele>303</ele>
        <time>2014-08-22T12:02:10Z</time>
      </trkpt>
      <trkpt lat="45.88519" lon="3.1096">
        <ele>303</ele>
        <time>2014-08-22T12:02:12Z</time>
      </trkpt>
      <trkpt lat="45.88518" lon="3.10972">
        <ele>303</ele>
        <time>2014-08-22T12:02:14Z</time>
      </trkpt>
      <trkpt lat="45.88517" lon="3.10984">
        <ele>303</ele>
        <time>2014-08-22T12:02:16Z</time>
      </trkpt>
      <trkpt lat="45.88512" lon="3.10996">
        <ele>302</ele>
        <time>2014-08-22T12:02:19Z</time>
      </trkpt>
      <trkpt lat="45.88507" lon="3.10997">
        <ele>302</ele>
        <time>2014-08-22T12:02:21Z</time>
      </trkpt>
      <trkpt lat="45.88506" lon="3.10998">
        <ele>302</ele>
        <time>2014-08-22T12:02:25Z</time>
      </trkpt>
      <trkpt lat="45.88496" lon="3.10998">
        <ele>302</ele>
        <time>2014-08-22T12:02:27Z</time>
      </trkpt>
      <trkpt lat="45.88489" lon="3.10996">
        <ele>302</ele>
        <time>2014-08-22T12:02:30Z</time>
      </trkpt>
      <trkpt lat="45.88486" lon="3.10996">
        <ele>302</ele>
        <time>2014-08-22T12:02:31Z</time>
      </trkpt>
    </trkseg>
  </trk>
</gpx>